<gpx xmlns="http://www.topografix.com/GPX/1/1" xmlns:xsi="http://www.w3.org/2001/XMLSchema-instance" version="1.1" xsi:schemaLocation="http://www.topografix.com/GPX/1/1 http://www.topografix.com/GPX/1/1/gpx.xsd" creator="MotionXGPSFull 24.1 Build 5049R64">
<trk>
<name>GH + PTB </name>
<desc>5 Dec 2015  5:30 am</desc>
<trkseg>
<trkpt lat="-27.3562047" lon="152.9569321">
<ele>25.185</ele>
<time>2015-12-04T19:37:00.999Z</time>
</trkpt>
<trkpt lat="-27.3560447" lon="152.9570136">
<ele>25.174</ele>
<time>2015-12-04T19:37:02.591Z</time>
</trkpt>
<trkpt lat="-27.3557100" lon="152.9572115">
<ele>25.137</ele>
<time>2015-12-04T19:37:06.049Z</time>
</trkpt>
<trkpt lat="-27.3555257" lon="152.9572695">
<ele>24.873</ele>
<time>2015-12-04T19:37:07.928Z</time>
</trkpt>
<trkpt lat="-27.3552459" lon="152.9573196">
<ele>24.272</ele>
<time>2015-12-04T19:37:10.903Z</time>
</trkpt>
<trkpt lat="-27.3550829" lon="152.9573327">
<ele>23.565</ele>
<time>2015-12-04T19:37:12.738Z</time>
</trkpt>
<trkpt lat="-27.3549613" lon="152.9572656">
<ele>22.908</ele>
<time>2015-12-04T19:37:14.477Z</time>
</trkpt>
<trkpt lat="-27.3548365" lon="152.9573528">
<ele>22.248</ele>
<time>2015-12-04T19:37:16.949Z</time>
</trkpt>
<trkpt lat="-27.3549110" lon="152.9576201">
<ele>21.702</ele>
<time>2015-12-04T19:37:21.382Z</time>
</trkpt>
<trkpt lat="-27.3549204" lon="152.9578726">
<ele>21.499</ele>
<time>2015-12-04T19:37:24.155Z</time>
</trkpt>
<trkpt lat="-27.3549295" lon="152.9581157">
<ele>21.897</ele>
<time>2015-12-04T19:37:26.197Z</time>
</trkpt>
<trkpt lat="-27.3549447" lon="152.9585264">
<ele>22.978</ele>
<time>2015-12-04T19:37:29.271Z</time>
</trkpt>
<trkpt lat="-27.3549561" lon="152.9588200">
<ele>24.696</ele>
<time>2015-12-04T19:37:31.321Z</time>
</trkpt>
<trkpt lat="-27.3549742" lon="152.9591036">
<ele>26.811</ele>
<time>2015-12-04T19:37:33.292Z</time>
</trkpt>
<trkpt lat="-27.3550549" lon="152.9595258">
<ele>28.626</ele>
<time>2015-12-04T19:37:36.317Z</time>
</trkpt>
<trkpt lat="-27.3551475" lon="152.9597909">
<ele>29.515</ele>
<time>2015-12-04T19:37:38.331Z</time>
</trkpt>
<trkpt lat="-27.3552520" lon="152.9600504">
<ele>29.619</ele>
<time>2015-12-04T19:37:40.329Z</time>
</trkpt>
<trkpt lat="-27.3553618" lon="152.9603268">
<ele>29.469</ele>
<time>2015-12-04T19:37:42.390Z</time>
</trkpt>
<trkpt lat="-27.3555230" lon="152.9607349">
<ele>29.419</ele>
<time>2015-12-04T19:37:45.454Z</time>
</trkpt>
<trkpt lat="-27.3556171" lon="152.9609792">
<ele>29.305</ele>
<time>2015-12-04T19:37:47.437Z</time>
</trkpt>
<trkpt lat="-27.3556498" lon="152.9612138">
<ele>28.679</ele>
<time>2015-12-04T19:37:49.405Z</time>
</trkpt>
<trkpt lat="-27.3558211" lon="152.9614655">
<ele>27.355</ele>
<time>2015-12-04T19:37:52.230Z</time>
</trkpt>
<trkpt lat="-27.3559818" lon="152.9618208">
<ele>25.797</ele>
<time>2015-12-04T19:37:55.420Z</time>
</trkpt>
<trkpt lat="-27.3560871" lon="152.9621105">
<ele>24.758</ele>
<time>2015-12-04T19:37:57.555Z</time>
</trkpt>
<trkpt lat="-27.3562981" lon="152.9625374">
<ele>24.505</ele>
<time>2015-12-04T19:38:00.624Z</time>
</trkpt>
<trkpt lat="-27.3564530" lon="152.9628228">
<ele>24.904</ele>
<time>2015-12-04T19:38:02.598Z</time>
</trkpt>
<trkpt lat="-27.3567101" lon="152.9632570">
<ele>25.695</ele>
<time>2015-12-04T19:38:05.620Z</time>
</trkpt>
<trkpt lat="-27.3569009" lon="152.9635068">
<ele>26.426</ele>
<time>2015-12-04T19:38:07.543Z</time>
</trkpt>
<trkpt lat="-27.3570744" lon="152.9636958">
<ele>26.887</ele>
<time>2015-12-04T19:38:09.147Z</time>
</trkpt>
<trkpt lat="-27.3574486" lon="152.9641103">
<ele>27.420</ele>
<time>2015-12-04T19:38:12.610Z</time>
</trkpt>
<trkpt lat="-27.3578074" lon="152.9645011">
<ele>28.526</ele>
<time>2015-12-04T19:38:15.888Z</time>
</trkpt>
<trkpt lat="-27.3581068" lon="152.9648794">
<ele>30.630</ele>
<time>2015-12-04T19:38:18.847Z</time>
</trkpt>
<trkpt lat="-27.3584119" lon="152.9653266">
<ele>33.701</ele>
<time>2015-12-04T19:38:22.116Z</time>
</trkpt>
<trkpt lat="-27.3585544" lon="152.9656014">
<ele>37.010</ele>
<time>2015-12-04T19:38:24.024Z</time>
</trkpt>
<trkpt lat="-27.3586526" lon="152.9658879">
<ele>39.527</ele>
<time>2015-12-04T19:38:25.917Z</time>
</trkpt>
<trkpt lat="-27.3587045" lon="152.9664902">
<ele>40.509</ele>
<time>2015-12-04T19:38:29.749Z</time>
</trkpt>
<trkpt lat="-27.3586616" lon="152.9667920">
<ele>39.563</ele>
<time>2015-12-04T19:38:31.688Z</time>
</trkpt>
<trkpt lat="-27.3585754" lon="152.9670502">
<ele>37.013</ele>
<time>2015-12-04T19:38:33.457Z</time>
</trkpt>
<trkpt lat="-27.3583965" lon="152.9674843">
<ele>34.069</ele>
<time>2015-12-04T19:38:36.478Z</time>
</trkpt>
<trkpt lat="-27.3582048" lon="152.9679346">
<ele>31.960</ele>
<time>2015-12-04T19:38:39.534Z</time>
</trkpt>
<trkpt lat="-27.3580716" lon="152.9682040">
<ele>30.984</ele>
<time>2015-12-04T19:38:41.481Z</time>
</trkpt>
<trkpt lat="-27.3578905" lon="152.9685789">
<ele>30.389</ele>
<time>2015-12-04T19:38:44.509Z</time>
</trkpt>
<trkpt lat="-27.3577737" lon="152.9688230">
<ele>29.193</ele>
<time>2015-12-04T19:38:47.076Z</time>
</trkpt>
<trkpt lat="-27.3578143" lon="152.9689892">
<ele>26.997</ele>
<time>2015-12-04T19:38:49.728Z</time>
</trkpt>
<trkpt lat="-27.3580158" lon="152.9690980">
<ele>24.250</ele>
<time>2015-12-04T19:38:54.762Z</time>
</trkpt>
<trkpt lat="-27.3581843" lon="152.9691887">
<ele>22.004</ele>
<time>2015-12-04T19:38:58.232Z</time>
</trkpt>
<trkpt lat="-27.3582737" lon="152.9692369">
<ele>20.978</ele>
<time>2015-12-04T19:39:00.191Z</time>
</trkpt>
<trkpt lat="-27.3583354" lon="152.9693707">
<ele>20.908</ele>
<time>2015-12-04T19:39:03.194Z</time>
</trkpt>
<trkpt lat="-27.3582815" lon="152.9694559">
<ele>21.113</ele>
<time>2015-12-04T19:39:06.070Z</time>
</trkpt>
<trkpt lat="-27.3581800" lon="152.9695134">
<ele>21.089</ele>
<time>2015-12-04T19:39:10.000Z</time>
</trkpt>
<trkpt lat="-27.3581800" lon="152.9695134">
<ele>20.812</ele>
<time>2015-12-04T19:39:15.000Z</time>
</trkpt>
<trkpt lat="-27.3581800" lon="152.9695134">
<ele>20.586</ele>
<time>2015-12-04T19:44:31.247Z</time>
</trkpt>
<trkpt lat="-27.3579821" lon="152.9694052">
<ele>20.583</ele>
<time>2015-12-04T19:46:56.000Z</time>
</trkpt>
<trkpt lat="-27.3579821" lon="152.9694052">
<ele>20.659</ele>
<time>2015-12-04T19:46:59.000Z</time>
</trkpt>
<trkpt lat="-27.3579821" lon="152.9694052">
<ele>20.660</ele>
<time>2015-12-04T19:52:58.790Z</time>
</trkpt>
<trkpt lat="-27.3579811" lon="152.9695667">
<ele>20.606</ele>
<time>2015-12-04T19:53:04.258Z</time>
</trkpt>
<trkpt lat="-27.3579176" lon="152.9696418">
<ele>20.102</ele>
<time>2015-12-04T19:53:07.000Z</time>
</trkpt>
<trkpt lat="-27.3579176" lon="152.9696418">
<ele>18.881</ele>
<time>2015-12-04T19:53:09.000Z</time>
</trkpt>
<trkpt lat="-27.3579176" lon="152.9696418">
<ele>17.871</ele>
<time>2015-12-04T19:53:09.100Z</time>
</trkpt>
<trkpt lat="-27.3576513" lon="152.9696754">
<ele>17.882</ele>
<time>2015-12-04T19:53:15.856Z</time>
</trkpt>
<trkpt lat="-27.3572587" lon="152.9695603">
<ele>18.406</ele>
<time>2015-12-04T19:53:19.932Z</time>
</trkpt>
<trkpt lat="-27.3567447" lon="152.9694751">
<ele>19.380</ele>
<time>2015-12-04T19:53:23.604Z</time>
</trkpt>
<trkpt lat="-27.3563610" lon="152.9694710">
<ele>21.541</ele>
<time>2015-12-04T19:53:25.829Z</time>
</trkpt>
<trkpt lat="-27.3560154" lon="152.9694736">
<ele>24.675</ele>
<time>2015-12-04T19:53:27.745Z</time>
</trkpt>
<trkpt lat="-27.3554969" lon="152.9694015">
<ele>27.470</ele>
<time>2015-12-04T19:53:30.528Z</time>
</trkpt>
<trkpt lat="-27.3551574" lon="152.9692887">
<ele>29.304</ele>
<time>2015-12-04T19:53:32.403Z</time>
</trkpt>
<trkpt lat="-27.3546668" lon="152.9690301">
<ele>30.566</ele>
<time>2015-12-04T19:53:35.244Z</time>
</trkpt>
<trkpt lat="-27.3542222" lon="152.9686615">
<ele>31.503</ele>
<time>2015-12-04T19:53:38.089Z</time>
</trkpt>
<trkpt lat="-27.3539621" lon="152.9683746">
<ele>31.917</ele>
<time>2015-12-04T19:53:39.947Z</time>
</trkpt>
<trkpt lat="-27.3537028" lon="152.9680807">
<ele>31.622</ele>
<time>2015-12-04T19:53:41.820Z</time>
</trkpt>
<trkpt lat="-27.3533204" lon="152.9676107">
<ele>30.764</ele>
<time>2015-12-04T19:53:44.750Z</time>
</trkpt>
<trkpt lat="-27.3530618" lon="152.9673276">
<ele>29.668</ele>
<time>2015-12-04T19:53:46.650Z</time>
</trkpt>
<trkpt lat="-27.3527735" lon="152.9670737">
<ele>28.590</ele>
<time>2015-12-04T19:53:48.595Z</time>
</trkpt>
<trkpt lat="-27.3524576" lon="152.9668591">
<ele>28.028</ele>
<time>2015-12-04T19:53:50.573Z</time>
</trkpt>
<trkpt lat="-27.3520087" lon="152.9665874">
<ele>28.633</ele>
<time>2015-12-04T19:53:53.351Z</time>
</trkpt>
<trkpt lat="-27.3516370" lon="152.9665200">
<ele>30.356</ele>
<time>2015-12-04T19:53:55.406Z</time>
</trkpt>
<trkpt lat="-27.3512961" lon="152.9664673">
<ele>32.309</ele>
<time>2015-12-04T19:53:57.249Z</time>
</trkpt>
<trkpt lat="-27.3509354" lon="152.9664579">
<ele>33.567</ele>
<time>2015-12-04T19:53:59.164Z</time>
</trkpt>
<trkpt lat="-27.3504007" lon="152.9664676">
<ele>33.994</ele>
<time>2015-12-04T19:54:02.023Z</time>
</trkpt>
<trkpt lat="-27.3498768" lon="152.9664463">
<ele>33.482</ele>
<time>2015-12-04T19:54:04.828Z</time>
</trkpt>
<trkpt lat="-27.3495233" lon="152.9663769">
<ele>31.667</ele>
<time>2015-12-04T19:54:06.750Z</time>
</trkpt>
<trkpt lat="-27.3490112" lon="152.9662171">
<ele>29.065</ele>
<time>2015-12-04T19:54:09.601Z</time>
</trkpt>
<trkpt lat="-27.3484947" lon="152.9660520">
<ele>26.518</ele>
<time>2015-12-04T19:54:12.472Z</time>
</trkpt>
<trkpt lat="-27.3481483" lon="152.9659370">
<ele>24.139</ele>
<time>2015-12-04T19:54:14.439Z</time>
</trkpt>
<trkpt lat="-27.3476929" lon="152.9657253">
<ele>22.138</ele>
<time>2015-12-04T19:54:17.231Z</time>
</trkpt>
<trkpt lat="-27.3474141" lon="152.9655476">
<ele>20.817</ele>
<time>2015-12-04T19:54:19.349Z</time>
</trkpt>
<trkpt lat="-27.3471098" lon="152.9653429">
<ele>19.908</ele>
<time>2015-12-04T19:54:22.103Z</time>
</trkpt>
<trkpt lat="-27.3469509" lon="152.9652094">
<ele>18.516</ele>
<time>2015-12-04T19:54:24.132Z</time>
</trkpt>
<trkpt lat="-27.3467671" lon="152.9650668">
<ele>16.129</ele>
<time>2015-12-04T19:54:26.825Z</time>
</trkpt>
<trkpt lat="-27.3466414" lon="152.9650645">
<ele>13.547</ele>
<time>2015-12-04T19:54:28.564Z</time>
</trkpt>
<trkpt lat="-27.3464595" lon="152.9651734">
<ele>11.870</ele>
<time>2015-12-04T19:54:31.313Z</time>
</trkpt>
<trkpt lat="-27.3462471" lon="152.9653226">
<ele>11.124</ele>
<time>2015-12-04T19:54:34.313Z</time>
</trkpt>
<trkpt lat="-27.3459968" lon="152.9653722">
<ele>10.664</ele>
<time>2015-12-04T19:54:37.304Z</time>
</trkpt>
<trkpt lat="-27.3458044" lon="152.9654013">
<ele>10.089</ele>
<time>2015-12-04T19:54:39.979Z</time>
</trkpt>
<trkpt lat="-27.3457067" lon="152.9652928">
<ele>9.433</ele>
<time>2015-12-04T19:54:42.934Z</time>
</trkpt>
<trkpt lat="-27.3456821" lon="152.9651594">
<ele>8.795</ele>
<time>2015-12-04T19:54:45.710Z</time>
</trkpt>
<trkpt lat="-27.3456638" lon="152.9650557">
<ele>8.524</ele>
<time>2015-12-04T19:54:47.593Z</time>
</trkpt>
<trkpt lat="-27.3456459" lon="152.9649484">
<ele>8.859</ele>
<time>2015-12-04T19:54:49.604Z</time>
</trkpt>
<trkpt lat="-27.3456377" lon="152.9648367">
<ele>9.386</ele>
<time>2015-12-04T19:54:52.401Z</time>
</trkpt>
<trkpt lat="-27.3455845" lon="152.9647148">
<ele>9.627</ele>
<time>2015-12-04T19:54:58.000Z</time>
</trkpt>
<trkpt lat="-27.3455845" lon="152.9647148">
<ele>9.538</ele>
<time>2015-12-04T19:55:01.000Z</time>
</trkpt>
<trkpt lat="-27.3455845" lon="152.9647148">
<ele>9.382</ele>
<time>2015-12-04T19:56:12.200Z</time>
</trkpt>
<trkpt lat="-27.3453871" lon="152.9646867">
<ele>9.383</ele>
<time>2015-12-04T19:56:22.291Z</time>
</trkpt>
<trkpt lat="-27.3453475" lon="152.9648491">
<ele>10.119</ele>
<time>2015-12-04T19:56:26.999Z</time>
</trkpt>
<trkpt lat="-27.3453475" lon="152.9648491">
<ele>11.840</ele>
<time>2015-12-04T19:56:45.999Z</time>
</trkpt>
<trkpt lat="-27.3453475" lon="152.9648491">
<ele>13.231</ele>
<time>2015-12-04T20:00:26.010Z</time>
</trkpt>
<trkpt lat="-27.3454672" lon="152.9650525">
<ele>13.197</ele>
<time>2015-12-04T20:00:57.999Z</time>
</trkpt>
<trkpt lat="-27.3454672" lon="152.9650525">
<ele>12.633</ele>
<time>2015-12-04T20:01:10.999Z</time>
</trkpt>
<trkpt lat="-27.3454672" lon="152.9650525">
<ele>12.546</ele>
<time>2015-12-04T20:02:54.477Z</time>
</trkpt>
<trkpt lat="-27.3453043" lon="152.9651844">
<ele>12.750</ele>
<time>2015-12-04T20:03:12.511Z</time>
</trkpt>
<trkpt lat="-27.3452223" lon="152.9651311">
<ele>12.593</ele>
<time>2015-12-04T20:03:17.999Z</time>
</trkpt>
<trkpt lat="-27.3452223" lon="152.9651311">
<ele>11.956</ele>
<time>2015-12-04T20:03:33.999Z</time>
</trkpt>
<trkpt lat="-27.3452223" lon="152.9651311">
<ele>11.429</ele>
<time>2015-12-04T20:17:24.968Z</time>
</trkpt>
<trkpt lat="-27.3452733" lon="152.9649673">
<ele>11.522</ele>
<time>2015-12-04T20:17:36.402Z</time>
</trkpt>
<trkpt lat="-27.3452760" lon="152.9648640">
<ele>12.286</ele>
<time>2015-12-04T20:17:41.778Z</time>
</trkpt>
<trkpt lat="-27.3452910" lon="152.9647612">
<ele>13.409</ele>
<time>2015-12-04T20:17:44.721Z</time>
</trkpt>
<trkpt lat="-27.3454090" lon="152.9646929">
<ele>14.298</ele>
<time>2015-12-04T20:17:48.938Z</time>
</trkpt>
<trkpt lat="-27.3455296" lon="152.9647054">
<ele>14.884</ele>
<time>2015-12-04T20:17:52.133Z</time>
</trkpt>
<trkpt lat="-27.3456414" lon="152.9647245">
<ele>15.512</ele>
<time>2015-12-04T20:17:54.425Z</time>
</trkpt>
<trkpt lat="-27.3457043" lon="152.9646021">
<ele>16.065</ele>
<time>2015-12-04T20:17:57.208Z</time>
</trkpt>
<trkpt lat="-27.3458862" lon="152.9644248">
<ele>16.324</ele>
<time>2015-12-04T20:18:04.392Z</time>
</trkpt>
<trkpt lat="-27.3454682" lon="152.9646949">
<ele>16.569</ele>
<time>2015-12-04T20:18:17.410Z</time>
</trkpt>
<trkpt lat="-27.3459570" lon="152.9645904">
<ele>17.148</ele>
<time>2015-12-04T20:18:29.669Z</time>
</trkpt>
<trkpt lat="-27.3460528" lon="152.9645969">
<ele>17.896</ele>
<time>2015-12-04T20:18:30.537Z</time>
</trkpt>
<trkpt lat="-27.3461471" lon="152.9645717">
<ele>18.443</ele>
<time>2015-12-04T20:18:31.322Z</time>
</trkpt>
<trkpt lat="-27.3462326" lon="152.9646112">
<ele>18.706</ele>
<time>2015-12-04T20:18:32.069Z</time>
</trkpt>
<trkpt lat="-27.3463497" lon="152.9645684">
<ele>18.794</ele>
<time>2015-12-04T20:18:33.055Z</time>
</trkpt>
<trkpt lat="-27.3464462" lon="152.9646808">
<ele>18.844</ele>
<time>2015-12-04T20:18:34.005Z</time>
</trkpt>
<trkpt lat="-27.3465898" lon="152.9648739">
<ele>19.081</ele>
<time>2015-12-04T20:18:35.484Z</time>
</trkpt>
<trkpt lat="-27.3468960" lon="152.9652029">
<ele>19.853</ele>
<time>2015-12-04T20:18:38.096Z</time>
</trkpt>
<trkpt lat="-27.3471245" lon="152.9654527">
<ele>21.727</ele>
<time>2015-12-04T20:18:39.874Z</time>
</trkpt>
<trkpt lat="-27.3475227" lon="152.9657696">
<ele>24.604</ele>
<time>2015-12-04T20:18:42.596Z</time>
</trkpt>
<trkpt lat="-27.3484181" lon="152.9661201">
<ele>27.478</ele>
<time>2015-12-04T20:18:47.685Z</time>
</trkpt>
<trkpt lat="-27.3487479" lon="152.9662272">
<ele>29.528</ele>
<time>2015-12-04T20:18:49.541Z</time>
</trkpt>
<trkpt lat="-27.3490823" lon="152.9663361">
<ele>30.649</ele>
<time>2015-12-04T20:18:51.429Z</time>
</trkpt>
<trkpt lat="-27.3495783" lon="152.9665556">
<ele>31.301</ele>
<time>2015-12-04T20:18:54.249Z</time>
</trkpt>
<trkpt lat="-27.3499570" lon="152.9665380">
<ele>32.301</ele>
<time>2015-12-04T20:18:56.196Z</time>
</trkpt>
<trkpt lat="-27.3505059" lon="152.9665650">
<ele>34.244</ele>
<time>2015-12-04T20:18:58.973Z</time>
</trkpt>
<trkpt lat="-27.3510591" lon="152.9665616">
<ele>37.032</ele>
<time>2015-12-04T20:19:01.770Z</time>
</trkpt>
<trkpt lat="-27.3514334" lon="152.9665788">
<ele>39.864</ele>
<time>2015-12-04T20:19:03.671Z</time>
</trkpt>
<trkpt lat="-27.3519803" lon="152.9667244">
<ele>41.898</ele>
<time>2015-12-04T20:19:06.526Z</time>
</trkpt>
<trkpt lat="-27.3523168" lon="152.9668836">
<ele>42.875</ele>
<time>2015-12-04T20:19:08.380Z</time>
</trkpt>
<trkpt lat="-27.3527759" lon="152.9671946">
<ele>42.783</ele>
<time>2015-12-04T20:19:11.096Z</time>
</trkpt>
<trkpt lat="-27.3532100" lon="152.9676209">
<ele>41.194</ele>
<time>2015-12-04T20:19:14.000Z</time>
</trkpt>
<trkpt lat="-27.3535953" lon="152.9680731">
<ele>38.177</ele>
<time>2015-12-04T20:19:16.857Z</time>
</trkpt>
<trkpt lat="-27.3538385" lon="152.9683681">
<ele>35.021</ele>
<time>2015-12-04T20:19:18.704Z</time>
</trkpt>
<trkpt lat="-27.3542337" lon="152.9688094">
<ele>32.895</ele>
<time>2015-12-04T20:19:21.623Z</time>
</trkpt>
<trkpt lat="-27.3545240" lon="152.9690539">
<ele>32.098</ele>
<time>2015-12-04T20:19:23.564Z</time>
</trkpt>
<trkpt lat="-27.3548185" lon="152.9692454">
<ele>32.564</ele>
<time>2015-12-04T20:19:25.410Z</time>
</trkpt>
<trkpt lat="-27.3552701" lon="152.9695053">
<ele>33.818</ele>
<time>2015-12-04T20:19:28.279Z</time>
</trkpt>
<trkpt lat="-27.3557648" lon="152.9695506">
<ele>35.106</ele>
<time>2015-12-04T20:19:31.271Z</time>
</trkpt>
<trkpt lat="-27.3560665" lon="152.9695704">
<ele>35.498</ele>
<time>2015-12-04T20:19:33.210Z</time>
</trkpt>
<trkpt lat="-27.3563582" lon="152.9695635">
<ele>34.563</ele>
<time>2015-12-04T20:19:35.202Z</time>
</trkpt>
<trkpt lat="-27.3567674" lon="152.9695558">
<ele>32.489</ele>
<time>2015-12-04T20:19:38.442Z</time>
</trkpt>
<trkpt lat="-27.3569786" lon="152.9695780">
<ele>29.584</ele>
<time>2015-12-04T20:19:40.677Z</time>
</trkpt>
<trkpt lat="-27.3572024" lon="152.9696269">
<ele>26.290</ele>
<time>2015-12-04T20:19:43.275Z</time>
</trkpt>
<trkpt lat="-27.3573724" lon="152.9696631">
<ele>23.428</ele>
<time>2015-12-04T20:19:44.933Z</time>
</trkpt>
<trkpt lat="-27.3575975" lon="152.9697417">
<ele>21.674</ele>
<time>2015-12-04T20:19:46.559Z</time>
</trkpt>
<trkpt lat="-27.3580613" lon="152.9699629">
<ele>21.422</ele>
<time>2015-12-04T20:19:49.596Z</time>
</trkpt>
<trkpt lat="-27.3584004" lon="152.9701764">
<ele>23.004</ele>
<time>2015-12-04T20:19:51.650Z</time>
</trkpt>
<trkpt lat="-27.3587154" lon="152.9703684">
<ele>25.897</ele>
<time>2015-12-04T20:19:53.538Z</time>
</trkpt>
<trkpt lat="-27.3591639" lon="152.9706630">
<ele>28.456</ele>
<time>2015-12-04T20:19:56.279Z</time>
</trkpt>
<trkpt lat="-27.3594639" lon="152.9708655">
<ele>29.827</ele>
<time>2015-12-04T20:19:58.116Z</time>
</trkpt>
<trkpt lat="-27.3597643" lon="152.9710736">
<ele>30.625</ele>
<time>2015-12-04T20:19:59.955Z</time>
</trkpt>
<trkpt lat="-27.3602406" lon="152.9713919">
<ele>31.610</ele>
<time>2015-12-04T20:20:02.946Z</time>
</trkpt>
<trkpt lat="-27.3604856" lon="152.9715491">
<ele>32.803</ele>
<time>2015-12-04T20:20:04.924Z</time>
</trkpt>
<trkpt lat="-27.3606812" lon="152.9716878">
<ele>33.670</ele>
<time>2015-12-04T20:20:06.998Z</time>
</trkpt>
<trkpt lat="-27.3606812" lon="152.9716878">
<ele>33.942</ele>
<time>2015-12-04T20:20:11.998Z</time>
</trkpt>
<trkpt lat="-27.3606812" lon="152.9716878">
<ele>33.864</ele>
<time>2015-12-04T20:20:22.498Z</time>
</trkpt>
<trkpt lat="-27.3609564" lon="152.9718800">
<ele>33.755</ele>
<time>2015-12-04T20:20:31.047Z</time>
</trkpt>
<trkpt lat="-27.3611939" lon="152.9720155">
<ele>33.899</ele>
<time>2015-12-04T20:20:33.077Z</time>
</trkpt>
<trkpt lat="-27.3616186" lon="152.9722434">
<ele>34.890</ele>
<time>2015-12-04T20:20:36.216Z</time>
</trkpt>
<trkpt lat="-27.3619537" lon="152.9724630">
<ele>37.726</ele>
<time>2015-12-04T20:20:38.605Z</time>
</trkpt>
<trkpt lat="-27.3622631" lon="152.9727005">
<ele>42.387</ele>
<time>2015-12-04T20:20:40.764Z</time>
</trkpt>
<trkpt lat="-27.3625562" lon="152.9729654">
<ele>47.020</ele>
<time>2015-12-04T20:20:42.878Z</time>
</trkpt>
<trkpt lat="-27.3629589" lon="152.9733437">
<ele>49.946</ele>
<time>2015-12-04T20:20:45.840Z</time>
</trkpt>
<trkpt lat="-27.3632503" lon="152.9735831">
<ele>51.291</ele>
<time>2015-12-04T20:20:48.024Z</time>
</trkpt>
<trkpt lat="-27.3635201" lon="152.9737639">
<ele>51.969</ele>
<time>2015-12-04T20:20:50.067Z</time>
</trkpt>
<trkpt lat="-27.3638945" lon="152.9740064">
<ele>52.426</ele>
<time>2015-12-04T20:20:54.347Z</time>
</trkpt>
<trkpt lat="-27.3640877" lon="152.9740997">
<ele>52.145</ele>
<time>2015-12-04T20:20:58.161Z</time>
</trkpt>
<trkpt lat="-27.3642440" lon="152.9741747">
<ele>50.603</ele>
<time>2015-12-04T20:21:01.563Z</time>
</trkpt>
<trkpt lat="-27.3643695" lon="152.9742314">
<ele>48.050</ele>
<time>2015-12-04T20:21:03.581Z</time>
</trkpt>
<trkpt lat="-27.3645187" lon="152.9743668">
<ele>45.359</ele>
<time>2015-12-04T20:21:05.397Z</time>
</trkpt>
<trkpt lat="-27.3648178" lon="152.9746607">
<ele>43.930</ele>
<time>2015-12-04T20:21:08.382Z</time>
</trkpt>
<trkpt lat="-27.3651085" lon="152.9749139">
<ele>44.857</ele>
<time>2015-12-04T20:21:10.589Z</time>
</trkpt>
<trkpt lat="-27.3654864" lon="152.9753224">
<ele>47.273</ele>
<time>2015-12-04T20:21:13.613Z</time>
</trkpt>
<trkpt lat="-27.3658065" lon="152.9757686">
<ele>48.951</ele>
<time>2015-12-04T20:21:16.538Z</time>
</trkpt>
<trkpt lat="-27.3660265" lon="152.9760957">
<ele>48.249</ele>
<time>2015-12-04T20:21:18.626Z</time>
</trkpt>
<trkpt lat="-27.3662175" lon="152.9763815">
<ele>45.501</ele>
<time>2015-12-04T20:21:20.448Z</time>
</trkpt>
<trkpt lat="-27.3665492" lon="152.9769044">
<ele>42.414</ele>
<time>2015-12-04T20:21:23.675Z</time>
</trkpt>
<trkpt lat="-27.3667800" lon="152.9772597">
<ele>40.377</ele>
<time>2015-12-04T20:21:25.789Z</time>
</trkpt>
<trkpt lat="-27.3670789" lon="152.9777837">
<ele>39.725</ele>
<time>2015-12-04T20:21:28.748Z</time>
</trkpt>
<trkpt lat="-27.3675696" lon="152.9783462">
<ele>41.022</ele>
<time>2015-12-04T20:21:32.490Z</time>
</trkpt>
<trkpt lat="-27.3680362" lon="152.9787214">
<ele>42.663</ele>
<time>2015-12-04T20:21:35.558Z</time>
</trkpt>
<trkpt lat="-27.3685314" lon="152.9790283">
<ele>44.474</ele>
<time>2015-12-04T20:21:38.561Z</time>
</trkpt>
<trkpt lat="-27.3690412" lon="152.9793051">
<ele>45.116</ele>
<time>2015-12-04T20:21:41.574Z</time>
</trkpt>
<trkpt lat="-27.3693761" lon="152.9794548">
<ele>43.917</ele>
<time>2015-12-04T20:21:43.499Z</time>
</trkpt>
<trkpt lat="-27.3698961" lon="152.9797012">
<ele>41.868</ele>
<time>2015-12-04T20:21:46.516Z</time>
</trkpt>
<trkpt lat="-27.3700728" lon="152.9797793">
<ele>40.527</ele>
<time>2015-12-04T20:21:47.529Z</time>
</trkpt>
<trkpt lat="-27.3707844" lon="152.9800989">
<ele>40.368</ele>
<time>2015-12-04T20:21:51.530Z</time>
</trkpt>
<trkpt lat="-27.3713571" lon="152.9802645">
<ele>41.912</ele>
<time>2015-12-04T20:21:54.515Z</time>
</trkpt>
<trkpt lat="-27.3717454" lon="152.9803347">
<ele>45.751</ele>
<time>2015-12-04T20:21:56.506Z</time>
</trkpt>
<trkpt lat="-27.3723312" lon="152.9803815">
<ele>50.546</ele>
<time>2015-12-04T20:21:59.493Z</time>
</trkpt>
<trkpt lat="-27.3729154" lon="152.9803877">
<ele>54.170</ele>
<time>2015-12-04T20:22:02.448Z</time>
</trkpt>
<trkpt lat="-27.3735180" lon="152.9803888">
<ele>56.189</ele>
<time>2015-12-04T20:22:05.450Z</time>
</trkpt>
<trkpt lat="-27.3739202" lon="152.9803719">
<ele>57.115</ele>
<time>2015-12-04T20:22:07.447Z</time>
</trkpt>
<trkpt lat="-27.3745109" lon="152.9803803">
<ele>57.341</ele>
<time>2015-12-04T20:22:10.447Z</time>
</trkpt>
<trkpt lat="-27.3750713" lon="152.9803874">
<ele>56.746</ele>
<time>2015-12-04T20:22:13.443Z</time>
</trkpt>
<trkpt lat="-27.3755891" lon="152.9804224">
<ele>55.378</ele>
<time>2015-12-04T20:22:16.322Z</time>
</trkpt>
<trkpt lat="-27.3759572" lon="152.9804385">
<ele>54.206</ele>
<time>2015-12-04T20:22:18.338Z</time>
</trkpt>
<trkpt lat="-27.3765050" lon="152.9804878">
<ele>54.179</ele>
<time>2015-12-04T20:22:21.271Z</time>
</trkpt>
<trkpt lat="-27.3768856" lon="152.9805287">
<ele>55.612</ele>
<time>2015-12-04T20:22:23.285Z</time>
</trkpt>
<trkpt lat="-27.3772536" lon="152.9805762">
<ele>58.159</ele>
<time>2015-12-04T20:22:25.270Z</time>
</trkpt>
<trkpt lat="-27.3777968" lon="152.9806323">
<ele>60.552</ele>
<time>2015-12-04T20:22:28.217Z</time>
</trkpt>
<trkpt lat="-27.3781728" lon="152.9806771">
<ele>61.274</ele>
<time>2015-12-04T20:22:30.259Z</time>
</trkpt>
<trkpt lat="-27.3787111" lon="152.9807772">
<ele>60.071</ele>
<time>2015-12-04T20:22:33.215Z</time>
</trkpt>
<trkpt lat="-27.3792641" lon="152.9808754">
<ele>58.204</ele>
<time>2015-12-04T20:22:36.284Z</time>
</trkpt>
<trkpt lat="-27.3796096" lon="152.9809667">
<ele>56.401</ele>
<time>2015-12-04T20:22:38.309Z</time>
</trkpt>
<trkpt lat="-27.3800642" lon="152.9811590">
<ele>53.750</ele>
<time>2015-12-04T20:22:41.106Z</time>
</trkpt>
<trkpt lat="-27.3803989" lon="152.9813602">
<ele>49.850</ele>
<time>2015-12-04T20:22:43.205Z</time>
</trkpt>
<trkpt lat="-27.3807115" lon="152.9815957">
<ele>46.021</ele>
<time>2015-12-04T20:22:45.237Z</time>
</trkpt>
<trkpt lat="-27.3809951" lon="152.9818558">
<ele>43.483</ele>
<time>2015-12-04T20:22:47.211Z</time>
</trkpt>
<trkpt lat="-27.3813940" lon="152.9822663">
<ele>41.829</ele>
<time>2015-12-04T20:22:50.137Z</time>
</trkpt>
<trkpt lat="-27.3817972" lon="152.9826704">
<ele>40.281</ele>
<time>2015-12-04T20:22:53.083Z</time>
</trkpt>
<trkpt lat="-27.3820910" lon="152.9829119">
<ele>38.970</ele>
<time>2015-12-04T20:22:55.082Z</time>
</trkpt>
<trkpt lat="-27.3824296" lon="152.9830906">
<ele>38.271</ele>
<time>2015-12-04T20:22:57.207Z</time>
</trkpt>
<trkpt lat="-27.3829068" lon="152.9832671">
<ele>38.983</ele>
<time>2015-12-04T20:23:00.497Z</time>
</trkpt>
<trkpt lat="-27.3831841" lon="152.9833724">
<ele>41.298</ele>
<time>2015-12-04T20:23:03.428Z</time>
</trkpt>
<trkpt lat="-27.3832896" lon="152.9833924">
<ele>42.765</ele>
<time>2015-12-04T20:23:05.000Z</time>
</trkpt>
<trkpt lat="-27.3832896" lon="152.9833924">
<ele>41.533</ele>
<time>2015-12-04T20:23:08.000Z</time>
</trkpt>
<trkpt lat="-27.3832896" lon="152.9833924">
<ele>39.771</ele>
<time>2015-12-04T20:23:18.060Z</time>
</trkpt>
<trkpt lat="-27.3834453" lon="152.9834612">
<ele>39.697</ele>
<time>2015-12-04T20:23:22.013Z</time>
</trkpt>
<trkpt lat="-27.3836547" lon="152.9835380">
<ele>40.629</ele>
<time>2015-12-04T20:23:24.194Z</time>
</trkpt>
<trkpt lat="-27.3838162" lon="152.9835761">
<ele>41.964</ele>
<time>2015-12-04T20:23:25.519Z</time>
</trkpt>
<trkpt lat="-27.3845267" lon="152.9837732">
<ele>43.861</ele>
<time>2015-12-04T20:23:30.600Z</time>
</trkpt>
<trkpt lat="-27.3850027" lon="152.9840815">
<ele>47.173</ele>
<time>2015-12-04T20:23:33.945Z</time>
</trkpt>
<trkpt lat="-27.3854420" lon="152.9844595">
<ele>52.127</ele>
<time>2015-12-04T20:23:36.920Z</time>
</trkpt>
<trkpt lat="-27.3857355" lon="152.9846911">
<ele>56.581</ele>
<time>2015-12-04T20:23:38.792Z</time>
</trkpt>
<trkpt lat="-27.3862513" lon="152.9849594">
<ele>58.711</ele>
<time>2015-12-04T20:23:41.748Z</time>
</trkpt>
<trkpt lat="-27.3868149" lon="152.9849880">
<ele>59.252</ele>
<time>2015-12-04T20:23:44.726Z</time>
</trkpt>
<trkpt lat="-27.3872139" lon="152.9849691">
<ele>59.062</ele>
<time>2015-12-04T20:23:46.957Z</time>
</trkpt>
<trkpt lat="-27.3876546" lon="152.9849542">
<ele>58.334</ele>
<time>2015-12-04T20:23:49.657Z</time>
</trkpt>
<trkpt lat="-27.3879756" lon="152.9849154">
<ele>57.176</ele>
<time>2015-12-04T20:23:51.641Z</time>
</trkpt>
<trkpt lat="-27.3884486" lon="152.9849377">
<ele>56.180</ele>
<time>2015-12-04T20:23:54.592Z</time>
</trkpt>
<trkpt lat="-27.3888889" lon="152.9850682">
<ele>56.029</ele>
<time>2015-12-04T20:23:57.511Z</time>
</trkpt>
<trkpt lat="-27.3891959" lon="152.9851830">
<ele>56.677</ele>
<time>2015-12-04T20:23:59.615Z</time>
</trkpt>
<trkpt lat="-27.3896644" lon="152.9852164">
<ele>57.520</ele>
<time>2015-12-04T20:24:02.591Z</time>
</trkpt>
<trkpt lat="-27.3904732" lon="152.9852490">
<ele>58.911</ele>
<time>2015-12-04T20:24:07.673Z</time>
</trkpt>
<trkpt lat="-27.3907810" lon="152.9852347">
<ele>61.135</ele>
<time>2015-12-04T20:24:09.663Z</time>
</trkpt>
<trkpt lat="-27.3912197" lon="152.9851719">
<ele>63.523</ele>
<time>2015-12-04T20:24:12.650Z</time>
</trkpt>
<trkpt lat="-27.3914316" lon="152.9851329">
<ele>64.747</ele>
<time>2015-12-04T20:24:14.107Z</time>
</trkpt>
<trkpt lat="-27.3919333" lon="152.9850309">
<ele>65.026</ele>
<time>2015-12-04T20:24:17.459Z</time>
</trkpt>
<trkpt lat="-27.3922329" lon="152.9849956">
<ele>64.555</ele>
<time>2015-12-04T20:24:19.369Z</time>
</trkpt>
<trkpt lat="-27.3925578" lon="152.9850184">
<ele>62.996</ele>
<time>2015-12-04T20:24:21.419Z</time>
</trkpt>
<trkpt lat="-27.3930187" lon="152.9851736">
<ele>60.349</ele>
<time>2015-12-04T20:24:24.490Z</time>
</trkpt>
<trkpt lat="-27.3932981" lon="152.9852934">
<ele>56.877</ele>
<time>2015-12-04T20:24:26.423Z</time>
</trkpt>
<trkpt lat="-27.3937173" lon="152.9854677">
<ele>53.209</ele>
<time>2015-12-04T20:24:29.335Z</time>
</trkpt>
<trkpt lat="-27.3941277" lon="152.9856609">
<ele>51.101</ele>
<time>2015-12-04T20:24:32.291Z</time>
</trkpt>
<trkpt lat="-27.3943911" lon="152.9857703">
<ele>52.122</ele>
<time>2015-12-04T20:24:34.192Z</time>
</trkpt>
<trkpt lat="-27.3948069" lon="152.9859510">
<ele>55.267</ele>
<time>2015-12-04T20:24:37.148Z</time>
</trkpt>
<trkpt lat="-27.3952332" lon="152.9861437">
<ele>57.721</ele>
<time>2015-12-04T20:24:40.086Z</time>
</trkpt>
<trkpt lat="-27.3955279" lon="152.9862773">
<ele>57.371</ele>
<time>2015-12-04T20:24:42.106Z</time>
</trkpt>
<trkpt lat="-27.3959307" lon="152.9864628">
<ele>54.326</ele>
<time>2015-12-04T20:24:44.959Z</time>
</trkpt>
<trkpt lat="-27.3962191" lon="152.9866086">
<ele>49.806</ele>
<time>2015-12-04T20:24:47.204Z</time>
</trkpt>
<trkpt lat="-27.3964666" lon="152.9867099">
<ele>45.333</ele>
<time>2015-12-04T20:24:49.242Z</time>
</trkpt>
<trkpt lat="-27.3968087" lon="152.9868578">
<ele>42.377</ele>
<time>2015-12-04T20:24:52.567Z</time>
</trkpt>
<trkpt lat="-27.3969804" lon="152.9869496">
<ele>41.983</ele>
<time>2015-12-04T20:24:54.783Z</time>
</trkpt>
<trkpt lat="-27.3971686" lon="152.9870264">
<ele>43.767</ele>
<time>2015-12-04T20:24:58.002Z</time>
</trkpt>
<trkpt lat="-27.3973166" lon="152.9870652">
<ele>46.160</ele>
<time>2015-12-04T20:25:01.494Z</time>
</trkpt>
<trkpt lat="-27.3974200" lon="152.9870721">
<ele>48.037</ele>
<time>2015-12-04T20:25:03.536Z</time>
</trkpt>
<trkpt lat="-27.3975238" lon="152.9870904">
<ele>49.328</ele>
<time>2015-12-04T20:25:05.133Z</time>
</trkpt>
<trkpt lat="-27.3976238" lon="152.9870753">
<ele>50.207</ele>
<time>2015-12-04T20:25:06.299Z</time>
</trkpt>
<trkpt lat="-27.3979299" lon="152.9869357">
<ele>51.157</ele>
<time>2015-12-04T20:25:09.807Z</time>
</trkpt>
<trkpt lat="-27.3980974" lon="152.9867972">
<ele>52.402</ele>
<time>2015-12-04T20:25:11.823Z</time>
</trkpt>
<trkpt lat="-27.3982601" lon="152.9866615">
<ele>53.550</ele>
<time>2015-12-04T20:25:13.719Z</time>
</trkpt>
<trkpt lat="-27.3985301" lon="152.9864567">
<ele>54.190</ele>
<time>2015-12-04T20:25:16.657Z</time>
</trkpt>
<trkpt lat="-27.3988502" lon="152.9862914">
<ele>53.924</ele>
<time>2015-12-04T20:25:19.599Z</time>
</trkpt>
<trkpt lat="-27.3992224" lon="152.9862736">
<ele>52.327</ele>
<time>2015-12-04T20:25:22.379Z</time>
</trkpt>
<trkpt lat="-27.3996740" lon="152.9863601">
<ele>49.338</ele>
<time>2015-12-04T20:25:25.446Z</time>
</trkpt>
<trkpt lat="-27.3999682" lon="152.9864329">
<ele>45.373</ele>
<time>2015-12-04T20:25:27.406Z</time>
</trkpt>
<trkpt lat="-27.4004104" lon="152.9865259">
<ele>41.281</ele>
<time>2015-12-04T20:25:30.441Z</time>
</trkpt>
<trkpt lat="-27.4008052" lon="152.9866318">
<ele>37.874</ele>
<time>2015-12-04T20:25:33.377Z</time>
</trkpt>
<trkpt lat="-27.4011691" lon="152.9867922">
<ele>35.301</ele>
<time>2015-12-04T20:25:36.402Z</time>
</trkpt>
<trkpt lat="-27.4013963" lon="152.9869061">
<ele>33.445</ele>
<time>2015-12-04T20:25:38.432Z</time>
</trkpt>
<trkpt lat="-27.4016126" lon="152.9869873">
<ele>32.339</ele>
<time>2015-12-04T20:25:40.310Z</time>
</trkpt>
<trkpt lat="-27.4018559" lon="152.9870103">
<ele>31.596</ele>
<time>2015-12-04T20:25:42.444Z</time>
</trkpt>
<trkpt lat="-27.4020516" lon="152.9870460">
<ele>30.571</ele>
<time>2015-12-04T20:25:44.545Z</time>
</trkpt>
<trkpt lat="-27.4022021" lon="152.9870584">
<ele>29.271</ele>
<time>2015-12-04T20:25:46.705Z</time>
</trkpt>
<trkpt lat="-27.4023079" lon="152.9870686">
<ele>28.070</ele>
<time>2015-12-04T20:25:49.121Z</time>
</trkpt>
<trkpt lat="-27.4024154" lon="152.9870975">
<ele>26.877</ele>
<time>2015-12-04T20:25:51.783Z</time>
</trkpt>
<trkpt lat="-27.4025545" lon="152.9871413">
<ele>25.670</ele>
<time>2015-12-04T20:25:54.680Z</time>
</trkpt>
<trkpt lat="-27.4027343" lon="152.9872316">
<ele>24.864</ele>
<time>2015-12-04T20:25:57.028Z</time>
</trkpt>
<trkpt lat="-27.4029107" lon="152.9873636">
<ele>24.911</ele>
<time>2015-12-04T20:25:59.149Z</time>
</trkpt>
<trkpt lat="-27.4031982" lon="152.9875961">
<ele>25.720</ele>
<time>2015-12-04T20:26:02.103Z</time>
</trkpt>
<trkpt lat="-27.4034083" lon="152.9877625">
<ele>26.751</ele>
<time>2015-12-04T20:26:04.081Z</time>
</trkpt>
<trkpt lat="-27.4037128" lon="152.9880189">
<ele>27.530</ele>
<time>2015-12-04T20:26:06.909Z</time>
</trkpt>
<trkpt lat="-27.4039593" lon="152.9882220">
<ele>27.826</ele>
<time>2015-12-04T20:26:09.076Z</time>
</trkpt>
<trkpt lat="-27.4042919" lon="152.9885006">
<ele>27.626</ele>
<time>2015-12-04T20:26:12.008Z</time>
</trkpt>
<trkpt lat="-27.4045931" lon="152.9887870">
<ele>27.267</ele>
<time>2015-12-04T20:26:14.874Z</time>
</trkpt>
<trkpt lat="-27.4047029" lon="152.9889739">
<ele>27.043</ele>
<time>2015-12-04T20:26:16.333Z</time>
</trkpt>
<trkpt lat="-27.4048855" lon="152.9893159">
<ele>26.959</ele>
<time>2015-12-04T20:26:18.886Z</time>
</trkpt>
<trkpt lat="-27.4051214" lon="152.9897180">
<ele>26.899</ele>
<time>2015-12-04T20:26:21.978Z</time>
</trkpt>
<trkpt lat="-27.4053677" lon="152.9900544">
<ele>26.692</ele>
<time>2015-12-04T20:26:24.841Z</time>
</trkpt>
<trkpt lat="-27.4056176" lon="152.9903599">
<ele>26.239</ele>
<time>2015-12-04T20:26:27.720Z</time>
</trkpt>
<trkpt lat="-27.4058486" lon="152.9906361">
<ele>25.711</ele>
<time>2015-12-04T20:26:30.613Z</time>
</trkpt>
<trkpt lat="-27.4061179" lon="152.9908235">
<ele>25.143</ele>
<time>2015-12-04T20:26:33.611Z</time>
</trkpt>
<trkpt lat="-27.4063215" lon="152.9908562">
<ele>24.389</ele>
<time>2015-12-04T20:26:35.703Z</time>
</trkpt>
<trkpt lat="-27.4065749" lon="152.9908976">
<ele>23.564</ele>
<time>2015-12-04T20:26:38.531Z</time>
</trkpt>
<trkpt lat="-27.4067875" lon="152.9909351">
<ele>22.783</ele>
<time>2015-12-04T20:26:41.344Z</time>
</trkpt>
<trkpt lat="-27.4069546" lon="152.9909590">
<ele>22.014</ele>
<time>2015-12-04T20:26:44.000Z</time>
</trkpt>
<trkpt lat="-27.4069546" lon="152.9909590">
<ele>21.406</ele>
<time>2015-12-04T20:26:50.000Z</time>
</trkpt>
<trkpt lat="-27.4069546" lon="152.9909590">
<ele>21.136</ele>
<time>2015-12-04T20:27:07.535Z</time>
</trkpt>
<trkpt lat="-27.4071029" lon="152.9912154">
<ele>21.187</ele>
<time>2015-12-04T20:27:16.001Z</time>
</trkpt>
<trkpt lat="-27.4070759" lon="152.9913859">
<ele>21.380</ele>
<time>2015-12-04T20:27:17.420Z</time>
</trkpt>
<trkpt lat="-27.4069931" lon="152.9918070">
<ele>21.682</ele>
<time>2015-12-04T20:27:20.586Z</time>
</trkpt>
<trkpt lat="-27.4069190" lon="152.9921075">
<ele>22.241</ele>
<time>2015-12-04T20:27:22.547Z</time>
</trkpt>
<trkpt lat="-27.4068984" lon="152.9924382">
<ele>23.120</ele>
<time>2015-12-04T20:27:24.516Z</time>
</trkpt>
<trkpt lat="-27.4069602" lon="152.9929540">
<ele>24.126</ele>
<time>2015-12-04T20:27:27.553Z</time>
</trkpt>
<trkpt lat="-27.4070147" lon="152.9932750">
<ele>25.015</ele>
<time>2015-12-04T20:27:29.432Z</time>
</trkpt>
<trkpt lat="-27.4070862" lon="152.9937954">
<ele>25.657</ele>
<time>2015-12-04T20:27:32.393Z</time>
</trkpt>
<trkpt lat="-27.4071453" lon="152.9941437">
<ele>25.749</ele>
<time>2015-12-04T20:27:34.328Z</time>
</trkpt>
<trkpt lat="-27.4071868" lon="152.9945034">
<ele>25.141</ele>
<time>2015-12-04T20:27:36.281Z</time>
</trkpt>
<trkpt lat="-27.4072305" lon="152.9948622">
<ele>24.193</ele>
<time>2015-12-04T20:27:38.221Z</time>
</trkpt>
<trkpt lat="-27.4072718" lon="152.9952284">
<ele>23.314</ele>
<time>2015-12-04T20:27:40.195Z</time>
</trkpt>
<trkpt lat="-27.4073467" lon="152.9957664">
<ele>22.880</ele>
<time>2015-12-04T20:27:43.102Z</time>
</trkpt>
<trkpt lat="-27.4073893" lon="152.9961304">
<ele>23.059</ele>
<time>2015-12-04T20:27:45.065Z</time>
</trkpt>
<trkpt lat="-27.4073766" lon="152.9965053">
<ele>23.809</ele>
<time>2015-12-04T20:27:47.080Z</time>
</trkpt>
<trkpt lat="-27.4073338" lon="152.9970655">
<ele>25.213</ele>
<time>2015-12-04T20:27:50.157Z</time>
</trkpt>
<trkpt lat="-27.4072505" lon="152.9975608">
<ele>27.114</ele>
<time>2015-12-04T20:27:53.237Z</time>
</trkpt>
<trkpt lat="-27.4072288" lon="152.9979152">
<ele>28.926</ele>
<time>2015-12-04T20:27:56.073Z</time>
</trkpt>
<trkpt lat="-27.4072753" lon="152.9980585">
<ele>30.125</ele>
<time>2015-12-04T20:27:58.350Z</time>
</trkpt>
<trkpt lat="-27.4071947" lon="152.9981417">
<ele>30.490</ele>
<time>2015-12-04T20:28:01.000Z</time>
</trkpt>
<trkpt lat="-27.4071947" lon="152.9981417">
<ele>30.248</ele>
<time>2015-12-04T20:28:03.000Z</time>
</trkpt>
<trkpt lat="-27.4071947" lon="152.9981417">
<ele>29.943</ele>
<time>2015-12-04T20:28:14.241Z</time>
</trkpt>
<trkpt lat="-27.4071639" lon="152.9983856">
<ele>29.958</ele>
<time>2015-12-04T20:28:19.407Z</time>
</trkpt>
<trkpt lat="-27.4072463" lon="152.9986352">
<ele>30.517</ele>
<time>2015-12-04T20:28:21.725Z</time>
</trkpt>
<trkpt lat="-27.4073885" lon="152.9988834">
<ele>31.903</ele>
<time>2015-12-04T20:28:23.831Z</time>
</trkpt>
<trkpt lat="-27.4076233" lon="152.9993575">
<ele>34.266</ele>
<time>2015-12-04T20:28:27.424Z</time>
</trkpt>
<trkpt lat="-27.4078468" lon="152.9998406">
<ele>37.581</ele>
<time>2015-12-04T20:28:30.792Z</time>
</trkpt>
<trkpt lat="-27.4079964" lon="153.0001329">
<ele>41.060</ele>
<time>2015-12-04T20:28:32.905Z</time>
</trkpt>
<trkpt lat="-27.4081672" lon="153.0005475">
<ele>43.206</ele>
<time>2015-12-04T20:28:35.689Z</time>
</trkpt>
<trkpt lat="-27.4082715" lon="153.0010675">
<ele>43.280</ele>
<time>2015-12-04T20:28:38.547Z</time>
</trkpt>
<trkpt lat="-27.4083613" lon="153.0016800">
<ele>41.931</ele>
<time>2015-12-04T20:28:41.829Z</time>
</trkpt>
<trkpt lat="-27.4083957" lon="153.0020834">
<ele>40.246</ele>
<time>2015-12-04T20:28:44.118Z</time>
</trkpt>
<trkpt lat="-27.4084693" lon="153.0026145">
<ele>38.887</ele>
<time>2015-12-04T20:28:47.153Z</time>
</trkpt>
<trkpt lat="-27.4085307" lon="153.0029697">
<ele>37.181</ele>
<time>2015-12-04T20:28:49.183Z</time>
</trkpt>
<trkpt lat="-27.4086117" lon="153.0034807">
<ele>34.580</ele>
<time>2015-12-04T20:28:52.068Z</time>
</trkpt>
<trkpt lat="-27.4086553" lon="153.0038671">
<ele>31.990</ele>
<time>2015-12-04T20:28:54.210Z</time>
</trkpt>
<trkpt lat="-27.4087447" lon="153.0044175">
<ele>30.233</ele>
<time>2015-12-04T20:28:57.354Z</time>
</trkpt>
<trkpt lat="-27.4087702" lon="153.0047692">
<ele>28.869</ele>
<time>2015-12-04T20:28:59.413Z</time>
</trkpt>
<trkpt lat="-27.4088166" lon="153.0050852">
<ele>27.515</ele>
<time>2015-12-04T20:29:01.300Z</time>
</trkpt>
<trkpt lat="-27.4088738" lon="153.0056070">
<ele>26.273</ele>
<time>2015-12-04T20:29:04.395Z</time>
</trkpt>
<trkpt lat="-27.4089377" lon="153.0061131">
<ele>25.180</ele>
<time>2015-12-04T20:29:07.420Z</time>
</trkpt>
<trkpt lat="-27.4090060" lon="153.0064541">
<ele>23.740</ele>
<time>2015-12-04T20:29:09.596Z</time>
</trkpt>
<trkpt lat="-27.4090858" lon="153.0067595">
<ele>21.801</ele>
<time>2015-12-04T20:29:11.787Z</time>
</trkpt>
<trkpt lat="-27.4092317" lon="153.0071120">
<ele>19.791</ele>
<time>2015-12-04T20:29:14.883Z</time>
</trkpt>
<trkpt lat="-27.4092166" lon="153.0079505">
<ele>16.711</ele>
<time>2015-12-04T20:29:21.571Z</time>
</trkpt>
<trkpt lat="-27.4092808" lon="153.0084132">
<ele>15.390</ele>
<time>2015-12-04T20:29:24.826Z</time>
</trkpt>
<trkpt lat="-27.4093341" lon="153.0087368">
<ele>14.935</ele>
<time>2015-12-04T20:29:26.871Z</time>
</trkpt>
<trkpt lat="-27.4093833" lon="153.0090675">
<ele>15.218</ele>
<time>2015-12-04T20:29:28.930Z</time>
</trkpt>
<trkpt lat="-27.4094365" lon="153.0093967">
<ele>15.445</ele>
<time>2015-12-04T20:29:31.001Z</time>
</trkpt>
<trkpt lat="-27.4094960" lon="153.0098615">
<ele>15.509</ele>
<time>2015-12-04T20:29:33.924Z</time>
</trkpt>
<trkpt lat="-27.4095522" lon="153.0103081">
<ele>15.567</ele>
<time>2015-12-04T20:29:36.723Z</time>
</trkpt>
<trkpt lat="-27.4096291" lon="153.0108112">
<ele>15.780</ele>
<time>2015-12-04T20:29:39.914Z</time>
</trkpt>
<trkpt lat="-27.4096691" lon="153.0111128">
<ele>16.056</ele>
<time>2015-12-04T20:29:41.867Z</time>
</trkpt>
<trkpt lat="-27.4096967" lon="153.0113443">
<ele>16.148</ele>
<time>2015-12-04T20:29:43.357Z</time>
</trkpt>
<trkpt lat="-27.4097767" lon="153.0119287">
<ele>15.990</ele>
<time>2015-12-04T20:29:46.898Z</time>
</trkpt>
<trkpt lat="-27.4098249" lon="153.0124784">
<ele>16.236</ele>
<time>2015-12-04T20:29:49.983Z</time>
</trkpt>
<trkpt lat="-27.4099092" lon="153.0130125">
<ele>17.553</ele>
<time>2015-12-04T20:29:52.986Z</time>
</trkpt>
<trkpt lat="-27.4099870" lon="153.0135521">
<ele>19.361</ele>
<time>2015-12-04T20:29:56.058Z</time>
</trkpt>
<trkpt lat="-27.4100168" lon="153.0138184">
<ele>20.614</ele>
<time>2015-12-04T20:29:57.585Z</time>
</trkpt>
<trkpt lat="-27.4100894" lon="153.0144040">
<ele>21.094</ele>
<time>2015-12-04T20:30:00.972Z</time>
</trkpt>
<trkpt lat="-27.4101637" lon="153.0149133">
<ele>21.001</ele>
<time>2015-12-04T20:30:03.963Z</time>
</trkpt>
<trkpt lat="-27.4102667" lon="153.0154176">
<ele>20.536</ele>
<time>2015-12-04T20:30:07.016Z</time>
</trkpt>
<trkpt lat="-27.4102890" lon="153.0158835">
<ele>19.707</ele>
<time>2015-12-04T20:30:09.866Z</time>
</trkpt>
<trkpt lat="-27.4103454" lon="153.0163226">
<ele>18.593</ele>
<time>2015-12-04T20:30:12.955Z</time>
</trkpt>
<trkpt lat="-27.4103722" lon="153.0165617">
<ele>17.653</ele>
<time>2015-12-04T20:30:15.000Z</time>
</trkpt>
<trkpt lat="-27.4103722" lon="153.0165617">
<ele>17.226</ele>
<time>2015-12-04T20:30:20.000Z</time>
</trkpt>
<trkpt lat="-27.4103722" lon="153.0165617">
<ele>17.141</ele>
<time>2015-12-04T20:30:33.742Z</time>
</trkpt>
<trkpt lat="-27.4103869" lon="153.0167812">
<ele>17.168</ele>
<time>2015-12-04T20:30:40.515Z</time>
</trkpt>
<trkpt lat="-27.4103874" lon="153.0171025">
<ele>17.132</ele>
<time>2015-12-04T20:30:43.771Z</time>
</trkpt>
<trkpt lat="-27.4104614" lon="153.0174098">
<ele>16.979</ele>
<time>2015-12-04T20:30:45.869Z</time>
</trkpt>
<trkpt lat="-27.4106484" lon="153.0179436">
<ele>17.109</ele>
<time>2015-12-04T20:30:49.349Z</time>
</trkpt>
<trkpt lat="-27.4106400" lon="153.0184814">
<ele>17.892</ele>
<time>2015-12-04T20:30:52.422Z</time>
</trkpt>
<trkpt lat="-27.4106810" lon="153.0188373">
<ele>19.125</ele>
<time>2015-12-04T20:30:54.464Z</time>
</trkpt>
<trkpt lat="-27.4107269" lon="153.0191593">
<ele>20.396</ele>
<time>2015-12-04T20:30:56.334Z</time>
</trkpt>
<trkpt lat="-27.4108151" lon="153.0198700">
<ele>21.357</ele>
<time>2015-12-04T20:31:00.428Z</time>
</trkpt>
<trkpt lat="-27.4108490" lon="153.0201862">
<ele>21.555</ele>
<time>2015-12-04T20:31:02.238Z</time>
</trkpt>
<trkpt lat="-27.4109094" lon="153.0206998">
<ele>20.768</ele>
<time>2015-12-04T20:31:05.142Z</time>
</trkpt>
<trkpt lat="-27.4109754" lon="153.0212274">
<ele>19.292</ele>
<time>2015-12-04T20:31:08.101Z</time>
</trkpt>
<trkpt lat="-27.4110457" lon="153.0215724">
<ele>17.862</ele>
<time>2015-12-04T20:31:10.081Z</time>
</trkpt>
<trkpt lat="-27.4110912" lon="153.0219191">
<ele>17.223</ele>
<time>2015-12-04T20:31:12.043Z</time>
</trkpt>
<trkpt lat="-27.4111766" lon="153.0224428">
<ele>17.748</ele>
<time>2015-12-04T20:31:15.023Z</time>
</trkpt>
<trkpt lat="-27.4112209" lon="153.0227792">
<ele>19.037</ele>
<time>2015-12-04T20:31:16.922Z</time>
</trkpt>
<trkpt lat="-27.4112913" lon="153.0232986">
<ele>20.190</ele>
<time>2015-12-04T20:31:19.844Z</time>
</trkpt>
<trkpt lat="-27.4113690" lon="153.0238007">
<ele>20.726</ele>
<time>2015-12-04T20:31:22.675Z</time>
</trkpt>
<trkpt lat="-27.4114360" lon="153.0243321">
<ele>21.007</ele>
<time>2015-12-04T20:31:25.680Z</time>
</trkpt>
<trkpt lat="-27.4114816" lon="153.0246645">
<ele>21.874</ele>
<time>2015-12-04T20:31:27.588Z</time>
</trkpt>
<trkpt lat="-27.4115163" lon="153.0250248">
<ele>23.483</ele>
<time>2015-12-04T20:31:29.653Z</time>
</trkpt>
<trkpt lat="-27.4115868" lon="153.0255418">
<ele>25.007</ele>
<time>2015-12-04T20:31:32.663Z</time>
</trkpt>
<trkpt lat="-27.4116411" lon="153.0258741">
<ele>26.036</ele>
<time>2015-12-04T20:31:34.622Z</time>
</trkpt>
<trkpt lat="-27.4117030" lon="153.0263863">
<ele>26.953</ele>
<time>2015-12-04T20:31:37.615Z</time>
</trkpt>
<trkpt lat="-27.4117441" lon="153.0267216">
<ele>28.088</ele>
<time>2015-12-04T20:31:39.565Z</time>
</trkpt>
<trkpt lat="-27.4118095" lon="153.0272336">
<ele>29.332</ele>
<time>2015-12-04T20:31:42.538Z</time>
</trkpt>
<trkpt lat="-27.4118568" lon="153.0275675">
<ele>30.226</ele>
<time>2015-12-04T20:31:44.453Z</time>
</trkpt>
<trkpt lat="-27.4119301" lon="153.0280896">
<ele>30.346</ele>
<time>2015-12-04T20:31:47.409Z</time>
</trkpt>
<trkpt lat="-27.4119731" lon="153.0284319">
<ele>29.582</ele>
<time>2015-12-04T20:31:49.339Z</time>
</trkpt>
<trkpt lat="-27.4120208" lon="153.0287725">
<ele>28.092</ele>
<time>2015-12-04T20:31:51.290Z</time>
</trkpt>
<trkpt lat="-27.4121013" lon="153.0292747">
<ele>26.290</ele>
<time>2015-12-04T20:31:54.224Z</time>
</trkpt>
<trkpt lat="-27.4121204" lon="153.0294454">
<ele>24.689</ele>
<time>2015-12-04T20:31:55.226Z</time>
</trkpt>
<trkpt lat="-27.4121967" lon="153.0301406">
<ele>23.466</ele>
<time>2015-12-04T20:31:59.261Z</time>
</trkpt>
<trkpt lat="-27.4122399" lon="153.0306312">
<ele>22.038</ele>
<time>2015-12-04T20:32:02.088Z</time>
</trkpt>
<trkpt lat="-27.4122529" lon="153.0311466">
<ele>19.717</ele>
<time>2015-12-04T20:32:05.098Z</time>
</trkpt>
<trkpt lat="-27.4122853" lon="153.0316151">
<ele>16.475</ele>
<time>2015-12-04T20:32:07.890Z</time>
</trkpt>
<trkpt lat="-27.4123156" lon="153.0319683">
<ele>12.663</ele>
<time>2015-12-04T20:32:10.036Z</time>
</trkpt>
<trkpt lat="-27.4123410" lon="153.0322627">
<ele>8.722</ele>
<time>2015-12-04T20:32:11.880Z</time>
</trkpt>
<trkpt lat="-27.4123987" lon="153.0327234">
<ele>5.226</ele>
<time>2015-12-04T20:32:14.778Z</time>
</trkpt>
<trkpt lat="-27.4123987" lon="153.0327234">
<ele>5.226</ele>
<time>2015-12-04T20:32:14.778Z</time>
</trkpt>
<trkpt lat="-27.4433991" lon="153.0321949">
<ele>14.872</ele>
<time>2015-12-04T20:35:39.865Z</time>
</trkpt>
<trkpt lat="-27.4438872" lon="153.0322665">
<ele>14.865</ele>
<time>2015-12-04T20:35:42.992Z</time>
</trkpt>
<trkpt lat="-27.4441940" lon="153.0323720">
<ele>15.341</ele>
<time>2015-12-04T20:35:45.002Z</time>
</trkpt>
<trkpt lat="-27.4444838" lon="153.0325110">
<ele>17.027</ele>
<time>2015-12-04T20:35:46.989Z</time>
</trkpt>
<trkpt lat="-27.4448780" lon="153.0327211">
<ele>19.452</ele>
<time>2015-12-04T20:35:49.702Z</time>
</trkpt>
<trkpt lat="-27.4453066" lon="153.0327947">
<ele>21.108</ele>
<time>2015-12-04T20:35:52.329Z</time>
</trkpt>
<trkpt lat="-27.4457343" lon="153.0327003">
<ele>21.301</ele>
<time>2015-12-04T20:35:54.938Z</time>
</trkpt>
<trkpt lat="-27.4461244" lon="153.0324362">
<ele>20.343</ele>
<time>2015-12-04T20:35:57.506Z</time>
</trkpt>
<trkpt lat="-27.4463311" lon="153.0321811">
<ele>18.399</ele>
<time>2015-12-04T20:35:59.236Z</time>
</trkpt>
<trkpt lat="-27.4465570" lon="153.0319181">
<ele>15.623</ele>
<time>2015-12-04T20:36:01.068Z</time>
</trkpt>
<trkpt lat="-27.4469060" lon="153.0316049">
<ele>12.951</ele>
<time>2015-12-04T20:36:03.586Z</time>
</trkpt>
<trkpt lat="-27.4471842" lon="153.0314318">
<ele>10.907</ele>
<time>2015-12-04T20:36:05.379Z</time>
</trkpt>
<trkpt lat="-27.4476501" lon="153.0312335">
<ele>9.029</ele>
<time>2015-12-04T20:36:08.189Z</time>
</trkpt>
<trkpt lat="-27.4479747" lon="153.0311313">
<ele>7.116</ele>
<time>2015-12-04T20:36:10.091Z</time>
</trkpt>
<trkpt lat="-27.4479747" lon="153.0311313">
<ele>7.116</ele>
<time>2015-12-04T20:36:10.091Z</time>
</trkpt>
<trkpt lat="-27.4515738" lon="153.0263035">
<ele>11.402</ele>
<time>2015-12-04T20:36:41.348Z</time>
</trkpt>
<trkpt lat="-27.4517404" lon="153.0259343">
<ele>11.397</ele>
<time>2015-12-04T20:36:43.436Z</time>
</trkpt>
<trkpt lat="-27.4520486" lon="153.0254065">
<ele>11.395</ele>
<time>2015-12-04T20:36:46.641Z</time>
</trkpt>
<trkpt lat="-27.4523979" lon="153.0249653">
<ele>11.436</ele>
<time>2015-12-04T20:36:49.711Z</time>
</trkpt>
<trkpt lat="-27.4526368" lon="153.0247234">
<ele>11.544</ele>
<time>2015-12-04T20:36:51.611Z</time>
</trkpt>
<trkpt lat="-27.4530532" lon="153.0243844">
<ele>11.518</ele>
<time>2015-12-04T20:36:54.568Z</time>
</trkpt>
<trkpt lat="-27.4533545" lon="153.0241926">
<ele>11.016</ele>
<time>2015-12-04T20:36:56.538Z</time>
</trkpt>
<trkpt lat="-27.4536640" lon="153.0240330">
<ele>10.138</ele>
<time>2015-12-04T20:36:58.477Z</time>
</trkpt>
<trkpt lat="-27.4541499" lon="153.0238492">
<ele>9.593</ele>
<time>2015-12-04T20:37:01.418Z</time>
</trkpt>
<trkpt lat="-27.4544779" lon="153.0237384">
<ele>9.768</ele>
<time>2015-12-04T20:37:03.381Z</time>
</trkpt>
<trkpt lat="-27.4549403" lon="153.0235198">
<ele>10.249</ele>
<time>2015-12-04T20:37:06.252Z</time>
</trkpt>
<trkpt lat="-27.4553995" lon="153.0232364">
<ele>10.572</ele>
<time>2015-12-04T20:37:09.235Z</time>
</trkpt>
<trkpt lat="-27.4558121" lon="153.0228909">
<ele>10.836</ele>
<time>2015-12-04T20:37:12.146Z</time>
</trkpt>
<trkpt lat="-27.4561822" lon="153.0225026">
<ele>11.366</ele>
<time>2015-12-04T20:37:14.995Z</time>
</trkpt>
<trkpt lat="-27.4564972" lon="153.0220421">
<ele>12.092</ele>
<time>2015-12-04T20:37:17.851Z</time>
</trkpt>
<trkpt lat="-27.4567628" lon="153.0215394">
<ele>12.489</ele>
<time>2015-12-04T20:37:20.710Z</time>
</trkpt>
<trkpt lat="-27.4569099" lon="153.0211707">
<ele>12.340</ele>
<time>2015-12-04T20:37:22.695Z</time>
</trkpt>
<trkpt lat="-27.4570711" lon="153.0205896">
<ele>12.049</ele>
<time>2015-12-04T20:37:25.671Z</time>
</trkpt>
<trkpt lat="-27.4571498" lon="153.0200163">
<ele>12.011</ele>
<time>2015-12-04T20:37:28.418Z</time>
</trkpt>
<trkpt lat="-27.4571766" lon="153.0196119">
<ele>12.228</ele>
<time>2015-12-04T20:37:30.303Z</time>
</trkpt>
<trkpt lat="-27.4572025" lon="153.0190160">
<ele>12.590</ele>
<time>2015-12-04T20:37:33.003Z</time>
</trkpt>
<trkpt lat="-27.4571836" lon="153.0184358">
<ele>12.955</ele>
<time>2015-12-04T20:37:35.612Z</time>
</trkpt>
<trkpt lat="-27.4571424" lon="153.0178318">
<ele>13.092</ele>
<time>2015-12-04T20:37:38.335Z</time>
</trkpt>
<trkpt lat="-27.4570879" lon="153.0171939">
<ele>12.933</ele>
<time>2015-12-04T20:37:41.215Z</time>
</trkpt>
<trkpt lat="-27.4570687" lon="153.0167800">
<ele>12.422</ele>
<time>2015-12-04T20:37:43.078Z</time>
</trkpt>
<trkpt lat="-27.4570687" lon="153.0167800">
<ele>12.422</ele>
<time>2015-12-04T20:37:43.078Z</time>
</trkpt>
<trkpt lat="-27.4793146" lon="152.9762331">
<ele>31.787</ele>
<time>2015-12-04T20:41:17.166Z</time>
</trkpt>
<trkpt lat="-27.4795935" lon="152.9756532">
<ele>31.772</ele>
<time>2015-12-04T20:41:20.068Z</time>
</trkpt>
<trkpt lat="-27.4797884" lon="152.9752632">
<ele>32.176</ele>
<time>2015-12-04T20:41:22.021Z</time>
</trkpt>
<trkpt lat="-27.4799840" lon="152.9748648">
<ele>33.448</ele>
<time>2015-12-04T20:41:23.904Z</time>
</trkpt>
<trkpt lat="-27.4802612" lon="152.9742791">
<ele>35.373</ele>
<time>2015-12-04T20:41:26.531Z</time>
</trkpt>
<trkpt lat="-27.4805529" lon="152.9736792">
<ele>37.219</ele>
<time>2015-12-04T20:41:29.127Z</time>
</trkpt>
<trkpt lat="-27.4808640" lon="152.9730310">
<ele>38.576</ele>
<time>2015-12-04T20:41:31.890Z</time>
</trkpt>
<trkpt lat="-27.4812076" lon="152.9723267">
<ele>39.776</ele>
<time>2015-12-04T20:41:34.944Z</time>
</trkpt>
<trkpt lat="-27.4815533" lon="152.9716511">
<ele>41.143</ele>
<time>2015-12-04T20:41:37.932Z</time>
</trkpt>
<trkpt lat="-27.4817784" lon="152.9711992">
<ele>42.302</ele>
<time>2015-12-04T20:41:39.924Z</time>
</trkpt>
<trkpt lat="-27.4821249" lon="152.9705431">
<ele>42.884</ele>
<time>2015-12-04T20:41:42.849Z</time>
</trkpt>
<trkpt lat="-27.4823533" lon="152.9700975">
<ele>42.703</ele>
<time>2015-12-04T20:41:44.812Z</time>
</trkpt>
<trkpt lat="-27.4827010" lon="152.9694407">
<ele>41.895</ele>
<time>2015-12-04T20:41:47.737Z</time>
</trkpt>
<trkpt lat="-27.4829674" lon="152.9690125">
<ele>41.186</ele>
<time>2015-12-04T20:41:49.747Z</time>
</trkpt>
<trkpt lat="-27.4834287" lon="152.9684346">
<ele>41.388</ele>
<time>2015-12-04T20:41:52.720Z</time>
</trkpt>
<trkpt lat="-27.4837499" lon="152.9680975">
<ele>42.503</ele>
<time>2015-12-04T20:41:54.593Z</time>
</trkpt>
<trkpt lat="-27.4841035" lon="152.9677753">
<ele>43.950</ele>
<time>2015-12-04T20:41:56.531Z</time>
</trkpt>
<trkpt lat="-27.4844809" lon="152.9674809">
<ele>45.456</ele>
<time>2015-12-04T20:41:58.492Z</time>
</trkpt>
<trkpt lat="-27.4848840" lon="152.9672169">
<ele>47.203</ele>
<time>2015-12-04T20:42:00.486Z</time>
</trkpt>
<trkpt lat="-27.4853049" lon="152.9669927">
<ele>48.957</ele>
<time>2015-12-04T20:42:02.487Z</time>
</trkpt>
<trkpt lat="-27.4859555" lon="152.9667158">
<ele>50.104</ele>
<time>2015-12-04T20:42:05.486Z</time>
</trkpt>
<trkpt lat="-27.4864047" lon="152.9665768">
<ele>50.454</ele>
<time>2015-12-04T20:42:07.497Z</time>
</trkpt>
<trkpt lat="-27.4870920" lon="152.9664715">
<ele>50.565</ele>
<time>2015-12-04T20:42:10.468Z</time>
</trkpt>
<trkpt lat="-27.4877457" lon="152.9664490">
<ele>50.926</ele>
<time>2015-12-04T20:42:13.252Z</time>
</trkpt>
<trkpt lat="-27.4884584" lon="152.9665074">
<ele>51.505</ele>
<time>2015-12-04T20:42:16.349Z</time>
</trkpt>
<trkpt lat="-27.4891257" lon="152.9666576">
<ele>51.948</ele>
<time>2015-12-04T20:42:19.349Z</time>
</trkpt>
<trkpt lat="-27.4898001" lon="152.9667861">
<ele>51.986</ele>
<time>2015-12-04T20:42:22.348Z</time>
</trkpt>
<trkpt lat="-27.4902333" lon="152.9668467">
<ele>51.164</ele>
<time>2015-12-04T20:42:24.252Z</time>
</trkpt>
<trkpt lat="-27.4909275" lon="152.9668753">
<ele>49.082</ele>
<time>2015-12-04T20:42:27.280Z</time>
</trkpt>
<trkpt lat="-27.4913944" lon="152.9668308">
<ele>45.968</ele>
<time>2015-12-04T20:42:29.328Z</time>
</trkpt>
<trkpt lat="-27.4918275" lon="152.9667500">
<ele>42.812</ele>
<time>2015-12-04T20:42:31.245Z</time>
</trkpt>
<trkpt lat="-27.4922601" lon="152.9666252">
<ele>40.392</ele>
<time>2015-12-04T20:42:33.175Z</time>
</trkpt>
<trkpt lat="-27.4926831" lon="152.9664496">
<ele>38.567</ele>
<time>2015-12-04T20:42:35.110Z</time>
</trkpt>
<trkpt lat="-27.4932721" lon="152.9661116">
<ele>36.770</ele>
<time>2015-12-04T20:42:37.909Z</time>
</trkpt>
<trkpt lat="-27.4938737" lon="152.9657060">
<ele>34.750</ele>
<time>2015-12-04T20:42:40.870Z</time>
</trkpt>
<trkpt lat="-27.4942714" lon="152.9654130">
<ele>32.643</ele>
<time>2015-12-04T20:42:42.875Z</time>
</trkpt>
<trkpt lat="-27.4948528" lon="152.9649799">
<ele>30.899</ele>
<time>2015-12-04T20:42:45.821Z</time>
</trkpt>
<trkpt lat="-27.4954552" lon="152.9645625">
<ele>29.580</ele>
<time>2015-12-04T20:42:48.819Z</time>
</trkpt>
<trkpt lat="-27.4960848" lon="152.9642042">
<ele>28.455</ele>
<time>2015-12-04T20:42:51.833Z</time>
</trkpt>
<trkpt lat="-27.4967330" lon="152.9639650">
<ele>27.576</ele>
<time>2015-12-04T20:42:54.758Z</time>
</trkpt>
<trkpt lat="-27.4971669" lon="152.9638508">
<ele>26.884</ele>
<time>2015-12-04T20:42:56.678Z</time>
</trkpt>
<trkpt lat="-27.4976165" lon="152.9637222">
<ele>26.135</ele>
<time>2015-12-04T20:42:58.677Z</time>
</trkpt>
<trkpt lat="-27.4980657" lon="152.9635916">
<ele>25.330</ele>
<time>2015-12-04T20:43:00.674Z</time>
</trkpt>
<trkpt lat="-27.4987168" lon="152.9634048">
<ele>24.666</ele>
<time>2015-12-04T20:43:03.555Z</time>
</trkpt>
<trkpt lat="-27.4993842" lon="152.9631936">
<ele>24.289</ele>
<time>2015-12-04T20:43:06.538Z</time>
</trkpt>
<trkpt lat="-27.4998317" lon="152.9630579">
<ele>24.096</ele>
<time>2015-12-04T20:43:08.550Z</time>
</trkpt>
<trkpt lat="-27.5004866" lon="152.9628470">
<ele>23.919</ele>
<time>2015-12-04T20:43:11.528Z</time>
</trkpt>
<trkpt lat="-27.5009311" lon="152.9627246">
<ele>23.705</ele>
<time>2015-12-04T20:43:13.532Z</time>
</trkpt>
<trkpt lat="-27.5016046" lon="152.9626824">
<ele>23.349</ele>
<time>2015-12-04T20:43:16.449Z</time>
</trkpt>
<trkpt lat="-27.5020366" lon="152.9627363">
<ele>22.809</ele>
<time>2015-12-04T20:43:18.318Z</time>
</trkpt>
<trkpt lat="-27.5024965" lon="152.9628662">
<ele>22.301</ele>
<time>2015-12-04T20:43:20.350Z</time>
</trkpt>
<trkpt lat="-27.5031431" lon="152.9631266">
<ele>22.027</ele>
<time>2015-12-04T20:43:23.271Z</time>
</trkpt>
<trkpt lat="-27.5035966" lon="152.9632713">
<ele>21.565</ele>
<time>2015-12-04T20:43:25.268Z</time>
</trkpt>
<trkpt lat="-27.5040594" lon="152.9633588">
<ele>20.132</ele>
<time>2015-12-04T20:43:27.254Z</time>
</trkpt>
<trkpt lat="-27.5045250" lon="152.9633909">
<ele>17.922</ele>
<time>2015-12-04T20:43:29.223Z</time>
</trkpt>
<trkpt lat="-27.5052268" lon="152.9633524">
<ele>15.522</ele>
<time>2015-12-04T20:43:32.198Z</time>
</trkpt>
<trkpt lat="-27.5059026" lon="152.9631799">
<ele>12.986</ele>
<time>2015-12-04T20:43:35.169Z</time>
</trkpt>
<trkpt lat="-27.5063368" lon="152.9629925">
<ele>10.512</ele>
<time>2015-12-04T20:43:37.187Z</time>
</trkpt>
<trkpt lat="-27.5069277" lon="152.9626170">
<ele>8.584</ele>
<time>2015-12-04T20:43:40.123Z</time>
</trkpt>
<trkpt lat="-27.5073072" lon="152.9623258">
<ele>7.081</ele>
<time>2015-12-04T20:43:42.090Z</time>
</trkpt>
<trkpt lat="-27.5077961" lon="152.9618005">
<ele>5.694</ele>
<time>2015-12-04T20:43:44.986Z</time>
</trkpt>
<trkpt lat="-27.5081062" lon="152.9614108">
<ele>4.571</ele>
<time>2015-12-04T20:43:46.979Z</time>
</trkpt>
<trkpt lat="-27.5085293" lon="152.9607836">
<ele>4.014</ele>
<time>2015-12-04T20:43:49.974Z</time>
</trkpt>
<trkpt lat="-27.5089492" lon="152.9601702">
<ele>3.893</ele>
<time>2015-12-04T20:43:52.913Z</time>
</trkpt>
<trkpt lat="-27.5094201" lon="152.9596055">
<ele>4.158</ele>
<time>2015-12-04T20:43:55.849Z</time>
</trkpt>
<trkpt lat="-27.5097932" lon="152.9592613">
<ele>5.047</ele>
<time>2015-12-04T20:43:57.903Z</time>
</trkpt>
<trkpt lat="-27.5103716" lon="152.9588113">
<ele>6.645</ele>
<time>2015-12-04T20:44:00.869Z</time>
</trkpt>
<trkpt lat="-27.5108080" lon="152.9585451">
<ele>8.953</ele>
<time>2015-12-04T20:44:02.947Z</time>
</trkpt>
<trkpt lat="-27.5112158" lon="152.9583238">
<ele>11.967</ele>
<time>2015-12-04T20:44:04.846Z</time>
</trkpt>
<trkpt lat="-27.5118962" lon="152.9580277">
<ele>15.347</ele>
<time>2015-12-04T20:44:07.937Z</time>
</trkpt>
<trkpt lat="-27.5123032" lon="152.9578122">
<ele>18.456</ele>
<time>2015-12-04T20:44:09.837Z</time>
</trkpt>
<trkpt lat="-27.5129299" lon="152.9574813">
<ele>20.635</ele>
<time>2015-12-04T20:44:12.777Z</time>
</trkpt>
<trkpt lat="-27.5135711" lon="152.9571656">
<ele>21.311</ele>
<time>2015-12-04T20:44:15.892Z</time>
</trkpt>
<trkpt lat="-27.5139955" lon="152.9569519">
<ele>20.495</ele>
<time>2015-12-04T20:44:18.104Z</time>
</trkpt>
<trkpt lat="-27.5145912" lon="152.9566475">
<ele>18.450</ele>
<time>2015-12-04T20:44:21.293Z</time>
</trkpt>
<trkpt lat="-27.5151229" lon="152.9563707">
<ele>14.923</ele>
<time>2015-12-04T20:44:24.200Z</time>
</trkpt>
<trkpt lat="-27.5154922" lon="152.9561885">
<ele>10.085</ele>
<time>2015-12-04T20:44:26.229Z</time>
</trkpt>
<trkpt lat="-27.5160276" lon="152.9559321">
<ele>5.606</ele>
<time>2015-12-04T20:44:29.146Z</time>
</trkpt>
<trkpt lat="-27.5165317" lon="152.9556383">
<ele>2.671</ele>
<time>2015-12-04T20:44:31.972Z</time>
</trkpt>
<trkpt lat="-27.5170259" lon="152.9552558">
<ele>0.814</ele>
<time>2015-12-04T20:44:34.947Z</time>
</trkpt>
<trkpt lat="-27.5174716" lon="152.9548238">
<ele>0.000</ele>
<time>2015-12-04T20:44:37.865Z</time>
</trkpt>
<trkpt lat="-27.5178735" lon="152.9543365">
<ele>0.000</ele>
<time>2015-12-04T20:44:40.786Z</time>
</trkpt>
<trkpt lat="-27.5181273" lon="152.9540060">
<ele>0.106</ele>
<time>2015-12-04T20:44:42.684Z</time>
</trkpt>
<trkpt lat="-27.5183699" lon="152.9536529">
<ele>1.821</ele>
<time>2015-12-04T20:44:44.613Z</time>
</trkpt>
<trkpt lat="-27.5185945" lon="152.9532770">
<ele>3.340</ele>
<time>2015-12-04T20:44:46.553Z</time>
</trkpt>
<trkpt lat="-27.5188963" lon="152.9526864">
<ele>4.429</ele>
<time>2015-12-04T20:44:49.402Z</time>
</trkpt>
<trkpt lat="-27.5190708" lon="152.9522638">
<ele>5.389</ele>
<time>2015-12-04T20:44:51.298Z</time>
</trkpt>
<trkpt lat="-27.5193382" lon="152.9516045">
<ele>6.403</ele>
<time>2015-12-04T20:44:54.223Z</time>
</trkpt>
<trkpt lat="-27.5195614" lon="152.9508962">
<ele>7.681</ele>
<time>2015-12-04T20:44:57.290Z</time>
</trkpt>
<trkpt lat="-27.5197796" lon="152.9502446">
<ele>9.546</ele>
<time>2015-12-04T20:45:00.214Z</time>
</trkpt>
<trkpt lat="-27.5199449" lon="152.9498305">
<ele>11.744</ele>
<time>2015-12-04T20:45:02.150Z</time>
</trkpt>
<trkpt lat="-27.5202519" lon="152.9492161">
<ele>13.136</ele>
<time>2015-12-04T20:45:05.159Z</time>
</trkpt>
<trkpt lat="-27.5206719" lon="152.9487275">
<ele>12.780</ele>
<time>2015-12-04T20:45:08.002Z</time>
</trkpt>
<trkpt lat="-27.5210688" lon="152.9484693">
<ele>11.231</ele>
<time>2015-12-04T20:45:10.102Z</time>
</trkpt>
<trkpt lat="-27.5214826" lon="152.9483082">
<ele>9.905</ele>
<time>2015-12-04T20:45:12.063Z</time>
</trkpt>
<trkpt lat="-27.5219161" lon="152.9481970">
<ele>9.861</ele>
<time>2015-12-04T20:45:14.061Z</time>
</trkpt>
<trkpt lat="-27.5223413" lon="152.9480954">
<ele>11.248</ele>
<time>2015-12-04T20:45:16.047Z</time>
</trkpt>
<trkpt lat="-27.5229651" lon="152.9479636">
<ele>13.615</ele>
<time>2015-12-04T20:45:19.003Z</time>
</trkpt>
<trkpt lat="-27.5235861" lon="152.9478242">
<ele>16.043</ele>
<time>2015-12-04T20:45:21.987Z</time>
</trkpt>
<trkpt lat="-27.5242046" lon="152.9476666">
<ele>18.007</ele>
<time>2015-12-04T20:45:25.024Z</time>
</trkpt>
<trkpt lat="-27.5247965" lon="152.9475456">
<ele>19.538</ele>
<time>2015-12-04T20:45:27.934Z</time>
</trkpt>
<trkpt lat="-27.5253834" lon="152.9474255">
<ele>20.230</ele>
<time>2015-12-04T20:45:30.781Z</time>
</trkpt>
<trkpt lat="-27.5259945" lon="152.9473178">
<ele>19.262</ele>
<time>2015-12-04T20:45:33.674Z</time>
</trkpt>
<trkpt lat="-27.5264227" lon="152.9472417">
<ele>16.382</ele>
<time>2015-12-04T20:45:35.707Z</time>
</trkpt>
<trkpt lat="-27.5270361" lon="152.9471397">
<ele>12.195</ele>
<time>2015-12-04T20:45:38.647Z</time>
</trkpt>
<trkpt lat="-27.5276560" lon="152.9470267">
<ele>8.290</ele>
<time>2015-12-04T20:45:41.633Z</time>
</trkpt>
<trkpt lat="-27.5282688" lon="152.9469225">
<ele>6.073</ele>
<time>2015-12-04T20:45:44.536Z</time>
</trkpt>
<trkpt lat="-27.5286713" lon="152.9468522">
<ele>5.189</ele>
<time>2015-12-04T20:45:46.419Z</time>
</trkpt>
<trkpt lat="-27.5293148" lon="152.9467516">
<ele>4.521</ele>
<time>2015-12-04T20:45:49.342Z</time>
</trkpt>
<trkpt lat="-27.5299605" lon="152.9466447">
<ele>3.865</ele>
<time>2015-12-04T20:45:52.126Z</time>
</trkpt>
<trkpt lat="-27.5304311" lon="152.9465808">
<ele>3.473</ele>
<time>2015-12-04T20:45:54.020Z</time>
</trkpt>
<trkpt lat="-27.5311927" lon="152.9464751">
<ele>3.598</ele>
<time>2015-12-04T20:45:56.975Z</time>
</trkpt>
<trkpt lat="-27.5319620" lon="152.9464147">
<ele>4.435</ele>
<time>2015-12-04T20:45:59.900Z</time>
</trkpt>
<trkpt lat="-27.5324820" lon="152.9464078">
<ele>5.541</ele>
<time>2015-12-04T20:46:01.866Z</time>
</trkpt>
<trkpt lat="-27.5332618" lon="152.9464239">
<ele>6.423</ele>
<time>2015-12-04T20:46:04.805Z</time>
</trkpt>
<trkpt lat="-27.5337926" lon="152.9464848">
<ele>7.119</ele>
<time>2015-12-04T20:46:06.809Z</time>
</trkpt>
<trkpt lat="-27.5345685" lon="152.9466055">
<ele>7.708</ele>
<time>2015-12-04T20:46:09.763Z</time>
</trkpt>
<trkpt lat="-27.5353451" lon="152.9467379">
<ele>8.209</ele>
<time>2015-12-04T20:46:12.753Z</time>
</trkpt>
<trkpt lat="-27.5361045" lon="152.9468172">
<ele>8.660</ele>
<time>2015-12-04T20:46:15.682Z</time>
</trkpt>
<trkpt lat="-27.5368781" lon="152.9467936">
<ele>8.559</ele>
<time>2015-12-04T20:46:18.688Z</time>
</trkpt>
<trkpt lat="-27.5376353" lon="152.9466855">
<ele>7.380</ele>
<time>2015-12-04T20:46:21.674Z</time>
</trkpt>
<trkpt lat="-27.5381232" lon="152.9465681">
<ele>5.771</ele>
<time>2015-12-04T20:46:23.630Z</time>
</trkpt>
<trkpt lat="-27.5388460" lon="152.9462961">
<ele>4.681</ele>
<time>2015-12-04T20:46:26.669Z</time>
</trkpt>
<trkpt lat="-27.5393237" lon="152.9460600">
<ele>4.289</ele>
<time>2015-12-04T20:46:28.797Z</time>
</trkpt>
<trkpt lat="-27.5399605" lon="152.9456702">
<ele>4.285</ele>
<time>2015-12-04T20:46:31.725Z</time>
</trkpt>
<trkpt lat="-27.5403496" lon="152.9453849">
<ele>4.222</ele>
<time>2015-12-04T20:46:33.549Z</time>
</trkpt>
<trkpt lat="-27.5409928" lon="152.9448721">
<ele>3.940</ele>
<time>2015-12-04T20:46:36.527Z</time>
</trkpt>
<trkpt lat="-27.5414358" lon="152.9445246">
<ele>3.969</ele>
<time>2015-12-04T20:46:38.561Z</time>
</trkpt>
<trkpt lat="-27.5418787" lon="152.9442147">
<ele>4.582</ele>
<time>2015-12-04T20:46:40.573Z</time>
</trkpt>
<trkpt lat="-27.5424960" lon="152.9437705">
<ele>5.321</ele>
<time>2015-12-04T20:46:43.474Z</time>
</trkpt>
<trkpt lat="-27.5428945" lon="152.9434670">
<ele>5.722</ele>
<time>2015-12-04T20:46:45.378Z</time>
</trkpt>
<trkpt lat="-27.5433313" lon="152.9431899">
<ele>6.327</ele>
<time>2015-12-04T20:46:47.336Z</time>
</trkpt>
<trkpt lat="-27.5440283" lon="152.9428232">
<ele>7.764</ele>
<time>2015-12-04T20:46:50.331Z</time>
</trkpt>
<trkpt lat="-27.5444921" lon="152.9425947">
<ele>10.046</ele>
<time>2015-12-04T20:46:52.299Z</time>
</trkpt>
<trkpt lat="-27.5451949" lon="152.9422742">
<ele>12.909</ele>
<time>2015-12-04T20:46:55.257Z</time>
</trkpt>
<trkpt lat="-27.5459036" lon="152.9420116">
<ele>16.272</ele>
<time>2015-12-04T20:46:58.213Z</time>
</trkpt>
<trkpt lat="-27.5463788" lon="152.9418732">
<ele>19.633</ele>
<time>2015-12-04T20:47:00.173Z</time>
</trkpt>
<trkpt lat="-27.5468632" lon="152.9417439">
<ele>22.043</ele>
<time>2015-12-04T20:47:02.144Z</time>
</trkpt>
<trkpt lat="-27.5476088" lon="152.9415985">
<ele>23.218</ele>
<time>2015-12-04T20:47:05.145Z</time>
</trkpt>
<trkpt lat="-27.5483395" lon="152.9415410">
<ele>23.833</ele>
<time>2015-12-04T20:47:08.088Z</time>
</trkpt>
<trkpt lat="-27.5490718" lon="152.9415019">
<ele>24.202</ele>
<time>2015-12-04T20:47:11.016Z</time>
</trkpt>
<trkpt lat="-27.5495875" lon="152.9414713">
<ele>24.298</ele>
<time>2015-12-04T20:47:13.006Z</time>
</trkpt>
<trkpt lat="-27.5503454" lon="152.9414163">
<ele>23.940</ele>
<time>2015-12-04T20:47:15.933Z</time>
</trkpt>
<trkpt lat="-27.5510911" lon="152.9412905">
<ele>23.041</ele>
<time>2015-12-04T20:47:18.855Z</time>
</trkpt>
<trkpt lat="-27.5518321" lon="152.9411575">
<ele>21.486</ele>
<time>2015-12-04T20:47:21.773Z</time>
</trkpt>
<trkpt lat="-27.5523266" lon="152.9410625">
<ele>18.981</ele>
<time>2015-12-04T20:47:23.730Z</time>
</trkpt>
<trkpt lat="-27.5528400" lon="152.9409709">
<ele>16.030</ele>
<time>2015-12-04T20:47:25.774Z</time>
</trkpt>
<trkpt lat="-27.5535610" lon="152.9408014">
<ele>13.872</ele>
<time>2015-12-04T20:47:28.710Z</time>
</trkpt>
<trkpt lat="-27.5540360" lon="152.9407129">
<ele>12.967</ele>
<time>2015-12-04T20:47:30.689Z</time>
</trkpt>
<trkpt lat="-27.5547453" lon="152.9405826">
<ele>13.103</ele>
<time>2015-12-04T20:47:33.723Z</time>
</trkpt>
<trkpt lat="-27.5551892" lon="152.9405013">
<ele>14.122</ele>
<time>2015-12-04T20:47:35.744Z</time>
</trkpt>
<trkpt lat="-27.5555923" lon="152.9404385">
<ele>15.603</ele>
<time>2015-12-04T20:47:37.709Z</time>
</trkpt>
<trkpt lat="-27.5561845" lon="152.9403551">
<ele>16.761</ele>
<time>2015-12-04T20:47:40.794Z</time>
</trkpt>
<trkpt lat="-27.5565256" lon="152.9402994">
<ele>17.291</ele>
<time>2015-12-04T20:47:42.879Z</time>
</trkpt>
<trkpt lat="-27.5569894" lon="152.9402557">
<ele>17.489</ele>
<time>2015-12-04T20:47:45.959Z</time>
</trkpt>
<trkpt lat="-27.5572675" lon="152.9402534">
<ele>17.357</ele>
<time>2015-12-04T20:47:47.937Z</time>
</trkpt>
<trkpt lat="-27.5576096" lon="152.9404808">
<ele>16.828</ele>
<time>2015-12-04T20:47:50.788Z</time>
</trkpt>
<trkpt lat="-27.5578244" lon="152.9406751">
<ele>16.281</ele>
<time>2015-12-04T20:47:52.664Z</time>
</trkpt>
<trkpt lat="-27.5581357" lon="152.9410146">
<ele>16.315</ele>
<time>2015-12-04T20:47:55.638Z</time>
</trkpt>
<trkpt lat="-27.5584538" lon="152.9413113">
<ele>17.359</ele>
<time>2015-12-04T20:47:58.645Z</time>
</trkpt>
<trkpt lat="-27.5586741" lon="152.9414330">
<ele>19.283</ele>
<time>2015-12-04T20:48:00.988Z</time>
</trkpt>
<trkpt lat="-27.5589462" lon="152.9415008">
<ele>21.221</ele>
<time>2015-12-04T20:48:05.625Z</time>
</trkpt>
<trkpt lat="-27.5590397" lon="152.9415554">
<ele>22.368</ele>
<time>2015-12-04T20:48:08.076Z</time>
</trkpt>
<trkpt lat="-27.5591198" lon="152.9416723">
<ele>22.672</ele>
<time>2015-12-04T20:48:11.207Z</time>
</trkpt>
<trkpt lat="-27.5593089" lon="152.9418016">
<ele>22.664</ele>
<time>2015-12-04T20:48:15.040Z</time>
</trkpt>
<trkpt lat="-27.5594723" lon="152.9417559">
<ele>22.801</ele>
<time>2015-12-04T20:48:17.815Z</time>
</trkpt>
<trkpt lat="-27.5594986" lon="152.9415949">
<ele>23.103</ele>
<time>2015-12-04T20:48:20.259Z</time>
</trkpt>
<trkpt lat="-27.5594112" lon="152.9413057">
<ele>23.366</ele>
<time>2015-12-04T20:48:23.672Z</time>
</trkpt>
<trkpt lat="-27.5593858" lon="152.9409162">
<ele>23.590</ele>
<time>2015-12-04T20:48:26.770Z</time>
</trkpt>
<trkpt lat="-27.5593601" lon="152.9406073">
<ele>23.843</ele>
<time>2015-12-04T20:48:28.853Z</time>
</trkpt>
<trkpt lat="-27.5592876" lon="152.9401609">
<ele>23.967</ele>
<time>2015-12-04T20:48:31.870Z</time>
</trkpt>
<trkpt lat="-27.5592634" lon="152.9398781">
<ele>23.662</ele>
<time>2015-12-04T20:48:33.875Z</time>
</trkpt>
<trkpt lat="-27.5592148" lon="152.9396262">
<ele>22.979</ele>
<time>2015-12-04T20:48:35.832Z</time>
</trkpt>
<trkpt lat="-27.5592066" lon="152.9392740">
<ele>22.567</ele>
<time>2015-12-04T20:48:38.777Z</time>
</trkpt>
<trkpt lat="-27.5593287" lon="152.9389497">
<ele>23.491</ele>
<time>2015-12-04T20:48:42.253Z</time>
</trkpt>
<trkpt lat="-27.5593842" lon="152.9388496">
<ele>26.050</ele>
<time>2015-12-04T20:48:43.450Z</time>
</trkpt>
<trkpt lat="-27.5593873" lon="152.9385038">
<ele>28.951</ele>
<time>2015-12-04T20:48:46.610Z</time>
</trkpt>
<trkpt lat="-27.5593772" lon="152.9382470">
<ele>31.110</ele>
<time>2015-12-04T20:48:48.598Z</time>
</trkpt>
<trkpt lat="-27.5594198" lon="152.9379601">
<ele>33.040</ele>
<time>2015-12-04T20:48:50.615Z</time>
</trkpt>
<trkpt lat="-27.5595218" lon="152.9374982">
<ele>35.110</ele>
<time>2015-12-04T20:48:53.656Z</time>
</trkpt>
<trkpt lat="-27.5595931" lon="152.9371719">
<ele>36.918</ele>
<time>2015-12-04T20:48:55.712Z</time>
</trkpt>
<trkpt lat="-27.5597268" lon="152.9364873">
<ele>38.285</ele>
<time>2015-12-04T20:48:59.859Z</time>
</trkpt>
<trkpt lat="-27.5597912" lon="152.9361729">
<ele>39.093</ele>
<time>2015-12-04T20:49:01.847Z</time>
</trkpt>
<trkpt lat="-27.5598457" lon="152.9359000">
<ele>39.165</ele>
<time>2015-12-04T20:49:03.927Z</time>
</trkpt>
<trkpt lat="-27.5598913" lon="152.9356759">
<ele>38.574</ele>
<time>2015-12-04T20:49:06.000Z</time>
</trkpt>
<trkpt lat="-27.5598913" lon="152.9356759">
<ele>37.669</ele>
<time>2015-12-04T20:49:11.000Z</time>
</trkpt>
<trkpt lat="-27.5598913" lon="152.9356759">
<ele>37.066</ele>
<time>2015-12-04T20:49:55.548Z</time>
</trkpt>
<trkpt lat="-27.5597599" lon="152.9352771">
<ele>37.079</ele>
<time>2015-12-04T20:50:03.031Z</time>
</trkpt>
<trkpt lat="-27.5595534" lon="152.9351260">
<ele>36.971</ele>
<time>2015-12-04T20:50:05.138Z</time>
</trkpt>
<trkpt lat="-27.5592483" lon="152.9348892">
<ele>36.119</ele>
<time>2015-12-04T20:50:08.193Z</time>
</trkpt>
<trkpt lat="-27.5590714" lon="152.9347473">
<ele>35.068</ele>
<time>2015-12-04T20:50:09.866Z</time>
</trkpt>
<trkpt lat="-27.5587439" lon="152.9345176">
<ele>34.250</ele>
<time>2015-12-04T20:50:12.619Z</time>
</trkpt>
<trkpt lat="-27.5583656" lon="152.9342481">
<ele>33.316</ele>
<time>2015-12-04T20:50:15.600Z</time>
</trkpt>
<trkpt lat="-27.5581167" lon="152.9340723">
<ele>32.160</ele>
<time>2015-12-04T20:50:17.604Z</time>
</trkpt>
<trkpt lat="-27.5578806" lon="152.9339068">
<ele>30.979</ele>
<time>2015-12-04T20:50:19.551Z</time>
</trkpt>
<trkpt lat="-27.5576470" lon="152.9337364">
<ele>29.828</ele>
<time>2015-12-04T20:50:21.464Z</time>
</trkpt>
<trkpt lat="-27.5572965" lon="152.9334411">
<ele>28.627</ele>
<time>2015-12-04T20:50:24.413Z</time>
</trkpt>
<trkpt lat="-27.5569343" lon="152.9331796">
<ele>27.086</ele>
<time>2015-12-04T20:50:27.404Z</time>
</trkpt>
<trkpt lat="-27.5566742" lon="152.9330135">
<ele>24.899</ele>
<time>2015-12-04T20:50:29.752Z</time>
</trkpt>
<trkpt lat="-27.5565334" lon="152.9328828">
<ele>21.881</ele>
<time>2015-12-04T20:50:31.524Z</time>
</trkpt>
<trkpt lat="-27.5564126" lon="152.9326365">
<ele>18.175</ele>
<time>2015-12-04T20:50:34.312Z</time>
</trkpt>
<trkpt lat="-27.5563894" lon="152.9324284">
<ele>14.528</ele>
<time>2015-12-04T20:50:36.321Z</time>
</trkpt>
<trkpt lat="-27.5563655" lon="152.9321574">
<ele>11.943</ele>
<time>2015-12-04T20:50:38.450Z</time>
</trkpt>
<trkpt lat="-27.5563401" lon="152.9318559">
<ele>10.867</ele>
<time>2015-12-04T20:50:40.567Z</time>
</trkpt>
<trkpt lat="-27.5561895" lon="152.9311201">
<ele>11.244</ele>
<time>2015-12-04T20:50:46.512Z</time>
</trkpt>
<trkpt lat="-27.5561988" lon="152.9309057">
<ele>10.119</ele>
<time>2015-12-04T20:50:49.096Z</time>
</trkpt>
<trkpt lat="-27.5563559" lon="152.9308753">
<ele>6.312</ele>
<time>2015-12-04T20:50:52.151Z</time>
</trkpt>
<trkpt lat="-27.5565337" lon="152.9308426">
<ele>1.402</ele>
<time>2015-12-04T20:50:55.204Z</time>
</trkpt>
<trkpt lat="-27.5566679" lon="152.9308180">
<ele>0.000</ele>
<time>2015-12-04T20:50:57.259Z</time>
</trkpt>
<trkpt lat="-27.5568389" lon="152.9307867">
<ele>0.000</ele>
<time>2015-12-04T20:51:00.174Z</time>
</trkpt>
<trkpt lat="-27.5569086" lon="152.9309162">
<ele>0.000</ele>
<time>2015-12-04T20:51:02.835Z</time>
</trkpt>
<trkpt lat="-27.5569333" lon="152.9310731">
<ele>0.000</ele>
<time>2015-12-04T20:51:05.215Z</time>
</trkpt>
<trkpt lat="-27.5569923" lon="152.9314465">
<ele>0.000</ele>
<time>2015-12-04T20:51:08.757Z</time>
</trkpt>
<trkpt lat="-27.5570292" lon="152.9316793">
<ele>1.850</ele>
<time>2015-12-04T20:51:10.676Z</time>
</trkpt>
<trkpt lat="-27.5570682" lon="152.9319281">
<ele>4.801</ele>
<time>2015-12-04T20:51:12.765Z</time>
</trkpt>
<trkpt lat="-27.5571127" lon="152.9322127">
<ele>7.772</ele>
<time>2015-12-04T20:51:15.486Z</time>
</trkpt>
<trkpt lat="-27.5572149" lon="152.9323901">
<ele>9.929</ele>
<time>2015-12-04T20:51:17.750Z</time>
</trkpt>
<trkpt lat="-27.5574891" lon="152.9323805">
<ele>11.186</ele>
<time>2015-12-04T20:51:21.176Z</time>
</trkpt>
<trkpt lat="-27.5576254" lon="152.9323578">
<ele>12.194</ele>
<time>2015-12-04T20:51:22.874Z</time>
</trkpt>
<trkpt lat="-27.5577405" lon="152.9323386">
<ele>13.308</ele>
<time>2015-12-04T20:51:24.489Z</time>
</trkpt>
<trkpt lat="-27.5579205" lon="152.9323444">
<ele>13.768</ele>
<time>2015-12-04T20:51:27.354Z</time>
</trkpt>
<trkpt lat="-27.5579597" lon="152.9325613">
<ele>13.049</ele>
<time>2015-12-04T20:51:30.889Z</time>
</trkpt>
<trkpt lat="-27.5580112" lon="152.9328464">
<ele>12.087</ele>
<time>2015-12-04T20:51:34.260Z</time>
</trkpt>
<trkpt lat="-27.5581280" lon="152.9330915">
<ele>12.126</ele>
<time>2015-12-04T20:51:37.151Z</time>
</trkpt>
<trkpt lat="-27.5583811" lon="152.9332754">
<ele>13.360</ele>
<time>2015-12-04T20:51:40.312Z</time>
</trkpt>
<trkpt lat="-27.5586511" lon="152.9334653">
<ele>15.111</ele>
<time>2015-12-04T20:51:43.455Z</time>
</trkpt>
<trkpt lat="-27.5588507" lon="152.9336057">
<ele>16.555</ele>
<time>2015-12-04T20:51:46.159Z</time>
</trkpt>
<trkpt lat="-27.5589858" lon="152.9336995">
<ele>17.271</ele>
<time>2015-12-04T20:51:48.821Z</time>
</trkpt>
<trkpt lat="-27.5590987" lon="152.9335848">
<ele>17.282</ele>
<time>2015-12-04T20:51:52.452Z</time>
</trkpt>
<trkpt lat="-27.5591777" lon="152.9334443">
<ele>16.955</ele>
<time>2015-12-04T20:51:55.614Z</time>
</trkpt>
<trkpt lat="-27.5592475" lon="152.9333202">
<ele>16.656</ele>
<time>2015-12-04T20:51:57.812Z</time>
</trkpt>
<trkpt lat="-27.5593491" lon="152.9331395">
<ele>16.595</ele>
<time>2015-12-04T20:52:00.829Z</time>
</trkpt>
<trkpt lat="-27.5594082" lon="152.9330344">
<ele>16.759</ele>
<time>2015-12-04T20:52:02.765Z</time>
</trkpt>
<trkpt lat="-27.5594786" lon="152.9329097">
<ele>16.898</ele>
<time>2015-12-04T20:52:05.549Z</time>
</trkpt>
<trkpt lat="-27.5594398" lon="152.9327499">
<ele>16.790</ele>
<time>2015-12-04T20:52:10.000Z</time>
</trkpt>
<trkpt lat="-27.5594398" lon="152.9327499">
<ele>16.523</ele>
<time>2015-12-04T20:52:13.886Z</time>
</trkpt>
<trkpt lat="-27.5594398" lon="152.9327499">
<ele>16.342</ele>
<time>2015-12-04T20:59:41.868Z</time>
</trkpt>
<trkpt lat="-27.5594491" lon="152.9329617">
<ele>16.380</ele>
<time>2015-12-04T20:59:46.088Z</time>
</trkpt>
<trkpt lat="-27.5593060" lon="152.9332161">
<ele>17.142</ele>
<time>2015-12-04T20:59:49.215Z</time>
</trkpt>
<trkpt lat="-27.5592110" lon="152.9333852">
<ele>18.953</ele>
<time>2015-12-04T20:59:51.213Z</time>
</trkpt>
<trkpt lat="-27.5591303" lon="152.9335287">
<ele>20.936</ele>
<time>2015-12-04T20:59:53.372Z</time>
</trkpt>
<trkpt lat="-27.5590621" lon="152.9336499">
<ele>22.021</ele>
<time>2015-12-04T20:59:55.651Z</time>
</trkpt>
<trkpt lat="-27.5590725" lon="152.9337639">
<ele>22.215</ele>
<time>2015-12-04T20:59:57.655Z</time>
</trkpt>
<trkpt lat="-27.5592751" lon="152.9339151">
<ele>22.055</ele>
<time>2015-12-04T21:00:01.116Z</time>
</trkpt>
<trkpt lat="-27.5594686" lon="152.9340577">
<ele>22.521</ele>
<time>2015-12-04T21:00:04.221Z</time>
</trkpt>
<trkpt lat="-27.5595516" lon="152.9341176">
<ele>24.278</ele>
<time>2015-12-04T21:00:05.928Z</time>
</trkpt>
<trkpt lat="-27.5595721" lon="152.9342827">
<ele>26.570</ele>
<time>2015-12-04T21:00:08.597Z</time>
</trkpt>
<trkpt lat="-27.5594797" lon="152.9344463">
<ele>28.384</ele>
<time>2015-12-04T21:00:10.952Z</time>
</trkpt>
<trkpt lat="-27.5593523" lon="152.9346695">
<ele>29.898</ele>
<time>2015-12-04T21:00:14.158Z</time>
</trkpt>
<trkpt lat="-27.5592794" lon="152.9347973">
<ele>31.333</ele>
<time>2015-12-04T21:00:16.500Z</time>
</trkpt>
<trkpt lat="-27.5592702" lon="152.9349719">
<ele>32.305</ele>
<time>2015-12-04T21:00:19.451Z</time>
</trkpt>
<trkpt lat="-27.5594062" lon="152.9350787">
<ele>32.863</ele>
<time>2015-12-04T21:00:21.613Z</time>
</trkpt>
<trkpt lat="-27.5595475" lon="152.9351823">
<ele>33.813</ele>
<time>2015-12-04T21:00:23.674Z</time>
</trkpt>
<trkpt lat="-27.5596769" lon="152.9352809">
<ele>35.309</ele>
<time>2015-12-04T21:00:25.999Z</time>
</trkpt>
<trkpt lat="-27.5596769" lon="152.9352809">
<ele>36.336</ele>
<time>2015-12-04T21:00:29.999Z</time>
</trkpt>
<trkpt lat="-27.5596769" lon="152.9352809">
<ele>36.278</ele>
<time>2015-12-04T21:01:12.680Z</time>
</trkpt>
<trkpt lat="-27.5598044" lon="152.9354621">
<ele>35.724</ele>
<time>2015-12-04T21:01:18.386Z</time>
</trkpt>
<trkpt lat="-27.5597689" lon="152.9356557">
<ele>35.289</ele>
<time>2015-12-04T21:01:20.126Z</time>
</trkpt>
<trkpt lat="-27.5596367" lon="152.9362228">
<ele>35.056</ele>
<time>2015-12-04T21:01:24.219Z</time>
</trkpt>
<trkpt lat="-27.5595833" lon="152.9364973">
<ele>35.249</ele>
<time>2015-12-04T21:01:25.931Z</time>
</trkpt>
<trkpt lat="-27.5595283" lon="152.9368298">
<ele>35.973</ele>
<time>2015-12-04T21:01:27.963Z</time>
</trkpt>
<trkpt lat="-27.5594393" lon="152.9372911">
<ele>36.681</ele>
<time>2015-12-04T21:01:30.927Z</time>
</trkpt>
<trkpt lat="-27.5593391" lon="152.9377307">
<ele>36.897</ele>
<time>2015-12-04T21:01:34.106Z</time>
</trkpt>
<trkpt lat="-27.5592589" lon="152.9381051">
<ele>36.742</ele>
<time>2015-12-04T21:01:37.229Z</time>
</trkpt>
<trkpt lat="-27.5592023" lon="152.9384325">
<ele>36.404</ele>
<time>2015-12-04T21:01:40.229Z</time>
</trkpt>
<trkpt lat="-27.5590326" lon="152.9387268">
<ele>35.888</ele>
<time>2015-12-04T21:01:43.402Z</time>
</trkpt>
<trkpt lat="-27.5590618" lon="152.9390419">
<ele>35.227</ele>
<time>2015-12-04T21:01:45.761Z</time>
</trkpt>
<trkpt lat="-27.5591506" lon="152.9395296">
<ele>34.697</ele>
<time>2015-12-04T21:01:48.955Z</time>
</trkpt>
<trkpt lat="-27.5592129" lon="152.9400290">
<ele>34.564</ele>
<time>2015-12-04T21:01:52.133Z</time>
</trkpt>
<trkpt lat="-27.5592411" lon="152.9403210">
<ele>34.735</ele>
<time>2015-12-04T21:01:54.150Z</time>
</trkpt>
<trkpt lat="-27.5592656" lon="152.9407456">
<ele>34.793</ele>
<time>2015-12-04T21:01:57.373Z</time>
</trkpt>
<trkpt lat="-27.5592791" lon="152.9410998">
<ele>34.303</ele>
<time>2015-12-04T21:02:00.550Z</time>
</trkpt>
<trkpt lat="-27.5592596" lon="152.9413170">
<ele>33.393</ele>
<time>2015-12-04T21:02:02.741Z</time>
</trkpt>
<trkpt lat="-27.5590214" lon="152.9414458">
<ele>32.647</ele>
<time>2015-12-04T21:02:05.290Z</time>
</trkpt>
<trkpt lat="-27.5587747" lon="152.9414142">
<ele>32.683</ele>
<time>2015-12-04T21:02:07.134Z</time>
</trkpt>
<trkpt lat="-27.5583741" lon="152.9412159">
<ele>33.717</ele>
<time>2015-12-04T21:02:10.253Z</time>
</trkpt>
<trkpt lat="-27.5580969" lon="152.9408590">
<ele>35.134</ele>
<time>2015-12-04T21:02:13.463Z</time>
</trkpt>
<trkpt lat="-27.5580489" lon="152.9405870">
<ele>35.592</ele>
<time>2015-12-04T21:02:15.438Z</time>
</trkpt>
<trkpt lat="-27.5582106" lon="152.9402086">
<ele>34.125</ele>
<time>2015-12-04T21:02:18.189Z</time>
</trkpt>
<trkpt lat="-27.5586229" lon="152.9400168">
<ele>31.457</ele>
<time>2015-12-04T21:02:20.993Z</time>
</trkpt>
<trkpt lat="-27.5590077" lon="152.9399862">
<ele>29.482</ele>
<time>2015-12-04T21:02:22.975Z</time>
</trkpt>
<trkpt lat="-27.5596064" lon="152.9400188">
<ele>29.293</ele>
<time>2015-12-04T21:02:25.931Z</time>
</trkpt>
<trkpt lat="-27.5600164" lon="152.9400930">
<ele>30.656</ele>
<time>2015-12-04T21:02:27.861Z</time>
</trkpt>
<trkpt lat="-27.5606356" lon="152.9402991">
<ele>32.532</ele>
<time>2015-12-04T21:02:30.801Z</time>
</trkpt>
<trkpt lat="-27.5610390" lon="152.9404754">
<ele>33.949</ele>
<time>2015-12-04T21:02:32.730Z</time>
</trkpt>
<trkpt lat="-27.5614676" lon="152.9406827">
<ele>34.585</ele>
<time>2015-12-04T21:02:34.774Z</time>
</trkpt>
<trkpt lat="-27.5622071" lon="152.9409380">
<ele>34.486</ele>
<time>2015-12-04T21:02:38.079Z</time>
</trkpt>
<trkpt lat="-27.5626846" lon="152.9411721">
<ele>33.665</ele>
<time>2015-12-04T21:02:40.221Z</time>
</trkpt>
<trkpt lat="-27.5633704" lon="152.9415303">
<ele>31.465</ele>
<time>2015-12-04T21:02:43.272Z</time>
</trkpt>
<trkpt lat="-27.5638117" lon="152.9417908">
<ele>27.877</ele>
<time>2015-12-04T21:02:45.226Z</time>
</trkpt>
<trkpt lat="-27.5645218" lon="152.9421305">
<ele>24.222</ele>
<time>2015-12-04T21:02:48.267Z</time>
</trkpt>
<trkpt lat="-27.5652083" lon="152.9424570">
<ele>21.440</ele>
<time>2015-12-04T21:02:51.302Z</time>
</trkpt>
<trkpt lat="-27.5656534" lon="152.9426729">
<ele>19.269</ele>
<time>2015-12-04T21:02:53.345Z</time>
</trkpt>
<trkpt lat="-27.5662878" lon="152.9429933">
<ele>17.483</ele>
<time>2015-12-04T21:02:56.307Z</time>
</trkpt>
<trkpt lat="-27.5669481" lon="152.9432777">
<ele>16.156</ele>
<time>2015-12-04T21:02:59.320Z</time>
</trkpt>
<trkpt lat="-27.5676246" lon="152.9435171">
<ele>15.568</ele>
<time>2015-12-04T21:03:02.359Z</time>
</trkpt>
<trkpt lat="-27.5682859" lon="152.9437260">
<ele>15.896</ele>
<time>2015-12-04T21:03:05.346Z</time>
</trkpt>
<trkpt lat="-27.5689524" lon="152.9438874">
<ele>17.293</ele>
<time>2015-12-04T21:03:08.329Z</time>
</trkpt>
<trkpt lat="-27.5693947" lon="152.9439806">
<ele>19.593</ele>
<time>2015-12-04T21:03:10.267Z</time>
</trkpt>
<trkpt lat="-27.5698539" lon="152.9440598">
<ele>22.119</ele>
<time>2015-12-04T21:03:12.236Z</time>
</trkpt>
<trkpt lat="-27.5705672" lon="152.9441889">
<ele>24.101</ele>
<time>2015-12-04T21:03:15.348Z</time>
</trkpt>
<trkpt lat="-27.5710171" lon="152.9442559">
<ele>25.348</ele>
<time>2015-12-04T21:03:17.377Z</time>
</trkpt>
<trkpt lat="-27.5714686" lon="152.9443310">
<ele>26.089</ele>
<time>2015-12-04T21:03:19.415Z</time>
</trkpt>
<trkpt lat="-27.5721321" lon="152.9444575">
<ele>26.544</ele>
<time>2015-12-04T21:03:22.359Z</time>
</trkpt>
<trkpt lat="-27.5725760" lon="152.9445408">
<ele>26.790</ele>
<time>2015-12-04T21:03:24.305Z</time>
</trkpt>
<trkpt lat="-27.5732582" lon="152.9446397">
<ele>26.795</ele>
<time>2015-12-04T21:03:27.280Z</time>
</trkpt>
<trkpt lat="-27.5736503" lon="152.9446983">
<ele>26.444</ele>
<time>2015-12-04T21:03:28.984Z</time>
</trkpt>
<trkpt lat="-27.5744205" lon="152.9448148">
<ele>25.663</ele>
<time>2015-12-04T21:03:32.314Z</time>
</trkpt>
<trkpt lat="-27.5751138" lon="152.9449167">
<ele>24.723</ele>
<time>2015-12-04T21:03:35.351Z</time>
</trkpt>
<trkpt lat="-27.5755631" lon="152.9449794">
<ele>23.869</ele>
<time>2015-12-04T21:03:37.392Z</time>
</trkpt>
<trkpt lat="-27.5760023" lon="152.9450190">
<ele>22.872</ele>
<time>2015-12-04T21:03:39.406Z</time>
</trkpt>
<trkpt lat="-27.5766520" lon="152.9450954">
<ele>21.550</ele>
<time>2015-12-04T21:03:42.374Z</time>
</trkpt>
<trkpt lat="-27.5770870" lon="152.9450815">
<ele>20.284</ele>
<time>2015-12-04T21:03:44.344Z</time>
</trkpt>
<trkpt lat="-27.5777344" lon="152.9449473">
<ele>19.346</ele>
<time>2015-12-04T21:03:47.334Z</time>
</trkpt>
<trkpt lat="-27.5783596" lon="152.9447116">
<ele>18.228</ele>
<time>2015-12-04T21:03:50.203Z</time>
</trkpt>
<trkpt lat="-27.5788486" lon="152.9444390">
<ele>16.705</ele>
<time>2015-12-04T21:03:52.442Z</time>
</trkpt>
<trkpt lat="-27.5793503" lon="152.9438604">
<ele>15.444</ele>
<time>2015-12-04T21:03:55.447Z</time>
</trkpt>
<trkpt lat="-27.5796114" lon="152.9434376">
<ele>14.903</ele>
<time>2015-12-04T21:03:57.412Z</time>
</trkpt>
<trkpt lat="-27.5799316" lon="152.9427559">
<ele>14.644</ele>
<time>2015-12-04T21:04:00.411Z</time>
</trkpt>
<trkpt lat="-27.5800854" lon="152.9422789">
<ele>14.133</ele>
<time>2015-12-04T21:04:02.416Z</time>
</trkpt>
<trkpt lat="-27.5802076" lon="152.9415358">
<ele>13.116</ele>
<time>2015-12-04T21:04:05.405Z</time>
</trkpt>
<trkpt lat="-27.5802004" lon="152.9407840">
<ele>11.756</ele>
<time>2015-12-04T21:04:08.299Z</time>
</trkpt>
<trkpt lat="-27.5800516" lon="152.9399799">
<ele>10.645</ele>
<time>2015-12-04T21:04:11.392Z</time>
</trkpt>
<trkpt lat="-27.5799917" lon="152.9394626">
<ele>10.418</ele>
<time>2015-12-04T21:04:13.395Z</time>
</trkpt>
<trkpt lat="-27.5800240" lon="152.9387005">
<ele>11.390</ele>
<time>2015-12-04T21:04:16.354Z</time>
</trkpt>
<trkpt lat="-27.5801228" lon="152.9381950">
<ele>13.459</ele>
<time>2015-12-04T21:04:18.342Z</time>
</trkpt>
<trkpt lat="-27.5803539" lon="152.9374479">
<ele>16.044</ele>
<time>2015-12-04T21:04:21.350Z</time>
</trkpt>
<trkpt lat="-27.5805552" lon="152.9369901">
<ele>18.467</ele>
<time>2015-12-04T21:04:23.259Z</time>
</trkpt>
<trkpt lat="-27.5807929" lon="152.9365275">
<ele>20.327</ele>
<time>2015-12-04T21:04:25.198Z</time>
</trkpt>
<trkpt lat="-27.5811729" lon="152.9358097">
<ele>21.523</ele>
<time>2015-12-04T21:04:28.200Z</time>
</trkpt>
<trkpt lat="-27.5814376" lon="152.9353254">
<ele>22.478</ele>
<time>2015-12-04T21:04:30.283Z</time>
</trkpt>
<trkpt lat="-27.5818455" lon="152.9346599">
<ele>23.587</ele>
<time>2015-12-04T21:04:33.278Z</time>
</trkpt>
<trkpt lat="-27.5821174" lon="152.9342197">
<ele>24.407</ele>
<time>2015-12-04T21:04:35.235Z</time>
</trkpt>
<trkpt lat="-27.5824052" lon="152.9337566">
<ele>24.453</ele>
<time>2015-12-04T21:04:37.263Z</time>
</trkpt>
<trkpt lat="-27.5828414" lon="152.9330773">
<ele>24.046</ele>
<time>2015-12-04T21:04:40.285Z</time>
</trkpt>
<trkpt lat="-27.5831269" lon="152.9326251">
<ele>23.599</ele>
<time>2015-12-04T21:04:42.327Z</time>
</trkpt>
<trkpt lat="-27.5835303" lon="152.9319840">
<ele>23.227</ele>
<time>2015-12-04T21:04:45.251Z</time>
</trkpt>
<trkpt lat="-27.5838199" lon="152.9315513">
<ele>22.692</ele>
<time>2015-12-04T21:04:47.264Z</time>
</trkpt>
<trkpt lat="-27.5841096" lon="152.9311352">
<ele>21.746</ele>
<time>2015-12-04T21:04:49.219Z</time>
</trkpt>
<trkpt lat="-27.5845285" lon="152.9305922">
<ele>20.609</ele>
<time>2015-12-04T21:04:51.839Z</time>
</trkpt>
<trkpt lat="-27.5850890" lon="152.9299235">
<ele>19.639</ele>
<time>2015-12-04T21:04:55.111Z</time>
</trkpt>
<trkpt lat="-27.5854500" lon="152.9295285">
<ele>18.857</ele>
<time>2015-12-04T21:04:57.096Z</time>
</trkpt>
<trkpt lat="-27.5860191" lon="152.9289647">
<ele>18.094</ele>
<time>2015-12-04T21:05:00.099Z</time>
</trkpt>
<trkpt lat="-27.5864121" lon="152.9286203">
<ele>17.143</ele>
<time>2015-12-04T21:05:02.110Z</time>
</trkpt>
<trkpt lat="-27.5867925" lon="152.9283088">
<ele>15.769</ele>
<time>2015-12-04T21:05:04.039Z</time>
</trkpt>
<trkpt lat="-27.5873930" lon="152.9278571">
<ele>13.993</ele>
<time>2015-12-04T21:05:07.032Z</time>
</trkpt>
<trkpt lat="-27.5877933" lon="152.9275857">
<ele>12.298</ele>
<time>2015-12-04T21:05:08.982Z</time>
</trkpt>
<trkpt lat="-27.5884374" lon="152.9271443">
<ele>11.119</ele>
<time>2015-12-04T21:05:12.151Z</time>
</trkpt>
<trkpt lat="-27.5888424" lon="152.9268628">
<ele>10.352</ele>
<time>2015-12-04T21:05:14.172Z</time>
</trkpt>
<trkpt lat="-27.5894253" lon="152.9264593">
<ele>9.643</ele>
<time>2015-12-04T21:05:17.066Z</time>
</trkpt>
<trkpt lat="-27.5900440" lon="152.9260389">
<ele>8.976</ele>
<time>2015-12-04T21:05:20.123Z</time>
</trkpt>
<trkpt lat="-27.5906307" lon="152.9256553">
<ele>8.809</ele>
<time>2015-12-04T21:05:23.044Z</time>
</trkpt>
<trkpt lat="-27.5910189" lon="152.9253832">
<ele>9.330</ele>
<time>2015-12-04T21:05:25.027Z</time>
</trkpt>
<trkpt lat="-27.5914120" lon="152.9251081">
<ele>10.008</ele>
<time>2015-12-04T21:05:27.020Z</time>
</trkpt>
<trkpt lat="-27.5918143" lon="152.9248127">
<ele>10.277</ele>
<time>2015-12-04T21:05:29.099Z</time>
</trkpt>
<trkpt lat="-27.5922009" lon="152.9245674">
<ele>10.074</ele>
<time>2015-12-04T21:05:31.011Z</time>
</trkpt>
<trkpt lat="-27.5926033" lon="152.9242865">
<ele>9.718</ele>
<time>2015-12-04T21:05:33.004Z</time>
</trkpt>
<trkpt lat="-27.5930280" lon="152.9239846">
<ele>9.739</ele>
<time>2015-12-04T21:05:35.073Z</time>
</trkpt>
<trkpt lat="-27.5936567" lon="152.9235802">
<ele>10.657</ele>
<time>2015-12-04T21:05:38.010Z</time>
</trkpt>
<trkpt lat="-27.5943271" lon="152.9231707">
<ele>12.452</ele>
<time>2015-12-04T21:05:41.045Z</time>
</trkpt>
<trkpt lat="-27.5947606" lon="152.9229146">
<ele>14.611</ele>
<time>2015-12-04T21:05:42.977Z</time>
</trkpt>
<trkpt lat="-27.5954394" lon="152.9225299">
<ele>16.618</ele>
<time>2015-12-04T21:05:45.978Z</time>
</trkpt>
<trkpt lat="-27.5961362" lon="152.9221787">
<ele>18.024</ele>
<time>2015-12-04T21:05:49.015Z</time>
</trkpt>
<trkpt lat="-27.5965877" lon="152.9219549">
<ele>18.605</ele>
<time>2015-12-04T21:05:51.029Z</time>
</trkpt>
<trkpt lat="-27.5972615" lon="152.9216596">
<ele>18.291</ele>
<time>2015-12-04T21:05:53.991Z</time>
</trkpt>
<trkpt lat="-27.5979512" lon="152.9213761">
<ele>17.206</ele>
<time>2015-12-04T21:05:56.973Z</time>
</trkpt>
<trkpt lat="-27.5986643" lon="152.9211127">
<ele>16.064</ele>
<time>2015-12-04T21:05:59.999Z</time>
</trkpt>
<trkpt lat="-27.5991338" lon="152.9209742">
<ele>15.518</ele>
<time>2015-12-04T21:06:01.961Z</time>
</trkpt>
<trkpt lat="-27.5998393" lon="152.9207469">
<ele>15.502</ele>
<time>2015-12-04T21:06:04.933Z</time>
</trkpt>
<trkpt lat="-27.6005510" lon="152.9205368">
<ele>15.786</ele>
<time>2015-12-04T21:06:07.936Z</time>
</trkpt>
<trkpt lat="-27.6012424" lon="152.9203132">
<ele>16.229</ele>
<time>2015-12-04T21:06:10.904Z</time>
</trkpt>
<trkpt lat="-27.6019402" lon="152.9200422">
<ele>16.651</ele>
<time>2015-12-04T21:06:13.995Z</time>
</trkpt>
<trkpt lat="-27.6023401" lon="152.9198349">
<ele>17.067</ele>
<time>2015-12-04T21:06:15.844Z</time>
</trkpt>
<trkpt lat="-27.6027731" lon="152.9195761">
<ele>17.504</ele>
<time>2015-12-04T21:06:17.868Z</time>
</trkpt>
<trkpt lat="-27.6033997" lon="152.9191427">
<ele>17.939</ele>
<time>2015-12-04T21:06:20.879Z</time>
</trkpt>
<trkpt lat="-27.6037929" lon="152.9188204">
<ele>18.946</ele>
<time>2015-12-04T21:06:22.850Z</time>
</trkpt>
<trkpt lat="-27.6043615" lon="152.9182552">
<ele>21.018</ele>
<time>2015-12-04T21:06:25.930Z</time>
</trkpt>
<trkpt lat="-27.6047016" lon="152.9178784">
<ele>23.555</ele>
<time>2015-12-04T21:06:27.902Z</time>
</trkpt>
<trkpt lat="-27.6051696" lon="152.9172425">
<ele>25.537</ele>
<time>2015-12-04T21:06:30.940Z</time>
</trkpt>
<trkpt lat="-27.6054431" lon="152.9168221">
<ele>26.467</ele>
<time>2015-12-04T21:06:32.854Z</time>
</trkpt>
<trkpt lat="-27.6057028" lon="152.9163703">
<ele>26.013</ele>
<time>2015-12-04T21:06:34.822Z</time>
</trkpt>
<trkpt lat="-27.6060606" lon="152.9156419">
<ele>24.297</ele>
<time>2015-12-04T21:06:37.832Z</time>
</trkpt>
<trkpt lat="-27.6063943" lon="152.9149116">
<ele>22.306</ele>
<time>2015-12-04T21:06:40.760Z</time>
</trkpt>
<trkpt lat="-27.6066222" lon="152.9144085">
<ele>20.894</ele>
<time>2015-12-04T21:06:42.739Z</time>
</trkpt>
<trkpt lat="-27.6069874" lon="152.9136257">
<ele>20.099</ele>
<time>2015-12-04T21:06:45.804Z</time>
</trkpt>
<trkpt lat="-27.6072170" lon="152.9131096">
<ele>19.575</ele>
<time>2015-12-04T21:06:47.807Z</time>
</trkpt>
<trkpt lat="-27.6075637" lon="152.9123549">
<ele>18.783</ele>
<time>2015-12-04T21:06:50.790Z</time>
</trkpt>
<trkpt lat="-27.6078039" lon="152.9118672">
<ele>17.333</ele>
<time>2015-12-04T21:06:52.801Z</time>
</trkpt>
<trkpt lat="-27.6081527" lon="152.9111424">
<ele>15.361</ele>
<time>2015-12-04T21:06:55.800Z</time>
</trkpt>
<trkpt lat="-27.6083625" lon="152.9106407">
<ele>13.628</ele>
<time>2015-12-04T21:06:57.840Z</time>
</trkpt>
<trkpt lat="-27.6085529" lon="152.9101422">
<ele>12.586</ele>
<time>2015-12-04T21:06:59.853Z</time>
</trkpt>
<trkpt lat="-27.6087873" lon="152.9093938">
<ele>12.040</ele>
<time>2015-12-04T21:07:02.807Z</time>
</trkpt>
<trkpt lat="-27.6089188" lon="152.9088882">
<ele>11.794</ele>
<time>2015-12-04T21:07:04.761Z</time>
</trkpt>
<trkpt lat="-27.6090801" lon="152.9080795">
<ele>11.587</ele>
<time>2015-12-04T21:07:07.821Z</time>
</trkpt>
<trkpt lat="-27.6091426" lon="152.9075532">
<ele>11.198</ele>
<time>2015-12-04T21:07:09.774Z</time>
</trkpt>
<trkpt lat="-27.6092031" lon="152.9067316">
<ele>10.765</ele>
<time>2015-12-04T21:07:12.798Z</time>
</trkpt>
<trkpt lat="-27.6092340" lon="152.9061971">
<ele>10.318</ele>
<time>2015-12-04T21:07:14.767Z</time>
</trkpt>
<trkpt lat="-27.6092704" lon="152.9053886">
<ele>9.761</ele>
<time>2015-12-04T21:07:17.766Z</time>
</trkpt>
<trkpt lat="-27.6093151" lon="152.9045862">
<ele>9.271</ele>
<time>2015-12-04T21:07:20.769Z</time>
</trkpt>
<trkpt lat="-27.6093533" lon="152.9040529">
<ele>8.964</ele>
<time>2015-12-04T21:07:22.776Z</time>
</trkpt>
<trkpt lat="-27.6093980" lon="152.9032749">
<ele>8.708</ele>
<time>2015-12-04T21:07:25.698Z</time>
</trkpt>
<trkpt lat="-27.6094026" lon="152.9027440">
<ele>8.496</ele>
<time>2015-12-04T21:07:27.684Z</time>
</trkpt>
<trkpt lat="-27.6093720" lon="152.9019490">
<ele>8.436</ele>
<time>2015-12-04T21:07:30.648Z</time>
</trkpt>
<trkpt lat="-27.6092744" lon="152.9011439">
<ele>8.632</ele>
<time>2015-12-04T21:07:33.623Z</time>
</trkpt>
<trkpt lat="-27.6091286" lon="152.9003227">
<ele>9.207</ele>
<time>2015-12-04T21:07:36.615Z</time>
</trkpt>
<trkpt lat="-27.6089846" lon="152.8997820">
<ele>10.249</ele>
<time>2015-12-04T21:07:38.613Z</time>
</trkpt>
<trkpt lat="-27.6088223" lon="152.8992530">
<ele>11.734</ele>
<time>2015-12-04T21:07:40.609Z</time>
</trkpt>
<trkpt lat="-27.6085364" lon="152.8984846">
<ele>13.235</ele>
<time>2015-12-04T21:07:43.596Z</time>
</trkpt>
<trkpt lat="-27.6082083" lon="152.8977364">
<ele>13.939</ele>
<time>2015-12-04T21:07:46.574Z</time>
</trkpt>
<trkpt lat="-27.6077691" lon="152.8969977">
<ele>13.455</ele>
<time>2015-12-04T21:07:49.722Z</time>
</trkpt>
<trkpt lat="-27.6074837" lon="152.8965901">
<ele>12.237</ele>
<time>2015-12-04T21:07:51.593Z</time>
</trkpt>
<trkpt lat="-27.6069966" lon="152.8959681">
<ele>11.192</ele>
<time>2015-12-04T21:07:54.607Z</time>
</trkpt>
<trkpt lat="-27.6066609" lon="152.8956123">
<ele>10.877</ele>
<time>2015-12-04T21:07:56.469Z</time>
</trkpt>
<trkpt lat="-27.6061114" lon="152.8950163">
<ele>11.289</ele>
<time>2015-12-04T21:07:59.505Z</time>
</trkpt>
<trkpt lat="-27.6057716" lon="152.8946152">
<ele>12.482</ele>
<time>2015-12-04T21:08:01.459Z</time>
</trkpt>
<trkpt lat="-27.6054550" lon="152.8941698">
<ele>14.231</ele>
<time>2015-12-04T21:08:03.494Z</time>
</trkpt>
<trkpt lat="-27.6050434" lon="152.8934809">
<ele>15.454</ele>
<time>2015-12-04T21:08:06.482Z</time>
</trkpt>
<trkpt lat="-27.6047930" lon="152.8929961">
<ele>15.504</ele>
<time>2015-12-04T21:08:08.529Z</time>
</trkpt>
<trkpt lat="-27.6045666" lon="152.8925019">
<ele>14.976</ele>
<time>2015-12-04T21:08:10.570Z</time>
</trkpt>
<trkpt lat="-27.6042624" lon="152.8917762">
<ele>14.909</ele>
<time>2015-12-04T21:08:13.518Z</time>
</trkpt>
<trkpt lat="-27.6040397" lon="152.8912860">
<ele>15.616</ele>
<time>2015-12-04T21:08:15.546Z</time>
</trkpt>
<trkpt lat="-27.6038343" lon="152.8908273">
<ele>16.526</ele>
<time>2015-12-04T21:08:17.440Z</time>
</trkpt>
<trkpt lat="-27.6036153" lon="152.8903342">
<ele>17.101</ele>
<time>2015-12-04T21:08:19.462Z</time>
</trkpt>
<trkpt lat="-27.6034052" lon="152.8898472">
<ele>17.319</ele>
<time>2015-12-04T21:08:21.440Z</time>
</trkpt>
<trkpt lat="-27.6031970" lon="152.8893462">
<ele>17.333</ele>
<time>2015-12-04T21:08:23.464Z</time>
</trkpt>
<trkpt lat="-27.6028881" lon="152.8885928">
<ele>17.315</ele>
<time>2015-12-04T21:08:26.484Z</time>
</trkpt>
<trkpt lat="-27.6027071" lon="152.8880654">
<ele>17.342</ele>
<time>2015-12-04T21:08:28.509Z</time>
</trkpt>
<trkpt lat="-27.6025218" lon="152.8875589">
<ele>17.721</ele>
<time>2015-12-04T21:08:30.482Z</time>
</trkpt>
<trkpt lat="-27.6023344" lon="152.8870478">
<ele>18.653</ele>
<time>2015-12-04T21:08:32.480Z</time>
</trkpt>
<trkpt lat="-27.6020744" lon="152.8862744">
<ele>19.862</ele>
<time>2015-12-04T21:08:35.456Z</time>
</trkpt>
<trkpt lat="-27.6019171" lon="152.8857481">
<ele>20.912</ele>
<time>2015-12-04T21:08:37.442Z</time>
</trkpt>
<trkpt lat="-27.6017020" lon="152.8849483">
<ele>21.629</ele>
<time>2015-12-04T21:08:40.427Z</time>
</trkpt>
<trkpt lat="-27.6015839" lon="152.8844130">
<ele>21.861</ele>
<time>2015-12-04T21:08:42.394Z</time>
</trkpt>
<trkpt lat="-27.6014347" lon="152.8835957">
<ele>21.554</ele>
<time>2015-12-04T21:08:45.385Z</time>
</trkpt>
<trkpt lat="-27.6013435" lon="152.8830614">
<ele>20.973</ele>
<time>2015-12-04T21:08:47.378Z</time>
</trkpt>
<trkpt lat="-27.6012787" lon="152.8825366">
<ele>20.463</ele>
<time>2015-12-04T21:08:49.351Z</time>
</trkpt>
<trkpt lat="-27.6012166" lon="152.8820117">
<ele>19.695</ele>
<time>2015-12-04T21:08:51.315Z</time>
</trkpt>
<trkpt lat="-27.6011599" lon="152.8812047">
<ele>17.913</ele>
<time>2015-12-04T21:08:54.281Z</time>
</trkpt>
<trkpt lat="-27.6011427" lon="152.8806503">
<ele>15.304</ele>
<time>2015-12-04T21:08:56.267Z</time>
</trkpt>
<trkpt lat="-27.6011333" lon="152.8800909">
<ele>13.068</ele>
<time>2015-12-04T21:08:58.250Z</time>
</trkpt>
<trkpt lat="-27.6011452" lon="152.8795244">
<ele>11.885</ele>
<time>2015-12-04T21:09:00.257Z</time>
</trkpt>
<trkpt lat="-27.6011767" lon="152.8786918">
<ele>11.510</ele>
<time>2015-12-04T21:09:03.223Z</time>
</trkpt>
<trkpt lat="-27.6012094" lon="152.8781411">
<ele>11.401</ele>
<time>2015-12-04T21:09:05.216Z</time>
</trkpt>
<trkpt lat="-27.6012636" lon="152.8773280">
<ele>11.046</ele>
<time>2015-12-04T21:09:08.187Z</time>
</trkpt>
<trkpt lat="-27.6013909" lon="152.8765190">
<ele>10.406</ele>
<time>2015-12-04T21:09:11.194Z</time>
</trkpt>
<trkpt lat="-27.6014410" lon="152.8759811">
<ele>9.861</ele>
<time>2015-12-04T21:09:13.148Z</time>
</trkpt>
<trkpt lat="-27.6016053" lon="152.8751472">
<ele>9.790</ele>
<time>2015-12-04T21:09:16.189Z</time>
</trkpt>
<trkpt lat="-27.6017977" lon="152.8743222">
<ele>10.432</ele>
<time>2015-12-04T21:09:19.186Z</time>
</trkpt>
<trkpt lat="-27.6020347" lon="152.8735104">
<ele>11.498</ele>
<time>2015-12-04T21:09:22.198Z</time>
</trkpt>
<trkpt lat="-27.6022102" lon="152.8729915">
<ele>12.385</ele>
<time>2015-12-04T21:09:24.201Z</time>
</trkpt>
<trkpt lat="-27.6024896" lon="152.8722419">
<ele>12.926</ele>
<time>2015-12-04T21:09:27.184Z</time>
</trkpt>
<trkpt lat="-27.6028013" lon="152.8715141">
<ele>13.320</ele>
<time>2015-12-04T21:09:30.187Z</time>
</trkpt>
<trkpt lat="-27.6029986" lon="152.8710320">
<ele>13.688</ele>
<time>2015-12-04T21:09:32.166Z</time>
</trkpt>
<trkpt lat="-27.6032820" lon="152.8702973">
<ele>14.122</ele>
<time>2015-12-04T21:09:35.152Z</time>
</trkpt>
<trkpt lat="-27.6034533" lon="152.8697967">
<ele>14.591</ele>
<time>2015-12-04T21:09:37.131Z</time>
</trkpt>
<trkpt lat="-27.6037068" lon="152.8690397">
<ele>15.113</ele>
<time>2015-12-04T21:09:40.068Z</time>
</trkpt>
<trkpt lat="-27.6039594" lon="152.8682381">
<ele>16.088</ele>
<time>2015-12-04T21:09:43.095Z</time>
</trkpt>
<trkpt lat="-27.6041210" lon="152.8676860">
<ele>17.974</ele>
<time>2015-12-04T21:09:45.139Z</time>
</trkpt>
<trkpt lat="-27.6043387" lon="152.8668899">
<ele>20.279</ele>
<time>2015-12-04T21:09:48.040Z</time>
</trkpt>
<trkpt lat="-27.6044720" lon="152.8663153">
<ele>22.820</ele>
<time>2015-12-04T21:09:50.073Z</time>
</trkpt>
<trkpt lat="-27.6045441" lon="152.8657199">
<ele>25.855</ele>
<time>2015-12-04T21:09:52.121Z</time>
</trkpt>
<trkpt lat="-27.6045676" lon="152.8648793">
<ele>28.387</ele>
<time>2015-12-04T21:09:55.020Z</time>
</trkpt>
<trkpt lat="-27.6044950" lon="152.8640440">
<ele>28.993</ele>
<time>2015-12-04T21:09:57.969Z</time>
</trkpt>
<trkpt lat="-27.6044109" lon="152.8634931">
<ele>27.854</ele>
<time>2015-12-04T21:09:59.969Z</time>
</trkpt>
<trkpt lat="-27.6042022" lon="152.8627157">
<ele>25.980</ele>
<time>2015-12-04T21:10:02.919Z</time>
</trkpt>
<trkpt lat="-27.6040230" lon="152.8622100">
<ele>24.223</ele>
<time>2015-12-04T21:10:04.911Z</time>
</trkpt>
<trkpt lat="-27.6036948" lon="152.8614738">
<ele>23.065</ele>
<time>2015-12-04T21:10:07.923Z</time>
</trkpt>
<trkpt lat="-27.6034270" lon="152.8610062">
<ele>22.330</ele>
<time>2015-12-04T21:10:09.956Z</time>
</trkpt>
<trkpt lat="-27.6029840" lon="152.8603514">
<ele>21.510</ele>
<time>2015-12-04T21:10:12.924Z</time>
</trkpt>
<trkpt lat="-27.6024483" lon="152.8597531">
<ele>20.482</ele>
<time>2015-12-04T21:10:15.907Z</time>
</trkpt>
<trkpt lat="-27.6020597" lon="152.8593584">
<ele>18.807</ele>
<time>2015-12-04T21:10:17.943Z</time>
</trkpt>
<trkpt lat="-27.6014897" lon="152.8588033">
<ele>16.310</ele>
<time>2015-12-04T21:10:20.899Z</time>
</trkpt>
<trkpt lat="-27.6009415" lon="152.8582357">
<ele>14.184</ele>
<time>2015-12-04T21:10:23.876Z</time>
</trkpt>
<trkpt lat="-27.6003874" lon="152.8576488">
<ele>13.335</ele>
<time>2015-12-04T21:10:26.937Z</time>
</trkpt>
<trkpt lat="-27.6000299" lon="152.8572811">
<ele>13.344</ele>
<time>2015-12-04T21:10:28.905Z</time>
</trkpt>
<trkpt lat="-27.5995083" lon="152.8567177">
<ele>13.604</ele>
<time>2015-12-04T21:10:31.870Z</time>
</trkpt>
<trkpt lat="-27.5989880" lon="152.8561295">
<ele>14.142</ele>
<time>2015-12-04T21:10:34.878Z</time>
</trkpt>
<trkpt lat="-27.5986897" lon="152.8557125">
<ele>15.371</ele>
<time>2015-12-04T21:10:36.800Z</time>
</trkpt>
<trkpt lat="-27.5982851" lon="152.8550154">
<ele>17.340</ele>
<time>2015-12-04T21:10:39.801Z</time>
</trkpt>
<trkpt lat="-27.5979708" lon="152.8542815">
<ele>19.779</ele>
<time>2015-12-04T21:10:42.766Z</time>
</trkpt>
<trkpt lat="-27.5977876" lon="152.8537793">
<ele>22.494</ele>
<time>2015-12-04T21:10:44.742Z</time>
</trkpt>
<trkpt lat="-27.5976329" lon="152.8532569">
<ele>25.087</ele>
<time>2015-12-04T21:10:46.744Z</time>
</trkpt>
<trkpt lat="-27.5975216" lon="152.8527291">
<ele>27.286</ele>
<time>2015-12-04T21:10:48.726Z</time>
</trkpt>
<trkpt lat="-27.5974460" lon="152.8522016">
<ele>29.039</ele>
<time>2015-12-04T21:10:50.690Z</time>
</trkpt>
<trkpt lat="-27.5974020" lon="152.8513874">
<ele>30.394</ele>
<time>2015-12-04T21:10:53.690Z</time>
</trkpt>
<trkpt lat="-27.5973970" lon="152.8508433">
<ele>31.675</ele>
<time>2015-12-04T21:10:55.681Z</time>
</trkpt>
<trkpt lat="-27.5973582" lon="152.8500301">
<ele>33.002</ele>
<time>2015-12-04T21:10:58.649Z</time>
</trkpt>
<trkpt lat="-27.5972911" lon="152.8492134">
<ele>34.215</ele>
<time>2015-12-04T21:11:01.617Z</time>
</trkpt>
<trkpt lat="-27.5972416" lon="152.8486633">
<ele>35.552</ele>
<time>2015-12-04T21:11:03.606Z</time>
</trkpt>
<trkpt lat="-27.5971573" lon="152.8478541">
<ele>36.986</ele>
<time>2015-12-04T21:11:06.562Z</time>
</trkpt>
<trkpt lat="-27.5970486" lon="152.8470617">
<ele>37.717</ele>
<time>2015-12-04T21:11:09.524Z</time>
</trkpt>
<trkpt lat="-27.5969286" lon="152.8462638">
<ele>37.342</ele>
<time>2015-12-04T21:11:12.509Z</time>
</trkpt>
<trkpt lat="-27.5968300" lon="152.8457190">
<ele>36.444</ele>
<time>2015-12-04T21:11:14.523Z</time>
</trkpt>
<trkpt lat="-27.5966901" lon="152.8449070">
<ele>35.702</ele>
<time>2015-12-04T21:11:17.500Z</time>
</trkpt>
<trkpt lat="-27.5965910" lon="152.8443621">
<ele>35.334</ele>
<time>2015-12-04T21:11:19.497Z</time>
</trkpt>
<trkpt lat="-27.5964336" lon="152.8435461">
<ele>35.606</ele>
<time>2015-12-04T21:11:22.483Z</time>
</trkpt>
<trkpt lat="-27.5962651" lon="152.8427261">
<ele>36.542</ele>
<time>2015-12-04T21:11:25.485Z</time>
</trkpt>
<trkpt lat="-27.5961667" lon="152.8421855">
<ele>37.495</ele>
<time>2015-12-04T21:11:27.462Z</time>
</trkpt>
<trkpt lat="-27.5960040" lon="152.8413843">
<ele>37.746</ele>
<time>2015-12-04T21:11:30.424Z</time>
</trkpt>
<trkpt lat="-27.5959152" lon="152.8408489">
<ele>37.078</ele>
<time>2015-12-04T21:11:32.400Z</time>
</trkpt>
<trkpt lat="-27.5958051" lon="152.8400449">
<ele>35.441</ele>
<time>2015-12-04T21:11:35.371Z</time>
</trkpt>
<trkpt lat="-27.5957805" lon="152.8394872">
<ele>33.316</ele>
<time>2015-12-04T21:11:37.396Z</time>
</trkpt>
<trkpt lat="-27.5958246" lon="152.8386307">
<ele>31.483</ele>
<time>2015-12-04T21:11:40.448Z</time>
</trkpt>
<trkpt lat="-27.5959544" lon="152.8380704">
<ele>30.504</ele>
<time>2015-12-04T21:11:42.473Z</time>
</trkpt>
<trkpt lat="-27.5961712" lon="152.8372411">
<ele>30.299</ele>
<time>2015-12-04T21:11:45.500Z</time>
</trkpt>
<trkpt lat="-27.5964121" lon="152.8367449">
<ele>30.422</ele>
<time>2015-12-04T21:11:47.527Z</time>
</trkpt>
<trkpt lat="-27.5966536" lon="152.8363060">
<ele>30.586</ele>
<time>2015-12-04T21:11:49.437Z</time>
</trkpt>
<trkpt lat="-27.5969268" lon="152.8358891">
<ele>30.907</ele>
<time>2015-12-04T21:11:51.386Z</time>
</trkpt>
<trkpt lat="-27.5974178" lon="152.8353174">
<ele>31.698</ele>
<time>2015-12-04T21:11:54.389Z</time>
</trkpt>
<trkpt lat="-27.5979549" lon="152.8348325">
<ele>33.407</ele>
<time>2015-12-04T21:11:57.336Z</time>
</trkpt>
<trkpt lat="-27.5985731" lon="152.8343957">
<ele>35.691</ele>
<time>2015-12-04T21:12:00.413Z</time>
</trkpt>
<trkpt lat="-27.5990051" lon="152.8340900">
<ele>37.870</ele>
<time>2015-12-04T21:12:02.482Z</time>
</trkpt>
<trkpt lat="-27.5996252" lon="152.8336596">
<ele>39.901</ele>
<time>2015-12-04T21:12:05.388Z</time>
</trkpt>
<trkpt lat="-27.6000622" lon="152.8333726">
<ele>41.767</ele>
<time>2015-12-04T21:12:07.418Z</time>
</trkpt>
<trkpt lat="-27.6007065" lon="152.8329801">
<ele>43.026</ele>
<time>2015-12-04T21:12:10.370Z</time>
</trkpt>
<trkpt lat="-27.6011390" lon="152.8326933">
<ele>43.724</ele>
<time>2015-12-04T21:12:12.389Z</time>
</trkpt>
<trkpt lat="-27.6015692" lon="152.8324236">
<ele>44.203</ele>
<time>2015-12-04T21:12:14.375Z</time>
</trkpt>
<trkpt lat="-27.6022051" lon="152.8320230">
<ele>44.481</ele>
<time>2015-12-04T21:12:17.333Z</time>
</trkpt>
<trkpt lat="-27.6028555" lon="152.8316569">
<ele>43.906</ele>
<time>2015-12-04T21:12:20.306Z</time>
</trkpt>
<trkpt lat="-27.6035313" lon="152.8313601">
<ele>41.875</ele>
<time>2015-12-04T21:12:23.307Z</time>
</trkpt>
<trkpt lat="-27.6041958" lon="152.8310561">
<ele>39.057</ele>
<time>2015-12-04T21:12:26.311Z</time>
</trkpt>
<trkpt lat="-27.6046477" lon="152.8308763">
<ele>36.882</ele>
<time>2015-12-04T21:12:28.331Z</time>
</trkpt>
<trkpt lat="-27.6050954" lon="152.8307116">
<ele>36.075</ele>
<time>2015-12-04T21:12:30.328Z</time>
</trkpt>
<trkpt lat="-27.6055459" lon="152.8305335">
<ele>36.372</ele>
<time>2015-12-04T21:12:32.367Z</time>
</trkpt>
<trkpt lat="-27.6062716" lon="152.8302946">
<ele>37.387</ele>
<time>2015-12-04T21:12:35.488Z</time>
</trkpt>
<trkpt lat="-27.6067349" lon="152.8301201">
<ele>39.687</ele>
<time>2015-12-04T21:12:37.447Z</time>
</trkpt>
<trkpt lat="-27.6074155" lon="152.8298814">
<ele>43.355</ele>
<time>2015-12-04T21:12:40.375Z</time>
</trkpt>
<trkpt lat="-27.6078514" lon="152.8297144">
<ele>46.783</ele>
<time>2015-12-04T21:12:42.326Z</time>
</trkpt>
<trkpt lat="-27.6085057" lon="152.8294326">
<ele>48.835</ele>
<time>2015-12-04T21:12:45.318Z</time>
</trkpt>
<trkpt lat="-27.6091587" lon="152.8291554">
<ele>49.913</ele>
<time>2015-12-04T21:12:48.311Z</time>
</trkpt>
<trkpt lat="-27.6095848" lon="152.8289552">
<ele>50.935</ele>
<time>2015-12-04T21:12:50.305Z</time>
</trkpt>
<trkpt lat="-27.6100121" lon="152.8287411">
<ele>52.468</ele>
<time>2015-12-04T21:12:52.327Z</time>
</trkpt>
<trkpt lat="-27.6106454" lon="152.8283896">
<ele>54.482</ele>
<time>2015-12-04T21:12:55.325Z</time>
</trkpt>
<trkpt lat="-27.6110756" lon="152.8281468">
<ele>56.714</ele>
<time>2015-12-04T21:12:57.300Z</time>
</trkpt>
<trkpt lat="-27.6115335" lon="152.8278726">
<ele>58.954</ele>
<time>2015-12-04T21:12:59.369Z</time>
</trkpt>
<trkpt lat="-27.6121875" lon="152.8274589">
<ele>61.231</ele>
<time>2015-12-04T21:13:02.330Z</time>
</trkpt>
<trkpt lat="-27.6128331" lon="152.8270151">
<ele>63.758</ele>
<time>2015-12-04T21:13:05.337Z</time>
</trkpt>
<trkpt lat="-27.6132453" lon="152.8267096">
<ele>66.451</ele>
<time>2015-12-04T21:13:07.309Z</time>
</trkpt>
<trkpt lat="-27.6138553" lon="152.8262484">
<ele>68.860</ele>
<time>2015-12-04T21:13:10.279Z</time>
</trkpt>
<trkpt lat="-27.6142539" lon="152.8259170">
<ele>70.681</ele>
<time>2015-12-04T21:13:12.326Z</time>
</trkpt>
<trkpt lat="-27.6148430" lon="152.8254558">
<ele>71.920</ele>
<time>2015-12-04T21:13:15.354Z</time>
</trkpt>
<trkpt lat="-27.6154032" lon="152.8250224">
<ele>72.362</ele>
<time>2015-12-04T21:13:18.255Z</time>
</trkpt>
<trkpt lat="-27.6159882" lon="152.8245637">
<ele>71.919</ele>
<time>2015-12-04T21:13:21.235Z</time>
</trkpt>
<trkpt lat="-27.6165880" lon="152.8240922">
<ele>71.148</ele>
<time>2015-12-04T21:13:24.214Z</time>
</trkpt>
<trkpt lat="-27.6171943" lon="152.8236550">
<ele>70.538</ele>
<time>2015-12-04T21:13:27.126Z</time>
</trkpt>
<trkpt lat="-27.6176330" lon="152.8233864">
<ele>69.514</ele>
<time>2015-12-04T21:13:29.151Z</time>
</trkpt>
<trkpt lat="-27.6182777" lon="152.8229841">
<ele>67.250</ele>
<time>2015-12-04T21:13:32.160Z</time>
</trkpt>
<trkpt lat="-27.6189184" lon="152.8226097">
<ele>64.104</ele>
<time>2015-12-04T21:13:35.121Z</time>
</trkpt>
<trkpt lat="-27.6194007" lon="152.8223710">
<ele>61.329</ele>
<time>2015-12-04T21:13:37.240Z</time>
</trkpt>
<trkpt lat="-27.6196254" lon="152.8222598">
<ele>59.757</ele>
<time>2015-12-04T21:13:38.225Z</time>
</trkpt>
<trkpt lat="-27.6205531" lon="152.8217943">
<ele>59.360</ele>
<time>2015-12-04T21:13:42.303Z</time>
</trkpt>
<trkpt lat="-27.6212021" lon="152.8214903">
<ele>59.384</ele>
<time>2015-12-04T21:13:45.137Z</time>
</trkpt>
<trkpt lat="-27.6216493" lon="152.8212690">
<ele>59.105</ele>
<time>2015-12-04T21:13:47.127Z</time>
</trkpt>
<trkpt lat="-27.6223474" lon="152.8209284">
<ele>58.287</ele>
<time>2015-12-04T21:13:50.180Z</time>
</trkpt>
<trkpt lat="-27.6231106" lon="152.8205710">
<ele>57.255</ele>
<time>2015-12-04T21:13:53.382Z</time>
</trkpt>
<trkpt lat="-27.6237997" lon="152.8202436">
<ele>56.497</ele>
<time>2015-12-04T21:13:56.270Z</time>
</trkpt>
<trkpt lat="-27.6242564" lon="152.8199971">
<ele>56.180</ele>
<time>2015-12-04T21:13:58.289Z</time>
</trkpt>
<trkpt lat="-27.6249318" lon="152.8196289">
<ele>55.871</ele>
<time>2015-12-04T21:14:01.288Z</time>
</trkpt>
<trkpt lat="-27.6255810" lon="152.8192895">
<ele>54.431</ele>
<time>2015-12-04T21:14:04.148Z</time>
</trkpt>
<trkpt lat="-27.6260274" lon="152.8189943">
<ele>51.082</ele>
<time>2015-12-04T21:14:06.220Z</time>
</trkpt>
<trkpt lat="-27.6266775" lon="152.8185631">
<ele>47.008</ele>
<time>2015-12-04T21:14:09.210Z</time>
</trkpt>
<trkpt lat="-27.6270857" lon="152.8182415">
<ele>44.318</ele>
<time>2015-12-04T21:14:11.181Z</time>
</trkpt>
<trkpt lat="-27.6277568" lon="152.8177992">
<ele>43.574</ele>
<time>2015-12-04T21:14:14.284Z</time>
</trkpt>
<trkpt lat="-27.6281697" lon="152.8175353">
<ele>43.760</ele>
<time>2015-12-04T21:14:16.200Z</time>
</trkpt>
<trkpt lat="-27.6285978" lon="152.8172240">
<ele>43.839</ele>
<time>2015-12-04T21:14:18.262Z</time>
</trkpt>
<trkpt lat="-27.6291998" lon="152.8167303">
<ele>43.551</ele>
<time>2015-12-04T21:14:21.258Z</time>
</trkpt>
<trkpt lat="-27.6297655" lon="152.8162188">
<ele>43.621</ele>
<time>2015-12-04T21:14:24.171Z</time>
</trkpt>
<trkpt lat="-27.6301607" lon="152.8158689">
<ele>44.605</ele>
<time>2015-12-04T21:14:26.186Z</time>
</trkpt>
<trkpt lat="-27.6305424" lon="152.8155005">
<ele>46.392</ele>
<time>2015-12-04T21:14:28.184Z</time>
</trkpt>
<trkpt lat="-27.6311189" lon="152.8149483">
<ele>48.804</ele>
<time>2015-12-04T21:14:31.192Z</time>
</trkpt>
<trkpt lat="-27.6314901" lon="152.8145588">
<ele>51.218</ele>
<time>2015-12-04T21:14:33.213Z</time>
</trkpt>
<trkpt lat="-27.6318430" lon="152.8141465">
<ele>52.451</ele>
<time>2015-12-04T21:14:35.243Z</time>
</trkpt>
<trkpt lat="-27.6323458" lon="152.8135424">
<ele>52.143</ele>
<time>2015-12-04T21:14:38.191Z</time>
</trkpt>
<trkpt lat="-27.6328445" lon="152.8129231">
<ele>51.033</ele>
<time>2015-12-04T21:14:41.182Z</time>
</trkpt>
<trkpt lat="-27.6333100" lon="152.8122953">
<ele>49.693</ele>
<time>2015-12-04T21:14:44.133Z</time>
</trkpt>
<trkpt lat="-27.6337533" lon="152.8116310">
<ele>48.249</ele>
<time>2015-12-04T21:14:47.111Z</time>
</trkpt>
<trkpt lat="-27.6341848" lon="152.8109463">
<ele>46.813</ele>
<time>2015-12-04T21:14:50.082Z</time>
</trkpt>
<trkpt lat="-27.6346037" lon="152.8102640">
<ele>45.377</ele>
<time>2015-12-04T21:14:53.012Z</time>
</trkpt>
<trkpt lat="-27.6348787" lon="152.8097759">
<ele>43.808</ele>
<time>2015-12-04T21:14:55.049Z</time>
</trkpt>
<trkpt lat="-27.6352337" lon="152.8090365">
<ele>42.315</ele>
<time>2015-12-04T21:14:58.027Z</time>
</trkpt>
<trkpt lat="-27.6354534" lon="152.8085330">
<ele>40.801</ele>
<time>2015-12-04T21:15:00.034Z</time>
</trkpt>
<trkpt lat="-27.6357502" lon="152.8077821">
<ele>39.068</ele>
<time>2015-12-04T21:15:02.983Z</time>
</trkpt>
<trkpt lat="-27.6360449" lon="152.8069831">
<ele>37.504</ele>
<time>2015-12-04T21:15:06.049Z</time>
</trkpt>
<trkpt lat="-27.6363081" lon="152.8061812">
<ele>36.518</ele>
<time>2015-12-04T21:15:09.042Z</time>
</trkpt>
<trkpt lat="-27.6364687" lon="152.8056382">
<ele>35.676</ele>
<time>2015-12-04T21:15:11.036Z</time>
</trkpt>
<trkpt lat="-27.6366254" lon="152.8050944">
<ele>34.367</ele>
<time>2015-12-04T21:15:13.037Z</time>
</trkpt>
<trkpt lat="-27.6368513" lon="152.8043034">
<ele>32.387</ele>
<time>2015-12-04T21:15:15.986Z</time>
</trkpt>
<trkpt lat="-27.6370649" lon="152.8035159">
<ele>30.107</ele>
<time>2015-12-04T21:15:18.929Z</time>
</trkpt>
<trkpt lat="-27.6372171" lon="152.8030010">
<ele>28.228</ele>
<time>2015-12-04T21:15:20.885Z</time>
</trkpt>
<trkpt lat="-27.6373787" lon="152.8025093">
<ele>27.254</ele>
<time>2015-12-04T21:15:22.819Z</time>
</trkpt>
<trkpt lat="-27.6375396" lon="152.8020092">
<ele>27.078</ele>
<time>2015-12-04T21:15:24.816Z</time>
</trkpt>
<trkpt lat="-27.6376572" lon="152.8015050">
<ele>27.240</ele>
<time>2015-12-04T21:15:26.771Z</time>
</trkpt>
<trkpt lat="-27.6378354" lon="152.8010004">
<ele>27.438</ele>
<time>2015-12-04T21:15:28.792Z</time>
</trkpt>
<trkpt lat="-27.6379915" lon="152.8004883">
<ele>27.598</ele>
<time>2015-12-04T21:15:30.798Z</time>
</trkpt>
<trkpt lat="-27.6381607" lon="152.7999580">
<ele>28.220</ele>
<time>2015-12-04T21:15:32.853Z</time>
</trkpt>
<trkpt lat="-27.6384717" lon="152.7991627">
<ele>29.721</ele>
<time>2015-12-04T21:15:35.950Z</time>
</trkpt>
<trkpt lat="-27.6387679" lon="152.7983980">
<ele>31.432</ele>
<time>2015-12-04T21:15:38.884Z</time>
</trkpt>
<trkpt lat="-27.6390204" lon="152.7979034">
<ele>32.443</ele>
<time>2015-12-04T21:15:40.881Z</time>
</trkpt>
<trkpt lat="-27.6392844" lon="152.7974228">
<ele>32.735</ele>
<time>2015-12-04T21:15:42.862Z</time>
</trkpt>
<trkpt lat="-27.6397190" lon="152.7967387">
<ele>32.648</ele>
<time>2015-12-04T21:15:45.826Z</time>
</trkpt>
<trkpt lat="-27.6400199" lon="152.7962709">
<ele>31.871</ele>
<time>2015-12-04T21:15:47.855Z</time>
</trkpt>
<trkpt lat="-27.6403602" lon="152.7958491">
<ele>30.099</ele>
<time>2015-12-04T21:15:49.853Z</time>
</trkpt>
<trkpt lat="-27.6407055" lon="152.7954612">
<ele>27.732</ele>
<time>2015-12-04T21:15:51.811Z</time>
</trkpt>
<trkpt lat="-27.6412022" lon="152.7948917">
<ele>25.118</ele>
<time>2015-12-04T21:15:54.728Z</time>
</trkpt>
<trkpt lat="-27.6417360" lon="152.7943105">
<ele>22.713</ele>
<time>2015-12-04T21:15:57.780Z</time>
</trkpt>
<trkpt lat="-27.6422647" lon="152.7937359">
<ele>21.216</ele>
<time>2015-12-04T21:16:00.752Z</time>
</trkpt>
<trkpt lat="-27.6426204" lon="152.7933372">
<ele>20.726</ele>
<time>2015-12-04T21:16:02.780Z</time>
</trkpt>
<trkpt lat="-27.6431519" lon="152.7927439">
<ele>20.925</ele>
<time>2015-12-04T21:16:05.783Z</time>
</trkpt>
<trkpt lat="-27.6436934" lon="152.7921142">
<ele>21.763</ele>
<time>2015-12-04T21:16:08.816Z</time>
</trkpt>
<trkpt lat="-27.6440534" lon="152.7916843">
<ele>23.378</ele>
<time>2015-12-04T21:16:10.809Z</time>
</trkpt>
<trkpt lat="-27.6444161" lon="152.7912609">
<ele>25.344</ele>
<time>2015-12-04T21:16:12.782Z</time>
</trkpt>
<trkpt lat="-27.6447903" lon="152.7908453">
<ele>26.702</ele>
<time>2015-12-04T21:16:14.785Z</time>
</trkpt>
<trkpt lat="-27.6451413" lon="152.7904460">
<ele>27.092</ele>
<time>2015-12-04T21:16:16.724Z</time>
</trkpt>
<trkpt lat="-27.6455015" lon="152.7900429">
<ele>26.908</ele>
<time>2015-12-04T21:16:18.705Z</time>
</trkpt>
<trkpt lat="-27.6460771" lon="152.7893969">
<ele>26.852</ele>
<time>2015-12-04T21:16:21.788Z</time>
</trkpt>
<trkpt lat="-27.6464855" lon="152.7889397">
<ele>27.503</ele>
<time>2015-12-04T21:16:23.898Z</time>
</trkpt>
<trkpt lat="-27.6470595" lon="152.7882895">
<ele>29.164</ele>
<time>2015-12-04T21:16:26.830Z</time>
</trkpt>
<trkpt lat="-27.6476345" lon="152.7876354">
<ele>32.078</ele>
<time>2015-12-04T21:16:29.821Z</time>
</trkpt>
<trkpt lat="-27.6481873" lon="152.7870366">
<ele>35.631</ele>
<time>2015-12-04T21:16:32.732Z</time>
</trkpt>
<trkpt lat="-27.6487122" lon="152.7864225">
<ele>38.209</ele>
<time>2015-12-04T21:16:35.698Z</time>
</trkpt>
<trkpt lat="-27.6492227" lon="152.7857900">
<ele>39.098</ele>
<time>2015-12-04T21:16:38.670Z</time>
</trkpt>
<trkpt lat="-27.6495853" lon="152.7853605">
<ele>39.449</ele>
<time>2015-12-04T21:16:40.693Z</time>
</trkpt>
<trkpt lat="-27.6499366" lon="152.7849314">
<ele>40.437</ele>
<time>2015-12-04T21:16:42.673Z</time>
</trkpt>
<trkpt lat="-27.6502703" lon="152.7845005">
<ele>41.861</ele>
<time>2015-12-04T21:16:44.653Z</time>
</trkpt>
<trkpt lat="-27.6507422" lon="152.7838623">
<ele>42.916</ele>
<time>2015-12-04T21:16:47.585Z</time>
</trkpt>
<trkpt lat="-27.6510623" lon="152.7834221">
<ele>43.368</ele>
<time>2015-12-04T21:16:49.618Z</time>
</trkpt>
<trkpt lat="-27.6515375" lon="152.7827451">
<ele>43.448</ele>
<time>2015-12-04T21:16:52.682Z</time>
</trkpt>
<trkpt lat="-27.6519930" lon="152.7820599">
<ele>43.757</ele>
<time>2015-12-04T21:16:55.673Z</time>
</trkpt>
<trkpt lat="-27.6524262" lon="152.7813811">
<ele>44.597</ele>
<time>2015-12-04T21:16:58.623Z</time>
</trkpt>
<trkpt lat="-27.6527023" lon="152.7809304">
<ele>45.538</ele>
<time>2015-12-04T21:17:00.584Z</time>
</trkpt>
<trkpt lat="-27.6529933" lon="152.7804783">
<ele>46.214</ele>
<time>2015-12-04T21:17:02.605Z</time>
</trkpt>
<trkpt lat="-27.6534149" lon="152.7797942">
<ele>46.659</ele>
<time>2015-12-04T21:17:05.604Z</time>
</trkpt>
<trkpt lat="-27.6538419" lon="152.7790955">
<ele>47.285</ele>
<time>2015-12-04T21:17:08.647Z</time>
</trkpt>
<trkpt lat="-27.6541092" lon="152.7786524">
<ele>48.362</ele>
<time>2015-12-04T21:17:10.593Z</time>
</trkpt>
<trkpt lat="-27.6543632" lon="152.7782042">
<ele>49.262</ele>
<time>2015-12-04T21:17:12.559Z</time>
</trkpt>
<trkpt lat="-27.6547643" lon="152.7775464">
<ele>49.393</ele>
<time>2015-12-04T21:17:15.520Z</time>
</trkpt>
<trkpt lat="-27.6551457" lon="152.7768548">
<ele>49.137</ele>
<time>2015-12-04T21:17:18.501Z</time>
</trkpt>
<trkpt lat="-27.6555181" lon="152.7761277">
<ele>48.963</ele>
<time>2015-12-04T21:17:21.514Z</time>
</trkpt>
<trkpt lat="-27.6557783" lon="152.7756284">
<ele>48.935</ele>
<time>2015-12-04T21:17:23.554Z</time>
</trkpt>
<trkpt lat="-27.6561978" lon="152.7749297">
<ele>49.325</ele>
<time>2015-12-04T21:17:26.527Z</time>
</trkpt>
<trkpt lat="-27.6564812" lon="152.7744827">
<ele>50.304</ele>
<time>2015-12-04T21:17:28.502Z</time>
</trkpt>
<trkpt lat="-27.6568879" lon="152.7738377">
<ele>51.425</ele>
<time>2015-12-04T21:17:31.421Z</time>
</trkpt>
<trkpt lat="-27.6571471" lon="152.7734055">
<ele>52.219</ele>
<time>2015-12-04T21:17:33.370Z</time>
</trkpt>
<trkpt lat="-27.6574210" lon="152.7729729">
<ele>53.189</ele>
<time>2015-12-04T21:17:35.362Z</time>
</trkpt>
<trkpt lat="-27.6578329" lon="152.7723006">
<ele>54.768</ele>
<time>2015-12-04T21:17:38.410Z</time>
</trkpt>
<trkpt lat="-27.6580930" lon="152.7718543">
<ele>56.417</ele>
<time>2015-12-04T21:17:40.385Z</time>
</trkpt>
<trkpt lat="-27.6583558" lon="152.7714113">
<ele>58.042</ele>
<time>2015-12-04T21:17:42.335Z</time>
</trkpt>
<trkpt lat="-27.6587617" lon="152.7706856">
<ele>60.048</ele>
<time>2015-12-04T21:17:45.422Z</time>
</trkpt>
<trkpt lat="-27.6590199" lon="152.7701965">
<ele>61.946</ele>
<time>2015-12-04T21:17:47.446Z</time>
</trkpt>
<trkpt lat="-27.6592714" lon="152.7697246">
<ele>63.197</ele>
<time>2015-12-04T21:17:49.412Z</time>
</trkpt>
<trkpt lat="-27.6595924" lon="152.7690396">
<ele>63.782</ele>
<time>2015-12-04T21:17:52.262Z</time>
</trkpt>
<trkpt lat="-27.6598109" lon="152.7685836">
<ele>63.591</ele>
<time>2015-12-04T21:17:54.219Z</time>
</trkpt>
<trkpt lat="-27.6600322" lon="152.7681209">
<ele>62.736</ele>
<time>2015-12-04T21:17:56.235Z</time>
</trkpt>
<trkpt lat="-27.6603398" lon="152.7674242">
<ele>61.217</ele>
<time>2015-12-04T21:17:59.204Z</time>
</trkpt>
<trkpt lat="-27.6605486" lon="152.7669589">
<ele>59.134</ele>
<time>2015-12-04T21:18:01.175Z</time>
</trkpt>
<trkpt lat="-27.6608342" lon="152.7662068">
<ele>57.198</ele>
<time>2015-12-04T21:18:04.209Z</time>
</trkpt>
<trkpt lat="-27.6611107" lon="152.7654295">
<ele>55.718</ele>
<time>2015-12-04T21:18:07.254Z</time>
</trkpt>
<trkpt lat="-27.6613798" lon="152.7646159">
<ele>53.777</ele>
<time>2015-12-04T21:18:10.325Z</time>
</trkpt>
<trkpt lat="-27.6616281" lon="152.7637983">
<ele>50.906</ele>
<time>2015-12-04T21:18:13.302Z</time>
</trkpt>
<trkpt lat="-27.6617930" lon="152.7632430">
<ele>47.911</ele>
<time>2015-12-04T21:18:15.308Z</time>
</trkpt>
<trkpt lat="-27.6619291" lon="152.7626960">
<ele>45.505</ele>
<time>2015-12-04T21:18:17.251Z</time>
</trkpt>
<trkpt lat="-27.6620792" lon="152.7621240">
<ele>43.253</ele>
<time>2015-12-04T21:18:19.301Z</time>
</trkpt>
<trkpt lat="-27.6622656" lon="152.7612893">
<ele>40.624</ele>
<time>2015-12-04T21:18:22.264Z</time>
</trkpt>
<trkpt lat="-27.6625129" lon="152.7604551">
<ele>37.733</ele>
<time>2015-12-04T21:18:25.272Z</time>
</trkpt>
<trkpt lat="-27.6626861" lon="152.7599022">
<ele>35.056</ele>
<time>2015-12-04T21:18:27.281Z</time>
</trkpt>
<trkpt lat="-27.6628488" lon="152.7593753">
<ele>32.718</ele>
<time>2015-12-04T21:18:29.212Z</time>
</trkpt>
<trkpt lat="-27.6629996" lon="152.7588582">
<ele>30.544</ele>
<time>2015-12-04T21:18:31.133Z</time>
</trkpt>
<trkpt lat="-27.6632139" lon="152.7580747">
<ele>28.768</ele>
<time>2015-12-04T21:18:34.108Z</time>
</trkpt>
<trkpt lat="-27.6633652" lon="152.7575609">
<ele>27.799</ele>
<time>2015-12-04T21:18:36.096Z</time>
</trkpt>
<trkpt lat="-27.6635062" lon="152.7570466">
<ele>27.808</ele>
<time>2015-12-04T21:18:38.084Z</time>
</trkpt>
<trkpt lat="-27.6637061" lon="152.7562575">
<ele>28.625</ele>
<time>2015-12-04T21:18:41.130Z</time>
</trkpt>
<trkpt lat="-27.6638821" lon="152.7555393">
<ele>30.123</ele>
<time>2015-12-04T21:18:43.957Z</time>
</trkpt>
<trkpt lat="-27.6640353" lon="152.7550557">
<ele>32.490</ele>
<time>2015-12-04T21:18:45.951Z</time>
</trkpt>
<trkpt lat="-27.6641836" lon="152.7545760">
<ele>35.146</ele>
<time>2015-12-04T21:18:47.951Z</time>
</trkpt>
<trkpt lat="-27.6643441" lon="152.7540977">
<ele>36.950</ele>
<time>2015-12-04T21:18:49.953Z</time>
</trkpt>
<trkpt lat="-27.6644984" lon="152.7536125">
<ele>37.880</ele>
<time>2015-12-04T21:18:51.956Z</time>
</trkpt>
<trkpt lat="-27.6647598" lon="152.7528853">
<ele>38.818</ele>
<time>2015-12-04T21:18:54.979Z</time>
</trkpt>
<trkpt lat="-27.6649129" lon="152.7523692">
<ele>40.963</ele>
<time>2015-12-04T21:18:57.057Z</time>
</trkpt>
<trkpt lat="-27.6650853" lon="152.7516504">
<ele>44.649</ele>
<time>2015-12-04T21:18:59.935Z</time>
</trkpt>
<trkpt lat="-27.6652042" lon="152.7509973">
<ele>48.346</ele>
<time>2015-12-04T21:19:02.662Z</time>
</trkpt>
<trkpt lat="-27.6653077" lon="152.7503544">
<ele>50.462</ele>
<time>2015-12-04T21:19:05.507Z</time>
</trkpt>
<trkpt lat="-27.6653514" lon="152.7499312">
<ele>51.503</ele>
<time>2015-12-04T21:19:07.426Z</time>
</trkpt>
<trkpt lat="-27.6653864" lon="152.7493213">
<ele>52.559</ele>
<time>2015-12-04T21:19:10.281Z</time>
</trkpt>
<trkpt lat="-27.6654135" lon="152.7487801">
<ele>53.519</ele>
<time>2015-12-04T21:19:12.963Z</time>
</trkpt>
<trkpt lat="-27.6654283" lon="152.7484164">
<ele>53.732</ele>
<time>2015-12-04T21:19:14.874Z</time>
</trkpt>
<trkpt lat="-27.6654202" lon="152.7478176">
<ele>53.248</ele>
<time>2015-12-04T21:19:18.107Z</time>
</trkpt>
<trkpt lat="-27.6653826" lon="152.7472162">
<ele>52.925</ele>
<time>2015-12-04T21:19:21.204Z</time>
</trkpt>
<trkpt lat="-27.6653480" lon="152.7468142">
<ele>53.489</ele>
<time>2015-12-04T21:19:23.213Z</time>
</trkpt>
<trkpt lat="-27.6653003" lon="152.7461998">
<ele>54.545</ele>
<time>2015-12-04T21:19:26.291Z</time>
</trkpt>
<trkpt lat="-27.6652675" lon="152.7458028">
<ele>55.189</ele>
<time>2015-12-04T21:19:28.274Z</time>
</trkpt>
<trkpt lat="-27.6652063" lon="152.7451945">
<ele>55.022</ele>
<time>2015-12-04T21:19:31.244Z</time>
</trkpt>
<trkpt lat="-27.6651625" lon="152.7446347">
<ele>54.300</ele>
<time>2015-12-04T21:19:34.024Z</time>
</trkpt>
<trkpt lat="-27.6651069" lon="152.7442874">
<ele>53.265</ele>
<time>2015-12-04T21:19:35.832Z</time>
</trkpt>
<trkpt lat="-27.6651289" lon="152.7439499">
<ele>51.675</ele>
<time>2015-12-04T21:19:37.685Z</time>
</trkpt>
<trkpt lat="-27.6652218" lon="152.7434663">
<ele>49.544</ele>
<time>2015-12-04T21:19:40.530Z</time>
</trkpt>
<trkpt lat="-27.6653038" lon="152.7431398">
<ele>47.508</ele>
<time>2015-12-04T21:19:42.531Z</time>
</trkpt>
<trkpt lat="-27.6653981" lon="152.7428285">
<ele>45.809</ele>
<time>2015-12-04T21:19:44.486Z</time>
</trkpt>
<trkpt lat="-27.6655005" lon="152.7423755">
<ele>44.200</ele>
<time>2015-12-04T21:19:47.294Z</time>
</trkpt>
<trkpt lat="-27.6655845" lon="152.7418810">
<ele>42.693</ele>
<time>2015-12-04T21:19:50.374Z</time>
</trkpt>
<trkpt lat="-27.6655924" lon="152.7413442">
<ele>41.335</ele>
<time>2015-12-04T21:19:53.614Z</time>
</trkpt>
<trkpt lat="-27.6655681" lon="152.7409836">
<ele>40.119</ele>
<time>2015-12-04T21:19:55.722Z</time>
</trkpt>
<trkpt lat="-27.6655209" lon="152.7406100">
<ele>39.299</ele>
<time>2015-12-04T21:19:57.847Z</time>
</trkpt>
<trkpt lat="-27.6654144" lon="152.7400826">
<ele>38.842</ele>
<time>2015-12-04T21:20:00.821Z</time>
</trkpt>
<trkpt lat="-27.6653244" lon="152.7395875">
<ele>38.143</ele>
<time>2015-12-04T21:20:03.653Z</time>
</trkpt>
<trkpt lat="-27.6652552" lon="152.7391150">
<ele>36.803</ele>
<time>2015-12-04T21:20:06.461Z</time>
</trkpt>
<trkpt lat="-27.6651916" lon="152.7386610">
<ele>35.058</ele>
<time>2015-12-04T21:20:09.278Z</time>
</trkpt>
<trkpt lat="-27.6651488" lon="152.7384587">
<ele>32.985</ele>
<time>2015-12-04T21:20:10.639Z</time>
</trkpt>
<trkpt lat="-27.6651517" lon="152.7382757">
<ele>30.321</ele>
<time>2015-12-04T21:20:11.836Z</time>
</trkpt>
<trkpt lat="-27.6652137" lon="152.7381225">
<ele>27.602</ele>
<time>2015-12-04T21:20:13.101Z</time>
</trkpt>
<trkpt lat="-27.6654841" lon="152.7380112">
<ele>26.014</ele>
<time>2015-12-04T21:20:15.974Z</time>
</trkpt>
<trkpt lat="-27.6657160" lon="152.7379401">
<ele>26.691</ele>
<time>2015-12-04T21:20:18.754Z</time>
</trkpt>
<trkpt lat="-27.6661927" lon="152.7378112">
<ele>30.107</ele>
<time>2015-12-04T21:20:23.647Z</time>
</trkpt>
<trkpt lat="-27.6667764" lon="152.7375874">
<ele>34.691</ele>
<time>2015-12-04T21:20:28.709Z</time>
</trkpt>
<trkpt lat="-27.6671282" lon="152.7374433">
<ele>37.611</ele>
<time>2015-12-04T21:20:31.732Z</time>
</trkpt>
<trkpt lat="-27.6676287" lon="152.7372326">
<ele>37.948</ele>
<time>2015-12-04T21:20:35.853Z</time>
</trkpt>
<trkpt lat="-27.6679453" lon="152.7370803">
<ele>37.016</ele>
<time>2015-12-04T21:20:38.096Z</time>
</trkpt>
<trkpt lat="-27.6682794" lon="152.7369183">
<ele>36.182</ele>
<time>2015-12-04T21:20:40.064Z</time>
</trkpt>
<trkpt lat="-27.6688353" lon="152.7366881">
<ele>35.996</ele>
<time>2015-12-04T21:20:43.184Z</time>
</trkpt>
<trkpt lat="-27.6692189" lon="152.7365763">
<ele>36.620</ele>
<time>2015-12-04T21:20:45.269Z</time>
</trkpt>
<trkpt lat="-27.6697781" lon="152.7364628">
<ele>37.770</ele>
<time>2015-12-04T21:20:48.254Z</time>
</trkpt>
<trkpt lat="-27.6703569" lon="152.7364209">
<ele>39.208</ele>
<time>2015-12-04T21:20:51.278Z</time>
</trkpt>
<trkpt lat="-27.6709294" lon="152.7363745">
<ele>40.877</ele>
<time>2015-12-04T21:20:54.200Z</time>
</trkpt>
<trkpt lat="-27.6715163" lon="152.7363383">
<ele>42.356</ele>
<time>2015-12-04T21:20:57.023Z</time>
</trkpt>
<trkpt lat="-27.6721552" lon="152.7363038">
<ele>43.215</ele>
<time>2015-12-04T21:20:59.966Z</time>
</trkpt>
<trkpt lat="-27.6728022" lon="152.7362538">
<ele>43.605</ele>
<time>2015-12-04T21:21:02.889Z</time>
</trkpt>
<trkpt lat="-27.6732466" lon="152.7362206">
<ele>43.792</ele>
<time>2015-12-04T21:21:04.800Z</time>
</trkpt>
<trkpt lat="-27.6737124" lon="152.7361923">
<ele>43.848</ele>
<time>2015-12-04T21:21:06.729Z</time>
</trkpt>
<trkpt lat="-27.6744518" lon="152.7361614">
<ele>43.649</ele>
<time>2015-12-04T21:21:09.544Z</time>
</trkpt>
<trkpt lat="-27.6752790" lon="152.7362327">
<ele>43.348</ele>
<time>2015-12-04T21:21:12.566Z</time>
</trkpt>
<trkpt lat="-27.6758269" lon="152.7363006">
<ele>43.142</ele>
<time>2015-12-04T21:21:14.585Z</time>
</trkpt>
<trkpt lat="-27.6763658" lon="152.7363732">
<ele>42.943</ele>
<time>2015-12-04T21:21:16.610Z</time>
</trkpt>
<trkpt lat="-27.6769062" lon="152.7364361">
<ele>42.307</ele>
<time>2015-12-04T21:21:18.673Z</time>
</trkpt>
<trkpt lat="-27.6776747" lon="152.7365426">
<ele>40.674</ele>
<time>2015-12-04T21:21:21.671Z</time>
</trkpt>
<trkpt lat="-27.6784273" lon="152.7366464">
<ele>38.145</ele>
<time>2015-12-04T21:21:24.686Z</time>
</trkpt>
<trkpt lat="-27.6791701" lon="152.7367588">
<ele>35.745</ele>
<time>2015-12-04T21:21:27.827Z</time>
</trkpt>
<trkpt lat="-27.6798646" lon="152.7368469">
<ele>34.028</ele>
<time>2015-12-04T21:21:30.917Z</time>
</trkpt>
<trkpt lat="-27.6805135" lon="152.7369511">
<ele>32.400</ele>
<time>2015-12-04T21:21:33.904Z</time>
</trkpt>
<trkpt lat="-27.6811504" lon="152.7370388">
<ele>30.454</ele>
<time>2015-12-04T21:21:36.892Z</time>
</trkpt>
<trkpt lat="-27.6815669" lon="152.7371034">
<ele>28.837</ele>
<time>2015-12-04T21:21:38.851Z</time>
</trkpt>
<trkpt lat="-27.6822353" lon="152.7371533">
<ele>28.078</ele>
<time>2015-12-04T21:21:41.858Z</time>
</trkpt>
<trkpt lat="-27.6826659" lon="152.7372108">
<ele>27.933</ele>
<time>2015-12-04T21:21:43.705Z</time>
</trkpt>
<trkpt lat="-27.6833971" lon="152.7372930">
<ele>28.080</ele>
<time>2015-12-04T21:21:46.423Z</time>
</trkpt>
<trkpt lat="-27.6842659" lon="152.7373979">
<ele>28.873</ele>
<time>2015-12-04T21:21:49.318Z</time>
</trkpt>
<trkpt lat="-27.6849075" lon="152.7375055">
<ele>32.496</ele>
<time>2015-12-04T21:21:51.336Z</time>
</trkpt>
<trkpt lat="-27.6859001" lon="152.7376319">
<ele>39.274</ele>
<time>2015-12-04T21:21:54.511Z</time>
</trkpt>
<trkpt lat="-27.6864664" lon="152.7377871">
<ele>45.035</ele>
<time>2015-12-04T21:21:56.475Z</time>
</trkpt>
<trkpt lat="-27.6870447" lon="152.7379153">
<ele>46.146</ele>
<time>2015-12-04T21:21:58.521Z</time>
</trkpt>
<trkpt lat="-27.6875904" lon="152.7380764">
<ele>43.246</ele>
<time>2015-12-04T21:22:00.551Z</time>
</trkpt>
<trkpt lat="-27.6881303" lon="152.7382159">
<ele>39.133</ele>
<time>2015-12-04T21:22:02.621Z</time>
</trkpt>
<trkpt lat="-27.6888887" lon="152.7383676">
<ele>36.357</ele>
<time>2015-12-04T21:22:05.633Z</time>
</trkpt>
<trkpt lat="-27.6893857" lon="152.7384509">
<ele>35.244</ele>
<time>2015-12-04T21:22:07.653Z</time>
</trkpt>
<trkpt lat="-27.6901052" lon="152.7385673">
<ele>34.844</ele>
<time>2015-12-04T21:22:10.702Z</time>
</trkpt>
<trkpt lat="-27.6905631" lon="152.7385992">
<ele>34.869</ele>
<time>2015-12-04T21:22:12.660Z</time>
</trkpt>
<trkpt lat="-27.6910158" lon="152.7386136">
<ele>35.375</ele>
<time>2015-12-04T21:22:14.572Z</time>
</trkpt>
<trkpt lat="-27.6917383" lon="152.7385850">
<ele>35.949</ele>
<time>2015-12-04T21:22:17.565Z</time>
</trkpt>
<trkpt lat="-27.6922200" lon="152.7385434">
<ele>36.384</ele>
<time>2015-12-04T21:22:19.572Z</time>
</trkpt>
<trkpt lat="-27.6929413" lon="152.7384958">
<ele>36.820</ele>
<time>2015-12-04T21:22:22.551Z</time>
</trkpt>
<trkpt lat="-27.6936711" lon="152.7384519">
<ele>36.744</ele>
<time>2015-12-04T21:22:25.504Z</time>
</trkpt>
<trkpt lat="-27.6944443" lon="152.7384202">
<ele>35.770</ele>
<time>2015-12-04T21:22:28.657Z</time>
</trkpt>
<trkpt lat="-27.6951633" lon="152.7383912">
<ele>34.523</ele>
<time>2015-12-04T21:22:31.651Z</time>
</trkpt>
<trkpt lat="-27.6956288" lon="152.7383705">
<ele>33.691</ele>
<time>2015-12-04T21:22:33.612Z</time>
</trkpt>
<trkpt lat="-27.6963320" lon="152.7383095">
<ele>33.267</ele>
<time>2015-12-04T21:22:36.629Z</time>
</trkpt>
<trkpt lat="-27.6970207" lon="152.7382581">
<ele>32.995</ele>
<time>2015-12-04T21:22:39.568Z</time>
</trkpt>
<trkpt lat="-27.6977355" lon="152.7382087">
<ele>32.631</ele>
<time>2015-12-04T21:22:42.566Z</time>
</trkpt>
<trkpt lat="-27.6982186" lon="152.7381859">
<ele>31.893</ele>
<time>2015-12-04T21:22:44.556Z</time>
</trkpt>
<trkpt lat="-27.6989515" lon="152.7381431">
<ele>30.720</ele>
<time>2015-12-04T21:22:47.512Z</time>
</trkpt>
<trkpt lat="-27.6994484" lon="152.7381125">
<ele>29.560</ele>
<time>2015-12-04T21:22:49.486Z</time>
</trkpt>
<trkpt lat="-27.6999586" lon="152.7380764">
<ele>28.817</ele>
<time>2015-12-04T21:22:51.504Z</time>
</trkpt>
<trkpt lat="-27.7004672" lon="152.7380333">
<ele>28.806</ele>
<time>2015-12-04T21:22:53.522Z</time>
</trkpt>
<trkpt lat="-27.7012134" lon="152.7379838">
<ele>29.552</ele>
<time>2015-12-04T21:22:56.468Z</time>
</trkpt>
<trkpt lat="-27.7019771" lon="152.7379354">
<ele>30.265</ele>
<time>2015-12-04T21:22:59.466Z</time>
</trkpt>
<trkpt lat="-27.7025045" lon="152.7379036">
<ele>30.265</ele>
<time>2015-12-04T21:23:01.516Z</time>
</trkpt>
<trkpt lat="-27.7032894" lon="152.7378659">
<ele>29.808</ele>
<time>2015-12-04T21:23:04.574Z</time>
</trkpt>
<trkpt lat="-27.7038020" lon="152.7378379">
<ele>29.403</ele>
<time>2015-12-04T21:23:06.626Z</time>
</trkpt>
<trkpt lat="-27.7042982" lon="152.7378123">
<ele>29.311</ele>
<time>2015-12-04T21:23:08.647Z</time>
</trkpt>
<trkpt lat="-27.7050240" lon="152.7377658">
<ele>29.506</ele>
<time>2015-12-04T21:23:11.669Z</time>
</trkpt>
<trkpt lat="-27.7057355" lon="152.7377507">
<ele>29.707</ele>
<time>2015-12-04T21:23:14.660Z</time>
</trkpt>
<trkpt lat="-27.7062088" lon="152.7378008">
<ele>29.712</ele>
<time>2015-12-04T21:23:16.631Z</time>
</trkpt>
<trkpt lat="-27.7069340" lon="152.7379262">
<ele>29.623</ele>
<time>2015-12-04T21:23:19.657Z</time>
</trkpt>
<trkpt lat="-27.7076352" lon="152.7380843">
<ele>30.113</ele>
<time>2015-12-04T21:23:22.709Z</time>
</trkpt>
<trkpt lat="-27.7082959" lon="152.7382458">
<ele>31.511</ele>
<time>2015-12-04T21:23:25.696Z</time>
</trkpt>
<trkpt lat="-27.7089442" lon="152.7383925">
<ele>33.002</ele>
<time>2015-12-04T21:23:28.626Z</time>
</trkpt>
<trkpt lat="-27.7093884" lon="152.7384929">
<ele>33.997</ele>
<time>2015-12-04T21:23:30.617Z</time>
</trkpt>
<trkpt lat="-27.7098333" lon="152.7385933">
<ele>35.052</ele>
<time>2015-12-04T21:23:32.615Z</time>
</trkpt>
<trkpt lat="-27.7102879" lon="152.7386888">
<ele>36.458</ele>
<time>2015-12-04T21:23:34.690Z</time>
</trkpt>
<trkpt lat="-27.7107100" lon="152.7387971">
<ele>37.623</ele>
<time>2015-12-04T21:23:36.655Z</time>
</trkpt>
<trkpt lat="-27.7113483" lon="152.7389463">
<ele>38.109</ele>
<time>2015-12-04T21:23:39.624Z</time>
</trkpt>
<trkpt lat="-27.7117840" lon="152.7390632">
<ele>38.226</ele>
<time>2015-12-04T21:23:41.634Z</time>
</trkpt>
<trkpt lat="-27.7126784" lon="152.7392719">
<ele>38.283</ele>
<time>2015-12-04T21:23:45.597Z</time>
</trkpt>
<trkpt lat="-27.7131378" lon="152.7394067">
<ele>38.823</ele>
<time>2015-12-04T21:23:47.582Z</time>
</trkpt>
<trkpt lat="-27.7138306" lon="152.7396356">
<ele>40.335</ele>
<time>2015-12-04T21:23:50.482Z</time>
</trkpt>
<trkpt lat="-27.7143183" lon="152.7397899">
<ele>42.148</ele>
<time>2015-12-04T21:23:52.410Z</time>
</trkpt>
<trkpt lat="-27.7151006" lon="152.7400413">
<ele>43.465</ele>
<time>2015-12-04T21:23:55.374Z</time>
</trkpt>
<trkpt lat="-27.7159126" lon="152.7402977">
<ele>44.336</ele>
<time>2015-12-04T21:23:58.240Z</time>
</trkpt>
<trkpt lat="-27.7165280" lon="152.7404780">
<ele>44.402</ele>
<time>2015-12-04T21:24:00.201Z</time>
</trkpt>
<trkpt lat="-27.7175086" lon="152.7407871">
<ele>43.154</ele>
<time>2015-12-04T21:24:03.235Z</time>
</trkpt>
<trkpt lat="-27.7185035" lon="152.7410811">
<ele>41.190</ele>
<time>2015-12-04T21:24:06.336Z</time>
</trkpt>
<trkpt lat="-27.7191280" lon="152.7412704">
<ele>39.621</ele>
<time>2015-12-04T21:24:08.396Z</time>
</trkpt>
<trkpt lat="-27.7200020" lon="152.7415001">
<ele>38.897</ele>
<time>2015-12-04T21:24:11.436Z</time>
</trkpt>
<trkpt lat="-27.7205658" lon="152.7416399">
<ele>38.810</ele>
<time>2015-12-04T21:24:13.594Z</time>
</trkpt>
<trkpt lat="-27.7212977" lon="152.7418288">
<ele>38.698</ele>
<time>2015-12-04T21:24:16.643Z</time>
</trkpt>
<trkpt lat="-27.7217845" lon="152.7419165">
<ele>37.931</ele>
<time>2015-12-04T21:24:18.698Z</time>
</trkpt>
<trkpt lat="-27.7224857" lon="152.7420767">
<ele>36.470</ele>
<time>2015-12-04T21:24:21.646Z</time>
</trkpt>
<trkpt lat="-27.7232100" lon="152.7421897">
<ele>34.753</ele>
<time>2015-12-04T21:24:24.584Z</time>
</trkpt>
<trkpt lat="-27.7237145" lon="152.7422225">
<ele>33.323</ele>
<time>2015-12-04T21:24:26.589Z</time>
</trkpt>
<trkpt lat="-27.7242040" lon="152.7421733">
<ele>33.321</ele>
<time>2015-12-04T21:24:28.533Z</time>
</trkpt>
<trkpt lat="-27.7246991" lon="152.7421070">
<ele>35.468</ele>
<time>2015-12-04T21:24:30.521Z</time>
</trkpt>
<trkpt lat="-27.7251956" lon="152.7420433">
<ele>38.483</ele>
<time>2015-12-04T21:24:32.571Z</time>
</trkpt>
<trkpt lat="-27.7256781" lon="152.7419519">
<ele>40.310</ele>
<time>2015-12-04T21:24:34.634Z</time>
</trkpt>
<trkpt lat="-27.7263684" lon="152.7418565">
<ele>39.966</ele>
<time>2015-12-04T21:24:37.516Z</time>
</trkpt>
<trkpt lat="-27.7268561" lon="152.7417859">
<ele>37.726</ele>
<time>2015-12-04T21:24:39.510Z</time>
</trkpt>
<trkpt lat="-27.7273522" lon="152.7417127">
<ele>34.833</ele>
<time>2015-12-04T21:24:41.528Z</time>
</trkpt>
<trkpt lat="-27.7278499" lon="152.7416375">
<ele>32.458</ele>
<time>2015-12-04T21:24:43.539Z</time>
</trkpt>
<trkpt lat="-27.7283427" lon="152.7415597">
<ele>30.898</ele>
<time>2015-12-04T21:24:45.508Z</time>
</trkpt>
<trkpt lat="-27.7288506" lon="152.7414770">
<ele>30.016</ele>
<time>2015-12-04T21:24:47.518Z</time>
</trkpt>
<trkpt lat="-27.7296090" lon="152.7413565">
<ele>29.976</ele>
<time>2015-12-04T21:24:50.520Z</time>
</trkpt>
<trkpt lat="-27.7303743" lon="152.7412467">
<ele>30.782</ele>
<time>2015-12-04T21:24:53.625Z</time>
</trkpt>
<trkpt lat="-27.7308480" lon="152.7411751">
<ele>31.470</ele>
<time>2015-12-04T21:24:55.577Z</time>
</trkpt>
<trkpt lat="-27.7315743" lon="152.7410637">
<ele>31.269</ele>
<time>2015-12-04T21:24:58.544Z</time>
</trkpt>
<trkpt lat="-27.7320725" lon="152.7410176">
<ele>30.499</ele>
<time>2015-12-04T21:25:00.576Z</time>
</trkpt>
<trkpt lat="-27.7325507" lon="152.7410244">
<ele>29.736</ele>
<time>2015-12-04T21:25:02.543Z</time>
</trkpt>
<trkpt lat="-27.7330278" lon="152.7410808">
<ele>29.186</ele>
<time>2015-12-04T21:25:04.526Z</time>
</trkpt>
<trkpt lat="-27.7335134" lon="152.7411451">
<ele>28.828</ele>
<time>2015-12-04T21:25:06.536Z</time>
</trkpt>
<trkpt lat="-27.7342497" lon="152.7412316">
<ele>28.626</ele>
<time>2015-12-04T21:25:09.530Z</time>
</trkpt>
<trkpt lat="-27.7347472" lon="152.7412977">
<ele>28.677</ele>
<time>2015-12-04T21:25:11.528Z</time>
</trkpt>
<trkpt lat="-27.7355080" lon="152.7413725">
<ele>29.227</ele>
<time>2015-12-04T21:25:14.592Z</time>
</trkpt>
<trkpt lat="-27.7362351" lon="152.7414695">
<ele>30.209</ele>
<time>2015-12-04T21:25:17.590Z</time>
</trkpt>
<trkpt lat="-27.7369464" lon="152.7415686">
<ele>31.149</ele>
<time>2015-12-04T21:25:20.571Z</time>
</trkpt>
<trkpt lat="-27.7376591" lon="152.7416760">
<ele>31.800</ele>
<time>2015-12-04T21:25:23.618Z</time>
</trkpt>
<trkpt lat="-27.7383374" lon="152.7417910">
<ele>32.376</ele>
<time>2015-12-04T21:25:26.547Z</time>
</trkpt>
<trkpt lat="-27.7390475" lon="152.7418604">
<ele>33.131</ele>
<time>2015-12-04T21:25:29.455Z</time>
</trkpt>
<trkpt lat="-27.7395495" lon="152.7417664">
<ele>33.972</ele>
<time>2015-12-04T21:25:31.397Z</time>
</trkpt>
<trkpt lat="-27.7403415" lon="152.7414654">
<ele>34.616</ele>
<time>2015-12-04T21:25:34.522Z</time>
</trkpt>
<trkpt lat="-27.7410865" lon="152.7411376">
<ele>35.721</ele>
<time>2015-12-04T21:25:37.553Z</time>
</trkpt>
<trkpt lat="-27.7415788" lon="152.7409255">
<ele>37.765</ele>
<time>2015-12-04T21:25:39.553Z</time>
</trkpt>
<trkpt lat="-27.7423184" lon="152.7406058">
<ele>39.701</ele>
<time>2015-12-04T21:25:42.550Z</time>
</trkpt>
<trkpt lat="-27.7428183" lon="152.7403983">
<ele>40.735</ele>
<time>2015-12-04T21:25:44.616Z</time>
</trkpt>
<trkpt lat="-27.7432956" lon="152.7402080">
<ele>41.366</ele>
<time>2015-12-04T21:25:46.668Z</time>
</trkpt>
<trkpt lat="-27.7439655" lon="152.7399187">
<ele>41.799</ele>
<time>2015-12-04T21:25:49.667Z</time>
</trkpt>
<trkpt lat="-27.7446210" lon="152.7396341">
<ele>41.540</ele>
<time>2015-12-04T21:25:52.510Z</time>
</trkpt>
<trkpt lat="-27.7452273" lon="152.7391098">
<ele>40.532</ele>
<time>2015-12-04T21:25:55.385Z</time>
</trkpt>
<trkpt lat="-27.7456768" lon="152.7387013">
<ele>39.745</ele>
<time>2015-12-04T21:25:57.508Z</time>
</trkpt>
<trkpt lat="-27.7460754" lon="152.7383017">
<ele>40.205</ele>
<time>2015-12-04T21:25:59.550Z</time>
</trkpt>
<trkpt lat="-27.7466594" lon="152.7377710">
<ele>41.686</ele>
<time>2015-12-04T21:26:02.595Z</time>
</trkpt>
<trkpt lat="-27.7470245" lon="152.7374068">
<ele>42.317</ele>
<time>2015-12-04T21:26:04.633Z</time>
</trkpt>
<trkpt lat="-27.7475946" lon="152.7369338">
<ele>40.864</ele>
<time>2015-12-04T21:26:07.710Z</time>
</trkpt>
<trkpt lat="-27.7482008" lon="152.7366104">
<ele>38.481</ele>
<time>2015-12-04T21:26:10.911Z</time>
</trkpt>
<trkpt lat="-27.7485964" lon="152.7364835">
<ele>36.433</ele>
<time>2015-12-04T21:26:12.925Z</time>
</trkpt>
<trkpt lat="-27.7489800" lon="152.7364193">
<ele>34.336</ele>
<time>2015-12-04T21:26:14.776Z</time>
</trkpt>
<trkpt lat="-27.7496227" lon="152.7363654">
<ele>32.054</ele>
<time>2015-12-04T21:26:17.519Z</time>
</trkpt>
<trkpt lat="-27.7501044" lon="152.7363263">
<ele>31.011</ele>
<time>2015-12-04T21:26:19.416Z</time>
</trkpt>
<trkpt lat="-27.7508945" lon="152.7362628">
<ele>32.723</ele>
<time>2015-12-04T21:26:22.426Z</time>
</trkpt>
<trkpt lat="-27.7516878" lon="152.7362027">
<ele>36.444</ele>
<time>2015-12-04T21:26:25.444Z</time>
</trkpt>
<trkpt lat="-27.7522163" lon="152.7361735">
<ele>39.914</ele>
<time>2015-12-04T21:26:27.461Z</time>
</trkpt>
<trkpt lat="-27.7530045" lon="152.7361154">
<ele>41.852</ele>
<time>2015-12-04T21:26:30.552Z</time>
</trkpt>
<trkpt lat="-27.7534954" lon="152.7360758">
<ele>42.053</ele>
<time>2015-12-04T21:26:32.554Z</time>
</trkpt>
<trkpt lat="-27.7539827" lon="152.7360343">
<ele>40.772</ele>
<time>2015-12-04T21:26:34.541Z</time>
</trkpt>
<trkpt lat="-27.7544829" lon="152.7359914">
<ele>39.078</ele>
<time>2015-12-04T21:26:36.562Z</time>
</trkpt>
<trkpt lat="-27.7552270" lon="152.7359406">
<ele>38.003</ele>
<time>2015-12-04T21:26:39.531Z</time>
</trkpt>
<trkpt lat="-27.7559817" lon="152.7358907">
<ele>37.663</ele>
<time>2015-12-04T21:26:42.519Z</time>
</trkpt>
<trkpt lat="-27.7564881" lon="152.7358647">
<ele>37.652</ele>
<time>2015-12-04T21:26:44.518Z</time>
</trkpt>
<trkpt lat="-27.7572507" lon="152.7358116">
<ele>37.439</ele>
<time>2015-12-04T21:26:47.522Z</time>
</trkpt>
<trkpt lat="-27.7577564" lon="152.7357930">
<ele>36.846</ele>
<time>2015-12-04T21:26:49.482Z</time>
</trkpt>
<trkpt lat="-27.7582727" lon="152.7358680">
<ele>36.229</ele>
<time>2015-12-04T21:26:51.457Z</time>
</trkpt>
<trkpt lat="-27.7590534" lon="152.7360995">
<ele>36.195</ele>
<time>2015-12-04T21:26:54.538Z</time>
</trkpt>
<trkpt lat="-27.7597978" lon="152.7363508">
<ele>36.878</ele>
<time>2015-12-04T21:26:57.615Z</time>
</trkpt>
<trkpt lat="-27.7602672" lon="152.7365077">
<ele>37.613</ele>
<time>2015-12-04T21:26:59.608Z</time>
</trkpt>
<trkpt lat="-27.7609635" lon="152.7367573">
<ele>37.835</ele>
<time>2015-12-04T21:27:02.557Z</time>
</trkpt>
<trkpt lat="-27.7614575" lon="152.7369106">
<ele>37.730</ele>
<time>2015-12-04T21:27:04.602Z</time>
</trkpt>
<trkpt lat="-27.7621732" lon="152.7371489">
<ele>37.735</ele>
<time>2015-12-04T21:27:07.615Z</time>
</trkpt>
<trkpt lat="-27.7626504" lon="152.7373107">
<ele>37.890</ele>
<time>2015-12-04T21:27:09.664Z</time>
</trkpt>
<trkpt lat="-27.7631149" lon="152.7374656">
<ele>37.838</ele>
<time>2015-12-04T21:27:11.657Z</time>
</trkpt>
<trkpt lat="-27.7638367" lon="152.7376605">
<ele>37.523</ele>
<time>2015-12-04T21:27:14.667Z</time>
</trkpt>
<trkpt lat="-27.7643226" lon="152.7376995">
<ele>37.244</ele>
<time>2015-12-04T21:27:16.633Z</time>
</trkpt>
<trkpt lat="-27.7650564" lon="152.7375980">
<ele>37.311</ele>
<time>2015-12-04T21:27:19.540Z</time>
</trkpt>
<trkpt lat="-27.7658127" lon="152.7373495">
<ele>38.050</ele>
<time>2015-12-04T21:27:22.552Z</time>
</trkpt>
<trkpt lat="-27.7663118" lon="152.7371812">
<ele>39.532</ele>
<time>2015-12-04T21:27:24.562Z</time>
</trkpt>
<trkpt lat="-27.7668225" lon="152.7370157">
<ele>41.204</ele>
<time>2015-12-04T21:27:26.671Z</time>
</trkpt>
<trkpt lat="-27.7675056" lon="152.7367703">
<ele>42.097</ele>
<time>2015-12-04T21:27:29.602Z</time>
</trkpt>
<trkpt lat="-27.7679793" lon="152.7366007">
<ele>41.549</ele>
<time>2015-12-04T21:27:31.678Z</time>
</trkpt>
<trkpt lat="-27.7684464" lon="152.7364415">
<ele>39.790</ele>
<time>2015-12-04T21:27:33.796Z</time>
</trkpt>
<trkpt lat="-27.7690603" lon="152.7362266">
<ele>37.567</ele>
<time>2015-12-04T21:27:36.860Z</time>
</trkpt>
<trkpt lat="-27.7696307" lon="152.7360303">
<ele>35.071</ele>
<time>2015-12-04T21:27:39.911Z</time>
</trkpt>
<trkpt lat="-27.7701704" lon="152.7358399">
<ele>32.241</ele>
<time>2015-12-04T21:27:42.936Z</time>
</trkpt>
<trkpt lat="-27.7705218" lon="152.7357149">
<ele>29.713</ele>
<time>2015-12-04T21:27:44.929Z</time>
</trkpt>
<trkpt lat="-27.7710574" lon="152.7355338">
<ele>28.168</ele>
<time>2015-12-04T21:27:47.918Z</time>
</trkpt>
<trkpt lat="-27.7714240" lon="152.7354112">
<ele>27.560</ele>
<time>2015-12-04T21:27:49.954Z</time>
</trkpt>
<trkpt lat="-27.7717609" lon="152.7352982">
<ele>27.582</ele>
<time>2015-12-04T21:27:51.872Z</time>
</trkpt>
<trkpt lat="-27.7721235" lon="152.7351547">
<ele>27.914</ele>
<time>2015-12-04T21:27:54.089Z</time>
</trkpt>
<trkpt lat="-27.7724349" lon="152.7350325">
<ele>28.194</ele>
<time>2015-12-04T21:27:56.136Z</time>
</trkpt>
<trkpt lat="-27.7727556" lon="152.7349303">
<ele>27.975</ele>
<time>2015-12-04T21:27:58.280Z</time>
</trkpt>
<trkpt lat="-27.7731770" lon="152.7347847">
<ele>27.073</ele>
<time>2015-12-04T21:28:01.222Z</time>
</trkpt>
<trkpt lat="-27.7735947" lon="152.7346538">
<ele>25.892</ele>
<time>2015-12-04T21:28:04.081Z</time>
</trkpt>
<trkpt lat="-27.7740219" lon="152.7344873">
<ele>25.019</ele>
<time>2015-12-04T21:28:07.017Z</time>
</trkpt>
<trkpt lat="-27.7744555" lon="152.7343233">
<ele>24.581</ele>
<time>2015-12-04T21:28:10.064Z</time>
</trkpt>
<trkpt lat="-27.7747330" lon="152.7342292">
<ele>24.498</ele>
<time>2015-12-04T21:28:12.028Z</time>
</trkpt>
<trkpt lat="-27.7750408" lon="152.7341199">
<ele>24.725</ele>
<time>2015-12-04T21:28:14.195Z</time>
</trkpt>
<trkpt lat="-27.7753188" lon="152.7340417">
<ele>25.066</ele>
<time>2015-12-04T21:28:16.067Z</time>
</trkpt>
<trkpt lat="-27.7757834" lon="152.7338756">
<ele>25.317</ele>
<time>2015-12-04T21:28:19.066Z</time>
</trkpt>
<trkpt lat="-27.7762727" lon="152.7337080">
<ele>25.599</ele>
<time>2015-12-04T21:28:22.190Z</time>
</trkpt>
<trkpt lat="-27.7767283" lon="152.7335472">
<ele>26.106</ele>
<time>2015-12-04T21:28:25.174Z</time>
</trkpt>
<trkpt lat="-27.7770272" lon="152.7334443">
<ele>26.717</ele>
<time>2015-12-04T21:28:27.119Z</time>
</trkpt>
<trkpt lat="-27.7775019" lon="152.7332682">
<ele>27.132</ele>
<time>2015-12-04T21:28:30.202Z</time>
</trkpt>
<trkpt lat="-27.7778331" lon="152.7331583">
<ele>27.248</ele>
<time>2015-12-04T21:28:32.370Z</time>
</trkpt>
<trkpt lat="-27.7781263" lon="152.7330267">
<ele>27.088</ele>
<time>2015-12-04T21:28:34.350Z</time>
</trkpt>
<trkpt lat="-27.7783823" lon="152.7328466">
<ele>26.667</ele>
<time>2015-12-04T21:28:36.193Z</time>
</trkpt>
<trkpt lat="-27.7787421" lon="152.7324736">
<ele>26.152</ele>
<time>2015-12-04T21:28:39.085Z</time>
</trkpt>
<trkpt lat="-27.7789794" lon="152.7322397">
<ele>26.009</ele>
<time>2015-12-04T21:28:40.958Z</time>
</trkpt>
<trkpt lat="-27.7792523" lon="152.7320129">
<ele>26.434</ele>
<time>2015-12-04T21:28:42.984Z</time>
</trkpt>
<trkpt lat="-27.7795160" lon="152.7317809">
<ele>26.957</ele>
<time>2015-12-04T21:28:45.001Z</time>
</trkpt>
<trkpt lat="-27.7797865" lon="152.7315615">
<ele>27.144</ele>
<time>2015-12-04T21:28:47.029Z</time>
</trkpt>
<trkpt lat="-27.7800508" lon="152.7313482">
<ele>27.037</ele>
<time>2015-12-04T21:28:49.011Z</time>
</trkpt>
<trkpt lat="-27.7804537" lon="152.7310327">
<ele>26.936</ele>
<time>2015-12-04T21:28:51.941Z</time>
</trkpt>
<trkpt lat="-27.7807277" lon="152.7308212">
<ele>27.076</ele>
<time>2015-12-04T21:28:53.916Z</time>
</trkpt>
<trkpt lat="-27.7811304" lon="152.7304729">
<ele>27.448</ele>
<time>2015-12-04T21:28:57.050Z</time>
</trkpt>
<trkpt lat="-27.7813966" lon="152.7302720">
<ele>27.801</ele>
<time>2015-12-04T21:28:59.127Z</time>
</trkpt>
<trkpt lat="-27.7816548" lon="152.7300887">
<ele>27.902</ele>
<time>2015-12-04T21:29:01.139Z</time>
</trkpt>
<trkpt lat="-27.7820722" lon="152.7298904">
<ele>27.785</ele>
<time>2015-12-04T21:29:04.120Z</time>
</trkpt>
<trkpt lat="-27.7825167" lon="152.7298382">
<ele>27.855</ele>
<time>2015-12-04T21:29:06.971Z</time>
</trkpt>
<trkpt lat="-27.7828372" lon="152.7298760">
<ele>28.443</ele>
<time>2015-12-04T21:29:09.008Z</time>
</trkpt>
<trkpt lat="-27.7831402" lon="152.7299754">
<ele>29.341</ele>
<time>2015-12-04T21:29:10.998Z</time>
</trkpt>
<trkpt lat="-27.7835663" lon="152.7302142">
<ele>30.083</ele>
<time>2015-12-04T21:29:13.933Z</time>
</trkpt>
<trkpt lat="-27.7838547" lon="152.7303984">
<ele>30.623</ele>
<time>2015-12-04T21:29:15.955Z</time>
</trkpt>
<trkpt lat="-27.7843066" lon="152.7306421">
<ele>31.253</ele>
<time>2015-12-04T21:29:18.958Z</time>
</trkpt>
<trkpt lat="-27.7845986" lon="152.7308281">
<ele>32.192</ele>
<time>2015-12-04T21:29:20.950Z</time>
</trkpt>
<trkpt lat="-27.7850625" lon="152.7310464">
<ele>33.369</ele>
<time>2015-12-04T21:29:23.997Z</time>
</trkpt>
<trkpt lat="-27.7853497" lon="152.7312428">
<ele>34.277</ele>
<time>2015-12-04T21:29:26.044Z</time>
</trkpt>
<trkpt lat="-27.7856322" lon="152.7314293">
<ele>34.326</ele>
<time>2015-12-04T21:29:28.008Z</time>
</trkpt>
<trkpt lat="-27.7859162" lon="152.7316181">
<ele>33.619</ele>
<time>2015-12-04T21:29:29.968Z</time>
</trkpt>
<trkpt lat="-27.7863619" lon="152.7318976">
<ele>33.145</ele>
<time>2015-12-04T21:29:32.929Z</time>
</trkpt>
<trkpt lat="-27.7866608" lon="152.7320835">
<ele>33.576</ele>
<time>2015-12-04T21:29:34.883Z</time>
</trkpt>
<trkpt lat="-27.7871249" lon="152.7323871">
<ele>34.569</ele>
<time>2015-12-04T21:29:37.773Z</time>
</trkpt>
<trkpt lat="-27.7874540" lon="152.7326049">
<ele>35.469</ele>
<time>2015-12-04T21:29:39.697Z</time>
</trkpt>
<trkpt lat="-27.7880350" lon="152.7328995">
<ele>36.358</ele>
<time>2015-12-04T21:29:42.671Z</time>
</trkpt>
<trkpt lat="-27.7884190" lon="152.7331421">
<ele>38.039</ele>
<time>2015-12-04T21:29:44.672Z</time>
</trkpt>
<trkpt lat="-27.7889755" lon="152.7334705">
<ele>40.620</ele>
<time>2015-12-04T21:29:47.457Z</time>
</trkpt>
<trkpt lat="-27.7893682" lon="152.7337310">
<ele>43.044</ele>
<time>2015-12-04T21:29:49.426Z</time>
</trkpt>
<trkpt lat="-27.7899923" lon="152.7341227">
<ele>45.054</ele>
<time>2015-12-04T21:29:52.487Z</time>
</trkpt>
<trkpt lat="-27.7904128" lon="152.7343937">
<ele>47.212</ele>
<time>2015-12-04T21:29:54.570Z</time>
</trkpt>
<trkpt lat="-27.7910175" lon="152.7347799">
<ele>49.237</ele>
<time>2015-12-04T21:29:57.615Z</time>
</trkpt>
<trkpt lat="-27.7914161" lon="152.7349943">
<ele>50.603</ele>
<time>2015-12-04T21:29:59.556Z</time>
</trkpt>
<trkpt lat="-27.7918235" lon="152.7352231">
<ele>51.539</ele>
<time>2015-12-04T21:30:01.537Z</time>
</trkpt>
<trkpt lat="-27.7924765" lon="152.7354724">
<ele>52.554</ele>
<time>2015-12-04T21:30:04.457Z</time>
</trkpt>
<trkpt lat="-27.7929519" lon="152.7355834">
<ele>54.213</ele>
<time>2015-12-04T21:30:06.449Z</time>
</trkpt>
<trkpt lat="-27.7936662" lon="152.7356676">
<ele>56.993</ele>
<time>2015-12-04T21:30:09.316Z</time>
</trkpt>
<trkpt lat="-27.7941746" lon="152.7356736">
<ele>60.274</ele>
<time>2015-12-04T21:30:11.300Z</time>
</trkpt>
<trkpt lat="-27.7946971" lon="152.7356338">
<ele>62.541</ele>
<time>2015-12-04T21:30:13.351Z</time>
</trkpt>
<trkpt lat="-27.7952137" lon="152.7355151">
<ele>63.158</ele>
<time>2015-12-04T21:30:15.462Z</time>
</trkpt>
<trkpt lat="-27.7959311" lon="152.7353766">
<ele>62.664</ele>
<time>2015-12-04T21:30:18.483Z</time>
</trkpt>
<trkpt lat="-27.7966217" lon="152.7352362">
<ele>61.483</ele>
<time>2015-12-04T21:30:21.419Z</time>
</trkpt>
<trkpt lat="-27.7973267" lon="152.7350963">
<ele>60.049</ele>
<time>2015-12-04T21:30:24.355Z</time>
</trkpt>
<trkpt lat="-27.7980441" lon="152.7349502">
<ele>59.464</ele>
<time>2015-12-04T21:30:27.338Z</time>
</trkpt>
<trkpt lat="-27.7985191" lon="152.7348605">
<ele>60.343</ele>
<time>2015-12-04T21:30:29.340Z</time>
</trkpt>
<trkpt lat="-27.7992379" lon="152.7347840">
<ele>61.910</ele>
<time>2015-12-04T21:30:32.395Z</time>
</trkpt>
<trkpt lat="-27.7997032" lon="152.7347877">
<ele>63.286</ele>
<time>2015-12-04T21:30:34.385Z</time>
</trkpt>
<trkpt lat="-27.8003986" lon="152.7348973">
<ele>64.394</ele>
<time>2015-12-04T21:30:37.335Z</time>
</trkpt>
<trkpt lat="-27.8008765" lon="152.7350353">
<ele>65.376</ele>
<time>2015-12-04T21:30:39.335Z</time>
</trkpt>
<trkpt lat="-27.8013639" lon="152.7352064">
<ele>66.204</ele>
<time>2015-12-04T21:30:41.336Z</time>
</trkpt>
<trkpt lat="-27.8020887" lon="152.7355396">
<ele>66.723</ele>
<time>2015-12-04T21:30:44.334Z</time>
</trkpt>
<trkpt lat="-27.8025639" lon="152.7357703">
<ele>66.855</ele>
<time>2015-12-04T21:30:46.310Z</time>
</trkpt>
<trkpt lat="-27.8032734" lon="152.7361232">
<ele>66.487</ele>
<time>2015-12-04T21:30:49.314Z</time>
</trkpt>
<trkpt lat="-27.8039872" lon="152.7364381">
<ele>65.242</ele>
<time>2015-12-04T21:30:52.327Z</time>
</trkpt>
<trkpt lat="-27.8046800" lon="152.7367719">
<ele>63.316</ele>
<time>2015-12-04T21:30:55.278Z</time>
</trkpt>
<trkpt lat="-27.8051649" lon="152.7370049">
<ele>61.687</ele>
<time>2015-12-04T21:30:57.323Z</time>
</trkpt>
<trkpt lat="-27.8058793" lon="152.7373301">
<ele>61.012</ele>
<time>2015-12-04T21:31:00.380Z</time>
</trkpt>
<trkpt lat="-27.8063364" lon="152.7375518">
<ele>61.223</ele>
<time>2015-12-04T21:31:02.405Z</time>
</trkpt>
<trkpt lat="-27.8070199" lon="152.7378526">
<ele>61.881</ele>
<time>2015-12-04T21:31:05.430Z</time>
</trkpt>
<trkpt lat="-27.8076711" lon="152.7381542">
<ele>62.434</ele>
<time>2015-12-04T21:31:08.437Z</time>
</trkpt>
<trkpt lat="-27.8080864" lon="152.7383681">
<ele>63.017</ele>
<time>2015-12-04T21:31:10.440Z</time>
</trkpt>
<trkpt lat="-27.8087111" lon="152.7386715">
<ele>64.067</ele>
<time>2015-12-04T21:31:13.395Z</time>
</trkpt>
<trkpt lat="-27.8093465" lon="152.7389769">
<ele>65.340</ele>
<time>2015-12-04T21:31:16.270Z</time>
</trkpt>
<trkpt lat="-27.8097982" lon="152.7392087">
<ele>66.322</ele>
<time>2015-12-04T21:31:18.215Z</time>
</trkpt>
<trkpt lat="-27.8105187" lon="152.7395567">
<ele>67.080</ele>
<time>2015-12-04T21:31:21.229Z</time>
</trkpt>
<trkpt lat="-27.8112647" lon="152.7399055">
<ele>67.785</ele>
<time>2015-12-04T21:31:24.339Z</time>
</trkpt>
<trkpt lat="-27.8117336" lon="152.7401166">
<ele>67.374</ele>
<time>2015-12-04T21:31:26.295Z</time>
</trkpt>
<trkpt lat="-27.8122051" lon="152.7403474">
<ele>64.828</ele>
<time>2015-12-04T21:31:28.273Z</time>
</trkpt>
<trkpt lat="-27.8126982" lon="152.7405654">
<ele>61.446</ele>
<time>2015-12-04T21:31:30.297Z</time>
</trkpt>
<trkpt lat="-27.8134299" lon="152.7409084">
<ele>59.256</ele>
<time>2015-12-04T21:31:33.319Z</time>
</trkpt>
<trkpt lat="-27.8139110" lon="152.7411372">
<ele>58.570</ele>
<time>2015-12-04T21:31:35.327Z</time>
</trkpt>
<trkpt lat="-27.8146184" lon="152.7414756">
<ele>58.517</ele>
<time>2015-12-04T21:31:38.400Z</time>
</trkpt>
<trkpt lat="-27.8152893" lon="152.7417965">
<ele>58.339</ele>
<time>2015-12-04T21:31:41.493Z</time>
</trkpt>
<trkpt lat="-27.8157054" lon="152.7419982">
<ele>57.989</ele>
<time>2015-12-04T21:31:43.456Z</time>
</trkpt>
<trkpt lat="-27.8163401" lon="152.7422705">
<ele>57.772</ele>
<time>2015-12-04T21:31:46.319Z</time>
</trkpt>
<trkpt lat="-27.8168023" lon="152.7424146">
<ele>58.521</ele>
<time>2015-12-04T21:31:48.250Z</time>
</trkpt>
<trkpt lat="-27.8175395" lon="152.7426261">
<ele>60.849</ele>
<time>2015-12-04T21:31:51.269Z</time>
</trkpt>
<trkpt lat="-27.8180351" lon="152.7427663">
<ele>63.670</ele>
<time>2015-12-04T21:31:53.351Z</time>
</trkpt>
<trkpt lat="-27.8187212" lon="152.7429674">
<ele>65.370</ele>
<time>2015-12-04T21:31:56.316Z</time>
</trkpt>
<trkpt lat="-27.8191763" lon="152.7431038">
<ele>65.483</ele>
<time>2015-12-04T21:31:58.264Z</time>
</trkpt>
<trkpt lat="-27.8198895" lon="152.7433021">
<ele>64.364</ele>
<time>2015-12-04T21:32:01.183Z</time>
</trkpt>
<trkpt lat="-27.8206482" lon="152.7435202">
<ele>62.889</ele>
<time>2015-12-04T21:32:04.194Z</time>
</trkpt>
<trkpt lat="-27.8214060" lon="152.7437260">
<ele>61.641</ele>
<time>2015-12-04T21:32:07.199Z</time>
</trkpt>
<trkpt lat="-27.8219058" lon="152.7438247">
<ele>60.613</ele>
<time>2015-12-04T21:32:09.192Z</time>
</trkpt>
<trkpt lat="-27.8226669" lon="152.7438253">
<ele>60.051</ele>
<time>2015-12-04T21:32:12.149Z</time>
</trkpt>
<trkpt lat="-27.8232056" lon="152.7437745">
<ele>60.609</ele>
<time>2015-12-04T21:32:14.133Z</time>
</trkpt>
<trkpt lat="-27.8237764" lon="152.7436674">
<ele>62.637</ele>
<time>2015-12-04T21:32:16.196Z</time>
</trkpt>
<trkpt lat="-27.8243196" lon="152.7435731">
<ele>65.357</ele>
<time>2015-12-04T21:32:18.228Z</time>
</trkpt>
<trkpt lat="-27.8248407" lon="152.7434753">
<ele>66.580</ele>
<time>2015-12-04T21:32:20.271Z</time>
</trkpt>
<trkpt lat="-27.8255916" lon="152.7433375">
<ele>64.891</ele>
<time>2015-12-04T21:32:23.285Z</time>
</trkpt>
<trkpt lat="-27.8260785" lon="152.7432503">
<ele>61.658</ele>
<time>2015-12-04T21:32:25.287Z</time>
</trkpt>
<trkpt lat="-27.8265466" lon="152.7431705">
<ele>59.452</ele>
<time>2015-12-04T21:32:27.227Z</time>
</trkpt>
<trkpt lat="-27.8270303" lon="152.7430815">
<ele>59.585</ele>
<time>2015-12-04T21:32:29.230Z</time>
</trkpt>
<trkpt lat="-27.8277640" lon="152.7429331">
<ele>61.818</ele>
<time>2015-12-04T21:32:32.282Z</time>
</trkpt>
<trkpt lat="-27.8282238" lon="152.7428407">
<ele>65.691</ele>
<time>2015-12-04T21:32:34.198Z</time>
</trkpt>
<trkpt lat="-27.8289554" lon="152.7426967">
<ele>70.480</ele>
<time>2015-12-04T21:32:37.212Z</time>
</trkpt>
<trkpt lat="-27.8294437" lon="152.7426082">
<ele>74.754</ele>
<time>2015-12-04T21:32:39.168Z</time>
</trkpt>
<trkpt lat="-27.8302065" lon="152.7424836">
<ele>77.422</ele>
<time>2015-12-04T21:32:42.167Z</time>
</trkpt>
<trkpt lat="-27.8309716" lon="152.7423282">
<ele>78.203</ele>
<time>2015-12-04T21:32:45.194Z</time>
</trkpt>
<trkpt lat="-27.8314806" lon="152.7422381">
<ele>76.970</ele>
<time>2015-12-04T21:32:47.211Z</time>
</trkpt>
<trkpt lat="-27.8322403" lon="152.7420872">
<ele>74.267</ele>
<time>2015-12-04T21:32:50.233Z</time>
</trkpt>
<trkpt lat="-27.8327349" lon="152.7419926">
<ele>71.365</ele>
<time>2015-12-04T21:32:52.209Z</time>
</trkpt>
<trkpt lat="-27.8332339" lon="152.7419005">
<ele>69.419</ele>
<time>2015-12-04T21:32:54.179Z</time>
</trkpt>
<trkpt lat="-27.8340022" lon="152.7417636">
<ele>68.747</ele>
<time>2015-12-04T21:32:57.169Z</time>
</trkpt>
<trkpt lat="-27.8345217" lon="152.7416699">
<ele>69.172</ele>
<time>2015-12-04T21:32:59.182Z</time>
</trkpt>
<trkpt lat="-27.8350324" lon="152.7415684">
<ele>70.314</ele>
<time>2015-12-04T21:33:01.197Z</time>
</trkpt>
<trkpt lat="-27.8357923" lon="152.7414214">
<ele>71.495</ele>
<time>2015-12-04T21:33:04.216Z</time>
</trkpt>
<trkpt lat="-27.8362939" lon="152.7413299">
<ele>72.200</ele>
<time>2015-12-04T21:33:06.190Z</time>
</trkpt>
<trkpt lat="-27.8370595" lon="152.7411795">
<ele>72.543</ele>
<time>2015-12-04T21:33:09.203Z</time>
</trkpt>
<trkpt lat="-27.8378215" lon="152.7410195">
<ele>72.818</ele>
<time>2015-12-04T21:33:12.258Z</time>
</trkpt>
<trkpt lat="-27.8385566" lon="152.7408814">
<ele>73.372</ele>
<time>2015-12-04T21:33:15.256Z</time>
</trkpt>
<trkpt lat="-27.8392813" lon="152.7407773">
<ele>74.806</ele>
<time>2015-12-04T21:33:18.244Z</time>
</trkpt>
<trkpt lat="-27.8397484" lon="152.7406892">
<ele>77.653</ele>
<time>2015-12-04T21:33:20.244Z</time>
</trkpt>
<trkpt lat="-27.8402104" lon="152.7405949">
<ele>81.498</ele>
<time>2015-12-04T21:33:22.230Z</time>
</trkpt>
<trkpt lat="-27.8409104" lon="152.7404634">
<ele>85.310</ele>
<time>2015-12-04T21:33:25.157Z</time>
</trkpt>
<trkpt lat="-27.8416316" lon="152.7403374">
<ele>88.439</ele>
<time>2015-12-04T21:33:28.076Z</time>
</trkpt>
<trkpt lat="-27.8421409" lon="152.7402225">
<ele>90.569</ele>
<time>2015-12-04T21:33:30.042Z</time>
</trkpt>
<trkpt lat="-27.8429565" lon="152.7401020">
<ele>91.115</ele>
<time>2015-12-04T21:33:33.078Z</time>
</trkpt>
<trkpt lat="-27.8435038" lon="152.7400027">
<ele>89.491</ele>
<time>2015-12-04T21:33:35.102Z</time>
</trkpt>
<trkpt lat="-27.8440313" lon="152.7398962">
<ele>85.732</ele>
<time>2015-12-04T21:33:37.092Z</time>
</trkpt>
<trkpt lat="-27.8448235" lon="152.7397097">
<ele>81.222</ele>
<time>2015-12-04T21:33:40.177Z</time>
</trkpt>
<trkpt lat="-27.8453203" lon="152.7396175">
<ele>77.640</ele>
<time>2015-12-04T21:33:42.211Z</time>
</trkpt>
<trkpt lat="-27.8460278" lon="152.7394608">
<ele>75.338</ele>
<time>2015-12-04T21:33:45.252Z</time>
</trkpt>
<trkpt lat="-27.8464702" lon="152.7393732">
<ele>73.552</ele>
<time>2015-12-04T21:33:47.236Z</time>
</trkpt>
<trkpt lat="-27.8471243" lon="152.7392463">
<ele>71.940</ele>
<time>2015-12-04T21:33:50.184Z</time>
</trkpt>
<trkpt lat="-27.8475591" lon="152.7391635">
<ele>71.334</ele>
<time>2015-12-04T21:33:52.124Z</time>
</trkpt>
<trkpt lat="-27.8480011" lon="152.7390935">
<ele>72.761</ele>
<time>2015-12-04T21:33:54.035Z</time>
</trkpt>
<trkpt lat="-27.8487033" lon="152.7389795">
<ele>75.486</ele>
<time>2015-12-04T21:33:57.016Z</time>
</trkpt>
<trkpt lat="-27.8491808" lon="152.7388763">
<ele>77.327</ele>
<time>2015-12-04T21:33:58.991Z</time>
</trkpt>
<trkpt lat="-27.8499499" lon="152.7387640">
<ele>76.805</ele>
<time>2015-12-04T21:34:02.017Z</time>
</trkpt>
<trkpt lat="-27.8504673" lon="152.7386578">
<ele>74.342</ele>
<time>2015-12-04T21:34:04.045Z</time>
</trkpt>
<trkpt lat="-27.8509708" lon="152.7385566">
<ele>71.566</ele>
<time>2015-12-04T21:34:06.039Z</time>
</trkpt>
<trkpt lat="-27.8514643" lon="152.7384406">
<ele>69.709</ele>
<time>2015-12-04T21:34:08.026Z</time>
</trkpt>
<trkpt lat="-27.8521975" lon="152.7381639">
<ele>68.856</ele>
<time>2015-12-04T21:34:11.092Z</time>
</trkpt>
<trkpt lat="-27.8528611" lon="152.7377798">
<ele>68.628</ele>
<time>2015-12-04T21:34:14.065Z</time>
</trkpt>
<trkpt lat="-27.8532879" lon="152.7374831">
<ele>69.471</ele>
<time>2015-12-04T21:34:16.047Z</time>
</trkpt>
<trkpt lat="-27.8539142" lon="152.7369341">
<ele>71.641</ele>
<time>2015-12-04T21:34:19.161Z</time>
</trkpt>
<trkpt lat="-27.8544488" lon="152.7363004">
<ele>74.241</ele>
<time>2015-12-04T21:34:22.219Z</time>
</trkpt>
<trkpt lat="-27.8547647" lon="152.7358552">
<ele>76.279</ele>
<time>2015-12-04T21:34:24.261Z</time>
</trkpt>
<trkpt lat="-27.8552055" lon="152.7352121">
<ele>77.255</ele>
<time>2015-12-04T21:34:27.152Z</time>
</trkpt>
<trkpt lat="-27.8556750" lon="152.7345640">
<ele>77.103</ele>
<time>2015-12-04T21:34:30.047Z</time>
</trkpt>
<trkpt lat="-27.8560244" lon="152.7341326">
<ele>77.313</ele>
<time>2015-12-04T21:34:32.008Z</time>
</trkpt>
<trkpt lat="-27.8564046" lon="152.7336857">
<ele>79.273</ele>
<time>2015-12-04T21:34:34.085Z</time>
</trkpt>
<trkpt lat="-27.8567774" lon="152.7332511">
<ele>82.113</ele>
<time>2015-12-04T21:34:36.133Z</time>
</trkpt>
<trkpt lat="-27.8571438" lon="152.7328186">
<ele>84.429</ele>
<time>2015-12-04T21:34:38.152Z</time>
</trkpt>
<trkpt lat="-27.8576836" lon="152.7321986">
<ele>86.134</ele>
<time>2015-12-04T21:34:41.072Z</time>
</trkpt>
<trkpt lat="-27.8582259" lon="152.7315577">
<ele>87.575</ele>
<time>2015-12-04T21:34:44.069Z</time>
</trkpt>
<trkpt lat="-27.8585889" lon="152.7311435">
<ele>88.978</ele>
<time>2015-12-04T21:34:46.105Z</time>
</trkpt>
<trkpt lat="-27.8589493" lon="152.7307488">
<ele>90.238</ele>
<time>2015-12-04T21:34:48.146Z</time>
</trkpt>
<trkpt lat="-27.8592890" lon="152.7303602">
<ele>90.970</ele>
<time>2015-12-04T21:34:50.145Z</time>
</trkpt>
<trkpt lat="-27.8597985" lon="152.7297908">
<ele>91.324</ele>
<time>2015-12-04T21:34:53.121Z</time>
</trkpt>
<trkpt lat="-27.8601678" lon="152.7294385">
<ele>91.771</ele>
<time>2015-12-04T21:34:55.113Z</time>
</trkpt>
<trkpt lat="-27.8605615" lon="152.7291202">
<ele>92.496</ele>
<time>2015-12-04T21:34:57.064Z</time>
</trkpt>
<trkpt lat="-27.8612156" lon="152.7287206">
<ele>93.684</ele>
<time>2015-12-04T21:35:00.027Z</time>
</trkpt>
<trkpt lat="-27.8616745" lon="152.7284828">
<ele>95.690</ele>
<time>2015-12-04T21:35:02.017Z</time>
</trkpt>
<trkpt lat="-27.8623747" lon="152.7281483">
<ele>98.142</ele>
<time>2015-12-04T21:35:05.035Z</time>
</trkpt>
<trkpt lat="-27.8630671" lon="152.7279001">
<ele>100.217</ele>
<time>2015-12-04T21:35:07.955Z</time>
</trkpt>
<trkpt lat="-27.8637815" lon="152.7277740">
<ele>102.026</ele>
<time>2015-12-04T21:35:10.880Z</time>
</trkpt>
<trkpt lat="-27.8642872" lon="152.7276717">
<ele>104.133</ele>
<time>2015-12-04T21:35:12.957Z</time>
</trkpt>
<trkpt lat="-27.8650198" lon="152.7275527">
<ele>106.401</ele>
<time>2015-12-04T21:35:15.916Z</time>
</trkpt>
<trkpt lat="-27.8657752" lon="152.7275095">
<ele>108.253</ele>
<time>2015-12-04T21:35:18.909Z</time>
</trkpt>
<trkpt lat="-27.8662982" lon="152.7275293">
<ele>109.722</ele>
<time>2015-12-04T21:35:20.980Z</time>
</trkpt>
<trkpt lat="-27.8670232" lon="152.7277235">
<ele>111.144</ele>
<time>2015-12-04T21:35:23.950Z</time>
</trkpt>
<trkpt lat="-27.8677395" lon="152.7279304">
<ele>111.281</ele>
<time>2015-12-04T21:35:26.928Z</time>
</trkpt>
<trkpt lat="-27.8682351" lon="152.7280575">
<ele>108.522</ele>
<time>2015-12-04T21:35:28.972Z</time>
</trkpt>
<trkpt lat="-27.8689486" lon="152.7282705">
<ele>103.943</ele>
<time>2015-12-04T21:35:31.928Z</time>
</trkpt>
<trkpt lat="-27.8694311" lon="152.7284067">
<ele>99.612</ele>
<time>2015-12-04T21:35:33.897Z</time>
</trkpt>
<trkpt lat="-27.8701737" lon="152.7286387">
<ele>96.136</ele>
<time>2015-12-04T21:35:36.937Z</time>
</trkpt>
<trkpt lat="-27.8706615" lon="152.7287996">
<ele>93.387</ele>
<time>2015-12-04T21:35:38.969Z</time>
</trkpt>
<trkpt lat="-27.8713713" lon="152.7290483">
<ele>91.244</ele>
<time>2015-12-04T21:35:41.944Z</time>
</trkpt>
<trkpt lat="-27.8720700" lon="152.7293390">
<ele>89.495</ele>
<time>2015-12-04T21:35:44.905Z</time>
</trkpt>
<trkpt lat="-27.8725423" lon="152.7295424">
<ele>88.159</ele>
<time>2015-12-04T21:35:46.925Z</time>
</trkpt>
<trkpt lat="-27.8730070" lon="152.7297385">
<ele>87.494</ele>
<time>2015-12-04T21:35:48.929Z</time>
</trkpt>
<trkpt lat="-27.8736912" lon="152.7300395">
<ele>87.498</ele>
<time>2015-12-04T21:35:51.896Z</time>
</trkpt>
<trkpt lat="-27.8744079" lon="152.7302699">
<ele>87.490</ele>
<time>2015-12-04T21:35:54.906Z</time>
</trkpt>
<trkpt lat="-27.8748828" lon="152.7303716">
<ele>86.901</ele>
<time>2015-12-04T21:35:56.860Z</time>
</trkpt>
<trkpt lat="-27.8756264" lon="152.7304576">
<ele>86.027</ele>
<time>2015-12-04T21:35:59.906Z</time>
</trkpt>
<trkpt lat="-27.8760984" lon="152.7305263">
<ele>85.571</ele>
<time>2015-12-04T21:36:01.870Z</time>
</trkpt>
<trkpt lat="-27.8765899" lon="152.7305788">
<ele>85.704</ele>
<time>2015-12-04T21:36:03.894Z</time>
</trkpt>
<trkpt lat="-27.8770751" lon="152.7306243">
<ele>86.057</ele>
<time>2015-12-04T21:36:05.866Z</time>
</trkpt>
<trkpt lat="-27.8778296" lon="152.7306931">
<ele>86.313</ele>
<time>2015-12-04T21:36:08.922Z</time>
</trkpt>
<trkpt lat="-27.8785643" lon="152.7307123">
<ele>86.627</ele>
<time>2015-12-04T21:36:11.846Z</time>
</trkpt>
<trkpt lat="-27.8793367" lon="152.7306060">
<ele>87.214</ele>
<time>2015-12-04T21:36:14.875Z</time>
</trkpt>
<trkpt lat="-27.8798493" lon="152.7304722">
<ele>87.906</ele>
<time>2015-12-04T21:36:16.891Z</time>
</trkpt>
<trkpt lat="-27.8806008" lon="152.7301748">
<ele>88.374</ele>
<time>2015-12-04T21:36:19.922Z</time>
</trkpt>
<trkpt lat="-27.8810366" lon="152.7299095">
<ele>87.668</ele>
<time>2015-12-04T21:36:21.898Z</time>
</trkpt>
<trkpt lat="-27.8816693" lon="152.7295200">
<ele>85.014</ele>
<time>2015-12-04T21:36:24.876Z</time>
</trkpt>
<trkpt lat="-27.8820497" lon="152.7292140">
<ele>81.335</ele>
<time>2015-12-04T21:36:26.858Z</time>
</trkpt>
<trkpt lat="-27.8824881" lon="152.7289838">
<ele>78.159</ele>
<time>2015-12-04T21:36:28.901Z</time>
</trkpt>
<trkpt lat="-27.8831147" lon="152.7286593">
<ele>76.148</ele>
<time>2015-12-04T21:36:31.816Z</time>
</trkpt>
<trkpt lat="-27.8835688" lon="152.7284657">
<ele>75.575</ele>
<time>2015-12-04T21:36:33.857Z</time>
</trkpt>
<trkpt lat="-27.8840303" lon="152.7282920">
<ele>76.347</ele>
<time>2015-12-04T21:36:35.895Z</time>
</trkpt>
<trkpt lat="-27.8847106" lon="152.7280586">
<ele>77.865</ele>
<time>2015-12-04T21:36:38.789Z</time>
</trkpt>
<trkpt lat="-27.8854758" lon="152.7278059">
<ele>79.623</ele>
<time>2015-12-04T21:36:41.903Z</time>
</trkpt>
<trkpt lat="-27.8859453" lon="152.7276369">
<ele>81.676</ele>
<time>2015-12-04T21:36:43.802Z</time>
</trkpt>
<trkpt lat="-27.8864560" lon="152.7274365">
<ele>83.792</ele>
<time>2015-12-04T21:36:45.882Z</time>
</trkpt>
<trkpt lat="-27.8872102" lon="152.7271271">
<ele>85.206</ele>
<time>2015-12-04T21:36:48.973Z</time>
</trkpt>
<trkpt lat="-27.8876879" lon="152.7269014">
<ele>85.648</ele>
<time>2015-12-04T21:36:50.959Z</time>
</trkpt>
<trkpt lat="-27.8881672" lon="152.7266708">
<ele>85.210</ele>
<time>2015-12-04T21:36:52.943Z</time>
</trkpt>
<trkpt lat="-27.8888974" lon="152.7263175">
<ele>84.138</ele>
<time>2015-12-04T21:36:55.937Z</time>
</trkpt>
<trkpt lat="-27.8896295" lon="152.7259513">
<ele>83.192</ele>
<time>2015-12-04T21:36:58.916Z</time>
</trkpt>
<trkpt lat="-27.8901125" lon="152.7257016">
<ele>82.984</ele>
<time>2015-12-04T21:37:00.896Z</time>
</trkpt>
<trkpt lat="-27.8908545" lon="152.7253463">
<ele>83.715</ele>
<time>2015-12-04T21:37:03.935Z</time>
</trkpt>
<trkpt lat="-27.8912874" lon="152.7251178">
<ele>85.272</ele>
<time>2015-12-04T21:37:05.798Z</time>
</trkpt>
<trkpt lat="-27.8917448" lon="152.7248946">
<ele>86.851</ele>
<time>2015-12-04T21:37:07.776Z</time>
</trkpt>
<trkpt lat="-27.8924680" lon="152.7245646">
<ele>87.713</ele>
<time>2015-12-04T21:37:10.878Z</time>
</trkpt>
<trkpt lat="-27.8929367" lon="152.7243331">
<ele>87.960</ele>
<time>2015-12-04T21:37:12.885Z</time>
</trkpt>
<trkpt lat="-27.8936163" lon="152.7239150">
<ele>87.963</ele>
<time>2015-12-04T21:37:15.807Z</time>
</trkpt>
<trkpt lat="-27.8940981" lon="152.7236266">
<ele>87.918</ele>
<time>2015-12-04T21:37:17.774Z</time>
</trkpt>
<trkpt lat="-27.8948137" lon="152.7231929">
<ele>87.879</ele>
<time>2015-12-04T21:37:20.676Z</time>
</trkpt>
<trkpt lat="-27.8955885" lon="152.7227511">
<ele>87.775</ele>
<time>2015-12-04T21:37:23.818Z</time>
</trkpt>
<trkpt lat="-27.8960393" lon="152.7224717">
<ele>87.548</ele>
<time>2015-12-04T21:37:25.791Z</time>
</trkpt>
<trkpt lat="-27.8964812" lon="152.7222041">
<ele>87.082</ele>
<time>2015-12-04T21:37:27.789Z</time>
</trkpt>
<trkpt lat="-27.8971310" lon="152.7218269">
<ele>85.999</ele>
<time>2015-12-04T21:37:30.722Z</time>
</trkpt>
<trkpt lat="-27.8975676" lon="152.7215267">
<ele>84.425</ele>
<time>2015-12-04T21:37:32.755Z</time>
</trkpt>
<trkpt lat="-27.8979817" lon="152.7211874">
<ele>83.415</ele>
<time>2015-12-04T21:37:34.716Z</time>
</trkpt>
<trkpt lat="-27.8985556" lon="152.7205335">
<ele>83.764</ele>
<time>2015-12-04T21:37:37.849Z</time>
</trkpt>
<trkpt lat="-27.8990368" lon="152.7198649">
<ele>85.008</ele>
<time>2015-12-04T21:37:40.917Z</time>
</trkpt>
<trkpt lat="-27.8993352" lon="152.7194479">
<ele>85.542</ele>
<time>2015-12-04T21:37:42.923Z</time>
</trkpt>
<trkpt lat="-27.8997735" lon="152.7188129">
<ele>84.555</ele>
<time>2015-12-04T21:37:45.953Z</time>
</trkpt>
<trkpt lat="-27.9002668" lon="152.7182397">
<ele>83.219</ele>
<time>2015-12-04T21:37:48.969Z</time>
</trkpt>
<trkpt lat="-27.9006335" lon="152.7179131">
<ele>82.764</ele>
<time>2015-12-04T21:37:50.962Z</time>
</trkpt>
<trkpt lat="-27.9012389" lon="152.7175069">
<ele>82.963</ele>
<time>2015-12-04T21:37:53.971Z</time>
</trkpt>
<trkpt lat="-27.9016730" lon="152.7172938">
<ele>83.196</ele>
<time>2015-12-04T21:37:55.980Z</time>
</trkpt>
<trkpt lat="-27.9023601" lon="152.7170765">
<ele>83.256</ele>
<time>2015-12-04T21:37:59.004Z</time>
</trkpt>
<trkpt lat="-27.9030327" lon="152.7168955">
<ele>83.465</ele>
<time>2015-12-04T21:38:01.952Z</time>
</trkpt>
<trkpt lat="-27.9037015" lon="152.7167215">
<ele>84.166</ele>
<time>2015-12-04T21:38:04.999Z</time>
</trkpt>
<trkpt lat="-27.9043244" lon="152.7165640">
<ele>84.978</ele>
<time>2015-12-04T21:38:08.096Z</time>
</trkpt>
<trkpt lat="-27.9046968" lon="152.7164940">
<ele>84.885</ele>
<time>2015-12-04T21:38:10.135Z</time>
</trkpt>
<trkpt lat="-27.9050465" lon="152.7164443">
<ele>83.651</ele>
<time>2015-12-04T21:38:12.041Z</time>
</trkpt>
<trkpt lat="-27.9055942" lon="152.7164610">
<ele>82.219</ele>
<time>2015-12-04T21:38:14.845Z</time>
</trkpt>
<trkpt lat="-27.9060151" lon="152.7165344">
<ele>82.033</ele>
<time>2015-12-04T21:38:16.728Z</time>
</trkpt>
<trkpt lat="-27.9067257" lon="152.7167401">
<ele>83.986</ele>
<time>2015-12-04T21:38:19.729Z</time>
</trkpt>
<trkpt lat="-27.9072185" lon="152.7169714">
<ele>87.971</ele>
<time>2015-12-04T21:38:21.727Z</time>
</trkpt>
<trkpt lat="-27.9077172" lon="152.7171922">
<ele>92.889</ele>
<time>2015-12-04T21:38:23.706Z</time>
</trkpt>
<trkpt lat="-27.9082422" lon="152.7173703">
<ele>97.092</ele>
<time>2015-12-04T21:38:25.682Z</time>
</trkpt>
<trkpt lat="-27.9088005" lon="152.7174744">
<ele>99.522</ele>
<time>2015-12-04T21:38:27.603Z</time>
</trkpt>
<trkpt lat="-27.9097216" lon="152.7175152">
<ele>100.848</ele>
<time>2015-12-04T21:38:30.593Z</time>
</trkpt>
<trkpt lat="-27.9103757" lon="152.7175357">
<ele>103.331</ele>
<time>2015-12-04T21:38:32.684Z</time>
</trkpt>
<trkpt lat="-27.9112941" lon="152.7175889">
<ele>107.691</ele>
<time>2015-12-04T21:38:35.745Z</time>
</trkpt>
<trkpt lat="-27.9118503" lon="152.7176148">
<ele>110.893</ele>
<time>2015-12-04T21:38:37.738Z</time>
</trkpt>
<trkpt lat="-27.9123874" lon="152.7176282">
<ele>110.705</ele>
<time>2015-12-04T21:38:39.803Z</time>
</trkpt>
<trkpt lat="-27.9131329" lon="152.7176362">
<ele>108.869</ele>
<time>2015-12-04T21:38:42.796Z</time>
</trkpt>
<trkpt lat="-27.9136110" lon="152.7175907">
<ele>107.501</ele>
<time>2015-12-04T21:38:44.732Z</time>
</trkpt>
<trkpt lat="-27.9143795" lon="152.7173898">
<ele>107.055</ele>
<time>2015-12-04T21:38:47.853Z</time>
</trkpt>
<trkpt lat="-27.9150959" lon="152.7171332">
<ele>107.538</ele>
<time>2015-12-04T21:38:50.807Z</time>
</trkpt>
<trkpt lat="-27.9157939" lon="152.7168639">
<ele>109.156</ele>
<time>2015-12-04T21:38:53.753Z</time>
</trkpt>
<trkpt lat="-27.9162503" lon="152.7166813">
<ele>111.981</ele>
<time>2015-12-04T21:38:55.708Z</time>
</trkpt>
<trkpt lat="-27.9167184" lon="152.7165138">
<ele>115.286</ele>
<time>2015-12-04T21:38:57.653Z</time>
</trkpt>
<trkpt lat="-27.9174746" lon="152.7163443">
<ele>118.309</ele>
<time>2015-12-04T21:39:00.672Z</time>
</trkpt>
<trkpt lat="-27.9182280" lon="152.7162948">
<ele>120.751</ele>
<time>2015-12-04T21:39:03.627Z</time>
</trkpt>
<trkpt lat="-27.9187098" lon="152.7163587">
<ele>122.253</ele>
<time>2015-12-04T21:39:05.556Z</time>
</trkpt>
<trkpt lat="-27.9192106" lon="152.7164210">
<ele>122.601</ele>
<time>2015-12-04T21:39:07.592Z</time>
</trkpt>
<trkpt lat="-27.9197010" lon="152.7164741">
<ele>122.262</ele>
<time>2015-12-04T21:39:09.622Z</time>
</trkpt>
<trkpt lat="-27.9201820" lon="152.7165265">
<ele>122.124</ele>
<time>2015-12-04T21:39:11.620Z</time>
</trkpt>
<trkpt lat="-27.9209085" lon="152.7165862">
<ele>122.966</ele>
<time>2015-12-04T21:39:14.621Z</time>
</trkpt>
<trkpt lat="-27.9213934" lon="152.7166374">
<ele>124.952</ele>
<time>2015-12-04T21:39:16.629Z</time>
</trkpt>
<trkpt lat="-27.9218662" lon="152.7166946">
<ele>127.433</ele>
<time>2015-12-04T21:39:18.605Z</time>
</trkpt>
<trkpt lat="-27.9223459" lon="152.7167455">
<ele>129.442</ele>
<time>2015-12-04T21:39:20.633Z</time>
</trkpt>
<trkpt lat="-27.9228177" lon="152.7167909">
<ele>130.706</ele>
<time>2015-12-04T21:39:22.694Z</time>
</trkpt>
<trkpt lat="-27.9234732" lon="152.7168691">
<ele>131.551</ele>
<time>2015-12-04T21:39:25.694Z</time>
</trkpt>
<trkpt lat="-27.9238934" lon="152.7169130">
<ele>132.076</ele>
<time>2015-12-04T21:39:27.709Z</time>
</trkpt>
<trkpt lat="-27.9244970" lon="152.7169804">
<ele>132.344</ele>
<time>2015-12-04T21:39:30.703Z</time>
</trkpt>
<trkpt lat="-27.9248893" lon="152.7170224">
<ele>133.142</ele>
<time>2015-12-04T21:39:32.691Z</time>
</trkpt>
<trkpt lat="-27.9252792" lon="152.7170486">
<ele>134.993</ele>
<time>2015-12-04T21:39:34.687Z</time>
</trkpt>
<trkpt lat="-27.9258593" lon="152.7170404">
<ele>136.876</ele>
<time>2015-12-04T21:39:37.656Z</time>
</trkpt>
<trkpt lat="-27.9262477" lon="152.7169961">
<ele>137.672</ele>
<time>2015-12-04T21:39:39.607Z</time>
</trkpt>
<trkpt lat="-27.9268600" lon="152.7168161">
<ele>137.404</ele>
<time>2015-12-04T21:39:42.678Z</time>
</trkpt>
<trkpt lat="-27.9272751" lon="152.7166587">
<ele>136.580</ele>
<time>2015-12-04T21:39:44.635Z</time>
</trkpt>
<trkpt lat="-27.9277552" lon="152.7164575">
<ele>135.909</ele>
<time>2015-12-04T21:39:46.813Z</time>
</trkpt>
<trkpt lat="-27.9284282" lon="152.7160838">
<ele>135.761</ele>
<time>2015-12-04T21:39:49.761Z</time>
</trkpt>
<trkpt lat="-27.9291327" lon="152.7157114">
<ele>135.308</ele>
<time>2015-12-04T21:39:52.797Z</time>
</trkpt>
<trkpt lat="-27.9295768" lon="152.7154770">
<ele>133.010</ele>
<time>2015-12-04T21:39:54.775Z</time>
</trkpt>
<trkpt lat="-27.9302530" lon="152.7151280">
<ele>128.464</ele>
<time>2015-12-04T21:39:57.793Z</time>
</trkpt>
<trkpt lat="-27.9309205" lon="152.7147749">
<ele>123.218</ele>
<time>2015-12-04T21:40:00.852Z</time>
</trkpt>
<trkpt lat="-27.9315433" lon="152.7144396">
<ele>119.320</ele>
<time>2015-12-04T21:40:03.844Z</time>
</trkpt>
<trkpt lat="-27.9321316" lon="152.7141117">
<ele>118.042</ele>
<time>2015-12-04T21:40:06.805Z</time>
</trkpt>
<trkpt lat="-27.9326356" lon="152.7136592">
<ele>119.299</ele>
<time>2015-12-04T21:40:09.815Z</time>
</trkpt>
<trkpt lat="-27.9330752" lon="152.7131521">
<ele>121.927</ele>
<time>2015-12-04T21:40:12.843Z</time>
</trkpt>
<trkpt lat="-27.9334025" lon="152.7125583">
<ele>124.583</ele>
<time>2015-12-04T21:40:15.836Z</time>
</trkpt>
<trkpt lat="-27.9336385" lon="152.7119130">
<ele>126.579</ele>
<time>2015-12-04T21:40:18.810Z</time>
</trkpt>
<trkpt lat="-27.9338169" lon="152.7112520">
<ele>127.818</ele>
<time>2015-12-04T21:40:21.740Z</time>
</trkpt>
<trkpt lat="-27.9339786" lon="152.7108114">
<ele>127.976</ele>
<time>2015-12-04T21:40:23.731Z</time>
</trkpt>
<trkpt lat="-27.9341694" lon="152.7103592">
<ele>126.774</ele>
<time>2015-12-04T21:40:25.857Z</time>
</trkpt>
<trkpt lat="-27.9344854" lon="152.7097702">
<ele>125.065</ele>
<time>2015-12-04T21:40:28.873Z</time>
</trkpt>
<trkpt lat="-27.9349209" lon="152.7093328">
<ele>123.990</ele>
<time>2015-12-04T21:40:31.825Z</time>
</trkpt>
<trkpt lat="-27.9352611" lon="152.7090880">
<ele>123.925</ele>
<time>2015-12-04T21:40:33.829Z</time>
</trkpt>
<trkpt lat="-27.9356281" lon="152.7088974">
<ele>124.564</ele>
<time>2015-12-04T21:40:35.793Z</time>
</trkpt>
<trkpt lat="-27.9360368" lon="152.7087581">
<ele>125.865</ele>
<time>2015-12-04T21:40:37.841Z</time>
</trkpt>
<trkpt lat="-27.9366740" lon="152.7086677">
<ele>127.817</ele>
<time>2015-12-04T21:40:40.863Z</time>
</trkpt>
<trkpt lat="-27.9373122" lon="152.7087469">
<ele>129.534</ele>
<time>2015-12-04T21:40:43.893Z</time>
</trkpt>
<trkpt lat="-27.9379008" lon="152.7089785">
<ele>129.874</ele>
<time>2015-12-04T21:40:46.906Z</time>
</trkpt>
<trkpt lat="-27.9384016" lon="152.7093460">
<ele>128.934</ele>
<time>2015-12-04T21:40:49.877Z</time>
</trkpt>
<trkpt lat="-27.9387023" lon="152.7096511">
<ele>127.848</ele>
<time>2015-12-04T21:40:51.945Z</time>
</trkpt>
<trkpt lat="-27.9390822" lon="152.7101520">
<ele>127.441</ele>
<time>2015-12-04T21:40:55.026Z</time>
</trkpt>
<trkpt lat="-27.9393633" lon="152.7106940">
<ele>126.683</ele>
<time>2015-12-04T21:40:57.998Z</time>
</trkpt>
<trkpt lat="-27.9396199" lon="152.7112784">
<ele>124.312</ele>
<time>2015-12-04T21:41:00.977Z</time>
</trkpt>
<trkpt lat="-27.9399088" lon="152.7118640">
<ele>121.058</ele>
<time>2015-12-04T21:41:03.943Z</time>
</trkpt>
<trkpt lat="-27.9403057" lon="152.7124150">
<ele>118.566</ele>
<time>2015-12-04T21:41:07.025Z</time>
</trkpt>
<trkpt lat="-27.9407496" lon="152.7129028">
<ele>117.106</ele>
<time>2015-12-04T21:41:10.021Z</time>
</trkpt>
<trkpt lat="-27.9410865" lon="152.7131772">
<ele>116.175</ele>
<time>2015-12-04T21:41:12.047Z</time>
</trkpt>
<trkpt lat="-27.9414203" lon="152.7134253">
<ele>115.616</ele>
<time>2015-12-04T21:41:14.052Z</time>
</trkpt>
<trkpt lat="-27.9418912" lon="152.7138011">
<ele>115.117</ele>
<time>2015-12-04T21:41:17.019Z</time>
</trkpt>
<trkpt lat="-27.9423371" lon="152.7141702">
<ele>113.363</ele>
<time>2015-12-04T21:41:19.858Z</time>
</trkpt>
<trkpt lat="-27.9428173" lon="152.7145818">
<ele>109.665</ele>
<time>2015-12-04T21:41:22.848Z</time>
</trkpt>
<trkpt lat="-27.9431293" lon="152.7148892">
<ele>105.410</ele>
<time>2015-12-04T21:41:24.864Z</time>
</trkpt>
<trkpt lat="-27.9434103" lon="152.7152290">
<ele>102.339</ele>
<time>2015-12-04T21:41:26.855Z</time>
</trkpt>
<trkpt lat="-27.9437865" lon="152.7158020">
<ele>100.525</ele>
<time>2015-12-04T21:41:29.862Z</time>
</trkpt>
<trkpt lat="-27.9440928" lon="152.7164485">
<ele>99.133</ele>
<time>2015-12-04T21:41:32.890Z</time>
</trkpt>
<trkpt lat="-27.9443634" lon="152.7171151">
<ele>97.040</ele>
<time>2015-12-04T21:41:35.886Z</time>
</trkpt>
<trkpt lat="-27.9446410" lon="152.7177796">
<ele>93.283</ele>
<time>2015-12-04T21:41:38.917Z</time>
</trkpt>
<trkpt lat="-27.9448642" lon="152.7181680">
<ele>88.059</ele>
<time>2015-12-04T21:41:40.881Z</time>
</trkpt>
<trkpt lat="-27.9453055" lon="152.7186970">
<ele>82.457</ele>
<time>2015-12-04T21:41:43.887Z</time>
</trkpt>
<trkpt lat="-27.9458517" lon="152.7191729">
<ele>77.581</ele>
<time>2015-12-04T21:41:46.976Z</time>
</trkpt>
<trkpt lat="-27.9463858" lon="152.7196357">
<ele>74.319</ele>
<time>2015-12-04T21:41:49.931Z</time>
</trkpt>
<trkpt lat="-27.9467458" lon="152.7199583">
<ele>72.274</ele>
<time>2015-12-04T21:41:51.943Z</time>
</trkpt>
<trkpt lat="-27.9471091" lon="152.7202712">
<ele>70.126</ele>
<time>2015-12-04T21:41:53.972Z</time>
</trkpt>
<trkpt lat="-27.9476413" lon="152.7207190">
<ele>67.733</ele>
<time>2015-12-04T21:41:56.959Z</time>
</trkpt>
<trkpt lat="-27.9481734" lon="152.7211921">
<ele>66.073</ele>
<time>2015-12-04T21:42:00.093Z</time>
</trkpt>
<trkpt lat="-27.9486782" lon="152.7216247">
<ele>65.343</ele>
<time>2015-12-04T21:42:03.141Z</time>
</trkpt>
<trkpt lat="-27.9491601" lon="152.7220235">
<ele>64.989</ele>
<time>2015-12-04T21:42:06.108Z</time>
</trkpt>
<trkpt lat="-27.9496223" lon="152.7224305">
<ele>64.407</ele>
<time>2015-12-04T21:42:09.076Z</time>
</trkpt>
<trkpt lat="-27.9501480" lon="152.7227262">
<ele>63.400</ele>
<time>2015-12-04T21:42:12.059Z</time>
</trkpt>
<trkpt lat="-27.9505245" lon="152.7228692">
<ele>62.378</ele>
<time>2015-12-04T21:42:14.065Z</time>
</trkpt>
<trkpt lat="-27.9509177" lon="152.7229257">
<ele>61.792</ele>
<time>2015-12-04T21:42:16.053Z</time>
</trkpt>
<trkpt lat="-27.9515102" lon="152.7228754">
<ele>61.230</ele>
<time>2015-12-04T21:42:19.011Z</time>
</trkpt>
<trkpt lat="-27.9520965" lon="152.7226913">
<ele>60.266</ele>
<time>2015-12-04T21:42:22.008Z</time>
</trkpt>
<trkpt lat="-27.9524420" lon="152.7224819">
<ele>59.405</ele>
<time>2015-12-04T21:42:23.890Z</time>
</trkpt>
<trkpt lat="-27.9527918" lon="152.7222226">
<ele>59.348</ele>
<time>2015-12-04T21:42:25.853Z</time>
</trkpt>
<trkpt lat="-27.9533430" lon="152.7218139">
<ele>59.943</ele>
<time>2015-12-04T21:42:28.931Z</time>
</trkpt>
<trkpt lat="-27.9538942" lon="152.7214327">
<ele>60.601</ele>
<time>2015-12-04T21:42:31.937Z</time>
</trkpt>
<trkpt lat="-27.9544499" lon="152.7210234">
<ele>60.946</ele>
<time>2015-12-04T21:42:34.987Z</time>
</trkpt>
<trkpt lat="-27.9550260" lon="152.7206735">
<ele>61.018</ele>
<time>2015-12-04T21:42:37.969Z</time>
</trkpt>
<trkpt lat="-27.9554372" lon="152.7205221">
<ele>60.911</ele>
<time>2015-12-04T21:42:39.983Z</time>
</trkpt>
<trkpt lat="-27.9558898" lon="152.7204623">
<ele>60.664</ele>
<time>2015-12-04T21:42:42.118Z</time>
</trkpt>
<trkpt lat="-27.9565154" lon="152.7204207">
<ele>60.419</ele>
<time>2015-12-04T21:42:45.065Z</time>
</trkpt>
<trkpt lat="-27.9569231" lon="152.7204084">
<ele>60.277</ele>
<time>2015-12-04T21:42:46.994Z</time>
</trkpt>
<trkpt lat="-27.9575560" lon="152.7203193">
<ele>60.250</ele>
<time>2015-12-04T21:42:49.999Z</time>
</trkpt>
<trkpt lat="-27.9579697" lon="152.7202389">
<ele>60.489</ele>
<time>2015-12-04T21:42:51.981Z</time>
</trkpt>
<trkpt lat="-27.9583743" lon="152.7201590">
<ele>61.018</ele>
<time>2015-12-04T21:42:53.974Z</time>
</trkpt>
<trkpt lat="-27.9589692" lon="152.7200144">
<ele>61.525</ele>
<time>2015-12-04T21:42:56.966Z</time>
</trkpt>
<trkpt lat="-27.9593552" lon="152.7199085">
<ele>61.542</ele>
<time>2015-12-04T21:42:58.940Z</time>
</trkpt>
<trkpt lat="-27.9599273" lon="152.7197606">
<ele>60.957</ele>
<time>2015-12-04T21:43:01.877Z</time>
</trkpt>
<trkpt lat="-27.9603324" lon="152.7196575">
<ele>60.450</ele>
<time>2015-12-04T21:43:03.969Z</time>
</trkpt>
<trkpt lat="-27.9608898" lon="152.7194692">
<ele>60.794</ele>
<time>2015-12-04T21:43:06.908Z</time>
</trkpt>
<trkpt lat="-27.9612562" lon="152.7193172">
<ele>61.849</ele>
<time>2015-12-04T21:43:08.882Z</time>
</trkpt>
<trkpt lat="-27.9618389" lon="152.7191075">
<ele>62.817</ele>
<time>2015-12-04T21:43:11.981Z</time>
</trkpt>
<trkpt lat="-27.9622055" lon="152.7189974">
<ele>62.723</ele>
<time>2015-12-04T21:43:13.876Z</time>
</trkpt>
<trkpt lat="-27.9628082" lon="152.7189070">
<ele>61.443</ele>
<time>2015-12-04T21:43:16.871Z</time>
</trkpt>
<trkpt lat="-27.9632177" lon="152.7188783">
<ele>60.315</ele>
<time>2015-12-04T21:43:18.870Z</time>
</trkpt>
<trkpt lat="-27.9638510" lon="152.7188919">
<ele>60.475</ele>
<time>2015-12-04T21:43:21.957Z</time>
</trkpt>
<trkpt lat="-27.9642460" lon="152.7189189">
<ele>62.060</ele>
<time>2015-12-04T21:43:23.904Z</time>
</trkpt>
<trkpt lat="-27.9648453" lon="152.7189627">
<ele>64.619</ele>
<time>2015-12-04T21:43:26.900Z</time>
</trkpt>
<trkpt lat="-27.9654615" lon="152.7189810">
<ele>66.933</ele>
<time>2015-12-04T21:43:30.036Z</time>
</trkpt>
<trkpt lat="-27.9658431" lon="152.7189554">
<ele>67.407</ele>
<time>2015-12-04T21:43:31.953Z</time>
</trkpt>
<trkpt lat="-27.9664426" lon="152.7187318">
<ele>65.771</ele>
<time>2015-12-04T21:43:35.076Z</time>
</trkpt>
<trkpt lat="-27.9667580" lon="152.7185606">
<ele>63.482</ele>
<time>2015-12-04T21:43:36.805Z</time>
</trkpt>
<trkpt lat="-27.9672395" lon="152.7181309">
<ele>62.047</ele>
<time>2015-12-04T21:43:39.811Z</time>
</trkpt>
<trkpt lat="-27.9675472" lon="152.7178102">
<ele>61.726</ele>
<time>2015-12-04T21:43:41.802Z</time>
</trkpt>
<trkpt lat="-27.9678525" lon="152.7174711">
<ele>62.726</ele>
<time>2015-12-04T21:43:43.797Z</time>
</trkpt>
<trkpt lat="-27.9681549" lon="152.7171239">
<ele>65.039</ele>
<time>2015-12-04T21:43:45.803Z</time>
</trkpt>
<trkpt lat="-27.9686105" lon="152.7166136">
<ele>67.543</ele>
<time>2015-12-04T21:43:48.816Z</time>
</trkpt>
<trkpt lat="-27.9690617" lon="152.7161071">
<ele>69.015</ele>
<time>2015-12-04T21:43:51.868Z</time>
</trkpt>
<trkpt lat="-27.9693431" lon="152.7157998">
<ele>69.134</ele>
<time>2015-12-04T21:43:53.803Z</time>
</trkpt>
<trkpt lat="-27.9696258" lon="152.7154891">
<ele>68.263</ele>
<time>2015-12-04T21:43:55.786Z</time>
</trkpt>
<trkpt lat="-27.9700550" lon="152.7150146">
<ele>67.237</ele>
<time>2015-12-04T21:43:58.829Z</time>
</trkpt>
<trkpt lat="-27.9703309" lon="152.7147068">
<ele>66.661</ele>
<time>2015-12-04T21:44:00.790Z</time>
</trkpt>
<trkpt lat="-27.9706026" lon="152.7143702">
<ele>66.420</ele>
<time>2015-12-04T21:44:02.833Z</time>
</trkpt>
<trkpt lat="-27.9709284" lon="152.7138309">
<ele>66.248</ele>
<time>2015-12-04T21:44:05.626Z</time>
</trkpt>
<trkpt lat="-27.9711923" lon="152.7131353">
<ele>66.028</ele>
<time>2015-12-04T21:44:08.563Z</time>
</trkpt>
<trkpt lat="-27.9713670" lon="152.7126195">
<ele>65.765</ele>
<time>2015-12-04T21:44:10.618Z</time>
</trkpt>
<trkpt lat="-27.9715983" lon="152.7121460">
<ele>65.742</ele>
<time>2015-12-04T21:44:12.690Z</time>
</trkpt>
<trkpt lat="-27.9720270" lon="152.7116086">
<ele>66.153</ele>
<time>2015-12-04T21:44:15.629Z</time>
</trkpt>
<trkpt lat="-27.9725732" lon="152.7112703">
<ele>66.659</ele>
<time>2015-12-04T21:44:18.456Z</time>
</trkpt>
<trkpt lat="-27.9732748" lon="152.7111129">
<ele>66.924</ele>
<time>2015-12-04T21:44:21.520Z</time>
</trkpt>
<trkpt lat="-27.9740001" lon="152.7109712">
<ele>67.520</ele>
<time>2015-12-04T21:44:24.537Z</time>
</trkpt>
<trkpt lat="-27.9745090" lon="152.7108607">
<ele>68.968</ele>
<time>2015-12-04T21:44:26.630Z</time>
</trkpt>
<trkpt lat="-27.9750071" lon="152.7107693">
<ele>70.567</ele>
<time>2015-12-04T21:44:28.674Z</time>
</trkpt>
<trkpt lat="-27.9757360" lon="152.7106286">
<ele>72.075</ele>
<time>2015-12-04T21:44:31.737Z</time>
</trkpt>
<trkpt lat="-27.9763938" lon="152.7104916">
<ele>73.942</ele>
<time>2015-12-04T21:44:34.566Z</time>
</trkpt>
<trkpt lat="-27.9770442" lon="152.7101404">
<ele>75.558</ele>
<time>2015-12-04T21:44:37.561Z</time>
</trkpt>
<trkpt lat="-27.9776686" lon="152.7096277">
<ele>76.772</ele>
<time>2015-12-04T21:44:40.694Z</time>
</trkpt>
<trkpt lat="-27.9782861" lon="152.7091888">
<ele>78.431</ele>
<time>2015-12-04T21:44:43.671Z</time>
</trkpt>
<trkpt lat="-27.9786872" lon="152.7088641">
<ele>80.349</ele>
<time>2015-12-04T21:44:45.659Z</time>
</trkpt>
<trkpt lat="-27.9793078" lon="152.7083815">
<ele>81.934</ele>
<time>2015-12-04T21:44:48.652Z</time>
</trkpt>
<trkpt lat="-27.9797174" lon="152.7080696">
<ele>83.584</ele>
<time>2015-12-04T21:44:50.655Z</time>
</trkpt>
<trkpt lat="-27.9802946" lon="152.7076226">
<ele>85.487</ele>
<time>2015-12-04T21:44:53.659Z</time>
</trkpt>
<trkpt lat="-27.9806170" lon="152.7073715">
<ele>86.936</ele>
<time>2015-12-04T21:44:55.542Z</time>
</trkpt>
<trkpt lat="-27.9810955" lon="152.7069670">
<ele>87.507</ele>
<time>2015-12-04T21:44:58.501Z</time>
</trkpt>
<trkpt lat="-27.9815633" lon="152.7065587">
<ele>88.051</ele>
<time>2015-12-04T21:45:01.434Z</time>
</trkpt>
<trkpt lat="-27.9819062" lon="152.7062518">
<ele>89.772</ele>
<time>2015-12-04T21:45:03.547Z</time>
</trkpt>
<trkpt lat="-27.9821938" lon="152.7059005">
<ele>92.888</ele>
<time>2015-12-04T21:45:05.598Z</time>
</trkpt>
<trkpt lat="-27.9825437" lon="152.7053589">
<ele>96.247</ele>
<time>2015-12-04T21:45:08.504Z</time>
</trkpt>
<trkpt lat="-27.9827254" lon="152.7049715">
<ele>98.860</ele>
<time>2015-12-04T21:45:10.428Z</time>
</trkpt>
<trkpt lat="-27.9829130" lon="152.7045748">
<ele>101.078</ele>
<time>2015-12-04T21:45:12.412Z</time>
</trkpt>
<trkpt lat="-27.9831089" lon="152.7041735">
<ele>103.468</ele>
<time>2015-12-04T21:45:14.448Z</time>
</trkpt>
<trkpt lat="-27.9833941" lon="152.7035888">
<ele>105.717</ele>
<time>2015-12-04T21:45:17.452Z</time>
</trkpt>
<trkpt lat="-27.9836045" lon="152.7032279">
<ele>108.080</ele>
<time>2015-12-04T21:45:19.423Z</time>
</trkpt>
<trkpt lat="-27.9839795" lon="152.7027168">
<ele>111.118</ele>
<time>2015-12-04T21:45:22.446Z</time>
</trkpt>
<trkpt lat="-27.9843688" lon="152.7022372">
<ele>114.566</ele>
<time>2015-12-04T21:45:25.394Z</time>
</trkpt>
<trkpt lat="-27.9848298" lon="152.7018161">
<ele>118.164</ele>
<time>2015-12-04T21:45:28.395Z</time>
</trkpt>
<trkpt lat="-27.9851425" lon="152.7015342">
<ele>121.994</ele>
<time>2015-12-04T21:45:30.390Z</time>
</trkpt>
<trkpt lat="-27.9856228" lon="152.7011015">
<ele>125.584</ele>
<time>2015-12-04T21:45:33.487Z</time>
</trkpt>
<trkpt lat="-27.9859141" lon="152.7008441">
<ele>128.258</ele>
<time>2015-12-04T21:45:35.442Z</time>
</trkpt>
<trkpt lat="-27.9861943" lon="152.7005979">
<ele>129.718</ele>
<time>2015-12-04T21:45:37.393Z</time>
</trkpt>
<trkpt lat="-27.9864851" lon="152.7003549">
<ele>129.539</ele>
<time>2015-12-04T21:45:39.417Z</time>
</trkpt>
<trkpt lat="-27.9868973" lon="152.6999888">
<ele>127.481</ele>
<time>2015-12-04T21:45:42.365Z</time>
</trkpt>
<trkpt lat="-27.9872980" lon="152.6996169">
<ele>124.331</ele>
<time>2015-12-04T21:45:45.300Z</time>
</trkpt>
<trkpt lat="-27.9875611" lon="152.6993698">
<ele>120.886</ele>
<time>2015-12-04T21:45:47.280Z</time>
</trkpt>
<trkpt lat="-27.9879558" lon="152.6990148">
<ele>117.256</ele>
<time>2015-12-04T21:45:50.250Z</time>
</trkpt>
<trkpt lat="-27.9883332" lon="152.6986441">
<ele>113.572</ele>
<time>2015-12-04T21:45:53.247Z</time>
</trkpt>
<trkpt lat="-27.9886923" lon="152.6982781">
<ele>109.790</ele>
<time>2015-12-04T21:45:56.185Z</time>
</trkpt>
<trkpt lat="-27.9890215" lon="152.6979166">
<ele>105.686</ele>
<time>2015-12-04T21:45:59.026Z</time>
</trkpt>
<trkpt lat="-27.9893700" lon="152.6975387">
<ele>101.318</ele>
<time>2015-12-04T21:46:02.063Z</time>
</trkpt>
<trkpt lat="-27.9895645" lon="152.6972749">
<ele>96.780</ele>
<time>2015-12-04T21:46:03.968Z</time>
</trkpt>
<trkpt lat="-27.9897854" lon="152.6967898">
<ele>92.309</ele>
<time>2015-12-04T21:46:06.940Z</time>
</trkpt>
<trkpt lat="-27.9899187" lon="152.6964386">
<ele>88.331</ele>
<time>2015-12-04T21:46:08.998Z</time>
</trkpt>
<trkpt lat="-27.9900303" lon="152.6958999">
<ele>85.252</ele>
<time>2015-12-04T21:46:12.046Z</time>
</trkpt>
<trkpt lat="-27.9900699" lon="152.6955478">
<ele>82.799</ele>
<time>2015-12-04T21:46:14.074Z</time>
</trkpt>
<trkpt lat="-27.9900955" lon="152.6952136">
<ele>80.563</ele>
<time>2015-12-04T21:46:16.038Z</time>
</trkpt>
<trkpt lat="-27.9901178" lon="152.6947100">
<ele>78.940</ele>
<time>2015-12-04T21:46:19.014Z</time>
</trkpt>
<trkpt lat="-27.9901190" lon="152.6943745">
<ele>78.529</ele>
<time>2015-12-04T21:46:20.971Z</time>
</trkpt>
<trkpt lat="-27.9901290" lon="152.6940321">
<ele>79.332</ele>
<time>2015-12-04T21:46:22.985Z</time>
</trkpt>
<trkpt lat="-27.9901611" lon="152.6935443">
<ele>81.625</ele>
<time>2015-12-04T21:46:25.940Z</time>
</trkpt>
<trkpt lat="-27.9903007" lon="152.6930878">
<ele>85.407</ele>
<time>2015-12-04T21:46:28.951Z</time>
</trkpt>
<trkpt lat="-27.9904798" lon="152.6926563">
<ele>89.384</ele>
<time>2015-12-04T21:46:32.006Z</time>
</trkpt>
<trkpt lat="-27.9906684" lon="152.6922875">
<ele>92.111</ele>
<time>2015-12-04T21:46:34.813Z</time>
</trkpt>
<trkpt lat="-27.9908207" lon="152.6920194">
<ele>93.399</ele>
<time>2015-12-04T21:46:36.932Z</time>
</trkpt>
<trkpt lat="-27.9909617" lon="152.6917722">
<ele>93.742</ele>
<time>2015-12-04T21:46:38.897Z</time>
</trkpt>
<trkpt lat="-27.9911667" lon="152.6913599">
<ele>93.489</ele>
<time>2015-12-04T21:46:41.926Z</time>
</trkpt>
<trkpt lat="-27.9913161" lon="152.6910784">
<ele>92.838</ele>
<time>2015-12-04T21:46:43.896Z</time>
</trkpt>
<trkpt lat="-27.9914783" lon="152.6907914">
<ele>92.046</ele>
<time>2015-12-04T21:46:45.904Z</time>
</trkpt>
<trkpt lat="-27.9916228" lon="152.6905056">
<ele>91.184</ele>
<time>2015-12-04T21:46:47.877Z</time>
</trkpt>
<trkpt lat="-27.9917692" lon="152.6902279">
<ele>90.042</ele>
<time>2015-12-04T21:46:49.863Z</time>
</trkpt>
<trkpt lat="-27.9919604" lon="152.6898010">
<ele>88.756</ele>
<time>2015-12-04T21:46:52.855Z</time>
</trkpt>
<trkpt lat="-27.9920904" lon="152.6893482">
<ele>87.700</ele>
<time>2015-12-04T21:46:55.895Z</time>
</trkpt>
<trkpt lat="-27.9921442" lon="152.6890422">
<ele>87.018</ele>
<time>2015-12-04T21:46:57.911Z</time>
</trkpt>
<trkpt lat="-27.9921955" lon="152.6887364">
<ele>87.056</ele>
<time>2015-12-04T21:46:59.970Z</time>
</trkpt>
<trkpt lat="-27.9922883" lon="152.6883212">
<ele>88.261</ele>
<time>2015-12-04T21:47:02.943Z</time>
</trkpt>
<trkpt lat="-27.9923275" lon="152.6880742">
<ele>90.540</ele>
<time>2015-12-04T21:47:04.799Z</time>
</trkpt>
<trkpt lat="-27.9923962" lon="152.6876835">
<ele>93.012</ele>
<time>2015-12-04T21:47:07.774Z</time>
</trkpt>
<trkpt lat="-27.9924562" lon="152.6874231">
<ele>95.035</ele>
<time>2015-12-04T21:47:09.765Z</time>
</trkpt>
<trkpt lat="-27.9925334" lon="152.6870230">
<ele>96.581</ele>
<time>2015-12-04T21:47:12.794Z</time>
</trkpt>
<trkpt lat="-27.9926285" lon="152.6866410">
<ele>97.392</ele>
<time>2015-12-04T21:47:15.739Z</time>
</trkpt>
<trkpt lat="-27.9927034" lon="152.6863804">
<ele>97.169</ele>
<time>2015-12-04T21:47:17.770Z</time>
</trkpt>
<trkpt lat="-27.9927953" lon="152.6859865">
<ele>96.436</ele>
<time>2015-12-04T21:47:20.766Z</time>
</trkpt>
<trkpt lat="-27.9928584" lon="152.6857273">
<ele>95.652</ele>
<time>2015-12-04T21:47:22.696Z</time>
</trkpt>
<trkpt lat="-27.9929542" lon="152.6852924">
<ele>94.717</ele>
<time>2015-12-04T21:47:25.754Z</time>
</trkpt>
<trkpt lat="-27.9930445" lon="152.6849982">
<ele>93.604</ele>
<time>2015-12-04T21:47:27.761Z</time>
</trkpt>
<trkpt lat="-27.9931284" lon="152.6847099">
<ele>92.596</ele>
<time>2015-12-04T21:47:29.711Z</time>
</trkpt>
<trkpt lat="-27.9932695" lon="152.6842757">
<ele>91.722</ele>
<time>2015-12-04T21:47:32.710Z</time>
</trkpt>
<trkpt lat="-27.9933630" lon="152.6839739">
<ele>90.834</ele>
<time>2015-12-04T21:47:34.787Z</time>
</trkpt>
<trkpt lat="-27.9935156" lon="152.6835523">
<ele>90.001</ele>
<time>2015-12-04T21:47:37.874Z</time>
</trkpt>
<trkpt lat="-27.9935661" lon="152.6832947">
<ele>89.261</ele>
<time>2015-12-04T21:47:39.856Z</time>
</trkpt>
<trkpt lat="-27.9936485" lon="152.6830974">
<ele>88.330</ele>
<time>2015-12-04T21:47:41.656Z</time>
</trkpt>
<trkpt lat="-27.9937305" lon="152.6828938">
<ele>87.214</ele>
<time>2015-12-04T21:47:43.592Z</time>
</trkpt>
<trkpt lat="-27.9939100" lon="152.6826179">
<ele>86.454</ele>
<time>2015-12-04T21:47:46.509Z</time>
</trkpt>
<trkpt lat="-27.9942168" lon="152.6824069">
<ele>86.536</ele>
<time>2015-12-04T21:47:49.680Z</time>
</trkpt>
<trkpt lat="-27.9944277" lon="152.6822567">
<ele>87.459</ele>
<time>2015-12-04T21:47:51.701Z</time>
</trkpt>
<trkpt lat="-27.9947822" lon="152.6820614">
<ele>88.881</ele>
<time>2015-12-04T21:47:54.792Z</time>
</trkpt>
<trkpt lat="-27.9951510" lon="152.6818833">
<ele>90.344</ele>
<time>2015-12-04T21:47:57.901Z</time>
</trkpt>
<trkpt lat="-27.9954913" lon="152.6817940">
<ele>91.710</ele>
<time>2015-12-04T21:48:00.768Z</time>
</trkpt>
<trkpt lat="-27.9958264" lon="152.6817344">
<ele>93.111</ele>
<time>2015-12-04T21:48:03.889Z</time>
</trkpt>
<trkpt lat="-27.9959995" lon="152.6817096">
<ele>94.468</ele>
<time>2015-12-04T21:48:05.899Z</time>
</trkpt>
<trkpt lat="-27.9961264" lon="152.6816982">
<ele>95.447</ele>
<time>2015-12-04T21:48:07.908Z</time>
</trkpt>
<trkpt lat="-27.9962481" lon="152.6816957">
<ele>95.828</ele>
<time>2015-12-04T21:48:10.573Z</time>
</trkpt>
<trkpt lat="-27.9963449" lon="152.6816839">
<ele>95.582</ele>
<time>2015-12-04T21:48:13.998Z</time>
</trkpt>
<trkpt lat="-27.9963449" lon="152.6816839">
<ele>94.969</ele>
<time>2015-12-04T21:48:16.998Z</time>
</trkpt>
<trkpt lat="-27.9963449" lon="152.6816839">
<ele>94.516</ele>
<time>2015-12-04T21:48:34.307Z</time>
</trkpt>
<trkpt lat="-27.9964916" lon="152.6816331">
<ele>94.578</ele>
<time>2015-12-04T21:48:39.251Z</time>
</trkpt>
<trkpt lat="-27.9966695" lon="152.6816011">
<ele>95.178</ele>
<time>2015-12-04T21:48:41.412Z</time>
</trkpt>
<trkpt lat="-27.9969978" lon="152.6815530">
<ele>96.402</ele>
<time>2015-12-04T21:48:44.594Z</time>
</trkpt>
<trkpt lat="-27.9972247" lon="152.6815317">
<ele>98.004</ele>
<time>2015-12-04T21:48:46.637Z</time>
</trkpt>
<trkpt lat="-27.9975482" lon="152.6815227">
<ele>99.217</ele>
<time>2015-12-04T21:48:49.577Z</time>
</trkpt>
<trkpt lat="-27.9978744" lon="152.6815254">
<ele>99.564</ele>
<time>2015-12-04T21:48:52.486Z</time>
</trkpt>
<trkpt lat="-27.9981160" lon="152.6815240">
<ele>99.169</ele>
<time>2015-12-04T21:48:54.456Z</time>
</trkpt>
<trkpt lat="-27.9983866" lon="152.6815128">
<ele>98.465</ele>
<time>2015-12-04T21:48:56.594Z</time>
</trkpt>
<trkpt lat="-27.9987602" lon="152.6815144">
<ele>97.939</ele>
<time>2015-12-04T21:48:59.569Z</time>
</trkpt>
<trkpt lat="-27.9991127" lon="152.6815191">
<ele>97.716</ele>
<time>2015-12-04T21:49:02.431Z</time>
</trkpt>
<trkpt lat="-27.9993687" lon="152.6815262">
<ele>97.624</ele>
<time>2015-12-04T21:49:04.423Z</time>
</trkpt>
<trkpt lat="-27.9996352" lon="152.6815694">
<ele>97.523</ele>
<time>2015-12-04T21:49:06.404Z</time>
</trkpt>
<trkpt lat="-27.9999037" lon="152.6816349">
<ele>97.276</ele>
<time>2015-12-04T21:49:08.359Z</time>
</trkpt>
<trkpt lat="-28.0001696" lon="152.6817411">
<ele>96.652</ele>
<time>2015-12-04T21:49:10.322Z</time>
</trkpt>
<trkpt lat="-28.0005887" lon="152.6818994">
<ele>95.460</ele>
<time>2015-12-04T21:49:13.330Z</time>
</trkpt>
<trkpt lat="-28.0008941" lon="152.6819373">
<ele>93.548</ele>
<time>2015-12-04T21:49:15.351Z</time>
</trkpt>
<trkpt lat="-28.0013557" lon="152.6818684">
<ele>91.134</ele>
<time>2015-12-04T21:49:18.379Z</time>
</trkpt>
<trkpt lat="-28.0016585" lon="152.6818081">
<ele>89.015</ele>
<time>2015-12-04T21:49:20.384Z</time>
</trkpt>
<trkpt lat="-28.0019250" lon="152.6816574">
<ele>87.825</ele>
<time>2015-12-04T21:49:22.373Z</time>
</trkpt>
<trkpt lat="-28.0021852" lon="152.6815495">
<ele>87.472</ele>
<time>2015-12-04T21:49:24.253Z</time>
</trkpt>
<trkpt lat="-28.0026021" lon="152.6813792">
<ele>87.304</ele>
<time>2015-12-04T21:49:27.312Z</time>
</trkpt>
<trkpt lat="-28.0030015" lon="152.6812753">
<ele>86.829</ele>
<time>2015-12-04T21:49:30.279Z</time>
</trkpt>
<trkpt lat="-28.0032511" lon="152.6812393">
<ele>86.212</ele>
<time>2015-12-04T21:49:32.226Z</time>
</trkpt>
<trkpt lat="-28.0035002" lon="152.6812010">
<ele>85.738</ele>
<time>2015-12-04T21:49:34.182Z</time>
</trkpt>
<trkpt lat="-28.0039019" lon="152.6811426">
<ele>85.430</ele>
<time>2015-12-04T21:49:37.259Z</time>
</trkpt>
<trkpt lat="-28.0041644" lon="152.6810925">
<ele>85.547</ele>
<time>2015-12-04T21:49:39.207Z</time>
</trkpt>
<trkpt lat="-28.0045582" lon="152.6809782">
<ele>86.356</ele>
<time>2015-12-04T21:49:42.124Z</time>
</trkpt>
<trkpt lat="-28.0048178" lon="152.6808847">
<ele>87.485</ele>
<time>2015-12-04T21:49:43.997Z</time>
</trkpt>
<trkpt lat="-28.0051043" lon="152.6807693">
<ele>88.184</ele>
<time>2015-12-04T21:49:45.960Z</time>
</trkpt>
<trkpt lat="-28.0055679" lon="152.6805887">
<ele>88.243</ele>
<time>2015-12-04T21:49:48.944Z</time>
</trkpt>
<trkpt lat="-28.0058993" lon="152.6804699">
<ele>88.209</ele>
<time>2015-12-04T21:49:50.993Z</time>
</trkpt>
<trkpt lat="-28.0063983" lon="152.6803765">
<ele>88.540</ele>
<time>2015-12-04T21:49:54.043Z</time>
</trkpt>
<trkpt lat="-28.0068751" lon="152.6803681">
<ele>88.896</ele>
<time>2015-12-04T21:49:57.014Z</time>
</trkpt>
<trkpt lat="-28.0071953" lon="152.6803352">
<ele>88.827</ele>
<time>2015-12-04T21:49:59.017Z</time>
</trkpt>
<trkpt lat="-28.0074952" lon="152.6802323">
<ele>88.479</ele>
<time>2015-12-04T21:50:00.904Z</time>
</trkpt>
<trkpt lat="-28.0080232" lon="152.6799440">
<ele>88.484</ele>
<time>2015-12-04T21:50:04.242Z</time>
</trkpt>
<trkpt lat="-28.0083216" lon="152.6797098">
<ele>89.139</ele>
<time>2015-12-04T21:50:06.196Z</time>
</trkpt>
<trkpt lat="-28.0087749" lon="152.6793250">
<ele>90.019</ele>
<time>2015-12-04T21:50:09.228Z</time>
</trkpt>
<trkpt lat="-28.0090921" lon="152.6790558">
<ele>90.663</ele>
<time>2015-12-04T21:50:11.397Z</time>
</trkpt>
<trkpt lat="-28.0094935" lon="152.6787272">
<ele>90.978</ele>
<time>2015-12-04T21:50:14.163Z</time>
</trkpt>
<trkpt lat="-28.0097891" lon="152.6785129">
<ele>90.930</ele>
<time>2015-12-04T21:50:16.160Z</time>
</trkpt>
<trkpt lat="-28.0102207" lon="152.6781818">
<ele>90.602</ele>
<time>2015-12-04T21:50:19.148Z</time>
</trkpt>
<trkpt lat="-28.0105051" lon="152.6779589">
<ele>90.224</ele>
<time>2015-12-04T21:50:21.128Z</time>
</trkpt>
<trkpt lat="-28.0107949" lon="152.6777278">
<ele>90.005</ele>
<time>2015-12-04T21:50:23.120Z</time>
</trkpt>
<trkpt lat="-28.0112285" lon="152.6773847">
<ele>90.011</ele>
<time>2015-12-04T21:50:25.986Z</time>
</trkpt>
<trkpt lat="-28.0115580" lon="152.6771345">
<ele>90.221</ele>
<time>2015-12-04T21:50:27.985Z</time>
</trkpt>
<trkpt lat="-28.0120691" lon="152.6767394">
<ele>90.939</ele>
<time>2015-12-04T21:50:31.011Z</time>
</trkpt>
<trkpt lat="-28.0123958" lon="152.6764736">
<ele>92.326</ele>
<time>2015-12-04T21:50:32.987Z</time>
</trkpt>
<trkpt lat="-28.0128309" lon="152.6760278">
<ele>93.655</ele>
<time>2015-12-04T21:50:35.909Z</time>
</trkpt>
<trkpt lat="-28.0130975" lon="152.6757188">
<ele>94.098</ele>
<time>2015-12-04T21:50:37.830Z</time>
</trkpt>
<trkpt lat="-28.0135111" lon="152.6752476">
<ele>93.714</ele>
<time>2015-12-04T21:50:40.802Z</time>
</trkpt>
<trkpt lat="-28.0137927" lon="152.6749410">
<ele>93.049</ele>
<time>2015-12-04T21:50:42.801Z</time>
</trkpt>
<trkpt lat="-28.0141877" lon="152.6744736">
<ele>92.675</ele>
<time>2015-12-04T21:50:45.741Z</time>
</trkpt>
<trkpt lat="-28.0144616" lon="152.6741773">
<ele>92.825</ele>
<time>2015-12-04T21:50:47.735Z</time>
</trkpt>
<trkpt lat="-28.0148298" lon="152.6737478">
<ele>93.198</ele>
<time>2015-12-04T21:50:50.615Z</time>
</trkpt>
<trkpt lat="-28.0150650" lon="152.6734709">
<ele>93.244</ele>
<time>2015-12-04T21:50:52.513Z</time>
</trkpt>
<trkpt lat="-28.0154723" lon="152.6730226">
<ele>92.860</ele>
<time>2015-12-04T21:50:55.623Z</time>
</trkpt>
<trkpt lat="-28.0157325" lon="152.6727279">
<ele>92.429</ele>
<time>2015-12-04T21:50:57.599Z</time>
</trkpt>
<trkpt lat="-28.0161096" lon="152.6722756">
<ele>91.933</ele>
<time>2015-12-04T21:51:00.571Z</time>
</trkpt>
<trkpt lat="-28.0163683" lon="152.6719890">
<ele>91.095</ele>
<time>2015-12-04T21:51:02.561Z</time>
</trkpt>
<trkpt lat="-28.0167353" lon="152.6715691">
<ele>90.201</ele>
<time>2015-12-04T21:51:05.466Z</time>
</trkpt>
<trkpt lat="-28.0170100" lon="152.6713235">
<ele>89.670</ele>
<time>2015-12-04T21:51:07.435Z</time>
</trkpt>
<trkpt lat="-28.0174435" lon="152.6710343">
<ele>89.609</ele>
<time>2015-12-04T21:51:10.299Z</time>
</trkpt>
<trkpt lat="-28.0179345" lon="152.6708208">
<ele>89.944</ele>
<time>2015-12-04T21:51:13.279Z</time>
</trkpt>
<trkpt lat="-28.0182798" lon="152.6707033">
<ele>90.428</ele>
<time>2015-12-04T21:51:15.325Z</time>
</trkpt>
<trkpt lat="-28.0187403" lon="152.6705331">
<ele>90.836</ele>
<time>2015-12-04T21:51:18.213Z</time>
</trkpt>
<trkpt lat="-28.0191723" lon="152.6703297">
<ele>90.600</ele>
<time>2015-12-04T21:51:21.140Z</time>
</trkpt>
<trkpt lat="-28.0194812" lon="152.6701331">
<ele>89.391</ele>
<time>2015-12-04T21:51:23.314Z</time>
</trkpt>
<trkpt lat="-28.0197726" lon="152.6699488">
<ele>88.022</ele>
<time>2015-12-04T21:51:25.309Z</time>
</trkpt>
<trkpt lat="-28.0200775" lon="152.6697506">
<ele>87.589</ele>
<time>2015-12-04T21:51:27.386Z</time>
</trkpt>
<trkpt lat="-28.0205066" lon="152.6694468">
<ele>88.169</ele>
<time>2015-12-04T21:51:30.380Z</time>
</trkpt>
<trkpt lat="-28.0209453" lon="152.6691474">
<ele>89.049</ele>
<time>2015-12-04T21:51:33.406Z</time>
</trkpt>
<trkpt lat="-28.0213807" lon="152.6688595">
<ele>89.649</ele>
<time>2015-12-04T21:51:36.349Z</time>
</trkpt>
<trkpt lat="-28.0216773" lon="152.6686576">
<ele>89.932</ele>
<time>2015-12-04T21:51:38.330Z</time>
</trkpt>
<trkpt lat="-28.0221201" lon="152.6683116">
<ele>89.998</ele>
<time>2015-12-04T21:51:41.348Z</time>
</trkpt>
<trkpt lat="-28.0223652" lon="152.6680207">
<ele>90.286</ele>
<time>2015-12-04T21:51:43.300Z</time>
</trkpt>
<trkpt lat="-28.0227700" lon="152.6675421">
<ele>91.116</ele>
<time>2015-12-04T21:51:46.410Z</time>
</trkpt>
<trkpt lat="-28.0230607" lon="152.6672754">
<ele>92.006</ele>
<time>2015-12-04T21:51:48.353Z</time>
</trkpt>
<trkpt lat="-28.0234851" lon="152.6668731">
<ele>92.353</ele>
<time>2015-12-04T21:51:51.278Z</time>
</trkpt>
<trkpt lat="-28.0237637" lon="152.6666256">
<ele>92.170</ele>
<time>2015-12-04T21:51:53.209Z</time>
</trkpt>
<trkpt lat="-28.0240605" lon="152.6664315">
<ele>91.646</ele>
<time>2015-12-04T21:51:55.126Z</time>
</trkpt>
<trkpt lat="-28.0245301" lon="152.6661559">
<ele>90.857</ele>
<time>2015-12-04T21:51:58.145Z</time>
</trkpt>
<trkpt lat="-28.0250031" lon="152.6659327">
<ele>90.017</ele>
<time>2015-12-04T21:52:01.112Z</time>
</trkpt>
<trkpt lat="-28.0254821" lon="152.6657678">
<ele>89.534</ele>
<time>2015-12-04T21:52:04.041Z</time>
</trkpt>
<trkpt lat="-28.0258228" lon="152.6656643">
<ele>89.650</ele>
<time>2015-12-04T21:52:06.086Z</time>
</trkpt>
<trkpt lat="-28.0261580" lon="152.6655628">
<ele>90.278</ele>
<time>2015-12-04T21:52:08.073Z</time>
</trkpt>
<trkpt lat="-28.0264587" lon="152.6654628">
<ele>91.059</ele>
<time>2015-12-04T21:52:09.914Z</time>
</trkpt>
<trkpt lat="-28.0269368" lon="152.6653334">
<ele>91.286</ele>
<time>2015-12-04T21:52:12.876Z</time>
</trkpt>
<trkpt lat="-28.0273919" lon="152.6652067">
<ele>90.677</ele>
<time>2015-12-04T21:52:15.785Z</time>
</trkpt>
<trkpt lat="-28.0276627" lon="152.6651028">
<ele>89.433</ele>
<time>2015-12-04T21:52:17.712Z</time>
</trkpt>
<trkpt lat="-28.0279820" lon="152.6648965">
<ele>87.832</ele>
<time>2015-12-04T21:52:20.505Z</time>
</trkpt>
<trkpt lat="-28.0282223" lon="152.6645972">
<ele>86.273</ele>
<time>2015-12-04T21:52:23.393Z</time>
</trkpt>
<trkpt lat="-28.0283308" lon="152.6643606">
<ele>85.119</ele>
<time>2015-12-04T21:52:25.355Z</time>
</trkpt>
<trkpt lat="-28.0283420" lon="152.6639898">
<ele>84.424</ele>
<time>2015-12-04T21:52:28.202Z</time>
</trkpt>
<trkpt lat="-28.0282267" lon="152.6637040">
<ele>84.179</ele>
<time>2015-12-04T21:52:30.549Z</time>
</trkpt>
<trkpt lat="-28.0280810" lon="152.6631231">
<ele>84.318</ele>
<time>2015-12-04T21:52:34.035Z</time>
</trkpt>
<trkpt lat="-28.0279527" lon="152.6624128">
<ele>85.257</ele>
<time>2015-12-04T21:52:37.228Z</time>
</trkpt>
<trkpt lat="-28.0278738" lon="152.6619533">
<ele>87.225</ele>
<time>2015-12-04T21:52:39.209Z</time>
</trkpt>
<trkpt lat="-28.0277686" lon="152.6612867">
<ele>89.317</ele>
<time>2015-12-04T21:52:42.165Z</time>
</trkpt>
<trkpt lat="-28.0276579" lon="152.6606645">
<ele>90.407</ele>
<time>2015-12-04T21:52:45.023Z</time>
</trkpt>
<trkpt lat="-28.0275875" lon="152.6602553">
<ele>90.296</ele>
<time>2015-12-04T21:52:46.943Z</time>
</trkpt>
<trkpt lat="-28.0274906" lon="152.6596321">
<ele>89.536</ele>
<time>2015-12-04T21:52:49.921Z</time>
</trkpt>
<trkpt lat="-28.0274461" lon="152.6590716">
<ele>88.759</ele>
<time>2015-12-04T21:52:52.769Z</time>
</trkpt>
<trkpt lat="-28.0275168" lon="152.6587045">
<ele>88.128</ele>
<time>2015-12-04T21:52:54.726Z</time>
</trkpt>
<trkpt lat="-28.0276664" lon="152.6582862">
<ele>87.597</ele>
<time>2015-12-04T21:52:56.889Z</time>
</trkpt>
<trkpt lat="-28.0279332" lon="152.6576206">
<ele>87.739</ele>
<time>2015-12-04T21:53:00.068Z</time>
</trkpt>
<trkpt lat="-28.0281095" lon="152.6572237">
<ele>88.866</ele>
<time>2015-12-04T21:53:02.010Z</time>
</trkpt>
<trkpt lat="-28.0285571" lon="152.6567298">
<ele>90.489</ele>
<time>2015-12-04T21:53:05.097Z</time>
</trkpt>
<trkpt lat="-28.0288689" lon="152.6564475">
<ele>92.160</ele>
<time>2015-12-04T21:53:07.048Z</time>
</trkpt>
<trkpt lat="-28.0291406" lon="152.6561588">
<ele>93.545</ele>
<time>2015-12-04T21:53:08.967Z</time>
</trkpt>
<trkpt lat="-28.0294065" lon="152.6556182">
<ele>94.172</ele>
<time>2015-12-04T21:53:11.889Z</time>
</trkpt>
<trkpt lat="-28.0295082" lon="152.6549253">
<ele>94.115</ele>
<time>2015-12-04T21:53:14.963Z</time>
</trkpt>
<trkpt lat="-28.0296214" lon="152.6541667">
<ele>94.021</ele>
<time>2015-12-04T21:53:18.019Z</time>
</trkpt>
<trkpt lat="-28.0297366" lon="152.6534121">
<ele>94.335</ele>
<time>2015-12-04T21:53:20.982Z</time>
</trkpt>
<trkpt lat="-28.0298217" lon="152.6528836">
<ele>94.797</ele>
<time>2015-12-04T21:53:23.014Z</time>
</trkpt>
<trkpt lat="-28.0299532" lon="152.6520659">
<ele>95.433</ele>
<time>2015-12-04T21:53:26.054Z</time>
</trkpt>
<trkpt lat="-28.0300763" lon="152.6512754">
<ele>96.619</ele>
<time>2015-12-04T21:53:28.984Z</time>
</trkpt>
<trkpt lat="-28.0301648" lon="152.6507595">
<ele>97.965</ele>
<time>2015-12-04T21:53:30.948Z</time>
</trkpt>
<trkpt lat="-28.0302961" lon="152.6499358">
<ele>98.778</ele>
<time>2015-12-04T21:53:34.007Z</time>
</trkpt>
<trkpt lat="-28.0303850" lon="152.6493567">
<ele>99.334</ele>
<time>2015-12-04T21:53:36.066Z</time>
</trkpt>
<trkpt lat="-28.0305200" lon="152.6485464">
<ele>100.128</ele>
<time>2015-12-04T21:53:39.013Z</time>
</trkpt>
<trkpt lat="-28.0306305" lon="152.6480549">
<ele>100.453</ele>
<time>2015-12-04T21:53:40.936Z</time>
</trkpt>
<trkpt lat="-28.0308486" lon="152.6476008">
<ele>99.590</ele>
<time>2015-12-04T21:53:42.931Z</time>
</trkpt>
<trkpt lat="-28.0313319" lon="152.6469267">
<ele>98.290</ele>
<time>2015-12-04T21:53:46.117Z</time>
</trkpt>
<trkpt lat="-28.0316981" lon="152.6464663">
<ele>98.518</ele>
<time>2015-12-04T21:53:48.168Z</time>
</trkpt>
<trkpt lat="-28.0321998" lon="152.6457890">
<ele>101.029</ele>
<time>2015-12-04T21:53:51.051Z</time>
</trkpt>
<trkpt lat="-28.0325047" lon="152.6453780">
<ele>104.018</ele>
<time>2015-12-04T21:53:52.887Z</time>
</trkpt>
<trkpt lat="-28.0327880" lon="152.6449985">
<ele>105.338</ele>
<time>2015-12-04T21:53:54.726Z</time>
</trkpt>
<trkpt lat="-28.0331946" lon="152.6444202">
<ele>104.607</ele>
<time>2015-12-04T21:53:57.630Z</time>
</trkpt>
<trkpt lat="-28.0334976" lon="152.6440441">
<ele>102.772</ele>
<time>2015-12-04T21:53:59.646Z</time>
</trkpt>
<trkpt lat="-28.0340478" lon="152.6435428">
<ele>101.278</ele>
<time>2015-12-04T21:54:02.736Z</time>
</trkpt>
<trkpt lat="-28.0346013" lon="152.6430874">
<ele>100.942</ele>
<time>2015-12-04T21:54:05.699Z</time>
</trkpt>
<trkpt lat="-28.0349728" lon="152.6427898">
<ele>101.597</ele>
<time>2015-12-04T21:54:07.692Z</time>
</trkpt>
<trkpt lat="-28.0353242" lon="152.6424931">
<ele>102.445</ele>
<time>2015-12-04T21:54:09.648Z</time>
</trkpt>
<trkpt lat="-28.0358825" lon="152.6420927">
<ele>102.310</ele>
<time>2015-12-04T21:54:12.630Z</time>
</trkpt>
<trkpt lat="-28.0362798" lon="152.6418469">
<ele>100.891</ele>
<time>2015-12-04T21:54:14.649Z</time>
</trkpt>
<trkpt lat="-28.0369137" lon="152.6414846">
<ele>99.333</ele>
<time>2015-12-04T21:54:17.730Z</time>
</trkpt>
<trkpt lat="-28.0374682" lon="152.6410517">
<ele>98.673</ele>
<time>2015-12-04T21:54:20.653Z</time>
</trkpt>
<trkpt lat="-28.0379820" lon="152.6406057">
<ele>98.715</ele>
<time>2015-12-04T21:54:23.561Z</time>
</trkpt>
<trkpt lat="-28.0384229" lon="152.6401336">
<ele>98.946</ele>
<time>2015-12-04T21:54:26.410Z</time>
</trkpt>
<trkpt lat="-28.0386570" lon="152.6397516">
<ele>99.047</ele>
<time>2015-12-04T21:54:28.379Z</time>
</trkpt>
<trkpt lat="-28.0388394" lon="152.6393173">
<ele>98.690</ele>
<time>2015-12-04T21:54:30.410Z</time>
</trkpt>
<trkpt lat="-28.0389596" lon="152.6388386">
<ele>97.790</ele>
<time>2015-12-04T21:54:32.458Z</time>
</trkpt>
<trkpt lat="-28.0389363" lon="152.6383172">
<ele>96.875</ele>
<time>2015-12-04T21:54:34.526Z</time>
</trkpt>
<trkpt lat="-28.0389256" lon="152.6375338">
<ele>97.281</ele>
<time>2015-12-04T21:54:37.550Z</time>
</trkpt>
<trkpt lat="-28.0390448" lon="152.6367660">
<ele>99.681</ele>
<time>2015-12-04T21:54:40.507Z</time>
</trkpt>
<trkpt lat="-28.0392709" lon="152.6363117">
<ele>102.696</ele>
<time>2015-12-04T21:54:42.505Z</time>
</trkpt>
<trkpt lat="-28.0397231" lon="152.6357364">
<ele>104.899</ele>
<time>2015-12-04T21:54:45.490Z</time>
</trkpt>
<trkpt lat="-28.0403124" lon="152.6352224">
<ele>106.769</ele>
<time>2015-12-04T21:54:48.685Z</time>
</trkpt>
<trkpt lat="-28.0406796" lon="152.6348991">
<ele>108.653</ele>
<time>2015-12-04T21:54:50.633Z</time>
</trkpt>
<trkpt lat="-28.0410106" lon="152.6344796">
<ele>109.802</ele>
<time>2015-12-04T21:54:52.690Z</time>
</trkpt>
<trkpt lat="-28.0414890" lon="152.6338795">
<ele>109.610</ele>
<time>2015-12-04T21:54:55.629Z</time>
</trkpt>
<trkpt lat="-28.0419241" lon="152.6332803">
<ele>108.149</ele>
<time>2015-12-04T21:54:58.534Z</time>
</trkpt>
<trkpt lat="-28.0422533" lon="152.6327152">
<ele>105.442</ele>
<time>2015-12-04T21:55:01.276Z</time>
</trkpt>
<trkpt lat="-28.0423682" lon="152.6322950">
<ele>101.437</ele>
<time>2015-12-04T21:55:03.166Z</time>
</trkpt>
<trkpt lat="-28.0424228" lon="152.6316020">
<ele>97.217</ele>
<time>2015-12-04T21:55:06.191Z</time>
</trkpt>
<trkpt lat="-28.0423111" lon="152.6309109">
<ele>94.898</ele>
<time>2015-12-04T21:55:09.133Z</time>
</trkpt>
<trkpt lat="-28.0423135" lon="152.6302037">
<ele>95.405</ele>
<time>2015-12-04T21:55:12.058Z</time>
</trkpt>
<trkpt lat="-28.0423935" lon="152.6297383">
<ele>97.441</ele>
<time>2015-12-04T21:55:14.031Z</time>
</trkpt>
<trkpt lat="-28.0427503" lon="152.6291175">
<ele>99.228</ele>
<time>2015-12-04T21:55:17.123Z</time>
</trkpt>
<trkpt lat="-28.0429354" lon="152.6287023">
<ele>100.036</ele>
<time>2015-12-04T21:55:19.071Z</time>
</trkpt>
<trkpt lat="-28.0430321" lon="152.6282540">
<ele>99.609</ele>
<time>2015-12-04T21:55:21.041Z</time>
</trkpt>
<trkpt lat="-28.0430661" lon="152.6275595">
<ele>98.175</ele>
<time>2015-12-04T21:55:24.044Z</time>
</trkpt>
<trkpt lat="-28.0428065" lon="152.6268212">
<ele>97.037</ele>
<time>2015-12-04T21:55:27.285Z</time>
</trkpt>
<trkpt lat="-28.0424079" lon="152.6260212">
<ele>97.751</ele>
<time>2015-12-04T21:55:30.596Z</time>
</trkpt>
<trkpt lat="-28.0421642" lon="152.6254939">
<ele>100.275</ele>
<time>2015-12-04T21:55:32.579Z</time>
</trkpt>
<trkpt lat="-28.0419148" lon="152.6249772">
<ele>102.916</ele>
<time>2015-12-04T21:55:34.535Z</time>
</trkpt>
<trkpt lat="-28.0415538" lon="152.6242561">
<ele>104.323</ele>
<time>2015-12-04T21:55:37.396Z</time>
</trkpt>
<trkpt lat="-28.0413275" lon="152.6237959">
<ele>104.248</ele>
<time>2015-12-04T21:55:39.296Z</time>
</trkpt>
<trkpt lat="-28.0409956" lon="152.6231257">
<ele>102.748</ele>
<time>2015-12-04T21:55:42.191Z</time>
</trkpt>
<trkpt lat="-28.0407873" lon="152.6226384">
<ele>100.625</ele>
<time>2015-12-04T21:55:44.230Z</time>
</trkpt>
<trkpt lat="-28.0406354" lon="152.6221085">
<ele>99.364</ele>
<time>2015-12-04T21:55:46.278Z</time>
</trkpt>
<trkpt lat="-28.0405340" lon="152.6215759">
<ele>99.600</ele>
<time>2015-12-04T21:55:48.254Z</time>
</trkpt>
<trkpt lat="-28.0404228" lon="152.6207782">
<ele>100.610</ele>
<time>2015-12-04T21:55:51.193Z</time>
</trkpt>
<trkpt lat="-28.0403383" lon="152.6202497">
<ele>101.426</ele>
<time>2015-12-04T21:55:53.163Z</time>
</trkpt>
<trkpt lat="-28.0402708" lon="152.6197222">
<ele>101.461</ele>
<time>2015-12-04T21:55:55.133Z</time>
</trkpt>
<trkpt lat="-28.0401893" lon="152.6192004">
<ele>100.741</ele>
<time>2015-12-04T21:55:57.104Z</time>
</trkpt>
<trkpt lat="-28.0401034" lon="152.6186839">
<ele>99.937</ele>
<time>2015-12-04T21:55:59.069Z</time>
</trkpt>
<trkpt lat="-28.0399853" lon="152.6179172">
<ele>99.505</ele>
<time>2015-12-04T21:56:02.009Z</time>
</trkpt>
<trkpt lat="-28.0400012" lon="152.6171590">
<ele>99.347</ele>
<time>2015-12-04T21:56:04.914Z</time>
</trkpt>
<trkpt lat="-28.0401234" lon="152.6166731">
<ele>99.406</ele>
<time>2015-12-04T21:56:06.872Z</time>
</trkpt>
<trkpt lat="-28.0403340" lon="152.6162057">
<ele>99.704</ele>
<time>2015-12-04T21:56:08.912Z</time>
</trkpt>
<trkpt lat="-28.0406521" lon="152.6158100">
<ele>100.163</ele>
<time>2015-12-04T21:56:10.965Z</time>
</trkpt>
<trkpt lat="-28.0410013" lon="152.6154720">
<ele>101.002</ele>
<time>2015-12-04T21:56:12.938Z</time>
</trkpt>
<trkpt lat="-28.0415430" lon="152.6150045">
<ele>102.300</ele>
<time>2015-12-04T21:56:15.897Z</time>
</trkpt>
<trkpt lat="-28.0420557" lon="152.6145503">
<ele>103.188</ele>
<time>2015-12-04T21:56:18.825Z</time>
</trkpt>
<trkpt lat="-28.0424429" lon="152.6140881">
<ele>103.045</ele>
<time>2015-12-04T21:56:21.496Z</time>
</trkpt>
<trkpt lat="-28.0427271" lon="152.6135202">
<ele>102.520</ele>
<time>2015-12-04T21:56:24.394Z</time>
</trkpt>
<trkpt lat="-28.0428472" lon="152.6131270">
<ele>102.576</ele>
<time>2015-12-04T21:56:26.301Z</time>
</trkpt>
<trkpt lat="-28.0429833" lon="152.6124872">
<ele>103.507</ele>
<time>2015-12-04T21:56:29.306Z</time>
</trkpt>
<trkpt lat="-28.0431220" lon="152.6118123">
<ele>104.750</ele>
<time>2015-12-04T21:56:32.361Z</time>
</trkpt>
<trkpt lat="-28.0433394" lon="152.6111121">
<ele>105.240</ele>
<time>2015-12-04T21:56:35.510Z</time>
</trkpt>
<trkpt lat="-28.0437153" lon="152.6105081">
<ele>104.116</ele>
<time>2015-12-04T21:56:38.529Z</time>
</trkpt>
<trkpt lat="-28.0440280" lon="152.6101298">
<ele>101.826</ele>
<time>2015-12-04T21:56:40.583Z</time>
</trkpt>
<trkpt lat="-28.0447148" lon="152.6094286">
<ele>100.620</ele>
<time>2015-12-04T21:56:44.298Z</time>
</trkpt>
<trkpt lat="-28.0454072" lon="152.6086984">
<ele>102.810</ele>
<time>2015-12-04T21:56:47.564Z</time>
</trkpt>
<trkpt lat="-28.0459060" lon="152.6081656">
<ele>107.578</ele>
<time>2015-12-04T21:56:49.768Z</time>
</trkpt>
<trkpt lat="-28.0468694" lon="152.6071259">
<ele>109.847</ele>
<time>2015-12-04T21:56:53.913Z</time>
</trkpt>
<trkpt lat="-28.0473075" lon="152.6066571">
<ele>106.566</ele>
<time>2015-12-04T21:56:55.823Z</time>
</trkpt>
<trkpt lat="-28.0479408" lon="152.6059631">
<ele>100.803</ele>
<time>2015-12-04T21:56:58.737Z</time>
</trkpt>
<trkpt lat="-28.0485852" lon="152.6052829">
<ele>96.371</ele>
<time>2015-12-04T21:57:01.693Z</time>
</trkpt>
<trkpt lat="-28.0492191" lon="152.6045878">
<ele>93.883</ele>
<time>2015-12-04T21:57:04.640Z</time>
</trkpt>
<trkpt lat="-28.0496575" lon="152.6040944">
<ele>92.770</ele>
<time>2015-12-04T21:57:06.677Z</time>
</trkpt>
<trkpt lat="-28.0500831" lon="152.6036279">
<ele>92.606</ele>
<time>2015-12-04T21:57:08.618Z</time>
</trkpt>
<trkpt lat="-28.0507221" lon="152.6029262">
<ele>93.082</ele>
<time>2015-12-04T21:57:11.575Z</time>
</trkpt>
<trkpt lat="-28.0513609" lon="152.6022449">
<ele>93.390</ele>
<time>2015-12-04T21:57:14.526Z</time>
</trkpt>
<trkpt lat="-28.0519648" lon="152.6015756">
<ele>93.025</ele>
<time>2015-12-04T21:57:17.435Z</time>
</trkpt>
<trkpt lat="-28.0525385" lon="152.6009390">
<ele>92.713</ele>
<time>2015-12-04T21:57:20.326Z</time>
</trkpt>
<trkpt lat="-28.0530637" lon="152.6003709">
<ele>93.326</ele>
<time>2015-12-04T21:57:23.119Z</time>
</trkpt>
<trkpt lat="-28.0533941" lon="152.5999993">
<ele>94.542</ele>
<time>2015-12-04T21:57:25.006Z</time>
</trkpt>
<trkpt lat="-28.0538964" lon="152.5995320">
<ele>95.497</ele>
<time>2015-12-04T21:57:27.809Z</time>
</trkpt>
<trkpt lat="-28.0544678" lon="152.5991958">
<ele>95.881</ele>
<time>2015-12-04T21:57:30.723Z</time>
</trkpt>
<trkpt lat="-28.0550334" lon="152.5988801">
<ele>96.507</ele>
<time>2015-12-04T21:57:33.686Z</time>
</trkpt>
<trkpt lat="-28.0554225" lon="152.5986886">
<ele>97.998</ele>
<time>2015-12-04T21:57:35.697Z</time>
</trkpt>
<trkpt lat="-28.0560437" lon="152.5983871">
<ele>99.262</ele>
<time>2015-12-04T21:57:38.792Z</time>
</trkpt>
<trkpt lat="-28.0564690" lon="152.5981636">
<ele>99.258</ele>
<time>2015-12-04T21:57:40.858Z</time>
</trkpt>
<trkpt lat="-28.0568866" lon="152.5979324">
<ele>98.899</ele>
<time>2015-12-04T21:57:42.845Z</time>
</trkpt>
<trkpt lat="-28.0575268" lon="152.5975894">
<ele>99.857</ele>
<time>2015-12-04T21:57:45.852Z</time>
</trkpt>
<trkpt lat="-28.0581433" lon="152.5972822">
<ele>102.242</ele>
<time>2015-12-04T21:57:48.765Z</time>
</trkpt>
<trkpt lat="-28.0585599" lon="152.5970782">
<ele>104.385</ele>
<time>2015-12-04T21:57:50.770Z</time>
</trkpt>
<trkpt lat="-28.0589698" lon="152.5968528">
<ele>104.741</ele>
<time>2015-12-04T21:57:52.824Z</time>
</trkpt>
<trkpt lat="-28.0595518" lon="152.5965325">
<ele>103.488</ele>
<time>2015-12-04T21:57:55.756Z</time>
</trkpt>
<trkpt lat="-28.0599491" lon="152.5963196">
<ele>102.104</ele>
<time>2015-12-04T21:57:57.747Z</time>
</trkpt>
<trkpt lat="-28.0604934" lon="152.5960298">
<ele>101.964</ele>
<time>2015-12-04T21:58:00.548Z</time>
</trkpt>
<trkpt lat="-28.0609784" lon="152.5957837">
<ele>102.975</ele>
<time>2015-12-04T21:58:03.218Z</time>
</trkpt>
<trkpt lat="-28.0614457" lon="152.5955556">
<ele>104.071</ele>
<time>2015-12-04T21:58:06.048Z</time>
</trkpt>
<trkpt lat="-28.0617237" lon="152.5954646">
<ele>104.309</ele>
<time>2015-12-04T21:58:07.764Z</time>
</trkpt>
<trkpt lat="-28.0621271" lon="152.5954602">
<ele>103.511</ele>
<time>2015-12-04T21:58:10.360Z</time>
</trkpt>
<trkpt lat="-28.0625906" lon="152.5955397">
<ele>102.348</ele>
<time>2015-12-04T21:58:13.601Z</time>
</trkpt>
<trkpt lat="-28.0630632" lon="152.5956242">
<ele>101.685</ele>
<time>2015-12-04T21:58:16.744Z</time>
</trkpt>
<trkpt lat="-28.0633332" lon="152.5956697">
<ele>101.619</ele>
<time>2015-12-04T21:58:18.440Z</time>
</trkpt>
<trkpt lat="-28.0637311" lon="152.5956778">
<ele>102.011</ele>
<time>2015-12-04T21:58:21.011Z</time>
</trkpt>
<trkpt lat="-28.0639722" lon="152.5956027">
<ele>103.059</ele>
<time>2015-12-04T21:58:22.810Z</time>
</trkpt>
<trkpt lat="-28.0643538" lon="152.5954859">
<ele>104.505</ele>
<time>2015-12-04T21:58:25.767Z</time>
</trkpt>
<trkpt lat="-28.0645867" lon="152.5953928">
<ele>105.829</ele>
<time>2015-12-04T21:58:27.678Z</time>
</trkpt>
<trkpt lat="-28.0649658" lon="152.5952596">
<ele>106.780</ele>
<time>2015-12-04T21:58:30.769Z</time>
</trkpt>
<trkpt lat="-28.0653746" lon="152.5951324">
<ele>107.291</ele>
<time>2015-12-04T21:58:33.959Z</time>
</trkpt>
<trkpt lat="-28.0657920" lon="152.5950781">
<ele>107.520</ele>
<time>2015-12-04T21:58:36.955Z</time>
</trkpt>
<trkpt lat="-28.0662411" lon="152.5950262">
<ele>107.745</ele>
<time>2015-12-04T21:58:40.091Z</time>
</trkpt>
<trkpt lat="-28.0666632" lon="152.5949865">
<ele>107.952</ele>
<time>2015-12-04T21:58:43.028Z</time>
</trkpt>
<trkpt lat="-28.0669410" lon="152.5949467">
<ele>107.717</ele>
<time>2015-12-04T21:58:44.975Z</time>
</trkpt>
<trkpt lat="-28.0673779" lon="152.5949029">
<ele>106.815</ele>
<time>2015-12-04T21:58:48.029Z</time>
</trkpt>
<trkpt lat="-28.0678074" lon="152.5948640">
<ele>105.856</ele>
<time>2015-12-04T21:58:51.006Z</time>
</trkpt>
<trkpt lat="-28.0682342" lon="152.5948315">
<ele>105.613</ele>
<time>2015-12-04T21:58:53.949Z</time>
</trkpt>
<trkpt lat="-28.0686281" lon="152.5948108">
<ele>106.081</ele>
<time>2015-12-04T21:58:56.684Z</time>
</trkpt>
<trkpt lat="-28.0689609" lon="152.5947493">
<ele>106.472</ele>
<time>2015-12-04T21:58:59.108Z</time>
</trkpt>
<trkpt lat="-28.0690576" lon="152.5945534">
<ele>105.833</ele>
<time>2015-12-04T21:59:00.616Z</time>
</trkpt>
<trkpt lat="-28.0691100" lon="152.5941044">
<ele>104.315</ele>
<time>2015-12-04T21:59:04.057Z</time>
</trkpt>
<trkpt lat="-28.0691256" lon="152.5937409">
<ele>103.560</ele>
<time>2015-12-04T21:59:06.994Z</time>
</trkpt>
<trkpt lat="-28.0691554" lon="152.5933656">
<ele>104.897</ele>
<time>2015-12-04T21:59:09.502Z</time>
</trkpt>
<trkpt lat="-28.0691831" lon="152.5928362">
<ele>107.448</ele>
<time>2015-12-04T21:59:12.513Z</time>
</trkpt>
<trkpt lat="-28.0692002" lon="152.5924912">
<ele>109.446</ele>
<time>2015-12-04T21:59:14.442Z</time>
</trkpt>
<trkpt lat="-28.0692033" lon="152.5921180">
<ele>110.299</ele>
<time>2015-12-04T21:59:16.568Z</time>
</trkpt>
<trkpt lat="-28.0692327" lon="152.5915757">
<ele>110.405</ele>
<time>2015-12-04T21:59:19.616Z</time>
</trkpt>
<trkpt lat="-28.0692529" lon="152.5912509">
<ele>110.365</ele>
<time>2015-12-04T21:59:21.423Z</time>
</trkpt>
<trkpt lat="-28.0693432" lon="152.5907822">
<ele>110.539</ele>
<time>2015-12-04T21:59:24.176Z</time>
</trkpt>
<trkpt lat="-28.0697024" lon="152.5905496">
<ele>111.041</ele>
<time>2015-12-04T21:59:27.044Z</time>
</trkpt>
<trkpt lat="-28.0699839" lon="152.5904485">
<ele>112.050</ele>
<time>2015-12-04T21:59:29.209Z</time>
</trkpt>
<trkpt lat="-28.0705200" lon="152.5903656">
<ele>113.805</ele>
<time>2015-12-04T21:59:32.830Z</time>
</trkpt>
<trkpt lat="-28.0710554" lon="152.5902873">
<ele>116.186</ele>
<time>2015-12-04T21:59:35.934Z</time>
</trkpt>
<trkpt lat="-28.0715008" lon="152.5902317">
<ele>118.429</ele>
<time>2015-12-04T21:59:38.469Z</time>
</trkpt>
<trkpt lat="-28.0718188" lon="152.5901815">
<ele>119.533</ele>
<time>2015-12-04T21:59:40.445Z</time>
</trkpt>
<trkpt lat="-28.0721149" lon="152.5901278">
<ele>119.395</ele>
<time>2015-12-04T21:59:42.414Z</time>
</trkpt>
<trkpt lat="-28.0723969" lon="152.5900758">
<ele>118.799</ele>
<time>2015-12-04T21:59:44.356Z</time>
</trkpt>
<trkpt lat="-28.0728047" lon="152.5899608">
<ele>118.364</ele>
<time>2015-12-04T21:59:47.270Z</time>
</trkpt>
<trkpt lat="-28.0730592" lon="152.5898489">
<ele>118.143</ele>
<time>2015-12-04T21:59:49.200Z</time>
</trkpt>
<trkpt lat="-28.0732629" lon="152.5897159">
<ele>118.024</ele>
<time>2015-12-04T21:59:50.903Z</time>
</trkpt>
<trkpt lat="-28.0734789" lon="152.5896406">
<ele>117.899</ele>
<time>2015-12-04T21:59:52.607Z</time>
</trkpt>
<trkpt lat="-28.0738090" lon="152.5897116">
<ele>117.779</ele>
<time>2015-12-04T21:59:55.392Z</time>
</trkpt>
<trkpt lat="-28.0741238" lon="152.5897100">
<ele>117.901</ele>
<time>2015-12-04T21:59:58.115Z</time>
</trkpt>
<trkpt lat="-28.0746400" lon="152.5896243">
<ele>118.717</ele>
<time>2015-12-04T22:00:01.898Z</time>
</trkpt>
<trkpt lat="-28.0750145" lon="152.5895695">
<ele>120.824</ele>
<time>2015-12-04T22:00:04.197Z</time>
</trkpt>
<trkpt lat="-28.0754310" lon="152.5895115">
<ele>123.799</ele>
<time>2015-12-04T22:00:06.477Z</time>
</trkpt>
<trkpt lat="-28.0758531" lon="152.5893924">
<ele>126.015</ele>
<time>2015-12-04T22:00:08.710Z</time>
</trkpt>
<trkpt lat="-28.0764066" lon="152.5892839">
<ele>126.413</ele>
<time>2015-12-04T22:00:11.537Z</time>
</trkpt>
<trkpt lat="-28.0767893" lon="152.5892514">
<ele>125.179</ele>
<time>2015-12-04T22:00:13.502Z</time>
</trkpt>
<trkpt lat="-28.0771390" lon="152.5893289">
<ele>123.259</ele>
<time>2015-12-04T22:00:15.399Z</time>
</trkpt>
<trkpt lat="-28.0776231" lon="152.5894623">
<ele>121.839</ele>
<time>2015-12-04T22:00:18.161Z</time>
</trkpt>
<trkpt lat="-28.0779630" lon="152.5894707">
<ele>121.331</ele>
<time>2015-12-04T22:00:20.099Z</time>
</trkpt>
<trkpt lat="-28.0783264" lon="152.5894158">
<ele>121.360</ele>
<time>2015-12-04T22:00:22.260Z</time>
</trkpt>
<trkpt lat="-28.0789309" lon="152.5892815">
<ele>121.824</ele>
<time>2015-12-04T22:00:25.669Z</time>
</trkpt>
<trkpt lat="-28.0795253" lon="152.5891331">
<ele>123.151</ele>
<time>2015-12-04T22:00:28.733Z</time>
</trkpt>
<trkpt lat="-28.0799074" lon="152.5890444">
<ele>125.318</ele>
<time>2015-12-04T22:00:30.628Z</time>
</trkpt>
<trkpt lat="-28.0802848" lon="152.5889683">
<ele>127.370</ele>
<time>2015-12-04T22:00:32.507Z</time>
</trkpt>
<trkpt lat="-28.0806366" lon="152.5888829">
<ele>128.482</ele>
<time>2015-12-04T22:00:34.337Z</time>
</trkpt>
<trkpt lat="-28.0809951" lon="152.5887829">
<ele>128.714</ele>
<time>2015-12-04T22:00:36.305Z</time>
</trkpt>
<trkpt lat="-28.0815326" lon="152.5886776">
<ele>128.640</ele>
<time>2015-12-04T22:00:39.309Z</time>
</trkpt>
<trkpt lat="-28.0818804" lon="152.5885927">
<ele>128.704</ele>
<time>2015-12-04T22:00:41.281Z</time>
</trkpt>
<trkpt lat="-28.0823781" lon="152.5885147">
<ele>128.995</ele>
<time>2015-12-04T22:00:44.124Z</time>
</trkpt>
<trkpt lat="-28.0828803" lon="152.5884052">
<ele>129.329</ele>
<time>2015-12-04T22:00:47.110Z</time>
</trkpt>
<trkpt lat="-28.0831754" lon="152.5883211">
<ele>129.507</ele>
<time>2015-12-04T22:00:48.915Z</time>
</trkpt>
<trkpt lat="-28.0835667" lon="152.5880516">
<ele>129.516</ele>
<time>2015-12-04T22:00:51.682Z</time>
</trkpt>
<trkpt lat="-28.0839913" lon="152.5876152">
<ele>129.717</ele>
<time>2015-12-04T22:00:55.081Z</time>
</trkpt>
<trkpt lat="-28.0842872" lon="152.5872977">
<ele>130.897</ele>
<time>2015-12-04T22:00:57.324Z</time>
</trkpt>
<trkpt lat="-28.0847478" lon="152.5868087">
<ele>133.192</ele>
<time>2015-12-04T22:01:00.462Z</time>
</trkpt>
<trkpt lat="-28.0850636" lon="152.5864891">
<ele>135.848</ele>
<time>2015-12-04T22:01:02.505Z</time>
</trkpt>
<trkpt lat="-28.0853731" lon="152.5861961">
<ele>138.100</ele>
<time>2015-12-04T22:01:04.419Z</time>
</trkpt>
<trkpt lat="-28.0856720" lon="152.5859385">
<ele>139.302</ele>
<time>2015-12-04T22:01:06.226Z</time>
</trkpt>
<trkpt lat="-28.0861356" lon="152.5855633">
<ele>139.198</ele>
<time>2015-12-04T22:01:09.123Z</time>
</trkpt>
<trkpt lat="-28.0864701" lon="152.5852940">
<ele>138.447</ele>
<time>2015-12-04T22:01:11.255Z</time>
</trkpt>
<trkpt lat="-28.0869782" lon="152.5849168">
<ele>137.810</ele>
<time>2015-12-04T22:01:14.347Z</time>
</trkpt>
<trkpt lat="-28.0874332" lon="152.5845758">
<ele>136.920</ele>
<time>2015-12-04T22:01:17.094Z</time>
</trkpt>
<trkpt lat="-28.0878603" lon="152.5842675">
<ele>135.182</ele>
<time>2015-12-04T22:01:19.760Z</time>
</trkpt>
<trkpt lat="-28.0883018" lon="152.5839765">
<ele>133.334</ele>
<time>2015-12-04T22:01:22.623Z</time>
</trkpt>
<trkpt lat="-28.0885971" lon="152.5837581">
<ele>132.979</ele>
<time>2015-12-04T22:01:24.669Z</time>
</trkpt>
<trkpt lat="-28.0890537" lon="152.5834043">
<ele>134.696</ele>
<time>2015-12-04T22:01:27.827Z</time>
</trkpt>
<trkpt lat="-28.0893528" lon="152.5831664">
<ele>137.793</ele>
<time>2015-12-04T22:01:29.856Z</time>
</trkpt>
<trkpt lat="-28.0898324" lon="152.5828987">
<ele>140.925</ele>
<time>2015-12-04T22:01:32.820Z</time>
</trkpt>
<trkpt lat="-28.0901411" lon="152.5827406">
<ele>142.989</ele>
<time>2015-12-04T22:01:34.739Z</time>
</trkpt>
<trkpt lat="-28.0906432" lon="152.5825045">
<ele>143.787</ele>
<time>2015-12-04T22:01:37.823Z</time>
</trkpt>
<trkpt lat="-28.0911528" lon="152.5823038">
<ele>144.070</ele>
<time>2015-12-04T22:01:40.774Z</time>
</trkpt>
<trkpt lat="-28.0914859" lon="152.5821750">
<ele>144.352</ele>
<time>2015-12-04T22:01:42.676Z</time>
</trkpt>
<trkpt lat="-28.0917926" lon="152.5820743">
<ele>144.615</ele>
<time>2015-12-04T22:01:44.450Z</time>
</trkpt>
<trkpt lat="-28.0920752" lon="152.5819718">
<ele>144.435</ele>
<time>2015-12-04T22:01:46.187Z</time>
</trkpt>
<trkpt lat="-28.0925226" lon="152.5817947">
<ele>143.671</ele>
<time>2015-12-04T22:01:49.246Z</time>
</trkpt>
<trkpt lat="-28.0928482" lon="152.5816539">
<ele>143.028</ele>
<time>2015-12-04T22:01:51.556Z</time>
</trkpt>
<trkpt lat="-28.0934117" lon="152.5814111">
<ele>143.341</ele>
<time>2015-12-04T22:01:55.013Z</time>
</trkpt>
<trkpt lat="-28.0938076" lon="152.5812471">
<ele>144.559</ele>
<time>2015-12-04T22:01:57.188Z</time>
</trkpt>
<trkpt lat="-28.0943746" lon="152.5810165">
<ele>145.940</ele>
<time>2015-12-04T22:02:00.117Z</time>
</trkpt>
<trkpt lat="-28.0948943" lon="152.5808065">
<ele>146.751</ele>
<time>2015-12-04T22:02:02.844Z</time>
</trkpt>
<trkpt lat="-28.0952610" lon="152.5806446">
<ele>146.796</ele>
<time>2015-12-04T22:02:04.847Z</time>
</trkpt>
<trkpt lat="-28.0957589" lon="152.5804261">
<ele>146.398</ele>
<time>2015-12-04T22:02:07.647Z</time>
</trkpt>
<trkpt lat="-28.0960991" lon="152.5802886">
<ele>146.118</ele>
<time>2015-12-04T22:02:09.566Z</time>
</trkpt>
<trkpt lat="-28.0964295" lon="152.5801299">
<ele>146.468</ele>
<time>2015-12-04T22:02:11.494Z</time>
</trkpt>
<trkpt lat="-28.0969613" lon="152.5799195">
<ele>147.416</ele>
<time>2015-12-04T22:02:14.531Z</time>
</trkpt>
<trkpt lat="-28.0975120" lon="152.5796858">
<ele>148.572</ele>
<time>2015-12-04T22:02:17.686Z</time>
</trkpt>
<trkpt lat="-28.0978397" lon="152.5795446">
<ele>149.764</ele>
<time>2015-12-04T22:02:19.555Z</time>
</trkpt>
<trkpt lat="-28.0982102" lon="152.5794172">
<ele>150.827</ele>
<time>2015-12-04T22:02:21.649Z</time>
</trkpt>
<trkpt lat="-28.0985021" lon="152.5792991">
<ele>151.475</ele>
<time>2015-12-04T22:02:23.393Z</time>
</trkpt>
<trkpt lat="-28.0988856" lon="152.5790967">
<ele>151.685</ele>
<time>2015-12-04T22:02:25.890Z</time>
</trkpt>
<trkpt lat="-28.0990505" lon="152.5788774">
<ele>151.661</ele>
<time>2015-12-04T22:02:27.575Z</time>
</trkpt>
<trkpt lat="-28.0992698" lon="152.5784532">
<ele>151.745</ele>
<time>2015-12-04T22:02:30.636Z</time>
</trkpt>
<trkpt lat="-28.0994064" lon="152.5781560">
<ele>153.450</ele>
<time>2015-12-04T22:02:32.773Z</time>
</trkpt>
<trkpt lat="-28.0995279" lon="152.5778990">
<ele>157.501</ele>
<time>2015-12-04T22:02:34.609Z</time>
</trkpt>
<trkpt lat="-28.0996512" lon="152.5776623">
<ele>161.695</ele>
<time>2015-12-04T22:02:36.324Z</time>
</trkpt>
<trkpt lat="-28.0998975" lon="152.5774138">
<ele>163.038</ele>
<time>2015-12-04T22:02:38.767Z</time>
</trkpt>
<trkpt lat="-28.1002358" lon="152.5773531">
<ele>160.368</ele>
<time>2015-12-04T22:02:41.550Z</time>
</trkpt>
<trkpt lat="-28.1005346" lon="152.5773162">
<ele>154.870</ele>
<time>2015-12-04T22:02:44.120Z</time>
</trkpt>
<trkpt lat="-28.1008432" lon="152.5772897">
<ele>149.639</ele>
<time>2015-12-04T22:02:46.695Z</time>
</trkpt>
<trkpt lat="-28.1011480" lon="152.5772307">
<ele>146.900</ele>
<time>2015-12-04T22:02:48.924Z</time>
</trkpt>
<trkpt lat="-28.1014210" lon="152.5771032">
<ele>146.758</ele>
<time>2015-12-04T22:02:50.874Z</time>
</trkpt>
<trkpt lat="-28.1017803" lon="152.5767438">
<ele>148.060</ele>
<time>2015-12-04T22:02:53.926Z</time>
</trkpt>
<trkpt lat="-28.1020156" lon="152.5764582">
<ele>149.477</ele>
<time>2015-12-04T22:02:56.056Z</time>
</trkpt>
<trkpt lat="-28.1023289" lon="152.5758752">
<ele>150.575</ele>
<time>2015-12-04T22:02:59.617Z</time>
</trkpt>
<trkpt lat="-28.1025266" lon="152.5755018">
<ele>152.057</ele>
<time>2015-12-04T22:03:01.708Z</time>
</trkpt>
<trkpt lat="-28.1028345" lon="152.5749779">
<ele>154.052</ele>
<time>2015-12-04T22:03:04.576Z</time>
</trkpt>
<trkpt lat="-28.1031156" lon="152.5745344">
<ele>155.417</ele>
<time>2015-12-04T22:03:07.109Z</time>
</trkpt>
<trkpt lat="-28.1033051" lon="152.5742595">
<ele>155.428</ele>
<time>2015-12-04T22:03:08.891Z</time>
</trkpt>
<trkpt lat="-28.1035869" lon="152.5741067">
<ele>154.693</ele>
<time>2015-12-04T22:03:10.773Z</time>
</trkpt>
<trkpt lat="-28.1042104" lon="152.5738087">
<ele>154.160</ele>
<time>2015-12-04T22:03:15.193Z</time>
</trkpt>
<trkpt lat="-28.1045429" lon="152.5737282">
<ele>154.618</ele>
<time>2015-12-04T22:03:17.317Z</time>
</trkpt>
<trkpt lat="-28.1049888" lon="152.5736890">
<ele>156.056</ele>
<time>2015-12-04T22:03:20.009Z</time>
</trkpt>
<trkpt lat="-28.1052815" lon="152.5736756">
<ele>157.055</ele>
<time>2015-12-04T22:03:21.874Z</time>
</trkpt>
<trkpt lat="-28.1057463" lon="152.5737379">
<ele>156.657</ele>
<time>2015-12-04T22:03:24.963Z</time>
</trkpt>
<trkpt lat="-28.1062564" lon="152.5739159">
<ele>156.398</ele>
<time>2015-12-04T22:03:28.420Z</time>
</trkpt>
<trkpt lat="-28.1066276" lon="152.5740437">
<ele>158.641</ele>
<time>2015-12-04T22:03:30.746Z</time>
</trkpt>
<trkpt lat="-28.1071875" lon="152.5742561">
<ele>163.715</ele>
<time>2015-12-04T22:03:33.937Z</time>
</trkpt>
<trkpt lat="-28.1075320" lon="152.5743677">
<ele>169.891</ele>
<time>2015-12-04T22:03:35.795Z</time>
</trkpt>
<trkpt lat="-28.1078423" lon="152.5745349">
<ele>175.284</ele>
<time>2015-12-04T22:03:37.580Z</time>
</trkpt>
<trkpt lat="-28.1082378" lon="152.5748799">
<ele>178.911</ele>
<time>2015-12-04T22:03:40.273Z</time>
</trkpt>
<trkpt lat="-28.1083988" lon="152.5752153">
<ele>181.643</ele>
<time>2015-12-04T22:03:42.189Z</time>
</trkpt>
<trkpt lat="-28.1085280" lon="152.5755979">
<ele>185.484</ele>
<time>2015-12-04T22:03:44.276Z</time>
</trkpt>
<trkpt lat="-28.1087278" lon="152.5759028">
<ele>190.356</ele>
<time>2015-12-04T22:03:46.218Z</time>
</trkpt>
<trkpt lat="-28.1090091" lon="152.5763511">
<ele>194.352</ele>
<time>2015-12-04T22:03:49.025Z</time>
</trkpt>
<trkpt lat="-28.1093727" lon="152.5766546">
<ele>196.630</ele>
<time>2015-12-04T22:03:51.726Z</time>
</trkpt>
<trkpt lat="-28.1098641" lon="152.5769279">
<ele>197.171</ele>
<time>2015-12-04T22:03:55.074Z</time>
</trkpt>
<trkpt lat="-28.1102295" lon="152.5771069">
<ele>196.219</ele>
<time>2015-12-04T22:03:57.358Z</time>
</trkpt>
<trkpt lat="-28.1107594" lon="152.5773622">
<ele>194.814</ele>
<time>2015-12-04T22:04:00.437Z</time>
</trkpt>
<trkpt lat="-28.1112736" lon="152.5776301">
<ele>194.384</ele>
<time>2015-12-04T22:04:03.381Z</time>
</trkpt>
<trkpt lat="-28.1115215" lon="152.5778238">
<ele>195.849</ele>
<time>2015-12-04T22:04:04.961Z</time>
</trkpt>
<trkpt lat="-28.1117213" lon="152.5781253">
<ele>198.780</ele>
<time>2015-12-04T22:04:06.748Z</time>
</trkpt>
<trkpt lat="-28.1119991" lon="152.5786156">
<ele>202.271</ele>
<time>2015-12-04T22:04:09.730Z</time>
</trkpt>
<trkpt lat="-28.1121693" lon="152.5789383">
<ele>206.067</ele>
<time>2015-12-04T22:04:11.700Z</time>
</trkpt>
<trkpt lat="-28.1123481" lon="152.5792498">
<ele>209.496</ele>
<time>2015-12-04T22:04:13.628Z</time>
</trkpt>
<trkpt lat="-28.1125111" lon="152.5795511">
<ele>211.011</ele>
<time>2015-12-04T22:04:15.442Z</time>
</trkpt>
<trkpt lat="-28.1127137" lon="152.5797751">
<ele>209.752</ele>
<time>2015-12-04T22:04:17.121Z</time>
</trkpt>
<trkpt lat="-28.1130848" lon="152.5799905">
<ele>206.443</ele>
<time>2015-12-04T22:04:19.749Z</time>
</trkpt>
<trkpt lat="-28.1136129" lon="152.5801520">
<ele>202.960</ele>
<time>2015-12-04T22:04:23.527Z</time>
</trkpt>
<trkpt lat="-28.1141989" lon="152.5803265">
<ele>201.469</ele>
<time>2015-12-04T22:04:27.256Z</time>
</trkpt>
<trkpt lat="-28.1145616" lon="152.5804912">
<ele>203.566</ele>
<time>2015-12-04T22:04:29.283Z</time>
</trkpt>
<trkpt lat="-28.1148926" lon="152.5806434">
<ele>208.923</ele>
<time>2015-12-04T22:04:31.104Z</time>
</trkpt>
<trkpt lat="-28.1155216" lon="152.5809528">
<ele>215.558</ele>
<time>2015-12-04T22:04:34.682Z</time>
</trkpt>
<trkpt lat="-28.1157727" lon="152.5810729">
<ele>222.177</ele>
<time>2015-12-04T22:04:36.177Z</time>
</trkpt>
<trkpt lat="-28.1160284" lon="152.5811720">
<ele>227.889</ele>
<time>2015-12-04T22:04:37.679Z</time>
</trkpt>
<trkpt lat="-28.1162893" lon="152.5813069">
<ele>230.823</ele>
<time>2015-12-04T22:04:39.384Z</time>
</trkpt>
<trkpt lat="-28.1165054" lon="152.5815739">
<ele>229.901</ele>
<time>2015-12-04T22:04:41.440Z</time>
</trkpt>
<trkpt lat="-28.1168465" lon="152.5821362">
<ele>226.745</ele>
<time>2015-12-04T22:04:45.466Z</time>
</trkpt>
<trkpt lat="-28.1170513" lon="152.5824804">
<ele>224.159</ele>
<time>2015-12-04T22:04:47.679Z</time>
</trkpt>
<trkpt lat="-28.1173715" lon="152.5829562">
<ele>223.424</ele>
<time>2015-12-04T22:04:50.637Z</time>
</trkpt>
<trkpt lat="-28.1175290" lon="152.5832546">
<ele>223.827</ele>
<time>2015-12-04T22:04:52.330Z</time>
</trkpt>
<trkpt lat="-28.1178204" lon="152.5836917">
<ele>224.361</ele>
<time>2015-12-04T22:04:55.079Z</time>
</trkpt>
<trkpt lat="-28.1180271" lon="152.5839745">
<ele>224.528</ele>
<time>2015-12-04T22:04:57.025Z</time>
</trkpt>
<trkpt lat="-28.1182918" lon="152.5844492">
<ele>224.058</ele>
<time>2015-12-04T22:05:00.058Z</time>
</trkpt>
<trkpt lat="-28.1185053" lon="152.5847825">
<ele>222.382</ele>
<time>2015-12-04T22:05:02.258Z</time>
</trkpt>
<trkpt lat="-28.1187180" lon="152.5851137">
<ele>219.387</ele>
<time>2015-12-04T22:05:04.407Z</time>
</trkpt>
<trkpt lat="-28.1189290" lon="152.5854289">
<ele>215.759</ele>
<time>2015-12-04T22:05:06.410Z</time>
</trkpt>
<trkpt lat="-28.1192179" lon="152.5858824">
<ele>212.097</ele>
<time>2015-12-04T22:05:09.194Z</time>
</trkpt>
<trkpt lat="-28.1194709" lon="152.5861341">
<ele>208.424</ele>
<time>2015-12-04T22:05:11.139Z</time>
</trkpt>
<trkpt lat="-28.1199189" lon="152.5863981">
<ele>205.058</ele>
<time>2015-12-04T22:05:14.139Z</time>
</trkpt>
<trkpt lat="-28.1203662" lon="152.5866243">
<ele>202.687</ele>
<time>2015-12-04T22:05:17.073Z</time>
</trkpt>
<trkpt lat="-28.1206947" lon="152.5867120">
<ele>201.272</ele>
<time>2015-12-04T22:05:19.109Z</time>
</trkpt>
<trkpt lat="-28.1210453" lon="152.5867950">
<ele>199.728</ele>
<time>2015-12-04T22:05:21.284Z</time>
</trkpt>
<trkpt lat="-28.1215869" lon="152.5867320">
<ele>196.974</ele>
<time>2015-12-04T22:05:24.504Z</time>
</trkpt>
<trkpt lat="-28.1219846" lon="152.5866298">
<ele>192.196</ele>
<time>2015-12-04T22:05:26.767Z</time>
</trkpt>
<trkpt lat="-28.1225100" lon="152.5862904">
<ele>185.527</ele>
<time>2015-12-04T22:05:29.993Z</time>
</trkpt>
<trkpt lat="-28.1228483" lon="152.5860476">
<ele>178.297</ele>
<time>2015-12-04T22:05:32.034Z</time>
</trkpt>
<trkpt lat="-28.1231568" lon="152.5858147">
<ele>171.999</ele>
<time>2015-12-04T22:05:33.897Z</time>
</trkpt>
<trkpt lat="-28.1237024" lon="152.5855981">
<ele>167.255</ele>
<time>2015-12-04T22:05:36.828Z</time>
</trkpt>
<trkpt lat="-28.1242736" lon="152.5854800">
<ele>164.166</ele>
<time>2015-12-04T22:05:39.851Z</time>
</trkpt>
<trkpt lat="-28.1246679" lon="152.5854187">
<ele>162.790</ele>
<time>2015-12-04T22:05:41.898Z</time>
</trkpt>
<trkpt lat="-28.1250778" lon="152.5853452">
<ele>162.846</ele>
<time>2015-12-04T22:05:44.017Z</time>
</trkpt>
<trkpt lat="-28.1254927" lon="152.5852818">
<ele>163.495</ele>
<time>2015-12-04T22:05:46.115Z</time>
</trkpt>
<trkpt lat="-28.1261273" lon="152.5851666">
<ele>163.879</ele>
<time>2015-12-04T22:05:49.245Z</time>
</trkpt>
<trkpt lat="-28.1265328" lon="152.5850947">
<ele>163.346</ele>
<time>2015-12-04T22:05:51.209Z</time>
</trkpt>
<trkpt lat="-28.1271850" lon="152.5849749">
<ele>162.038</ele>
<time>2015-12-04T22:05:54.330Z</time>
</trkpt>
<trkpt lat="-28.1278588" lon="152.5848615">
<ele>160.832</ele>
<time>2015-12-04T22:05:57.422Z</time>
</trkpt>
<trkpt lat="-28.1282529" lon="152.5848021">
<ele>160.224</ele>
<time>2015-12-04T22:05:59.189Z</time>
</trkpt>
<trkpt lat="-28.1287131" lon="152.5847334">
<ele>159.442</ele>
<time>2015-12-04T22:06:01.272Z</time>
</trkpt>
<trkpt lat="-28.1291530" lon="152.5846602">
<ele>157.838</ele>
<time>2015-12-04T22:06:03.272Z</time>
</trkpt>
<trkpt lat="-28.1295904" lon="152.5845682">
<ele>155.958</ele>
<time>2015-12-04T22:06:05.248Z</time>
</trkpt>
<trkpt lat="-28.1302588" lon="152.5844574">
<ele>154.478</ele>
<time>2015-12-04T22:06:08.240Z</time>
</trkpt>
<trkpt lat="-28.1307187" lon="152.5843969">
<ele>153.528</ele>
<time>2015-12-04T22:06:10.286Z</time>
</trkpt>
<trkpt lat="-28.1314722" lon="152.5842743">
<ele>153.691</ele>
<time>2015-12-04T22:06:13.541Z</time>
</trkpt>
<trkpt lat="-28.1322595" lon="152.5841403">
<ele>155.312</ele>
<time>2015-12-04T22:06:16.709Z</time>
</trkpt>
<trkpt lat="-28.1330345" lon="152.5840076">
<ele>157.415</ele>
<time>2015-12-04T22:06:19.697Z</time>
</trkpt>
<trkpt lat="-28.1336281" lon="152.5839271">
<ele>158.116</ele>
<time>2015-12-04T22:06:21.982Z</time>
</trkpt>
<trkpt lat="-28.1342366" lon="152.5837988">
<ele>156.535</ele>
<time>2015-12-04T22:06:24.587Z</time>
</trkpt>
<trkpt lat="-28.1346514" lon="152.5837370">
<ele>153.829</ele>
<time>2015-12-04T22:06:26.490Z</time>
</trkpt>
<trkpt lat="-28.1352638" lon="152.5836469">
<ele>151.817</ele>
<time>2015-12-04T22:06:29.374Z</time>
</trkpt>
<trkpt lat="-28.1358101" lon="152.5835449">
<ele>150.748</ele>
<time>2015-12-04T22:06:32.008Z</time>
</trkpt>
<trkpt lat="-28.1361808" lon="152.5834925">
<ele>149.948</ele>
<time>2015-12-04T22:06:33.854Z</time>
</trkpt>
<trkpt lat="-28.1366262" lon="152.5834093">
<ele>149.224</ele>
<time>2015-12-04T22:06:36.173Z</time>
</trkpt>
<trkpt lat="-28.1368785" lon="152.5833553">
<ele>148.388</ele>
<time>2015-12-04T22:06:37.572Z</time>
</trkpt>
<trkpt lat="-28.1371320" lon="152.5833182">
<ele>146.997</ele>
<time>2015-12-04T22:06:39.055Z</time>
</trkpt>
<trkpt lat="-28.1372331" lon="152.5832570">
<ele>145.011</ele>
<time>2015-12-04T22:06:39.738Z</time>
</trkpt>
<trkpt lat="-28.1372263" lon="152.5830946">
<ele>142.976</ele>
<time>2015-12-04T22:06:40.591Z</time>
</trkpt>
<trkpt lat="-28.1371769" lon="152.5828811">
<ele>141.849</ele>
<time>2015-12-04T22:06:41.878Z</time>
</trkpt>
<trkpt lat="-28.1371313" lon="152.5825867">
<ele>142.504</ele>
<time>2015-12-04T22:06:43.939Z</time>
</trkpt>
<trkpt lat="-28.1371487" lon="152.5817540">
<ele>145.041</ele>
<time>2015-12-04T22:06:53.453Z</time>
</trkpt>
<trkpt lat="-28.1372253" lon="152.5812609">
<ele>149.227</ele>
<time>2015-12-04T22:06:56.859Z</time>
</trkpt>
<trkpt lat="-28.1373683" lon="152.5803944">
<ele>154.196</ele>
<time>2015-12-04T22:07:01.297Z</time>
</trkpt>
<trkpt lat="-28.1374780" lon="152.5797693">
<ele>159.740</ele>
<time>2015-12-04T22:07:04.153Z</time>
</trkpt>
<trkpt lat="-28.1375685" lon="152.5791105">
<ele>166.325</ele>
<time>2015-12-04T22:07:06.778Z</time>
</trkpt>
<trkpt lat="-28.1377188" lon="152.5782584">
<ele>172.478</ele>
<time>2015-12-04T22:07:09.847Z</time>
</trkpt>
<trkpt lat="-28.1378303" lon="152.5777684">
<ele>174.334</ele>
<time>2015-12-04T22:07:11.619Z</time>
</trkpt>
<trkpt lat="-28.1379469" lon="152.5772934">
<ele>170.504</ele>
<time>2015-12-04T22:07:13.450Z</time>
</trkpt>
<trkpt lat="-28.1381346" lon="152.5765893">
<ele>164.406</ele>
<time>2015-12-04T22:07:16.354Z</time>
</trkpt>
<trkpt lat="-28.1382634" lon="152.5761300">
<ele>160.293</ele>
<time>2015-12-04T22:07:18.286Z</time>
</trkpt>
<trkpt lat="-28.1384495" lon="152.5754369">
<ele>158.927</ele>
<time>2015-12-04T22:07:21.247Z</time>
</trkpt>
<trkpt lat="-28.1386353" lon="152.5747398">
<ele>158.887</ele>
<time>2015-12-04T22:07:24.250Z</time>
</trkpt>
<trkpt lat="-28.1387578" lon="152.5742746">
<ele>158.931</ele>
<time>2015-12-04T22:07:26.262Z</time>
</trkpt>
<trkpt lat="-28.1389735" lon="152.5734010">
<ele>158.641</ele>
<time>2015-12-04T22:07:30.106Z</time>
</trkpt>
<trkpt lat="-28.1390927" lon="152.5729633">
<ele>157.911</ele>
<time>2015-12-04T22:07:32.081Z</time>
</trkpt>
<trkpt lat="-28.1392372" lon="152.5725235">
<ele>156.929</ele>
<time>2015-12-04T22:07:34.112Z</time>
</trkpt>
<trkpt lat="-28.1395680" lon="152.5718699">
<ele>156.442</ele>
<time>2015-12-04T22:07:37.262Z</time>
</trkpt>
<trkpt lat="-28.1398834" lon="152.5714554">
<ele>157.311</ele>
<time>2015-12-04T22:07:39.462Z</time>
</trkpt>
<trkpt lat="-28.1404313" lon="152.5709550">
<ele>159.457</ele>
<time>2015-12-04T22:07:42.503Z</time>
</trkpt>
<trkpt lat="-28.1408335" lon="152.5706973">
<ele>161.613</ele>
<time>2015-12-04T22:07:44.475Z</time>
</trkpt>
<trkpt lat="-28.1414421" lon="152.5703137">
<ele>162.652</ele>
<time>2015-12-04T22:07:47.462Z</time>
</trkpt>
<trkpt lat="-28.1418397" lon="152.5700657">
<ele>162.375</ele>
<time>2015-12-04T22:07:49.428Z</time>
</trkpt>
<trkpt lat="-28.1423809" lon="152.5696133">
<ele>161.312</ele>
<time>2015-12-04T22:07:52.375Z</time>
</trkpt>
<trkpt lat="-28.1427061" lon="152.5692459">
<ele>160.353</ele>
<time>2015-12-04T22:07:54.389Z</time>
</trkpt>
<trkpt lat="-28.1431023" lon="152.5686550">
<ele>160.262</ele>
<time>2015-12-04T22:07:57.272Z</time>
</trkpt>
<trkpt lat="-28.1435030" lon="152.5680412">
<ele>161.329</ele>
<time>2015-12-04T22:08:00.257Z</time>
</trkpt>
<trkpt lat="-28.1438905" lon="152.5674216">
<ele>163.048</ele>
<time>2015-12-04T22:08:03.221Z</time>
</trkpt>
<trkpt lat="-28.1442704" lon="152.5668362">
<ele>164.441</ele>
<time>2015-12-04T22:08:06.092Z</time>
</trkpt>
<trkpt lat="-28.1446371" lon="152.5663025">
<ele>165.062</ele>
<time>2015-12-04T22:08:08.875Z</time>
</trkpt>
<trkpt lat="-28.1448703" lon="152.5659482">
<ele>164.817</ele>
<time>2015-12-04T22:08:10.762Z</time>
</trkpt>
<trkpt lat="-28.1452842" lon="152.5654648">
<ele>164.083</ele>
<time>2015-12-04T22:08:13.722Z</time>
</trkpt>
<trkpt lat="-28.1458219" lon="152.5650023">
<ele>163.650</ele>
<time>2015-12-04T22:08:16.992Z</time>
</trkpt>
<trkpt lat="-28.1461911" lon="152.5646870">
<ele>164.421</ele>
<time>2015-12-04T22:08:19.122Z</time>
</trkpt>
<trkpt lat="-28.1466955" lon="152.5641787">
<ele>166.867</ele>
<time>2015-12-04T22:08:22.108Z</time>
</trkpt>
<trkpt lat="-28.1470731" lon="152.5638659">
<ele>170.525</ele>
<time>2015-12-04T22:08:24.163Z</time>
</trkpt>
<trkpt lat="-28.1476174" lon="152.5633889">
<ele>174.069</ele>
<time>2015-12-04T22:08:27.145Z</time>
</trkpt>
<trkpt lat="-28.1481190" lon="152.5629257">
<ele>176.577</ele>
<time>2015-12-04T22:08:29.971Z</time>
</trkpt>
<trkpt lat="-28.1484705" lon="152.5626284">
<ele>177.913</ele>
<time>2015-12-04T22:08:31.917Z</time>
</trkpt>
<trkpt lat="-28.1488643" lon="152.5623741">
<ele>178.936</ele>
<time>2015-12-04T22:08:33.938Z</time>
</trkpt>
<trkpt lat="-28.1494505" lon="152.5620348">
<ele>180.313</ele>
<time>2015-12-04T22:08:36.870Z</time>
</trkpt>
<trkpt lat="-28.1498585" lon="152.5617731">
<ele>181.488</ele>
<time>2015-12-04T22:08:38.984Z</time>
</trkpt>
<trkpt lat="-28.1504728" lon="152.5614329">
<ele>181.790</ele>
<time>2015-12-04T22:08:42.038Z</time>
</trkpt>
<trkpt lat="-28.1508516" lon="152.5612507">
<ele>182.423</ele>
<time>2015-12-04T22:08:43.857Z</time>
</trkpt>
<trkpt lat="-28.1510396" lon="152.5611942">
<ele>184.437</ele>
<time>2015-12-04T22:08:44.738Z</time>
</trkpt>
<trkpt lat="-28.1517608" lon="152.5610739">
<ele>186.831</ele>
<time>2015-12-04T22:08:48.237Z</time>
</trkpt>
<trkpt lat="-28.1522940" lon="152.5609788">
<ele>188.730</ele>
<time>2015-12-04T22:08:51.076Z</time>
</trkpt>
<trkpt lat="-28.1528275" lon="152.5608179">
<ele>190.667</ele>
<time>2015-12-04T22:08:54.057Z</time>
</trkpt>
<trkpt lat="-28.1531840" lon="152.5606382">
<ele>192.586</ele>
<time>2015-12-04T22:08:56.163Z</time>
</trkpt>
<trkpt lat="-28.1537433" lon="152.5603061">
<ele>193.804</ele>
<time>2015-12-04T22:08:59.479Z</time>
</trkpt>
<trkpt lat="-28.1541248" lon="152.5600837">
<ele>193.854</ele>
<time>2015-12-04T22:09:01.622Z</time>
</trkpt>
<trkpt lat="-28.1545289" lon="152.5598365">
<ele>192.358</ele>
<time>2015-12-04T22:09:03.823Z</time>
</trkpt>
<trkpt lat="-28.1549092" lon="152.5596089">
<ele>189.643</ele>
<time>2015-12-04T22:09:05.809Z</time>
</trkpt>
<trkpt lat="-28.1554807" lon="152.5593719">
<ele>186.422</ele>
<time>2015-12-04T22:09:08.657Z</time>
</trkpt>
<trkpt lat="-28.1558620" lon="152.5592325">
<ele>183.277</ele>
<time>2015-12-04T22:09:10.581Z</time>
</trkpt>
<trkpt lat="-28.1562753" lon="152.5590951">
<ele>181.079</ele>
<time>2015-12-04T22:09:12.639Z</time>
</trkpt>
<trkpt lat="-28.1568957" lon="152.5588252">
<ele>180.960</ele>
<time>2015-12-04T22:09:15.709Z</time>
</trkpt>
<trkpt lat="-28.1573034" lon="152.5585793">
<ele>182.810</ele>
<time>2015-12-04T22:09:17.790Z</time>
</trkpt>
<trkpt lat="-28.1577058" lon="152.5583018">
<ele>185.042</ele>
<time>2015-12-04T22:09:19.873Z</time>
</trkpt>
<trkpt lat="-28.1582641" lon="152.5578031">
<ele>186.328</ele>
<time>2015-12-04T22:09:22.920Z</time>
</trkpt>
<trkpt lat="-28.1586355" lon="152.5574044">
<ele>186.960</ele>
<time>2015-12-04T22:09:25.060Z</time>
</trkpt>
<trkpt lat="-28.1591463" lon="152.5567962">
<ele>187.479</ele>
<time>2015-12-04T22:09:28.032Z</time>
</trkpt>
<trkpt lat="-28.1594725" lon="152.5564051">
<ele>187.831</ele>
<time>2015-12-04T22:09:29.923Z</time>
</trkpt>
<trkpt lat="-28.1599406" lon="152.5558157">
<ele>187.820</ele>
<time>2015-12-04T22:09:32.781Z</time>
</trkpt>
<trkpt lat="-28.1603899" lon="152.5552778">
<ele>187.589</ele>
<time>2015-12-04T22:09:35.541Z</time>
</trkpt>
<trkpt lat="-28.1606769" lon="152.5548858">
<ele>187.458</ele>
<time>2015-12-04T22:09:37.509Z</time>
</trkpt>
<trkpt lat="-28.1609432" lon="152.5544687">
<ele>187.975</ele>
<time>2015-12-04T22:09:39.529Z</time>
</trkpt>
<trkpt lat="-28.1612878" lon="152.5538415">
<ele>189.347</ele>
<time>2015-12-04T22:09:42.431Z</time>
</trkpt>
<trkpt lat="-28.1616495" lon="152.5531924">
<ele>190.741</ele>
<time>2015-12-04T22:09:45.482Z</time>
</trkpt>
<trkpt lat="-28.1620158" lon="152.5525188">
<ele>191.445</ele>
<time>2015-12-04T22:09:48.617Z</time>
</trkpt>
<trkpt lat="-28.1622497" lon="152.5520943">
<ele>191.684</ele>
<time>2015-12-04T22:09:50.563Z</time>
</trkpt>
<trkpt lat="-28.1625326" lon="152.5516989">
<ele>191.820</ele>
<time>2015-12-04T22:09:52.541Z</time>
</trkpt>
<trkpt lat="-28.1629490" lon="152.5511351">
<ele>191.892</ele>
<time>2015-12-04T22:09:55.467Z</time>
</trkpt>
<trkpt lat="-28.1634688" lon="152.5506824">
<ele>191.919</ele>
<time>2015-12-04T22:09:58.488Z</time>
</trkpt>
<trkpt lat="-28.1638541" lon="152.5503856">
<ele>192.271</ele>
<time>2015-12-04T22:10:00.619Z</time>
</trkpt>
<trkpt lat="-28.1643798" lon="152.5499718">
<ele>193.137</ele>
<time>2015-12-04T22:10:03.498Z</time>
</trkpt>
<trkpt lat="-28.1647184" lon="152.5496855">
<ele>193.921</ele>
<time>2015-12-04T22:10:05.416Z</time>
</trkpt>
<trkpt lat="-28.1650804" lon="152.5493985">
<ele>194.164</ele>
<time>2015-12-04T22:10:07.447Z</time>
</trkpt>
<trkpt lat="-28.1654714" lon="152.5491135">
<ele>194.623</ele>
<time>2015-12-04T22:10:09.557Z</time>
</trkpt>
<trkpt lat="-28.1658428" lon="152.5488336">
<ele>196.341</ele>
<time>2015-12-04T22:10:11.527Z</time>
</trkpt>
<trkpt lat="-28.1664323" lon="152.5485547">
<ele>199.491</ele>
<time>2015-12-04T22:10:14.342Z</time>
</trkpt>
<trkpt lat="-28.1670407" lon="152.5484125">
<ele>203.512</ele>
<time>2015-12-04T22:10:17.183Z</time>
</trkpt>
<trkpt lat="-28.1677224" lon="152.5483972">
<ele>207.514</ele>
<time>2015-12-04T22:10:20.399Z</time>
</trkpt>
<trkpt lat="-28.1681644" lon="152.5484041">
<ele>210.774</ele>
<time>2015-12-04T22:10:22.457Z</time>
</trkpt>
<trkpt lat="-28.1688310" lon="152.5483997">
<ele>213.096</ele>
<time>2015-12-04T22:10:25.486Z</time>
</trkpt>
<trkpt lat="-28.1694885" lon="152.5484050">
<ele>215.018</ele>
<time>2015-12-04T22:10:28.448Z</time>
</trkpt>
<trkpt lat="-28.1699169" lon="152.5484217">
<ele>217.505</ele>
<time>2015-12-04T22:10:30.389Z</time>
</trkpt>
<trkpt lat="-28.1703349" lon="152.5484365">
<ele>220.367</ele>
<time>2015-12-04T22:10:32.292Z</time>
</trkpt>
<trkpt lat="-28.1709661" lon="152.5484481">
<ele>222.605</ele>
<time>2015-12-04T22:10:35.220Z</time>
</trkpt>
<trkpt lat="-28.1713857" lon="152.5484430">
<ele>224.313</ele>
<time>2015-12-04T22:10:37.202Z</time>
</trkpt>
<trkpt lat="-28.1720203" lon="152.5483567">
<ele>226.034</ele>
<time>2015-12-04T22:10:40.209Z</time>
</trkpt>
<trkpt lat="-28.1726129" lon="152.5481363">
<ele>227.720</ele>
<time>2015-12-04T22:10:43.119Z</time>
</trkpt>
<trkpt lat="-28.1729929" lon="152.5479201">
<ele>229.130</ele>
<time>2015-12-04T22:10:45.096Z</time>
</trkpt>
<trkpt lat="-28.1735153" lon="152.5474658">
<ele>230.395</ele>
<time>2015-12-04T22:10:48.149Z</time>
</trkpt>
<trkpt lat="-28.1738420" lon="152.5471109">
<ele>231.963</ele>
<time>2015-12-04T22:10:50.225Z</time>
</trkpt>
<trkpt lat="-28.1741344" lon="152.5467180">
<ele>234.158</ele>
<time>2015-12-04T22:10:52.269Z</time>
</trkpt>
<trkpt lat="-28.1744451" lon="152.5460209">
<ele>236.579</ele>
<time>2015-12-04T22:10:55.292Z</time>
</trkpt>
<trkpt lat="-28.1747264" lon="152.5453632">
<ele>238.856</ele>
<time>2015-12-04T22:10:58.119Z</time>
</trkpt>
<trkpt lat="-28.1748991" lon="152.5448940">
<ele>240.980</ele>
<time>2015-12-04T22:11:00.140Z</time>
</trkpt>
<trkpt lat="-28.1751532" lon="152.5442516">
<ele>242.830</ele>
<time>2015-12-04T22:11:02.978Z</time>
</trkpt>
<trkpt lat="-28.1753579" lon="152.5438799">
<ele>244.434</ele>
<time>2015-12-04T22:11:04.782Z</time>
</trkpt>
<trkpt lat="-28.1756736" lon="152.5433076">
<ele>245.914</ele>
<time>2015-12-04T22:11:07.638Z</time>
</trkpt>
<trkpt lat="-28.1759174" lon="152.5429629">
<ele>247.119</ele>
<time>2015-12-04T22:11:09.560Z</time>
</trkpt>
<trkpt lat="-28.1762706" lon="152.5426789">
<ele>248.023</ele>
<time>2015-12-04T22:11:11.710Z</time>
</trkpt>
<trkpt lat="-28.1766859" lon="152.5424701">
<ele>248.387</ele>
<time>2015-12-04T22:11:13.910Z</time>
</trkpt>
<trkpt lat="-28.1770945" lon="152.5423349">
<ele>247.976</ele>
<time>2015-12-04T22:11:15.925Z</time>
</trkpt>
<trkpt lat="-28.1777507" lon="152.5422314">
<ele>247.116</ele>
<time>2015-12-04T22:11:19.022Z</time>
</trkpt>
<trkpt lat="-28.1781732" lon="152.5422609">
<ele>246.126</ele>
<time>2015-12-04T22:11:20.970Z</time>
</trkpt>
<trkpt lat="-28.1786300" lon="152.5423436">
<ele>244.376</ele>
<time>2015-12-04T22:11:23.105Z</time>
</trkpt>
<trkpt lat="-28.1793158" lon="152.5424746">
<ele>240.969</ele>
<time>2015-12-04T22:11:26.287Z</time>
</trkpt>
<trkpt lat="-28.1800105" lon="152.5426960">
<ele>236.130</ele>
<time>2015-12-04T22:11:29.410Z</time>
</trkpt>
<trkpt lat="-28.1804609" lon="152.5429353">
<ele>230.466</ele>
<time>2015-12-04T22:11:31.508Z</time>
</trkpt>
<trkpt lat="-28.1810473" lon="152.5433709">
<ele>224.891</ele>
<time>2015-12-04T22:11:34.435Z</time>
</trkpt>
<trkpt lat="-28.1813704" lon="152.5436574">
<ele>220.596</ele>
<time>2015-12-04T22:11:36.184Z</time>
</trkpt>
<trkpt lat="-28.1818174" lon="152.5440579">
<ele>217.413</ele>
<time>2015-12-04T22:11:38.731Z</time>
</trkpt>
<trkpt lat="-28.1821640" lon="152.5444302">
<ele>214.694</ele>
<time>2015-12-04T22:11:41.093Z</time>
</trkpt>
<trkpt lat="-28.1822971" lon="152.5446900">
<ele>212.028</ele>
<time>2015-12-04T22:11:42.490Z</time>
</trkpt>
<trkpt lat="-28.1823644" lon="152.5449700">
<ele>208.668</ele>
<time>2015-12-04T22:11:43.985Z</time>
</trkpt>
<trkpt lat="-28.1824395" lon="152.5454006">
<ele>204.928</ele>
<time>2015-12-04T22:11:46.461Z</time>
</trkpt>
<trkpt lat="-28.1825065" lon="152.5458258">
<ele>202.140</ele>
<time>2015-12-04T22:11:49.261Z</time>
</trkpt>
<trkpt lat="-28.1825458" lon="152.5460690">
<ele>200.852</ele>
<time>2015-12-04T22:11:50.929Z</time>
</trkpt>
<trkpt lat="-28.1826150" lon="152.5462796">
<ele>200.644</ele>
<time>2015-12-04T22:11:52.454Z</time>
</trkpt>
<trkpt lat="-28.1827674" lon="152.5462668">
<ele>200.732</ele>
<time>2015-12-04T22:11:53.643Z</time>
</trkpt>
<trkpt lat="-28.1829981" lon="152.5460957">
<ele>200.663</ele>
<time>2015-12-04T22:11:55.853Z</time>
</trkpt>
<trkpt lat="-28.1833396" lon="152.5458742">
<ele>201.062</ele>
<time>2015-12-04T22:11:59.897Z</time>
</trkpt>
<trkpt lat="-28.1835932" lon="152.5457093">
<ele>202.844</ele>
<time>2015-12-04T22:12:04.535Z</time>
</trkpt>
<trkpt lat="-28.1838599" lon="152.5455232">
<ele>205.457</ele>
<time>2015-12-04T22:12:07.850Z</time>
</trkpt>
<trkpt lat="-28.1842642" lon="152.5451856">
<ele>207.925</ele>
<time>2015-12-04T22:12:11.658Z</time>
</trkpt>
<trkpt lat="-28.1845086" lon="152.5449265">
<ele>210.289</ele>
<time>2015-12-04T22:12:13.822Z</time>
</trkpt>
<trkpt lat="-28.1848891" lon="152.5445771">
<ele>212.462</ele>
<time>2015-12-04T22:12:16.816Z</time>
</trkpt>
<trkpt lat="-28.1853473" lon="152.5443767">
<ele>213.867</ele>
<time>2015-12-04T22:12:19.752Z</time>
</trkpt>
<trkpt lat="-28.1857457" lon="152.5443820">
<ele>214.638</ele>
<time>2015-12-04T22:12:22.144Z</time>
</trkpt>
<trkpt lat="-28.1863491" lon="152.5443762">
<ele>215.880</ele>
<time>2015-12-04T22:12:25.644Z</time>
</trkpt>
<trkpt lat="-28.1867263" lon="152.5444043">
<ele>217.947</ele>
<time>2015-12-04T22:12:27.607Z</time>
</trkpt>
<trkpt lat="-28.1872987" lon="152.5444336">
<ele>219.749</ele>
<time>2015-12-04T22:12:30.524Z</time>
</trkpt>
<trkpt lat="-28.1878760" lon="152.5444266">
<ele>220.811</ele>
<time>2015-12-04T22:12:33.488Z</time>
</trkpt>
<trkpt lat="-28.1884632" lon="152.5444446">
<ele>221.747</ele>
<time>2015-12-04T22:12:36.515Z</time>
</trkpt>
<trkpt lat="-28.1890855" lon="152.5444371">
<ele>222.885</ele>
<time>2015-12-04T22:12:39.670Z</time>
</trkpt>
<trkpt lat="-28.1894928" lon="152.5444458">
<ele>224.420</ele>
<time>2015-12-04T22:12:41.694Z</time>
</trkpt>
<trkpt lat="-28.1901012" lon="152.5444614">
<ele>226.201</ele>
<time>2015-12-04T22:12:44.707Z</time>
</trkpt>
<trkpt lat="-28.1904695" lon="152.5444798">
<ele>227.445</ele>
<time>2015-12-04T22:12:46.542Z</time>
</trkpt>
<trkpt lat="-28.1910328" lon="152.5444779">
<ele>227.580</ele>
<time>2015-12-04T22:12:49.389Z</time>
</trkpt>
<trkpt lat="-28.1915529" lon="152.5444519">
<ele>226.873</ele>
<time>2015-12-04T22:12:52.166Z</time>
</trkpt>
<trkpt lat="-28.1921022" lon="152.5442925">
<ele>226.217</ele>
<time>2015-12-04T22:12:55.268Z</time>
</trkpt>
<trkpt lat="-28.1927049" lon="152.5440915">
<ele>226.632</ele>
<time>2015-12-04T22:12:58.631Z</time>
</trkpt>
<trkpt lat="-28.1933222" lon="152.5439177">
<ele>228.278</ele>
<time>2015-12-04T22:13:01.768Z</time>
</trkpt>
<trkpt lat="-28.1937419" lon="152.5438479">
<ele>230.344</ele>
<time>2015-12-04T22:13:03.765Z</time>
</trkpt>
<trkpt lat="-28.1943628" lon="152.5439117">
<ele>231.991</ele>
<time>2015-12-04T22:13:06.716Z</time>
</trkpt>
<trkpt lat="-28.1950143" lon="152.5440572">
<ele>233.151</ele>
<time>2015-12-04T22:13:09.863Z</time>
</trkpt>
<trkpt lat="-28.1954419" lon="152.5441511">
<ele>234.004</ele>
<time>2015-12-04T22:13:11.887Z</time>
</trkpt>
<trkpt lat="-28.1958678" lon="152.5442402">
<ele>234.518</ele>
<time>2015-12-04T22:13:13.893Z</time>
</trkpt>
<trkpt lat="-28.1962763" lon="152.5443092">
<ele>234.657</ele>
<time>2015-12-04T22:13:15.806Z</time>
</trkpt>
<trkpt lat="-28.1969114" lon="152.5443589">
<ele>234.746</ele>
<time>2015-12-04T22:13:18.769Z</time>
</trkpt>
<trkpt lat="-28.1975413" lon="152.5443269">
<ele>234.957</ele>
<time>2015-12-04T22:13:21.720Z</time>
</trkpt>
<trkpt lat="-28.1981690" lon="152.5442758">
<ele>235.168</ele>
<time>2015-12-04T22:13:24.698Z</time>
</trkpt>
<trkpt lat="-28.1985973" lon="152.5441757">
<ele>235.749</ele>
<time>2015-12-04T22:13:26.762Z</time>
</trkpt>
<trkpt lat="-28.1992420" lon="152.5439919">
<ele>237.304</ele>
<time>2015-12-04T22:13:29.843Z</time>
</trkpt>
<trkpt lat="-28.1996618" lon="152.5439312">
<ele>239.334</ele>
<time>2015-12-04T22:13:31.746Z</time>
</trkpt>
<trkpt lat="-28.2002902" lon="152.5438619">
<ele>240.824</ele>
<time>2015-12-04T22:13:34.605Z</time>
</trkpt>
<trkpt lat="-28.2007178" lon="152.5438436">
<ele>241.612</ele>
<time>2015-12-04T22:13:36.584Z</time>
</trkpt>
<trkpt lat="-28.2011396" lon="152.5438331">
<ele>242.251</ele>
<time>2015-12-04T22:13:38.541Z</time>
</trkpt>
<trkpt lat="-28.2015645" lon="152.5437981">
<ele>242.990</ele>
<time>2015-12-04T22:13:40.519Z</time>
</trkpt>
<trkpt lat="-28.2021828" lon="152.5436103">
<ele>243.637</ele>
<time>2015-12-04T22:13:43.525Z</time>
</trkpt>
<trkpt lat="-28.2025743" lon="152.5434412">
<ele>244.034</ele>
<time>2015-12-04T22:13:45.500Z</time>
</trkpt>
<trkpt lat="-28.2031649" lon="152.5431883">
<ele>244.212</ele>
<time>2015-12-04T22:13:48.468Z</time>
</trkpt>
<trkpt lat="-28.2037532" lon="152.5429488">
<ele>244.450</ele>
<time>2015-12-04T22:13:51.399Z</time>
</trkpt>
<trkpt lat="-28.2043211" lon="152.5427246">
<ele>244.979</ele>
<time>2015-12-04T22:13:54.249Z</time>
</trkpt>
<trkpt lat="-28.2048727" lon="152.5425380">
<ele>245.525</ele>
<time>2015-12-04T22:13:57.029Z</time>
</trkpt>
<trkpt lat="-28.2051683" lon="152.5424477">
<ele>245.043</ele>
<time>2015-12-04T22:13:58.552Z</time>
</trkpt>
<trkpt lat="-28.2055952" lon="152.5423109">
<ele>242.980</ele>
<time>2015-12-04T22:14:00.862Z</time>
</trkpt>
<trkpt lat="-28.2060184" lon="152.5421542">
<ele>240.514</ele>
<time>2015-12-04T22:14:03.481Z</time>
</trkpt>
<trkpt lat="-28.2062861" lon="152.5420712">
<ele>239.219</ele>
<time>2015-12-04T22:14:05.260Z</time>
</trkpt>
<trkpt lat="-28.2066834" lon="152.5419787">
<ele>239.210</ele>
<time>2015-12-04T22:14:07.958Z</time>
</trkpt>
<trkpt lat="-28.2070093" lon="152.5418912">
<ele>239.587</ele>
<time>2015-12-04T22:14:10.228Z</time>
</trkpt>
<trkpt lat="-28.2072732" lon="152.5418398">
<ele>239.297</ele>
<time>2015-12-04T22:14:12.109Z</time>
</trkpt>
<trkpt lat="-28.2075760" lon="152.5416895">
<ele>238.210</ele>
<time>2015-12-04T22:14:14.563Z</time>
</trkpt>
<trkpt lat="-28.2077782" lon="152.5414840">
<ele>237.630</ele>
<time>2015-12-04T22:14:16.842Z</time>
</trkpt>
<trkpt lat="-28.2081157" lon="152.5411151">
<ele>238.862</ele>
<time>2015-12-04T22:14:21.581Z</time>
</trkpt>
<trkpt lat="-28.2084133" lon="152.5407030">
<ele>241.550</ele>
<time>2015-12-04T22:14:25.578Z</time>
</trkpt>
<trkpt lat="-28.2086317" lon="152.5404007">
<ele>244.830</ele>
<time>2015-12-04T22:14:27.929Z</time>
</trkpt>
<trkpt lat="-28.2088455" lon="152.5400723">
<ele>247.994</ele>
<time>2015-12-04T22:14:30.166Z</time>
</trkpt>
<trkpt lat="-28.2091476" lon="152.5395881">
<ele>250.064</ele>
<time>2015-12-04T22:14:33.259Z</time>
</trkpt>
<trkpt lat="-28.2094509" lon="152.5391020">
<ele>250.703</ele>
<time>2015-12-04T22:14:36.222Z</time>
</trkpt>
<trkpt lat="-28.2097481" lon="152.5386576">
<ele>250.750</ele>
<time>2015-12-04T22:14:38.998Z</time>
</trkpt>
<trkpt lat="-28.2099647" lon="152.5384126">
<ele>250.983</ele>
<time>2015-12-04T22:14:40.736Z</time>
</trkpt>
<trkpt lat="-28.2102553" lon="152.5380334">
<ele>251.476</ele>
<time>2015-12-04T22:14:43.374Z</time>
</trkpt>
<trkpt lat="-28.2104131" lon="152.5377943">
<ele>252.202</ele>
<time>2015-12-04T22:14:45.002Z</time>
</trkpt>
<trkpt lat="-28.2106721" lon="152.5374413">
<ele>253.188</ele>
<time>2015-12-04T22:14:47.616Z</time>
</trkpt>
<trkpt lat="-28.2108548" lon="152.5373641">
<ele>253.720</ele>
<time>2015-12-04T22:14:48.893Z</time>
</trkpt>
<trkpt lat="-28.2112630" lon="152.5374067">
<ele>253.280</ele>
<time>2015-12-04T22:14:51.850Z</time>
</trkpt>
<trkpt lat="-28.2117553" lon="152.5374795">
<ele>253.683</ele>
<time>2015-12-04T22:14:56.256Z</time>
</trkpt>
<trkpt lat="-28.2120982" lon="152.5375345">
<ele>256.997</ele>
<time>2015-12-04T22:14:59.243Z</time>
</trkpt>
<trkpt lat="-28.2125712" lon="152.5375874">
<ele>262.608</ele>
<time>2015-12-04T22:15:02.546Z</time>
</trkpt>
<trkpt lat="-28.2128615" lon="152.5376098">
<ele>268.087</ele>
<time>2015-12-04T22:15:04.332Z</time>
</trkpt>
<trkpt lat="-28.2133033" lon="152.5376278">
<ele>271.825</ele>
<time>2015-12-04T22:15:07.062Z</time>
</trkpt>
<trkpt lat="-28.2136937" lon="152.5376597">
<ele>274.392</ele>
<time>2015-12-04T22:15:09.618Z</time>
</trkpt>
<trkpt lat="-28.2139150" lon="152.5376050">
<ele>276.834</ele>
<time>2015-12-04T22:15:11.169Z</time>
</trkpt>
<trkpt lat="-28.2142821" lon="152.5373217">
<ele>278.867</ele>
<time>2015-12-04T22:15:14.271Z</time>
</trkpt>
<trkpt lat="-28.2145264" lon="152.5370370">
<ele>280.141</ele>
<time>2015-12-04T22:15:16.807Z</time>
</trkpt>
<trkpt lat="-28.2147678" lon="152.5367022">
<ele>281.377</ele>
<time>2015-12-04T22:15:19.568Z</time>
</trkpt>
<trkpt lat="-28.2150449" lon="152.5362115">
<ele>283.855</ele>
<time>2015-12-04T22:15:22.910Z</time>
</trkpt>
<trkpt lat="-28.2151787" lon="152.5358372">
<ele>287.397</ele>
<time>2015-12-04T22:15:24.889Z</time>
</trkpt>
<trkpt lat="-28.2152211" lon="152.5352565">
<ele>290.051</ele>
<time>2015-12-04T22:15:27.762Z</time>
</trkpt>
<trkpt lat="-28.2152624" lon="152.5349595">
<ele>290.723</ele>
<time>2015-12-04T22:15:29.298Z</time>
</trkpt>
<trkpt lat="-28.2152976" lon="152.5347372">
<ele>289.245</ele>
<time>2015-12-04T22:15:30.467Z</time>
</trkpt>
<trkpt lat="-28.2153345" lon="152.5344638">
<ele>285.809</ele>
<time>2015-12-04T22:15:31.915Z</time>
</trkpt>
<trkpt lat="-28.2153689" lon="152.5343073">
<ele>281.525</ele>
<time>2015-12-04T22:15:32.758Z</time>
</trkpt>
<trkpt lat="-28.2154106" lon="152.5340922">
<ele>277.642</ele>
<time>2015-12-04T22:15:34.062Z</time>
</trkpt>
<trkpt lat="-28.2154042" lon="152.5339529">
<ele>274.913</ele>
<time>2015-12-04T22:15:34.912Z</time>
</trkpt>
<trkpt lat="-28.2153620" lon="152.5338343">
<ele>275.197</ele>
<time>2015-12-04T22:15:35.879Z</time>
</trkpt>
<trkpt lat="-28.2152523" lon="152.5337642">
<ele>279.016</ele>
<time>2015-12-04T22:15:36.985Z</time>
</trkpt>
<trkpt lat="-28.2151677" lon="152.5336921">
<ele>283.424</ele>
<time>2015-12-04T22:15:38.126Z</time>
</trkpt>
<trkpt lat="-28.2150576" lon="152.5335676">
<ele>285.911</ele>
<time>2015-12-04T22:15:39.805Z</time>
</trkpt>
<trkpt lat="-28.2150136" lon="152.5334201">
<ele>287.091</ele>
<time>2015-12-04T22:15:41.496Z</time>
</trkpt>
<trkpt lat="-28.2149465" lon="152.5332549">
<ele>287.917</ele>
<time>2015-12-04T22:15:43.663Z</time>
</trkpt>
<trkpt lat="-28.2149214" lon="152.5328522">
<ele>288.622</ele>
<time>2015-12-04T22:15:50.337Z</time>
</trkpt>
<trkpt lat="-28.2149351" lon="152.5325857">
<ele>289.031</ele>
<time>2015-12-04T22:15:57.135Z</time>
</trkpt>
<trkpt lat="-28.2149773" lon="152.5322959">
<ele>289.051</ele>
<time>2015-12-04T22:16:03.204Z</time>
</trkpt>
<trkpt lat="-28.2150066" lon="152.5318236">
<ele>288.733</ele>
<time>2015-12-04T22:16:08.507Z</time>
</trkpt>
<trkpt lat="-28.2150440" lon="152.5313707">
<ele>287.959</ele>
<time>2015-12-04T22:16:11.935Z</time>
</trkpt>
<trkpt lat="-28.2150437" lon="152.5311188">
<ele>285.910</ele>
<time>2015-12-04T22:16:13.634Z</time>
</trkpt>
<trkpt lat="-28.2150584" lon="152.5308942">
<ele>282.708</ele>
<time>2015-12-04T22:16:15.109Z</time>
</trkpt>
<trkpt lat="-28.2152049" lon="152.5305647">
<ele>280.170</ele>
<time>2015-12-04T22:16:17.516Z</time>
</trkpt>
<trkpt lat="-28.2154963" lon="152.5302884">
<ele>279.463</ele>
<time>2015-12-04T22:16:20.449Z</time>
</trkpt>
<trkpt lat="-28.2157814" lon="152.5300983">
<ele>279.894</ele>
<time>2015-12-04T22:16:23.487Z</time>
</trkpt>
<trkpt lat="-28.2159527" lon="152.5299571">
<ele>280.037</ele>
<time>2015-12-04T22:16:25.557Z</time>
</trkpt>
<trkpt lat="-28.2161164" lon="152.5298376">
<ele>279.191</ele>
<time>2015-12-04T22:16:27.333Z</time>
</trkpt>
<trkpt lat="-28.2164062" lon="152.5296813">
<ele>278.092</ele>
<time>2015-12-04T22:16:30.151Z</time>
</trkpt>
<trkpt lat="-28.2166501" lon="152.5295081">
<ele>277.552</ele>
<time>2015-12-04T22:16:32.650Z</time>
</trkpt>
<trkpt lat="-28.2168709" lon="152.5292580">
<ele>277.518</ele>
<time>2015-12-04T22:16:35.550Z</time>
</trkpt>
<trkpt lat="-28.2170726" lon="152.5290156">
<ele>277.706</ele>
<time>2015-12-04T22:16:38.462Z</time>
</trkpt>
<trkpt lat="-28.2173269" lon="152.5286648">
<ele>278.088</ele>
<time>2015-12-04T22:16:42.650Z</time>
</trkpt>
<trkpt lat="-28.2174759" lon="152.5284580">
<ele>279.034</ele>
<time>2015-12-04T22:16:45.098Z</time>
</trkpt>
<trkpt lat="-28.2176880" lon="152.5281401">
<ele>280.677</ele>
<time>2015-12-04T22:16:48.026Z</time>
</trkpt>
<trkpt lat="-28.2178842" lon="152.5278403">
<ele>283.223</ele>
<time>2015-12-04T22:16:50.542Z</time>
</trkpt>
<trkpt lat="-28.2180486" lon="152.5274944">
<ele>286.687</ele>
<time>2015-12-04T22:16:53.296Z</time>
</trkpt>
<trkpt lat="-28.2181391" lon="152.5270840">
<ele>289.953</ele>
<time>2015-12-04T22:16:56.452Z</time>
</trkpt>
<trkpt lat="-28.2181861" lon="152.5265786">
<ele>291.850</ele>
<time>2015-12-04T22:17:00.344Z</time>
</trkpt>
<trkpt lat="-28.2182038" lon="152.5260050">
<ele>292.451</ele>
<time>2015-12-04T22:17:04.468Z</time>
</trkpt>
<trkpt lat="-28.2182051" lon="152.5254843">
<ele>292.640</ele>
<time>2015-12-04T22:17:07.778Z</time>
</trkpt>
<trkpt lat="-28.2182545" lon="152.5251337">
<ele>293.147</ele>
<time>2015-12-04T22:17:09.794Z</time>
</trkpt>
<trkpt lat="-28.2183646" lon="152.5247542">
<ele>293.934</ele>
<time>2015-12-04T22:17:11.995Z</time>
</trkpt>
<trkpt lat="-28.2185156" lon="152.5241238">
<ele>294.751</ele>
<time>2015-12-04T22:17:15.635Z</time>
</trkpt>
<trkpt lat="-28.2186660" lon="152.5234964">
<ele>295.630</ele>
<time>2015-12-04T22:17:18.919Z</time>
</trkpt>
<trkpt lat="-28.2187555" lon="152.5230963">
<ele>296.494</ele>
<time>2015-12-04T22:17:20.870Z</time>
</trkpt>
<trkpt lat="-28.2188887" lon="152.5225433">
<ele>297.114</ele>
<time>2015-12-04T22:17:23.512Z</time>
</trkpt>
<trkpt lat="-28.2190330" lon="152.5220066">
<ele>297.536</ele>
<time>2015-12-04T22:17:26.216Z</time>
</trkpt>
<trkpt lat="-28.2191355" lon="152.5216442">
<ele>298.312</ele>
<time>2015-12-04T22:17:28.127Z</time>
</trkpt>
<trkpt lat="-28.2192882" lon="152.5211783">
<ele>299.814</ele>
<time>2015-12-04T22:17:30.742Z</time>
</trkpt>
<trkpt lat="-28.2193887" lon="152.5208494">
<ele>302.072</ele>
<time>2015-12-04T22:17:32.579Z</time>
</trkpt>
<trkpt lat="-28.2195412" lon="152.5202683">
<ele>304.551</ele>
<time>2015-12-04T22:17:35.913Z</time>
</trkpt>
<trkpt lat="-28.2196309" lon="152.5199396">
<ele>306.189</ele>
<time>2015-12-04T22:17:37.846Z</time>
</trkpt>
<trkpt lat="-28.2196562" lon="152.5196335">
<ele>306.494</ele>
<time>2015-12-04T22:17:39.484Z</time>
</trkpt>
<trkpt lat="-28.2195853" lon="152.5192540">
<ele>306.043</ele>
<time>2015-12-04T22:17:41.547Z</time>
</trkpt>
<trkpt lat="-28.2195204" lon="152.5191015">
<ele>305.470</ele>
<time>2015-12-04T22:17:42.457Z</time>
</trkpt>
<trkpt lat="-28.2194404" lon="152.5188982">
<ele>304.915</ele>
<time>2015-12-04T22:17:43.721Z</time>
</trkpt>
<trkpt lat="-28.2193893" lon="152.5187863">
<ele>304.356</ele>
<time>2015-12-04T22:17:44.470Z</time>
</trkpt>
<trkpt lat="-28.2193739" lon="152.5186513">
<ele>304.011</ele>
<time>2015-12-04T22:17:45.330Z</time>
</trkpt>
<trkpt lat="-28.2193477" lon="152.5185439">
<ele>304.326</ele>
<time>2015-12-04T22:17:46.111Z</time>
</trkpt>
<trkpt lat="-28.2193498" lon="152.5183118">
<ele>305.497</ele>
<time>2015-12-04T22:17:47.738Z</time>
</trkpt>
<trkpt lat="-28.2194008" lon="152.5181263">
<ele>307.082</ele>
<time>2015-12-04T22:17:49.369Z</time>
</trkpt>
<trkpt lat="-28.2194891" lon="152.5178768">
<ele>308.346</ele>
<time>2015-12-04T22:17:52.167Z</time>
</trkpt>
<trkpt lat="-28.2195899" lon="152.5175999">
<ele>309.066</ele>
<time>2015-12-04T22:17:56.344Z</time>
</trkpt>
<trkpt lat="-28.2198247" lon="152.5171595">
<ele>309.365</ele>
<time>2015-12-04T22:18:05.345Z</time>
</trkpt>
<trkpt lat="-28.2199742" lon="152.5169127">
<ele>309.338</ele>
<time>2015-12-04T22:18:08.177Z</time>
</trkpt>
<trkpt lat="-28.2201157" lon="152.5166343">
<ele>309.148</ele>
<time>2015-12-04T22:18:10.495Z</time>
</trkpt>
<trkpt lat="-28.2203377" lon="152.5162197">
<ele>309.132</ele>
<time>2015-12-04T22:18:13.630Z</time>
</trkpt>
<trkpt lat="-28.2205070" lon="152.5159506">
<ele>310.064</ele>
<time>2015-12-04T22:18:15.708Z</time>
</trkpt>
<trkpt lat="-28.2207921" lon="152.5156017">
<ele>312.337</ele>
<time>2015-12-04T22:18:18.703Z</time>
</trkpt>
<trkpt lat="-28.2209880" lon="152.5153739">
<ele>314.939</ele>
<time>2015-12-04T22:18:20.690Z</time>
</trkpt>
<trkpt lat="-28.2212518" lon="152.5150727">
<ele>316.807</ele>
<time>2015-12-04T22:18:23.322Z</time>
</trkpt>
<trkpt lat="-28.2215581" lon="152.5147908">
<ele>317.859</ele>
<time>2015-12-04T22:18:26.106Z</time>
</trkpt>
<trkpt lat="-28.2217847" lon="152.5146236">
<ele>318.197</ele>
<time>2015-12-04T22:18:28.071Z</time>
</trkpt>
<trkpt lat="-28.2220098" lon="152.5145087">
<ele>317.966</ele>
<time>2015-12-04T22:18:29.904Z</time>
</trkpt>
<trkpt lat="-28.2223302" lon="152.5143548">
<ele>317.532</ele>
<time>2015-12-04T22:18:32.651Z</time>
</trkpt>
<trkpt lat="-28.2225625" lon="152.5141900">
<ele>317.700</ele>
<time>2015-12-04T22:18:34.851Z</time>
</trkpt>
<trkpt lat="-28.2227835" lon="152.5140112">
<ele>319.155</ele>
<time>2015-12-04T22:18:37.077Z</time>
</trkpt>
<trkpt lat="-28.2231663" lon="152.5137479">
<ele>321.410</ele>
<time>2015-12-04T22:18:40.860Z</time>
</trkpt>
<trkpt lat="-28.2235910" lon="152.5135193">
<ele>323.359</ele>
<time>2015-12-04T22:18:44.430Z</time>
</trkpt>
<trkpt lat="-28.2238291" lon="152.5133751">
<ele>324.786</ele>
<time>2015-12-04T22:18:46.296Z</time>
</trkpt>
<trkpt lat="-28.2242104" lon="152.5131480">
<ele>326.357</ele>
<time>2015-12-04T22:18:49.159Z</time>
</trkpt>
<trkpt lat="-28.2244224" lon="152.5128970">
<ele>328.572</ele>
<time>2015-12-04T22:18:51.183Z</time>
</trkpt>
<trkpt lat="-28.2246451" lon="152.5126683">
<ele>330.952</ele>
<time>2015-12-04T22:18:53.224Z</time>
</trkpt>
<trkpt lat="-28.2248134" lon="152.5124413">
<ele>332.907</ele>
<time>2015-12-04T22:18:55.031Z</time>
</trkpt>
<trkpt lat="-28.2250949" lon="152.5121075">
<ele>334.869</ele>
<time>2015-12-04T22:18:57.806Z</time>
</trkpt>
<trkpt lat="-28.2252940" lon="152.5118700">
<ele>337.602</ele>
<time>2015-12-04T22:18:59.767Z</time>
</trkpt>
<trkpt lat="-28.2255004" lon="152.5116573">
<ele>340.623</ele>
<time>2015-12-04T22:19:01.716Z</time>
</trkpt>
<trkpt lat="-28.2258490" lon="152.5113628">
<ele>342.669</ele>
<time>2015-12-04T22:19:04.826Z</time>
</trkpt>
<trkpt lat="-28.2260237" lon="152.5111802">
<ele>342.947</ele>
<time>2015-12-04T22:19:06.540Z</time>
</trkpt>
<trkpt lat="-28.2262899" lon="152.5109967">
<ele>341.838</ele>
<time>2015-12-04T22:19:08.792Z</time>
</trkpt>
<trkpt lat="-28.2265027" lon="152.5108971">
<ele>340.570</ele>
<time>2015-12-04T22:19:10.455Z</time>
</trkpt>
<trkpt lat="-28.2268261" lon="152.5107455">
<ele>340.328</ele>
<time>2015-12-04T22:19:13.078Z</time>
</trkpt>
<trkpt lat="-28.2270568" lon="152.5106072">
<ele>341.144</ele>
<time>2015-12-04T22:19:15.319Z</time>
</trkpt>
<trkpt lat="-28.2272858" lon="152.5104535">
<ele>342.182</ele>
<time>2015-12-04T22:19:17.762Z</time>
</trkpt>
<trkpt lat="-28.2275317" lon="152.5102842">
<ele>342.785</ele>
<time>2015-12-04T22:19:20.376Z</time>
</trkpt>
<trkpt lat="-28.2278101" lon="152.5099762">
<ele>343.015</ele>
<time>2015-12-04T22:19:23.670Z</time>
</trkpt>
<trkpt lat="-28.2280063" lon="152.5097963">
<ele>343.095</ele>
<time>2015-12-04T22:19:25.628Z</time>
</trkpt>
<trkpt lat="-28.2283391" lon="152.5095378">
<ele>343.263</ele>
<time>2015-12-04T22:19:28.565Z</time>
</trkpt>
<trkpt lat="-28.2286629" lon="152.5094684">
<ele>343.849</ele>
<time>2015-12-04T22:19:30.975Z</time>
</trkpt>
<trkpt lat="-28.2288318" lon="152.5093883">
<ele>345.068</ele>
<time>2015-12-04T22:19:32.359Z</time>
</trkpt>
<trkpt lat="-28.2289573" lon="152.5092769">
<ele>346.765</ele>
<time>2015-12-04T22:19:33.595Z</time>
</trkpt>
<trkpt lat="-28.2290511" lon="152.5090216">
<ele>348.522</ele>
<time>2015-12-04T22:19:35.517Z</time>
</trkpt>
<trkpt lat="-28.2289324" lon="152.5088433">
<ele>349.865</ele>
<time>2015-12-04T22:19:37.145Z</time>
</trkpt>
<trkpt lat="-28.2285327" lon="152.5085382">
<ele>350.605</ele>
<time>2015-12-04T22:19:41.885Z</time>
</trkpt>
<trkpt lat="-28.2283847" lon="152.5083115">
<ele>351.654</ele>
<time>2015-12-04T22:19:44.855Z</time>
</trkpt>
<trkpt lat="-28.2282482" lon="152.5079009">
<ele>354.153</ele>
<time>2015-12-04T22:19:49.570Z</time>
</trkpt>
<trkpt lat="-28.2282004" lon="152.5075363">
<ele>358.002</ele>
<time>2015-12-04T22:19:52.391Z</time>
</trkpt>
<trkpt lat="-28.2282872" lon="152.5070652">
<ele>361.827</ele>
<time>2015-12-04T22:19:55.718Z</time>
</trkpt>
<trkpt lat="-28.2283064" lon="152.5067482">
<ele>364.234</ele>
<time>2015-12-04T22:19:57.734Z</time>
</trkpt>
<trkpt lat="-28.2283054" lon="152.5063268">
<ele>365.116</ele>
<time>2015-12-04T22:20:00.286Z</time>
</trkpt>
<trkpt lat="-28.2283006" lon="152.5060564">
<ele>366.375</ele>
<time>2015-12-04T22:20:01.910Z</time>
</trkpt>
<trkpt lat="-28.2283739" lon="152.5056684">
<ele>369.455</ele>
<time>2015-12-04T22:20:04.482Z</time>
</trkpt>
<trkpt lat="-28.2285670" lon="152.5054832">
<ele>373.635</ele>
<time>2015-12-04T22:20:06.486Z</time>
</trkpt>
<trkpt lat="-28.2287970" lon="152.5052250">
<ele>377.903</ele>
<time>2015-12-04T22:20:09.206Z</time>
</trkpt>
<trkpt lat="-28.2289703" lon="152.5049423">
<ele>381.892</ele>
<time>2015-12-04T22:20:11.858Z</time>
</trkpt>
<trkpt lat="-28.2290160" lon="152.5046982">
<ele>384.950</ele>
<time>2015-12-04T22:20:13.842Z</time>
</trkpt>
<trkpt lat="-28.2289993" lon="152.5044088">
<ele>387.042</ele>
<time>2015-12-04T22:20:16.217Z</time>
</trkpt>
<trkpt lat="-28.2290461" lon="152.5040466">
<ele>388.955</ele>
<time>2015-12-04T22:20:19.333Z</time>
</trkpt>
<trkpt lat="-28.2291045" lon="152.5038117">
<ele>391.755</ele>
<time>2015-12-04T22:20:21.304Z</time>
</trkpt>
<trkpt lat="-28.2291735" lon="152.5035722">
<ele>396.061</ele>
<time>2015-12-04T22:20:23.195Z</time>
</trkpt>
<trkpt lat="-28.2293534" lon="152.5032636">
<ele>400.894</ele>
<time>2015-12-04T22:20:25.924Z</time>
</trkpt>
<trkpt lat="-28.2295154" lon="152.5030270">
<ele>405.333</ele>
<time>2015-12-04T22:20:28.205Z</time>
</trkpt>
<trkpt lat="-28.2296374" lon="152.5027932">
<ele>409.610</ele>
<time>2015-12-04T22:20:30.309Z</time>
</trkpt>
<trkpt lat="-28.2297565" lon="152.5024527">
<ele>413.320</ele>
<time>2015-12-04T22:20:33.077Z</time>
</trkpt>
<trkpt lat="-28.2298444" lon="152.5022031">
<ele>415.609</ele>
<time>2015-12-04T22:20:35.016Z</time>
</trkpt>
<trkpt lat="-28.2300357" lon="152.5020500">
<ele>416.542</ele>
<time>2015-12-04T22:20:36.977Z</time>
</trkpt>
<trkpt lat="-28.2302581" lon="152.5018648">
<ele>417.066</ele>
<time>2015-12-04T22:20:39.369Z</time>
</trkpt>
<trkpt lat="-28.2303565" lon="152.5017317">
<ele>417.971</ele>
<time>2015-12-04T22:20:40.705Z</time>
</trkpt>
<trkpt lat="-28.2304487" lon="152.5015628">
<ele>418.979</ele>
<time>2015-12-04T22:20:42.224Z</time>
</trkpt>
<trkpt lat="-28.2306373" lon="152.5012322">
<ele>419.747</ele>
<time>2015-12-04T22:20:45.535Z</time>
</trkpt>
<trkpt lat="-28.2308872" lon="152.5008979">
<ele>420.730</ele>
<time>2015-12-04T22:20:49.983Z</time>
</trkpt>
<trkpt lat="-28.2310550" lon="152.5005414">
<ele>422.538</ele>
<time>2015-12-04T22:20:53.484Z</time>
</trkpt>
<trkpt lat="-28.2311795" lon="152.5002725">
<ele>425.311</ele>
<time>2015-12-04T22:20:55.722Z</time>
</trkpt>
<trkpt lat="-28.2312217" lon="152.4998073">
<ele>428.216</ele>
<time>2015-12-04T22:20:58.997Z</time>
</trkpt>
<trkpt lat="-28.2312848" lon="152.4995235">
<ele>430.295</ele>
<time>2015-12-04T22:21:00.974Z</time>
</trkpt>
<trkpt lat="-28.2313276" lon="152.4992364">
<ele>431.470</ele>
<time>2015-12-04T22:21:02.862Z</time>
</trkpt>
<trkpt lat="-28.2312940" lon="152.4988207">
<ele>432.082</ele>
<time>2015-12-04T22:21:05.566Z</time>
</trkpt>
<trkpt lat="-28.2314047" lon="152.4985855">
<ele>432.832</ele>
<time>2015-12-04T22:21:07.330Z</time>
</trkpt>
<trkpt lat="-28.2315873" lon="152.4985034">
<ele>434.506</ele>
<time>2015-12-04T22:21:08.877Z</time>
</trkpt>
<trkpt lat="-28.2316943" lon="152.4987009">
<ele>437.100</ele>
<time>2015-12-04T22:21:10.536Z</time>
</trkpt>
<trkpt lat="-28.2317768" lon="152.4990207">
<ele>440.637</ele>
<time>2015-12-04T22:21:13.369Z</time>
</trkpt>
<trkpt lat="-28.2318352" lon="152.4993034">
<ele>445.250</ele>
<time>2015-12-04T22:21:16.654Z</time>
</trkpt>
<trkpt lat="-28.2319667" lon="152.4996448">
<ele>449.961</ele>
<time>2015-12-04T22:21:21.385Z</time>
</trkpt>
<trkpt lat="-28.2320591" lon="152.4998680">
<ele>453.532</ele>
<time>2015-12-04T22:21:23.616Z</time>
</trkpt>
<trkpt lat="-28.2321170" lon="152.5001512">
<ele>455.889</ele>
<time>2015-12-04T22:21:25.914Z</time>
</trkpt>
<trkpt lat="-28.2321662" lon="152.5003417">
<ele>457.886</ele>
<time>2015-12-04T22:21:27.494Z</time>
</trkpt>
<trkpt lat="-28.2322211" lon="152.5005125">
<ele>460.347</ele>
<time>2015-12-04T22:21:29.001Z</time>
</trkpt>
<trkpt lat="-28.2323015" lon="152.5007372">
<ele>463.153</ele>
<time>2015-12-04T22:21:31.204Z</time>
</trkpt>
<trkpt lat="-28.2323547" lon="152.5008639">
<ele>465.799</ele>
<time>2015-12-04T22:21:32.536Z</time>
</trkpt>
<trkpt lat="-28.2324550" lon="152.5009941">
<ele>468.361</ele>
<time>2015-12-04T22:21:34.311Z</time>
</trkpt>
<trkpt lat="-28.2326332" lon="152.5009590">
<ele>471.635</ele>
<time>2015-12-04T22:21:36.574Z</time>
</trkpt>
<trkpt lat="-28.2327720" lon="152.5008610">
<ele>476.005</ele>
<time>2015-12-04T22:21:38.767Z</time>
</trkpt>
<trkpt lat="-28.2329194" lon="152.5007450">
<ele>480.727</ele>
<time>2015-12-04T22:21:41.513Z</time>
</trkpt>
<trkpt lat="-28.2331314" lon="152.5004823">
<ele>484.567</ele>
<time>2015-12-04T22:21:46.945Z</time>
</trkpt>
<trkpt lat="-28.2333208" lon="152.5002071">
<ele>487.009</ele>
<time>2015-12-04T22:21:50.973Z</time>
</trkpt>
<trkpt lat="-28.2334246" lon="152.4999943">
<ele>488.833</ele>
<time>2015-12-04T22:21:53.187Z</time>
</trkpt>
<trkpt lat="-28.2335195" lon="152.4997664">
<ele>491.491</ele>
<time>2015-12-04T22:21:55.380Z</time>
</trkpt>
<trkpt lat="-28.2336872" lon="152.4996088">
<ele>495.142</ele>
<time>2015-12-04T22:21:57.474Z</time>
</trkpt>
<trkpt lat="-28.2339150" lon="152.4994362">
<ele>498.682</ele>
<time>2015-12-04T22:22:00.069Z</time>
</trkpt>
<trkpt lat="-28.2341118" lon="152.4993394">
<ele>501.223</ele>
<time>2015-12-04T22:22:02.067Z</time>
</trkpt>
<trkpt lat="-28.2343656" lon="152.4992549">
<ele>502.985</ele>
<time>2015-12-04T22:22:04.631Z</time>
</trkpt>
<trkpt lat="-28.2345011" lon="152.4990860">
<ele>504.982</ele>
<time>2015-12-04T22:22:06.660Z</time>
</trkpt>
<trkpt lat="-28.2344327" lon="152.4989502">
<ele>507.735</ele>
<time>2015-12-04T22:22:08.091Z</time>
</trkpt>
<trkpt lat="-28.2341960" lon="152.4988098">
<ele>510.655</ele>
<time>2015-12-04T22:22:10.970Z</time>
</trkpt>
<trkpt lat="-28.2340068" lon="152.4987885">
<ele>513.400</ele>
<time>2015-12-04T22:22:13.471Z</time>
</trkpt>
<trkpt lat="-28.2338424" lon="152.4987992">
<ele>515.939</ele>
<time>2015-12-04T22:22:16.051Z</time>
</trkpt>
<trkpt lat="-28.2335417" lon="152.4987005">
<ele>518.195</ele>
<time>2015-12-04T22:22:20.251Z</time>
</trkpt>
<trkpt lat="-28.2334713" lon="152.4985354">
<ele>521.009</ele>
<time>2015-12-04T22:22:22.025Z</time>
</trkpt>
<trkpt lat="-28.2334902" lon="152.4983222">
<ele>525.039</ele>
<time>2015-12-04T22:22:24.070Z</time>
</trkpt>
<trkpt lat="-28.2335797" lon="152.4981391">
<ele>529.658</ele>
<time>2015-12-04T22:22:26.089Z</time>
</trkpt>
<trkpt lat="-28.2337391" lon="152.4978979">
<ele>534.198</ele>
<time>2015-12-04T22:22:29.178Z</time>
</trkpt>
<trkpt lat="-28.2338912" lon="152.4977363">
<ele>538.385</ele>
<time>2015-12-04T22:22:31.557Z</time>
</trkpt>
<trkpt lat="-28.2340871" lon="152.4977603">
<ele>542.006</ele>
<time>2015-12-04T22:22:33.750Z</time>
</trkpt>
<trkpt lat="-28.2342675" lon="152.4977540">
<ele>545.360</ele>
<time>2015-12-04T22:22:35.836Z</time>
</trkpt>
<trkpt lat="-28.2345624" lon="152.4977661">
<ele>548.752</ele>
<time>2015-12-04T22:22:39.545Z</time>
</trkpt>
<trkpt lat="-28.2348015" lon="152.4976783">
<ele>552.072</ele>
<time>2015-12-04T22:22:42.362Z</time>
</trkpt>
<trkpt lat="-28.2348095" lon="152.4973618">
<ele>555.181</ele>
<time>2015-12-04T22:22:45.271Z</time>
</trkpt>
<trkpt lat="-28.2347295" lon="152.4971631">
<ele>558.231</ele>
<time>2015-12-04T22:22:47.328Z</time>
</trkpt>
<trkpt lat="-28.2346313" lon="152.4968739">
<ele>561.123</ele>
<time>2015-12-04T22:22:50.544Z</time>
</trkpt>
<trkpt lat="-28.2345576" lon="152.4966179">
<ele>563.456</ele>
<time>2015-12-04T22:22:53.301Z</time>
</trkpt>
<trkpt lat="-28.2346674" lon="152.4964210">
<ele>565.579</ele>
<time>2015-12-04T22:22:55.419Z</time>
</trkpt>
<trkpt lat="-28.2347504" lon="152.4963772">
<ele>568.284</ele>
<time>2015-12-04T22:22:56.398Z</time>
</trkpt>
<trkpt lat="-28.2349362" lon="152.4966085">
<ele>571.319</ele>
<time>2015-12-04T22:22:59.664Z</time>
</trkpt>
<trkpt lat="-28.2351264" lon="152.4966921">
<ele>574.021</ele>
<time>2015-12-04T22:23:02.727Z</time>
</trkpt>
<trkpt lat="-28.2353672" lon="152.4966366">
<ele>576.768</ele>
<time>2015-12-04T22:23:06.802Z</time>
</trkpt>
<trkpt lat="-28.2355068" lon="152.4964726">
<ele>579.976</ele>
<time>2015-12-04T22:23:09.298Z</time>
</trkpt>
<trkpt lat="-28.2356294" lon="152.4962553">
<ele>583.328</ele>
<time>2015-12-04T22:23:11.943Z</time>
</trkpt>
<trkpt lat="-28.2358245" lon="152.4959203">
<ele>586.511</ele>
<time>2015-12-04T22:23:15.480Z</time>
</trkpt>
<trkpt lat="-28.2359834" lon="152.4957279">
<ele>589.757</ele>
<time>2015-12-04T22:23:17.492Z</time>
</trkpt>
<trkpt lat="-28.2361058" lon="152.4955146">
<ele>593.072</ele>
<time>2015-12-04T22:23:19.365Z</time>
</trkpt>
<trkpt lat="-28.2362359" lon="152.4951418">
<ele>596.138</ele>
<time>2015-12-04T22:23:22.335Z</time>
</trkpt>
<trkpt lat="-28.2363662" lon="152.4948434">
<ele>599.229</ele>
<time>2015-12-04T22:23:24.856Z</time>
</trkpt>
<trkpt lat="-28.2364442" lon="152.4945101">
<ele>603.092</ele>
<time>2015-12-04T22:23:27.651Z</time>
</trkpt>
<trkpt lat="-28.2364343" lon="152.4942144">
<ele>607.845</ele>
<time>2015-12-04T22:23:30.185Z</time>
</trkpt>
<trkpt lat="-28.2364123" lon="152.4937757">
<ele>612.975</ele>
<time>2015-12-04T22:23:33.694Z</time>
</trkpt>
<trkpt lat="-28.2365300" lon="152.4933887">
<ele>618.634</ele>
<time>2015-12-04T22:23:36.653Z</time>
</trkpt>
<trkpt lat="-28.2367091" lon="152.4931022">
<ele>624.925</ele>
<time>2015-12-04T22:23:39.153Z</time>
</trkpt>
<trkpt lat="-28.2368017" lon="152.4929320">
<ele>630.662</ele>
<time>2015-12-04T22:23:40.710Z</time>
</trkpt>
<trkpt lat="-28.2368639" lon="152.4925965">
<ele>634.571</ele>
<time>2015-12-04T22:23:43.587Z</time>
</trkpt>
<trkpt lat="-28.2368640" lon="152.4923434">
<ele>636.667</ele>
<time>2015-12-04T22:23:46.004Z</time>
</trkpt>
<trkpt lat="-28.2366799" lon="152.4918745">
<ele>637.949</ele>
<time>2015-12-04T22:23:50.624Z</time>
</trkpt>
<trkpt lat="-28.2364936" lon="152.4914008">
<ele>639.916</ele>
<time>2015-12-04T22:23:54.401Z</time>
</trkpt>
<trkpt lat="-28.2362943" lon="152.4910360">
<ele>643.909</ele>
<time>2015-12-04T22:23:57.373Z</time>
</trkpt>
<trkpt lat="-28.2360408" lon="152.4908002">
<ele>649.989</ele>
<time>2015-12-04T22:24:00.157Z</time>
</trkpt>
<trkpt lat="-28.2358746" lon="152.4906728">
<ele>656.588</ele>
<time>2015-12-04T22:24:02.001Z</time>
</trkpt>
<trkpt lat="-28.2357881" lon="152.4905063">
<ele>662.491</ele>
<time>2015-12-04T22:24:03.694Z</time>
</trkpt>
<trkpt lat="-28.2356626" lon="152.4901742">
<ele>667.489</ele>
<time>2015-12-04T22:24:06.981Z</time>
</trkpt>
<trkpt lat="-28.2354089" lon="152.4897938">
<ele>671.285</ele>
<time>2015-12-04T22:24:10.981Z</time>
</trkpt>
<trkpt lat="-28.2353390" lon="152.4895662">
<ele>674.442</ele>
<time>2015-12-04T22:24:12.822Z</time>
</trkpt>
<trkpt lat="-28.2350935" lon="152.4893083">
<ele>677.807</ele>
<time>2015-12-04T22:24:15.813Z</time>
</trkpt>
<trkpt lat="-28.2349512" lon="152.4891223">
<ele>681.485</ele>
<time>2015-12-04T22:24:17.842Z</time>
</trkpt>
<trkpt lat="-28.2346897" lon="152.4890014">
<ele>685.972</ele>
<time>2015-12-04T22:24:20.644Z</time>
</trkpt>
<trkpt lat="-28.2344864" lon="152.4888613">
<ele>691.528</ele>
<time>2015-12-04T22:24:23.354Z</time>
</trkpt>
<trkpt lat="-28.2343959" lon="152.4886186">
<ele>697.316</ele>
<time>2015-12-04T22:24:26.225Z</time>
</trkpt>
<trkpt lat="-28.2343510" lon="152.4883422">
<ele>703.067</ele>
<time>2015-12-04T22:24:29.273Z</time>
</trkpt>
<trkpt lat="-28.2342141" lon="152.4880584">
<ele>709.151</ele>
<time>2015-12-04T22:24:32.751Z</time>
</trkpt>
<trkpt lat="-28.2341229" lon="152.4878273">
<ele>714.750</ele>
<time>2015-12-04T22:24:35.267Z</time>
</trkpt>
<trkpt lat="-28.2339267" lon="152.4875764">
<ele>718.715</ele>
<time>2015-12-04T22:24:38.366Z</time>
</trkpt>
<trkpt lat="-28.2336868" lon="152.4873914">
<ele>721.039</ele>
<time>2015-12-04T22:24:41.438Z</time>
</trkpt>
<trkpt lat="-28.2335385" lon="152.4872371">
<ele>722.491</ele>
<time>2015-12-04T22:24:43.480Z</time>
</trkpt>
<trkpt lat="-28.2333793" lon="152.4869050">
<ele>724.431</ele>
<time>2015-12-04T22:24:46.576Z</time>
</trkpt>
<trkpt lat="-28.2333294" lon="152.4867007">
<ele>728.037</ele>
<time>2015-12-04T22:24:48.292Z</time>
</trkpt>
<trkpt lat="-28.2332497" lon="152.4864100">
<ele>732.665</ele>
<time>2015-12-04T22:24:50.941Z</time>
</trkpt>
<trkpt lat="-28.2331391" lon="152.4860971">
<ele>737.000</ele>
<time>2015-12-04T22:24:54.161Z</time>
</trkpt>
<trkpt lat="-28.2330641" lon="152.4859156">
<ele>740.495</ele>
<time>2015-12-04T22:24:56.268Z</time>
</trkpt>
<trkpt lat="-28.2329537" lon="152.4857496">
<ele>743.451</ele>
<time>2015-12-04T22:24:58.693Z</time>
</trkpt>
<trkpt lat="-28.2328372" lon="152.4855869">
<ele>746.541</ele>
<time>2015-12-04T22:25:01.583Z</time>
</trkpt>
<trkpt lat="-28.2327764" lon="152.4854762">
<ele>749.940</ele>
<time>2015-12-04T22:25:03.937Z</time>
</trkpt>
<trkpt lat="-28.2326787" lon="152.4854285">
<ele>753.058</ele>
<time>2015-12-04T22:25:07.505Z</time>
</trkpt>
<trkpt lat="-28.2326189" lon="152.4853267">
<ele>756.179</ele>
<time>2015-12-04T22:25:13.000Z</time>
</trkpt>
<trkpt lat="-28.2326189" lon="152.4853267">
<ele>759.633</ele>
<time>2015-12-04T22:25:16.000Z</time>
</trkpt>
<trkpt lat="-28.2326189" lon="152.4853267">
<ele>761.737</ele>
<time>2015-12-04T22:25:34.473Z</time>
</trkpt>
<trkpt lat="-28.2327616" lon="152.4852557">
<ele>761.305</ele>
<time>2015-12-04T22:25:41.874Z</time>
</trkpt>
<trkpt lat="-28.2328898" lon="152.4851702">
<ele>761.664</ele>
<time>2015-12-04T22:25:44.264Z</time>
</trkpt>
<trkpt lat="-28.2329149" lon="152.4850011">
<ele>765.621</ele>
<time>2015-12-04T22:25:46.140Z</time>
</trkpt>
<trkpt lat="-28.2330170" lon="152.4847498">
<ele>770.473</ele>
<time>2015-12-04T22:25:48.783Z</time>
</trkpt>
<trkpt lat="-28.2330347" lon="152.4845114">
<ele>772.869</ele>
<time>2015-12-04T22:25:50.676Z</time>
</trkpt>
<trkpt lat="-28.2330292" lon="152.4842326">
<ele>773.135</ele>
<time>2015-12-04T22:25:52.717Z</time>
</trkpt>
<trkpt lat="-28.2329769" lon="152.4837729">
<ele>772.725</ele>
<time>2015-12-04T22:25:55.840Z</time>
</trkpt>
<trkpt lat="-28.2329669" lon="152.4833315">
<ele>772.953</ele>
<time>2015-12-04T22:25:58.858Z</time>
</trkpt>
<trkpt lat="-28.2329673" lon="152.4830672">
<ele>774.439</ele>
<time>2015-12-04T22:26:00.726Z</time>
</trkpt>
<trkpt lat="-28.2329897" lon="152.4828037">
<ele>776.415</ele>
<time>2015-12-04T22:26:02.731Z</time>
</trkpt>
<trkpt lat="-28.2331316" lon="152.4824824">
<ele>777.713</ele>
<time>2015-12-04T22:26:05.570Z</time>
</trkpt>
<trkpt lat="-28.2333006" lon="152.4823426">
<ele>778.117</ele>
<time>2015-12-04T22:26:07.315Z</time>
</trkpt>
<trkpt lat="-28.2335430" lon="152.4821932">
<ele>778.154</ele>
<time>2015-12-04T22:26:09.248Z</time>
</trkpt>
<trkpt lat="-28.2339944" lon="152.4819466">
<ele>778.268</ele>
<time>2015-12-04T22:26:12.293Z</time>
</trkpt>
<trkpt lat="-28.2345371" lon="152.4817597">
<ele>778.236</ele>
<time>2015-12-04T22:26:15.331Z</time>
</trkpt>
<trkpt lat="-28.2349266" lon="152.4816461">
<ele>777.576</ele>
<time>2015-12-04T22:26:17.384Z</time>
</trkpt>
<trkpt lat="-28.2354860" lon="152.4814902">
<ele>776.161</ele>
<time>2015-12-04T22:26:20.381Z</time>
</trkpt>
<trkpt lat="-28.2360008" lon="152.4813508">
<ele>774.450</ele>
<time>2015-12-04T22:26:23.267Z</time>
</trkpt>
<trkpt lat="-28.2363176" lon="152.4812756">
<ele>773.107</ele>
<time>2015-12-04T22:26:25.139Z</time>
</trkpt>
<trkpt lat="-28.2368091" lon="152.4811640">
<ele>771.887</ele>
<time>2015-12-04T22:26:28.162Z</time>
</trkpt>
<trkpt lat="-28.2372235" lon="152.4809777">
<ele>769.568</ele>
<time>2015-12-04T22:26:31.037Z</time>
</trkpt>
<trkpt lat="-28.2374565" lon="152.4808172">
<ele>766.193</ele>
<time>2015-12-04T22:26:32.971Z</time>
</trkpt>
<trkpt lat="-28.2376568" lon="152.4806485">
<ele>763.483</ele>
<time>2015-12-04T22:26:34.864Z</time>
</trkpt>
<trkpt lat="-28.2379448" lon="152.4803818">
<ele>762.361</ele>
<time>2015-12-04T22:26:37.843Z</time>
</trkpt>
<trkpt lat="-28.2379270" lon="152.4801284">
<ele>762.170</ele>
<time>2015-12-04T22:26:39.725Z</time>
</trkpt>
<trkpt lat="-28.2377647" lon="152.4797199">
<ele>762.232</ele>
<time>2015-12-04T22:26:42.605Z</time>
</trkpt>
<trkpt lat="-28.2377004" lon="152.4791869">
<ele>762.318</ele>
<time>2015-12-04T22:26:45.634Z</time>
</trkpt>
<trkpt lat="-28.2376749" lon="152.4788342">
<ele>762.371</ele>
<time>2015-12-04T22:26:47.678Z</time>
</trkpt>
<trkpt lat="-28.2377276" lon="152.4783769">
<ele>762.513</ele>
<time>2015-12-04T22:26:50.420Z</time>
</trkpt>
<trkpt lat="-28.2379254" lon="152.4780820">
<ele>762.824</ele>
<time>2015-12-04T22:26:52.453Z</time>
</trkpt>
<trkpt lat="-28.2381994" lon="152.4777810">
<ele>762.953</ele>
<time>2015-12-04T22:26:54.538Z</time>
</trkpt>
<trkpt lat="-28.2384854" lon="152.4774615">
<ele>762.265</ele>
<time>2015-12-04T22:26:56.614Z</time>
</trkpt>
<trkpt lat="-28.2387617" lon="152.4771487">
<ele>760.565</ele>
<time>2015-12-04T22:26:58.692Z</time>
</trkpt>
<trkpt lat="-28.2390787" lon="152.4766604">
<ele>758.510</ele>
<time>2015-12-04T22:27:01.642Z</time>
</trkpt>
<trkpt lat="-28.2391299" lon="152.4762466">
<ele>757.010</ele>
<time>2015-12-04T22:27:03.692Z</time>
</trkpt>
<trkpt lat="-28.2391795" lon="152.4758475">
<ele>756.358</ele>
<time>2015-12-04T22:27:05.725Z</time>
</trkpt>
<trkpt lat="-28.2392516" lon="152.4754769">
<ele>756.282</ele>
<time>2015-12-04T22:27:07.692Z</time>
</trkpt>
<trkpt lat="-28.2393884" lon="152.4751348">
<ele>756.588</ele>
<time>2015-12-04T22:27:09.695Z</time>
</trkpt>
<trkpt lat="-28.2395747" lon="152.4748428">
<ele>757.141</ele>
<time>2015-12-04T22:27:11.638Z</time>
</trkpt>
<trkpt lat="-28.2399142" lon="152.4744647">
<ele>757.580</ele>
<time>2015-12-04T22:27:14.493Z</time>
</trkpt>
<trkpt lat="-28.2403820" lon="152.4742676">
<ele>757.319</ele>
<time>2015-12-04T22:27:17.365Z</time>
</trkpt>
<trkpt lat="-28.2408936" lon="152.4741265">
<ele>756.053</ele>
<time>2015-12-04T22:27:20.263Z</time>
</trkpt>
<trkpt lat="-28.2414295" lon="152.4739809">
<ele>754.179</ele>
<time>2015-12-04T22:27:23.189Z</time>
</trkpt>
<trkpt lat="-28.2419715" lon="152.4737438">
<ele>752.142</ele>
<time>2015-12-04T22:27:26.233Z</time>
</trkpt>
<trkpt lat="-28.2422850" lon="152.4735639">
<ele>749.777</ele>
<time>2015-12-04T22:27:28.183Z</time>
</trkpt>
<trkpt lat="-28.2427091" lon="152.4733054">
<ele>746.433</ele>
<time>2015-12-04T22:27:31.035Z</time>
</trkpt>
<trkpt lat="-28.2429738" lon="152.4731474">
<ele>742.014</ele>
<time>2015-12-04T22:27:32.992Z</time>
</trkpt>
<trkpt lat="-28.2433594" lon="152.4729667">
<ele>737.559</ele>
<time>2015-12-04T22:27:35.893Z</time>
</trkpt>
<trkpt lat="-28.2435918" lon="152.4728848">
<ele>734.316</ele>
<time>2015-12-04T22:27:37.633Z</time>
</trkpt>
<trkpt lat="-28.2439176" lon="152.4728991">
<ele>732.636</ele>
<time>2015-12-04T22:27:39.795Z</time>
</trkpt>
<trkpt lat="-28.2442660" lon="152.4729050">
<ele>732.046</ele>
<time>2015-12-04T22:27:41.931Z</time>
</trkpt>
<trkpt lat="-28.2445716" lon="152.4728475">
<ele>731.686</ele>
<time>2015-12-04T22:27:43.868Z</time>
</trkpt>
<trkpt lat="-28.2449842" lon="152.4727032">
<ele>731.097</ele>
<time>2015-12-04T22:27:46.783Z</time>
</trkpt>
<trkpt lat="-28.2452057" lon="152.4726955">
<ele>729.814</ele>
<time>2015-12-04T22:27:48.526Z</time>
</trkpt>
<trkpt lat="-28.2454516" lon="152.4728748">
<ele>727.511</ele>
<time>2015-12-04T22:27:51.136Z</time>
</trkpt>
<trkpt lat="-28.2455643" lon="152.4730961">
<ele>724.988</ele>
<time>2015-12-04T22:27:53.213Z</time>
</trkpt>
<trkpt lat="-28.2456695" lon="152.4733278">
<ele>723.511</ele>
<time>2015-12-04T22:27:55.170Z</time>
</trkpt>
<trkpt lat="-28.2458039" lon="152.4735156">
<ele>723.308</ele>
<time>2015-12-04T22:27:56.944Z</time>
</trkpt>
<trkpt lat="-28.2459916" lon="152.4738436">
<ele>723.998</ele>
<time>2015-12-04T22:27:59.956Z</time>
</trkpt>
<trkpt lat="-28.2461248" lon="152.4740192">
<ele>725.142</ele>
<time>2015-12-04T22:28:01.839Z</time>
</trkpt>
<trkpt lat="-28.2463547" lon="152.4741163">
<ele>726.379</ele>
<time>2015-12-04T22:28:04.106Z</time>
</trkpt>
<trkpt lat="-28.2467513" lon="152.4741489">
<ele>727.459</ele>
<time>2015-12-04T22:28:07.351Z</time>
</trkpt>
<trkpt lat="-28.2470105" lon="152.4740316">
<ele>728.166</ele>
<time>2015-12-04T22:28:09.296Z</time>
</trkpt>
<trkpt lat="-28.2473509" lon="152.4739084">
<ele>728.750</ele>
<time>2015-12-04T22:28:11.514Z</time>
</trkpt>
<trkpt lat="-28.2478374" lon="152.4736769">
<ele>729.632</ele>
<time>2015-12-04T22:28:14.500Z</time>
</trkpt>
<trkpt lat="-28.2483977" lon="152.4733658">
<ele>730.562</ele>
<time>2015-12-04T22:28:17.680Z</time>
</trkpt>
<trkpt lat="-28.2487722" lon="152.4731762">
<ele>731.332</ele>
<time>2015-12-04T22:28:19.676Z</time>
</trkpt>
<trkpt lat="-28.2492938" lon="152.4729043">
<ele>732.077</ele>
<time>2015-12-04T22:28:22.517Z</time>
</trkpt>
<trkpt lat="-28.2496648" lon="152.4727116">
<ele>732.625</ele>
<time>2015-12-04T22:28:24.572Z</time>
</trkpt>
<trkpt lat="-28.2499527" lon="152.4725268">
<ele>732.888</ele>
<time>2015-12-04T22:28:26.264Z</time>
</trkpt>
<trkpt lat="-28.2502938" lon="152.4723559">
<ele>733.336</ele>
<time>2015-12-04T22:28:28.232Z</time>
</trkpt>
<trkpt lat="-28.2508187" lon="152.4721171">
<ele>734.309</ele>
<time>2015-12-04T22:28:31.203Z</time>
</trkpt>
<trkpt lat="-28.2513602" lon="152.4718438">
<ele>735.297</ele>
<time>2015-12-04T22:28:34.256Z</time>
</trkpt>
<trkpt lat="-28.2516879" lon="152.4716674">
<ele>735.549</ele>
<time>2015-12-04T22:28:36.199Z</time>
</trkpt>
<trkpt lat="-28.2519804" lon="152.4714950">
<ele>735.129</ele>
<time>2015-12-04T22:28:38.150Z</time>
</trkpt>
<trkpt lat="-28.2523731" lon="152.4711731">
<ele>734.625</ele>
<time>2015-12-04T22:28:41.142Z</time>
</trkpt>
<trkpt lat="-28.2527879" lon="152.4708111">
<ele>734.333</ele>
<time>2015-12-04T22:28:44.206Z</time>
</trkpt>
<trkpt lat="-28.2530679" lon="152.4705196">
<ele>733.367</ele>
<time>2015-12-04T22:28:46.257Z</time>
</trkpt>
<trkpt lat="-28.2534493" lon="152.4700654">
<ele>731.154</ele>
<time>2015-12-04T22:28:49.131Z</time>
</trkpt>
<trkpt lat="-28.2537107" lon="152.4697513">
<ele>729.121</ele>
<time>2015-12-04T22:28:51.075Z</time>
</trkpt>
<trkpt lat="-28.2541332" lon="152.4692961">
<ele>728.564</ele>
<time>2015-12-04T22:28:54.024Z</time>
</trkpt>
<trkpt lat="-28.2544235" lon="152.4690462">
<ele>728.603</ele>
<time>2015-12-04T22:28:55.911Z</time>
</trkpt>
<trkpt lat="-28.2547622" lon="152.4688127">
<ele>728.043</ele>
<time>2015-12-04T22:28:58.025Z</time>
</trkpt>
<trkpt lat="-28.2550583" lon="152.4686025">
<ele>726.927</ele>
<time>2015-12-04T22:28:59.953Z</time>
</trkpt>
<trkpt lat="-28.2553396" lon="152.4684029">
<ele>725.989</ele>
<time>2015-12-04T22:29:01.886Z</time>
</trkpt>
<trkpt lat="-28.2558394" lon="152.4679426">
<ele>725.576</ele>
<time>2015-12-04T22:29:05.752Z</time>
</trkpt>
<trkpt lat="-28.2561959" lon="152.4676200">
<ele>725.834</ele>
<time>2015-12-04T22:29:08.586Z</time>
</trkpt>
<trkpt lat="-28.2563851" lon="152.4673809">
<ele>726.662</ele>
<time>2015-12-04T22:29:10.403Z</time>
</trkpt>
<trkpt lat="-28.2565809" lon="152.4672316">
<ele>727.469</ele>
<time>2015-12-04T22:29:12.012Z</time>
</trkpt>
<trkpt lat="-28.2568987" lon="152.4670792">
<ele>727.685</ele>
<time>2015-12-04T22:29:14.634Z</time>
</trkpt>
<trkpt lat="-28.2571063" lon="152.4669334">
<ele>727.181</ele>
<time>2015-12-04T22:29:16.711Z</time>
</trkpt>
<trkpt lat="-28.2571884" lon="152.4668051">
<ele>726.157</ele>
<time>2015-12-04T22:29:18.067Z</time>
</trkpt>
<trkpt lat="-28.2573024" lon="152.4667084">
<ele>725.025</ele>
<time>2015-12-04T22:29:19.563Z</time>
</trkpt>
<trkpt lat="-28.2574991" lon="152.4665019">
<ele>724.149</ele>
<time>2015-12-04T22:29:22.997Z</time>
</trkpt>
<trkpt lat="-28.2576643" lon="152.4663355">
<ele>723.853</ele>
<time>2015-12-04T22:29:25.654Z</time>
</trkpt>
<trkpt lat="-28.2579337" lon="152.4660802">
<ele>724.395</ele>
<time>2015-12-04T22:29:29.162Z</time>
</trkpt>
<trkpt lat="-28.2580913" lon="152.4659474">
<ele>725.483</ele>
<time>2015-12-04T22:29:30.984Z</time>
</trkpt>
<trkpt lat="-28.2583198" lon="152.4657677">
<ele>726.270</ele>
<time>2015-12-04T22:29:33.676Z</time>
</trkpt>
<trkpt lat="-28.2584586" lon="152.4655643">
<ele>726.297</ele>
<time>2015-12-04T22:29:36.043Z</time>
</trkpt>
<trkpt lat="-28.2586388" lon="152.4652527">
<ele>725.907</ele>
<time>2015-12-04T22:29:39.841Z</time>
</trkpt>
<trkpt lat="-28.2587302" lon="152.4646806">
<ele>725.765</ele>
<time>2015-12-04T22:29:44.850Z</time>
</trkpt>
<trkpt lat="-28.2588640" lon="152.4643547">
<ele>726.188</ele>
<time>2015-12-04T22:29:47.145Z</time>
</trkpt>
<trkpt lat="-28.2589631" lon="152.4639588">
<ele>726.848</ele>
<time>2015-12-04T22:29:49.694Z</time>
</trkpt>
<trkpt lat="-28.2590094" lon="152.4636450">
<ele>727.255</ele>
<time>2015-12-04T22:29:51.758Z</time>
</trkpt>
<trkpt lat="-28.2592257" lon="152.4632327">
<ele>727.325</ele>
<time>2015-12-04T22:29:54.850Z</time>
</trkpt>
<trkpt lat="-28.2594071" lon="152.4630209">
<ele>727.235</ele>
<time>2015-12-04T22:29:56.736Z</time>
</trkpt>
<trkpt lat="-28.2596734" lon="152.4626142">
<ele>727.112</ele>
<time>2015-12-04T22:29:59.988Z</time>
</trkpt>
<trkpt lat="-28.2598661" lon="152.4623498">
<ele>726.923</ele>
<time>2015-12-04T22:30:02.130Z</time>
</trkpt>
<trkpt lat="-28.2601159" lon="152.4619447">
<ele>726.567</ele>
<time>2015-12-04T22:30:05.192Z</time>
</trkpt>
<trkpt lat="-28.2603628" lon="152.4615568">
<ele>725.688</ele>
<time>2015-12-04T22:30:08.191Z</time>
</trkpt>
<trkpt lat="-28.2607077" lon="152.4612828">
<ele>724.146</ele>
<time>2015-12-04T22:30:11.193Z</time>
</trkpt>
<trkpt lat="-28.2611566" lon="152.4611460">
<ele>722.294</ele>
<time>2015-12-04T22:30:14.347Z</time>
</trkpt>
<trkpt lat="-28.2616992" lon="152.4610982">
<ele>720.490</ele>
<time>2015-12-04T22:30:17.601Z</time>
</trkpt>
<trkpt lat="-28.2622155" lon="152.4609918">
<ele>718.824</ele>
<time>2015-12-04T22:30:20.500Z</time>
</trkpt>
<trkpt lat="-28.2625375" lon="152.4607950">
<ele>717.251</ele>
<time>2015-12-04T22:30:22.499Z</time>
</trkpt>
<trkpt lat="-28.2629694" lon="152.4604174">
<ele>715.781</ele>
<time>2015-12-04T22:30:25.485Z</time>
</trkpt>
<trkpt lat="-28.2633843" lon="152.4600709">
<ele>714.581</ele>
<time>2015-12-04T22:30:28.391Z</time>
</trkpt>
<trkpt lat="-28.2636214" lon="152.4598604">
<ele>713.737</ele>
<time>2015-12-04T22:30:30.216Z</time>
</trkpt>
<trkpt lat="-28.2638548" lon="152.4596659">
<ele>713.125</ele>
<time>2015-12-04T22:30:32.114Z</time>
</trkpt>
<trkpt lat="-28.2641620" lon="152.4593663">
<ele>712.465</ele>
<time>2015-12-04T22:30:34.908Z</time>
</trkpt>
<trkpt lat="-28.2645734" lon="152.4590080">
<ele>711.753</ele>
<time>2015-12-04T22:30:38.162Z</time>
</trkpt>
<trkpt lat="-28.2650288" lon="152.4585916">
<ele>711.586</ele>
<time>2015-12-04T22:30:41.295Z</time>
</trkpt>
<trkpt lat="-28.2653359" lon="152.4583132">
<ele>712.435</ele>
<time>2015-12-04T22:30:43.273Z</time>
</trkpt>
<trkpt lat="-28.2657918" lon="152.4579144">
<ele>713.963</ele>
<time>2015-12-04T22:30:46.225Z</time>
</trkpt>
<trkpt lat="-28.2662053" lon="152.4575548">
<ele>715.359</ele>
<time>2015-12-04T22:30:49.086Z</time>
</trkpt>
<trkpt lat="-28.2664593" lon="152.4573361">
<ele>716.144</ele>
<time>2015-12-04T22:30:51.017Z</time>
</trkpt>
<trkpt lat="-28.2668208" lon="152.4570068">
<ele>716.082</ele>
<time>2015-12-04T22:30:53.910Z</time>
</trkpt>
<trkpt lat="-28.2672327" lon="152.4566435">
<ele>715.301</ele>
<time>2015-12-04T22:30:57.015Z</time>
</trkpt>
<trkpt lat="-28.2674731" lon="152.4563931">
<ele>714.456</ele>
<time>2015-12-04T22:30:58.857Z</time>
</trkpt>
<trkpt lat="-28.2679006" lon="152.4560173">
<ele>713.969</ele>
<time>2015-12-04T22:31:01.905Z</time>
</trkpt>
<trkpt lat="-28.2681792" lon="152.4557749">
<ele>713.380</ele>
<time>2015-12-04T22:31:03.883Z</time>
</trkpt>
<trkpt lat="-28.2684753" lon="152.4555147">
<ele>712.031</ele>
<time>2015-12-04T22:31:05.950Z</time>
</trkpt>
<trkpt lat="-28.2687917" lon="152.4552519">
<ele>709.955</ele>
<time>2015-12-04T22:31:08.022Z</time>
</trkpt>
<trkpt lat="-28.2691437" lon="152.4549727">
<ele>707.995</ele>
<time>2015-12-04T22:31:10.098Z</time>
</trkpt>
<trkpt lat="-28.2696534" lon="152.4544559">
<ele>706.887</ele>
<time>2015-12-04T22:31:13.116Z</time>
</trkpt>
<trkpt lat="-28.2698303" lon="152.4542959">
<ele>706.888</ele>
<time>2015-12-04T22:31:14.122Z</time>
</trkpt>
<trkpt lat="-28.2704112" lon="152.4537474">
<ele>707.716</ele>
<time>2015-12-04T22:31:17.798Z</time>
</trkpt>
<trkpt lat="-28.2706805" lon="152.4535403">
<ele>707.889</ele>
<time>2015-12-04T22:31:19.643Z</time>
</trkpt>
<trkpt lat="-28.2710179" lon="152.4532503">
<ele>706.410</ele>
<time>2015-12-04T22:31:22.391Z</time>
</trkpt>
<trkpt lat="-28.2711519" lon="152.4530102">
<ele>704.434</ele>
<time>2015-12-04T22:31:24.166Z</time>
</trkpt>
<trkpt lat="-28.2713936" lon="152.4527554">
<ele>703.309</ele>
<time>2015-12-04T22:31:26.472Z</time>
</trkpt>
<trkpt lat="-28.2716420" lon="152.4524381">
<ele>703.215</ele>
<time>2015-12-04T22:31:28.700Z</time>
</trkpt>
<trkpt lat="-28.2719154" lon="152.4521011">
<ele>703.791</ele>
<time>2015-12-04T22:31:30.801Z</time>
</trkpt>
<trkpt lat="-28.2723788" lon="152.4515957">
<ele>704.415</ele>
<time>2015-12-04T22:31:33.910Z</time>
</trkpt>
<trkpt lat="-28.2727092" lon="152.4513500">
<ele>705.010</ele>
<time>2015-12-04T22:31:35.840Z</time>
</trkpt>
<trkpt lat="-28.2731209" lon="152.4509841">
<ele>705.864</ele>
<time>2015-12-04T22:31:38.622Z</time>
</trkpt>
<trkpt lat="-28.2734334" lon="152.4504762">
<ele>706.947</ele>
<time>2015-12-04T22:31:41.647Z</time>
</trkpt>
<trkpt lat="-28.2735360" lon="152.4498870">
<ele>708.202</ele>
<time>2015-12-04T22:31:44.568Z</time>
</trkpt>
<trkpt lat="-28.2736090" lon="152.4492739">
<ele>709.465</ele>
<time>2015-12-04T22:31:47.520Z</time>
</trkpt>
<trkpt lat="-28.2736725" lon="152.4487131">
<ele>711.245</ele>
<time>2015-12-04T22:31:50.290Z</time>
</trkpt>
<trkpt lat="-28.2737220" lon="152.4482023">
<ele>714.015</ele>
<time>2015-12-04T22:31:53.031Z</time>
</trkpt>
<trkpt lat="-28.2737867" lon="152.4477126">
<ele>716.345</ele>
<time>2015-12-04T22:31:55.856Z</time>
</trkpt>
<trkpt lat="-28.2738633" lon="152.4472239">
<ele>716.485</ele>
<time>2015-12-04T22:31:58.777Z</time>
</trkpt>
<trkpt lat="-28.2739836" lon="152.4468068">
<ele>714.496</ele>
<time>2015-12-04T22:32:01.486Z</time>
</trkpt>
<trkpt lat="-28.2741305" lon="152.4466776">
<ele>710.807</ele>
<time>2015-12-04T22:32:02.835Z</time>
</trkpt>
<trkpt lat="-28.2742926" lon="152.4466332">
<ele>706.425</ele>
<time>2015-12-04T22:32:04.264Z</time>
</trkpt>
<trkpt lat="-28.2745195" lon="152.4465852">
<ele>703.323</ele>
<time>2015-12-04T22:32:06.491Z</time>
</trkpt>
<trkpt lat="-28.2749331" lon="152.4465272">
<ele>702.736</ele>
<time>2015-12-04T22:32:10.166Z</time>
</trkpt>
<trkpt lat="-28.2754030" lon="152.4464756">
<ele>704.274</ele>
<time>2015-12-04T22:32:13.522Z</time>
</trkpt>
<trkpt lat="-28.2757277" lon="152.4464270">
<ele>706.981</ele>
<time>2015-12-04T22:32:15.621Z</time>
</trkpt>
<trkpt lat="-28.2760515" lon="152.4463652">
<ele>709.574</ele>
<time>2015-12-04T22:32:17.619Z</time>
</trkpt>
<trkpt lat="-28.2763657" lon="152.4462542">
<ele>711.079</ele>
<time>2015-12-04T22:32:19.597Z</time>
</trkpt>
<trkpt lat="-28.2766871" lon="152.4460966">
<ele>711.615</ele>
<time>2015-12-04T22:32:21.672Z</time>
</trkpt>
<trkpt lat="-28.2771700" lon="152.4459136">
<ele>711.970</ele>
<time>2015-12-04T22:32:24.624Z</time>
</trkpt>
<trkpt lat="-28.2774907" lon="152.4458281">
<ele>712.891</ele>
<time>2015-12-04T22:32:26.549Z</time>
</trkpt>
<trkpt lat="-28.2777915" lon="152.4457658">
<ele>714.426</ele>
<time>2015-12-04T22:32:28.397Z</time>
</trkpt>
<trkpt lat="-28.2781517" lon="152.4456504">
<ele>715.711</ele>
<time>2015-12-04T22:32:30.789Z</time>
</trkpt>
<trkpt lat="-28.2785060" lon="152.4455551">
<ele>716.088</ele>
<time>2015-12-04T22:32:33.304Z</time>
</trkpt>
<trkpt lat="-28.2787120" lon="152.4454068">
<ele>715.853</ele>
<time>2015-12-04T22:32:35.240Z</time>
</trkpt>
<trkpt lat="-28.2788498" lon="152.4452981">
<ele>715.511</ele>
<time>2015-12-04T22:32:36.700Z</time>
</trkpt>
<trkpt lat="-28.2790011" lon="152.4451874">
<ele>715.371</ele>
<time>2015-12-04T22:32:38.446Z</time>
</trkpt>
<trkpt lat="-28.2793268" lon="152.4450010">
<ele>715.631</ele>
<time>2015-12-04T22:32:42.431Z</time>
</trkpt>
<trkpt lat="-28.2795321" lon="152.4448957">
<ele>716.511</ele>
<time>2015-12-04T22:32:44.691Z</time>
</trkpt>
<trkpt lat="-28.2798679" lon="152.4447381">
<ele>717.882</ele>
<time>2015-12-04T22:32:48.013Z</time>
</trkpt>
<trkpt lat="-28.2800763" lon="152.4446225">
<ele>719.272</ele>
<time>2015-12-04T22:32:50.006Z</time>
</trkpt>
<trkpt lat="-28.2802281" lon="152.4445189">
<ele>720.309</ele>
<time>2015-12-04T22:32:51.524Z</time>
</trkpt>
<trkpt lat="-28.2805058" lon="152.4444464">
<ele>720.908</ele>
<time>2015-12-04T22:32:54.021Z</time>
</trkpt>
<trkpt lat="-28.2808482" lon="152.4444212">
<ele>721.245</ele>
<time>2015-12-04T22:32:57.271Z</time>
</trkpt>
<trkpt lat="-28.2811829" lon="152.4444213">
<ele>721.799</ele>
<time>2015-12-04T22:33:00.424Z</time>
</trkpt>
<trkpt lat="-28.2813928" lon="152.4445544">
<ele>723.186</ele>
<time>2015-12-04T22:33:02.600Z</time>
</trkpt>
<trkpt lat="-28.2816212" lon="152.4447470">
<ele>725.576</ele>
<time>2015-12-04T22:33:05.162Z</time>
</trkpt>
<trkpt lat="-28.2819081" lon="152.4450309">
<ele>728.394</ele>
<time>2015-12-04T22:33:08.571Z</time>
</trkpt>
<trkpt lat="-28.2821020" lon="152.4452231">
<ele>731.214</ele>
<time>2015-12-04T22:33:10.731Z</time>
</trkpt>
<trkpt lat="-28.2824786" lon="152.4452972">
<ele>734.258</ele>
<time>2015-12-04T22:33:13.903Z</time>
</trkpt>
<trkpt lat="-28.2829177" lon="152.4455226">
<ele>737.818</ele>
<time>2015-12-04T22:33:18.051Z</time>
</trkpt>
<trkpt lat="-28.2831049" lon="152.4456441">
<ele>741.565</ele>
<time>2015-12-04T22:33:19.788Z</time>
</trkpt>
<trkpt lat="-28.2833926" lon="152.4455918">
<ele>744.616</ele>
<time>2015-12-04T22:33:22.124Z</time>
</trkpt>
<trkpt lat="-28.2836444" lon="152.4452848">
<ele>746.690</ele>
<time>2015-12-04T22:33:25.490Z</time>
</trkpt>
<trkpt lat="-28.2838154" lon="152.4448392">
<ele>748.900</ele>
<time>2015-12-04T22:33:29.248Z</time>
</trkpt>
<trkpt lat="-28.2838007" lon="152.4445279">
<ele>752.334</ele>
<time>2015-12-04T22:33:31.424Z</time>
</trkpt>
<trkpt lat="-28.2837288" lon="152.4441846">
<ele>756.510</ele>
<time>2015-12-04T22:33:33.762Z</time>
</trkpt>
<trkpt lat="-28.2837974" lon="152.4439072">
<ele>759.908</ele>
<time>2015-12-04T22:33:35.773Z</time>
</trkpt>
<trkpt lat="-28.2839640" lon="152.4437332">
<ele>761.723</ele>
<time>2015-12-04T22:33:37.752Z</time>
</trkpt>
<trkpt lat="-28.2842527" lon="152.4434918">
<ele>762.455</ele>
<time>2015-12-04T22:33:41.739Z</time>
</trkpt>
<trkpt lat="-28.2845320" lon="152.4435048">
<ele>763.375</ele>
<time>2015-12-04T22:33:44.622Z</time>
</trkpt>
<trkpt lat="-28.2846900" lon="152.4436675">
<ele>765.084</ele>
<time>2015-12-04T22:33:46.685Z</time>
</trkpt>
<trkpt lat="-28.2848997" lon="152.4439940">
<ele>767.152</ele>
<time>2015-12-04T22:33:50.077Z</time>
</trkpt>
<trkpt lat="-28.2850379" lon="152.4441963">
<ele>769.202</ele>
<time>2015-12-04T22:33:52.069Z</time>
</trkpt>
<trkpt lat="-28.2852270" lon="152.4443948">
<ele>771.227</ele>
<time>2015-12-04T22:33:54.217Z</time>
</trkpt>
<trkpt lat="-28.2854233" lon="152.4445044">
<ele>773.158</ele>
<time>2015-12-04T22:33:56.029Z</time>
</trkpt>
<trkpt lat="-28.2856867" lon="152.4445488">
<ele>775.054</ele>
<time>2015-12-04T22:33:58.229Z</time>
</trkpt>
<trkpt lat="-28.2859201" lon="152.4446294">
<ele>776.875</ele>
<time>2015-12-04T22:34:00.281Z</time>
</trkpt>
<trkpt lat="-28.2862418" lon="152.4446039">
<ele>778.498</ele>
<time>2015-12-04T22:34:02.983Z</time>
</trkpt>
<trkpt lat="-28.2864470" lon="152.4446595">
<ele>780.317</ele>
<time>2015-12-04T22:34:04.764Z</time>
</trkpt>
<trkpt lat="-28.2866105" lon="152.4446855">
<ele>782.590</ele>
<time>2015-12-04T22:34:06.202Z</time>
</trkpt>
<trkpt lat="-28.2868649" lon="152.4445507">
<ele>784.651</ele>
<time>2015-12-04T22:34:08.752Z</time>
</trkpt>
<trkpt lat="-28.2870609" lon="152.4443871">
<ele>786.230</ele>
<time>2015-12-04T22:34:11.091Z</time>
</trkpt>
<trkpt lat="-28.2873617" lon="152.4442471">
<ele>788.051</ele>
<time>2015-12-04T22:34:14.133Z</time>
</trkpt>
<trkpt lat="-28.2877169" lon="152.4440096">
<ele>790.486</ele>
<time>2015-12-04T22:34:17.341Z</time>
</trkpt>
<trkpt lat="-28.2880524" lon="152.4437913">
<ele>793.390</ele>
<time>2015-12-04T22:34:20.225Z</time>
</trkpt>
<trkpt lat="-28.2882139" lon="152.4436762">
<ele>796.359</ele>
<time>2015-12-04T22:34:21.670Z</time>
</trkpt>
<trkpt lat="-28.2883900" lon="152.4435958">
<ele>798.716</ele>
<time>2015-12-04T22:34:23.244Z</time>
</trkpt>
<trkpt lat="-28.2884994" lon="152.4434346">
<ele>800.142</ele>
<time>2015-12-04T22:34:24.887Z</time>
</trkpt>
<trkpt lat="-28.2886233" lon="152.4431152">
<ele>801.112</ele>
<time>2015-12-04T22:34:28.020Z</time>
</trkpt>
<trkpt lat="-28.2887857" lon="152.4428279">
<ele>802.573</ele>
<time>2015-12-04T22:34:31.064Z</time>
</trkpt>
<trkpt lat="-28.2890857" lon="152.4426584">
<ele>804.947</ele>
<time>2015-12-04T22:34:34.389Z</time>
</trkpt>
<trkpt lat="-28.2893459" lon="152.4426810">
<ele>808.171</ele>
<time>2015-12-04T22:34:36.967Z</time>
</trkpt>
<trkpt lat="-28.2894620" lon="152.4427477">
<ele>811.994</ele>
<time>2015-12-04T22:34:38.378Z</time>
</trkpt>
<trkpt lat="-28.2895979" lon="152.4428244">
<ele>815.939</ele>
<time>2015-12-04T22:34:40.029Z</time>
</trkpt>
<trkpt lat="-28.2898598" lon="152.4428133">
<ele>819.373</ele>
<time>2015-12-04T22:34:43.339Z</time>
</trkpt>
<trkpt lat="-28.2900944" lon="152.4426935">
<ele>822.301</ele>
<time>2015-12-04T22:34:46.390Z</time>
</trkpt>
<trkpt lat="-28.2902338" lon="152.4426009">
<ele>825.216</ele>
<time>2015-12-04T22:34:48.268Z</time>
</trkpt>
<trkpt lat="-28.2903922" lon="152.4423592">
<ele>828.284</ele>
<time>2015-12-04T22:34:51.390Z</time>
</trkpt>
<trkpt lat="-28.2905114" lon="152.4421121">
<ele>831.375</ele>
<time>2015-12-04T22:34:54.291Z</time>
</trkpt>
<trkpt lat="-28.2906065" lon="152.4419851">
<ele>834.723</ele>
<time>2015-12-04T22:34:56.000Z</time>
</trkpt>
<trkpt lat="-28.2907047" lon="152.4418443">
<ele>838.065</ele>
<time>2015-12-04T22:34:57.846Z</time>
</trkpt>
<trkpt lat="-28.2908418" lon="152.4416783">
<ele>840.973</ele>
<time>2015-12-04T22:35:00.395Z</time>
</trkpt>
<trkpt lat="-28.2909966" lon="152.4414278">
<ele>843.777</ele>
<time>2015-12-04T22:35:03.678Z</time>
</trkpt>
<trkpt lat="-28.2912501" lon="152.4412614">
<ele>847.122</ele>
<time>2015-12-04T22:35:06.798Z</time>
</trkpt>
<trkpt lat="-28.2915519" lon="152.4412178">
<ele>851.159</ele>
<time>2015-12-04T22:35:09.989Z</time>
</trkpt>
<trkpt lat="-28.2918048" lon="152.4411491">
<ele>855.763</ele>
<time>2015-12-04T22:35:12.663Z</time>
</trkpt>
<trkpt lat="-28.2921231" lon="152.4410763">
<ele>860.685</ele>
<time>2015-12-04T22:35:15.993Z</time>
</trkpt>
<trkpt lat="-28.2923335" lon="152.4410485">
<ele>865.682</ele>
<time>2015-12-04T22:35:18.122Z</time>
</trkpt>
<trkpt lat="-28.2925196" lon="152.4410139">
<ele>870.405</ele>
<time>2015-12-04T22:35:20.000Z</time>
</trkpt>
<trkpt lat="-28.2927389" lon="152.4411771">
<ele>874.566</ele>
<time>2015-12-04T22:35:22.586Z</time>
</trkpt>
<trkpt lat="-28.2928873" lon="152.4413256">
<ele>878.030</ele>
<time>2015-12-04T22:35:24.631Z</time>
</trkpt>
<trkpt lat="-28.2928998" lon="152.4416366">
<ele>880.794</ele>
<time>2015-12-04T22:35:27.564Z</time>
</trkpt>
<trkpt lat="-28.2927422" lon="152.4417793">
<ele>883.068</ele>
<time>2015-12-04T22:35:29.733Z</time>
</trkpt>
<trkpt lat="-28.2924988" lon="152.4417283">
<ele>885.324</ele>
<time>2015-12-04T22:35:32.469Z</time>
</trkpt>
<trkpt lat="-28.2922762" lon="152.4416845">
<ele>887.961</ele>
<time>2015-12-04T22:35:35.329Z</time>
</trkpt>
<trkpt lat="-28.2919179" lon="152.4416467">
<ele>890.883</ele>
<time>2015-12-04T22:35:39.141Z</time>
</trkpt>
<trkpt lat="-28.2918056" lon="152.4416742">
<ele>893.273</ele>
<time>2015-12-04T22:35:40.258Z</time>
</trkpt>
<trkpt lat="-28.2917217" lon="152.4417944">
<ele>894.476</ele>
<time>2015-12-04T22:35:41.594Z</time>
</trkpt>
<trkpt lat="-28.2918839" lon="152.4418781">
<ele>894.976</ele>
<time>2015-12-04T22:35:44.006Z</time>
</trkpt>
<trkpt lat="-28.2920555" lon="152.4419676">
<ele>896.003</ele>
<time>2015-12-04T22:35:47.542Z</time>
</trkpt>
<trkpt lat="-28.2922161" lon="152.4420404">
<ele>898.208</ele>
<time>2015-12-04T22:35:51.672Z</time>
</trkpt>
<trkpt lat="-28.2924382" lon="152.4422011">
<ele>901.227</ele>
<time>2015-12-04T22:35:55.431Z</time>
</trkpt>
<trkpt lat="-28.2928761" lon="152.4424544">
<ele>906.439</ele>
<time>2015-12-04T22:36:01.830Z</time>
</trkpt>
<trkpt lat="-28.2932088" lon="152.4425891">
<ele>910.063</ele>
<time>2015-12-04T22:36:06.151Z</time>
</trkpt>
<trkpt lat="-28.2935052" lon="152.4427749">
<ele>915.918</ele>
<time>2015-12-04T22:36:09.559Z</time>
</trkpt>
<trkpt lat="-28.2937187" lon="152.4429158">
<ele>922.317</ele>
<time>2015-12-04T22:36:11.909Z</time>
</trkpt>
<trkpt lat="-28.2938661" lon="152.4430644">
<ele>927.716</ele>
<time>2015-12-04T22:36:13.789Z</time>
</trkpt>
<trkpt lat="-28.2939946" lon="152.4432033">
<ele>931.943</ele>
<time>2015-12-04T22:36:15.487Z</time>
</trkpt>
<trkpt lat="-28.2941680" lon="152.4433953">
<ele>935.214</ele>
<time>2015-12-04T22:36:17.788Z</time>
</trkpt>
<trkpt lat="-28.2944657" lon="152.4435680">
<ele>938.061</ele>
<time>2015-12-04T22:36:20.837Z</time>
</trkpt>
<trkpt lat="-28.2948247" lon="152.4436457">
<ele>941.115</ele>
<time>2015-12-04T22:36:24.016Z</time>
</trkpt>
<trkpt lat="-28.2952561" lon="152.4436860">
<ele>944.912</ele>
<time>2015-12-04T22:36:27.531Z</time>
</trkpt>
<trkpt lat="-28.2955646" lon="152.4434876">
<ele>949.486</ele>
<time>2015-12-04T22:36:30.495Z</time>
</trkpt>
<trkpt lat="-28.2958200" lon="152.4433148">
<ele>954.388</ele>
<time>2015-12-04T22:36:33.191Z</time>
</trkpt>
<trkpt lat="-28.2960104" lon="152.4430396">
<ele>959.276</ele>
<time>2015-12-04T22:36:36.112Z</time>
</trkpt>
<trkpt lat="-28.2961004" lon="152.4427855">
<ele>963.910</ele>
<time>2015-12-04T22:36:38.357Z</time>
</trkpt>
<trkpt lat="-28.2961787" lon="152.4423819">
<ele>967.976</ele>
<time>2015-12-04T22:36:41.719Z</time>
</trkpt>
<trkpt lat="-28.2961986" lon="152.4421558">
<ele>971.615</ele>
<time>2015-12-04T22:36:43.829Z</time>
</trkpt>
<trkpt lat="-28.2961855" lon="152.4419684">
<ele>975.188</ele>
<time>2015-12-04T22:36:45.877Z</time>
</trkpt>
<trkpt lat="-28.2962350" lon="152.4417436">
<ele>978.275</ele>
<time>2015-12-04T22:36:48.477Z</time>
</trkpt>
<trkpt lat="-28.2963781" lon="152.4416234">
<ele>980.465</ele>
<time>2015-12-04T22:36:50.604Z</time>
</trkpt>
<trkpt lat="-28.2965711" lon="152.4414251">
<ele>982.277</ele>
<time>2015-12-04T22:36:53.526Z</time>
</trkpt>
<trkpt lat="-28.2966996" lon="152.4412624">
<ele>984.499</ele>
<time>2015-12-04T22:36:55.578Z</time>
</trkpt>
<trkpt lat="-28.2968100" lon="152.4410931">
<ele>987.356</ele>
<time>2015-12-04T22:36:57.520Z</time>
</trkpt>
<trkpt lat="-28.2969543" lon="152.4408070">
<ele>990.327</ele>
<time>2015-12-04T22:37:00.574Z</time>
</trkpt>
<trkpt lat="-28.2970858" lon="152.4405453">
<ele>993.026</ele>
<time>2015-12-04T22:37:03.647Z</time>
</trkpt>
<trkpt lat="-28.2971575" lon="152.4403714">
<ele>995.653</ele>
<time>2015-12-04T22:37:05.818Z</time>
</trkpt>
<trkpt lat="-28.2972957" lon="152.4401490">
<ele>998.248</ele>
<time>2015-12-04T22:37:08.896Z</time>
</trkpt>
<trkpt lat="-28.2973556" lon="152.4399571">
<ele>1000.759</ele>
<time>2015-12-04T22:37:10.975Z</time>
</trkpt>
<trkpt lat="-28.2972028" lon="152.4395848">
<ele>1003.277</ele>
<time>2015-12-04T22:37:14.896Z</time>
</trkpt>
<trkpt lat="-28.2970754" lon="152.4392211">
<ele>1005.857</ele>
<time>2015-12-04T22:37:18.373Z</time>
</trkpt>
<trkpt lat="-28.2970410" lon="152.4390369">
<ele>1008.292</ele>
<time>2015-12-04T22:37:20.014Z</time>
</trkpt>
<trkpt lat="-28.2970569" lon="152.4386485">
<ele>1010.035</ele>
<time>2015-12-04T22:37:23.217Z</time>
</trkpt>
<trkpt lat="-28.2972111" lon="152.4382678">
<ele>1010.773</ele>
<time>2015-12-04T22:37:26.520Z</time>
</trkpt>
<trkpt lat="-28.2972947" lon="152.4380466">
<ele>1010.737</ele>
<time>2015-12-04T22:37:28.384Z</time>
</trkpt>
<trkpt lat="-28.2974777" lon="152.4377157">
<ele>1010.179</ele>
<time>2015-12-04T22:37:31.356Z</time>
</trkpt>
<trkpt lat="-28.2976592" lon="152.4373917">
<ele>1009.079</ele>
<time>2015-12-04T22:37:34.318Z</time>
</trkpt>
<trkpt lat="-28.2977124" lon="152.4371553">
<ele>1007.600</ele>
<time>2015-12-04T22:37:36.249Z</time>
</trkpt>
<trkpt lat="-28.2978347" lon="152.4368215">
<ele>1006.394</ele>
<time>2015-12-04T22:37:39.068Z</time>
</trkpt>
<trkpt lat="-28.2979248" lon="152.4365729">
<ele>1005.980</ele>
<time>2015-12-04T22:37:41.055Z</time>
</trkpt>
<trkpt lat="-28.2980521" lon="152.4363505">
<ele>1006.241</ele>
<time>2015-12-04T22:37:42.967Z</time>
</trkpt>
<trkpt lat="-28.2982445" lon="152.4359902">
<ele>1006.483</ele>
<time>2015-12-04T22:37:45.891Z</time>
</trkpt>
<trkpt lat="-28.2984030" lon="152.4357190">
<ele>1006.232</ele>
<time>2015-12-04T22:37:48.127Z</time>
</trkpt>
<trkpt lat="-28.2981508" lon="152.4352281">
<ele>1005.959</ele>
<time>2015-12-04T22:37:52.105Z</time>
</trkpt>
<trkpt lat="-28.2980451" lon="152.4348240">
<ele>1006.159</ele>
<time>2015-12-04T22:37:54.989Z</time>
</trkpt>
<trkpt lat="-28.2980534" lon="152.4344153">
<ele>1006.291</ele>
<time>2015-12-04T22:37:57.829Z</time>
</trkpt>
<trkpt lat="-28.2980405" lon="152.4340101">
<ele>1005.572</ele>
<time>2015-12-04T22:38:00.801Z</time>
</trkpt>
<trkpt lat="-28.2979668" lon="152.4337804">
<ele>1004.245</ele>
<time>2015-12-04T22:38:02.629Z</time>
</trkpt>
<trkpt lat="-28.2979931" lon="152.4333694">
<ele>1003.057</ele>
<time>2015-12-04T22:38:05.525Z</time>
</trkpt>
<trkpt lat="-28.2978729" lon="152.4330458">
<ele>1002.247</ele>
<time>2015-12-04T22:38:07.845Z</time>
</trkpt>
<trkpt lat="-28.2978142" lon="152.4325777">
<ele>1001.744</ele>
<time>2015-12-04T22:38:11.137Z</time>
</trkpt>
<trkpt lat="-28.2978324" lon="152.4323583">
<ele>1001.646</ele>
<time>2015-12-04T22:38:12.793Z</time>
</trkpt>
<trkpt lat="-28.2977822" lon="152.4321061">
<ele>1001.914</ele>
<time>2015-12-04T22:38:14.746Z</time>
</trkpt>
<trkpt lat="-28.2978166" lon="152.4318764">
<ele>1002.250</ele>
<time>2015-12-04T22:38:16.463Z</time>
</trkpt>
<trkpt lat="-28.2977276" lon="152.4314583">
<ele>1002.507</ele>
<time>2015-12-04T22:38:19.518Z</time>
</trkpt>
<trkpt lat="-28.2976648" lon="152.4311684">
<ele>1003.052</ele>
<time>2015-12-04T22:38:21.621Z</time>
</trkpt>
<trkpt lat="-28.2975279" lon="152.4307833">
<ele>1004.039</ele>
<time>2015-12-04T22:38:24.356Z</time>
</trkpt>
<trkpt lat="-28.2974846" lon="152.4304273">
<ele>1005.092</ele>
<time>2015-12-04T22:38:26.508Z</time>
</trkpt>
<trkpt lat="-28.2974413" lon="152.4299161">
<ele>1005.872</ele>
<time>2015-12-04T22:38:29.438Z</time>
</trkpt>
<trkpt lat="-28.2973775" lon="152.4293989">
<ele>1006.294</ele>
<time>2015-12-04T22:38:32.322Z</time>
</trkpt>
<trkpt lat="-28.2973980" lon="152.4290386">
<ele>1006.321</ele>
<time>2015-12-04T22:38:34.288Z</time>
</trkpt>
<trkpt lat="-28.2973958" lon="152.4286630">
<ele>1006.052</ele>
<time>2015-12-04T22:38:36.393Z</time>
</trkpt>
<trkpt lat="-28.2972978" lon="152.4281722">
<ele>1005.693</ele>
<time>2015-12-04T22:38:39.388Z</time>
</trkpt>
<trkpt lat="-28.2971361" lon="152.4277401">
<ele>1005.454</ele>
<time>2015-12-04T22:38:42.398Z</time>
</trkpt>
<trkpt lat="-28.2970877" lon="152.4274667">
<ele>1005.683</ele>
<time>2015-12-04T22:38:44.231Z</time>
</trkpt>
<trkpt lat="-28.2970854" lon="152.4271654">
<ele>1006.965</ele>
<time>2015-12-04T22:38:46.123Z</time>
</trkpt>
<trkpt lat="-28.2972331" lon="152.4267140">
<ele>1009.228</ele>
<time>2015-12-04T22:38:49.139Z</time>
</trkpt>
<trkpt lat="-28.2973221" lon="152.4264191">
<ele>1011.679</ele>
<time>2015-12-04T22:38:51.271Z</time>
</trkpt>
<trkpt lat="-28.2974215" lon="152.4261742">
<ele>1013.635</ele>
<time>2015-12-04T22:38:53.312Z</time>
</trkpt>
<trkpt lat="-28.2975863" lon="152.4258707">
<ele>1014.594</ele>
<time>2015-12-04T22:38:56.257Z</time>
</trkpt>
<trkpt lat="-28.2976393" lon="152.4256511">
<ele>1014.308</ele>
<time>2015-12-04T22:38:58.339Z</time>
</trkpt>
<trkpt lat="-28.2975880" lon="152.4253546">
<ele>1013.108</ele>
<time>2015-12-04T22:39:01.047Z</time>
</trkpt>
<trkpt lat="-28.2974841" lon="152.4250471">
<ele>1011.722</ele>
<time>2015-12-04T22:39:03.821Z</time>
</trkpt>
<trkpt lat="-28.2974719" lon="152.4247000">
<ele>1011.132</ele>
<time>2015-12-04T22:39:06.517Z</time>
</trkpt>
<trkpt lat="-28.2975052" lon="152.4242756">
<ele>1011.640</ele>
<time>2015-12-04T22:39:09.596Z</time>
</trkpt>
<trkpt lat="-28.2974452" lon="152.4238623">
<ele>1012.350</ele>
<time>2015-12-04T22:39:12.564Z</time>
</trkpt>
<trkpt lat="-28.2972931" lon="152.4236442">
<ele>1012.240</ele>
<time>2015-12-04T22:39:14.503Z</time>
</trkpt>
<trkpt lat="-28.2971094" lon="152.4234278">
<ele>1011.312</ele>
<time>2015-12-04T22:39:16.537Z</time>
</trkpt>
<trkpt lat="-28.2969877" lon="152.4231717">
<ele>1010.267</ele>
<time>2015-12-04T22:39:18.432Z</time>
</trkpt>
<trkpt lat="-28.2967992" lon="152.4227258">
<ele>1009.621</ele>
<time>2015-12-04T22:39:21.531Z</time>
</trkpt>
<trkpt lat="-28.2966694" lon="152.4224334">
<ele>1009.381</ele>
<time>2015-12-04T22:39:23.551Z</time>
</trkpt>
<trkpt lat="-28.2965595" lon="152.4221552">
<ele>1009.370</ele>
<time>2015-12-04T22:39:25.563Z</time>
</trkpt>
<trkpt lat="-28.2964743" lon="152.4219107">
<ele>1009.435</ele>
<time>2015-12-04T22:39:27.541Z</time>
</trkpt>
<trkpt lat="-28.2962797" lon="152.4216722">
<ele>1009.495</ele>
<time>2015-12-04T22:39:30.169Z</time>
</trkpt>
<trkpt lat="-28.2960620" lon="152.4215719">
<ele>1009.277</ele>
<time>2015-12-04T22:39:32.395Z</time>
</trkpt>
<trkpt lat="-28.2958490" lon="152.4214619">
<ele>1008.612</ele>
<time>2015-12-04T22:39:34.626Z</time>
</trkpt>
<trkpt lat="-28.2957345" lon="152.4212911">
<ele>1007.639</ele>
<time>2015-12-04T22:39:36.525Z</time>
</trkpt>
<trkpt lat="-28.2956812" lon="152.4209665">
<ele>1006.621</ele>
<time>2015-12-04T22:39:39.512Z</time>
</trkpt>
<trkpt lat="-28.2957029" lon="152.4207528">
<ele>1006.198</ele>
<time>2015-12-04T22:39:41.358Z</time>
</trkpt>
<trkpt lat="-28.2957686" lon="152.4203907">
<ele>1006.860</ele>
<time>2015-12-04T22:39:44.316Z</time>
</trkpt>
<trkpt lat="-28.2957610" lon="152.4201198">
<ele>1008.173</ele>
<time>2015-12-04T22:39:46.288Z</time>
</trkpt>
<trkpt lat="-28.2956323" lon="152.4196931">
<ele>1009.407</ele>
<time>2015-12-04T22:39:49.433Z</time>
</trkpt>
<trkpt lat="-28.2955737" lon="152.4194184">
<ele>1010.309</ele>
<time>2015-12-04T22:39:51.326Z</time>
</trkpt>
<trkpt lat="-28.2954659" lon="152.4191468">
<ele>1011.019</ele>
<time>2015-12-04T22:39:53.277Z</time>
</trkpt>
<trkpt lat="-28.2952057" lon="152.4187910">
<ele>1011.618</ele>
<time>2015-12-04T22:39:56.163Z</time>
</trkpt>
<trkpt lat="-28.2949435" lon="152.4185740">
<ele>1012.038</ele>
<time>2015-12-04T22:39:58.214Z</time>
</trkpt>
<trkpt lat="-28.2946676" lon="152.4183425">
<ele>1012.688</ele>
<time>2015-12-04T22:40:00.264Z</time>
</trkpt>
<trkpt lat="-28.2942517" lon="152.4180141">
<ele>1013.990</ele>
<time>2015-12-04T22:40:03.309Z</time>
</trkpt>
<trkpt lat="-28.2939827" lon="152.4178472">
<ele>1015.651</ele>
<time>2015-12-04T22:40:05.321Z</time>
</trkpt>
<trkpt lat="-28.2936293" lon="152.4176284">
<ele>1017.306</ele>
<time>2015-12-04T22:40:08.216Z</time>
</trkpt>
<trkpt lat="-28.2933559" lon="152.4174004">
<ele>1018.896</ele>
<time>2015-12-04T22:40:11.004Z</time>
</trkpt>
<trkpt lat="-28.2931622" lon="152.4171453">
<ele>1020.137</ele>
<time>2015-12-04T22:40:13.849Z</time>
</trkpt>
<trkpt lat="-28.2930659" lon="152.4168781">
<ele>1021.064</ele>
<time>2015-12-04T22:40:16.851Z</time>
</trkpt>
<trkpt lat="-28.2930620" lon="152.4167339">
<ele>1021.994</ele>
<time>2015-12-04T22:40:18.798Z</time>
</trkpt>
<trkpt lat="-28.2930302" lon="152.4165504">
<ele>1022.912</ele>
<time>2015-12-04T22:40:21.880Z</time>
</trkpt>
<trkpt lat="-28.2929847" lon="152.4164608">
<ele>1023.634</ele>
<time>2015-12-04T22:40:23.974Z</time>
</trkpt>
<trkpt lat="-28.2928889" lon="152.4163689">
<ele>1024.023</ele>
<time>2015-12-04T22:40:27.932Z</time>
</trkpt>
<trkpt lat="-28.2928629" lon="152.4162709">
<ele>1023.681</ele>
<time>2015-12-04T22:40:31.183Z</time>
</trkpt>
<trkpt lat="-28.2928710" lon="152.4161395">
<ele>1022.349</ele>
<time>2015-12-04T22:40:34.771Z</time>
</trkpt>
<trkpt lat="-28.2928673" lon="152.4160274">
<ele>1020.398</ele>
<time>2015-12-04T22:40:37.060Z</time>
</trkpt>
<trkpt lat="-28.2928574" lon="152.4158925">
<ele>1018.435</ele>
<time>2015-12-04T22:40:39.390Z</time>
</trkpt>
<trkpt lat="-28.2928209" lon="152.4157537">
<ele>1016.684</ele>
<time>2015-12-04T22:40:41.675Z</time>
</trkpt>
<trkpt lat="-28.2928290" lon="152.4155884">
<ele>1015.024</ele>
<time>2015-12-04T22:40:44.256Z</time>
</trkpt>
<trkpt lat="-28.2927938" lon="152.4154734">
<ele>1013.151</ele>
<time>2015-12-04T22:40:46.364Z</time>
</trkpt>
<trkpt lat="-28.2927515" lon="152.4153534">
<ele>1011.031</ele>
<time>2015-12-04T22:40:49.000Z</time>
</trkpt>
<trkpt lat="-28.2927515" lon="152.4153534">
<ele>1009.192</ele>
<time>2015-12-04T22:40:57.999Z</time>
</trkpt>
<trkpt lat="-28.2927515" lon="152.4153534">
<ele>1008.148</ele>
<time>2015-12-05T00:26:13.698Z</time>
</trkpt>
<trkpt lat="-28.2928128" lon="152.4154883">
<ele>1008.077</ele>
<time>2015-12-05T00:26:19.569Z</time>
</trkpt>
<trkpt lat="-28.2928479" lon="152.4156085">
<ele>1010.203</ele>
<time>2015-12-05T00:26:21.619Z</time>
</trkpt>
<trkpt lat="-28.2928497" lon="152.4158387">
<ele>1015.013</ele>
<time>2015-12-05T00:26:24.963Z</time>
</trkpt>
<trkpt lat="-28.2928586" lon="152.4159783">
<ele>1020.347</ele>
<time>2015-12-05T00:26:26.940Z</time>
</trkpt>
<trkpt lat="-28.2928742" lon="152.4161228">
<ele>1024.271</ele>
<time>2015-12-05T00:26:29.018Z</time>
</trkpt>
<trkpt lat="-28.2929156" lon="152.4163406">
<ele>1026.968</ele>
<time>2015-12-05T00:26:32.372Z</time>
</trkpt>
<trkpt lat="-28.2929629" lon="152.4164539">
<ele>1029.178</ele>
<time>2015-12-05T00:26:34.787Z</time>
</trkpt>
<trkpt lat="-28.2930453" lon="152.4165176">
<ele>1031.457</ele>
<time>2015-12-05T00:26:37.977Z</time>
</trkpt>
<trkpt lat="-28.2931597" lon="152.4164954">
<ele>1033.792</ele>
<time>2015-12-05T00:26:41.622Z</time>
</trkpt>
<trkpt lat="-28.2932251" lon="152.4163656">
<ele>1035.895</ele>
<time>2015-12-05T00:26:44.067Z</time>
</trkpt>
<trkpt lat="-28.2933159" lon="152.4160434">
<ele>1037.675</ele>
<time>2015-12-05T00:26:47.460Z</time>
</trkpt>
<trkpt lat="-28.2933959" lon="152.4157343">
<ele>1039.429</ele>
<time>2015-12-05T00:26:49.727Z</time>
</trkpt>
<trkpt lat="-28.2935001" lon="152.4152881">
<ele>1041.324</ele>
<time>2015-12-05T00:26:52.821Z</time>
</trkpt>
<trkpt lat="-28.2935715" lon="152.4150068">
<ele>1042.915</ele>
<time>2015-12-05T00:26:54.862Z</time>
</trkpt>
<trkpt lat="-28.2936604" lon="152.4146248">
<ele>1043.646</ele>
<time>2015-12-05T00:26:57.777Z</time>
</trkpt>
<trkpt lat="-28.2937085" lon="152.4142699">
<ele>1043.543</ele>
<time>2015-12-05T00:27:00.592Z</time>
</trkpt>
<trkpt lat="-28.2937223" lon="152.4138781">
<ele>1043.141</ele>
<time>2015-12-05T00:27:03.682Z</time>
</trkpt>
<trkpt lat="-28.2937961" lon="152.4134667">
<ele>1042.862</ele>
<time>2015-12-05T00:27:06.901Z</time>
</trkpt>
<trkpt lat="-28.2939430" lon="152.4131053">
<ele>1042.664</ele>
<time>2015-12-05T00:27:09.866Z</time>
</trkpt>
<trkpt lat="-28.2941483" lon="152.4127708">
<ele>1042.181</ele>
<time>2015-12-05T00:27:12.815Z</time>
</trkpt>
<trkpt lat="-28.2943266" lon="152.4125662">
<ele>1041.011</ele>
<time>2015-12-05T00:27:14.768Z</time>
</trkpt>
<trkpt lat="-28.2945184" lon="152.4123381">
<ele>1039.150</ele>
<time>2015-12-05T00:27:16.809Z</time>
</trkpt>
<trkpt lat="-28.2946859" lon="152.4120911">
<ele>1037.005</ele>
<time>2015-12-05T00:27:18.839Z</time>
</trkpt>
<trkpt lat="-28.2948917" lon="152.4117202">
<ele>1034.967</ele>
<time>2015-12-05T00:27:21.768Z</time>
</trkpt>
<trkpt lat="-28.2949823" lon="152.4114657">
<ele>1032.968</ele>
<time>2015-12-05T00:27:23.643Z</time>
</trkpt>
<trkpt lat="-28.2950826" lon="152.4111998">
<ele>1030.904</ele>
<time>2015-12-05T00:27:25.553Z</time>
</trkpt>
<trkpt lat="-28.2951734" lon="152.4108944">
<ele>1029.038</ele>
<time>2015-12-05T00:27:27.618Z</time>
</trkpt>
<trkpt lat="-28.2953076" lon="152.4104441">
<ele>1027.564</ele>
<time>2015-12-05T00:27:30.629Z</time>
</trkpt>
<trkpt lat="-28.2954235" lon="152.4100021">
<ele>1026.196</ele>
<time>2015-12-05T00:27:33.461Z</time>
</trkpt>
<trkpt lat="-28.2955382" lon="152.4095058">
<ele>1024.841</ele>
<time>2015-12-05T00:27:36.432Z</time>
</trkpt>
<trkpt lat="-28.2956460" lon="152.4090039">
<ele>1023.835</ele>
<time>2015-12-05T00:27:39.281Z</time>
</trkpt>
<trkpt lat="-28.2957662" lon="152.4084895">
<ele>1023.586</ele>
<time>2015-12-05T00:27:42.235Z</time>
</trkpt>
<trkpt lat="-28.2958193" lon="152.4081890">
<ele>1023.989</ele>
<time>2015-12-05T00:27:44.104Z</time>
</trkpt>
<trkpt lat="-28.2958718" lon="152.4077229">
<ele>1024.501</ele>
<time>2015-12-05T00:27:47.117Z</time>
</trkpt>
<trkpt lat="-28.2958472" lon="152.4073966">
<ele>1024.444</ele>
<time>2015-12-05T00:27:49.195Z</time>
</trkpt>
<trkpt lat="-28.2958373" lon="152.4070963">
<ele>1023.679</ele>
<time>2015-12-05T00:27:51.077Z</time>
</trkpt>
<trkpt lat="-28.2957962" lon="152.4066315">
<ele>1022.580</ele>
<time>2015-12-05T00:27:54.050Z</time>
</trkpt>
<trkpt lat="-28.2956767" lon="152.4063464">
<ele>1021.099</ele>
<time>2015-12-05T00:27:56.125Z</time>
</trkpt>
<trkpt lat="-28.2955849" lon="152.4058816">
<ele>1019.021</ele>
<time>2015-12-05T00:27:59.207Z</time>
</trkpt>
<trkpt lat="-28.2955820" lon="152.4055422">
<ele>1017.008</ele>
<time>2015-12-05T00:28:01.320Z</time>
</trkpt>
<trkpt lat="-28.2955525" lon="152.4052379">
<ele>1015.666</ele>
<time>2015-12-05T00:28:03.233Z</time>
</trkpt>
<trkpt lat="-28.2955745" lon="152.4047613">
<ele>1014.709</ele>
<time>2015-12-05T00:28:06.264Z</time>
</trkpt>
<trkpt lat="-28.2956392" lon="152.4044669">
<ele>1013.452</ele>
<time>2015-12-05T00:28:08.272Z</time>
</trkpt>
<trkpt lat="-28.2956719" lon="152.4041780">
<ele>1011.440</ele>
<time>2015-12-05T00:28:10.192Z</time>
</trkpt>
<trkpt lat="-28.2957475" lon="152.4036997">
<ele>1008.952</ele>
<time>2015-12-05T00:28:13.272Z</time>
</trkpt>
<trkpt lat="-28.2959104" lon="152.4032448">
<ele>1006.665</ele>
<time>2015-12-05T00:28:16.240Z</time>
</trkpt>
<trkpt lat="-28.2960444" lon="152.4029571">
<ele>1004.791</ele>
<time>2015-12-05T00:28:18.214Z</time>
</trkpt>
<trkpt lat="-28.2962082" lon="152.4025038">
<ele>1003.335</ele>
<time>2015-12-05T00:28:21.236Z</time>
</trkpt>
<trkpt lat="-28.2963358" lon="152.4021963">
<ele>1002.394</ele>
<time>2015-12-05T00:28:23.403Z</time>
</trkpt>
<trkpt lat="-28.2965776" lon="152.4019315">
<ele>1001.725</ele>
<time>2015-12-05T00:28:25.979Z</time>
</trkpt>
<trkpt lat="-28.2968660" lon="152.4016864">
<ele>1000.850</ele>
<time>2015-12-05T00:28:28.810Z</time>
</trkpt>
<trkpt lat="-28.2971404" lon="152.4014054">
<ele>999.739</ele>
<time>2015-12-05T00:28:31.676Z</time>
</trkpt>
<trkpt lat="-28.2973184" lon="152.4011394">
<ele>998.498</ele>
<time>2015-12-05T00:28:33.913Z</time>
</trkpt>
<trkpt lat="-28.2974104" lon="152.4009021">
<ele>996.942</ele>
<time>2015-12-05T00:28:35.636Z</time>
</trkpt>
<trkpt lat="-28.2974915" lon="152.4004543">
<ele>994.962</ele>
<time>2015-12-05T00:28:38.623Z</time>
</trkpt>
<trkpt lat="-28.2975571" lon="152.3999816">
<ele>992.856</ele>
<time>2015-12-05T00:28:41.616Z</time>
</trkpt>
<trkpt lat="-28.2976279" lon="152.3996728">
<ele>991.052</ele>
<time>2015-12-05T00:28:43.592Z</time>
</trkpt>
<trkpt lat="-28.2977407" lon="152.3993831">
<ele>989.737</ele>
<time>2015-12-05T00:28:45.591Z</time>
</trkpt>
<trkpt lat="-28.2978746" lon="152.3991485">
<ele>988.672</ele>
<time>2015-12-05T00:28:47.426Z</time>
</trkpt>
<trkpt lat="-28.2980390" lon="152.3989517">
<ele>987.623</ele>
<time>2015-12-05T00:28:49.282Z</time>
</trkpt>
<trkpt lat="-28.2983489" lon="152.3987184">
<ele>986.265</ele>
<time>2015-12-05T00:28:52.203Z</time>
</trkpt>
<trkpt lat="-28.2985917" lon="152.3985494">
<ele>984.479</ele>
<time>2015-12-05T00:28:54.350Z</time>
</trkpt>
<trkpt lat="-28.2989262" lon="152.3982818">
<ele>982.860</ele>
<time>2015-12-05T00:28:57.433Z</time>
</trkpt>
<trkpt lat="-28.2992466" lon="152.3980567">
<ele>981.614</ele>
<time>2015-12-05T00:29:00.372Z</time>
</trkpt>
<trkpt lat="-28.2994709" lon="152.3979116">
<ele>979.983</ele>
<time>2015-12-05T00:29:02.386Z</time>
</trkpt>
<trkpt lat="-28.2997810" lon="152.3976670">
<ele>977.783</ele>
<time>2015-12-05T00:29:05.343Z</time>
</trkpt>
<trkpt lat="-28.3000164" lon="152.3975709">
<ele>975.286</ele>
<time>2015-12-05T00:29:07.486Z</time>
</trkpt>
<trkpt lat="-28.3002199" lon="152.3975079">
<ele>972.542</ele>
<time>2015-12-05T00:29:09.742Z</time>
</trkpt>
<trkpt lat="-28.3003171" lon="152.3975086">
<ele>969.396</ele>
<time>2015-12-05T00:29:11.536Z</time>
</trkpt>
<trkpt lat="-28.3004490" lon="152.3974509">
<ele>966.190</ele>
<time>2015-12-05T00:29:14.826Z</time>
</trkpt>
<trkpt lat="-28.3006023" lon="152.3974708">
<ele>963.931</ele>
<time>2015-12-05T00:29:18.039Z</time>
</trkpt>
<trkpt lat="-28.3008116" lon="152.3975102">
<ele>963.560</ele>
<time>2015-12-05T00:29:20.572Z</time>
</trkpt>
<trkpt lat="-28.3011752" lon="152.3976151">
<ele>965.070</ele>
<time>2015-12-05T00:29:23.845Z</time>
</trkpt>
<trkpt lat="-28.3015862" lon="152.3977670">
<ele>967.851</ele>
<time>2015-12-05T00:29:27.041Z</time>
</trkpt>
<trkpt lat="-28.3018651" lon="152.3978017">
<ele>970.738</ele>
<time>2015-12-05T00:29:29.051Z</time>
</trkpt>
<trkpt lat="-28.3023100" lon="152.3978541">
<ele>972.479</ele>
<time>2015-12-05T00:29:32.194Z</time>
</trkpt>
<trkpt lat="-28.3027465" lon="152.3979066">
<ele>972.657</ele>
<time>2015-12-05T00:29:35.173Z</time>
</trkpt>
<trkpt lat="-28.3030198" lon="152.3978848">
<ele>971.998</ele>
<time>2015-12-05T00:29:37.099Z</time>
</trkpt>
<trkpt lat="-28.3033797" lon="152.3978797">
<ele>971.112</ele>
<time>2015-12-05T00:29:39.814Z</time>
</trkpt>
<trkpt lat="-28.3037472" lon="152.3977949">
<ele>969.842</ele>
<time>2015-12-05T00:29:42.845Z</time>
</trkpt>
<trkpt lat="-28.3039744" lon="152.3976770">
<ele>967.952</ele>
<time>2015-12-05T00:29:44.925Z</time>
</trkpt>
<trkpt lat="-28.3041644" lon="152.3975096">
<ele>965.853</ele>
<time>2015-12-05T00:29:46.963Z</time>
</trkpt>
<trkpt lat="-28.3043614" lon="152.3974013">
<ele>964.071</ele>
<time>2015-12-05T00:29:48.890Z</time>
</trkpt>
<trkpt lat="-28.3046015" lon="152.3973757">
<ele>962.574</ele>
<time>2015-12-05T00:29:51.069Z</time>
</trkpt>
<trkpt lat="-28.3048002" lon="152.3975100">
<ele>961.303</ele>
<time>2015-12-05T00:29:53.198Z</time>
</trkpt>
<trkpt lat="-28.3050010" lon="152.3975751">
<ele>960.538</ele>
<time>2015-12-05T00:29:55.177Z</time>
</trkpt>
<trkpt lat="-28.3051715" lon="152.3976535">
<ele>960.264</ele>
<time>2015-12-05T00:29:56.997Z</time>
</trkpt>
<trkpt lat="-28.3055236" lon="152.3977016">
<ele>959.872</ele>
<time>2015-12-05T00:30:00.349Z</time>
</trkpt>
<trkpt lat="-28.3058635" lon="152.3977360">
<ele>958.956</ele>
<time>2015-12-05T00:30:03.389Z</time>
</trkpt>
<trkpt lat="-28.3060720" lon="152.3977051">
<ele>957.649</ele>
<time>2015-12-05T00:30:05.345Z</time>
</trkpt>
<trkpt lat="-28.3063602" lon="152.3976864">
<ele>956.239</ele>
<time>2015-12-05T00:30:08.158Z</time>
</trkpt>
<trkpt lat="-28.3065555" lon="152.3977938">
<ele>954.697</ele>
<time>2015-12-05T00:30:10.301Z</time>
</trkpt>
<trkpt lat="-28.3068747" lon="152.3980065">
<ele>952.845</ele>
<time>2015-12-05T00:30:13.753Z</time>
</trkpt>
<trkpt lat="-28.3071932" lon="152.3981917">
<ele>950.997</ele>
<time>2015-12-05T00:30:16.971Z</time>
</trkpt>
<trkpt lat="-28.3073959" lon="152.3982678">
<ele>949.802</ele>
<time>2015-12-05T00:30:18.963Z</time>
</trkpt>
<trkpt lat="-28.3075644" lon="152.3984462">
<ele>949.343</ele>
<time>2015-12-05T00:30:21.197Z</time>
</trkpt>
<trkpt lat="-28.3078697" lon="152.3984795">
<ele>949.272</ele>
<time>2015-12-05T00:30:24.135Z</time>
</trkpt>
<trkpt lat="-28.3081411" lon="152.3984302">
<ele>949.304</ele>
<time>2015-12-05T00:30:26.472Z</time>
</trkpt>
<trkpt lat="-28.3083918" lon="152.3984260">
<ele>949.325</ele>
<time>2015-12-05T00:30:28.421Z</time>
</trkpt>
<trkpt lat="-28.3088232" lon="152.3983842">
<ele>949.331</ele>
<time>2015-12-05T00:30:31.500Z</time>
</trkpt>
<trkpt lat="-28.3093133" lon="152.3984309">
<ele>949.112</ele>
<time>2015-12-05T00:30:34.894Z</time>
</trkpt>
<trkpt lat="-28.3095988" lon="152.3983434">
<ele>947.965</ele>
<time>2015-12-05T00:30:37.063Z</time>
</trkpt>
<trkpt lat="-28.3098576" lon="152.3983467">
<ele>945.570</ele>
<time>2015-12-05T00:30:39.056Z</time>
</trkpt>
<trkpt lat="-28.3101027" lon="152.3982667">
<ele>942.621</ele>
<time>2015-12-05T00:30:41.079Z</time>
</trkpt>
<trkpt lat="-28.3104287" lon="152.3980855">
<ele>939.894</ele>
<time>2015-12-05T00:30:43.857Z</time>
</trkpt>
<trkpt lat="-28.3108920" lon="152.3979699">
<ele>937.528</ele>
<time>2015-12-05T00:30:47.370Z</time>
</trkpt>
<trkpt lat="-28.3111702" lon="152.3976806">
<ele>935.250</ele>
<time>2015-12-05T00:30:50.276Z</time>
</trkpt>
<trkpt lat="-28.3115344" lon="152.3976439">
<ele>932.778</ele>
<time>2015-12-05T00:30:53.208Z</time>
</trkpt>
<trkpt lat="-28.3117915" lon="152.3976161">
<ele>930.315</ele>
<time>2015-12-05T00:30:55.466Z</time>
</trkpt>
<trkpt lat="-28.3120034" lon="152.3976626">
<ele>928.008</ele>
<time>2015-12-05T00:30:57.540Z</time>
</trkpt>
<trkpt lat="-28.3121831" lon="152.3976167">
<ele>925.529</ele>
<time>2015-12-05T00:30:59.310Z</time>
</trkpt>
<trkpt lat="-28.3125205" lon="152.3976175">
<ele>922.821</ele>
<time>2015-12-05T00:31:02.143Z</time>
</trkpt>
<trkpt lat="-28.3129351" lon="152.3974410">
<ele>920.480</ele>
<time>2015-12-05T00:31:05.524Z</time>
</trkpt>
<trkpt lat="-28.3131912" lon="152.3974143">
<ele>918.870</ele>
<time>2015-12-05T00:31:07.538Z</time>
</trkpt>
<trkpt lat="-28.3134326" lon="152.3973363">
<ele>917.534</ele>
<time>2015-12-05T00:31:09.596Z</time>
</trkpt>
<trkpt lat="-28.3137914" lon="152.3972412">
<ele>915.967</ele>
<time>2015-12-05T00:31:12.672Z</time>
</trkpt>
<trkpt lat="-28.3139726" lon="152.3970107">
<ele>914.184</ele>
<time>2015-12-05T00:31:14.869Z</time>
</trkpt>
<trkpt lat="-28.3141821" lon="152.3968394">
<ele>912.264</ele>
<time>2015-12-05T00:31:16.851Z</time>
</trkpt>
<trkpt lat="-28.3144583" lon="152.3964669">
<ele>910.396</ele>
<time>2015-12-05T00:31:19.994Z</time>
</trkpt>
<trkpt lat="-28.3147520" lon="152.3961516">
<ele>908.657</ele>
<time>2015-12-05T00:31:23.013Z</time>
</trkpt>
<trkpt lat="-28.3149928" lon="152.3960678">
<ele>906.625</ele>
<time>2015-12-05T00:31:24.842Z</time>
</trkpt>
<trkpt lat="-28.3154334" lon="152.3959748">
<ele>904.392</ele>
<time>2015-12-05T00:31:27.942Z</time>
</trkpt>
<trkpt lat="-28.3157075" lon="152.3959425">
<ele>902.803</ele>
<time>2015-12-05T00:31:29.813Z</time>
</trkpt>
<trkpt lat="-28.3161488" lon="152.3958094">
<ele>902.324</ele>
<time>2015-12-05T00:31:32.948Z</time>
</trkpt>
<trkpt lat="-28.3164223" lon="152.3957267">
<ele>903.046</ele>
<time>2015-12-05T00:31:34.953Z</time>
</trkpt>
<trkpt lat="-28.3168302" lon="152.3956188">
<ele>904.595</ele>
<time>2015-12-05T00:31:37.989Z</time>
</trkpt>
<trkpt lat="-28.3171043" lon="152.3955568">
<ele>905.911</ele>
<time>2015-12-05T00:31:39.991Z</time>
</trkpt>
<trkpt lat="-28.3173912" lon="152.3955359">
<ele>906.365</ele>
<time>2015-12-05T00:31:42.035Z</time>
</trkpt>
<trkpt lat="-28.3178100" lon="152.3955110">
<ele>906.216</ele>
<time>2015-12-05T00:31:45.004Z</time>
</trkpt>
<trkpt lat="-28.3181012" lon="152.3954713">
<ele>905.642</ele>
<time>2015-12-05T00:31:47.076Z</time>
</trkpt>
<trkpt lat="-28.3185190" lon="152.3954121">
<ele>904.500</ele>
<time>2015-12-05T00:31:49.995Z</time>
</trkpt>
<trkpt lat="-28.3189424" lon="152.3952268">
<ele>902.864</ele>
<time>2015-12-05T00:31:53.104Z</time>
</trkpt>
<trkpt lat="-28.3192062" lon="152.3950460">
<ele>901.094</ele>
<time>2015-12-05T00:31:55.330Z</time>
</trkpt>
<trkpt lat="-28.3194219" lon="152.3948764">
<ele>899.550</ele>
<time>2015-12-05T00:31:57.245Z</time>
</trkpt>
<trkpt lat="-28.3198125" lon="152.3946717">
<ele>898.377</ele>
<time>2015-12-05T00:32:00.231Z</time>
</trkpt>
<trkpt lat="-28.3200917" lon="152.3945387">
<ele>897.558</ele>
<time>2015-12-05T00:32:02.299Z</time>
</trkpt>
<trkpt lat="-28.3205020" lon="152.3943636">
<ele>897.215</ele>
<time>2015-12-05T00:32:05.314Z</time>
</trkpt>
<trkpt lat="-28.3207931" lon="152.3943190">
<ele>897.388</ele>
<time>2015-12-05T00:32:07.323Z</time>
</trkpt>
<trkpt lat="-28.3210820" lon="152.3942416">
<ele>897.613</ele>
<time>2015-12-05T00:32:09.335Z</time>
</trkpt>
<trkpt lat="-28.3215209" lon="152.3941820">
<ele>897.420</ele>
<time>2015-12-05T00:32:12.260Z</time>
</trkpt>
<trkpt lat="-28.3219969" lon="152.3940837">
<ele>896.630</ele>
<time>2015-12-05T00:32:15.502Z</time>
</trkpt>
<trkpt lat="-28.3222867" lon="152.3940206">
<ele>895.099</ele>
<time>2015-12-05T00:32:17.543Z</time>
</trkpt>
<trkpt lat="-28.3227038" lon="152.3939085">
<ele>892.913</ele>
<time>2015-12-05T00:32:20.487Z</time>
</trkpt>
<trkpt lat="-28.3229831" lon="152.3939058">
<ele>890.404</ele>
<time>2015-12-05T00:32:22.326Z</time>
</trkpt>
<trkpt lat="-28.3234574" lon="152.3939717">
<ele>888.028</ele>
<time>2015-12-05T00:32:25.324Z</time>
</trkpt>
<trkpt lat="-28.3239358" lon="152.3940120">
<ele>886.306</ele>
<time>2015-12-05T00:32:28.512Z</time>
</trkpt>
<trkpt lat="-28.3242400" lon="152.3940326">
<ele>885.341</ele>
<time>2015-12-05T00:32:30.645Z</time>
</trkpt>
<trkpt lat="-28.3246530" lon="152.3939849">
<ele>884.841</ele>
<time>2015-12-05T00:32:33.556Z</time>
</trkpt>
<trkpt lat="-28.3250428" lon="152.3938358">
<ele>884.807</ele>
<time>2015-12-05T00:32:36.172Z</time>
</trkpt>
<trkpt lat="-28.3253059" lon="152.3936470">
<ele>885.213</ele>
<time>2015-12-05T00:32:38.051Z</time>
</trkpt>
<trkpt lat="-28.3255918" lon="152.3934384">
<ele>885.685</ele>
<time>2015-12-05T00:32:40.082Z</time>
</trkpt>
<trkpt lat="-28.3258587" lon="152.3932229">
<ele>886.051</ele>
<time>2015-12-05T00:32:42.037Z</time>
</trkpt>
<trkpt lat="-28.3262563" lon="152.3929204">
<ele>886.429</ele>
<time>2015-12-05T00:32:44.789Z</time>
</trkpt>
<trkpt lat="-28.3266961" lon="152.3925815">
<ele>886.256</ele>
<time>2015-12-05T00:32:47.787Z</time>
</trkpt>
<trkpt lat="-28.3269893" lon="152.3923484">
<ele>884.631</ele>
<time>2015-12-05T00:32:49.870Z</time>
</trkpt>
<trkpt lat="-28.3273836" lon="152.3920172">
<ele>882.058</ele>
<time>2015-12-05T00:32:52.901Z</time>
</trkpt>
<trkpt lat="-28.3276538" lon="152.3918111">
<ele>880.160</ele>
<time>2015-12-05T00:32:54.961Z</time>
</trkpt>
<trkpt lat="-28.3280286" lon="152.3915476">
<ele>879.602</ele>
<time>2015-12-05T00:32:57.856Z</time>
</trkpt>
<trkpt lat="-28.3282795" lon="152.3913485">
<ele>879.591</ele>
<time>2015-12-05T00:32:59.891Z</time>
</trkpt>
<trkpt lat="-28.3284892" lon="152.3911401">
<ele>879.310</ele>
<time>2015-12-05T00:33:01.743Z</time>
</trkpt>
<trkpt lat="-28.3287750" lon="152.3907346">
<ele>878.680</ele>
<time>2015-12-05T00:33:04.740Z</time>
</trkpt>
<trkpt lat="-28.3289467" lon="152.3904642">
<ele>877.952</ele>
<time>2015-12-05T00:33:06.624Z</time>
</trkpt>
<trkpt lat="-28.3292694" lon="152.3900481">
<ele>877.234</ele>
<time>2015-12-05T00:33:09.668Z</time>
</trkpt>
<trkpt lat="-28.3295254" lon="152.3898207">
<ele>876.268</ele>
<time>2015-12-05T00:33:11.652Z</time>
</trkpt>
<trkpt lat="-28.3297794" lon="152.3895602">
<ele>874.324</ele>
<time>2015-12-05T00:33:13.723Z</time>
</trkpt>
<trkpt lat="-28.3301649" lon="152.3891999">
<ele>871.266</ele>
<time>2015-12-05T00:33:16.792Z</time>
</trkpt>
<trkpt lat="-28.3303844" lon="152.3890195">
<ele>868.263</ele>
<time>2015-12-05T00:33:18.485Z</time>
</trkpt>
<trkpt lat="-28.3306444" lon="152.3887910">
<ele>866.131</ele>
<time>2015-12-05T00:33:20.514Z</time>
</trkpt>
<trkpt lat="-28.3308920" lon="152.3885620">
<ele>864.648</ele>
<time>2015-12-05T00:33:22.427Z</time>
</trkpt>
<trkpt lat="-28.3313523" lon="152.3882378">
<ele>863.691</ele>
<time>2015-12-05T00:33:25.632Z</time>
</trkpt>
<trkpt lat="-28.3318025" lon="152.3880224">
<ele>863.351</ele>
<time>2015-12-05T00:33:28.586Z</time>
</trkpt>
<trkpt lat="-28.3321106" lon="152.3879041">
<ele>863.785</ele>
<time>2015-12-05T00:33:30.623Z</time>
</trkpt>
<trkpt lat="-28.3324005" lon="152.3878006">
<ele>865.192</ele>
<time>2015-12-05T00:33:32.560Z</time>
</trkpt>
<trkpt lat="-28.3328284" lon="152.3876214">
<ele>867.208</ele>
<time>2015-12-05T00:33:35.444Z</time>
</trkpt>
<trkpt lat="-28.3332375" lon="152.3873318">
<ele>869.205</ele>
<time>2015-12-05T00:33:38.451Z</time>
</trkpt>
<trkpt lat="-28.3334607" lon="152.3870745">
<ele>870.636</ele>
<time>2015-12-05T00:33:40.423Z</time>
</trkpt>
<trkpt lat="-28.3337969" lon="152.3866910">
<ele>871.219</ele>
<time>2015-12-05T00:33:43.403Z</time>
</trkpt>
<trkpt lat="-28.3340137" lon="152.3864399">
<ele>870.819</ele>
<time>2015-12-05T00:33:45.359Z</time>
</trkpt>
<trkpt lat="-28.3342597" lon="152.3862014">
<ele>869.435</ele>
<time>2015-12-05T00:33:47.411Z</time>
</trkpt>
<trkpt lat="-28.3346506" lon="152.3859542">
<ele>867.504</ele>
<time>2015-12-05T00:33:50.225Z</time>
</trkpt>
<trkpt lat="-28.3350857" lon="152.3856660">
<ele>865.233</ele>
<time>2015-12-05T00:33:53.284Z</time>
</trkpt>
<trkpt lat="-28.3354962" lon="152.3853593">
<ele>862.034</ele>
<time>2015-12-05T00:33:56.192Z</time>
</trkpt>
<trkpt lat="-28.3359357" lon="152.3850606">
<ele>858.229</ele>
<time>2015-12-05T00:33:59.204Z</time>
</trkpt>
<trkpt lat="-28.3362047" lon="152.3848421">
<ele>855.349</ele>
<time>2015-12-05T00:34:01.117Z</time>
</trkpt>
<trkpt lat="-28.3364858" lon="152.3846164">
<ele>854.134</ele>
<time>2015-12-05T00:34:03.096Z</time>
</trkpt>
<trkpt lat="-28.3368948" lon="152.3842693">
<ele>853.842</ele>
<time>2015-12-05T00:34:06.045Z</time>
</trkpt>
<trkpt lat="-28.3371603" lon="152.3840324">
<ele>853.644</ele>
<time>2015-12-05T00:34:08.002Z</time>
</trkpt>
<trkpt lat="-28.3375869" lon="152.3836987">
<ele>853.541</ele>
<time>2015-12-05T00:34:11.003Z</time>
</trkpt>
<trkpt lat="-28.3379928" lon="152.3833392">
<ele>853.848</ele>
<time>2015-12-05T00:34:13.982Z</time>
</trkpt>
<trkpt lat="-28.3384190" lon="152.3830134">
<ele>854.648</ele>
<time>2015-12-05T00:34:16.946Z</time>
</trkpt>
<trkpt lat="-28.3388727" lon="152.3827224">
<ele>856.131</ele>
<time>2015-12-05T00:34:19.960Z</time>
</trkpt>
<trkpt lat="-28.3393264" lon="152.3824633">
<ele>858.420</ele>
<time>2015-12-05T00:34:22.942Z</time>
</trkpt>
<trkpt lat="-28.3396173" lon="152.3822938">
<ele>860.946</ele>
<time>2015-12-05T00:34:24.993Z</time>
</trkpt>
<trkpt lat="-28.3400122" lon="152.3820581">
<ele>862.765</ele>
<time>2015-12-05T00:34:27.919Z</time>
</trkpt>
<trkpt lat="-28.3402515" lon="152.3818673">
<ele>863.370</ele>
<time>2015-12-05T00:34:29.870Z</time>
</trkpt>
<trkpt lat="-28.3404772" lon="152.3816225">
<ele>862.896</ele>
<time>2015-12-05T00:34:31.801Z</time>
</trkpt>
<trkpt lat="-28.3407539" lon="152.3811346">
<ele>861.855</ele>
<time>2015-12-05T00:34:34.778Z</time>
</trkpt>
<trkpt lat="-28.3409168" lon="152.3807594">
<ele>860.831</ele>
<time>2015-12-05T00:34:36.763Z</time>
</trkpt>
<trkpt lat="-28.3411650" lon="152.3801983">
<ele>860.217</ele>
<time>2015-12-05T00:34:39.744Z</time>
</trkpt>
<trkpt lat="-28.3414011" lon="152.3796519">
<ele>860.553</ele>
<time>2015-12-05T00:34:42.686Z</time>
</trkpt>
<trkpt lat="-28.3416452" lon="152.3791201">
<ele>862.341</ele>
<time>2015-12-05T00:34:45.630Z</time>
</trkpt>
<trkpt lat="-28.3418047" lon="152.3787626">
<ele>864.969</ele>
<time>2015-12-05T00:34:47.615Z</time>
</trkpt>
<trkpt lat="-28.3419628" lon="152.3784111">
<ele>867.041</ele>
<time>2015-12-05T00:34:49.608Z</time>
</trkpt>
<trkpt lat="-28.3421905" lon="152.3778951">
<ele>867.582</ele>
<time>2015-12-05T00:34:52.588Z</time>
</trkpt>
<trkpt lat="-28.3423567" lon="152.3773780">
<ele>866.560</ele>
<time>2015-12-05T00:34:55.523Z</time>
</trkpt>
<trkpt lat="-28.3423631" lon="152.3770083">
<ele>864.420</ele>
<time>2015-12-05T00:34:57.542Z</time>
</trkpt>
<trkpt lat="-28.3423104" lon="152.3764759">
<ele>861.964</ele>
<time>2015-12-05T00:35:00.491Z</time>
</trkpt>
<trkpt lat="-28.3422501" lon="152.3759660">
<ele>860.609</ele>
<time>2015-12-05T00:35:03.379Z</time>
</trkpt>
<trkpt lat="-28.3421684" lon="152.3754681">
<ele>861.018</ele>
<time>2015-12-05T00:35:06.253Z</time>
</trkpt>
<trkpt lat="-28.3421124" lon="152.3751033">
<ele>861.912</ele>
<time>2015-12-05T00:35:08.339Z</time>
</trkpt>
<trkpt lat="-28.3420596" lon="152.3745882">
<ele>861.713</ele>
<time>2015-12-05T00:35:11.273Z</time>
</trkpt>
<trkpt lat="-28.3420024" lon="152.3740723">
<ele>860.381</ele>
<time>2015-12-05T00:35:14.231Z</time>
</trkpt>
<trkpt lat="-28.3419667" lon="152.3737231">
<ele>859.315</ele>
<time>2015-12-05T00:35:16.216Z</time>
</trkpt>
<trkpt lat="-28.3419121" lon="152.3731984">
<ele>859.774</ele>
<time>2015-12-05T00:35:19.166Z</time>
</trkpt>
<trkpt lat="-28.3418530" lon="152.3728209">
<ele>861.722</ele>
<time>2015-12-05T00:35:21.264Z</time>
</trkpt>
<trkpt lat="-28.3418249" lon="152.3722702">
<ele>864.060</ele>
<time>2015-12-05T00:35:24.295Z</time>
</trkpt>
<trkpt lat="-28.3418748" lon="152.3719184">
<ele>865.165</ele>
<time>2015-12-05T00:35:26.304Z</time>
</trkpt>
<trkpt lat="-28.3418493" lon="152.3715809">
<ele>864.188</ele>
<time>2015-12-05T00:35:28.271Z</time>
</trkpt>
<trkpt lat="-28.3417918" lon="152.3710932">
<ele>861.690</ele>
<time>2015-12-05T00:35:31.276Z</time>
</trkpt>
<trkpt lat="-28.3416474" lon="152.3706961">
<ele>858.748</ele>
<time>2015-12-05T00:35:34.112Z</time>
</trkpt>
<trkpt lat="-28.3414861" lon="152.3704941">
<ele>856.350</ele>
<time>2015-12-05T00:35:35.920Z</time>
</trkpt>
<trkpt lat="-28.3412122" lon="152.3701027">
<ele>855.186</ele>
<time>2015-12-05T00:35:39.029Z</time>
</trkpt>
<trkpt lat="-28.3409266" lon="152.3696923">
<ele>855.433</ele>
<time>2015-12-05T00:35:42.097Z</time>
</trkpt>
<trkpt lat="-28.3406923" lon="152.3693101">
<ele>856.599</ele>
<time>2015-12-05T00:35:44.836Z</time>
</trkpt>
<trkpt lat="-28.3404151" lon="152.3689065">
<ele>857.753</ele>
<time>2015-12-05T00:35:47.824Z</time>
</trkpt>
<trkpt lat="-28.3401150" lon="152.3684961">
<ele>858.455</ele>
<time>2015-12-05T00:35:50.824Z</time>
</trkpt>
<trkpt lat="-28.3399122" lon="152.3682093">
<ele>858.880</ele>
<time>2015-12-05T00:35:52.827Z</time>
</trkpt>
<trkpt lat="-28.3397102" lon="152.3679024">
<ele>858.922</ele>
<time>2015-12-05T00:35:54.894Z</time>
</trkpt>
<trkpt lat="-28.3394614" lon="152.3674422">
<ele>858.293</ele>
<time>2015-12-05T00:35:57.814Z</time>
</trkpt>
<trkpt lat="-28.3393458" lon="152.3671161">
<ele>857.203</ele>
<time>2015-12-05T00:35:59.708Z</time>
</trkpt>
<trkpt lat="-28.3392298" lon="152.3665525">
<ele>855.913</ele>
<time>2015-12-05T00:36:02.708Z</time>
</trkpt>
<trkpt lat="-28.3391774" lon="152.3659190">
<ele>854.452</ele>
<time>2015-12-05T00:36:05.815Z</time>
</trkpt>
<trkpt lat="-28.3392611" lon="152.3653489">
<ele>853.183</ele>
<time>2015-12-05T00:36:08.591Z</time>
</trkpt>
<trkpt lat="-28.3393852" lon="152.3649386">
<ele>852.121</ele>
<time>2015-12-05T00:36:10.658Z</time>
</trkpt>
<trkpt lat="-28.3395466" lon="152.3643214">
<ele>850.726</ele>
<time>2015-12-05T00:36:13.681Z</time>
</trkpt>
<trkpt lat="-28.3396242" lon="152.3639057">
<ele>848.389</ele>
<time>2015-12-05T00:36:15.657Z</time>
</trkpt>
<trkpt lat="-28.3396760" lon="152.3632740">
<ele>844.645</ele>
<time>2015-12-05T00:36:18.628Z</time>
</trkpt>
<trkpt lat="-28.3396403" lon="152.3626751">
<ele>840.322</ele>
<time>2015-12-05T00:36:21.506Z</time>
</trkpt>
<trkpt lat="-28.3395867" lon="152.3622996">
<ele>836.696</ele>
<time>2015-12-05T00:36:23.399Z</time>
</trkpt>
<trkpt lat="-28.3395068" lon="152.3617007">
<ele>833.864</ele>
<time>2015-12-05T00:36:26.474Z</time>
</trkpt>
<trkpt lat="-28.3395037" lon="152.3613305">
<ele>831.840</ele>
<time>2015-12-05T00:36:28.361Z</time>
</trkpt>
<trkpt lat="-28.3394986" lon="152.3609589">
<ele>830.807</ele>
<time>2015-12-05T00:36:30.281Z</time>
</trkpt>
<trkpt lat="-28.3395480" lon="152.3603642">
<ele>830.400</ele>
<time>2015-12-05T00:36:33.362Z</time>
</trkpt>
<trkpt lat="-28.3395714" lon="152.3599850">
<ele>830.047</ele>
<time>2015-12-05T00:36:35.304Z</time>
</trkpt>
<trkpt lat="-28.3395891" lon="152.3595977">
<ele>829.168</ele>
<time>2015-12-05T00:36:37.295Z</time>
</trkpt>
<trkpt lat="-28.3395071" lon="152.3590231">
<ele>827.499</ele>
<time>2015-12-05T00:36:40.278Z</time>
</trkpt>
<trkpt lat="-28.3394481" lon="152.3586595">
<ele>825.301</ele>
<time>2015-12-05T00:36:42.218Z</time>
</trkpt>
<trkpt lat="-28.3394289" lon="152.3581606">
<ele>822.697</ele>
<time>2015-12-05T00:36:45.137Z</time>
</trkpt>
<trkpt lat="-28.3395396" lon="152.3579213">
<ele>819.028</ele>
<time>2015-12-05T00:36:46.956Z</time>
</trkpt>
<trkpt lat="-28.3398589" lon="152.3577125">
<ele>814.468</ele>
<time>2015-12-05T00:36:49.925Z</time>
</trkpt>
<trkpt lat="-28.3401269" lon="152.3576320">
<ele>810.513</ele>
<time>2015-12-05T00:36:52.076Z</time>
</trkpt>
<trkpt lat="-28.3404173" lon="152.3575544">
<ele>807.980</ele>
<time>2015-12-05T00:36:54.200Z</time>
</trkpt>
<trkpt lat="-28.3406913" lon="152.3574772">
<ele>806.335</ele>
<time>2015-12-05T00:36:56.112Z</time>
</trkpt>
<trkpt lat="-28.3409541" lon="152.3572370">
<ele>805.022</ele>
<time>2015-12-05T00:36:58.302Z</time>
</trkpt>
<trkpt lat="-28.3413363" lon="152.3569463">
<ele>803.987</ele>
<time>2015-12-05T00:37:01.251Z</time>
</trkpt>
<trkpt lat="-28.3415429" lon="152.3567952">
<ele>802.808</ele>
<time>2015-12-05T00:37:02.988Z</time>
</trkpt>
<trkpt lat="-28.3417054" lon="152.3564983">
<ele>800.343</ele>
<time>2015-12-05T00:37:05.640Z</time>
</trkpt>
<trkpt lat="-28.3417178" lon="152.3560738">
<ele>796.501</ele>
<time>2015-12-05T00:37:08.946Z</time>
</trkpt>
<trkpt lat="-28.3411131" lon="152.3558180">
<ele>792.779</ele>
<time>2015-12-05T00:37:13.444Z</time>
</trkpt>
<trkpt lat="-28.3408647" lon="152.3556251">
<ele>790.031</ele>
<time>2015-12-05T00:37:15.300Z</time>
</trkpt>
<trkpt lat="-28.3405407" lon="152.3552492">
<ele>787.581</ele>
<time>2015-12-05T00:37:18.183Z</time>
</trkpt>
<trkpt lat="-28.3403825" lon="152.3549728">
<ele>785.102</ele>
<time>2015-12-05T00:37:20.053Z</time>
</trkpt>
<trkpt lat="-28.3403640" lon="152.3545969">
<ele>782.855</ele>
<time>2015-12-05T00:37:22.166Z</time>
</trkpt>
<trkpt lat="-28.3403704" lon="152.3542321">
<ele>780.555</ele>
<time>2015-12-05T00:37:24.169Z</time>
</trkpt>
<trkpt lat="-28.3403424" lon="152.3537433">
<ele>778.328</ele>
<time>2015-12-05T00:37:26.854Z</time>
</trkpt>
<trkpt lat="-28.3403597" lon="152.3533601">
<ele>776.367</ele>
<time>2015-12-05T00:37:29.029Z</time>
</trkpt>
<trkpt lat="-28.3404652" lon="152.3528753">
<ele>774.313</ele>
<time>2015-12-05T00:37:32.068Z</time>
</trkpt>
<trkpt lat="-28.3407489" lon="152.3526029">
<ele>771.468</ele>
<time>2015-12-05T00:37:34.871Z</time>
</trkpt>
<trkpt lat="-28.3410076" lon="152.3525241">
<ele>767.166</ele>
<time>2015-12-05T00:37:36.894Z</time>
</trkpt>
<trkpt lat="-28.3414810" lon="152.3524510">
<ele>762.335</ele>
<time>2015-12-05T00:37:40.374Z</time>
</trkpt>
<trkpt lat="-28.3417900" lon="152.3522070">
<ele>758.672</ele>
<time>2015-12-05T00:37:43.091Z</time>
</trkpt>
<trkpt lat="-28.3419618" lon="152.3518913">
<ele>756.124</ele>
<time>2015-12-05T00:37:45.316Z</time>
</trkpt>
<trkpt lat="-28.3422314" lon="152.3514317">
<ele>754.196</ele>
<time>2015-12-05T00:37:48.445Z</time>
</trkpt>
<trkpt lat="-28.3424513" lon="152.3511580">
<ele>752.700</ele>
<time>2015-12-05T00:37:50.578Z</time>
</trkpt>
<trkpt lat="-28.3425993" lon="152.3507064">
<ele>750.728</ele>
<time>2015-12-05T00:37:53.502Z</time>
</trkpt>
<trkpt lat="-28.3427419" lon="152.3504305">
<ele>747.668</ele>
<time>2015-12-05T00:37:55.555Z</time>
</trkpt>
<trkpt lat="-28.3430598" lon="152.3501693">
<ele>744.405</ele>
<time>2015-12-05T00:37:58.455Z</time>
</trkpt>
<trkpt lat="-28.3434468" lon="152.3500678">
<ele>741.608</ele>
<time>2015-12-05T00:38:01.481Z</time>
</trkpt>
<trkpt lat="-28.3437787" lon="152.3498911">
<ele>738.697</ele>
<time>2015-12-05T00:38:04.336Z</time>
</trkpt>
<trkpt lat="-28.3438752" lon="152.3494185">
<ele>735.027</ele>
<time>2015-12-05T00:38:07.498Z</time>
</trkpt>
<trkpt lat="-28.3438161" lon="152.3490995">
<ele>730.857</ele>
<time>2015-12-05T00:38:09.418Z</time>
</trkpt>
<trkpt lat="-28.3437795" lon="152.3487626">
<ele>727.212</ele>
<time>2015-12-05T00:38:11.372Z</time>
</trkpt>
<trkpt lat="-28.3439822" lon="152.3482820">
<ele>724.633</ele>
<time>2015-12-05T00:38:14.378Z</time>
</trkpt>
<trkpt lat="-28.3444109" lon="152.3480103">
<ele>722.346</ele>
<time>2015-12-05T00:38:17.384Z</time>
</trkpt>
<trkpt lat="-28.3448864" lon="152.3478359">
<ele>719.544</ele>
<time>2015-12-05T00:38:20.378Z</time>
</trkpt>
<trkpt lat="-28.3453614" lon="152.3476974">
<ele>715.913</ele>
<time>2015-12-05T00:38:23.468Z</time>
</trkpt>
<trkpt lat="-28.3457393" lon="152.3474942">
<ele>711.469</ele>
<time>2015-12-05T00:38:26.438Z</time>
</trkpt>
<trkpt lat="-28.3459851" lon="152.3471934">
<ele>706.706</ele>
<time>2015-12-05T00:38:29.355Z</time>
</trkpt>
<trkpt lat="-28.3460747" lon="152.3469799">
<ele>702.229</ele>
<time>2015-12-05T00:38:31.328Z</time>
</trkpt>
<trkpt lat="-28.3461693" lon="152.3467146">
<ele>698.568</ele>
<time>2015-12-05T00:38:34.022Z</time>
</trkpt>
<trkpt lat="-28.3461890" lon="152.3464453">
<ele>695.449</ele>
<time>2015-12-05T00:38:36.987Z</time>
</trkpt>
<trkpt lat="-28.3462108" lon="152.3462816">
<ele>692.161</ele>
<time>2015-12-05T00:38:38.976Z</time>
</trkpt>
<trkpt lat="-28.3462471" lon="152.3460406">
<ele>689.051</ele>
<time>2015-12-05T00:38:42.032Z</time>
</trkpt>
<trkpt lat="-28.3462793" lon="152.3458927">
<ele>686.768</ele>
<time>2015-12-05T00:38:44.028Z</time>
</trkpt>
<trkpt lat="-28.3462766" lon="152.3456810">
<ele>685.173</ele>
<time>2015-12-05T00:38:46.910Z</time>
</trkpt>
<trkpt lat="-28.3463260" lon="152.3455469">
<ele>684.029</ele>
<time>2015-12-05T00:38:49.050Z</time>
</trkpt>
<trkpt lat="-28.3463717" lon="152.3454381">
<ele>683.159</ele>
<time>2015-12-05T00:38:51.108Z</time>
</trkpt>
<trkpt lat="-28.3464490" lon="152.3453451">
<ele>682.202</ele>
<time>2015-12-05T00:38:53.727Z</time>
</trkpt>
<trkpt lat="-28.3465036" lon="152.3452591">
<ele>680.848</ele>
<time>2015-12-05T00:38:56.635Z</time>
</trkpt>
<trkpt lat="-28.3465196" lon="152.3451534">
<ele>679.358</ele>
<time>2015-12-05T00:39:00.827Z</time>
</trkpt>
<trkpt lat="-28.3464855" lon="152.3450576">
<ele>678.255</ele>
<time>2015-12-05T00:39:05.999Z</time>
</trkpt>
<trkpt lat="-28.3464855" lon="152.3450576">
<ele>677.663</ele>
<time>2015-12-05T00:39:08.999Z</time>
</trkpt>
<trkpt lat="-28.3464855" lon="152.3450576">
<ele>677.343</ele>
<time>2015-12-05T00:40:50.501Z</time>
</trkpt>
<trkpt lat="-28.3464164" lon="152.3452665">
<ele>677.088</ele>
<time>2015-12-05T00:42:38.999Z</time>
</trkpt>
<trkpt lat="-28.3464164" lon="152.3452665">
<ele>676.827</ele>
<time>2015-12-05T00:42:42.999Z</time>
</trkpt>
<trkpt lat="-28.3464164" lon="152.3452665">
<ele>676.520</ele>
<time>2015-12-05T00:44:48.329Z</time>
</trkpt>
<trkpt lat="-28.3462990" lon="152.3454351">
<ele>676.217</ele>
<time>2015-12-05T00:44:58.000Z</time>
</trkpt>
<trkpt lat="-28.3462990" lon="152.3454351">
<ele>675.957</ele>
<time>2015-12-05T00:45:12.000Z</time>
</trkpt>
<trkpt lat="-28.3462990" lon="152.3454351">
<ele>675.655</ele>
<time>2015-12-05T00:46:30.326Z</time>
</trkpt>
<trkpt lat="-28.3462322" lon="152.3457367">
<ele>675.351</ele>
<time>2015-12-05T00:46:36.914Z</time>
</trkpt>
<trkpt lat="-28.3462061" lon="152.3460143">
<ele>675.173</ele>
<time>2015-12-05T00:46:40.221Z</time>
</trkpt>
<trkpt lat="-28.3461893" lon="152.3461839">
<ele>675.448</ele>
<time>2015-12-05T00:46:42.428Z</time>
</trkpt>
<trkpt lat="-28.3461820" lon="152.3463919">
<ele>676.460</ele>
<time>2015-12-05T00:46:44.938Z</time>
</trkpt>
<trkpt lat="-28.3461475" lon="152.3466664">
<ele>677.810</ele>
<time>2015-12-05T00:46:47.790Z</time>
</trkpt>
<trkpt lat="-28.3460949" lon="152.3468937">
<ele>679.316</ele>
<time>2015-12-05T00:46:49.778Z</time>
</trkpt>
<trkpt lat="-28.3459502" lon="152.3472356">
<ele>681.351</ele>
<time>2015-12-05T00:46:52.756Z</time>
</trkpt>
<trkpt lat="-28.3457916" lon="152.3474466">
<ele>683.878</ele>
<time>2015-12-05T00:46:54.737Z</time>
</trkpt>
<trkpt lat="-28.3454613" lon="152.3476955">
<ele>686.582</ele>
<time>2015-12-05T00:46:57.676Z</time>
</trkpt>
<trkpt lat="-28.3450401" lon="152.3478211">
<ele>689.364</ele>
<time>2015-12-05T00:47:00.764Z</time>
</trkpt>
<trkpt lat="-28.3446328" lon="152.3479423">
<ele>692.494</ele>
<time>2015-12-05T00:47:03.831Z</time>
</trkpt>
<trkpt lat="-28.3443888" lon="152.3480206">
<ele>696.228</ele>
<time>2015-12-05T00:47:05.817Z</time>
</trkpt>
<trkpt lat="-28.3440659" lon="152.3482033">
<ele>699.954</ele>
<time>2015-12-05T00:47:08.805Z</time>
</trkpt>
<trkpt lat="-28.3438584" lon="152.3484842">
<ele>703.063</ele>
<time>2015-12-05T00:47:11.691Z</time>
</trkpt>
<trkpt lat="-28.3438058" lon="152.3487191">
<ele>705.666</ele>
<time>2015-12-05T00:47:13.630Z</time>
</trkpt>
<trkpt lat="-28.3438128" lon="152.3489690">
<ele>707.800</ele>
<time>2015-12-05T00:47:15.549Z</time>
</trkpt>
<trkpt lat="-28.3438622" lon="152.3492276">
<ele>709.646</ele>
<time>2015-12-05T00:47:17.513Z</time>
</trkpt>
<trkpt lat="-28.3438715" lon="152.3496309">
<ele>711.797</ele>
<time>2015-12-05T00:47:20.529Z</time>
</trkpt>
<trkpt lat="-28.3436831" lon="152.3499632">
<ele>714.277</ele>
<time>2015-12-05T00:47:23.519Z</time>
</trkpt>
<trkpt lat="-28.3434896" lon="152.3501400">
<ele>716.933</ele>
<time>2015-12-05T00:47:25.463Z</time>
</trkpt>
<trkpt lat="-28.3431764" lon="152.3502397">
<ele>719.904</ele>
<time>2015-12-05T00:47:27.799Z</time>
</trkpt>
<trkpt lat="-28.3429025" lon="152.3503290">
<ele>723.497</ele>
<time>2015-12-05T00:47:29.834Z</time>
</trkpt>
<trkpt lat="-28.3427069" lon="152.3505567">
<ele>727.398</ele>
<time>2015-12-05T00:47:31.796Z</time>
</trkpt>
<trkpt lat="-28.3425155" lon="152.3509827">
<ele>730.752</ele>
<time>2015-12-05T00:47:34.650Z</time>
</trkpt>
<trkpt lat="-28.3423426" lon="152.3512792">
<ele>733.417</ele>
<time>2015-12-05T00:47:36.705Z</time>
</trkpt>
<trkpt lat="-28.3420575" lon="152.3516575">
<ele>735.961</ele>
<time>2015-12-05T00:47:39.641Z</time>
</trkpt>
<trkpt lat="-28.3418518" lon="152.3520895">
<ele>738.778</ele>
<time>2015-12-05T00:47:42.695Z</time>
</trkpt>
<trkpt lat="-28.3416815" lon="152.3522902">
<ele>741.812</ele>
<time>2015-12-05T00:47:44.507Z</time>
</trkpt>
<trkpt lat="-28.3412911" lon="152.3524548">
<ele>744.258</ele>
<time>2015-12-05T00:47:47.517Z</time>
</trkpt>
<trkpt lat="-28.3410000" lon="152.3524839">
<ele>746.090</ele>
<time>2015-12-05T00:47:49.599Z</time>
</trkpt>
<trkpt lat="-28.3407543" lon="152.3525319">
<ele>748.597</ele>
<time>2015-12-05T00:47:51.516Z</time>
</trkpt>
<trkpt lat="-28.3404875" lon="152.3528042">
<ele>751.965</ele>
<time>2015-12-05T00:47:54.292Z</time>
</trkpt>
<trkpt lat="-28.3404431" lon="152.3532882">
<ele>754.837</ele>
<time>2015-12-05T00:47:57.337Z</time>
</trkpt>
<trkpt lat="-28.3404243" lon="152.3536554">
<ele>757.142</ele>
<time>2015-12-05T00:47:59.427Z</time>
</trkpt>
<trkpt lat="-28.3403914" lon="152.3542055">
<ele>760.199</ele>
<time>2015-12-05T00:48:02.587Z</time>
</trkpt>
<trkpt lat="-28.3403839" lon="152.3546839">
<ele>763.682</ele>
<time>2015-12-05T00:48:05.521Z</time>
</trkpt>
<trkpt lat="-28.3404325" lon="152.3549923">
<ele>762.880</ele>
<time>2015-12-05T00:48:07.517Z</time>
</trkpt>
<trkpt lat="-28.3405652" lon="152.3552800">
<ele>755.514</ele>
<time>2015-12-05T00:48:09.519Z</time>
</trkpt>
<trkpt lat="-28.3408893" lon="152.3555987">
<ele>747.396</ele>
<time>2015-12-05T00:48:12.417Z</time>
</trkpt>
<trkpt lat="-28.3411370" lon="152.3558011">
<ele>744.314</ele>
<time>2015-12-05T00:48:14.516Z</time>
</trkpt>
<trkpt lat="-28.3414624" lon="152.3560704">
<ele>745.379</ele>
<time>2015-12-05T00:48:17.485Z</time>
</trkpt>
<trkpt lat="-28.3416523" lon="152.3562217">
<ele>747.769</ele>
<time>2015-12-05T00:48:19.400Z</time>
</trkpt>
<trkpt lat="-28.3416929" lon="152.3566122">
<ele>749.991</ele>
<time>2015-12-05T00:48:22.309Z</time>
</trkpt>
<trkpt lat="-28.3415717" lon="152.3570156">
<ele>752.127</ele>
<time>2015-12-05T00:48:25.207Z</time>
</trkpt>
<trkpt lat="-28.3410698" lon="152.3572728">
<ele>754.224</ele>
<time>2015-12-05T00:48:28.808Z</time>
</trkpt>
<trkpt lat="-28.3407587" lon="152.3574582">
<ele>756.027</ele>
<time>2015-12-05T00:48:30.997Z</time>
</trkpt>
<trkpt lat="-28.3404651" lon="152.3575876">
<ele>757.727</ele>
<time>2015-12-05T00:48:33.113Z</time>
</trkpt>
<trkpt lat="-28.3400449" lon="152.3576473">
<ele>759.823</ele>
<time>2015-12-05T00:48:36.176Z</time>
</trkpt>
<trkpt lat="-28.3397037" lon="152.3577955">
<ele>762.270</ele>
<time>2015-12-05T00:48:39.037Z</time>
</trkpt>
<trkpt lat="-28.3395233" lon="152.3579917">
<ele>764.487</ele>
<time>2015-12-05T00:48:41.029Z</time>
</trkpt>
<trkpt lat="-28.3394528" lon="152.3582803">
<ele>766.355</ele>
<time>2015-12-05T00:48:42.998Z</time>
</trkpt>
<trkpt lat="-28.3394760" lon="152.3586212">
<ele>768.186</ele>
<time>2015-12-05T00:48:44.961Z</time>
</trkpt>
<trkpt lat="-28.3395466" lon="152.3591407">
<ele>770.493</ele>
<time>2015-12-05T00:48:47.846Z</time>
</trkpt>
<trkpt lat="-28.3395980" lon="152.3595043">
<ele>774.037</ele>
<time>2015-12-05T00:48:49.849Z</time>
</trkpt>
<trkpt lat="-28.3396012" lon="152.3600428">
<ele>778.558</ele>
<time>2015-12-05T00:48:52.846Z</time>
</trkpt>
<trkpt lat="-28.3395640" lon="152.3605553">
<ele>782.839</ele>
<time>2015-12-05T00:48:55.785Z</time>
</trkpt>
<trkpt lat="-28.3395089" lon="152.3610587">
<ele>786.303</ele>
<time>2015-12-05T00:48:58.719Z</time>
</trkpt>
<trkpt lat="-28.3395109" lon="152.3613946">
<ele>789.452</ele>
<time>2015-12-05T00:49:00.648Z</time>
</trkpt>
<trkpt lat="-28.3395267" lon="152.3617510">
<ele>792.602</ele>
<time>2015-12-05T00:49:02.658Z</time>
</trkpt>
<trkpt lat="-28.3395936" lon="152.3622815">
<ele>795.087</ele>
<time>2015-12-05T00:49:05.649Z</time>
</trkpt>
<trkpt lat="-28.3396307" lon="152.3626483">
<ele>796.579</ele>
<time>2015-12-05T00:49:07.697Z</time>
</trkpt>
<trkpt lat="-28.3396721" lon="152.3629921">
<ele>797.625</ele>
<time>2015-12-05T00:49:09.618Z</time>
</trkpt>
<trkpt lat="-28.3396514" lon="152.3635350">
<ele>798.670</ele>
<time>2015-12-05T00:49:12.619Z</time>
</trkpt>
<trkpt lat="-28.3396139" lon="152.3638836">
<ele>799.998</ele>
<time>2015-12-05T00:49:14.559Z</time>
</trkpt>
<trkpt lat="-28.3395443" lon="152.3642324">
<ele>801.601</ele>
<time>2015-12-05T00:49:16.535Z</time>
</trkpt>
<trkpt lat="-28.3394102" lon="152.3647592">
<ele>803.411</ele>
<time>2015-12-05T00:49:19.559Z</time>
</trkpt>
<trkpt lat="-28.3393164" lon="152.3651038">
<ele>805.995</ele>
<time>2015-12-05T00:49:21.552Z</time>
</trkpt>
<trkpt lat="-28.3392353" lon="152.3654466">
<ele>809.602</ele>
<time>2015-12-05T00:49:23.508Z</time>
</trkpt>
<trkpt lat="-28.3391733" lon="152.3659676">
<ele>813.313</ele>
<time>2015-12-05T00:49:26.390Z</time>
</trkpt>
<trkpt lat="-28.3391658" lon="152.3663229">
<ele>816.349</ele>
<time>2015-12-05T00:49:28.355Z</time>
</trkpt>
<trkpt lat="-28.3392199" lon="152.3668404">
<ele>818.864</ele>
<time>2015-12-05T00:49:31.295Z</time>
</trkpt>
<trkpt lat="-28.3393051" lon="152.3671500">
<ele>821.191</ele>
<time>2015-12-05T00:49:33.164Z</time>
</trkpt>
<trkpt lat="-28.3394299" lon="152.3674822">
<ele>823.438</ele>
<time>2015-12-05T00:49:35.182Z</time>
</trkpt>
<trkpt lat="-28.3396779" lon="152.3679622">
<ele>825.378</ele>
<time>2015-12-05T00:49:38.161Z</time>
</trkpt>
<trkpt lat="-28.3399034" lon="152.3682579">
<ele>827.131</ele>
<time>2015-12-05T00:49:40.195Z</time>
</trkpt>
<trkpt lat="-28.3402168" lon="152.3687213">
<ele>828.948</ele>
<time>2015-12-05T00:49:43.290Z</time>
</trkpt>
<trkpt lat="-28.3405071" lon="152.3691248">
<ele>830.334</ele>
<time>2015-12-05T00:49:46.170Z</time>
</trkpt>
<trkpt lat="-28.3406889" lon="152.3693954">
<ele>831.039</ele>
<time>2015-12-05T00:49:48.237Z</time>
</trkpt>
<trkpt lat="-28.3409318" lon="152.3697515">
<ele>831.515</ele>
<time>2015-12-05T00:49:51.244Z</time>
</trkpt>
<trkpt lat="-28.3411537" lon="152.3700858">
<ele>832.127</ele>
<time>2015-12-05T00:49:54.255Z</time>
</trkpt>
<trkpt lat="-28.3412996" lon="152.3703070">
<ele>832.909</ele>
<time>2015-12-05T00:49:56.267Z</time>
</trkpt>
<trkpt lat="-28.3414513" lon="152.3704991">
<ele>833.210</ele>
<time>2015-12-05T00:49:58.201Z</time>
</trkpt>
<trkpt lat="-28.3416275" lon="152.3708286">
<ele>832.386</ele>
<time>2015-12-05T00:50:01.205Z</time>
</trkpt>
<trkpt lat="-28.3417200" lon="152.3710345">
<ele>830.561</ele>
<time>2015-12-05T00:50:03.106Z</time>
</trkpt>
<trkpt lat="-28.3417879" lon="152.3712432">
<ele>828.384</ele>
<time>2015-12-05T00:50:04.918Z</time>
</trkpt>
<trkpt lat="-28.3418535" lon="152.3716273">
<ele>826.736</ele>
<time>2015-12-05T00:50:07.951Z</time>
</trkpt>
<trkpt lat="-28.3418703" lon="152.3720433">
<ele>825.898</ele>
<time>2015-12-05T00:50:10.946Z</time>
</trkpt>
<trkpt lat="-28.3418760" lon="152.3724758">
<ele>825.425</ele>
<time>2015-12-05T00:50:13.910Z</time>
</trkpt>
<trkpt lat="-28.3418854" lon="152.3727771">
<ele>825.340</ele>
<time>2015-12-05T00:50:15.887Z</time>
</trkpt>
<trkpt lat="-28.3419137" lon="152.3732549">
<ele>826.119</ele>
<time>2015-12-05T00:50:18.878Z</time>
</trkpt>
<trkpt lat="-28.3419735" lon="152.3737813">
<ele>827.556</ele>
<time>2015-12-05T00:50:21.947Z</time>
</trkpt>
<trkpt lat="-28.3420151" lon="152.3741487">
<ele>828.521</ele>
<time>2015-12-05T00:50:23.990Z</time>
</trkpt>
<trkpt lat="-28.3420705" lon="152.3746952">
<ele>828.276</ele>
<time>2015-12-05T00:50:26.931Z</time>
</trkpt>
<trkpt lat="-28.3421256" lon="152.3750845">
<ele>827.354</ele>
<time>2015-12-05T00:50:29.012Z</time>
</trkpt>
<trkpt lat="-28.3421698" lon="152.3756137">
<ele>826.626</ele>
<time>2015-12-05T00:50:31.888Z</time>
</trkpt>
<trkpt lat="-28.3422225" lon="152.3759500">
<ele>826.540</ele>
<time>2015-12-05T00:50:33.824Z</time>
</trkpt>
<trkpt lat="-28.3422839" lon="152.3764535">
<ele>827.040</ele>
<time>2015-12-05T00:50:36.738Z</time>
</trkpt>
<trkpt lat="-28.3423382" lon="152.3768204">
<ele>828.247</ele>
<time>2015-12-05T00:50:38.819Z</time>
</trkpt>
<trkpt lat="-28.3423418" lon="152.3773669">
<ele>830.170</ele>
<time>2015-12-05T00:50:41.803Z</time>
</trkpt>
<trkpt lat="-28.3422245" lon="152.3777252">
<ele>832.219</ele>
<time>2015-12-05T00:50:43.833Z</time>
</trkpt>
<trkpt lat="-28.3420030" lon="152.3782464">
<ele>833.807</ele>
<time>2015-12-05T00:50:46.814Z</time>
</trkpt>
<trkpt lat="-28.3418464" lon="152.3785962">
<ele>835.042</ele>
<time>2015-12-05T00:50:48.806Z</time>
</trkpt>
<trkpt lat="-28.3416952" lon="152.3789177">
<ele>836.209</ele>
<time>2015-12-05T00:50:50.706Z</time>
</trkpt>
<trkpt lat="-28.3414724" lon="152.3793945">
<ele>837.288</ele>
<time>2015-12-05T00:50:53.596Z</time>
</trkpt>
<trkpt lat="-28.3413271" lon="152.3797239">
<ele>837.927</ele>
<time>2015-12-05T00:50:55.564Z</time>
</trkpt>
<trkpt lat="-28.3410897" lon="152.3802418">
<ele>837.994</ele>
<time>2015-12-05T00:50:58.597Z</time>
</trkpt>
<trkpt lat="-28.3409434" lon="152.3805912">
<ele>837.544</ele>
<time>2015-12-05T00:51:00.581Z</time>
</trkpt>
<trkpt lat="-28.3407935" lon="152.3809194">
<ele>836.674</ele>
<time>2015-12-05T00:51:02.503Z</time>
</trkpt>
<trkpt lat="-28.3405462" lon="152.3814068">
<ele>835.351</ele>
<time>2015-12-05T00:51:05.478Z</time>
</trkpt>
<trkpt lat="-28.3402253" lon="152.3818033">
<ele>833.803</ele>
<time>2015-12-05T00:51:08.396Z</time>
</trkpt>
<trkpt lat="-28.3398154" lon="152.3820866">
<ele>833.013</ele>
<time>2015-12-05T00:51:11.364Z</time>
</trkpt>
<trkpt lat="-28.3393850" lon="152.3823665">
<ele>833.727</ele>
<time>2015-12-05T00:51:14.414Z</time>
</trkpt>
<trkpt lat="-28.3389953" lon="152.3826026">
<ele>835.294</ele>
<time>2015-12-05T00:51:17.201Z</time>
</trkpt>
<trkpt lat="-28.3385858" lon="152.3828230">
<ele>836.453</ele>
<time>2015-12-05T00:51:20.123Z</time>
</trkpt>
<trkpt lat="-28.3383084" lon="152.3830062">
<ele>836.737</ele>
<time>2015-12-05T00:51:22.142Z</time>
</trkpt>
<trkpt lat="-28.3380241" lon="152.3832054">
<ele>836.430</ele>
<time>2015-12-05T00:51:24.166Z</time>
</trkpt>
<trkpt lat="-28.3376120" lon="152.3835615">
<ele>835.900</ele>
<time>2015-12-05T00:51:27.214Z</time>
</trkpt>
<trkpt lat="-28.3373499" lon="152.3838097">
<ele>834.998</ele>
<time>2015-12-05T00:51:29.200Z</time>
</trkpt>
<trkpt lat="-28.3369354" lon="152.3841627">
<ele>833.367</ele>
<time>2015-12-05T00:51:32.183Z</time>
</trkpt>
<trkpt lat="-28.3365260" lon="152.3845203">
<ele>831.414</ele>
<time>2015-12-05T00:51:35.111Z</time>
</trkpt>
<trkpt lat="-28.3362453" lon="152.3847643">
<ele>830.061</ele>
<time>2015-12-05T00:51:37.106Z</time>
</trkpt>
<trkpt lat="-28.3358051" lon="152.3851304">
<ele>829.584</ele>
<time>2015-12-05T00:51:40.124Z</time>
</trkpt>
<trkpt lat="-28.3354975" lon="152.3853573">
<ele>830.038</ele>
<time>2015-12-05T00:51:42.124Z</time>
</trkpt>
<trkpt lat="-28.3352074" lon="152.3855659">
<ele>831.247</ele>
<time>2015-12-05T00:51:44.019Z</time>
</trkpt>
<trkpt lat="-28.3349109" lon="152.3857659">
<ele>832.422</ele>
<time>2015-12-05T00:51:45.963Z</time>
</trkpt>
<trkpt lat="-28.3346359" lon="152.3859714">
<ele>832.906</ele>
<time>2015-12-05T00:51:47.885Z</time>
</trkpt>
<trkpt lat="-28.3342369" lon="152.3862658">
<ele>833.292</ele>
<time>2015-12-05T00:51:50.815Z</time>
</trkpt>
<trkpt lat="-28.3340019" lon="152.3864608">
<ele>834.531</ele>
<time>2015-12-05T00:51:52.678Z</time>
</trkpt>
<trkpt lat="-28.3336643" lon="152.3868357">
<ele>836.632</ele>
<time>2015-12-05T00:51:55.683Z</time>
</trkpt>
<trkpt lat="-28.3334356" lon="152.3870796">
<ele>839.254</ele>
<time>2015-12-05T00:51:57.624Z</time>
</trkpt>
<trkpt lat="-28.3331872" lon="152.3873205">
<ele>842.393</ele>
<time>2015-12-05T00:51:59.624Z</time>
</trkpt>
<trkpt lat="-28.3329238" lon="152.3875091">
<ele>845.439</ele>
<time>2015-12-05T00:52:01.540Z</time>
</trkpt>
<trkpt lat="-28.3324793" lon="152.3877345">
<ele>847.421</ele>
<time>2015-12-05T00:52:04.526Z</time>
</trkpt>
<trkpt lat="-28.3320296" lon="152.3879057">
<ele>847.959</ele>
<time>2015-12-05T00:52:07.411Z</time>
</trkpt>
<trkpt lat="-28.3317218" lon="152.3880187">
<ele>846.915</ele>
<time>2015-12-05T00:52:09.375Z</time>
</trkpt>
<trkpt lat="-28.3312801" lon="152.3882575">
<ele>844.776</ele>
<time>2015-12-05T00:52:12.292Z</time>
</trkpt>
<trkpt lat="-28.3309962" lon="152.3884857">
<ele>842.739</ele>
<time>2015-12-05T00:52:14.332Z</time>
</trkpt>
<trkpt lat="-28.3306152" lon="152.3888179">
<ele>841.301</ele>
<time>2015-12-05T00:52:17.169Z</time>
</trkpt>
<trkpt lat="-28.3303660" lon="152.3890533">
<ele>840.014</ele>
<time>2015-12-05T00:52:19.130Z</time>
</trkpt>
<trkpt lat="-28.3299994" lon="152.3893857">
<ele>838.788</ele>
<time>2015-12-05T00:52:22.013Z</time>
</trkpt>
<trkpt lat="-28.3297263" lon="152.3896094">
<ele>838.146</ele>
<time>2015-12-05T00:52:24.099Z</time>
</trkpt>
<trkpt lat="-28.3294798" lon="152.3898508">
<ele>838.397</ele>
<time>2015-12-05T00:52:26.113Z</time>
</trkpt>
<trkpt lat="-28.3291468" lon="152.3901934">
<ele>839.436</ele>
<time>2015-12-05T00:52:28.894Z</time>
</trkpt>
<trkpt lat="-28.3288784" lon="152.3906089">
<ele>841.493</ele>
<time>2015-12-05T00:52:31.708Z</time>
</trkpt>
<trkpt lat="-28.3285598" lon="152.3910445">
<ele>844.769</ele>
<time>2015-12-05T00:52:34.782Z</time>
</trkpt>
<trkpt lat="-28.3281987" lon="152.3913957">
<ele>848.561</ele>
<time>2015-12-05T00:52:37.702Z</time>
</trkpt>
<trkpt lat="-28.3277444" lon="152.3917501">
<ele>852.165</ele>
<time>2015-12-05T00:52:40.975Z</time>
</trkpt>
<trkpt lat="-28.3274330" lon="152.3920011">
<ele>855.704</ele>
<time>2015-12-05T00:52:43.110Z</time>
</trkpt>
<trkpt lat="-28.3269979" lon="152.3923510">
<ele>858.902</ele>
<time>2015-12-05T00:52:46.006Z</time>
</trkpt>
<trkpt lat="-28.3265581" lon="152.3926865">
<ele>860.341</ele>
<time>2015-12-05T00:52:48.944Z</time>
</trkpt>
<trkpt lat="-28.3261402" lon="152.3930017">
<ele>859.376</ele>
<time>2015-12-05T00:52:51.840Z</time>
</trkpt>
<trkpt lat="-28.3258036" lon="152.3932796">
<ele>857.334</ele>
<time>2015-12-05T00:52:54.442Z</time>
</trkpt>
<trkpt lat="-28.3255725" lon="152.3934733">
<ele>856.110</ele>
<time>2015-12-05T00:52:56.349Z</time>
</trkpt>
<trkpt lat="-28.3252041" lon="152.3937619">
<ele>856.550</ele>
<time>2015-12-05T00:52:59.388Z</time>
</trkpt>
<trkpt lat="-28.3249556" lon="152.3939196">
<ele>858.035</ele>
<time>2015-12-05T00:53:01.295Z</time>
</trkpt>
<trkpt lat="-28.3246839" lon="152.3940216">
<ele>859.335</ele>
<time>2015-12-05T00:53:03.222Z</time>
</trkpt>
<trkpt lat="-28.3243888" lon="152.3940510">
<ele>859.908</ele>
<time>2015-12-05T00:53:05.246Z</time>
</trkpt>
<trkpt lat="-28.3239151" lon="152.3940045">
<ele>859.965</ele>
<time>2015-12-05T00:53:08.444Z</time>
</trkpt>
<trkpt lat="-28.3235949" lon="152.3939385">
<ele>859.754</ele>
<time>2015-12-05T00:53:10.548Z</time>
</trkpt>
<trkpt lat="-28.3231326" lon="152.3938539">
<ele>859.429</ele>
<time>2015-12-05T00:53:13.526Z</time>
</trkpt>
<trkpt lat="-28.3227328" lon="152.3938383">
<ele>859.162</ele>
<time>2015-12-05T00:53:16.194Z</time>
</trkpt>
<trkpt lat="-28.3224277" lon="152.3939019">
<ele>859.152</ele>
<time>2015-12-05T00:53:18.347Z</time>
</trkpt>
<trkpt lat="-28.3220193" lon="152.3939942">
<ele>859.763</ele>
<time>2015-12-05T00:53:21.271Z</time>
</trkpt>
<trkpt lat="-28.3216303" lon="152.3940846">
<ele>861.100</ele>
<time>2015-12-05T00:53:24.131Z</time>
</trkpt>
<trkpt lat="-28.3213560" lon="152.3941144">
<ele>862.873</ele>
<time>2015-12-05T00:53:26.178Z</time>
</trkpt>
<trkpt lat="-28.3210890" lon="152.3941908">
<ele>864.747</ele>
<time>2015-12-05T00:53:28.232Z</time>
</trkpt>
<trkpt lat="-28.3206555" lon="152.3943231">
<ele>866.589</ele>
<time>2015-12-05T00:53:31.439Z</time>
</trkpt>
<trkpt lat="-28.3203745" lon="152.3944025">
<ele>868.565</ele>
<time>2015-12-05T00:53:33.429Z</time>
</trkpt>
<trkpt lat="-28.3200636" lon="152.3945246">
<ele>870.841</ele>
<time>2015-12-05T00:53:35.622Z</time>
</trkpt>
<trkpt lat="-28.3196503" lon="152.3947619">
<ele>872.898</ele>
<time>2015-12-05T00:53:38.653Z</time>
</trkpt>
<trkpt lat="-28.3193894" lon="152.3949031">
<ele>873.942</ele>
<time>2015-12-05T00:53:40.550Z</time>
</trkpt>
<trkpt lat="-28.3190989" lon="152.3950435">
<ele>873.862</ele>
<time>2015-12-05T00:53:42.674Z</time>
</trkpt>
<trkpt lat="-28.3186599" lon="152.3952589">
<ele>873.453</ele>
<time>2015-12-05T00:53:45.827Z</time>
</trkpt>
<trkpt lat="-28.3183987" lon="152.3953631">
<ele>873.411</ele>
<time>2015-12-05T00:53:47.618Z</time>
</trkpt>
<trkpt lat="-28.3179638" lon="152.3954092">
<ele>873.897</ele>
<time>2015-12-05T00:53:50.511Z</time>
</trkpt>
<trkpt lat="-28.3175213" lon="152.3954397">
<ele>875.016</ele>
<time>2015-12-05T00:53:53.536Z</time>
</trkpt>
<trkpt lat="-28.3172287" lon="152.3954783">
<ele>876.707</ele>
<time>2015-12-05T00:53:55.562Z</time>
</trkpt>
<trkpt lat="-28.3169488" lon="152.3955348">
<ele>878.568</ele>
<time>2015-12-05T00:53:57.536Z</time>
</trkpt>
<trkpt lat="-28.3164719" lon="152.3956787">
<ele>880.142</ele>
<time>2015-12-05T00:54:00.876Z</time>
</trkpt>
<trkpt lat="-28.3161993" lon="152.3957665">
<ele>881.127</ele>
<time>2015-12-05T00:54:02.720Z</time>
</trkpt>
<trkpt lat="-28.3159368" lon="152.3958330">
<ele>881.504</ele>
<time>2015-12-05T00:54:04.459Z</time>
</trkpt>
<trkpt lat="-28.3154899" lon="152.3959389">
<ele>881.370</ele>
<time>2015-12-05T00:54:07.528Z</time>
</trkpt>
<trkpt lat="-28.3151843" lon="152.3960042">
<ele>880.688</ele>
<time>2015-12-05T00:54:09.606Z</time>
</trkpt>
<trkpt lat="-28.3149129" lon="152.3960714">
<ele>879.516</ele>
<time>2015-12-05T00:54:11.439Z</time>
</trkpt>
<trkpt lat="-28.3145469" lon="152.3962454">
<ele>878.278</ele>
<time>2015-12-05T00:54:14.139Z</time>
</trkpt>
<trkpt lat="-28.3142637" lon="152.3966082">
<ele>877.753</ele>
<time>2015-12-05T00:54:17.168Z</time>
</trkpt>
<trkpt lat="-28.3140067" lon="152.3969179">
<ele>878.355</ele>
<time>2015-12-05T00:54:19.964Z</time>
</trkpt>
<trkpt lat="-28.3138119" lon="152.3970747">
<ele>880.104</ele>
<time>2015-12-05T00:54:21.821Z</time>
</trkpt>
<trkpt lat="-28.3134862" lon="152.3972352">
<ele>882.739</ele>
<time>2015-12-05T00:54:24.743Z</time>
</trkpt>
<trkpt lat="-28.3132494" lon="152.3973047">
<ele>885.655</ele>
<time>2015-12-05T00:54:26.767Z</time>
</trkpt>
<trkpt lat="-28.3128861" lon="152.3973864">
<ele>888.221</ele>
<time>2015-12-05T00:54:29.752Z</time>
</trkpt>
<trkpt lat="-28.3126497" lon="152.3974631">
<ele>889.982</ele>
<time>2015-12-05T00:54:31.738Z</time>
</trkpt>
<trkpt lat="-28.3123956" lon="152.3975448">
<ele>890.860</ele>
<time>2015-12-05T00:54:33.933Z</time>
</trkpt>
<trkpt lat="-28.3120514" lon="152.3976268">
<ele>891.624</ele>
<time>2015-12-05T00:54:36.923Z</time>
</trkpt>
<trkpt lat="-28.3117810" lon="152.3975867">
<ele>893.076</ele>
<time>2015-12-05T00:54:39.298Z</time>
</trkpt>
<trkpt lat="-28.3115239" lon="152.3975699">
<ele>895.092</ele>
<time>2015-12-05T00:54:41.545Z</time>
</trkpt>
<trkpt lat="-28.3111880" lon="152.3976724">
<ele>897.127</ele>
<time>2015-12-05T00:54:44.525Z</time>
</trkpt>
<trkpt lat="-28.3108548" lon="152.3978539">
<ele>899.316</ele>
<time>2015-12-05T00:54:47.678Z</time>
</trkpt>
<trkpt lat="-28.3106075" lon="152.3980061">
<ele>902.014</ele>
<time>2015-12-05T00:54:50.026Z</time>
</trkpt>
<trkpt lat="-28.3103135" lon="152.3981818">
<ele>904.842</ele>
<time>2015-12-05T00:54:52.744Z</time>
</trkpt>
<trkpt lat="-28.3100704" lon="152.3982828">
<ele>907.225</ele>
<time>2015-12-05T00:54:54.920Z</time>
</trkpt>
<trkpt lat="-28.3097598" lon="152.3983489">
<ele>909.285</ele>
<time>2015-12-05T00:54:57.751Z</time>
</trkpt>
<trkpt lat="-28.3093346" lon="152.3983904">
<ele>911.517</ele>
<time>2015-12-05T00:55:01.550Z</time>
</trkpt>
<trkpt lat="-28.3090912" lon="152.3983766">
<ele>913.854</ele>
<time>2015-12-05T00:55:03.616Z</time>
</trkpt>
<trkpt lat="-28.3087309" lon="152.3983812">
<ele>915.912</ele>
<time>2015-12-05T00:55:06.707Z</time>
</trkpt>
<trkpt lat="-28.3084973" lon="152.3983794">
<ele>917.813</ele>
<time>2015-12-05T00:55:08.772Z</time>
</trkpt>
<trkpt lat="-28.3082440" lon="152.3983560">
<ele>919.610</ele>
<time>2015-12-05T00:55:10.998Z</time>
</trkpt>
<trkpt lat="-28.3079532" lon="152.3983882">
<ele>921.025</ele>
<time>2015-12-05T00:55:13.320Z</time>
</trkpt>
<trkpt lat="-28.3076428" lon="152.3983965">
<ele>922.124</ele>
<time>2015-12-05T00:55:15.633Z</time>
</trkpt>
<trkpt lat="-28.3073416" lon="152.3982164">
<ele>923.141</ele>
<time>2015-12-05T00:55:18.239Z</time>
</trkpt>
<trkpt lat="-28.3071209" lon="152.3981090">
<ele>924.162</ele>
<time>2015-12-05T00:55:20.215Z</time>
</trkpt>
<trkpt lat="-28.3067732" lon="152.3978117">
<ele>925.153</ele>
<time>2015-12-05T00:55:23.750Z</time>
</trkpt>
<trkpt lat="-28.3064799" lon="152.3976341">
<ele>925.917</ele>
<time>2015-12-05T00:55:26.501Z</time>
</trkpt>
<trkpt lat="-28.3062783" lon="152.3975379">
<ele>926.380</ele>
<time>2015-12-05T00:55:28.355Z</time>
</trkpt>
<trkpt lat="-28.3057834" lon="152.3975535">
<ele>926.997</ele>
<time>2015-12-05T00:55:32.214Z</time>
</trkpt>
<trkpt lat="-28.3055099" lon="152.3975957">
<ele>928.216</ele>
<time>2015-12-05T00:55:34.388Z</time>
</trkpt>
<trkpt lat="-28.3051976" lon="152.3976444">
<ele>929.696</ele>
<time>2015-12-05T00:55:37.081Z</time>
</trkpt>
<trkpt lat="-28.3048857" lon="152.3975696">
<ele>930.853</ele>
<time>2015-12-05T00:55:40.043Z</time>
</trkpt>
<trkpt lat="-28.3045760" lon="152.3973085">
<ele>932.009</ele>
<time>2015-12-05T00:55:43.545Z</time>
</trkpt>
<trkpt lat="-28.3043306" lon="152.3972800">
<ele>933.478</ele>
<time>2015-12-05T00:55:45.688Z</time>
</trkpt>
<trkpt lat="-28.3040325" lon="152.3975539">
<ele>934.885</ele>
<time>2015-12-05T00:55:48.978Z</time>
</trkpt>
<trkpt lat="-28.3038376" lon="152.3976694">
<ele>936.332</ele>
<time>2015-12-05T00:55:50.801Z</time>
</trkpt>
<trkpt lat="-28.3034979" lon="152.3978437">
<ele>938.264</ele>
<time>2015-12-05T00:55:53.812Z</time>
</trkpt>
<trkpt lat="-28.3030623" lon="152.3978080">
<ele>940.253</ele>
<time>2015-12-05T00:55:57.119Z</time>
</trkpt>
<trkpt lat="-28.3026217" lon="152.3978093">
<ele>941.742</ele>
<time>2015-12-05T00:56:00.277Z</time>
</trkpt>
<trkpt lat="-28.3023346" lon="152.3978209">
<ele>942.861</ele>
<time>2015-12-05T00:56:02.364Z</time>
</trkpt>
<trkpt lat="-28.3020770" lon="152.3978138">
<ele>943.851</ele>
<time>2015-12-05T00:56:04.330Z</time>
</trkpt>
<trkpt lat="-28.3017154" lon="152.3978066">
<ele>944.641</ele>
<time>2015-12-05T00:56:07.129Z</time>
</trkpt>
<trkpt lat="-28.3013143" lon="152.3976997">
<ele>945.114</ele>
<time>2015-12-05T00:56:10.187Z</time>
</trkpt>
<trkpt lat="-28.3010337" lon="152.3975892">
<ele>945.556</ele>
<time>2015-12-05T00:56:12.176Z</time>
</trkpt>
<trkpt lat="-28.3005552" lon="152.3974707">
<ele>946.194</ele>
<time>2015-12-05T00:56:15.343Z</time>
</trkpt>
<trkpt lat="-28.3002367" lon="152.3974649">
<ele>946.659</ele>
<time>2015-12-05T00:56:17.447Z</time>
</trkpt>
<trkpt lat="-28.2998266" lon="152.3976147">
<ele>946.626</ele>
<time>2015-12-05T00:56:20.305Z</time>
</trkpt>
<trkpt lat="-28.2994377" lon="152.3978905">
<ele>946.355</ele>
<time>2015-12-05T00:56:23.290Z</time>
</trkpt>
<trkpt lat="-28.2990579" lon="152.3981741">
<ele>946.813</ele>
<time>2015-12-05T00:56:26.274Z</time>
</trkpt>
<trkpt lat="-28.2986744" lon="152.3984436">
<ele>948.799</ele>
<time>2015-12-05T00:56:29.283Z</time>
</trkpt>
<trkpt lat="-28.2983013" lon="152.3987176">
<ele>951.602</ele>
<time>2015-12-05T00:56:32.254Z</time>
</trkpt>
<trkpt lat="-28.2980501" lon="152.3989201">
<ele>953.995</ele>
<time>2015-12-05T00:56:34.310Z</time>
</trkpt>
<trkpt lat="-28.2978605" lon="152.3991769">
<ele>955.875</ele>
<time>2015-12-05T00:56:36.278Z</time>
</trkpt>
<trkpt lat="-28.2976372" lon="152.3996148">
<ele>957.763</ele>
<time>2015-12-05T00:56:39.226Z</time>
</trkpt>
<trkpt lat="-28.2975334" lon="152.4001086">
<ele>959.941</ele>
<time>2015-12-05T00:56:42.183Z</time>
</trkpt>
<trkpt lat="-28.2975016" lon="152.4004370">
<ele>962.375</ele>
<time>2015-12-05T00:56:44.144Z</time>
</trkpt>
<trkpt lat="-28.2974621" lon="152.4007669">
<ele>964.858</ele>
<time>2015-12-05T00:56:46.166Z</time>
</trkpt>
<trkpt lat="-28.2973647" lon="152.4010565">
<ele>967.387</ele>
<time>2015-12-05T00:56:48.052Z</time>
</trkpt>
<trkpt lat="-28.2971081" lon="152.4014813">
<ele>969.798</ele>
<time>2015-12-05T00:56:51.207Z</time>
</trkpt>
<trkpt lat="-28.2969019" lon="152.4017117">
<ele>971.664</ele>
<time>2015-12-05T00:56:53.265Z</time>
</trkpt>
<trkpt lat="-28.2966010" lon="152.4020281">
<ele>972.824</ele>
<time>2015-12-05T00:56:56.231Z</time>
</trkpt>
<trkpt lat="-28.2963919" lon="152.4022091">
<ele>973.484</ele>
<time>2015-12-05T00:56:58.154Z</time>
</trkpt>
<trkpt lat="-28.2962290" lon="152.4024699">
<ele>973.852</ele>
<time>2015-12-05T00:57:00.161Z</time>
</trkpt>
<trkpt lat="-28.2960528" lon="152.4029122">
<ele>974.454</ele>
<time>2015-12-05T00:57:03.138Z</time>
</trkpt>
<trkpt lat="-28.2958767" lon="152.4033635">
<ele>975.619</ele>
<time>2015-12-05T00:57:06.179Z</time>
</trkpt>
<trkpt lat="-28.2957187" lon="152.4037849">
<ele>976.948</ele>
<time>2015-12-05T00:57:09.064Z</time>
</trkpt>
<trkpt lat="-28.2956514" lon="152.4040894">
<ele>977.841</ele>
<time>2015-12-05T00:57:11.019Z</time>
</trkpt>
<trkpt lat="-28.2955545" lon="152.4045613">
<ele>978.599</ele>
<time>2015-12-05T00:57:14.008Z</time>
</trkpt>
<trkpt lat="-28.2955340" lon="152.4048592">
<ele>980.219</ele>
<time>2015-12-05T00:57:15.860Z</time>
</trkpt>
<trkpt lat="-28.2955256" lon="152.4051970">
<ele>982.725</ele>
<time>2015-12-05T00:57:17.908Z</time>
</trkpt>
<trkpt lat="-28.2955372" lon="152.4055168">
<ele>985.080</ele>
<time>2015-12-05T00:57:19.847Z</time>
</trkpt>
<trkpt lat="-28.2955926" lon="152.4059829">
<ele>986.914</ele>
<time>2015-12-05T00:57:22.781Z</time>
</trkpt>
<trkpt lat="-28.2956845" lon="152.4064189">
<ele>988.635</ele>
<time>2015-12-05T00:57:25.693Z</time>
</trkpt>
<trkpt lat="-28.2957709" lon="152.4068939">
<ele>990.307</ele>
<time>2015-12-05T00:57:28.911Z</time>
</trkpt>
<trkpt lat="-28.2958455" lon="152.4073282">
<ele>991.822</ele>
<time>2015-12-05T00:57:31.817Z</time>
</trkpt>
<trkpt lat="-28.2958678" lon="152.4077963">
<ele>993.271</ele>
<time>2015-12-05T00:57:34.831Z</time>
</trkpt>
<trkpt lat="-28.2958142" lon="152.4082247">
<ele>995.023</ele>
<time>2015-12-05T00:57:37.613Z</time>
</trkpt>
<trkpt lat="-28.2957413" lon="152.4085161">
<ele>997.150</ele>
<time>2015-12-05T00:57:39.638Z</time>
</trkpt>
<trkpt lat="-28.2956752" lon="152.4087807">
<ele>999.013</ele>
<time>2015-12-05T00:57:41.507Z</time>
</trkpt>
<trkpt lat="-28.2956119" lon="152.4090734">
<ele>999.908</ele>
<time>2015-12-05T00:57:43.494Z</time>
</trkpt>
<trkpt lat="-28.2955123" lon="152.4095343">
<ele>999.885</ele>
<time>2015-12-05T00:57:46.641Z</time>
</trkpt>
<trkpt lat="-28.2954134" lon="152.4099292">
<ele>999.251</ele>
<time>2015-12-05T00:57:49.496Z</time>
</trkpt>
<trkpt lat="-28.2953156" lon="152.4103157">
<ele>998.220</ele>
<time>2015-12-05T00:57:52.390Z</time>
</trkpt>
<trkpt lat="-28.2952438" lon="152.4105715">
<ele>997.153</ele>
<time>2015-12-05T00:57:54.328Z</time>
</trkpt>
<trkpt lat="-28.2951181" lon="152.4109634">
<ele>996.691</ele>
<time>2015-12-05T00:57:57.316Z</time>
</trkpt>
<trkpt lat="-28.2949878" lon="152.4113674">
<ele>997.305</ele>
<time>2015-12-05T00:58:00.356Z</time>
</trkpt>
<trkpt lat="-28.2948851" lon="152.4116146">
<ele>998.931</ele>
<time>2015-12-05T00:58:02.229Z</time>
</trkpt>
<trkpt lat="-28.2946939" lon="152.4120001">
<ele>1001.146</ele>
<time>2015-12-05T00:58:05.190Z</time>
</trkpt>
<trkpt lat="-28.2945267" lon="152.4122424">
<ele>1003.519</ele>
<time>2015-12-05T00:58:07.197Z</time>
</trkpt>
<trkpt lat="-28.2943308" lon="152.4124703">
<ele>1005.800</ele>
<time>2015-12-05T00:58:09.267Z</time>
</trkpt>
<trkpt lat="-28.2940435" lon="152.4127913">
<ele>1007.819</ele>
<time>2015-12-05T00:58:12.254Z</time>
</trkpt>
<trkpt lat="-28.2938746" lon="152.4130260">
<ele>1009.751</ele>
<time>2015-12-05T00:58:14.251Z</time>
</trkpt>
<trkpt lat="-28.2937535" lon="152.4132950">
<ele>1011.998</ele>
<time>2015-12-05T00:58:16.280Z</time>
</trkpt>
<trkpt lat="-28.2936458" lon="152.4136878">
<ele>1014.556</ele>
<time>2015-12-05T00:58:19.073Z</time>
</trkpt>
<trkpt lat="-28.2936320" lon="152.4140016">
<ele>1016.971</ele>
<time>2015-12-05T00:58:21.199Z</time>
</trkpt>
<trkpt lat="-28.2936151" lon="152.4142828">
<ele>1019.000</ele>
<time>2015-12-05T00:58:23.128Z</time>
</trkpt>
<trkpt lat="-28.2935792" lon="152.4146986">
<ele>1020.538</ele>
<time>2015-12-05T00:58:26.071Z</time>
</trkpt>
<trkpt lat="-28.2935107" lon="152.4150855">
<ele>1021.125</ele>
<time>2015-12-05T00:58:28.970Z</time>
</trkpt>
<trkpt lat="-28.2934644" lon="152.4153370">
<ele>1020.273</ele>
<time>2015-12-05T00:58:30.894Z</time>
</trkpt>
<trkpt lat="-28.2933467" lon="152.4157387">
<ele>1018.562</ele>
<time>2015-12-05T00:58:33.939Z</time>
</trkpt>
<trkpt lat="-28.2932481" lon="152.4161558">
<ele>1017.409</ele>
<time>2015-12-05T00:58:36.972Z</time>
</trkpt>
<trkpt lat="-28.2931769" lon="152.4164101">
<ele>1017.590</ele>
<time>2015-12-05T00:58:38.909Z</time>
</trkpt>
<trkpt lat="-28.2931309" lon="152.4166510">
<ele>1018.548</ele>
<time>2015-12-05T00:58:40.799Z</time>
</trkpt>
<trkpt lat="-28.2931072" lon="152.4168759">
<ele>1019.261</ele>
<time>2015-12-05T00:58:42.648Z</time>
</trkpt>
<trkpt lat="-28.2931819" lon="152.4171862">
<ele>1019.280</ele>
<time>2015-12-05T00:58:45.408Z</time>
</trkpt>
<trkpt lat="-28.2933673" lon="152.4174271">
<ele>1018.393</ele>
<time>2015-12-05T00:58:48.167Z</time>
</trkpt>
<trkpt lat="-28.2936959" lon="152.4176674">
<ele>1016.554</ele>
<time>2015-12-05T00:58:51.437Z</time>
</trkpt>
<trkpt lat="-28.2939521" lon="152.4178271">
<ele>1014.462</ele>
<time>2015-12-05T00:58:53.591Z</time>
</trkpt>
<trkpt lat="-28.2943051" lon="152.4180888">
<ele>1012.890</ele>
<time>2015-12-05T00:58:56.665Z</time>
</trkpt>
<trkpt lat="-28.2946033" lon="152.4183275">
<ele>1011.730</ele>
<time>2015-12-05T00:58:59.556Z</time>
</trkpt>
<trkpt lat="-28.2947788" lon="152.4184715">
<ele>1010.494</ele>
<time>2015-12-05T00:59:01.483Z</time>
</trkpt>
<trkpt lat="-28.2949332" lon="152.4186128">
<ele>1008.722</ele>
<time>2015-12-05T00:59:03.385Z</time>
</trkpt>
<trkpt lat="-28.2951829" lon="152.4188032">
<ele>1006.609</ele>
<time>2015-12-05T00:59:06.319Z</time>
</trkpt>
<trkpt lat="-28.2953528" lon="152.4189639">
<ele>1005.032</ele>
<time>2015-12-05T00:59:08.290Z</time>
</trkpt>
<trkpt lat="-28.2955536" lon="152.4193193">
<ele>1004.559</ele>
<time>2015-12-05T00:59:11.257Z</time>
</trkpt>
<trkpt lat="-28.2956459" lon="152.4196235">
<ele>1004.899</ele>
<time>2015-12-05T00:59:13.346Z</time>
</trkpt>
<trkpt lat="-28.2957301" lon="152.4199033">
<ele>1005.425</ele>
<time>2015-12-05T00:59:15.251Z</time>
</trkpt>
<trkpt lat="-28.2958021" lon="152.4201741">
<ele>1005.324</ele>
<time>2015-12-05T00:59:17.132Z</time>
</trkpt>
<trkpt lat="-28.2957751" lon="152.4205878">
<ele>1004.220</ele>
<time>2015-12-05T00:59:20.064Z</time>
</trkpt>
<trkpt lat="-28.2957082" lon="152.4208144">
<ele>1002.598</ele>
<time>2015-12-05T00:59:21.894Z</time>
</trkpt>
<trkpt lat="-28.2956834" lon="152.4211501">
<ele>1001.100</ele>
<time>2015-12-05T00:59:24.702Z</time>
</trkpt>
<trkpt lat="-28.2958525" lon="152.4214452">
<ele>1000.002</ele>
<time>2015-12-05T00:59:27.699Z</time>
</trkpt>
<trkpt lat="-28.2960736" lon="152.4215692">
<ele>999.966</ele>
<time>2015-12-05T00:59:29.908Z</time>
</trkpt>
<trkpt lat="-28.2963932" lon="152.4217512">
<ele>1001.574</ele>
<time>2015-12-05T00:59:32.955Z</time>
</trkpt>
<trkpt lat="-28.2965580" lon="152.4220809">
<ele>1004.089</ele>
<time>2015-12-05T00:59:35.778Z</time>
</trkpt>
<trkpt lat="-28.2966681" lon="152.4223655">
<ele>1006.048</ele>
<time>2015-12-05T00:59:37.935Z</time>
</trkpt>
<trkpt lat="-28.2968519" lon="152.4227782">
<ele>1007.040</ele>
<time>2015-12-05T00:59:40.886Z</time>
</trkpt>
<trkpt lat="-28.2970017" lon="152.4231745">
<ele>1007.524</ele>
<time>2015-12-05T00:59:43.696Z</time>
</trkpt>
<trkpt lat="-28.2971150" lon="152.4233957">
<ele>1007.647</ele>
<time>2015-12-05T00:59:45.489Z</time>
</trkpt>
<trkpt lat="-28.2973581" lon="152.4236749">
<ele>1007.310</ele>
<time>2015-12-05T00:59:48.439Z</time>
</trkpt>
<trkpt lat="-28.2975153" lon="152.4239610">
<ele>1006.766</ele>
<time>2015-12-05T00:59:51.241Z</time>
</trkpt>
<trkpt lat="-28.2975178" lon="152.4243142">
<ele>1006.376</ele>
<time>2015-12-05T00:59:54.361Z</time>
</trkpt>
<trkpt lat="-28.2974735" lon="152.4246890">
<ele>1006.671</ele>
<time>2015-12-05T00:59:57.578Z</time>
</trkpt>
<trkpt lat="-28.2974962" lon="152.4250146">
<ele>1008.026</ele>
<time>2015-12-05T01:00:00.372Z</time>
</trkpt>
<trkpt lat="-28.2976284" lon="152.4252783">
<ele>1009.896</ele>
<time>2015-12-05T01:00:03.128Z</time>
</trkpt>
<trkpt lat="-28.2977491" lon="152.4255815">
<ele>1011.319</ele>
<time>2015-12-05T01:00:06.275Z</time>
</trkpt>
<trkpt lat="-28.2977416" lon="152.4257942">
<ele>1011.645</ele>
<time>2015-12-05T01:00:08.282Z</time>
</trkpt>
<trkpt lat="-28.2976180" lon="152.4260498">
<ele>1010.910</ele>
<time>2015-12-05T01:00:11.065Z</time>
</trkpt>
<trkpt lat="-28.2974472" lon="152.4262104">
<ele>1010.142</ele>
<time>2015-12-05T01:00:13.657Z</time>
</trkpt>
<trkpt lat="-28.2973315" lon="152.4264008">
<ele>1010.226</ele>
<time>2015-12-05T01:00:16.141Z</time>
</trkpt>
<trkpt lat="-28.2972413" lon="152.4265881">
<ele>1010.884</ele>
<time>2015-12-05T01:00:18.363Z</time>
</trkpt>
<trkpt lat="-28.2971330" lon="152.4268498">
<ele>1011.359</ele>
<time>2015-12-05T01:00:21.242Z</time>
</trkpt>
<trkpt lat="-28.2970599" lon="152.4272162">
<ele>1011.348</ele>
<time>2015-12-05T01:00:24.682Z</time>
</trkpt>
<trkpt lat="-28.2970847" lon="152.4275804">
<ele>1011.083</ele>
<time>2015-12-05T01:00:27.782Z</time>
</trkpt>
<trkpt lat="-28.2971396" lon="152.4277986">
<ele>1010.748</ele>
<time>2015-12-05T01:00:29.678Z</time>
</trkpt>
<trkpt lat="-28.2972759" lon="152.4281178">
<ele>1009.971</ele>
<time>2015-12-05T01:00:32.589Z</time>
</trkpt>
<trkpt lat="-28.2973345" lon="152.4284879">
<ele>1008.354</ele>
<time>2015-12-05T01:00:35.625Z</time>
</trkpt>
<trkpt lat="-28.2973531" lon="152.4287507">
<ele>1006.348</ele>
<time>2015-12-05T01:00:37.691Z</time>
</trkpt>
<trkpt lat="-28.2973609" lon="152.4290202">
<ele>1004.627</ele>
<time>2015-12-05T01:00:39.743Z</time>
</trkpt>
<trkpt lat="-28.2973788" lon="152.4294302">
<ele>1003.260</ele>
<time>2015-12-05T01:00:42.784Z</time>
</trkpt>
<trkpt lat="-28.2973609" lon="152.4296931">
<ele>1002.159</ele>
<time>2015-12-05T01:00:44.695Z</time>
</trkpt>
<trkpt lat="-28.2974144" lon="152.4301101">
<ele>1001.400</ele>
<time>2015-12-05T01:00:47.691Z</time>
</trkpt>
<trkpt lat="-28.2974535" lon="152.4304035">
<ele>1001.264</ele>
<time>2015-12-05T01:00:49.752Z</time>
</trkpt>
<trkpt lat="-28.2975260" lon="152.4308355">
<ele>1001.900</ele>
<time>2015-12-05T01:00:52.812Z</time>
</trkpt>
<trkpt lat="-28.2975752" lon="152.4310726">
<ele>1002.930</ele>
<time>2015-12-05T01:00:54.595Z</time>
</trkpt>
<trkpt lat="-28.2976984" lon="152.4314507">
<ele>1003.891</ele>
<time>2015-12-05T01:00:57.708Z</time>
</trkpt>
<trkpt lat="-28.2977822" lon="152.4318060">
<ele>1004.560</ele>
<time>2015-12-05T01:01:00.567Z</time>
</trkpt>
<trkpt lat="-28.2977829" lon="152.4322223">
<ele>1004.634</ele>
<time>2015-12-05T01:01:03.779Z</time>
</trkpt>
<trkpt lat="-28.2977988" lon="152.4324942">
<ele>1003.905</ele>
<time>2015-12-05T01:01:05.854Z</time>
</trkpt>
<trkpt lat="-28.2978019" lon="152.4328685">
<ele>1002.787</ele>
<time>2015-12-05T01:01:08.678Z</time>
</trkpt>
<trkpt lat="-28.2978382" lon="152.4331080">
<ele>1002.102</ele>
<time>2015-12-05T01:01:10.582Z</time>
</trkpt>
<trkpt lat="-28.2979888" lon="152.4334874">
<ele>1002.134</ele>
<time>2015-12-05T01:01:13.878Z</time>
</trkpt>
<trkpt lat="-28.2980570" lon="152.4338596">
<ele>1002.252</ele>
<time>2015-12-05T01:01:16.822Z</time>
</trkpt>
<trkpt lat="-28.2980737" lon="152.4341547">
<ele>1001.915</ele>
<time>2015-12-05T01:01:19.069Z</time>
</trkpt>
<trkpt lat="-28.2981112" lon="152.4345489">
<ele>1001.596</ele>
<time>2015-12-05T01:01:21.989Z</time>
</trkpt>
<trkpt lat="-28.2980944" lon="152.4348344">
<ele>1001.820</ele>
<time>2015-12-05T01:01:24.095Z</time>
</trkpt>
<trkpt lat="-28.2981326" lon="152.4351012">
<ele>1002.479</ele>
<time>2015-12-05T01:01:26.071Z</time>
</trkpt>
<trkpt lat="-28.2982011" lon="152.4354519">
<ele>1003.259</ele>
<time>2015-12-05T01:01:28.770Z</time>
</trkpt>
<trkpt lat="-28.2982180" lon="152.4358094">
<ele>1004.028</ele>
<time>2015-12-05T01:01:31.632Z</time>
</trkpt>
<trkpt lat="-28.2981994" lon="152.4360777">
<ele>1004.583</ele>
<time>2015-12-05T01:01:33.775Z</time>
</trkpt>
<trkpt lat="-28.2979610" lon="152.4365891">
<ele>1004.345</ele>
<time>2015-12-05T01:01:38.612Z</time>
</trkpt>
<trkpt lat="-28.2978070" lon="152.4368063">
<ele>1003.864</ele>
<time>2015-12-05T01:01:41.201Z</time>
</trkpt>
<trkpt lat="-28.2976960" lon="152.4369985">
<ele>1003.644</ele>
<time>2015-12-05T01:01:43.530Z</time>
</trkpt>
<trkpt lat="-28.2976462" lon="152.4371745">
<ele>1003.892</ele>
<time>2015-12-05T01:01:45.502Z</time>
</trkpt>
<trkpt lat="-28.2975575" lon="152.4374925">
<ele>1004.290</ele>
<time>2015-12-05T01:01:48.945Z</time>
</trkpt>
<trkpt lat="-28.2974938" lon="152.4377107">
<ele>1004.496</ele>
<time>2015-12-05T01:01:51.053Z</time>
</trkpt>
<trkpt lat="-28.2974209" lon="152.4379393">
<ele>1004.457</ele>
<time>2015-12-05T01:01:53.093Z</time>
</trkpt>
<trkpt lat="-28.2973377" lon="152.4381477">
<ele>1004.268</ele>
<time>2015-12-05T01:01:54.976Z</time>
</trkpt>
<trkpt lat="-28.2972237" lon="152.4384247">
<ele>1004.228</ele>
<time>2015-12-05T01:01:57.605Z</time>
</trkpt>
<trkpt lat="-28.2971505" lon="152.4386164">
<ele>1004.790</ele>
<time>2015-12-05T01:01:59.486Z</time>
</trkpt>
<trkpt lat="-28.2970580" lon="152.4387858">
<ele>1005.945</ele>
<time>2015-12-05T01:02:01.394Z</time>
</trkpt>
<trkpt lat="-28.2970060" lon="152.4390831">
<ele>1007.053</ele>
<time>2015-12-05T01:02:04.387Z</time>
</trkpt>
<trkpt lat="-28.2970245" lon="152.4392665">
<ele>1007.818</ele>
<time>2015-12-05T01:02:06.240Z</time>
</trkpt>
<trkpt lat="-28.2971220" lon="152.4395177">
<ele>1008.437</ele>
<time>2015-12-05T01:02:09.134Z</time>
</trkpt>
<trkpt lat="-28.2972065" lon="152.4397574">
<ele>1008.881</ele>
<time>2015-12-05T01:02:12.021Z</time>
</trkpt>
<trkpt lat="-28.2971746" lon="152.4399605">
<ele>1008.790</ele>
<time>2015-12-05T01:02:14.470Z</time>
</trkpt>
<trkpt lat="-28.2970778" lon="152.4402494">
<ele>1007.768</ele>
<time>2015-12-05T01:02:18.062Z</time>
</trkpt>
<trkpt lat="-28.2968774" lon="152.4404382">
<ele>1005.812</ele>
<time>2015-12-05T01:02:21.365Z</time>
</trkpt>
<trkpt lat="-28.2967688" lon="152.4405270">
<ele>1003.403</ele>
<time>2015-12-05T01:02:23.144Z</time>
</trkpt>
<trkpt lat="-28.2966094" lon="152.4407003">
<ele>1001.093</ele>
<time>2015-12-05T01:02:26.212Z</time>
</trkpt>
<trkpt lat="-28.2966635" lon="152.4409166">
<ele>999.126</ele>
<time>2015-12-05T01:02:29.024Z</time>
</trkpt>
<trkpt lat="-28.2966018" lon="152.4410879">
<ele>997.266</ele>
<time>2015-12-05T01:02:31.269Z</time>
</trkpt>
<trkpt lat="-28.2964814" lon="152.4411926">
<ele>995.193</ele>
<time>2015-12-05T01:02:33.252Z</time>
</trkpt>
<trkpt lat="-28.2963062" lon="152.4413781">
<ele>993.094</ele>
<time>2015-12-05T01:02:36.332Z</time>
</trkpt>
<trkpt lat="-28.2961219" lon="152.4415456">
<ele>991.081</ele>
<time>2015-12-05T01:02:39.342Z</time>
</trkpt>
<trkpt lat="-28.2960867" lon="152.4417062">
<ele>988.715</ele>
<time>2015-12-05T01:02:41.351Z</time>
</trkpt>
<trkpt lat="-28.2960176" lon="152.4417944">
<ele>985.852</ele>
<time>2015-12-05T01:02:43.000Z</time>
</trkpt>
<trkpt lat="-28.2960176" lon="152.4417944">
<ele>983.304</ele>
<time>2015-12-05T01:02:48.000Z</time>
</trkpt>
<trkpt lat="-28.2960176" lon="152.4417944">
<ele>981.912</ele>
<time>2015-12-05T01:03:30.353Z</time>
</trkpt>
<trkpt lat="-28.2960198" lon="152.4420187">
<ele>981.632</ele>
<time>2015-12-05T01:03:43.161Z</time>
</trkpt>
<trkpt lat="-28.2960503" lon="152.4421966">
<ele>981.374</ele>
<time>2015-12-05T01:03:46.217Z</time>
</trkpt>
<trkpt lat="-28.2960647" lon="152.4423253">
<ele>980.275</ele>
<time>2015-12-05T01:03:47.991Z</time>
</trkpt>
<trkpt lat="-28.2960687" lon="152.4424845">
<ele>978.724</ele>
<time>2015-12-05T01:03:50.082Z</time>
</trkpt>
<trkpt lat="-28.2959888" lon="152.4426747">
<ele>977.285</ele>
<time>2015-12-05T01:03:52.826Z</time>
</trkpt>
<trkpt lat="-28.2959395" lon="152.4428033">
<ele>975.674</ele>
<time>2015-12-05T01:03:54.665Z</time>
</trkpt>
<trkpt lat="-28.2958521" lon="152.4429040">
<ele>973.660</ele>
<time>2015-12-05T01:03:56.514Z</time>
</trkpt>
<trkpt lat="-28.2957663" lon="152.4430264">
<ele>971.560</ele>
<time>2015-12-05T01:03:58.445Z</time>
</trkpt>
<trkpt lat="-28.2956589" lon="152.4431425">
<ele>969.646</ele>
<time>2015-12-05T01:04:00.358Z</time>
</trkpt>
<trkpt lat="-28.2954978" lon="152.4431972">
<ele>967.876</ele>
<time>2015-12-05T01:04:02.423Z</time>
</trkpt>
<trkpt lat="-28.2952326" lon="152.4432482">
<ele>966.151</ele>
<time>2015-12-05T01:04:05.902Z</time>
</trkpt>
<trkpt lat="-28.2951132" lon="152.4432931">
<ele>964.175</ele>
<time>2015-12-05T01:04:07.639Z</time>
</trkpt>
<trkpt lat="-28.2949256" lon="152.4433885">
<ele>961.775</ele>
<time>2015-12-05T01:04:10.297Z</time>
</trkpt>
<trkpt lat="-28.2946445" lon="152.4434439">
<ele>959.240</ele>
<time>2015-12-05T01:04:13.653Z</time>
</trkpt>
<trkpt lat="-28.2944119" lon="152.4434307">
<ele>956.669</ele>
<time>2015-12-05T01:04:16.497Z</time>
</trkpt>
<trkpt lat="-28.2942967" lon="152.4433954">
<ele>953.680</ele>
<time>2015-12-05T01:04:18.022Z</time>
</trkpt>
<trkpt lat="-28.2941916" lon="152.4432370">
<ele>950.231</ele>
<time>2015-12-05T01:04:20.167Z</time>
</trkpt>
<trkpt lat="-28.2940119" lon="152.4430672">
<ele>946.836</ele>
<time>2015-12-05T01:04:22.952Z</time>
</trkpt>
<trkpt lat="-28.2938563" lon="152.4428976">
<ele>943.555</ele>
<time>2015-12-05T01:04:25.644Z</time>
</trkpt>
<trkpt lat="-28.2937642" lon="152.4427973">
<ele>940.185</ele>
<time>2015-12-05T01:04:27.317Z</time>
</trkpt>
<trkpt lat="-28.2936080" lon="152.4427126">
<ele>937.056</ele>
<time>2015-12-05T01:04:29.442Z</time>
</trkpt>
<trkpt lat="-28.2933530" lon="152.4425695">
<ele>934.356</ele>
<time>2015-12-05T01:04:32.821Z</time>
</trkpt>
<trkpt lat="-28.2931822" lon="152.4424210">
<ele>931.675</ele>
<time>2015-12-05T01:04:35.503Z</time>
</trkpt>
<trkpt lat="-28.2929646" lon="152.4423275">
<ele>928.697</ele>
<time>2015-12-05T01:04:38.591Z</time>
</trkpt>
<trkpt lat="-28.2928244" lon="152.4423103">
<ele>925.291</ele>
<time>2015-12-05T01:04:40.588Z</time>
</trkpt>
<trkpt lat="-28.2927392" lon="152.4420979">
<ele>921.794</ele>
<time>2015-12-05T01:04:43.442Z</time>
</trkpt>
<trkpt lat="-28.2924892" lon="152.4419990">
<ele>918.577</ele>
<time>2015-12-05T01:04:46.673Z</time>
</trkpt>
<trkpt lat="-28.2922517" lon="152.4419840">
<ele>915.338</ele>
<time>2015-12-05T01:04:49.475Z</time>
</trkpt>
<trkpt lat="-28.2920003" lon="152.4418729">
<ele>911.846</ele>
<time>2015-12-05T01:04:53.616Z</time>
</trkpt>
<trkpt lat="-28.2918802" lon="152.4417555">
<ele>908.152</ele>
<time>2015-12-05T01:04:56.677Z</time>
</trkpt>
<trkpt lat="-28.2920004" lon="152.4416263">
<ele>904.012</ele>
<time>2015-12-05T01:04:59.860Z</time>
</trkpt>
<trkpt lat="-28.2921173" lon="152.4415685">
<ele>899.683</ele>
<time>2015-12-05T01:05:02.074Z</time>
</trkpt>
<trkpt lat="-28.2922702" lon="152.4415624">
<ele>896.143</ele>
<time>2015-12-05T01:05:04.296Z</time>
</trkpt>
<trkpt lat="-28.2924322" lon="152.4417203">
<ele>894.010</ele>
<time>2015-12-05T01:05:07.156Z</time>
</trkpt>
<trkpt lat="-28.2926146" lon="152.4416924">
<ele>893.006</ele>
<time>2015-12-05T01:05:09.586Z</time>
</trkpt>
<trkpt lat="-28.2927464" lon="152.4416179">
<ele>892.311</ele>
<time>2015-12-05T01:05:11.539Z</time>
</trkpt>
<trkpt lat="-28.2929318" lon="152.4414638">
<ele>891.316</ele>
<time>2015-12-05T01:05:14.658Z</time>
</trkpt>
<trkpt lat="-28.2928963" lon="152.4411810">
<ele>889.745</ele>
<time>2015-12-05T01:05:18.100Z</time>
</trkpt>
<trkpt lat="-28.2927863" lon="152.4410293">
<ele>887.554</ele>
<time>2015-12-05T01:05:20.485Z</time>
</trkpt>
<trkpt lat="-28.2925222" lon="152.4409348">
<ele>885.069</ele>
<time>2015-12-05T01:05:24.109Z</time>
</trkpt>
<trkpt lat="-28.2923112" lon="152.4409480">
<ele>882.589</ele>
<time>2015-12-05T01:05:26.626Z</time>
</trkpt>
<trkpt lat="-28.2921432" lon="152.4409610">
<ele>880.133</ele>
<time>2015-12-05T01:05:28.707Z</time>
</trkpt>
<trkpt lat="-28.2919752" lon="152.4410050">
<ele>877.890</ele>
<time>2015-12-05T01:05:31.010Z</time>
</trkpt>
<trkpt lat="-28.2918343" lon="152.4410639">
<ele>875.948</ele>
<time>2015-12-05T01:05:33.095Z</time>
</trkpt>
<trkpt lat="-28.2916921" lon="152.4411075">
<ele>873.821</ele>
<time>2015-12-05T01:05:35.216Z</time>
</trkpt>
<trkpt lat="-28.2914663" lon="152.4411422">
<ele>871.081</ele>
<time>2015-12-05T01:05:38.475Z</time>
</trkpt>
<trkpt lat="-28.2913563" lon="152.4411966">
<ele>867.899</ele>
<time>2015-12-05T01:05:40.164Z</time>
</trkpt>
<trkpt lat="-28.2911526" lon="152.4412772">
<ele>864.764</ele>
<time>2015-12-05T01:05:43.239Z</time>
</trkpt>
<trkpt lat="-28.2909648" lon="152.4413913">
<ele>861.892</ele>
<time>2015-12-05T01:05:46.125Z</time>
</trkpt>
<trkpt lat="-28.2908248" lon="152.4415420">
<ele>859.153</ele>
<time>2015-12-05T01:05:48.684Z</time>
</trkpt>
<trkpt lat="-28.2906940" lon="152.4416532">
<ele>856.307</ele>
<time>2015-12-05T01:05:51.024Z</time>
</trkpt>
<trkpt lat="-28.2905819" lon="152.4417864">
<ele>853.392</ele>
<time>2015-12-05T01:05:53.384Z</time>
</trkpt>
<trkpt lat="-28.2905155" lon="152.4419028">
<ele>850.649</ele>
<time>2015-12-05T01:05:55.079Z</time>
</trkpt>
<trkpt lat="-28.2904585" lon="152.4420513">
<ele>848.130</ele>
<time>2015-12-05T01:05:56.941Z</time>
</trkpt>
<trkpt lat="-28.2903620" lon="152.4421397">
<ele>845.736</ele>
<time>2015-12-05T01:05:58.556Z</time>
</trkpt>
<trkpt lat="-28.2902473" lon="152.4422605">
<ele>843.493</ele>
<time>2015-12-05T01:06:00.578Z</time>
</trkpt>
<trkpt lat="-28.2901296" lon="152.4425440">
<ele>841.610</ele>
<time>2015-12-05T01:06:04.032Z</time>
</trkpt>
<trkpt lat="-28.2899514" lon="152.4426987">
<ele>839.790</ele>
<time>2015-12-05T01:06:06.794Z</time>
</trkpt>
<trkpt lat="-28.2896991" lon="152.4427843">
<ele>837.548</ele>
<time>2015-12-05T01:06:10.119Z</time>
</trkpt>
<trkpt lat="-28.2895328" lon="152.4427865">
<ele>834.715</ele>
<time>2015-12-05T01:06:12.187Z</time>
</trkpt>
<trkpt lat="-28.2893139" lon="152.4427223">
<ele>831.295</ele>
<time>2015-12-05T01:06:14.901Z</time>
</trkpt>
<trkpt lat="-28.2891713" lon="152.4426605">
<ele>827.661</ele>
<time>2015-12-05T01:06:16.654Z</time>
</trkpt>
<trkpt lat="-28.2889289" lon="152.4427479">
<ele>824.352</ele>
<time>2015-12-05T01:06:19.566Z</time>
</trkpt>
<trkpt lat="-28.2887740" lon="152.4428193">
<ele>821.204</ele>
<time>2015-12-05T01:06:21.487Z</time>
</trkpt>
<trkpt lat="-28.2886636" lon="152.4429730">
<ele>817.961</ele>
<time>2015-12-05T01:06:23.490Z</time>
</trkpt>
<trkpt lat="-28.2885588" lon="152.4431447">
<ele>814.791</ele>
<time>2015-12-05T01:06:25.612Z</time>
</trkpt>
<trkpt lat="-28.2884198" lon="152.4433693">
<ele>812.017</ele>
<time>2015-12-05T01:06:28.628Z</time>
</trkpt>
<trkpt lat="-28.2883391" lon="152.4435543">
<ele>809.536</ele>
<time>2015-12-05T01:06:31.049Z</time>
</trkpt>
<trkpt lat="-28.2882107" lon="152.4436530">
<ele>806.955</ele>
<time>2015-12-05T01:06:33.220Z</time>
</trkpt>
<trkpt lat="-28.2880275" lon="152.4437523">
<ele>804.345</ele>
<time>2015-12-05T01:06:36.123Z</time>
</trkpt>
<trkpt lat="-28.2879093" lon="152.4438558">
<ele>802.313</ele>
<time>2015-12-05T01:06:37.950Z</time>
</trkpt>
<trkpt lat="-28.2878284" lon="152.4439482">
<ele>801.127</ele>
<time>2015-12-05T01:06:39.292Z</time>
</trkpt>
<trkpt lat="-28.2877042" lon="152.4440398">
<ele>800.230</ele>
<time>2015-12-05T01:06:40.783Z</time>
</trkpt>
<trkpt lat="-28.2874795" lon="152.4442098">
<ele>799.080</ele>
<time>2015-12-05T01:06:43.277Z</time>
</trkpt>
<trkpt lat="-28.2872831" lon="152.4443351">
<ele>797.875</ele>
<time>2015-12-05T01:06:45.318Z</time>
</trkpt>
<trkpt lat="-28.2871106" lon="152.4444905">
<ele>796.961</ele>
<time>2015-12-05T01:06:47.341Z</time>
</trkpt>
<trkpt lat="-28.2868439" lon="152.4447133">
<ele>796.142</ele>
<time>2015-12-05T01:06:50.395Z</time>
</trkpt>
<trkpt lat="-28.2864962" lon="152.4447133">
<ele>794.808</ele>
<time>2015-12-05T01:06:53.601Z</time>
</trkpt>
<trkpt lat="-28.2861900" lon="152.4445933">
<ele>792.469</ele>
<time>2015-12-05T01:06:56.522Z</time>
</trkpt>
<trkpt lat="-28.2860305" lon="152.4444903">
<ele>789.412</ele>
<time>2015-12-05T01:06:58.127Z</time>
</trkpt>
<trkpt lat="-28.2856436" lon="152.4445129">
<ele>786.690</ele>
<time>2015-12-05T01:07:01.564Z</time>
</trkpt>
<trkpt lat="-28.2854339" lon="152.4444813">
<ele>784.670</ele>
<time>2015-12-05T01:07:03.484Z</time>
</trkpt>
<trkpt lat="-28.2852483" lon="152.4443878">
<ele>782.733</ele>
<time>2015-12-05T01:07:05.331Z</time>
</trkpt>
<trkpt lat="-28.2850154" lon="152.4441213">
<ele>780.709</ele>
<time>2015-12-05T01:07:08.349Z</time>
</trkpt>
<trkpt lat="-28.2848385" lon="152.4439442">
<ele>778.805</ele>
<time>2015-12-05T01:07:10.542Z</time>
</trkpt>
<trkpt lat="-28.2846369" lon="152.4436316">
<ele>777.059</ele>
<time>2015-12-05T01:07:14.053Z</time>
</trkpt>
<trkpt lat="-28.2844887" lon="152.4434852">
<ele>775.452</ele>
<time>2015-12-05T01:07:16.260Z</time>
</trkpt>
<trkpt lat="-28.2843124" lon="152.4433976">
<ele>773.863</ele>
<time>2015-12-05T01:07:18.430Z</time>
</trkpt>
<trkpt lat="-28.2841599" lon="152.4433862">
<ele>772.212</ele>
<time>2015-12-05T01:07:20.115Z</time>
</trkpt>
<trkpt lat="-28.2839612" lon="152.4436133">
<ele>770.452</ele>
<time>2015-12-05T01:07:23.450Z</time>
</trkpt>
<trkpt lat="-28.2837630" lon="152.4438250">
<ele>768.558</ele>
<time>2015-12-05T01:07:27.173Z</time>
</trkpt>
<trkpt lat="-28.2836142" lon="152.4440266">
<ele>766.632</ele>
<time>2015-12-05T01:07:30.066Z</time>
</trkpt>
<trkpt lat="-28.2835817" lon="152.4441602">
<ele>764.582</ele>
<time>2015-12-05T01:07:31.440Z</time>
</trkpt>
<trkpt lat="-28.2836185" lon="152.4444471">
<ele>762.472</ele>
<time>2015-12-05T01:07:34.184Z</time>
</trkpt>
<trkpt lat="-28.2836196" lon="152.4447602">
<ele>760.730</ele>
<time>2015-12-05T01:07:37.090Z</time>
</trkpt>
<trkpt lat="-28.2836012" lon="152.4450862">
<ele>759.456</ele>
<time>2015-12-05T01:07:40.058Z</time>
</trkpt>
<trkpt lat="-28.2834842" lon="152.4453660">
<ele>758.262</ele>
<time>2015-12-05T01:07:42.862Z</time>
</trkpt>
<trkpt lat="-28.2833506" lon="152.4455406">
<ele>757.045</ele>
<time>2015-12-05T01:07:44.925Z</time>
</trkpt>
<trkpt lat="-28.2830923" lon="152.4456577">
<ele>755.881</ele>
<time>2015-12-05T01:07:47.650Z</time>
</trkpt>
<trkpt lat="-28.2827665" lon="152.4455949">
<ele>754.268</ele>
<time>2015-12-05T01:07:50.745Z</time>
</trkpt>
<trkpt lat="-28.2825657" lon="152.4453372">
<ele>752.001</ele>
<time>2015-12-05T01:07:53.446Z</time>
</trkpt>
<trkpt lat="-28.2823335" lon="152.4452448">
<ele>749.607</ele>
<time>2015-12-05T01:07:55.585Z</time>
</trkpt>
<trkpt lat="-28.2820981" lon="152.4451628">
<ele>747.448</ele>
<time>2015-12-05T01:07:57.571Z</time>
</trkpt>
<trkpt lat="-28.2817802" lon="152.4449896">
<ele>745.454</ele>
<time>2015-12-05T01:08:00.371Z</time>
</trkpt>
<trkpt lat="-28.2814072" lon="152.4447572">
<ele>743.282</ele>
<time>2015-12-05T01:08:04.010Z</time>
</trkpt>
<trkpt lat="-28.2811631" lon="152.4445823">
<ele>740.336</ele>
<time>2015-12-05T01:08:06.669Z</time>
</trkpt>
<trkpt lat="-28.2810257" lon="152.4444778">
<ele>736.596</ele>
<time>2015-12-05T01:08:08.176Z</time>
</trkpt>
<trkpt lat="-28.2806497" lon="152.4444423">
<ele>732.694</ele>
<time>2015-12-05T01:08:11.696Z</time>
</trkpt>
<trkpt lat="-28.2804451" lon="152.4444513">
<ele>729.210</ele>
<time>2015-12-05T01:08:13.559Z</time>
</trkpt>
<trkpt lat="-28.2801444" lon="152.4445132">
<ele>726.402</ele>
<time>2015-12-05T01:08:16.195Z</time>
</trkpt>
<trkpt lat="-28.2799243" lon="152.4446291">
<ele>724.476</ele>
<time>2015-12-05T01:08:18.203Z</time>
</trkpt>
<trkpt lat="-28.2795858" lon="152.4448181">
<ele>723.510</ele>
<time>2015-12-05T01:08:21.398Z</time>
</trkpt>
<trkpt lat="-28.2793880" lon="152.4449562">
<ele>723.280</ele>
<time>2015-12-05T01:08:23.511Z</time>
</trkpt>
<trkpt lat="-28.2791769" lon="152.4450730">
<ele>723.236</ele>
<time>2015-12-05T01:08:25.761Z</time>
</trkpt>
<trkpt lat="-28.2789890" lon="152.4451967">
<ele>722.860</ele>
<time>2015-12-05T01:08:27.872Z</time>
</trkpt>
<trkpt lat="-28.2787400" lon="152.4453785">
<ele>722.138</ele>
<time>2015-12-05T01:08:30.483Z</time>
</trkpt>
<trkpt lat="-28.2785602" lon="152.4455019">
<ele>721.439</ele>
<time>2015-12-05T01:08:32.161Z</time>
</trkpt>
<trkpt lat="-28.2783520" lon="152.4456349">
<ele>720.874</ele>
<time>2015-12-05T01:08:33.963Z</time>
</trkpt>
<trkpt lat="-28.2781004" lon="152.4457385">
<ele>720.301</ele>
<time>2015-12-05T01:08:35.950Z</time>
</trkpt>
<trkpt lat="-28.2777104" lon="152.4458362">
<ele>719.778</ele>
<time>2015-12-05T01:08:38.835Z</time>
</trkpt>
<trkpt lat="-28.2773107" lon="152.4459374">
<ele>719.111</ele>
<time>2015-12-05T01:08:41.662Z</time>
</trkpt>
<trkpt lat="-28.2770428" lon="152.4459981">
<ele>718.057</ele>
<time>2015-12-05T01:08:43.490Z</time>
</trkpt>
<trkpt lat="-28.2767632" lon="152.4461177">
<ele>717.051</ele>
<time>2015-12-05T01:08:45.471Z</time>
</trkpt>
<trkpt lat="-28.2764910" lon="152.4462499">
<ele>716.315</ele>
<time>2015-12-05T01:08:47.424Z</time>
</trkpt>
<trkpt lat="-28.2760560" lon="152.4464031">
<ele>715.559</ele>
<time>2015-12-05T01:08:50.391Z</time>
</trkpt>
<trkpt lat="-28.2755977" lon="152.4464788">
<ele>714.596</ele>
<time>2015-12-05T01:08:53.377Z</time>
</trkpt>
<trkpt lat="-28.2752931" lon="152.4465330">
<ele>713.479</ele>
<time>2015-12-05T01:08:55.422Z</time>
</trkpt>
<trkpt lat="-28.2749936" lon="152.4465766">
<ele>712.697</ele>
<time>2015-12-05T01:08:57.489Z</time>
</trkpt>
<trkpt lat="-28.2745713" lon="152.4466326">
<ele>712.600</ele>
<time>2015-12-05T01:09:00.840Z</time>
</trkpt>
<trkpt lat="-28.2743161" lon="152.4466806">
<ele>712.544</ele>
<time>2015-12-05T01:09:03.403Z</time>
</trkpt>
<trkpt lat="-28.2741272" lon="152.4467509">
<ele>711.825</ele>
<time>2015-12-05T01:09:05.364Z</time>
</trkpt>
<trkpt lat="-28.2739853" lon="152.4468736">
<ele>710.385</ele>
<time>2015-12-05T01:09:06.943Z</time>
</trkpt>
<trkpt lat="-28.2738672" lon="152.4471977">
<ele>708.737</ele>
<time>2015-12-05T01:09:09.293Z</time>
</trkpt>
<trkpt lat="-28.2738206" lon="152.4474780">
<ele>707.742</ele>
<time>2015-12-05T01:09:11.078Z</time>
</trkpt>
<trkpt lat="-28.2737530" lon="152.4479815">
<ele>708.264</ele>
<time>2015-12-05T01:09:13.993Z</time>
</trkpt>
<trkpt lat="-28.2736785" lon="152.4485129">
<ele>710.661</ele>
<time>2015-12-05T01:09:17.108Z</time>
</trkpt>
<trkpt lat="-28.2735836" lon="152.4489646">
<ele>714.627</ele>
<time>2015-12-05T01:09:19.752Z</time>
</trkpt>
<trkpt lat="-28.2735500" lon="152.4493215">
<ele>718.746</ele>
<time>2015-12-05T01:09:21.727Z</time>
</trkpt>
<trkpt lat="-28.2734883" lon="152.4498561">
<ele>721.372</ele>
<time>2015-12-05T01:09:24.670Z</time>
</trkpt>
<trkpt lat="-28.2734383" lon="152.4502024">
<ele>721.557</ele>
<time>2015-12-05T01:09:26.574Z</time>
</trkpt>
<trkpt lat="-28.2733475" lon="152.4505468">
<ele>719.603</ele>
<time>2015-12-05T01:09:28.462Z</time>
</trkpt>
<trkpt lat="-28.2731746" lon="152.4508766">
<ele>716.962</ele>
<time>2015-12-05T01:09:30.361Z</time>
</trkpt>
<trkpt lat="-28.2727498" lon="152.4513035">
<ele>714.813</ele>
<time>2015-12-05T01:09:33.372Z</time>
</trkpt>
<trkpt lat="-28.2722959" lon="152.4517158">
<ele>713.063</ele>
<time>2015-12-05T01:09:36.340Z</time>
</trkpt>
<trkpt lat="-28.2718676" lon="152.4521914">
<ele>710.558</ele>
<time>2015-12-05T01:09:39.396Z</time>
</trkpt>
<trkpt lat="-28.2716023" lon="152.4525036">
<ele>706.953</ele>
<time>2015-12-05T01:09:41.456Z</time>
</trkpt>
<trkpt lat="-28.2712524" lon="152.4529547">
<ele>703.926</ele>
<time>2015-12-05T01:09:44.685Z</time>
</trkpt>
<trkpt lat="-28.2709566" lon="152.4533296">
<ele>702.706</ele>
<time>2015-12-05T01:09:47.732Z</time>
</trkpt>
<trkpt lat="-28.2707582" lon="152.4535320">
<ele>702.322</ele>
<time>2015-12-05T01:09:49.498Z</time>
</trkpt>
<trkpt lat="-28.2705076" lon="152.4537449">
<ele>701.583</ele>
<time>2015-12-05T01:09:51.351Z</time>
</trkpt>
<trkpt lat="-28.2700959" lon="152.4541157">
<ele>700.433</ele>
<time>2015-12-05T01:09:54.302Z</time>
</trkpt>
<trkpt lat="-28.2698115" lon="152.4543577">
<ele>699.497</ele>
<time>2015-12-05T01:09:56.249Z</time>
</trkpt>
<trkpt lat="-28.2695268" lon="152.4546145">
<ele>698.915</ele>
<time>2015-12-05T01:09:58.233Z</time>
</trkpt>
<trkpt lat="-28.2691038" lon="152.4549920">
<ele>698.484</ele>
<time>2015-12-05T01:10:01.173Z</time>
</trkpt>
<trkpt lat="-28.2686769" lon="152.4553629">
<ele>698.273</ele>
<time>2015-12-05T01:10:04.115Z</time>
</trkpt>
<trkpt lat="-28.2683843" lon="152.4556154">
<ele>698.421</ele>
<time>2015-12-05T01:10:06.129Z</time>
</trkpt>
<trkpt lat="-28.2679607" lon="152.4559964">
<ele>698.884</ele>
<time>2015-12-05T01:10:09.039Z</time>
</trkpt>
<trkpt lat="-28.2676557" lon="152.4562537">
<ele>700.160</ele>
<time>2015-12-05T01:10:10.997Z</time>
</trkpt>
<trkpt lat="-28.2673407" lon="152.4565171">
<ele>702.815</ele>
<time>2015-12-05T01:10:13.009Z</time>
</trkpt>
<trkpt lat="-28.2670490" lon="152.4567835">
<ele>706.322</ele>
<time>2015-12-05T01:10:14.973Z</time>
</trkpt>
<trkpt lat="-28.2667565" lon="152.4570503">
<ele>709.362</ele>
<time>2015-12-05T01:10:17.032Z</time>
</trkpt>
<trkpt lat="-28.2663285" lon="152.4574291">
<ele>711.394</ele>
<time>2015-12-05T01:10:20.074Z</time>
</trkpt>
<trkpt lat="-28.2659302" lon="152.4577781">
<ele>712.857</ele>
<time>2015-12-05T01:10:22.814Z</time>
</trkpt>
<trkpt lat="-28.2656304" lon="152.4580496">
<ele>714.004</ele>
<time>2015-12-05T01:10:24.698Z</time>
</trkpt>
<trkpt lat="-28.2651482" lon="152.4584964">
<ele>714.603</ele>
<time>2015-12-05T01:10:27.648Z</time>
</trkpt>
<trkpt lat="-28.2647972" lon="152.4587910">
<ele>714.537</ele>
<time>2015-12-05T01:10:29.676Z</time>
</trkpt>
<trkpt lat="-28.2642895" lon="152.4592375">
<ele>713.845</ele>
<time>2015-12-05T01:10:32.693Z</time>
</trkpt>
<trkpt lat="-28.2638121" lon="152.4596792">
<ele>712.927</ele>
<time>2015-12-05T01:10:35.650Z</time>
</trkpt>
<trkpt lat="-28.2635058" lon="152.4599630">
<ele>712.531</ele>
<time>2015-12-05T01:10:37.635Z</time>
</trkpt>
<trkpt lat="-28.2630600" lon="152.4603773">
<ele>712.915</ele>
<time>2015-12-05T01:10:40.665Z</time>
</trkpt>
<trkpt lat="-28.2627917" lon="152.4606421">
<ele>713.300</ele>
<time>2015-12-05T01:10:42.686Z</time>
</trkpt>
<trkpt lat="-28.2625252" lon="152.4608714">
<ele>712.830</ele>
<time>2015-12-05T01:10:44.600Z</time>
</trkpt>
<trkpt lat="-28.2620435" lon="152.4611173">
<ele>711.754</ele>
<time>2015-12-05T01:10:47.534Z</time>
</trkpt>
<trkpt lat="-28.2614708" lon="152.4611791">
<ele>710.958</ele>
<time>2015-12-05T01:10:50.636Z</time>
</trkpt>
<trkpt lat="-28.2609464" lon="152.4612562">
<ele>711.473</ele>
<time>2015-12-05T01:10:53.612Z</time>
</trkpt>
<trkpt lat="-28.2606621" lon="152.4613851">
<ele>713.384</ele>
<time>2015-12-05T01:10:55.559Z</time>
</trkpt>
<trkpt lat="-28.2603233" lon="152.4616984">
<ele>715.349</ele>
<time>2015-12-05T01:10:58.423Z</time>
</trkpt>
<trkpt lat="-28.2601131" lon="152.4619584">
<ele>716.631</ele>
<time>2015-12-05T01:11:00.340Z</time>
</trkpt>
<trkpt lat="-28.2598222" lon="152.4624891">
<ele>717.848</ele>
<time>2015-12-05T01:11:03.513Z</time>
</trkpt>
<trkpt lat="-28.2594040" lon="152.4628872">
<ele>719.859</ele>
<time>2015-12-05T01:11:06.512Z</time>
</trkpt>
<trkpt lat="-28.2590761" lon="152.4634095">
<ele>722.882</ele>
<time>2015-12-05T01:11:09.647Z</time>
</trkpt>
<trkpt lat="-28.2589343" lon="152.4639356">
<ele>725.917</ele>
<time>2015-12-05T01:11:12.419Z</time>
</trkpt>
<trkpt lat="-28.2588525" lon="152.4643191">
<ele>727.869</ele>
<time>2015-12-05T01:11:14.463Z</time>
</trkpt>
<trkpt lat="-28.2587219" lon="152.4648303">
<ele>728.753</ele>
<time>2015-12-05T01:11:17.269Z</time>
</trkpt>
<trkpt lat="-28.2585871" lon="152.4653558">
<ele>729.007</ele>
<time>2015-12-05T01:11:20.212Z</time>
</trkpt>
<trkpt lat="-28.2584681" lon="152.4657072">
<ele>728.612</ele>
<time>2015-12-05T01:11:22.304Z</time>
</trkpt>
<trkpt lat="-28.2581497" lon="152.4660403">
<ele>727.548</ele>
<time>2015-12-05T01:11:25.062Z</time>
</trkpt>
<trkpt lat="-28.2577083" lon="152.4664031">
<ele>726.894</ele>
<time>2015-12-05T01:11:28.368Z</time>
</trkpt>
<trkpt lat="-28.2574165" lon="152.4666426">
<ele>727.621</ele>
<time>2015-12-05T01:11:30.417Z</time>
</trkpt>
<trkpt lat="-28.2570068" lon="152.4670039">
<ele>729.049</ele>
<time>2015-12-05T01:11:33.372Z</time>
</trkpt>
<trkpt lat="-28.2566273" lon="152.4673858">
<ele>729.907</ele>
<time>2015-12-05T01:11:36.273Z</time>
</trkpt>
<trkpt lat="-28.2563367" lon="152.4676239">
<ele>729.777</ele>
<time>2015-12-05T01:11:38.266Z</time>
</trkpt>
<trkpt lat="-28.2559161" lon="152.4680181">
<ele>729.154</ele>
<time>2015-12-05T01:11:41.245Z</time>
</trkpt>
<trkpt lat="-28.2556389" lon="152.4682658">
<ele>728.782</ele>
<time>2015-12-05T01:11:43.176Z</time>
</trkpt>
<trkpt lat="-28.2553412" lon="152.4685143">
<ele>728.906</ele>
<time>2015-12-05T01:11:45.221Z</time>
</trkpt>
<trkpt lat="-28.2548951" lon="152.4688184">
<ele>729.029</ele>
<time>2015-12-05T01:11:48.133Z</time>
</trkpt>
<trkpt lat="-28.2545884" lon="152.4689916">
<ele>728.607</ele>
<time>2015-12-05T01:11:50.065Z</time>
</trkpt>
<trkpt lat="-28.2541512" lon="152.4693487">
<ele>727.679</ele>
<time>2015-12-05T01:11:53.034Z</time>
</trkpt>
<trkpt lat="-28.2538851" lon="152.4696724">
<ele>726.677</ele>
<time>2015-12-05T01:11:55.093Z</time>
</trkpt>
<trkpt lat="-28.2536416" lon="152.4699758">
<ele>726.228</ele>
<time>2015-12-05T01:11:57.012Z</time>
</trkpt>
<trkpt lat="-28.2533825" lon="152.4702557">
<ele>726.614</ele>
<time>2015-12-05T01:11:58.969Z</time>
</trkpt>
<trkpt lat="-28.2529977" lon="152.4706506">
<ele>727.339</ele>
<time>2015-12-05T01:12:01.879Z</time>
</trkpt>
<trkpt lat="-28.2527379" lon="152.4709217">
<ele>727.946</ele>
<time>2015-12-05T01:12:03.864Z</time>
</trkpt>
<trkpt lat="-28.2523113" lon="152.4713017">
<ele>728.419</ele>
<time>2015-12-05T01:12:06.912Z</time>
</trkpt>
<trkpt lat="-28.2520394" lon="152.4715121">
<ele>729.283</ele>
<time>2015-12-05T01:12:08.798Z</time>
</trkpt>
<trkpt lat="-28.2517283" lon="152.4717182">
<ele>731.065</ele>
<time>2015-12-05T01:12:10.763Z</time>
</trkpt>
<trkpt lat="-28.2511870" lon="152.4720108">
<ele>733.124</ele>
<time>2015-12-05T01:12:13.770Z</time>
</trkpt>
<trkpt lat="-28.2508178" lon="152.4721966">
<ele>734.363</ele>
<time>2015-12-05T01:12:15.733Z</time>
</trkpt>
<trkpt lat="-28.2503127" lon="152.4724635">
<ele>734.520</ele>
<time>2015-12-05T01:12:18.518Z</time>
</trkpt>
<trkpt lat="-28.2499621" lon="152.4726327">
<ele>733.906</ele>
<time>2015-12-05T01:12:20.468Z</time>
</trkpt>
<trkpt lat="-28.2494330" lon="152.4728844">
<ele>733.082</ele>
<time>2015-12-05T01:12:23.382Z</time>
</trkpt>
<trkpt lat="-28.2490488" lon="152.4730521">
<ele>732.254</ele>
<time>2015-12-05T01:12:25.431Z</time>
</trkpt>
<trkpt lat="-28.2485165" lon="152.4733377">
<ele>731.150</ele>
<time>2015-12-05T01:12:28.368Z</time>
</trkpt>
<trkpt lat="-28.2481648" lon="152.4735104">
<ele>729.837</ele>
<time>2015-12-05T01:12:30.314Z</time>
</trkpt>
<trkpt lat="-28.2478184" lon="152.4736856">
<ele>728.586</ele>
<time>2015-12-05T01:12:32.288Z</time>
</trkpt>
<trkpt lat="-28.2473279" lon="152.4739176">
<ele>727.321</ele>
<time>2015-12-05T01:12:35.197Z</time>
</trkpt>
<trkpt lat="-28.2469223" lon="152.4740560">
<ele>725.811</ele>
<time>2015-12-05T01:12:37.813Z</time>
</trkpt>
<trkpt lat="-28.2465272" lon="152.4741429">
<ele>724.251</ele>
<time>2015-12-05T01:12:40.657Z</time>
</trkpt>
<trkpt lat="-28.2461661" lon="152.4739675">
<ele>723.423</ele>
<time>2015-12-05T01:12:43.601Z</time>
</trkpt>
<trkpt lat="-28.2459743" lon="152.4737306">
<ele>723.949</ele>
<time>2015-12-05T01:12:45.710Z</time>
</trkpt>
<trkpt lat="-28.2457525" lon="152.4733660">
<ele>725.327</ele>
<time>2015-12-05T01:12:48.563Z</time>
</trkpt>
<trkpt lat="-28.2455927" lon="152.4731008">
<ele>726.236</ele>
<time>2015-12-05T01:12:50.650Z</time>
</trkpt>
<trkpt lat="-28.2454067" lon="152.4727672">
<ele>725.850</ele>
<time>2015-12-05T01:12:53.395Z</time>
</trkpt>
<trkpt lat="-28.2451391" lon="152.4726654">
<ele>724.095</ele>
<time>2015-12-05T01:12:55.976Z</time>
</trkpt>
<trkpt lat="-28.2449151" lon="152.4727172">
<ele>721.341</ele>
<time>2015-12-05T01:12:58.195Z</time>
</trkpt>
<trkpt lat="-28.2447018" lon="152.4728150">
<ele>718.671</ele>
<time>2015-12-05T01:13:00.271Z</time>
</trkpt>
<trkpt lat="-28.2444290" lon="152.4728933">
<ele>717.482</ele>
<time>2015-12-05T01:13:02.488Z</time>
</trkpt>
<trkpt lat="-28.2439531" lon="152.4729100">
<ele>718.270</ele>
<time>2015-12-05T01:13:05.780Z</time>
</trkpt>
<trkpt lat="-28.2436248" lon="152.4729269">
<ele>720.598</ele>
<time>2015-12-05T01:13:07.817Z</time>
</trkpt>
<trkpt lat="-28.2432109" lon="152.4730479">
<ele>723.654</ele>
<time>2015-12-05T01:13:10.551Z</time>
</trkpt>
<trkpt lat="-28.2429071" lon="152.4731838">
<ele>726.572</ele>
<time>2015-12-05T01:13:12.676Z</time>
</trkpt>
<trkpt lat="-28.2424396" lon="152.4734677">
<ele>728.806</ele>
<time>2015-12-05T01:13:15.879Z</time>
</trkpt>
<trkpt lat="-28.2421359" lon="152.4736490">
<ele>730.671</ele>
<time>2015-12-05T01:13:17.855Z</time>
</trkpt>
<trkpt lat="-28.2416823" lon="152.4738645">
<ele>732.567</ele>
<time>2015-12-05T01:13:20.716Z</time>
</trkpt>
<trkpt lat="-28.2412224" lon="152.4740243">
<ele>734.182</ele>
<time>2015-12-05T01:13:23.583Z</time>
</trkpt>
<trkpt lat="-28.2407348" lon="152.4741446">
<ele>735.524</ele>
<time>2015-12-05T01:13:26.588Z</time>
</trkpt>
<trkpt lat="-28.2404466" lon="152.4742177">
<ele>737.240</ele>
<time>2015-12-05T01:13:28.410Z</time>
</trkpt>
<trkpt lat="-28.2401683" lon="152.4743332">
<ele>739.137</ele>
<time>2015-12-05T01:13:30.315Z</time>
</trkpt>
<trkpt lat="-28.2397719" lon="152.4746081">
<ele>740.277</ele>
<time>2015-12-05T01:13:33.334Z</time>
</trkpt>
<trkpt lat="-28.2394654" lon="152.4749794">
<ele>740.420</ele>
<time>2015-12-05T01:13:36.186Z</time>
</trkpt>
<trkpt lat="-28.2392872" lon="152.4753195">
<ele>740.212</ele>
<time>2015-12-05T01:13:38.314Z</time>
</trkpt>
<trkpt lat="-28.2391357" lon="152.4758616">
<ele>740.538</ele>
<time>2015-12-05T01:13:41.253Z</time>
</trkpt>
<trkpt lat="-28.2390713" lon="152.4764106">
<ele>741.561</ele>
<time>2015-12-05T01:13:44.170Z</time>
</trkpt>
<trkpt lat="-28.2389145" lon="152.4769092">
<ele>742.283</ele>
<time>2015-12-05T01:13:47.035Z</time>
</trkpt>
<trkpt lat="-28.2385713" lon="152.4773483">
<ele>742.005</ele>
<time>2015-12-05T01:13:50.157Z</time>
</trkpt>
<trkpt lat="-28.2381875" lon="152.4777663">
<ele>741.467</ele>
<time>2015-12-05T01:13:53.208Z</time>
</trkpt>
<trkpt lat="-28.2379661" lon="152.4780207">
<ele>741.683</ele>
<time>2015-12-05T01:13:55.040Z</time>
</trkpt>
<trkpt lat="-28.2377817" lon="152.4782518">
<ele>742.519</ele>
<time>2015-12-05T01:13:56.761Z</time>
</trkpt>
<trkpt lat="-28.2376486" lon="152.4786280">
<ele>743.233</ele>
<time>2015-12-05T01:13:59.341Z</time>
</trkpt>
<trkpt lat="-28.2376754" lon="152.4790864">
<ele>743.534</ele>
<time>2015-12-05T01:14:02.464Z</time>
</trkpt>
<trkpt lat="-28.2377269" lon="152.4795868">
<ele>743.557</ele>
<time>2015-12-05T01:14:05.675Z</time>
</trkpt>
<trkpt lat="-28.2377969" lon="152.4800358">
<ele>743.374</ele>
<time>2015-12-05T01:14:08.475Z</time>
</trkpt>
<trkpt lat="-28.2378082" lon="152.4804489">
<ele>742.792</ele>
<time>2015-12-05T01:14:11.149Z</time>
</trkpt>
<trkpt lat="-28.2376923" lon="152.4807397">
<ele>741.777</ele>
<time>2015-12-05T01:14:13.341Z</time>
</trkpt>
<trkpt lat="-28.2373397" lon="152.4808792">
<ele>741.328</ele>
<time>2015-12-05T01:14:16.198Z</time>
</trkpt>
<trkpt lat="-28.2370363" lon="152.4810640">
<ele>742.412</ele>
<time>2015-12-05T01:14:18.479Z</time>
</trkpt>
<trkpt lat="-28.2367102" lon="152.4812336">
<ele>744.893</ele>
<time>2015-12-05T01:14:20.573Z</time>
</trkpt>
<trkpt lat="-28.2361615" lon="152.4813505">
<ele>747.955</ele>
<time>2015-12-05T01:14:23.625Z</time>
</trkpt>
<trkpt lat="-28.2358088" lon="152.4814435">
<ele>751.069</ele>
<time>2015-12-05T01:14:25.579Z</time>
</trkpt>
<trkpt lat="-28.2354375" lon="152.4815335">
<ele>754.052</ele>
<time>2015-12-05T01:14:27.613Z</time>
</trkpt>
<trkpt lat="-28.2350536" lon="152.4816389">
<ele>756.688</ele>
<time>2015-12-05T01:14:29.666Z</time>
</trkpt>
<trkpt lat="-28.2344900" lon="152.4817871">
<ele>758.916</ele>
<time>2015-12-05T01:14:32.612Z</time>
</trkpt>
<trkpt lat="-28.2339865" lon="152.4819554">
<ele>760.893</ele>
<time>2015-12-05T01:14:35.408Z</time>
</trkpt>
<trkpt lat="-28.2336791" lon="152.4821002">
<ele>762.650</ele>
<time>2015-12-05T01:14:37.289Z</time>
</trkpt>
<trkpt lat="-28.2332429" lon="152.4823691">
<ele>764.636</ele>
<time>2015-12-05T01:14:40.232Z</time>
</trkpt>
<trkpt lat="-28.2330474" lon="152.4825467">
<ele>767.040</ele>
<time>2015-12-05T01:14:41.805Z</time>
</trkpt>
<trkpt lat="-28.2329165" lon="152.4828770">
<ele>769.076</ele>
<time>2015-12-05T01:14:44.117Z</time>
</trkpt>
<trkpt lat="-28.2329031" lon="152.4833280">
<ele>770.087</ele>
<time>2015-12-05T01:14:47.311Z</time>
</trkpt>
<trkpt lat="-28.2329420" lon="152.4837745">
<ele>770.566</ele>
<time>2015-12-05T01:14:50.313Z</time>
</trkpt>
<trkpt lat="-28.2329631" lon="152.4840971">
<ele>771.171</ele>
<time>2015-12-05T01:14:52.357Z</time>
</trkpt>
<trkpt lat="-28.2329796" lon="152.4843489">
<ele>771.435</ele>
<time>2015-12-05T01:14:53.957Z</time>
</trkpt>
<trkpt lat="-28.2329572" lon="152.4846762">
<ele>770.419</ele>
<time>2015-12-05T01:14:56.272Z</time>
</trkpt>
<trkpt lat="-28.2328798" lon="152.4848886">
<ele>767.855</ele>
<time>2015-12-05T01:14:58.137Z</time>
</trkpt>
<trkpt lat="-28.2327719" lon="152.4850918">
<ele>764.350</ele>
<time>2015-12-05T01:15:00.150Z</time>
</trkpt>
<trkpt lat="-28.2327273" lon="152.4852201">
<ele>760.673</ele>
<time>2015-12-05T01:15:01.440Z</time>
</trkpt>
<trkpt lat="-28.2327090" lon="152.4854038">
<ele>757.219</ele>
<time>2015-12-05T01:15:03.417Z</time>
</trkpt>
<trkpt lat="-28.2327585" lon="152.4855108">
<ele>754.323</ele>
<time>2015-12-05T01:15:04.913Z</time>
</trkpt>
<trkpt lat="-28.2328282" lon="152.4856436">
<ele>752.326</ele>
<time>2015-12-05T01:15:07.158Z</time>
</trkpt>
<trkpt lat="-28.2329489" lon="152.4858262">
<ele>751.160</ele>
<time>2015-12-05T01:15:10.776Z</time>
</trkpt>
<trkpt lat="-28.2330545" lon="152.4860291">
<ele>750.315</ele>
<time>2015-12-05T01:15:14.351Z</time>
</trkpt>
<trkpt lat="-28.2331035" lon="152.4862159">
<ele>749.207</ele>
<time>2015-12-05T01:15:16.973Z</time>
</trkpt>
<trkpt lat="-28.2331993" lon="152.4865333">
<ele>747.752</ele>
<time>2015-12-05T01:15:20.856Z</time>
</trkpt>
<trkpt lat="-28.2333167" lon="152.4868457">
<ele>745.792</ele>
<time>2015-12-05T01:15:24.079Z</time>
</trkpt>
<trkpt lat="-28.2333877" lon="152.4870306">
<ele>742.952</ele>
<time>2015-12-05T01:15:25.884Z</time>
</trkpt>
<trkpt lat="-28.2335145" lon="152.4873222">
<ele>739.482</ele>
<time>2015-12-05T01:15:28.865Z</time>
</trkpt>
<trkpt lat="-28.2337392" lon="152.4875377">
<ele>735.771</ele>
<time>2015-12-05T01:15:32.030Z</time>
</trkpt>
<trkpt lat="-28.2338964" lon="152.4876892">
<ele>731.795</ele>
<time>2015-12-05T01:15:34.205Z</time>
</trkpt>
<trkpt lat="-28.2340731" lon="152.4879275">
<ele>727.830</ele>
<time>2015-12-05T01:15:37.100Z</time>
</trkpt>
<trkpt lat="-28.2342137" lon="152.4882127">
<ele>724.245</ele>
<time>2015-12-05T01:15:40.213Z</time>
</trkpt>
<trkpt lat="-28.2343570" lon="152.4884315">
<ele>720.660</ele>
<time>2015-12-05T01:15:42.834Z</time>
</trkpt>
<trkpt lat="-28.2344061" lon="152.4885342">
<ele>716.436</ele>
<time>2015-12-05T01:15:43.990Z</time>
</trkpt>
<trkpt lat="-28.2344222" lon="152.4887824">
<ele>712.040</ele>
<time>2015-12-05T01:15:46.520Z</time>
</trkpt>
<trkpt lat="-28.2345077" lon="152.4889421">
<ele>708.046</ele>
<time>2015-12-05T01:15:48.654Z</time>
</trkpt>
<trkpt lat="-28.2347181" lon="152.4890746">
<ele>704.349</ele>
<time>2015-12-05T01:15:51.946Z</time>
</trkpt>
<trkpt lat="-28.2348993" lon="152.4892455">
<ele>700.891</ele>
<time>2015-12-05T01:15:55.006Z</time>
</trkpt>
<trkpt lat="-28.2349966" lon="152.4893856">
<ele>697.796</ele>
<time>2015-12-05T01:15:57.030Z</time>
</trkpt>
<trkpt lat="-28.2352135" lon="152.4895956">
<ele>694.993</ele>
<time>2015-12-05T01:16:00.675Z</time>
</trkpt>
<trkpt lat="-28.2352895" lon="152.4897561">
<ele>692.265</ele>
<time>2015-12-05T01:16:02.584Z</time>
</trkpt>
<trkpt lat="-28.2353618" lon="152.4899135">
<ele>689.467</ele>
<time>2015-12-05T01:16:04.358Z</time>
</trkpt>
<trkpt lat="-28.2355491" lon="152.4901747">
<ele>686.767</ele>
<time>2015-12-05T01:16:07.759Z</time>
</trkpt>
<trkpt lat="-28.2356865" lon="152.4904524">
<ele>683.978</ele>
<time>2015-12-05T01:16:10.844Z</time>
</trkpt>
<trkpt lat="-28.2358440" lon="152.4907365">
<ele>680.871</ele>
<time>2015-12-05T01:16:13.892Z</time>
</trkpt>
<trkpt lat="-28.2360100" lon="152.4908861">
<ele>677.396</ele>
<time>2015-12-05T01:16:16.079Z</time>
</trkpt>
<trkpt lat="-28.2362374" lon="152.4911482">
<ele>673.693</ele>
<time>2015-12-05T01:16:19.437Z</time>
</trkpt>
<trkpt lat="-28.2364319" lon="152.4914187">
<ele>670.322</ele>
<time>2015-12-05T01:16:22.482Z</time>
</trkpt>
<trkpt lat="-28.2365478" lon="152.4917483">
<ele>667.413</ele>
<time>2015-12-05T01:16:25.475Z</time>
</trkpt>
<trkpt lat="-28.2366174" lon="152.4920297">
<ele>664.367</ele>
<time>2015-12-05T01:16:27.924Z</time>
</trkpt>
<trkpt lat="-28.2367182" lon="152.4924208">
<ele>661.201</ele>
<time>2015-12-05T01:16:31.068Z</time>
</trkpt>
<trkpt lat="-28.2367552" lon="152.4927476">
<ele>658.020</ele>
<time>2015-12-05T01:16:33.534Z</time>
</trkpt>
<trkpt lat="-28.2367132" lon="152.4930256">
<ele>654.177</ele>
<time>2015-12-05T01:16:35.736Z</time>
</trkpt>
<trkpt lat="-28.2366213" lon="152.4932149">
<ele>649.309</ele>
<time>2015-12-05T01:16:37.727Z</time>
</trkpt>
<trkpt lat="-28.2365111" lon="152.4935510">
<ele>644.359</ele>
<time>2015-12-05T01:16:41.341Z</time>
</trkpt>
<trkpt lat="-28.2363831" lon="152.4939161">
<ele>640.457</ele>
<time>2015-12-05T01:16:44.589Z</time>
</trkpt>
<trkpt lat="-28.2363421" lon="152.4943273">
<ele>637.524</ele>
<time>2015-12-05T01:16:47.670Z</time>
</trkpt>
<trkpt lat="-28.2363209" lon="152.4947656">
<ele>634.538</ele>
<time>2015-12-05T01:16:50.901Z</time>
</trkpt>
<trkpt lat="-28.2362326" lon="152.4950452">
<ele>630.926</ele>
<time>2015-12-05T01:16:53.090Z</time>
</trkpt>
<trkpt lat="-28.2360509" lon="152.4954311">
<ele>627.140</ele>
<time>2015-12-05T01:16:56.202Z</time>
</trkpt>
<trkpt lat="-28.2358198" lon="152.4958486">
<ele>623.366</ele>
<time>2015-12-05T01:16:59.488Z</time>
</trkpt>
<trkpt lat="-28.2356567" lon="152.4960796">
<ele>619.080</ele>
<time>2015-12-05T01:17:01.392Z</time>
</trkpt>
<trkpt lat="-28.2354851" lon="152.4963062">
<ele>614.237</ele>
<time>2015-12-05T01:17:03.332Z</time>
</trkpt>
<trkpt lat="-28.2353137" lon="152.4966010">
<ele>609.430</ele>
<time>2015-12-05T01:17:05.848Z</time>
</trkpt>
<trkpt lat="-28.2352425" lon="152.4967693">
<ele>604.287</ele>
<time>2015-12-05T01:17:07.280Z</time>
</trkpt>
<trkpt lat="-28.2351261" lon="152.4968572">
<ele>598.515</ele>
<time>2015-12-05T01:17:08.753Z</time>
</trkpt>
<trkpt lat="-28.2348923" lon="152.4967093">
<ele>593.180</ele>
<time>2015-12-05T01:17:12.247Z</time>
</trkpt>
<trkpt lat="-28.2347561" lon="152.4966402">
<ele>589.404</ele>
<time>2015-12-05T01:17:14.288Z</time>
</trkpt>
<trkpt lat="-28.2346418" lon="152.4965659">
<ele>586.791</ele>
<time>2015-12-05T01:17:15.944Z</time>
</trkpt>
<trkpt lat="-28.2345475" lon="152.4965939">
<ele>584.140</ele>
<time>2015-12-05T01:17:17.228Z</time>
</trkpt>
<trkpt lat="-28.2345265" lon="152.4967366">
<ele>580.908</ele>
<time>2015-12-05T01:17:19.144Z</time>
</trkpt>
<trkpt lat="-28.2346274" lon="152.4970420">
<ele>577.619</ele>
<time>2015-12-05T01:17:24.060Z</time>
</trkpt>
<trkpt lat="-28.2346778" lon="152.4972689">
<ele>574.885</ele>
<time>2015-12-05T01:17:26.665Z</time>
</trkpt>
<trkpt lat="-28.2347419" lon="152.4974768">
<ele>572.923</ele>
<time>2015-12-05T01:17:28.658Z</time>
</trkpt>
<trkpt lat="-28.2347215" lon="152.4977054">
<ele>571.400</ele>
<time>2015-12-05T01:17:30.854Z</time>
</trkpt>
<trkpt lat="-28.2345913" lon="152.4978223">
<ele>569.318</ele>
<time>2015-12-05T01:17:32.838Z</time>
</trkpt>
<trkpt lat="-28.2343561" lon="152.4978129">
<ele>566.405</ele>
<time>2015-12-05T01:17:36.020Z</time>
</trkpt>
<trkpt lat="-28.2341172" lon="152.4978273">
<ele>563.459</ele>
<time>2015-12-05T01:17:39.132Z</time>
</trkpt>
<trkpt lat="-28.2338781" lon="152.4978401">
<ele>560.819</ele>
<time>2015-12-05T01:17:42.119Z</time>
</trkpt>
<trkpt lat="-28.2337591" lon="152.4978567">
<ele>557.893</ele>
<time>2015-12-05T01:17:43.604Z</time>
</trkpt>
<trkpt lat="-28.2336624" lon="152.4979479">
<ele>554.508</ele>
<time>2015-12-05T01:17:45.274Z</time>
</trkpt>
<trkpt lat="-28.2334908" lon="152.4982207">
<ele>551.173</ele>
<time>2015-12-05T01:17:49.394Z</time>
</trkpt>
<trkpt lat="-28.2334317" lon="152.4984282">
<ele>548.058</ele>
<time>2015-12-05T01:17:51.770Z</time>
</trkpt>
<trkpt lat="-28.2335373" lon="152.4987097">
<ele>544.886</ele>
<time>2015-12-05T01:17:54.896Z</time>
</trkpt>
<trkpt lat="-28.2337769" lon="152.4989200">
<ele>541.536</ele>
<time>2015-12-05T01:17:58.296Z</time>
</trkpt>
<trkpt lat="-28.2340104" lon="152.4989615">
<ele>537.934</ele>
<time>2015-12-05T01:18:00.697Z</time>
</trkpt>
<trkpt lat="-28.2341750" lon="152.4989825">
<ele>534.167</ele>
<time>2015-12-05T01:18:02.286Z</time>
</trkpt>
<trkpt lat="-28.2344071" lon="152.4990665">
<ele>530.458</ele>
<time>2015-12-05T01:18:04.797Z</time>
</trkpt>
<trkpt lat="-28.2344672" lon="152.4992094">
<ele>526.549</ele>
<time>2015-12-05T01:18:06.342Z</time>
</trkpt>
<trkpt lat="-28.2343504" lon="152.4993395">
<ele>522.284</ele>
<time>2015-12-05T01:18:08.527Z</time>
</trkpt>
<trkpt lat="-28.2342065" lon="152.4994103">
<ele>518.429</ele>
<time>2015-12-05T01:18:10.827Z</time>
</trkpt>
<trkpt lat="-28.2340299" lon="152.4995069">
<ele>515.631</ele>
<time>2015-12-05T01:18:13.306Z</time>
</trkpt>
<trkpt lat="-28.2338327" lon="152.4995815">
<ele>513.655</ele>
<time>2015-12-05T01:18:15.504Z</time>
</trkpt>
<trkpt lat="-28.2335965" lon="152.4997886">
<ele>511.796</ele>
<time>2015-12-05T01:18:18.386Z</time>
</trkpt>
<trkpt lat="-28.2334480" lon="152.4999816">
<ele>509.265</ele>
<time>2015-12-05T01:18:20.497Z</time>
</trkpt>
<trkpt lat="-28.2333379" lon="152.5002104">
<ele>506.092</ele>
<time>2015-12-05T01:18:22.558Z</time>
</trkpt>
<trkpt lat="-28.2331130" lon="152.5005225">
<ele>502.913</ele>
<time>2015-12-05T01:18:25.568Z</time>
</trkpt>
<trkpt lat="-28.2328334" lon="152.5007859">
<ele>499.381</ele>
<time>2015-12-05T01:18:28.578Z</time>
</trkpt>
<trkpt lat="-28.2326448" lon="152.5008966">
<ele>494.748</ele>
<time>2015-12-05T01:18:30.378Z</time>
</trkpt>
<trkpt lat="-28.2324140" lon="152.5010203">
<ele>489.708</ele>
<time>2015-12-05T01:18:32.817Z</time>
</trkpt>
<trkpt lat="-28.2322806" lon="152.5008693">
<ele>485.030</ele>
<time>2015-12-05T01:18:34.892Z</time>
</trkpt>
<trkpt lat="-28.2321625" lon="152.5005610">
<ele>480.602</ele>
<time>2015-12-05T01:18:38.374Z</time>
</trkpt>
<trkpt lat="-28.2320491" lon="152.5001762">
<ele>476.619</ele>
<time>2015-12-05T01:18:41.637Z</time>
</trkpt>
<trkpt lat="-28.2319289" lon="152.4997684">
<ele>473.504</ele>
<time>2015-12-05T01:18:44.644Z</time>
</trkpt>
<trkpt lat="-28.2318406" lon="152.4995296">
<ele>470.656</ele>
<time>2015-12-05T01:18:46.427Z</time>
</trkpt>
<trkpt lat="-28.2317345" lon="152.4991293">
<ele>467.521</ele>
<time>2015-12-05T01:18:49.401Z</time>
</trkpt>
<trkpt lat="-28.2316839" lon="152.4987693">
<ele>464.166</ele>
<time>2015-12-05T01:18:52.178Z</time>
</trkpt>
<trkpt lat="-28.2316050" lon="152.4985872">
<ele>460.171</ele>
<time>2015-12-05T01:18:53.965Z</time>
</trkpt>
<trkpt lat="-28.2313407" lon="152.4987008">
<ele>454.944</ele>
<time>2015-12-05T01:18:57.451Z</time>
</trkpt>
<trkpt lat="-28.2312040" lon="152.4987148">
<ele>449.376</ele>
<time>2015-12-05T01:18:59.394Z</time>
</trkpt>
<trkpt lat="-28.2312135" lon="152.4991370">
<ele>445.027</ele>
<time>2015-12-05T01:19:04.312Z</time>
</trkpt>
<trkpt lat="-28.2312121" lon="152.4994276">
<ele>442.504</ele>
<time>2015-12-05T01:19:06.823Z</time>
</trkpt>
<trkpt lat="-28.2311687" lon="152.4998449">
<ele>441.245</ele>
<time>2015-12-05T01:19:09.865Z</time>
</trkpt>
<trkpt lat="-28.2311447" lon="152.5001515">
<ele>440.350</ele>
<time>2015-12-05T01:19:11.970Z</time>
</trkpt>
<trkpt lat="-28.2310846" lon="152.5005322">
<ele>439.313</ele>
<time>2015-12-05T01:19:14.721Z</time>
</trkpt>
<trkpt lat="-28.2310093" lon="152.5009011">
<ele>438.043</ele>
<time>2015-12-05T01:19:17.587Z</time>
</trkpt>
<trkpt lat="-28.2307608" lon="152.5012619">
<ele>436.347</ele>
<time>2015-12-05T01:19:20.989Z</time>
</trkpt>
<trkpt lat="-28.2306294" lon="152.5014725">
<ele>434.153</ele>
<time>2015-12-05T01:19:22.906Z</time>
</trkpt>
<trkpt lat="-28.2305313" lon="152.5016841">
<ele>431.821</ele>
<time>2015-12-05T01:19:24.826Z</time>
</trkpt>
<trkpt lat="-28.2303438" lon="152.5019267">
<ele>429.775</ele>
<time>2015-12-05T01:19:27.593Z</time>
</trkpt>
<trkpt lat="-28.2301683" lon="152.5020784">
<ele>428.131</ele>
<time>2015-12-05T01:19:29.660Z</time>
</trkpt>
<trkpt lat="-28.2299675" lon="152.5022668">
<ele>426.905</ele>
<time>2015-12-05T01:19:31.857Z</time>
</trkpt>
<trkpt lat="-28.2297743" lon="152.5026088">
<ele>425.962</ele>
<time>2015-12-05T01:19:34.717Z</time>
</trkpt>
<trkpt lat="-28.2296619" lon="152.5028789">
<ele>425.114</ele>
<time>2015-12-05T01:19:36.716Z</time>
</trkpt>
<trkpt lat="-28.2295285" lon="152.5031571">
<ele>424.289</ele>
<time>2015-12-05T01:19:38.789Z</time>
</trkpt>
<trkpt lat="-28.2293210" lon="152.5035329">
<ele>423.493</ele>
<time>2015-12-05T01:19:41.738Z</time>
</trkpt>
<trkpt lat="-28.2291697" lon="152.5039343">
<ele>422.380</ele>
<time>2015-12-05T01:19:44.756Z</time>
</trkpt>
<trkpt lat="-28.2291279" lon="152.5043613">
<ele>420.265</ele>
<time>2015-12-05T01:19:47.788Z</time>
</trkpt>
<trkpt lat="-28.2291228" lon="152.5047802">
<ele>417.244</ele>
<time>2015-12-05T01:19:50.819Z</time>
</trkpt>
<trkpt lat="-28.2290397" lon="152.5051384">
<ele>413.973</ele>
<time>2015-12-05T01:19:53.667Z</time>
</trkpt>
<trkpt lat="-28.2288917" lon="152.5053391">
<ele>410.019</ele>
<time>2015-12-05T01:19:55.693Z</time>
</trkpt>
<trkpt lat="-28.2285827" lon="152.5056033">
<ele>405.035</ele>
<time>2015-12-05T01:19:58.902Z</time>
</trkpt>
<trkpt lat="-28.2284188" lon="152.5058096">
<ele>400.132</ele>
<time>2015-12-05T01:20:00.989Z</time>
</trkpt>
<trkpt lat="-28.2282913" lon="152.5061061">
<ele>395.799</ele>
<time>2015-12-05T01:20:03.854Z</time>
</trkpt>
<trkpt lat="-28.2283044" lon="152.5063269">
<ele>391.009</ele>
<time>2015-12-05T01:20:06.315Z</time>
</trkpt>
<trkpt lat="-28.2283258" lon="152.5064482">
<ele>385.180</ele>
<time>2015-12-05T01:20:08.089Z</time>
</trkpt>
<trkpt lat="-28.2283192" lon="152.5066463">
<ele>379.363</ele>
<time>2015-12-05T01:20:10.540Z</time>
</trkpt>
<trkpt lat="-28.2282833" lon="152.5070533">
<ele>375.152</ele>
<time>2015-12-05T01:20:14.119Z</time>
</trkpt>
<trkpt lat="-28.2282469" lon="152.5074811">
<ele>373.000</ele>
<time>2015-12-05T01:20:17.163Z</time>
</trkpt>
<trkpt lat="-28.2282891" lon="152.5079332">
<ele>371.745</ele>
<time>2015-12-05T01:20:20.187Z</time>
</trkpt>
<trkpt lat="-28.2284218" lon="152.5083647">
<ele>369.734</ele>
<time>2015-12-05T01:20:23.251Z</time>
</trkpt>
<trkpt lat="-28.2285965" lon="152.5085878">
<ele>366.238</ele>
<time>2015-12-05T01:20:25.342Z</time>
</trkpt>
<trkpt lat="-28.2287902" lon="152.5087711">
<ele>361.935</ele>
<time>2015-12-05T01:20:27.521Z</time>
</trkpt>
<trkpt lat="-28.2289262" lon="152.5089542">
<ele>358.073</ele>
<time>2015-12-05T01:20:29.647Z</time>
</trkpt>
<trkpt lat="-28.2290043" lon="152.5092353">
<ele>355.276</ele>
<time>2015-12-05T01:20:32.539Z</time>
</trkpt>
<trkpt lat="-28.2288217" lon="152.5093779">
<ele>353.032</ele>
<time>2015-12-05T01:20:34.953Z</time>
</trkpt>
<trkpt lat="-28.2286157" lon="152.5094616">
<ele>350.880</ele>
<time>2015-12-05T01:20:36.924Z</time>
</trkpt>
<trkpt lat="-28.2282718" lon="152.5095852">
<ele>349.102</ele>
<time>2015-12-05T01:20:39.999Z</time>
</trkpt>
<trkpt lat="-28.2280529" lon="152.5097087">
<ele>347.913</ele>
<time>2015-12-05T01:20:42.000Z</time>
</trkpt>
<trkpt lat="-28.2278420" lon="152.5098550">
<ele>347.167</ele>
<time>2015-12-05T01:20:44.150Z</time>
</trkpt>
<trkpt lat="-28.2276045" lon="152.5100929">
<ele>346.822</ele>
<time>2015-12-05T01:20:47.444Z</time>
</trkpt>
<trkpt lat="-28.2274366" lon="152.5102285">
<ele>346.395</ele>
<time>2015-12-05T01:20:50.457Z</time>
</trkpt>
<trkpt lat="-28.2273345" lon="152.5103439">
<ele>345.147</ele>
<time>2015-12-05T01:20:52.849Z</time>
</trkpt>
<trkpt lat="-28.2272427" lon="152.5104348">
<ele>343.334</ele>
<time>2015-12-05T01:20:54.658Z</time>
</trkpt>
<trkpt lat="-28.2270322" lon="152.5105903">
<ele>341.970</ele>
<time>2015-12-05T01:20:57.756Z</time>
</trkpt>
<trkpt lat="-28.2268022" lon="152.5107163">
<ele>341.620</ele>
<time>2015-12-05T01:21:00.558Z</time>
</trkpt>
<trkpt lat="-28.2266131" lon="152.5107933">
<ele>342.152</ele>
<time>2015-12-05T01:21:02.618Z</time>
</trkpt>
<trkpt lat="-28.2264323" lon="152.5108944">
<ele>343.055</ele>
<time>2015-12-05T01:21:04.948Z</time>
</trkpt>
<trkpt lat="-28.2262523" lon="152.5110293">
<ele>343.729</ele>
<time>2015-12-05T01:21:08.250Z</time>
</trkpt>
<trkpt lat="-28.2261421" lon="152.5110999">
<ele>343.771</ele>
<time>2015-12-05T01:21:10.795Z</time>
</trkpt>
<trkpt lat="-28.2260686" lon="152.5111755">
<ele>343.058</ele>
<time>2015-12-05T01:21:12.471Z</time>
</trkpt>
<trkpt lat="-28.2258296" lon="152.5113566">
<ele>341.966</ele>
<time>2015-12-05T01:21:15.646Z</time>
</trkpt>
<trkpt lat="-28.2255534" lon="152.5116355">
<ele>341.433</ele>
<time>2015-12-05T01:21:18.750Z</time>
</trkpt>
<trkpt lat="-28.2253640" lon="152.5118363">
<ele>341.991</ele>
<time>2015-12-05T01:21:20.706Z</time>
</trkpt>
<trkpt lat="-28.2251755" lon="152.5120447">
<ele>343.024</ele>
<time>2015-12-05T01:21:22.627Z</time>
</trkpt>
<trkpt lat="-28.2248993" lon="152.5123796">
<ele>343.436</ele>
<time>2015-12-05T01:21:25.504Z</time>
</trkpt>
<trkpt lat="-28.2247001" lon="152.5126205">
<ele>342.677</ele>
<time>2015-12-05T01:21:27.483Z</time>
</trkpt>
<trkpt lat="-28.2243781" lon="152.5129719">
<ele>341.232</ele>
<time>2015-12-05T01:21:30.399Z</time>
</trkpt>
<trkpt lat="-28.2239690" lon="152.5133113">
<ele>339.926</ele>
<time>2015-12-05T01:21:33.522Z</time>
</trkpt>
<trkpt lat="-28.2235129" lon="152.5135641">
<ele>338.889</ele>
<time>2015-12-05T01:21:36.583Z</time>
</trkpt>
<trkpt lat="-28.2232153" lon="152.5137191">
<ele>337.567</ele>
<time>2015-12-05T01:21:38.591Z</time>
</trkpt>
<trkpt lat="-28.2229328" lon="152.5139020">
<ele>335.588</ele>
<time>2015-12-05T01:21:40.633Z</time>
</trkpt>
<trkpt lat="-28.2225470" lon="152.5142097">
<ele>333.206</ele>
<time>2015-12-05T01:21:43.753Z</time>
</trkpt>
<trkpt lat="-28.2223007" lon="152.5143749">
<ele>330.940</ele>
<time>2015-12-05T01:21:45.903Z</time>
</trkpt>
<trkpt lat="-28.2219704" lon="152.5145144">
<ele>329.121</ele>
<time>2015-12-05T01:21:48.645Z</time>
</trkpt>
<trkpt lat="-28.2217371" lon="152.5146770">
<ele>327.607</ele>
<time>2015-12-05T01:21:50.563Z</time>
</trkpt>
<trkpt lat="-28.2214821" lon="152.5148823">
<ele>326.189</ele>
<time>2015-12-05T01:21:52.510Z</time>
</trkpt>
<trkpt lat="-28.2210868" lon="152.5152763">
<ele>325.301</ele>
<time>2015-12-05T01:21:55.585Z</time>
</trkpt>
<trkpt lat="-28.2208235" lon="152.5155702">
<ele>325.297</ele>
<time>2015-12-05T01:21:57.631Z</time>
</trkpt>
<trkpt lat="-28.2205763" lon="152.5158747">
<ele>325.776</ele>
<time>2015-12-05T01:21:59.609Z</time>
</trkpt>
<trkpt lat="-28.2202421" lon="152.5163700">
<ele>326.183</ele>
<time>2015-12-05T01:22:02.570Z</time>
</trkpt>
<trkpt lat="-28.2200409" lon="152.5167193">
<ele>326.114</ele>
<time>2015-12-05T01:22:04.581Z</time>
</trkpt>
<trkpt lat="-28.2198494" lon="152.5170426">
<ele>325.251</ele>
<time>2015-12-05T01:22:06.520Z</time>
</trkpt>
<trkpt lat="-28.2195933" lon="152.5175487">
<ele>323.799</ele>
<time>2015-12-05T01:22:09.567Z</time>
</trkpt>
<trkpt lat="-28.2194589" lon="152.5178714">
<ele>322.313</ele>
<time>2015-12-05T01:22:11.741Z</time>
</trkpt>
<trkpt lat="-28.2193664" lon="152.5181183">
<ele>320.845</ele>
<time>2015-12-05T01:22:13.933Z</time>
</trkpt>
<trkpt lat="-28.2193247" lon="152.5183977">
<ele>318.671</ele>
<time>2015-12-05T01:22:17.352Z</time>
</trkpt>
<trkpt lat="-28.2193415" lon="152.5185282">
<ele>315.104</ele>
<time>2015-12-05T01:22:20.521Z</time>
</trkpt>
<trkpt lat="-28.2194024" lon="152.5186325">
<ele>310.651</ele>
<time>2015-12-05T01:22:24.104Z</time>
</trkpt>
<trkpt lat="-28.2193847" lon="152.5187659">
<ele>306.970</ele>
<time>2015-12-05T01:22:27.997Z</time>
</trkpt>
<trkpt lat="-28.2193847" lon="152.5187659">
<ele>305.168</ele>
<time>2015-12-05T01:22:34.000Z</time>
</trkpt>
<trkpt lat="-28.2193847" lon="152.5187659">
<ele>304.951</ele>
<time>2015-12-05T01:22:35.241Z</time>
</trkpt>
<trkpt lat="-28.2194832" lon="152.5190044">
<ele>305.460</ele>
<time>2015-12-05T01:22:42.746Z</time>
</trkpt>
<trkpt lat="-28.2196356" lon="152.5193691">
<ele>306.201</ele>
<time>2015-12-05T01:22:46.784Z</time>
</trkpt>
<trkpt lat="-28.2196480" lon="152.5197269">
<ele>307.075</ele>
<time>2015-12-05T01:22:49.560Z</time>
</trkpt>
<trkpt lat="-28.2196119" lon="152.5199843">
<ele>308.041</ele>
<time>2015-12-05T01:22:51.366Z</time>
</trkpt>
<trkpt lat="-28.2194943" lon="152.5204417">
<ele>308.903</ele>
<time>2015-12-05T01:22:54.374Z</time>
</trkpt>
<trkpt lat="-28.2194128" lon="152.5207702">
<ele>309.455</ele>
<time>2015-12-05T01:22:56.426Z</time>
</trkpt>
<trkpt lat="-28.2192887" lon="152.5212264">
<ele>309.680</ele>
<time>2015-12-05T01:22:59.215Z</time>
</trkpt>
<trkpt lat="-28.2191469" lon="152.5217518">
<ele>309.564</ele>
<time>2015-12-05T01:23:02.239Z</time>
</trkpt>
<trkpt lat="-28.2190187" lon="152.5222931">
<ele>309.161</ele>
<time>2015-12-05T01:23:05.191Z</time>
</trkpt>
<trkpt lat="-28.2188715" lon="152.5228443">
<ele>308.582</ele>
<time>2015-12-05T01:23:08.181Z</time>
</trkpt>
<trkpt lat="-28.2187238" lon="152.5234011">
<ele>307.894</ele>
<time>2015-12-05T01:23:11.226Z</time>
</trkpt>
<trkpt lat="-28.2185858" lon="152.5239070">
<ele>306.714</ele>
<time>2015-12-05T01:23:14.017Z</time>
</trkpt>
<trkpt lat="-28.2184528" lon="152.5245028">
<ele>304.781</ele>
<time>2015-12-05T01:23:17.277Z</time>
</trkpt>
<trkpt lat="-28.2183195" lon="152.5250165">
<ele>302.814</ele>
<time>2015-12-05T01:23:20.252Z</time>
</trkpt>
<trkpt lat="-28.2182524" lon="152.5253482">
<ele>301.433</ele>
<time>2015-12-05T01:23:22.305Z</time>
</trkpt>
<trkpt lat="-28.2182085" lon="152.5256581">
<ele>299.983</ele>
<time>2015-12-05T01:23:24.317Z</time>
</trkpt>
<trkpt lat="-28.2181830" lon="152.5261061">
<ele>297.804</ele>
<time>2015-12-05T01:23:27.226Z</time>
</trkpt>
<trkpt lat="-28.2181861" lon="152.5264128">
<ele>295.410</ele>
<time>2015-12-05T01:23:29.210Z</time>
</trkpt>
<trkpt lat="-28.2181693" lon="152.5268691">
<ele>293.777</ele>
<time>2015-12-05T01:23:32.360Z</time>
</trkpt>
<trkpt lat="-28.2181104" lon="152.5272483">
<ele>292.791</ele>
<time>2015-12-05T01:23:35.277Z</time>
</trkpt>
<trkpt lat="-28.2180118" lon="152.5276049">
<ele>291.622</ele>
<time>2015-12-05T01:23:38.138Z</time>
</trkpt>
<trkpt lat="-28.2179127" lon="152.5278342">
<ele>290.263</ele>
<time>2015-12-05T01:23:40.000Z</time>
</trkpt>
<trkpt lat="-28.2176963" lon="152.5281575">
<ele>289.402</ele>
<time>2015-12-05T01:23:42.905Z</time>
</trkpt>
<trkpt lat="-28.2175461" lon="152.5283865">
<ele>289.726</ele>
<time>2015-12-05T01:23:44.892Z</time>
</trkpt>
<trkpt lat="-28.2173906" lon="152.5286228">
<ele>291.156</ele>
<time>2015-12-05T01:23:46.902Z</time>
</trkpt>
<trkpt lat="-28.2171638" lon="152.5290043">
<ele>292.565</ele>
<time>2015-12-05T01:23:50.023Z</time>
</trkpt>
<trkpt lat="-28.2169883" lon="152.5291956">
<ele>292.483</ele>
<time>2015-12-05T01:23:52.056Z</time>
</trkpt>
<trkpt lat="-28.2168105" lon="152.5293624">
<ele>290.428</ele>
<time>2015-12-05T01:23:54.224Z</time>
</trkpt>
<trkpt lat="-28.2166735" lon="152.5295198">
<ele>287.446</ele>
<time>2015-12-05T01:23:56.243Z</time>
</trkpt>
<trkpt lat="-28.2165212" lon="152.5296410">
<ele>284.821</ele>
<time>2015-12-05T01:23:58.262Z</time>
</trkpt>
<trkpt lat="-28.2163679" lon="152.5297504">
<ele>282.887</ele>
<time>2015-12-05T01:24:00.201Z</time>
</trkpt>
<trkpt lat="-28.2161183" lon="152.5299311">
<ele>281.643</ele>
<time>2015-12-05T01:24:03.320Z</time>
</trkpt>
<trkpt lat="-28.2158883" lon="152.5301176">
<ele>280.981</ele>
<time>2015-12-05T01:24:06.122Z</time>
</trkpt>
<trkpt lat="-28.2156883" lon="152.5302632">
<ele>280.686</ele>
<time>2015-12-05T01:24:08.195Z</time>
</trkpt>
<trkpt lat="-28.2154579" lon="152.5303700">
<ele>280.870</ele>
<time>2015-12-05T01:24:10.271Z</time>
</trkpt>
<trkpt lat="-28.2152636" lon="152.5305409">
<ele>281.773</ele>
<time>2015-12-05T01:24:12.407Z</time>
</trkpt>
<trkpt lat="-28.2151116" lon="152.5307313">
<ele>283.066</ele>
<time>2015-12-05T01:24:14.690Z</time>
</trkpt>
<trkpt lat="-28.2150296" lon="152.5309325">
<ele>283.798</ele>
<time>2015-12-05T01:24:17.051Z</time>
</trkpt>
<trkpt lat="-28.2150014" lon="152.5311783">
<ele>283.565</ele>
<time>2015-12-05T01:24:20.317Z</time>
</trkpt>
<trkpt lat="-28.2149980" lon="152.5313200">
<ele>282.523</ele>
<time>2015-12-05T01:24:21.759Z</time>
</trkpt>
<trkpt lat="-28.2149904" lon="152.5315158">
<ele>280.876</ele>
<time>2015-12-05T01:24:23.484Z</time>
</trkpt>
<trkpt lat="-28.2149701" lon="152.5319119">
<ele>279.219</ele>
<time>2015-12-05T01:24:26.324Z</time>
</trkpt>
<trkpt lat="-28.2149606" lon="152.5322680">
<ele>278.270</ele>
<time>2015-12-05T01:24:28.669Z</time>
</trkpt>
<trkpt lat="-28.2149612" lon="152.5327228">
<ele>278.328</ele>
<time>2015-12-05T01:24:31.909Z</time>
</trkpt>
<trkpt lat="-28.2149595" lon="152.5329950">
<ele>279.474</ele>
<time>2015-12-05T01:24:34.003Z</time>
</trkpt>
<trkpt lat="-28.2149793" lon="152.5333708">
<ele>281.137</ele>
<time>2015-12-05T01:24:37.238Z</time>
</trkpt>
<trkpt lat="-28.2150674" lon="152.5336450">
<ele>282.186</ele>
<time>2015-12-05T01:24:39.937Z</time>
</trkpt>
<trkpt lat="-28.2152460" lon="152.5337422">
<ele>282.196</ele>
<time>2015-12-05T01:24:42.003Z</time>
</trkpt>
<trkpt lat="-28.2154133" lon="152.5338813">
<ele>281.740</ele>
<time>2015-12-05T01:24:44.117Z</time>
</trkpt>
<trkpt lat="-28.2154586" lon="152.5342047">
<ele>281.401</ele>
<time>2015-12-05T01:24:46.666Z</time>
</trkpt>
<trkpt lat="-28.2154455" lon="152.5344848">
<ele>281.655</ele>
<time>2015-12-05T01:24:48.589Z</time>
</trkpt>
<trkpt lat="-28.2153341" lon="152.5349670">
<ele>283.549</ele>
<time>2015-12-05T01:24:51.544Z</time>
</trkpt>
<trkpt lat="-28.2152959" lon="152.5353717">
<ele>288.048</ele>
<time>2015-12-05T01:24:53.854Z</time>
</trkpt>
<trkpt lat="-28.2152515" lon="152.5356955">
<ele>293.809</ele>
<time>2015-12-05T01:24:55.748Z</time>
</trkpt>
<trkpt lat="-28.2151381" lon="152.5361948">
<ele>298.148</ele>
<time>2015-12-05T01:24:58.778Z</time>
</trkpt>
<trkpt lat="-28.2149734" lon="152.5364847">
<ele>300.319</ele>
<time>2015-12-05T01:25:00.779Z</time>
</trkpt>
<trkpt lat="-28.2146908" lon="152.5368932">
<ele>301.229</ele>
<time>2015-12-05T01:25:03.728Z</time>
</trkpt>
<trkpt lat="-28.2143725" lon="152.5372674">
<ele>301.150</ele>
<time>2015-12-05T01:25:06.685Z</time>
</trkpt>
<trkpt lat="-28.2139787" lon="152.5375583">
<ele>300.103</ele>
<time>2015-12-05T01:25:09.706Z</time>
</trkpt>
<trkpt lat="-28.2136729" lon="152.5376186">
<ele>298.305</ele>
<time>2015-12-05T01:25:11.676Z</time>
</trkpt>
<trkpt lat="-28.2131917" lon="152.5376098">
<ele>296.248</ele>
<time>2015-12-05T01:25:14.631Z</time>
</trkpt>
<trkpt lat="-28.2126919" lon="152.5375859">
<ele>294.590</ele>
<time>2015-12-05T01:25:17.711Z</time>
</trkpt>
<trkpt lat="-28.2122132" lon="152.5375718">
<ele>293.595</ele>
<time>2015-12-05T01:25:21.003Z</time>
</trkpt>
<trkpt lat="-28.2118167" lon="152.5375236">
<ele>292.297</ele>
<time>2015-12-05T01:25:24.140Z</time>
</trkpt>
<trkpt lat="-28.2115680" lon="152.5374801">
<ele>289.324</ele>
<time>2015-12-05T01:25:26.263Z</time>
</trkpt>
<trkpt lat="-28.2112209" lon="152.5374101">
<ele>284.629</ele>
<time>2015-12-05T01:25:30.334Z</time>
</trkpt>
<trkpt lat="-28.2109871" lon="152.5373765">
<ele>279.184</ele>
<time>2015-12-05T01:25:33.805Z</time>
</trkpt>
<trkpt lat="-28.2108140" lon="152.5374019">
<ele>273.382</ele>
<time>2015-12-05T01:25:36.155Z</time>
</trkpt>
<trkpt lat="-28.2106887" lon="152.5374722">
<ele>267.951</ele>
<time>2015-12-05T01:25:37.841Z</time>
</trkpt>
<trkpt lat="-28.2105684" lon="152.5376003">
<ele>264.311</ele>
<time>2015-12-05T01:25:39.671Z</time>
</trkpt>
<trkpt lat="-28.2103924" lon="152.5378287">
<ele>262.916</ele>
<time>2015-12-05T01:25:41.954Z</time>
</trkpt>
<trkpt lat="-28.2102341" lon="152.5380580">
<ele>263.093</ele>
<time>2015-12-05T01:25:43.825Z</time>
</trkpt>
<trkpt lat="-28.2099423" lon="152.5384547">
<ele>263.999</ele>
<time>2015-12-05T01:25:46.646Z</time>
</trkpt>
<trkpt lat="-28.2096278" lon="152.5389098">
<ele>264.832</ele>
<time>2015-12-05T01:25:49.609Z</time>
</trkpt>
<trkpt lat="-28.2094209" lon="152.5392192">
<ele>264.750</ele>
<time>2015-12-05T01:25:51.527Z</time>
</trkpt>
<trkpt lat="-28.2092151" lon="152.5395439">
<ele>263.375</ele>
<time>2015-12-05T01:25:53.453Z</time>
</trkpt>
<trkpt lat="-28.2090031" lon="152.5398792">
<ele>261.457</ele>
<time>2015-12-05T01:25:55.398Z</time>
</trkpt>
<trkpt lat="-28.2087052" lon="152.5404155">
<ele>260.142</ele>
<time>2015-12-05T01:25:58.390Z</time>
</trkpt>
<trkpt lat="-28.2083640" lon="152.5408933">
<ele>259.705</ele>
<time>2015-12-05T01:26:01.380Z</time>
</trkpt>
<trkpt lat="-28.2079888" lon="152.5413090">
<ele>259.433</ele>
<time>2015-12-05T01:26:04.464Z</time>
</trkpt>
<trkpt lat="-28.2076242" lon="152.5416725">
<ele>258.248</ele>
<time>2015-12-05T01:26:07.681Z</time>
</trkpt>
<trkpt lat="-28.2073840" lon="152.5418242">
<ele>255.654</ele>
<time>2015-12-05T01:26:09.607Z</time>
</trkpt>
<trkpt lat="-28.2071186" lon="152.5419139">
<ele>252.529</ele>
<time>2015-12-05T01:26:11.506Z</time>
</trkpt>
<trkpt lat="-28.2068281" lon="152.5419893">
<ele>250.197</ele>
<time>2015-12-05T01:26:13.505Z</time>
</trkpt>
<trkpt lat="-28.2063958" lon="152.5420930">
<ele>249.074</ele>
<time>2015-12-05T01:26:16.394Z</time>
</trkpt>
<trkpt lat="-28.2059328" lon="152.5422114">
<ele>248.782</ele>
<time>2015-12-05T01:26:19.536Z</time>
</trkpt>
<trkpt lat="-28.2056650" lon="152.5422836">
<ele>248.879</ele>
<time>2015-12-05T01:26:21.390Z</time>
</trkpt>
<trkpt lat="-28.2052454" lon="152.5424388">
<ele>249.004</ele>
<time>2015-12-05T01:26:24.236Z</time>
</trkpt>
<trkpt lat="-28.2047824" lon="152.5425599">
<ele>248.966</ele>
<time>2015-12-05T01:26:26.948Z</time>
</trkpt>
<trkpt lat="-28.2042068" lon="152.5427330">
<ele>248.788</ele>
<time>2015-12-05T01:26:29.941Z</time>
</trkpt>
<trkpt lat="-28.2038104" lon="152.5428865">
<ele>248.996</ele>
<time>2015-12-05T01:26:31.873Z</time>
</trkpt>
<trkpt lat="-28.2031908" lon="152.5431426">
<ele>249.899</ele>
<time>2015-12-05T01:26:34.883Z</time>
</trkpt>
<trkpt lat="-28.2027802" lon="152.5433260">
<ele>250.809</ele>
<time>2015-12-05T01:26:36.893Z</time>
</trkpt>
<trkpt lat="-28.2021703" lon="152.5435968">
<ele>251.058</ele>
<time>2015-12-05T01:26:39.911Z</time>
</trkpt>
<trkpt lat="-28.2015495" lon="152.5437695">
<ele>250.670</ele>
<time>2015-12-05T01:26:42.886Z</time>
</trkpt>
<trkpt lat="-28.2011296" lon="152.5437969">
<ele>249.739</ele>
<time>2015-12-05T01:26:44.829Z</time>
</trkpt>
<trkpt lat="-28.2004550" lon="152.5438293">
<ele>248.532</ele>
<time>2015-12-05T01:26:47.964Z</time>
</trkpt>
<trkpt lat="-28.2000473" lon="152.5438802">
<ele>247.512</ele>
<time>2015-12-05T01:26:49.926Z</time>
</trkpt>
<trkpt lat="-28.1996440" lon="152.5439328">
<ele>246.785</ele>
<time>2015-12-05T01:26:51.914Z</time>
</trkpt>
<trkpt lat="-28.1990504" lon="152.5440332">
<ele>246.198</ele>
<time>2015-12-05T01:26:54.875Z</time>
</trkpt>
<trkpt lat="-28.1986607" lon="152.5441337">
<ele>245.487</ele>
<time>2015-12-05T01:26:56.839Z</time>
</trkpt>
<trkpt lat="-28.1980642" lon="152.5442904">
<ele>244.423</ele>
<time>2015-12-05T01:26:59.818Z</time>
</trkpt>
<trkpt lat="-28.1976561" lon="152.5443225">
<ele>243.199</ele>
<time>2015-12-05T01:27:01.771Z</time>
</trkpt>
<trkpt lat="-28.1972404" lon="152.5443633">
<ele>242.229</ele>
<time>2015-12-05T01:27:03.763Z</time>
</trkpt>
<trkpt lat="-28.1966248" lon="152.5443690">
<ele>241.668</ele>
<time>2015-12-05T01:27:06.696Z</time>
</trkpt>
<trkpt lat="-28.1959976" lon="152.5442714">
<ele>241.069</ele>
<time>2015-12-05T01:27:09.691Z</time>
</trkpt>
<trkpt lat="-28.1955849" lon="152.5441897">
<ele>239.957</ele>
<time>2015-12-05T01:27:11.664Z</time>
</trkpt>
<trkpt lat="-28.1951635" lon="152.5440871">
<ele>238.715</ele>
<time>2015-12-05T01:27:13.718Z</time>
</trkpt>
<trkpt lat="-28.1947594" lon="152.5440035">
<ele>237.685</ele>
<time>2015-12-05T01:27:15.738Z</time>
</trkpt>
<trkpt lat="-28.1941849" lon="152.5438949">
<ele>236.253</ele>
<time>2015-12-05T01:27:18.659Z</time>
</trkpt>
<trkpt lat="-28.1936151" lon="152.5438881">
<ele>233.916</ele>
<time>2015-12-05T01:27:21.507Z</time>
</trkpt>
<trkpt lat="-28.1932038" lon="152.5439563">
<ele>231.332</ele>
<time>2015-12-05T01:27:23.497Z</time>
</trkpt>
<trkpt lat="-28.1927925" lon="152.5440689">
<ele>229.909</ele>
<time>2015-12-05T01:27:25.497Z</time>
</trkpt>
<trkpt lat="-28.1923875" lon="152.5441918">
<ele>230.071</ele>
<time>2015-12-05T01:27:27.480Z</time>
</trkpt>
<trkpt lat="-28.1919868" lon="152.5443348">
<ele>230.814</ele>
<time>2015-12-05T01:27:29.476Z</time>
</trkpt>
<trkpt lat="-28.1913827" lon="152.5444827">
<ele>231.090</ele>
<time>2015-12-05T01:27:32.408Z</time>
</trkpt>
<trkpt lat="-28.1909611" lon="152.5445017">
<ele>230.189</ele>
<time>2015-12-05T01:27:34.356Z</time>
</trkpt>
<trkpt lat="-28.1902968" lon="152.5445005">
<ele>228.223</ele>
<time>2015-12-05T01:27:37.386Z</time>
</trkpt>
<trkpt lat="-28.1898721" lon="152.5444934">
<ele>226.338</ele>
<time>2015-12-05T01:27:39.361Z</time>
</trkpt>
<trkpt lat="-28.1894574" lon="152.5444901">
<ele>225.330</ele>
<time>2015-12-05T01:27:41.342Z</time>
</trkpt>
<trkpt lat="-28.1888537" lon="152.5444772">
<ele>225.019</ele>
<time>2015-12-05T01:27:44.275Z</time>
</trkpt>
<trkpt lat="-28.1884580" lon="152.5444668">
<ele>224.692</ele>
<time>2015-12-05T01:27:46.218Z</time>
</trkpt>
<trkpt lat="-28.1880559" lon="152.5444625">
<ele>223.753</ele>
<time>2015-12-05T01:27:48.183Z</time>
</trkpt>
<trkpt lat="-28.1876382" lon="152.5444455">
<ele>222.465</ele>
<time>2015-12-05T01:27:50.199Z</time>
</trkpt>
<trkpt lat="-28.1872158" lon="152.5444344">
<ele>221.392</ele>
<time>2015-12-05T01:27:52.216Z</time>
</trkpt>
<trkpt lat="-28.1867970" lon="152.5444329">
<ele>220.769</ele>
<time>2015-12-05T01:27:54.229Z</time>
</trkpt>
<trkpt lat="-28.1861857" lon="152.5444180">
<ele>220.581</ele>
<time>2015-12-05T01:27:57.258Z</time>
</trkpt>
<trkpt lat="-28.1856272" lon="152.5444090">
<ele>220.633</ele>
<time>2015-12-05T01:28:00.239Z</time>
</trkpt>
<trkpt lat="-28.1851304" lon="152.5444470">
<ele>219.988</ele>
<time>2015-12-05T01:28:03.113Z</time>
</trkpt>
<trkpt lat="-28.1848325" lon="152.5446176">
<ele>217.659</ele>
<time>2015-12-05T01:28:05.010Z</time>
</trkpt>
<trkpt lat="-28.1843963" lon="152.5450326">
<ele>214.519</ele>
<time>2015-12-05T01:28:08.044Z</time>
</trkpt>
<trkpt lat="-28.1839081" lon="152.5454474">
<ele>212.453</ele>
<time>2015-12-05T01:28:11.223Z</time>
</trkpt>
<trkpt lat="-28.1834766" lon="152.5457432">
<ele>211.938</ele>
<time>2015-12-05T01:28:14.129Z</time>
</trkpt>
<trkpt lat="-28.1832386" lon="152.5459068">
<ele>211.805</ele>
<time>2015-12-05T01:28:16.059Z</time>
</trkpt>
<trkpt lat="-28.1829379" lon="152.5461264">
<ele>210.629</ele>
<time>2015-12-05T01:28:18.981Z</time>
</trkpt>
<trkpt lat="-28.1828180" lon="152.5462052">
<ele>208.238</ele>
<time>2015-12-05T01:28:20.478Z</time>
</trkpt>
<trkpt lat="-28.1827210" lon="152.5462661">
<ele>205.728</ele>
<time>2015-12-05T01:28:21.998Z</time>
</trkpt>
<trkpt lat="-28.1827210" lon="152.5462661">
<ele>204.116</ele>
<time>2015-12-05T01:28:27.998Z</time>
</trkpt>
<trkpt lat="-28.1827210" lon="152.5462661">
<ele>203.552</ele>
<time>2015-12-05T01:28:45.757Z</time>
</trkpt>
<trkpt lat="-28.1825359" lon="152.5460453">
<ele>203.804</ele>
<time>2015-12-05T01:28:51.475Z</time>
</trkpt>
<trkpt lat="-28.1824914" lon="152.5456826">
<ele>204.990</ele>
<time>2015-12-05T01:28:54.410Z</time>
</trkpt>
<trkpt lat="-28.1824066" lon="152.5451908">
<ele>207.363</ele>
<time>2015-12-05T01:28:57.607Z</time>
</trkpt>
<trkpt lat="-28.1823488" lon="152.5448638">
<ele>210.268</ele>
<time>2015-12-05T01:28:59.621Z</time>
</trkpt>
<trkpt lat="-28.1821485" lon="152.5444491">
<ele>212.478</ele>
<time>2015-12-05T01:29:02.364Z</time>
</trkpt>
<trkpt lat="-28.1817564" lon="152.5440367">
<ele>213.530</ele>
<time>2015-12-05T01:29:05.548Z</time>
</trkpt>
<trkpt lat="-28.1814630" lon="152.5437796">
<ele>214.446</ele>
<time>2015-12-05T01:29:07.542Z</time>
</trkpt>
<trkpt lat="-28.1810194" lon="152.5433706">
<ele>216.080</ele>
<time>2015-12-05T01:29:10.562Z</time>
</trkpt>
<trkpt lat="-28.1806866" lon="152.5431013">
<ele>217.967</ele>
<time>2015-12-05T01:29:12.690Z</time>
</trkpt>
<trkpt lat="-28.1803603" lon="152.5428633">
<ele>219.339</ele>
<time>2015-12-05T01:29:14.654Z</time>
</trkpt>
<trkpt lat="-28.1798023" lon="152.5426082">
<ele>220.043</ele>
<time>2015-12-05T01:29:17.596Z</time>
</trkpt>
<trkpt lat="-28.1793713" lon="152.5424772">
<ele>220.495</ele>
<time>2015-12-05T01:29:19.649Z</time>
</trkpt>
<trkpt lat="-28.1789332" lon="152.5423909">
<ele>221.611</ele>
<time>2015-12-05T01:29:21.637Z</time>
</trkpt>
<trkpt lat="-28.1782493" lon="152.5422624">
<ele>224.126</ele>
<time>2015-12-05T01:29:24.786Z</time>
</trkpt>
<trkpt lat="-28.1776074" lon="152.5422446">
<ele>228.826</ele>
<time>2015-12-05T01:29:27.875Z</time>
</trkpt>
<trkpt lat="-28.1772299" lon="152.5422706">
<ele>234.998</ele>
<time>2015-12-05T01:29:29.810Z</time>
</trkpt>
<trkpt lat="-28.1768536" lon="152.5423926">
<ele>240.117</ele>
<time>2015-12-05T01:29:31.820Z</time>
</trkpt>
<trkpt lat="-28.1764934" lon="152.5425614">
<ele>243.154</ele>
<time>2015-12-05T01:29:33.813Z</time>
</trkpt>
<trkpt lat="-28.1760039" lon="152.5429318">
<ele>245.288</ele>
<time>2015-12-05T01:29:36.807Z</time>
</trkpt>
<trkpt lat="-28.1757214" lon="152.5432534">
<ele>247.349</ele>
<time>2015-12-05T01:29:38.812Z</time>
</trkpt>
<trkpt lat="-28.1753652" lon="152.5438005">
<ele>249.216</ele>
<time>2015-12-05T01:29:41.765Z</time>
</trkpt>
<trkpt lat="-28.1750759" lon="152.5444256">
<ele>250.580</ele>
<time>2015-12-05T01:29:44.759Z</time>
</trkpt>
<trkpt lat="-28.1747881" lon="152.5450561">
<ele>251.275</ele>
<time>2015-12-05T01:29:47.755Z</time>
</trkpt>
<trkpt lat="-28.1745005" lon="152.5456772">
<ele>251.062</ele>
<time>2015-12-05T01:29:50.759Z</time>
</trkpt>
<trkpt lat="-28.1743226" lon="152.5460894">
<ele>249.660</ele>
<time>2015-12-05T01:29:52.767Z</time>
</trkpt>
<trkpt lat="-28.1741421" lon="152.5465023">
<ele>247.350</ele>
<time>2015-12-05T01:29:54.802Z</time>
</trkpt>
<trkpt lat="-28.1738059" lon="152.5470620">
<ele>244.727</ele>
<time>2015-12-05T01:29:57.770Z</time>
</trkpt>
<trkpt lat="-28.1735240" lon="152.5474027">
<ele>242.383</ele>
<time>2015-12-05T01:29:59.751Z</time>
</trkpt>
<trkpt lat="-28.1730299" lon="152.5478586">
<ele>240.783</ele>
<time>2015-12-05T01:30:02.787Z</time>
</trkpt>
<trkpt lat="-28.1724619" lon="152.5481697">
<ele>239.848</ele>
<time>2015-12-05T01:30:05.804Z</time>
</trkpt>
<trkpt lat="-28.1720692" lon="152.5483207">
<ele>239.047</ele>
<time>2015-12-05T01:30:07.777Z</time>
</trkpt>
<trkpt lat="-28.1714463" lon="152.5484195">
<ele>237.972</ele>
<time>2015-12-05T01:30:10.722Z</time>
</trkpt>
<trkpt lat="-28.1710061" lon="152.5484214">
<ele>236.509</ele>
<time>2015-12-05T01:30:12.729Z</time>
</trkpt>
<trkpt lat="-28.1705602" lon="152.5484141">
<ele>235.114</ele>
<time>2015-12-05T01:30:14.747Z</time>
</trkpt>
<trkpt lat="-28.1699088" lon="152.5484148">
<ele>234.139</ele>
<time>2015-12-05T01:30:17.703Z</time>
</trkpt>
<trkpt lat="-28.1692566" lon="152.5484096">
<ele>232.878</ele>
<time>2015-12-05T01:30:20.662Z</time>
</trkpt>
<trkpt lat="-28.1688091" lon="152.5484063">
<ele>230.492</ele>
<time>2015-12-05T01:30:22.700Z</time>
</trkpt>
<trkpt lat="-28.1681604" lon="152.5483898">
<ele>227.543</ele>
<time>2015-12-05T01:30:25.703Z</time>
</trkpt>
<trkpt lat="-28.1677451" lon="152.5483894">
<ele>224.744</ele>
<time>2015-12-05T01:30:27.669Z</time>
</trkpt>
<trkpt lat="-28.1673239" lon="152.5483886">
<ele>221.751</ele>
<time>2015-12-05T01:30:29.696Z</time>
</trkpt>
<trkpt lat="-28.1667189" lon="152.5484634">
<ele>218.705</ele>
<time>2015-12-05T01:30:32.681Z</time>
</trkpt>
<trkpt lat="-28.1663230" lon="152.5486023">
<ele>216.342</ele>
<time>2015-12-05T01:30:34.747Z</time>
</trkpt>
<trkpt lat="-28.1657689" lon="152.5488553">
<ele>214.520</ele>
<time>2015-12-05T01:30:37.639Z</time>
</trkpt>
<trkpt lat="-28.1653970" lon="152.5491055">
<ele>212.516</ele>
<time>2015-12-05T01:30:39.625Z</time>
</trkpt>
<trkpt lat="-28.1648496" lon="152.5495713">
<ele>210.161</ele>
<time>2015-12-05T01:30:42.636Z</time>
</trkpt>
<trkpt lat="-28.1644728" lon="152.5498768">
<ele>207.468</ele>
<time>2015-12-05T01:30:44.683Z</time>
</trkpt>
<trkpt lat="-28.1639444" lon="152.5503330">
<ele>204.565</ele>
<time>2015-12-05T01:30:47.743Z</time>
</trkpt>
<trkpt lat="-28.1636081" lon="152.5505955">
<ele>201.892</ele>
<time>2015-12-05T01:30:49.779Z</time>
</trkpt>
<trkpt lat="-28.1633051" lon="152.5508536">
<ele>199.330</ele>
<time>2015-12-05T01:30:51.706Z</time>
</trkpt>
<trkpt lat="-28.1629926" lon="152.5511353">
<ele>196.631</ele>
<time>2015-12-05T01:30:53.666Z</time>
</trkpt>
<trkpt lat="-28.1625672" lon="152.5516402">
<ele>194.359</ele>
<time>2015-12-05T01:30:56.569Z</time>
</trkpt>
<trkpt lat="-28.1621894" lon="152.5522637">
<ele>192.949</ele>
<time>2015-12-05T01:30:59.618Z</time>
</trkpt>
<trkpt lat="-28.1619595" lon="152.5526870">
<ele>192.350</ele>
<time>2015-12-05T01:31:01.629Z</time>
</trkpt>
<trkpt lat="-28.1616084" lon="152.5533045">
<ele>192.050</ele>
<time>2015-12-05T01:31:04.652Z</time>
</trkpt>
<trkpt lat="-28.1612483" lon="152.5538926">
<ele>191.528</ele>
<time>2015-12-05T01:31:07.641Z</time>
</trkpt>
<trkpt lat="-28.1610232" lon="152.5542786">
<ele>190.684</ele>
<time>2015-12-05T01:31:09.595Z</time>
</trkpt>
<trkpt lat="-28.1606746" lon="152.5548531">
<ele>189.673</ele>
<time>2015-12-05T01:31:12.530Z</time>
</trkpt>
<trkpt lat="-28.1604042" lon="152.5552301">
<ele>188.930</ele>
<time>2015-12-05T01:31:14.549Z</time>
</trkpt>
<trkpt lat="-28.1601194" lon="152.5555861">
<ele>188.768</ele>
<time>2015-12-05T01:31:16.556Z</time>
</trkpt>
<trkpt lat="-28.1596809" lon="152.5560972">
<ele>188.705</ele>
<time>2015-12-05T01:31:19.578Z</time>
</trkpt>
<trkpt lat="-28.1592532" lon="152.5566027">
<ele>188.153</ele>
<time>2015-12-05T01:31:22.589Z</time>
</trkpt>
<trkpt lat="-28.1589706" lon="152.5569420">
<ele>187.225</ele>
<time>2015-12-05T01:31:24.608Z</time>
</trkpt>
<trkpt lat="-28.1586881" lon="152.5572822">
<ele>186.199</ele>
<time>2015-12-05T01:31:26.648Z</time>
</trkpt>
<trkpt lat="-28.1582597" lon="152.5577657">
<ele>184.852</ele>
<time>2015-12-05T01:31:29.636Z</time>
</trkpt>
<trkpt lat="-28.1579483" lon="152.5580633">
<ele>183.274</ele>
<time>2015-12-05T01:31:31.610Z</time>
</trkpt>
<trkpt lat="-28.1574361" lon="152.5584680">
<ele>182.126</ele>
<time>2015-12-05T01:31:34.594Z</time>
</trkpt>
<trkpt lat="-28.1570653" lon="152.5587045">
<ele>181.872</ele>
<time>2015-12-05T01:31:36.605Z</time>
</trkpt>
<trkpt lat="-28.1566850" lon="152.5588949">
<ele>182.483</ele>
<time>2015-12-05T01:31:38.546Z</time>
</trkpt>
<trkpt lat="-28.1560667" lon="152.5591304">
<ele>183.506</ele>
<time>2015-12-05T01:31:41.561Z</time>
</trkpt>
<trkpt lat="-28.1554479" lon="152.5593691">
<ele>184.285</ele>
<time>2015-12-05T01:31:44.544Z</time>
</trkpt>
<trkpt lat="-28.1548332" lon="152.5596370">
<ele>184.296</ele>
<time>2015-12-05T01:31:47.491Z</time>
</trkpt>
<trkpt lat="-28.1544164" lon="152.5598741">
<ele>183.568</ele>
<time>2015-12-05T01:31:49.527Z</time>
</trkpt>
<trkpt lat="-28.1540089" lon="152.5601243">
<ele>182.742</ele>
<time>2015-12-05T01:31:51.579Z</time>
</trkpt>
<trkpt lat="-28.1534283" lon="152.5604892">
<ele>182.518</ele>
<time>2015-12-05T01:31:54.629Z</time>
</trkpt>
<trkpt lat="-28.1530707" lon="152.5607026">
<ele>183.466</ele>
<time>2015-12-05T01:31:56.608Z</time>
</trkpt>
<trkpt lat="-28.1527016" lon="152.5608750">
<ele>185.582</ele>
<time>2015-12-05T01:31:58.573Z</time>
</trkpt>
<trkpt lat="-28.1522984" lon="152.5609817">
<ele>188.278</ele>
<time>2015-12-05T01:32:00.576Z</time>
</trkpt>
<trkpt lat="-28.1516656" lon="152.5610926">
<ele>191.039</ele>
<time>2015-12-05T01:32:03.682Z</time>
</trkpt>
<trkpt lat="-28.1511127" lon="152.5612055">
<ele>193.246</ele>
<time>2015-12-05T01:32:06.443Z</time>
</trkpt>
<trkpt lat="-28.1507148" lon="152.5613431">
<ele>194.045</ele>
<time>2015-12-05T01:32:08.461Z</time>
</trkpt>
<trkpt lat="-28.1501302" lon="152.5616219">
<ele>193.145</ele>
<time>2015-12-05T01:32:11.472Z</time>
</trkpt>
<trkpt lat="-28.1495452" lon="152.5619462">
<ele>190.755</ele>
<time>2015-12-05T01:32:14.497Z</time>
</trkpt>
<trkpt lat="-28.1491512" lon="152.5621644">
<ele>187.128</ele>
<time>2015-12-05T01:32:16.510Z</time>
</trkpt>
<trkpt lat="-28.1485764" lon="152.5625167">
<ele>183.119</ele>
<time>2015-12-05T01:32:19.514Z</time>
</trkpt>
<trkpt lat="-28.1482137" lon="152.5627861">
<ele>180.059</ele>
<time>2015-12-05T01:32:21.510Z</time>
</trkpt>
<trkpt lat="-28.1478629" lon="152.5630863">
<ele>178.399</ele>
<time>2015-12-05T01:32:23.523Z</time>
</trkpt>
<trkpt lat="-28.1473503" lon="152.5635593">
<ele>177.596</ele>
<time>2015-12-05T01:32:26.538Z</time>
</trkpt>
<trkpt lat="-28.1468510" lon="152.5640401">
<ele>176.841</ele>
<time>2015-12-05T01:32:29.525Z</time>
</trkpt>
<trkpt lat="-28.1465215" lon="152.5643493">
<ele>175.656</ele>
<time>2015-12-05T01:32:31.525Z</time>
</trkpt>
<trkpt lat="-28.1460456" lon="152.5648113">
<ele>174.225</ele>
<time>2015-12-05T01:32:34.501Z</time>
</trkpt>
<trkpt lat="-28.1457168" lon="152.5651128">
<ele>172.460</ele>
<time>2015-12-05T01:32:36.504Z</time>
</trkpt>
<trkpt lat="-28.1452307" lon="152.5655743">
<ele>170.049</ele>
<time>2015-12-05T01:32:39.443Z</time>
</trkpt>
<trkpt lat="-28.1447723" lon="152.5661124">
<ele>167.402</ele>
<time>2015-12-05T01:32:42.378Z</time>
</trkpt>
<trkpt lat="-28.1444882" lon="152.5665357">
<ele>165.369</ele>
<time>2015-12-05T01:32:44.386Z</time>
</trkpt>
<trkpt lat="-28.1440735" lon="152.5671931">
<ele>164.444</ele>
<time>2015-12-05T01:32:47.422Z</time>
</trkpt>
<trkpt lat="-28.1437886" lon="152.5676183">
<ele>164.497</ele>
<time>2015-12-05T01:32:49.443Z</time>
</trkpt>
<trkpt lat="-28.1433655" lon="152.5682521">
<ele>164.660</ele>
<time>2015-12-05T01:32:52.517Z</time>
</trkpt>
<trkpt lat="-28.1429760" lon="152.5688437">
<ele>164.290</ele>
<time>2015-12-05T01:32:55.503Z</time>
</trkpt>
<trkpt lat="-28.1427255" lon="152.5692183">
<ele>163.112</ele>
<time>2015-12-05T01:32:57.473Z</time>
</trkpt>
<trkpt lat="-28.1422996" lon="152.5697276">
<ele>161.208</ele>
<time>2015-12-05T01:33:00.408Z</time>
</trkpt>
<trkpt lat="-28.1419608" lon="152.5700199">
<ele>159.423</ele>
<time>2015-12-05T01:33:02.408Z</time>
</trkpt>
<trkpt lat="-28.1414104" lon="152.5703814">
<ele>158.526</ele>
<time>2015-12-05T01:33:05.397Z</time>
</trkpt>
<trkpt lat="-28.1410391" lon="152.5706131">
<ele>158.243</ele>
<time>2015-12-05T01:33:07.410Z</time>
</trkpt>
<trkpt lat="-28.1406755" lon="152.5708379">
<ele>157.849</ele>
<time>2015-12-05T01:33:09.404Z</time>
</trkpt>
<trkpt lat="-28.1403259" lon="152.5710910">
<ele>157.060</ele>
<time>2015-12-05T01:33:11.403Z</time>
</trkpt>
<trkpt lat="-28.1398625" lon="152.5715657">
<ele>156.054</ele>
<time>2015-12-05T01:33:14.393Z</time>
</trkpt>
<trkpt lat="-28.1395861" lon="152.5719251">
<ele>155.039</ele>
<time>2015-12-05T01:33:16.387Z</time>
</trkpt>
<trkpt lat="-28.1392755" lon="152.5725453">
<ele>154.444</ele>
<time>2015-12-05T01:33:19.335Z</time>
</trkpt>
<trkpt lat="-28.1391034" lon="152.5729889">
<ele>154.567</ele>
<time>2015-12-05T01:33:21.268Z</time>
</trkpt>
<trkpt lat="-28.1389631" lon="152.5734646">
<ele>155.202</ele>
<time>2015-12-05T01:33:23.236Z</time>
</trkpt>
<trkpt lat="-28.1387548" lon="152.5742017">
<ele>156.027</ele>
<time>2015-12-05T01:33:26.249Z</time>
</trkpt>
<trkpt lat="-28.1386198" lon="152.5746698">
<ele>156.481</ele>
<time>2015-12-05T01:33:28.196Z</time>
</trkpt>
<trkpt lat="-28.1384225" lon="152.5753860">
<ele>156.193</ele>
<time>2015-12-05T01:33:31.198Z</time>
</trkpt>
<trkpt lat="-28.1383077" lon="152.5758652">
<ele>155.412</ele>
<time>2015-12-05T01:33:33.209Z</time>
</trkpt>
<trkpt lat="-28.1381799" lon="152.5763428">
<ele>154.334</ele>
<time>2015-12-05T01:33:35.226Z</time>
</trkpt>
<trkpt lat="-28.1380516" lon="152.5768123">
<ele>153.149</ele>
<time>2015-12-05T01:33:37.206Z</time>
</trkpt>
<trkpt lat="-28.1378684" lon="152.5775178">
<ele>152.483</ele>
<time>2015-12-05T01:33:40.162Z</time>
</trkpt>
<trkpt lat="-28.1377081" lon="152.5782506">
<ele>152.636</ele>
<time>2015-12-05T01:33:43.152Z</time>
</trkpt>
<trkpt lat="-28.1375596" lon="152.5790106">
<ele>153.316</ele>
<time>2015-12-05T01:33:46.189Z</time>
</trkpt>
<trkpt lat="-28.1374703" lon="152.5795027">
<ele>154.151</ele>
<time>2015-12-05T01:33:48.158Z</time>
</trkpt>
<trkpt lat="-28.1373861" lon="152.5800024">
<ele>154.793</ele>
<time>2015-12-05T01:33:50.186Z</time>
</trkpt>
<trkpt lat="-28.1372522" lon="152.5807189">
<ele>154.958</ele>
<time>2015-12-05T01:33:53.164Z</time>
</trkpt>
<trkpt lat="-28.1371321" lon="152.5814208">
<ele>154.429</ele>
<time>2015-12-05T01:33:56.168Z</time>
</trkpt>
<trkpt lat="-28.1370517" lon="152.5820989">
<ele>153.345</ele>
<time>2015-12-05T01:33:59.141Z</time>
</trkpt>
<trkpt lat="-28.1370613" lon="152.5825495">
<ele>152.385</ele>
<time>2015-12-05T01:34:01.125Z</time>
</trkpt>
<trkpt lat="-28.1371875" lon="152.5832195">
<ele>151.636</ele>
<time>2015-12-05T01:34:04.101Z</time>
</trkpt>
<trkpt lat="-28.1373545" lon="152.5836462">
<ele>150.721</ele>
<time>2015-12-05T01:34:06.072Z</time>
</trkpt>
<trkpt lat="-28.1376251" lon="152.5843072">
<ele>149.910</ele>
<time>2015-12-05T01:34:09.104Z</time>
</trkpt>
<trkpt lat="-28.1377996" lon="152.5847428">
<ele>149.556</ele>
<time>2015-12-05T01:34:11.098Z</time>
</trkpt>
<trkpt lat="-28.1380469" lon="152.5853842">
<ele>149.312</ele>
<time>2015-12-05T01:34:14.056Z</time>
</trkpt>
<trkpt lat="-28.1382507" lon="152.5860391">
<ele>148.824</ele>
<time>2015-12-05T01:34:17.015Z</time>
</trkpt>
<trkpt lat="-28.1383375" lon="152.5865075">
<ele>148.270</ele>
<time>2015-12-05T01:34:19.008Z</time>
</trkpt>
<trkpt lat="-28.1382473" lon="152.5872873">
<ele>148.046</ele>
<time>2015-12-05T01:34:22.170Z</time>
</trkpt>
<trkpt lat="-28.1381543" lon="152.5878053">
<ele>148.428</ele>
<time>2015-12-05T01:34:24.217Z</time>
</trkpt>
<trkpt lat="-28.1380310" lon="152.5883059">
<ele>149.370</ele>
<time>2015-12-05T01:34:26.229Z</time>
</trkpt>
<trkpt lat="-28.1378873" lon="152.5890674">
<ele>150.394</ele>
<time>2015-12-05T01:34:29.279Z</time>
</trkpt>
<trkpt lat="-28.1377863" lon="152.5895508">
<ele>151.078</ele>
<time>2015-12-05T01:34:31.228Z</time>
</trkpt>
<trkpt lat="-28.1376228" lon="152.5902691">
<ele>151.363</ele>
<time>2015-12-05T01:34:34.135Z</time>
</trkpt>
<trkpt lat="-28.1375099" lon="152.5907677">
<ele>151.475</ele>
<time>2015-12-05T01:34:36.164Z</time>
</trkpt>
<trkpt lat="-28.1374094" lon="152.5912550">
<ele>151.546</ele>
<time>2015-12-05T01:34:38.175Z</time>
</trkpt>
<trkpt lat="-28.1372592" lon="152.5919629">
<ele>151.248</ele>
<time>2015-12-05T01:34:41.171Z</time>
</trkpt>
<trkpt lat="-28.1371546" lon="152.5923937">
<ele>150.419</ele>
<time>2015-12-05T01:34:43.073Z</time>
</trkpt>
<trkpt lat="-28.1370246" lon="152.5930731">
<ele>149.237</ele>
<time>2015-12-05T01:34:46.041Z</time>
</trkpt>
<trkpt lat="-28.1369668" lon="152.5937828">
<ele>147.950</ele>
<time>2015-12-05T01:34:49.014Z</time>
</trkpt>
<trkpt lat="-28.1369905" lon="152.5942939">
<ele>146.984</ele>
<time>2015-12-05T01:34:51.049Z</time>
</trkpt>
<trkpt lat="-28.1371730" lon="152.5950259">
<ele>146.721</ele>
<time>2015-12-05T01:34:53.992Z</time>
</trkpt>
<trkpt lat="-28.1374501" lon="152.5957445">
<ele>147.141</ele>
<time>2015-12-05T01:34:56.996Z</time>
</trkpt>
<trkpt lat="-28.1376164" lon="152.5962261">
<ele>147.945</ele>
<time>2015-12-05T01:34:58.969Z</time>
</trkpt>
<trkpt lat="-28.1377823" lon="152.5970084">
<ele>148.611</ele>
<time>2015-12-05T01:35:02.013Z</time>
</trkpt>
<trkpt lat="-28.1378521" lon="152.5975236">
<ele>148.798</ele>
<time>2015-12-05T01:35:03.978Z</time>
</trkpt>
<trkpt lat="-28.1378965" lon="152.5980468">
<ele>148.337</ele>
<time>2015-12-05T01:35:05.981Z</time>
</trkpt>
<trkpt lat="-28.1379614" lon="152.5988235">
<ele>147.057</ele>
<time>2015-12-05T01:35:09.010Z</time>
</trkpt>
<trkpt lat="-28.1380076" lon="152.5993233">
<ele>144.933</ele>
<time>2015-12-05T01:35:10.992Z</time>
</trkpt>
<trkpt lat="-28.1381286" lon="152.6000615">
<ele>142.525</ele>
<time>2015-12-05T01:35:13.969Z</time>
</trkpt>
<trkpt lat="-28.1382596" lon="152.6005267">
<ele>140.763</ele>
<time>2015-12-05T01:35:15.909Z</time>
</trkpt>
<trkpt lat="-28.1384216" lon="152.6009919">
<ele>140.059</ele>
<time>2015-12-05T01:35:17.897Z</time>
</trkpt>
<trkpt lat="-28.1386230" lon="152.6014450">
<ele>140.082</ele>
<time>2015-12-05T01:35:19.907Z</time>
</trkpt>
<trkpt lat="-28.1389614" lon="152.6020969">
<ele>140.314</ele>
<time>2015-12-05T01:35:22.882Z</time>
</trkpt>
<trkpt lat="-28.1392063" lon="152.6025367">
<ele>140.447</ele>
<time>2015-12-05T01:35:24.905Z</time>
</trkpt>
<trkpt lat="-28.1394439" lon="152.6029795">
<ele>140.516</ele>
<time>2015-12-05T01:35:26.919Z</time>
</trkpt>
<trkpt lat="-28.1397911" lon="152.6036187">
<ele>140.845</ele>
<time>2015-12-05T01:35:29.863Z</time>
</trkpt>
<trkpt lat="-28.1400241" lon="152.6040394">
<ele>141.539</ele>
<time>2015-12-05T01:35:31.837Z</time>
</trkpt>
<trkpt lat="-28.1403374" lon="152.6046815">
<ele>142.219</ele>
<time>2015-12-05T01:35:34.778Z</time>
</trkpt>
<trkpt lat="-28.1405854" lon="152.6053739">
<ele>142.563</ele>
<time>2015-12-05T01:35:37.795Z</time>
</trkpt>
<trkpt lat="-28.1407020" lon="152.6058543">
<ele>142.858</ele>
<time>2015-12-05T01:35:39.809Z</time>
</trkpt>
<trkpt lat="-28.1407864" lon="152.6063537">
<ele>143.678</ele>
<time>2015-12-05T01:35:41.842Z</time>
</trkpt>
<trkpt lat="-28.1408318" lon="152.6068483">
<ele>145.481</ele>
<time>2015-12-05T01:35:43.809Z</time>
</trkpt>
<trkpt lat="-28.1408246" lon="152.6073418">
<ele>148.416</ele>
<time>2015-12-05T01:35:45.775Z</time>
</trkpt>
<trkpt lat="-28.1407563" lon="152.6080662">
<ele>152.183</ele>
<time>2015-12-05T01:35:48.733Z</time>
</trkpt>
<trkpt lat="-28.1406291" lon="152.6087588">
<ele>155.922</ele>
<time>2015-12-05T01:35:51.644Z</time>
</trkpt>
<trkpt lat="-28.1404848" lon="152.6092107">
<ele>159.193</ele>
<time>2015-12-05T01:35:53.614Z</time>
</trkpt>
<trkpt lat="-28.1403115" lon="152.6096420">
<ele>161.939</ele>
<time>2015-12-05T01:35:55.581Z</time>
</trkpt>
<trkpt lat="-28.1401204" lon="152.6100555">
<ele>163.162</ele>
<time>2015-12-05T01:35:57.554Z</time>
</trkpt>
<trkpt lat="-28.1397795" lon="152.6106525">
<ele>162.372</ele>
<time>2015-12-05T01:36:00.574Z</time>
</trkpt>
<trkpt lat="-28.1393409" lon="152.6111727">
<ele>160.887</ele>
<time>2015-12-05T01:36:03.604Z</time>
</trkpt>
<trkpt lat="-28.1390383" lon="152.6115283">
<ele>159.898</ele>
<time>2015-12-05T01:36:05.622Z</time>
</trkpt>
<trkpt lat="-28.1384904" lon="152.6120232">
<ele>159.497</ele>
<time>2015-12-05T01:36:08.699Z</time>
</trkpt>
<trkpt lat="-28.1381246" lon="152.6123600">
<ele>159.456</ele>
<time>2015-12-05T01:36:10.686Z</time>
</trkpt>
<trkpt lat="-28.1377493" lon="152.6127020">
<ele>159.136</ele>
<time>2015-12-05T01:36:12.697Z</time>
</trkpt>
<trkpt lat="-28.1373729" lon="152.6130366">
<ele>157.763</ele>
<time>2015-12-05T01:36:14.684Z</time>
</trkpt>
<trkpt lat="-28.1368051" lon="152.6135452">
<ele>155.448</ele>
<time>2015-12-05T01:36:17.694Z</time>
</trkpt>
<trkpt lat="-28.1362398" lon="152.6140450">
<ele>153.036</ele>
<time>2015-12-05T01:36:20.674Z</time>
</trkpt>
<trkpt lat="-28.1356714" lon="152.6145676">
<ele>150.873</ele>
<time>2015-12-05T01:36:23.712Z</time>
</trkpt>
<trkpt lat="-28.1353039" lon="152.6148963">
<ele>148.891</ele>
<time>2015-12-05T01:36:25.694Z</time>
</trkpt>
<trkpt lat="-28.1349426" lon="152.6152039">
<ele>146.907</ele>
<time>2015-12-05T01:36:27.669Z</time>
</trkpt>
<trkpt lat="-28.1344177" lon="152.6156682">
<ele>144.978</ele>
<time>2015-12-05T01:36:30.655Z</time>
</trkpt>
<trkpt lat="-28.1339068" lon="152.6161122">
<ele>143.650</ele>
<time>2015-12-05T01:36:33.585Z</time>
</trkpt>
<trkpt lat="-28.1335561" lon="152.6164207">
<ele>143.215</ele>
<time>2015-12-05T01:36:35.605Z</time>
</trkpt>
<trkpt lat="-28.1331998" lon="152.6167294">
<ele>143.139</ele>
<time>2015-12-05T01:36:37.633Z</time>
</trkpt>
<trkpt lat="-28.1328553" lon="152.6170330">
<ele>142.924</ele>
<time>2015-12-05T01:36:39.604Z</time>
</trkpt>
<trkpt lat="-28.1323289" lon="152.6174987">
<ele>142.348</ele>
<time>2015-12-05T01:36:42.598Z</time>
</trkpt>
<trkpt lat="-28.1319685" lon="152.6178193">
<ele>141.232</ele>
<time>2015-12-05T01:36:44.615Z</time>
</trkpt>
<trkpt lat="-28.1314270" lon="152.6183014">
<ele>139.825</ele>
<time>2015-12-05T01:36:47.606Z</time>
</trkpt>
<trkpt lat="-28.1310623" lon="152.6186181">
<ele>139.101</ele>
<time>2015-12-05T01:36:49.576Z</time>
</trkpt>
<trkpt lat="-28.1305012" lon="152.6191069">
<ele>139.486</ele>
<time>2015-12-05T01:36:52.590Z</time>
</trkpt>
<trkpt lat="-28.1301303" lon="152.6194360">
<ele>140.339</ele>
<time>2015-12-05T01:36:54.604Z</time>
</trkpt>
<trkpt lat="-28.1297760" lon="152.6197515">
<ele>140.999</ele>
<time>2015-12-05T01:36:56.568Z</time>
</trkpt>
<trkpt lat="-28.1292183" lon="152.6201738">
<ele>141.319</ele>
<time>2015-12-05T01:36:59.546Z</time>
</trkpt>
<trkpt lat="-28.1286175" lon="152.6205144">
<ele>141.375</ele>
<time>2015-12-05T01:37:02.533Z</time>
</trkpt>
<trkpt lat="-28.1279608" lon="152.6207810">
<ele>141.603</ele>
<time>2015-12-05T01:37:05.554Z</time>
</trkpt>
<trkpt lat="-28.1272583" lon="152.6209493">
<ele>142.532</ele>
<time>2015-12-05T01:37:08.560Z</time>
</trkpt>
<trkpt lat="-28.1267588" lon="152.6209983">
<ele>143.954</ele>
<time>2015-12-05T01:37:10.600Z</time>
</trkpt>
<trkpt lat="-28.1260200" lon="152.6210495">
<ele>145.082</ele>
<time>2015-12-05T01:37:13.602Z</time>
</trkpt>
<trkpt lat="-28.1253229" lon="152.6211122">
<ele>144.766</ele>
<time>2015-12-05T01:37:16.541Z</time>
</trkpt>
<trkpt lat="-28.1246470" lon="152.6211760">
<ele>141.969</ele>
<time>2015-12-05T01:37:19.501Z</time>
</trkpt>
<trkpt lat="-28.1241962" lon="152.6212624">
<ele>137.741</ele>
<time>2015-12-05T01:37:21.522Z</time>
</trkpt>
<trkpt lat="-28.1235434" lon="152.6214710">
<ele>134.546</ele>
<time>2015-12-05T01:37:24.518Z</time>
</trkpt>
<trkpt lat="-28.1231234" lon="152.6216567">
<ele>133.128</ele>
<time>2015-12-05T01:37:26.497Z</time>
</trkpt>
<trkpt lat="-28.1227014" lon="152.6218546">
<ele>132.612</ele>
<time>2015-12-05T01:37:28.505Z</time>
</trkpt>
<trkpt lat="-28.1220833" lon="152.6221424">
<ele>132.376</ele>
<time>2015-12-05T01:37:31.487Z</time>
</trkpt>
<trkpt lat="-28.1217049" lon="152.6223435">
<ele>131.872</ele>
<time>2015-12-05T01:37:33.418Z</time>
</trkpt>
<trkpt lat="-28.1211956" lon="152.6227497">
<ele>130.711</ele>
<time>2015-12-05T01:37:36.369Z</time>
</trkpt>
<trkpt lat="-28.1208990" lon="152.6231235">
<ele>129.405</ele>
<time>2015-12-05T01:37:38.411Z</time>
</trkpt>
<trkpt lat="-28.1206492" lon="152.6235982">
<ele>129.266</ele>
<time>2015-12-05T01:37:40.484Z</time>
</trkpt>
<trkpt lat="-28.1201771" lon="152.6243238">
<ele>131.107</ele>
<time>2015-12-05T01:37:43.626Z</time>
</trkpt>
<trkpt lat="-28.1199026" lon="152.6248495">
<ele>134.022</ele>
<time>2015-12-05T01:37:45.721Z</time>
</trkpt>
<trkpt lat="-28.1196288" lon="152.6253187">
<ele>136.223</ele>
<time>2015-12-05T01:37:47.731Z</time>
</trkpt>
<trkpt lat="-28.1192125" lon="152.6259514">
<ele>136.699</ele>
<time>2015-12-05T01:37:50.667Z</time>
</trkpt>
<trkpt lat="-28.1189235" lon="152.6263491">
<ele>135.420</ele>
<time>2015-12-05T01:37:52.632Z</time>
</trkpt>
<trkpt lat="-28.1185227" lon="152.6269700">
<ele>133.395</ele>
<time>2015-12-05T01:37:55.570Z</time>
</trkpt>
<trkpt lat="-28.1180982" lon="152.6276075">
<ele>132.535</ele>
<time>2015-12-05T01:37:58.606Z</time>
</trkpt>
<trkpt lat="-28.1178188" lon="152.6280299">
<ele>134.724</ele>
<time>2015-12-05T01:38:00.625Z</time>
</trkpt>
<trkpt lat="-28.1174054" lon="152.6286599">
<ele>139.771</ele>
<time>2015-12-05T01:38:03.678Z</time>
</trkpt>
<trkpt lat="-28.1170004" lon="152.6292133">
<ele>145.447</ele>
<time>2015-12-05T01:38:06.563Z</time>
</trkpt>
<trkpt lat="-28.1166829" lon="152.6295357">
<ele>150.282</ele>
<time>2015-12-05T01:38:08.499Z</time>
</trkpt>
<trkpt lat="-28.1163058" lon="152.6298566">
<ele>154.051</ele>
<time>2015-12-05T01:38:10.569Z</time>
</trkpt>
<trkpt lat="-28.1157191" lon="152.6303139">
<ele>156.624</ele>
<time>2015-12-05T01:38:13.666Z</time>
</trkpt>
<trkpt lat="-28.1153519" lon="152.6305973">
<ele>158.082</ele>
<time>2015-12-05T01:38:15.659Z</time>
</trkpt>
<trkpt lat="-28.1148306" lon="152.6310088">
<ele>158.437</ele>
<time>2015-12-05T01:38:18.629Z</time>
</trkpt>
<trkpt lat="-28.1145030" lon="152.6312598">
<ele>157.816</ele>
<time>2015-12-05T01:38:20.582Z</time>
</trkpt>
<trkpt lat="-28.1140501" lon="152.6316654">
<ele>156.669</ele>
<time>2015-12-05T01:38:23.552Z</time>
</trkpt>
<trkpt lat="-28.1138188" lon="152.6319859">
<ele>154.952</ele>
<time>2015-12-05T01:38:25.479Z</time>
</trkpt>
<trkpt lat="-28.1136514" lon="152.6323770">
<ele>152.252</ele>
<time>2015-12-05T01:38:27.443Z</time>
</trkpt>
<trkpt lat="-28.1135389" lon="152.6328220">
<ele>149.167</ele>
<time>2015-12-05T01:38:29.397Z</time>
</trkpt>
<trkpt lat="-28.1134087" lon="152.6335854">
<ele>146.974</ele>
<time>2015-12-05T01:38:32.466Z</time>
</trkpt>
<trkpt lat="-28.1132857" lon="152.6343586">
<ele>145.837</ele>
<time>2015-12-05T01:38:35.497Z</time>
</trkpt>
<trkpt lat="-28.1131845" lon="152.6350881">
<ele>144.538</ele>
<time>2015-12-05T01:38:38.412Z</time>
</trkpt>
<trkpt lat="-28.1130408" lon="152.6358114">
<ele>141.712</ele>
<time>2015-12-05T01:38:41.378Z</time>
</trkpt>
<trkpt lat="-28.1129739" lon="152.6363141">
<ele>137.201</ele>
<time>2015-12-05T01:38:43.403Z</time>
</trkpt>
<trkpt lat="-28.1128586" lon="152.6370462">
<ele>132.391</ele>
<time>2015-12-05T01:38:46.391Z</time>
</trkpt>
<trkpt lat="-28.1127732" lon="152.6377474">
<ele>128.477</ele>
<time>2015-12-05T01:38:49.425Z</time>
</trkpt>
<trkpt lat="-28.1126825" lon="152.6383095">
<ele>125.148</ele>
<time>2015-12-05T01:38:52.202Z</time>
</trkpt>
<trkpt lat="-28.1126185" lon="152.6388024">
<ele>122.176</ele>
<time>2015-12-05T01:38:54.957Z</time>
</trkpt>
<trkpt lat="-28.1125879" lon="152.6390558">
<ele>119.697</ele>
<time>2015-12-05T01:38:56.641Z</time>
</trkpt>
<trkpt lat="-28.1125273" lon="152.6391929">
<ele>117.195</ele>
<time>2015-12-05T01:38:57.907Z</time>
</trkpt>
<trkpt lat="-28.1124000" lon="152.6392623">
<ele>114.419</ele>
<time>2015-12-05T01:38:59.479Z</time>
</trkpt>
<trkpt lat="-28.1120503" lon="152.6393069">
<ele>112.153</ele>
<time>2015-12-05T01:39:03.412Z</time>
</trkpt>
<trkpt lat="-28.1115014" lon="152.6392905">
<ele>111.713</ele>
<time>2015-12-05T01:39:07.129Z</time>
</trkpt>
<trkpt lat="-28.1110873" lon="152.6393245">
<ele>114.302</ele>
<time>2015-12-05T01:39:09.226Z</time>
</trkpt>
<trkpt lat="-28.1106122" lon="152.6394294">
<ele>119.542</ele>
<time>2015-12-05T01:39:11.501Z</time>
</trkpt>
<trkpt lat="-28.1098642" lon="152.6396167">
<ele>125.233</ele>
<time>2015-12-05T01:39:14.911Z</time>
</trkpt>
<trkpt lat="-28.1093702" lon="152.6397417">
<ele>129.167</ele>
<time>2015-12-05T01:39:17.010Z</time>
</trkpt>
<trkpt lat="-28.1088677" lon="152.6398415">
<ele>130.452</ele>
<time>2015-12-05T01:39:19.081Z</time>
</trkpt>
<trkpt lat="-28.1081263" lon="152.6399953">
<ele>129.701</ele>
<time>2015-12-05T01:39:22.151Z</time>
</trkpt>
<trkpt lat="-28.1074069" lon="152.6401338">
<ele>127.862</ele>
<time>2015-12-05T01:39:25.135Z</time>
</trkpt>
<trkpt lat="-28.1069149" lon="152.6401716">
<ele>125.627</ele>
<time>2015-12-05T01:39:27.152Z</time>
</trkpt>
<trkpt lat="-28.1061803" lon="152.6401334">
<ele>123.817</ele>
<time>2015-12-05T01:39:30.166Z</time>
</trkpt>
<trkpt lat="-28.1054698" lon="152.6400880">
<ele>122.491</ele>
<time>2015-12-05T01:39:33.116Z</time>
</trkpt>
<trkpt lat="-28.1049888" lon="152.6400672">
<ele>121.065</ele>
<time>2015-12-05T01:39:35.159Z</time>
</trkpt>
<trkpt lat="-28.1042892" lon="152.6400791">
<ele>120.055</ele>
<time>2015-12-05T01:39:38.171Z</time>
</trkpt>
<trkpt lat="-28.1038438" lon="152.6401468">
<ele>120.057</ele>
<time>2015-12-05T01:39:40.109Z</time>
</trkpt>
<trkpt lat="-28.1031775" lon="152.6403509">
<ele>120.536</ele>
<time>2015-12-05T01:39:43.081Z</time>
</trkpt>
<trkpt lat="-28.1027430" lon="152.6405268">
<ele>121.104</ele>
<time>2015-12-05T01:39:45.072Z</time>
</trkpt>
<trkpt lat="-28.1021156" lon="152.6408780">
<ele>122.270</ele>
<time>2015-12-05T01:39:48.031Z</time>
</trkpt>
<trkpt lat="-28.1014823" lon="152.6413468">
<ele>124.163</ele>
<time>2015-12-05T01:39:51.077Z</time>
</trkpt>
<trkpt lat="-28.1010661" lon="152.6417063">
<ele>126.534</ele>
<time>2015-12-05T01:39:53.162Z</time>
</trkpt>
<trkpt lat="-28.1004969" lon="152.6421933">
<ele>129.088</ele>
<time>2015-12-05T01:39:56.080Z</time>
</trkpt>
<trkpt lat="-28.1001134" lon="152.6425119">
<ele>129.733</ele>
<time>2015-12-05T01:39:58.111Z</time>
</trkpt>
<trkpt lat="-28.0997455" lon="152.6428258">
<ele>127.090</ele>
<time>2015-12-05T01:40:00.110Z</time>
</trkpt>
<trkpt lat="-28.0991993" lon="152.6433004">
<ele>123.564</ele>
<time>2015-12-05T01:40:03.096Z</time>
</trkpt>
<trkpt lat="-28.0986414" lon="152.6437973">
<ele>121.339</ele>
<time>2015-12-05T01:40:06.122Z</time>
</trkpt>
<trkpt lat="-28.0982638" lon="152.6441275">
<ele>120.153</ele>
<time>2015-12-05T01:40:08.147Z</time>
</trkpt>
<trkpt lat="-28.0978936" lon="152.6444456">
<ele>119.732</ele>
<time>2015-12-05T01:40:10.158Z</time>
</trkpt>
<trkpt lat="-28.0973581" lon="152.6449005">
<ele>120.007</ele>
<time>2015-12-05T01:40:13.125Z</time>
</trkpt>
<trkpt lat="-28.0968349" lon="152.6453425">
<ele>120.487</ele>
<time>2015-12-05T01:40:16.069Z</time>
</trkpt>
<trkpt lat="-28.0964512" lon="152.6456111">
<ele>120.813</ele>
<time>2015-12-05T01:40:18.070Z</time>
</trkpt>
<trkpt lat="-28.0958182" lon="152.6459431">
<ele>121.288</ele>
<time>2015-12-05T01:40:21.089Z</time>
</trkpt>
<trkpt lat="-28.0953703" lon="152.6461279">
<ele>122.345</ele>
<time>2015-12-05T01:40:23.098Z</time>
</trkpt>
<trkpt lat="-28.0949111" lon="152.6463042">
<ele>123.715</ele>
<time>2015-12-05T01:40:25.125Z</time>
</trkpt>
<trkpt lat="-28.0942317" lon="152.6465443">
<ele>124.735</ele>
<time>2015-12-05T01:40:28.130Z</time>
</trkpt>
<trkpt lat="-28.0938142" lon="152.6467273">
<ele>125.151</ele>
<time>2015-12-05T01:40:30.103Z</time>
</trkpt>
<trkpt lat="-28.0934298" lon="152.6469536">
<ele>125.184</ele>
<time>2015-12-05T01:40:32.056Z</time>
</trkpt>
<trkpt lat="-28.0930663" lon="152.6472506">
<ele>125.513</ele>
<time>2015-12-05T01:40:34.031Z</time>
</trkpt>
<trkpt lat="-28.0924887" lon="152.6477369">
<ele>127.003</ele>
<time>2015-12-05T01:40:37.104Z</time>
</trkpt>
<trkpt lat="-28.0920945" lon="152.6480349">
<ele>129.868</ele>
<time>2015-12-05T01:40:39.089Z</time>
</trkpt>
<trkpt lat="-28.0916767" lon="152.6483097">
<ele>133.111</ele>
<time>2015-12-05T01:40:41.096Z</time>
</trkpt>
<trkpt lat="-28.0910429" lon="152.6487378">
<ele>135.532</ele>
<time>2015-12-05T01:40:44.159Z</time>
</trkpt>
<trkpt lat="-28.0906345" lon="152.6489859">
<ele>137.811</ele>
<time>2015-12-05T01:40:46.153Z</time>
</trkpt>
<trkpt lat="-28.0900780" lon="152.6493667">
<ele>141.375</ele>
<time>2015-12-05T01:40:49.079Z</time>
</trkpt>
<trkpt lat="-28.0895595" lon="152.6497360">
<ele>145.892</ele>
<time>2015-12-05T01:40:51.952Z</time>
</trkpt>
<trkpt lat="-28.0890820" lon="152.6502428">
<ele>150.061</ele>
<time>2015-12-05T01:40:54.980Z</time>
</trkpt>
<trkpt lat="-28.0886112" lon="152.6508049">
<ele>153.912</ele>
<time>2015-12-05T01:40:58.076Z</time>
</trkpt>
<trkpt lat="-28.0881910" lon="152.6513264">
<ele>158.302</ele>
<time>2015-12-05T01:41:00.989Z</time>
</trkpt>
<trkpt lat="-28.0879120" lon="152.6516469">
<ele>163.066</ele>
<time>2015-12-05T01:41:02.914Z</time>
</trkpt>
<trkpt lat="-28.0874739" lon="152.6521596">
<ele>167.076</ele>
<time>2015-12-05T01:41:05.936Z</time>
</trkpt>
<trkpt lat="-28.0871743" lon="152.6525027">
<ele>170.259</ele>
<time>2015-12-05T01:41:07.961Z</time>
</trkpt>
<trkpt lat="-28.0866750" lon="152.6529135">
<ele>173.110</ele>
<time>2015-12-05T01:41:10.936Z</time>
</trkpt>
<trkpt lat="-28.0862852" lon="152.6530708">
<ele>176.319</ele>
<time>2015-12-05T01:41:12.918Z</time>
</trkpt>
<trkpt lat="-28.0856401" lon="152.6531900">
<ele>180.192</ele>
<time>2015-12-05T01:41:15.890Z</time>
</trkpt>
<trkpt lat="-28.0849278" lon="152.6530852">
<ele>183.970</ele>
<time>2015-12-05T01:41:18.896Z</time>
</trkpt>
<trkpt lat="-28.0844276" lon="152.6529910">
<ele>186.611</ele>
<time>2015-12-05T01:41:20.929Z</time>
</trkpt>
<trkpt lat="-28.0836903" lon="152.6528461">
<ele>187.893</ele>
<time>2015-12-05T01:41:23.964Z</time>
</trkpt>
<trkpt lat="-28.0832200" lon="152.6527529">
<ele>187.557</ele>
<time>2015-12-05T01:41:25.974Z</time>
</trkpt>
<trkpt lat="-28.0825275" lon="152.6526482">
<ele>185.546</ele>
<time>2015-12-05T01:41:28.979Z</time>
</trkpt>
<trkpt lat="-28.0820808" lon="152.6526159">
<ele>182.865</ele>
<time>2015-12-05T01:41:30.916Z</time>
</trkpt>
<trkpt lat="-28.0813833" lon="152.6526575">
<ele>180.583</ele>
<time>2015-12-05T01:41:33.916Z</time>
</trkpt>
<trkpt lat="-28.0809415" lon="152.6527450">
<ele>178.818</ele>
<time>2015-12-05T01:41:35.848Z</time>
</trkpt>
<trkpt lat="-28.0804881" lon="152.6528278">
<ele>177.627</ele>
<time>2015-12-05T01:41:37.842Z</time>
</trkpt>
<trkpt lat="-28.0798086" lon="152.6529813">
<ele>176.869</ele>
<time>2015-12-05T01:41:40.829Z</time>
</trkpt>
<trkpt lat="-28.0793389" lon="152.6530965">
<ele>176.162</ele>
<time>2015-12-05T01:41:42.859Z</time>
</trkpt>
<trkpt lat="-28.0786416" lon="152.6532537">
<ele>175.775</ele>
<time>2015-12-05T01:41:45.849Z</time>
</trkpt>
<trkpt lat="-28.0781714" lon="152.6533484">
<ele>175.949</ele>
<time>2015-12-05T01:41:47.894Z</time>
</trkpt>
<trkpt lat="-28.0777272" lon="152.6534573">
<ele>176.169</ele>
<time>2015-12-05T01:41:49.871Z</time>
</trkpt>
<trkpt lat="-28.0770609" lon="152.6536090">
<ele>175.648</ele>
<time>2015-12-05T01:41:52.844Z</time>
</trkpt>
<trkpt lat="-28.0766001" lon="152.6537144">
<ele>174.392</ele>
<time>2015-12-05T01:41:54.870Z</time>
</trkpt>
<trkpt lat="-28.0759101" lon="152.6538775">
<ele>173.222</ele>
<time>2015-12-05T01:41:57.885Z</time>
</trkpt>
<trkpt lat="-28.0754577" lon="152.6539871">
<ele>172.326</ele>
<time>2015-12-05T01:41:59.899Z</time>
</trkpt>
<trkpt lat="-28.0748147" lon="152.6541222">
<ele>171.150</ele>
<time>2015-12-05T01:42:02.842Z</time>
</trkpt>
<trkpt lat="-28.0743962" lon="152.6541792">
<ele>169.292</ele>
<time>2015-12-05T01:42:04.793Z</time>
</trkpt>
<trkpt lat="-28.0739638" lon="152.6542181">
<ele>167.008</ele>
<time>2015-12-05T01:42:06.776Z</time>
</trkpt>
<trkpt lat="-28.0735225" lon="152.6541869">
<ele>165.210</ele>
<time>2015-12-05T01:42:08.769Z</time>
</trkpt>
<trkpt lat="-28.0728527" lon="152.6540844">
<ele>164.472</ele>
<time>2015-12-05T01:42:11.767Z</time>
</trkpt>
<trkpt lat="-28.0724087" lon="152.6539552">
<ele>164.314</ele>
<time>2015-12-05T01:42:13.781Z</time>
</trkpt>
<trkpt lat="-28.0719720" lon="152.6537869">
<ele>163.979</ele>
<time>2015-12-05T01:42:15.816Z</time>
</trkpt>
<trkpt lat="-28.0715815" lon="152.6535958">
<ele>163.267</ele>
<time>2015-12-05T01:42:17.721Z</time>
</trkpt>
<trkpt lat="-28.0710091" lon="152.6532057">
<ele>162.209</ele>
<time>2015-12-05T01:42:20.731Z</time>
</trkpt>
<trkpt lat="-28.0704694" lon="152.6527985">
<ele>160.781</ele>
<time>2015-12-05T01:42:23.634Z</time>
</trkpt>
<trkpt lat="-28.0700694" lon="152.6525172">
<ele>159.080</ele>
<time>2015-12-05T01:42:25.715Z</time>
</trkpt>
<trkpt lat="-28.0696907" lon="152.6522454">
<ele>156.976</ele>
<time>2015-12-05T01:42:27.696Z</time>
</trkpt>
<trkpt lat="-28.0693070" lon="152.6519977">
<ele>154.264</ele>
<time>2015-12-05T01:42:29.675Z</time>
</trkpt>
<trkpt lat="-28.0687271" lon="152.6517143">
<ele>150.923</ele>
<time>2015-12-05T01:42:32.520Z</time>
</trkpt>
<trkpt lat="-28.0680751" lon="152.6514905">
<ele>146.632</ele>
<time>2015-12-05T01:42:35.504Z</time>
</trkpt>
<trkpt lat="-28.0673068" lon="152.6513271">
<ele>141.724</ele>
<time>2015-12-05T01:42:38.773Z</time>
</trkpt>
<trkpt lat="-28.0668464" lon="152.6512532">
<ele>137.659</ele>
<time>2015-12-05T01:42:40.723Z</time>
</trkpt>
<trkpt lat="-28.0663956" lon="152.6511781">
<ele>135.072</ele>
<time>2015-12-05T01:42:42.696Z</time>
</trkpt>
<trkpt lat="-28.0659386" lon="152.6510818">
<ele>133.361</ele>
<time>2015-12-05T01:42:44.784Z</time>
</trkpt>
<trkpt lat="-28.0655411" lon="152.6509502">
<ele>131.962</ele>
<time>2015-12-05T01:42:46.718Z</time>
</trkpt>
<trkpt lat="-28.0649811" lon="152.6507162">
<ele>130.581</ele>
<time>2015-12-05T01:42:49.608Z</time>
</trkpt>
<trkpt lat="-28.0646518" lon="152.6505748">
<ele>128.978</ele>
<time>2015-12-05T01:42:51.399Z</time>
</trkpt>
<trkpt lat="-28.0640958" lon="152.6502982">
<ele>127.340</ele>
<time>2015-12-05T01:42:54.557Z</time>
</trkpt>
<trkpt lat="-28.0637453" lon="152.6501445">
<ele>125.794</ele>
<time>2015-12-05T01:42:56.525Z</time>
</trkpt>
<trkpt lat="-28.0634419" lon="152.6499952">
<ele>124.108</ele>
<time>2015-12-05T01:42:58.279Z</time>
</trkpt>
<trkpt lat="-28.0628760" lon="152.6497183">
<ele>122.190</ele>
<time>2015-12-05T01:43:01.490Z</time>
</trkpt>
<trkpt lat="-28.0624093" lon="152.6495542">
<ele>120.264</ele>
<time>2015-12-05T01:43:03.897Z</time>
</trkpt>
<trkpt lat="-28.0617691" lon="152.6493408">
<ele>118.240</ele>
<time>2015-12-05T01:43:07.073Z</time>
</trkpt>
<trkpt lat="-28.0613757" lon="152.6492837">
<ele>116.154</ele>
<time>2015-12-05T01:43:08.938Z</time>
</trkpt>
<trkpt lat="-28.0607406" lon="152.6492569">
<ele>114.520</ele>
<time>2015-12-05T01:43:11.931Z</time>
</trkpt>
<trkpt lat="-28.0603234" lon="152.6492362">
<ele>113.510</ele>
<time>2015-12-05T01:43:13.911Z</time>
</trkpt>
<trkpt lat="-28.0599027" lon="152.6492214">
<ele>112.573</ele>
<time>2015-12-05T01:43:15.908Z</time>
</trkpt>
<trkpt lat="-28.0592322" lon="152.6491972">
<ele>111.492</ele>
<time>2015-12-05T01:43:19.053Z</time>
</trkpt>
<trkpt lat="-28.0588161" lon="152.6491857">
<ele>110.831</ele>
<time>2015-12-05T01:43:21.015Z</time>
</trkpt>
<trkpt lat="-28.0582064" lon="152.6491878">
<ele>110.912</ele>
<time>2015-12-05T01:43:23.966Z</time>
</trkpt>
<trkpt lat="-28.0578068" lon="152.6491768">
<ele>111.245</ele>
<time>2015-12-05T01:43:25.946Z</time>
</trkpt>
<trkpt lat="-28.0573966" lon="152.6491623">
<ele>111.270</ele>
<time>2015-12-05T01:43:27.950Z</time>
</trkpt>
<trkpt lat="-28.0569765" lon="152.6491559">
<ele>110.777</ele>
<time>2015-12-05T01:43:29.957Z</time>
</trkpt>
<trkpt lat="-28.0565524" lon="152.6491501">
<ele>109.807</ele>
<time>2015-12-05T01:43:31.955Z</time>
</trkpt>
<trkpt lat="-28.0558931" lon="152.6491456">
<ele>108.604</ele>
<time>2015-12-05T01:43:35.007Z</time>
</trkpt>
<trkpt lat="-28.0552793" lon="152.6491153">
<ele>107.353</ele>
<time>2015-12-05T01:43:37.906Z</time>
</trkpt>
<trkpt lat="-28.0548754" lon="152.6490853">
<ele>105.798</ele>
<time>2015-12-05T01:43:39.900Z</time>
</trkpt>
<trkpt lat="-28.0542970" lon="152.6490501">
<ele>103.761</ele>
<time>2015-12-05T01:43:42.842Z</time>
</trkpt>
<trkpt lat="-28.0537371" lon="152.6490179">
<ele>101.827</ele>
<time>2015-12-05T01:43:45.814Z</time>
</trkpt>
<trkpt lat="-28.0531908" lon="152.6490739">
<ele>100.624</ele>
<time>2015-12-05T01:43:48.801Z</time>
</trkpt>
<trkpt lat="-28.0528467" lon="152.6492527">
<ele>100.088</ele>
<time>2015-12-05T01:43:50.781Z</time>
</trkpt>
<trkpt lat="-28.0525028" lon="152.6495152">
<ele>100.183</ele>
<time>2015-12-05T01:43:52.842Z</time>
</trkpt>
<trkpt lat="-28.0520137" lon="152.6499568">
<ele>101.110</ele>
<time>2015-12-05T01:43:55.815Z</time>
</trkpt>
<trkpt lat="-28.0516915" lon="152.6502569">
<ele>102.488</ele>
<time>2015-12-05T01:43:57.775Z</time>
</trkpt>
<trkpt lat="-28.0512020" lon="152.6507350">
<ele>103.534</ele>
<time>2015-12-05T01:44:00.775Z</time>
</trkpt>
<trkpt lat="-28.0506966" lon="152.6512171">
<ele>103.925</ele>
<time>2015-12-05T01:44:03.805Z</time>
</trkpt>
<trkpt lat="-28.0503660" lon="152.6515294">
<ele>103.931</ele>
<time>2015-12-05T01:44:05.809Z</time>
</trkpt>
<trkpt lat="-28.0498940" lon="152.6519790">
<ele>103.863</ele>
<time>2015-12-05T01:44:08.813Z</time>
</trkpt>
<trkpt lat="-28.0494462" lon="152.6523551">
<ele>103.841</ele>
<time>2015-12-05T01:44:11.673Z</time>
</trkpt>
<trkpt lat="-28.0490553" lon="152.6524727">
<ele>103.907</ele>
<time>2015-12-05T01:44:13.687Z</time>
</trkpt>
<trkpt lat="-28.0486054" lon="152.6525519">
<ele>104.324</ele>
<time>2015-12-05T01:44:15.786Z</time>
</trkpt>
<trkpt lat="-28.0481459" lon="152.6526207">
<ele>105.151</ele>
<time>2015-12-05T01:44:17.841Z</time>
</trkpt>
<trkpt lat="-28.0474770" lon="152.6527208">
<ele>105.626</ele>
<time>2015-12-05T01:44:20.861Z</time>
</trkpt>
<trkpt lat="-28.0470581" lon="152.6527904">
<ele>105.181</ele>
<time>2015-12-05T01:44:22.833Z</time>
</trkpt>
<trkpt lat="-28.0464371" lon="152.6528667">
<ele>104.430</ele>
<time>2015-12-05T01:44:25.830Z</time>
</trkpt>
<trkpt lat="-28.0458164" lon="152.6529633">
<ele>104.035</ele>
<time>2015-12-05T01:44:28.862Z</time>
</trkpt>
<trkpt lat="-28.0451882" lon="152.6530537">
<ele>103.807</ele>
<time>2015-12-05T01:44:31.900Z</time>
</trkpt>
<trkpt lat="-28.0447789" lon="152.6531230">
<ele>103.138</ele>
<time>2015-12-05T01:44:33.906Z</time>
</trkpt>
<trkpt lat="-28.0441934" lon="152.6533198">
<ele>101.165</ele>
<time>2015-12-05T01:44:36.863Z</time>
</trkpt>
<trkpt lat="-28.0437961" lon="152.6535000">
<ele>98.068</ele>
<time>2015-12-05T01:44:38.872Z</time>
</trkpt>
<trkpt lat="-28.0433871" lon="152.6536823">
<ele>95.502</ele>
<time>2015-12-05T01:44:40.855Z</time>
</trkpt>
<trkpt lat="-28.0427368" lon="152.6540018">
<ele>94.741</ele>
<time>2015-12-05T01:44:43.928Z</time>
</trkpt>
<trkpt lat="-28.0422932" lon="152.6542140">
<ele>95.654</ele>
<time>2015-12-05T01:44:45.979Z</time>
</trkpt>
<trkpt lat="-28.0416714" lon="152.6545271">
<ele>98.271</ele>
<time>2015-12-05T01:44:48.981Z</time>
</trkpt>
<trkpt lat="-28.0412974" lon="152.6546980">
<ele>102.183</ele>
<time>2015-12-05T01:44:50.913Z</time>
</trkpt>
<trkpt lat="-28.0407721" lon="152.6549561">
<ele>105.624</ele>
<time>2015-12-05T01:44:53.752Z</time>
</trkpt>
<trkpt lat="-28.0403757" lon="152.6551389">
<ele>106.876</ele>
<time>2015-12-05T01:44:55.803Z</time>
</trkpt>
<trkpt lat="-28.0399655" lon="152.6553375">
<ele>105.965</ele>
<time>2015-12-05T01:44:57.856Z</time>
</trkpt>
<trkpt lat="-28.0393442" lon="152.6556080">
<ele>104.144</ele>
<time>2015-12-05T01:45:00.931Z</time>
</trkpt>
<trkpt lat="-28.0389647" lon="152.6557790">
<ele>102.711</ele>
<time>2015-12-05T01:45:02.900Z</time>
</trkpt>
<trkpt lat="-28.0386119" lon="152.6559562">
<ele>102.051</ele>
<time>2015-12-05T01:45:04.833Z</time>
</trkpt>
<trkpt lat="-28.0380938" lon="152.6562173">
<ele>102.127</ele>
<time>2015-12-05T01:45:07.706Z</time>
</trkpt>
<trkpt lat="-28.0377120" lon="152.6564227">
<ele>102.711</ele>
<time>2015-12-05T01:45:09.812Z</time>
</trkpt>
<trkpt lat="-28.0371523" lon="152.6566612">
<ele>103.032</ele>
<time>2015-12-05T01:45:12.776Z</time>
</trkpt>
<trkpt lat="-28.0367987" lon="152.6568532">
<ele>102.500</ele>
<time>2015-12-05T01:45:14.748Z</time>
</trkpt>
<trkpt lat="-28.0364924" lon="152.6571081">
<ele>101.558</ele>
<time>2015-12-05T01:45:16.684Z</time>
</trkpt>
<trkpt lat="-28.0360612" lon="152.6575766">
<ele>101.215</ele>
<time>2015-12-05T01:45:19.730Z</time>
</trkpt>
<trkpt lat="-28.0356237" lon="152.6580471">
<ele>102.324</ele>
<time>2015-12-05T01:45:22.802Z</time>
</trkpt>
<trkpt lat="-28.0353424" lon="152.6583274">
<ele>104.592</ele>
<time>2015-12-05T01:45:24.760Z</time>
</trkpt>
<trkpt lat="-28.0348965" lon="152.6587049">
<ele>106.594</ele>
<time>2015-12-05T01:45:27.746Z</time>
</trkpt>
<trkpt lat="-28.0345749" lon="152.6588918">
<ele>106.948</ele>
<time>2015-12-05T01:45:29.707Z</time>
</trkpt>
<trkpt lat="-28.0342292" lon="152.6590825">
<ele>105.219</ele>
<time>2015-12-05T01:45:31.720Z</time>
</trkpt>
<trkpt lat="-28.0336547" lon="152.6593275">
<ele>102.504</ele>
<time>2015-12-05T01:45:34.733Z</time>
</trkpt>
<trkpt lat="-28.0332284" lon="152.6595445">
<ele>100.442</ele>
<time>2015-12-05T01:45:36.854Z</time>
</trkpt>
<trkpt lat="-28.0326013" lon="152.6598367">
<ele>99.092</ele>
<time>2015-12-05T01:45:39.885Z</time>
</trkpt>
<trkpt lat="-28.0320064" lon="152.6601097">
<ele>97.267</ele>
<time>2015-12-05T01:45:42.856Z</time>
</trkpt>
<trkpt lat="-28.0316290" lon="152.6602973">
<ele>94.045</ele>
<time>2015-12-05T01:45:44.860Z</time>
</trkpt>
<trkpt lat="-28.0312890" lon="152.6605187">
<ele>90.060</ele>
<time>2015-12-05T01:45:46.799Z</time>
</trkpt>
<trkpt lat="-28.0308130" lon="152.6609663">
<ele>87.087</ele>
<time>2015-12-05T01:45:49.826Z</time>
</trkpt>
<trkpt lat="-28.0305134" lon="152.6613138">
<ele>86.121</ele>
<time>2015-12-05T01:45:51.884Z</time>
</trkpt>
<trkpt lat="-28.0302245" lon="152.6616351">
<ele>86.746</ele>
<time>2015-12-05T01:45:53.849Z</time>
</trkpt>
<trkpt lat="-28.0297846" lon="152.6620951">
<ele>87.954</ele>
<time>2015-12-05T01:45:56.790Z</time>
</trkpt>
<trkpt lat="-28.0295017" lon="152.6624027">
<ele>88.832</ele>
<time>2015-12-05T01:45:58.741Z</time>
</trkpt>
<trkpt lat="-28.0292187" lon="152.6627131">
<ele>89.075</ele>
<time>2015-12-05T01:46:00.755Z</time>
</trkpt>
<trkpt lat="-28.0288147" lon="152.6631439">
<ele>88.876</ele>
<time>2015-12-05T01:46:03.698Z</time>
</trkpt>
<trkpt lat="-28.0284668" lon="152.6636119">
<ele>88.584</ele>
<time>2015-12-05T01:46:06.670Z</time>
</trkpt>
<trkpt lat="-28.0281973" lon="152.6641468">
<ele>88.438</ele>
<time>2015-12-05T01:46:09.724Z</time>
</trkpt>
<trkpt lat="-28.0280657" lon="152.6644779">
<ele>88.441</ele>
<time>2015-12-05T01:46:11.607Z</time>
</trkpt>
<trkpt lat="-28.0278862" lon="152.6647847">
<ele>88.487</ele>
<time>2015-12-05T01:46:13.571Z</time>
</trkpt>
<trkpt lat="-28.0276329" lon="152.6650370">
<ele>88.492</ele>
<time>2015-12-05T01:46:15.602Z</time>
</trkpt>
<trkpt lat="-28.0270890" lon="152.6652623">
<ele>88.501</ele>
<time>2015-12-05T01:46:18.712Z</time>
</trkpt>
<trkpt lat="-28.0266674" lon="152.6653812">
<ele>88.617</ele>
<time>2015-12-05T01:46:20.803Z</time>
</trkpt>
<trkpt lat="-28.0262444" lon="152.6655006">
<ele>88.776</ele>
<time>2015-12-05T01:46:22.852Z</time>
</trkpt>
<trkpt lat="-28.0256427" lon="152.6656632">
<ele>88.514</ele>
<time>2015-12-05T01:46:25.805Z</time>
</trkpt>
<trkpt lat="-28.0252311" lon="152.6657805">
<ele>87.528</ele>
<time>2015-12-05T01:46:27.831Z</time>
</trkpt>
<trkpt lat="-28.0246301" lon="152.6660327">
<ele>86.320</ele>
<time>2015-12-05T01:46:30.838Z</time>
</trkpt>
<trkpt lat="-28.0240345" lon="152.6663682">
<ele>85.825</ele>
<time>2015-12-05T01:46:33.922Z</time>
</trkpt>
<trkpt lat="-28.0236762" lon="152.6666446">
<ele>86.327</ele>
<time>2015-12-05T01:46:35.949Z</time>
</trkpt>
<trkpt lat="-28.0231735" lon="152.6670396">
<ele>87.195</ele>
<time>2015-12-05T01:46:38.861Z</time>
</trkpt>
<trkpt lat="-28.0228815" lon="152.6673640">
<ele>87.762</ele>
<time>2015-12-05T01:46:40.853Z</time>
</trkpt>
<trkpt lat="-28.0224634" lon="152.6678438">
<ele>87.882</ele>
<time>2015-12-05T01:46:43.828Z</time>
</trkpt>
<trkpt lat="-28.0222126" lon="152.6681447">
<ele>87.650</ele>
<time>2015-12-05T01:46:45.771Z</time>
</trkpt>
<trkpt lat="-28.0218070" lon="152.6685012">
<ele>87.182</ele>
<time>2015-12-05T01:46:48.705Z</time>
</trkpt>
<trkpt lat="-28.0215250" lon="152.6686729">
<ele>86.185</ele>
<time>2015-12-05T01:46:50.739Z</time>
</trkpt>
<trkpt lat="-28.0212828" lon="152.6688278">
<ele>84.417</ele>
<time>2015-12-05T01:46:52.646Z</time>
</trkpt>
<trkpt lat="-28.0209526" lon="152.6690589">
<ele>82.443</ele>
<time>2015-12-05T01:46:55.571Z</time>
</trkpt>
<trkpt lat="-28.0206775" lon="152.6692492">
<ele>80.664</ele>
<time>2015-12-05T01:46:58.501Z</time>
</trkpt>
<trkpt lat="-28.0205833" lon="152.6693718">
<ele>78.823</ele>
<time>2015-12-05T01:47:00.180Z</time>
</trkpt>
<trkpt lat="-28.0205827" lon="152.6695071">
<ele>77.045</ele>
<time>2015-12-05T01:47:01.932Z</time>
</trkpt>
<trkpt lat="-28.0206580" lon="152.6697568">
<ele>75.848</ele>
<time>2015-12-05T01:47:05.194Z</time>
</trkpt>
<trkpt lat="-28.0206920" lon="152.6699332">
<ele>75.571</ele>
<time>2015-12-05T01:47:07.174Z</time>
</trkpt>
<trkpt lat="-28.0207415" lon="152.6701997">
<ele>76.146</ele>
<time>2015-12-05T01:47:10.200Z</time>
</trkpt>
<trkpt lat="-28.0207657" lon="152.6703852">
<ele>76.995</ele>
<time>2015-12-05T01:47:12.293Z</time>
</trkpt>
<trkpt lat="-28.0207889" lon="152.6705696">
<ele>77.627</ele>
<time>2015-12-05T01:47:14.399Z</time>
</trkpt>
<trkpt lat="-28.0208038" lon="152.6707242">
<ele>78.008</ele>
<time>2015-12-05T01:47:16.277Z</time>
</trkpt>
<trkpt lat="-28.0208377" lon="152.6709594">
<ele>78.221</ele>
<time>2015-12-05T01:47:19.287Z</time>
</trkpt>
<trkpt lat="-28.0208792" lon="152.6712332">
<ele>78.440</ele>
<time>2015-12-05T01:47:22.687Z</time>
</trkpt>
<trkpt lat="-28.0209059" lon="152.6714016">
<ele>78.960</ele>
<time>2015-12-05T01:47:24.767Z</time>
</trkpt>
<trkpt lat="-28.0209423" lon="152.6716208">
<ele>79.742</ele>
<time>2015-12-05T01:47:27.535Z</time>
</trkpt>
<trkpt lat="-28.0209698" lon="152.6718528">
<ele>80.567</ele>
<time>2015-12-05T01:47:30.487Z</time>
</trkpt>
<trkpt lat="-28.0210009" lon="152.6720023">
<ele>81.616</ele>
<time>2015-12-05T01:47:32.413Z</time>
</trkpt>
<trkpt lat="-28.0210398" lon="152.6722325">
<ele>83.069</ele>
<time>2015-12-05T01:47:35.316Z</time>
</trkpt>
<trkpt lat="-28.0210530" lon="152.6723828">
<ele>84.549</ele>
<time>2015-12-05T01:47:37.219Z</time>
</trkpt>
<trkpt lat="-28.0211047" lon="152.6726144">
<ele>85.689</ele>
<time>2015-12-05T01:47:40.319Z</time>
</trkpt>
<trkpt lat="-28.0211269" lon="152.6728204">
<ele>86.538</ele>
<time>2015-12-05T01:47:43.145Z</time>
</trkpt>
<trkpt lat="-28.0211224" lon="152.6729314">
<ele>87.178</ele>
<time>2015-12-05T01:47:44.949Z</time>
</trkpt>
<trkpt lat="-28.0211077" lon="152.6730625">
<ele>87.580</ele>
<time>2015-12-05T01:47:47.646Z</time>
</trkpt>
<trkpt lat="-28.0210364" lon="152.6731318">
<ele>87.896</ele>
<time>2015-12-05T01:47:49.874Z</time>
</trkpt>
<trkpt lat="-28.0209461" lon="152.6731552">
<ele>88.336</ele>
<time>2015-12-05T01:47:51.929Z</time>
</trkpt>
<trkpt lat="-28.0208232" lon="152.6731699">
<ele>88.816</ele>
<time>2015-12-05T01:47:54.705Z</time>
</trkpt>
<trkpt lat="-28.0206854" lon="152.6731703">
<ele>89.014</ele>
<time>2015-12-05T01:47:58.075Z</time>
</trkpt>
<trkpt lat="-28.0205869" lon="152.6731965">
<ele>88.660</ele>
<time>2015-12-05T01:48:00.795Z</time>
</trkpt>
<trkpt lat="-28.0204886" lon="152.6732022">
<ele>87.903</ele>
<time>2015-12-05T01:48:03.596Z</time>
</trkpt>
<trkpt lat="-28.0203793" lon="152.6732177">
<ele>87.249</ele>
<time>2015-12-05T01:48:06.999Z</time>
</trkpt>
<trkpt lat="-28.0203793" lon="152.6732177">
<ele>86.977</ele>
<time>2015-12-05T01:48:12.999Z</time>
</trkpt>
<trkpt lat="-28.0203793" lon="152.6732177">
<ele>86.940</ele>
<time>2015-12-05T01:48:39.923Z</time>
</trkpt>
<trkpt lat="-28.0204804" lon="152.6732678">
<ele>86.971</ele>
<time>2015-12-05T01:48:44.365Z</time>
</trkpt>
<trkpt lat="-28.0206011" lon="152.6732403">
<ele>87.365</ele>
<time>2015-12-05T01:48:47.349Z</time>
</trkpt>
<trkpt lat="-28.0207479" lon="152.6732079">
<ele>88.485</ele>
<time>2015-12-05T01:48:50.700Z</time>
</trkpt>
<trkpt lat="-28.0208396" lon="152.6731905">
<ele>89.961</ele>
<time>2015-12-05T01:48:52.772Z</time>
</trkpt>
<trkpt lat="-28.0209643" lon="152.6731538">
<ele>91.117</ele>
<time>2015-12-05T01:48:55.589Z</time>
</trkpt>
<trkpt lat="-28.0211353" lon="152.6731133">
<ele>91.876</ele>
<time>2015-12-05T01:48:59.322Z</time>
</trkpt>
<trkpt lat="-28.0212060" lon="152.6730349">
<ele>92.460</ele>
<time>2015-12-05T01:49:01.419Z</time>
</trkpt>
<trkpt lat="-28.0212138" lon="152.6729218">
<ele>92.942</ele>
<time>2015-12-05T01:49:03.472Z</time>
</trkpt>
<trkpt lat="-28.0211769" lon="152.6727573">
<ele>93.305</ele>
<time>2015-12-05T01:49:06.606Z</time>
</trkpt>
<trkpt lat="-28.0211611" lon="152.6726150">
<ele>93.418</ele>
<time>2015-12-05T01:49:09.487Z</time>
</trkpt>
<trkpt lat="-28.0211450" lon="152.6725089">
<ele>93.060</ele>
<time>2015-12-05T01:49:11.699Z</time>
</trkpt>
<trkpt lat="-28.0211198" lon="152.6723400">
<ele>92.350</ele>
<time>2015-12-05T01:49:14.929Z</time>
</trkpt>
<trkpt lat="-28.0211210" lon="152.6721921">
<ele>91.665</ele>
<time>2015-12-05T01:49:17.652Z</time>
</trkpt>
<trkpt lat="-28.0210928" lon="152.6720462">
<ele>91.197</ele>
<time>2015-12-05T01:49:20.583Z</time>
</trkpt>
<trkpt lat="-28.0210554" lon="152.6718975">
<ele>90.835</ele>
<time>2015-12-05T01:49:23.531Z</time>
</trkpt>
<trkpt lat="-28.0210492" lon="152.6717390">
<ele>90.462</ele>
<time>2015-12-05T01:49:26.153Z</time>
</trkpt>
<trkpt lat="-28.0210191" lon="152.6715111">
<ele>90.138</ele>
<time>2015-12-05T01:49:29.315Z</time>
</trkpt>
<trkpt lat="-28.0209936" lon="152.6713800">
<ele>89.950</ele>
<time>2015-12-05T01:49:31.406Z</time>
</trkpt>
<trkpt lat="-28.0209462" lon="152.6712729">
<ele>89.740</ele>
<time>2015-12-05T01:49:33.999Z</time>
</trkpt>
<trkpt lat="-28.0209462" lon="152.6712729">
<ele>89.367</ele>
<time>2015-12-05T01:49:37.999Z</time>
</trkpt>
<trkpt lat="-28.0209462" lon="152.6712729">
<ele>89.059</ele>
<time>2015-12-05T01:49:40.848Z</time>
</trkpt>
<trkpt lat="-28.0209146" lon="152.6710847">
<ele>89.029</ele>
<time>2015-12-05T01:49:45.052Z</time>
</trkpt>
<trkpt lat="-28.0208829" lon="152.6708123">
<ele>89.146</ele>
<time>2015-12-05T01:49:47.967Z</time>
</trkpt>
<trkpt lat="-28.0208627" lon="152.6705708">
<ele>89.310</ele>
<time>2015-12-05T01:49:49.993Z</time>
</trkpt>
<trkpt lat="-28.0208124" lon="152.6703369">
<ele>89.527</ele>
<time>2015-12-05T01:49:51.940Z</time>
</trkpt>
<trkpt lat="-28.0207800" lon="152.6701175">
<ele>89.614</ele>
<time>2015-12-05T01:49:53.843Z</time>
</trkpt>
<trkpt lat="-28.0207621" lon="152.6699307">
<ele>89.324</ele>
<time>2015-12-05T01:49:55.627Z</time>
</trkpt>
<trkpt lat="-28.0207443" lon="152.6697799">
<ele>88.565</ele>
<time>2015-12-05T01:49:57.318Z</time>
</trkpt>
<trkpt lat="-28.0206962" lon="152.6696019">
<ele>87.453</ele>
<time>2015-12-05T01:49:59.999Z</time>
</trkpt>
<trkpt lat="-28.0206962" lon="152.6696019">
<ele>86.394</ele>
<time>2015-12-05T01:50:04.999Z</time>
</trkpt>
<trkpt lat="-28.0206962" lon="152.6696019">
<ele>85.853</ele>
<time>2015-12-05T01:50:08.575Z</time>
</trkpt>
<trkpt lat="-28.0205156" lon="152.6694962">
<ele>85.883</ele>
<time>2015-12-05T01:50:13.211Z</time>
</trkpt>
<trkpt lat="-28.0203127" lon="152.6695846">
<ele>86.151</ele>
<time>2015-12-05T01:50:15.272Z</time>
</trkpt>
<trkpt lat="-28.0200517" lon="152.6697570">
<ele>86.609</ele>
<time>2015-12-05T01:50:17.554Z</time>
</trkpt>
<trkpt lat="-28.0195803" lon="152.6700651">
<ele>87.722</ele>
<time>2015-12-05T01:50:21.280Z</time>
</trkpt>
<trkpt lat="-28.0191244" lon="152.6703569">
<ele>89.595</ele>
<time>2015-12-05T01:50:24.534Z</time>
</trkpt>
<trkpt lat="-28.0188246" lon="152.6705099">
<ele>91.453</ele>
<time>2015-12-05T01:50:26.463Z</time>
</trkpt>
<trkpt lat="-28.0183179" lon="152.6706740">
<ele>92.341</ele>
<time>2015-12-05T01:50:29.422Z</time>
</trkpt>
<trkpt lat="-28.0179741" lon="152.6708057">
<ele>92.111</ele>
<time>2015-12-05T01:50:31.408Z</time>
</trkpt>
<trkpt lat="-28.0176349" lon="152.6709365">
<ele>91.447</ele>
<time>2015-12-05T01:50:33.343Z</time>
</trkpt>
<trkpt lat="-28.0171423" lon="152.6712184">
<ele>91.115</ele>
<time>2015-12-05T01:50:36.226Z</time>
</trkpt>
<trkpt lat="-28.0168128" lon="152.6714553">
<ele>91.300</ele>
<time>2015-12-05T01:50:38.162Z</time>
</trkpt>
<trkpt lat="-28.0163918" lon="152.6719207">
<ele>91.716</ele>
<time>2015-12-05T01:50:41.061Z</time>
</trkpt>
<trkpt lat="-28.0159560" lon="152.6723955">
<ele>91.961</ele>
<time>2015-12-05T01:50:44.057Z</time>
</trkpt>
<trkpt lat="-28.0156729" lon="152.6727042">
<ele>91.875</ele>
<time>2015-12-05T01:50:45.991Z</time>
</trkpt>
<trkpt lat="-28.0153798" lon="152.6730195">
<ele>91.632</ele>
<time>2015-12-05T01:50:47.950Z</time>
</trkpt>
<trkpt lat="-28.0149485" lon="152.6735236">
<ele>91.549</ele>
<time>2015-12-05T01:50:50.919Z</time>
</trkpt>
<trkpt lat="-28.0145185" lon="152.6740407">
<ele>91.814</ele>
<time>2015-12-05T01:50:53.879Z</time>
</trkpt>
<trkpt lat="-28.0140661" lon="152.6745596">
<ele>92.332</ele>
<time>2015-12-05T01:50:56.896Z</time>
</trkpt>
<trkpt lat="-28.0136162" lon="152.6750629">
<ele>92.766</ele>
<time>2015-12-05T01:50:59.855Z</time>
</trkpt>
<trkpt lat="-28.0131685" lon="152.6755843">
<ele>92.917</ele>
<time>2015-12-05T01:51:02.863Z</time>
</trkpt>
<trkpt lat="-28.0128679" lon="152.6759132">
<ele>92.616</ele>
<time>2015-12-05T01:51:04.836Z</time>
</trkpt>
<trkpt lat="-28.0124005" lon="152.6764021">
<ele>91.829</ele>
<time>2015-12-05T01:51:07.841Z</time>
</trkpt>
<trkpt lat="-28.0120697" lon="152.6766881">
<ele>90.860</ele>
<time>2015-12-05T01:51:09.813Z</time>
</trkpt>
<trkpt lat="-28.0117192" lon="152.6769426">
<ele>89.932</ele>
<time>2015-12-05T01:51:11.815Z</time>
</trkpt>
<trkpt lat="-28.0112254" lon="152.6773419">
<ele>89.144</ele>
<time>2015-12-05T01:51:14.780Z</time>
</trkpt>
<trkpt lat="-28.0108938" lon="152.6776016">
<ele>88.562</ele>
<time>2015-12-05T01:51:16.834Z</time>
</trkpt>
<trkpt lat="-28.0104326" lon="152.6779672">
<ele>88.112</ele>
<time>2015-12-05T01:51:19.784Z</time>
</trkpt>
<trkpt lat="-28.0100022" lon="152.6783124">
<ele>87.811</ele>
<time>2015-12-05T01:51:22.609Z</time>
</trkpt>
<trkpt lat="-28.0097014" lon="152.6785535">
<ele>87.314</ele>
<time>2015-12-05T01:51:24.590Z</time>
</trkpt>
<trkpt lat="-28.0092375" lon="152.6789087">
<ele>86.234</ele>
<time>2015-12-05T01:51:27.607Z</time>
</trkpt>
<trkpt lat="-28.0089317" lon="152.6791429">
<ele>85.054</ele>
<time>2015-12-05T01:51:29.618Z</time>
</trkpt>
<trkpt lat="-28.0085065" lon="152.6795306">
<ele>84.410</ele>
<time>2015-12-05T01:51:32.604Z</time>
</trkpt>
<trkpt lat="-28.0080675" lon="152.6799112">
<ele>84.259</ele>
<time>2015-12-05T01:51:35.659Z</time>
</trkpt>
<trkpt lat="-28.0075932" lon="152.6801868">
<ele>84.685</ele>
<time>2015-12-05T01:51:38.660Z</time>
</trkpt>
<trkpt lat="-28.0070880" lon="152.6803284">
<ele>85.385</ele>
<time>2015-12-05T01:51:41.625Z</time>
</trkpt>
<trkpt lat="-28.0065637" lon="152.6803657">
<ele>85.549</ele>
<time>2015-12-05T01:51:44.650Z</time>
</trkpt>
<trkpt lat="-28.0062371" lon="152.6803798">
<ele>85.095</ele>
<time>2015-12-05T01:51:46.598Z</time>
</trkpt>
<trkpt lat="-28.0057534" lon="152.6804753">
<ele>84.435</ele>
<time>2015-12-05T01:51:49.621Z</time>
</trkpt>
<trkpt lat="-28.0053190" lon="152.6806476">
<ele>83.502</ele>
<time>2015-12-05T01:51:52.573Z</time>
</trkpt>
<trkpt lat="-28.0050474" lon="152.6807755">
<ele>82.443</ele>
<time>2015-12-05T01:51:54.510Z</time>
</trkpt>
<trkpt lat="-28.0047659" lon="152.6808955">
<ele>81.609</ele>
<time>2015-12-05T01:51:56.519Z</time>
</trkpt>
<trkpt lat="-28.0044964" lon="152.6809926">
<ele>81.132</ele>
<time>2015-12-05T01:51:58.409Z</time>
</trkpt>
<trkpt lat="-28.0040352" lon="152.6810817">
<ele>80.942</ele>
<time>2015-12-05T01:52:01.531Z</time>
</trkpt>
<trkpt lat="-28.0035901" lon="152.6811207">
<ele>80.858</ele>
<time>2015-12-05T01:52:04.561Z</time>
</trkpt>
<trkpt lat="-28.0031676" lon="152.6811968">
<ele>80.473</ele>
<time>2015-12-05T01:52:07.527Z</time>
</trkpt>
<trkpt lat="-28.0027449" lon="152.6812708">
<ele>79.701</ele>
<time>2015-12-05T01:52:10.522Z</time>
</trkpt>
<trkpt lat="-28.0023510" lon="152.6814148">
<ele>78.947</ele>
<time>2015-12-05T01:52:13.439Z</time>
</trkpt>
<trkpt lat="-28.0020796" lon="152.6815223">
<ele>78.519</ele>
<time>2015-12-05T01:52:15.448Z</time>
</trkpt>
<trkpt lat="-28.0018124" lon="152.6816389">
<ele>78.392</ele>
<time>2015-12-05T01:52:17.430Z</time>
</trkpt>
<trkpt lat="-28.0014130" lon="152.6818098">
<ele>78.437</ele>
<time>2015-12-05T01:52:20.383Z</time>
</trkpt>
<trkpt lat="-28.0009985" lon="152.6818788">
<ele>78.486</ele>
<time>2015-12-05T01:52:23.288Z</time>
</trkpt>
<trkpt lat="-28.0007240" lon="152.6818775">
<ele>78.434</ele>
<time>2015-12-05T01:52:25.192Z</time>
</trkpt>
<trkpt lat="-28.0003089" lon="152.6817671">
<ele>78.328</ele>
<time>2015-12-05T01:52:28.183Z</time>
</trkpt>
<trkpt lat="-28.0000780" lon="152.6816812">
<ele>78.454</ele>
<time>2015-12-05T01:52:29.948Z</time>
</trkpt>
<trkpt lat="-27.9998118" lon="152.6815875">
<ele>79.274</ele>
<time>2015-12-05T01:52:32.012Z</time>
</trkpt>
<trkpt lat="-27.9994077" lon="152.6814879">
<ele>81.252</ele>
<time>2015-12-05T01:52:35.221Z</time>
</trkpt>
<trkpt lat="-27.9990852" lon="152.6814651">
<ele>84.294</ele>
<time>2015-12-05T01:52:38.236Z</time>
</trkpt>
<trkpt lat="-27.9988659" lon="152.6814909">
<ele>87.280</ele>
<time>2015-12-05T01:52:41.074Z</time>
</trkpt>
<trkpt lat="-27.9988348" lon="152.6815975">
<ele>88.796</ele>
<time>2015-12-05T01:52:42.888Z</time>
</trkpt>
<trkpt lat="-27.9988475" lon="152.6817619">
<ele>88.631</ele>
<time>2015-12-05T01:52:45.952Z</time>
</trkpt>
<trkpt lat="-27.9988459" lon="152.6818972">
<ele>87.795</ele>
<time>2015-12-05T01:52:49.084Z</time>
</trkpt>
<trkpt lat="-27.9987678" lon="152.6819737">
<ele>87.005</ele>
<time>2015-12-05T01:52:52.735Z</time>
</trkpt>
<trkpt lat="-27.9986662" lon="152.6820044">
<ele>86.217</ele>
<time>2015-12-05T01:52:58.114Z</time>
</trkpt>
<trkpt lat="-27.9985624" lon="152.6820248">
<ele>85.437</ele>
<time>2015-12-05T01:53:03.311Z</time>
</trkpt>
<trkpt lat="-27.9984633" lon="152.6820336">
<ele>84.822</ele>
<time>2015-12-05T01:53:07.834Z</time>
</trkpt>
<trkpt lat="-27.9983670" lon="152.6820433">
<ele>84.389</ele>
<time>2015-12-05T01:53:11.982Z</time>
</trkpt>
<trkpt lat="-27.9982629" lon="152.6820631">
<ele>84.109</ele>
<time>2015-12-05T01:53:15.512Z</time>
</trkpt>
<trkpt lat="-27.9981551" lon="152.6820922">
<ele>83.983</ele>
<time>2015-12-05T01:53:18.664Z</time>
</trkpt>
<trkpt lat="-27.9980535" lon="152.6821333">
<ele>83.951</ele>
<time>2015-12-05T01:53:21.768Z</time>
</trkpt>
<trkpt lat="-27.9979337" lon="152.6821515">
<ele>83.884</ele>
<time>2015-12-05T01:53:25.534Z</time>
</trkpt>
<trkpt lat="-27.9978365" lon="152.6821704">
<ele>83.740</ele>
<time>2015-12-05T01:53:28.725Z</time>
</trkpt>
<trkpt lat="-27.9977420" lon="152.6821862">
<ele>83.638</ele>
<time>2015-12-05T01:53:31.780Z</time>
</trkpt>
<trkpt lat="-27.9976500" lon="152.6821954">
<ele>83.712</ele>
<time>2015-12-05T01:53:34.853Z</time>
</trkpt>
<trkpt lat="-27.9975497" lon="152.6822129">
<ele>84.022</ele>
<time>2015-12-05T01:53:38.487Z</time>
</trkpt>
<trkpt lat="-27.9974424" lon="152.6822204">
<ele>84.568</ele>
<time>2015-12-05T01:53:42.665Z</time>
</trkpt>
<trkpt lat="-27.9973161" lon="152.6822240">
<ele>85.351</ele>
<time>2015-12-05T01:53:46.956Z</time>
</trkpt>
<trkpt lat="-27.9971983" lon="152.6822381">
<ele>86.301</ele>
<time>2015-12-05T01:53:50.212Z</time>
</trkpt>
<trkpt lat="-27.9970821" lon="152.6822643">
<ele>87.207</ele>
<time>2015-12-05T01:53:53.189Z</time>
</trkpt>
<trkpt lat="-27.9969697" lon="152.6822911">
<ele>87.839</ele>
<time>2015-12-05T01:53:56.086Z</time>
</trkpt>
<trkpt lat="-27.9968442" lon="152.6823178">
<ele>88.210</ele>
<time>2015-12-05T01:53:59.218Z</time>
</trkpt>
<trkpt lat="-27.9967477" lon="152.6823379">
<ele>88.524</ele>
<time>2015-12-05T01:54:01.512Z</time>
</trkpt>
<trkpt lat="-27.9966205" lon="152.6823618">
<ele>88.902</ele>
<time>2015-12-05T01:54:04.689Z</time>
</trkpt>
<trkpt lat="-27.9965010" lon="152.6823637">
<ele>89.263</ele>
<time>2015-12-05T01:54:08.181Z</time>
</trkpt>
<trkpt lat="-27.9963937" lon="152.6823848">
<ele>89.509</ele>
<time>2015-12-05T01:54:12.124Z</time>
</trkpt>
<trkpt lat="-27.9963025" lon="152.6824031">
<ele>89.621</ele>
<time>2015-12-05T01:54:15.271Z</time>
</trkpt>
<trkpt lat="-27.9961396" lon="152.6824261">
<ele>89.679</ele>
<time>2015-12-05T01:54:18.686Z</time>
</trkpt>
<trkpt lat="-27.9960200" lon="152.6824402">
<ele>89.758</ele>
<time>2015-12-05T01:54:20.872Z</time>
</trkpt>
<trkpt lat="-27.9958905" lon="152.6824655">
<ele>89.700</ele>
<time>2015-12-05T01:54:23.367Z</time>
</trkpt>
<trkpt lat="-27.9957190" lon="152.6824936">
<ele>89.314</ele>
<time>2015-12-05T01:54:26.660Z</time>
</trkpt>
<trkpt lat="-27.9955463" lon="152.6825126">
<ele>88.736</ele>
<time>2015-12-05T01:54:29.735Z</time>
</trkpt>
<trkpt lat="-27.9954342" lon="152.6825314">
<ele>88.039</ele>
<time>2015-12-05T01:54:31.745Z</time>
</trkpt>
<trkpt lat="-27.9953266" lon="152.6825545">
<ele>87.069</ele>
<time>2015-12-05T01:54:33.886Z</time>
</trkpt>
<trkpt lat="-27.9952250" lon="152.6826281">
<ele>85.909</ele>
<time>2015-12-05T01:54:36.835Z</time>
</trkpt>
<trkpt lat="-27.9951832" lon="152.6827374">
<ele>84.813</ele>
<time>2015-12-05T01:54:40.527Z</time>
</trkpt>
<trkpt lat="-27.9952893" lon="152.6828223">
<ele>83.982</ele>
<time>2015-12-05T01:54:44.346Z</time>
</trkpt>
<trkpt lat="-27.9954073" lon="152.6828951">
<ele>83.518</ele>
<time>2015-12-05T01:54:46.855Z</time>
</trkpt>
<trkpt lat="-27.9955312" lon="152.6829508">
<ele>83.335</ele>
<time>2015-12-05T01:54:49.870Z</time>
</trkpt>
<trkpt lat="-27.9956037" lon="152.6830172">
<ele>83.138</ele>
<time>2015-12-05T01:54:53.000Z</time>
</trkpt>
<trkpt lat="-27.9956037" lon="152.6830172">
<ele>82.755</ele>
<time>2015-12-05T01:54:57.000Z</time>
</trkpt>
<trkpt lat="-27.9956037" lon="152.6830172">
<ele>82.428</ele>
<time>2015-12-05T02:02:33.466Z</time>
</trkpt>
<trkpt lat="-27.9954993" lon="152.6829128">
<ele>82.400</ele>
<time>2015-12-05T02:02:38.000Z</time>
</trkpt>
<trkpt lat="-27.9954993" lon="152.6829128">
<ele>82.482</ele>
<time>2015-12-05T02:02:43.000Z</time>
</trkpt>
<trkpt lat="-27.9954993" lon="152.6829128">
<ele>82.460</ele>
<time>2015-12-05T02:03:02.037Z</time>
</trkpt>
<trkpt lat="-27.9953484" lon="152.6828275">
<ele>82.383</ele>
<time>2015-12-05T02:03:08.569Z</time>
</trkpt>
<trkpt lat="-27.9951616" lon="152.6827172">
<ele>82.437</ele>
<time>2015-12-05T02:03:11.831Z</time>
</trkpt>
<trkpt lat="-27.9949619" lon="152.6825270">
<ele>82.672</ele>
<time>2015-12-05T02:03:15.633Z</time>
</trkpt>
<trkpt lat="-27.9948915" lon="152.6823962">
<ele>82.895</ele>
<time>2015-12-05T02:03:18.389Z</time>
</trkpt>
<trkpt lat="-27.9948495" lon="152.6822805">
<ele>82.953</ele>
<time>2015-12-05T02:03:21.133Z</time>
</trkpt>
<trkpt lat="-27.9947894" lon="152.6821539">
<ele>82.984</ele>
<time>2015-12-05T02:03:23.618Z</time>
</trkpt>
<trkpt lat="-27.9946903" lon="152.6820867">
<ele>83.292</ele>
<time>2015-12-05T02:03:25.293Z</time>
</trkpt>
<trkpt lat="-27.9945219" lon="152.6821966">
<ele>84.091</ele>
<time>2015-12-05T02:03:27.587Z</time>
</trkpt>
<trkpt lat="-27.9943620" lon="152.6822828">
<ele>85.238</ele>
<time>2015-12-05T02:03:29.703Z</time>
</trkpt>
<trkpt lat="-27.9942082" lon="152.6823522">
<ele>86.262</ele>
<time>2015-12-05T02:03:31.698Z</time>
</trkpt>
<trkpt lat="-27.9940353" lon="152.6823840">
<ele>86.885</ele>
<time>2015-12-05T02:03:33.804Z</time>
</trkpt>
<trkpt lat="-27.9938714" lon="152.6823745">
<ele>87.185</ele>
<time>2015-12-05T02:03:35.855Z</time>
</trkpt>
<trkpt lat="-27.9936535" lon="152.6824175">
<ele>87.296</ele>
<time>2015-12-05T02:03:39.031Z</time>
</trkpt>
<trkpt lat="-27.9935544" lon="152.6826099">
<ele>87.291</ele>
<time>2015-12-05T02:03:41.823Z</time>
</trkpt>
<trkpt lat="-27.9935983" lon="152.6828511">
<ele>87.309</ele>
<time>2015-12-05T02:03:44.362Z</time>
</trkpt>
<trkpt lat="-27.9935771" lon="152.6831416">
<ele>87.558</ele>
<time>2015-12-05T02:03:46.997Z</time>
</trkpt>
<trkpt lat="-27.9934760" lon="152.6834598">
<ele>88.037</ele>
<time>2015-12-05T02:03:49.771Z</time>
</trkpt>
<trkpt lat="-27.9933794" lon="152.6838324">
<ele>88.449</ele>
<time>2015-12-05T02:03:52.744Z</time>
</trkpt>
<trkpt lat="-27.9933034" lon="152.6840845">
<ele>88.506</ele>
<time>2015-12-05T02:03:54.769Z</time>
</trkpt>
<trkpt lat="-27.9931869" lon="152.6844298">
<ele>88.174</ele>
<time>2015-12-05T02:03:57.667Z</time>
</trkpt>
<trkpt lat="-27.9930955" lon="152.6848063">
<ele>87.706</ele>
<time>2015-12-05T02:04:00.708Z</time>
</trkpt>
<trkpt lat="-27.9929795" lon="152.6851540">
<ele>87.548</ele>
<time>2015-12-05T02:04:03.491Z</time>
</trkpt>
<trkpt lat="-27.9928638" lon="152.6855383">
<ele>88.261</ele>
<time>2015-12-05T02:04:06.476Z</time>
</trkpt>
<trkpt lat="-27.9927945" lon="152.6857702">
<ele>90.040</ele>
<time>2015-12-05T02:04:08.308Z</time>
</trkpt>
<trkpt lat="-27.9927305" lon="152.6861521">
<ele>92.364</ele>
<time>2015-12-05T02:04:11.248Z</time>
</trkpt>
<trkpt lat="-27.9926349" lon="152.6865257">
<ele>94.587</ele>
<time>2015-12-05T02:04:14.162Z</time>
</trkpt>
<trkpt lat="-27.9925652" lon="152.6869144">
<ele>96.563</ele>
<time>2015-12-05T02:04:17.055Z</time>
</trkpt>
<trkpt lat="-27.9924928" lon="152.6872767">
<ele>98.323</ele>
<time>2015-12-05T02:04:19.778Z</time>
</trkpt>
<trkpt lat="-27.9924431" lon="152.6875275">
<ele>99.726</ele>
<time>2015-12-05T02:04:21.728Z</time>
</trkpt>
<trkpt lat="-27.9923833" lon="152.6877771">
<ele>100.641</ele>
<time>2015-12-05T02:04:23.708Z</time>
</trkpt>
<trkpt lat="-27.9923042" lon="152.6881512">
<ele>101.310</ele>
<time>2015-12-05T02:04:26.687Z</time>
</trkpt>
<trkpt lat="-27.9922552" lon="152.6884054">
<ele>101.942</ele>
<time>2015-12-05T02:04:28.612Z</time>
</trkpt>
<trkpt lat="-27.9921629" lon="152.6888188">
<ele>102.149</ele>
<time>2015-12-05T02:04:31.420Z</time>
</trkpt>
<trkpt lat="-27.9920495" lon="152.6893346">
<ele>101.630</ele>
<time>2015-12-05T02:04:34.486Z</time>
</trkpt>
<trkpt lat="-27.9919374" lon="152.6898495">
<ele>100.667</ele>
<time>2015-12-05T02:04:37.433Z</time>
</trkpt>
<trkpt lat="-27.9917219" lon="152.6903336">
<ele>99.323</ele>
<time>2015-12-05T02:04:40.418Z</time>
</trkpt>
<trkpt lat="-27.9914793" lon="152.6907870">
<ele>97.739</ele>
<time>2015-12-05T02:04:43.354Z</time>
</trkpt>
<trkpt lat="-27.9913240" lon="152.6910660">
<ele>96.696</ele>
<time>2015-12-05T02:04:45.250Z</time>
</trkpt>
<trkpt lat="-27.9910905" lon="152.6915033">
<ele>96.601</ele>
<time>2015-12-05T02:04:48.216Z</time>
</trkpt>
<trkpt lat="-27.9908528" lon="152.6919597">
<ele>97.604</ele>
<time>2015-12-05T02:04:51.212Z</time>
</trkpt>
<trkpt lat="-27.9906847" lon="152.6922513">
<ele>100.206</ele>
<time>2015-12-05T02:04:53.163Z</time>
</trkpt>
<trkpt lat="-27.9904532" lon="152.6926681">
<ele>103.853</ele>
<time>2015-12-05T02:04:56.000Z</time>
</trkpt>
<trkpt lat="-27.9903176" lon="152.6929544">
<ele>106.824</ele>
<time>2015-12-05T02:04:58.000Z</time>
</trkpt>
<trkpt lat="-27.9901957" lon="152.6932642">
<ele>108.263</ele>
<time>2015-12-05T02:05:00.000Z</time>
</trkpt>
<trkpt lat="-27.9901413" lon="152.6937644">
<ele>108.448</ele>
<time>2015-12-05T02:05:02.965Z</time>
</trkpt>
<trkpt lat="-27.9901082" lon="152.6943065">
<ele>107.827</ele>
<time>2015-12-05T02:05:06.003Z</time>
</trkpt>
<trkpt lat="-27.9900964" lon="152.6946826">
<ele>106.701</ele>
<time>2015-12-05T02:05:08.023Z</time>
</trkpt>
<trkpt lat="-27.9900858" lon="152.6952353">
<ele>105.156</ele>
<time>2015-12-05T02:05:11.025Z</time>
</trkpt>
<trkpt lat="-27.9900570" lon="152.6957617">
<ele>102.565</ele>
<time>2015-12-05T02:05:13.948Z</time>
</trkpt>
<trkpt lat="-27.9899419" lon="152.6962868">
<ele>98.542</ele>
<time>2015-12-05T02:05:16.952Z</time>
</trkpt>
<trkpt lat="-27.9898371" lon="152.6966035">
<ele>94.493</ele>
<time>2015-12-05T02:05:18.857Z</time>
</trkpt>
<trkpt lat="-27.9896026" lon="152.6970695">
<ele>92.411</ele>
<time>2015-12-05T02:05:21.923Z</time>
</trkpt>
<trkpt lat="-27.9894080" lon="152.6973443">
<ele>92.681</ele>
<time>2015-12-05T02:05:23.954Z</time>
</trkpt>
<trkpt lat="-27.9890933" lon="152.6977402">
<ele>94.368</ele>
<time>2015-12-05T02:05:26.960Z</time>
</trkpt>
<trkpt lat="-27.9888551" lon="152.6980295">
<ele>97.195</ele>
<time>2015-12-05T02:05:29.067Z</time>
</trkpt>
<trkpt lat="-27.9886038" lon="152.6983280">
<ele>101.178</ele>
<time>2015-12-05T02:05:31.141Z</time>
</trkpt>
<trkpt lat="-27.9881792" lon="152.6987656">
<ele>105.318</ele>
<time>2015-12-05T02:05:34.236Z</time>
</trkpt>
<trkpt lat="-27.9878707" lon="152.6990592">
<ele>109.203</ele>
<time>2015-12-05T02:05:36.297Z</time>
</trkpt>
<trkpt lat="-27.9875507" lon="152.6993443">
<ele>113.398</ele>
<time>2015-12-05T02:05:38.343Z</time>
</trkpt>
<trkpt lat="-27.9872376" lon="152.6996247">
<ele>117.539</ele>
<time>2015-12-05T02:05:40.359Z</time>
</trkpt>
<trkpt lat="-27.9867841" lon="152.7000265">
<ele>120.809</ele>
<time>2015-12-05T02:05:43.285Z</time>
</trkpt>
<trkpt lat="-27.9864780" lon="152.7003005">
<ele>123.271</ele>
<time>2015-12-05T02:05:45.269Z</time>
</trkpt>
<trkpt lat="-27.9861656" lon="152.7005647">
<ele>125.663</ele>
<time>2015-12-05T02:05:47.257Z</time>
</trkpt>
<trkpt lat="-27.9858524" lon="152.7008149">
<ele>128.081</ele>
<time>2015-12-05T02:05:49.218Z</time>
</trkpt>
<trkpt lat="-27.9853785" lon="152.7012237">
<ele>130.241</ele>
<time>2015-12-05T02:05:52.229Z</time>
</trkpt>
<trkpt lat="-27.9849146" lon="152.7016413">
<ele>132.151</ele>
<time>2015-12-05T02:05:55.228Z</time>
</trkpt>
<trkpt lat="-27.9844686" lon="152.7020831">
<ele>133.634</ele>
<time>2015-12-05T02:05:58.251Z</time>
</trkpt>
<trkpt lat="-27.9841981" lon="152.7023743">
<ele>134.481</ele>
<time>2015-12-05T02:06:00.148Z</time>
</trkpt>
<trkpt lat="-27.9837905" lon="152.7028587">
<ele>134.821</ele>
<time>2015-12-05T02:06:03.165Z</time>
</trkpt>
<trkpt lat="-27.9835320" lon="152.7032186">
<ele>133.837</ele>
<time>2015-12-05T02:06:05.230Z</time>
</trkpt>
<trkpt lat="-27.9832963" lon="152.7035705">
<ele>130.782</ele>
<time>2015-12-05T02:06:07.173Z</time>
</trkpt>
<trkpt lat="-27.9830851" lon="152.7039582">
<ele>126.954</ele>
<time>2015-12-05T02:06:09.176Z</time>
</trkpt>
<trkpt lat="-27.9828094" lon="152.7045886">
<ele>123.753</ele>
<time>2015-12-05T02:06:12.223Z</time>
</trkpt>
<trkpt lat="-27.9826208" lon="152.7050054">
<ele>121.113</ele>
<time>2015-12-05T02:06:14.230Z</time>
</trkpt>
<trkpt lat="-27.9824077" lon="152.7054045">
<ele>118.833</ele>
<time>2015-12-05T02:06:16.220Z</time>
</trkpt>
<trkpt lat="-27.9820377" lon="152.7059610">
<ele>116.564</ele>
<time>2015-12-05T02:06:19.181Z</time>
</trkpt>
<trkpt lat="-27.9815826" lon="152.7064614">
<ele>113.703</ele>
<time>2015-12-05T02:06:22.183Z</time>
</trkpt>
<trkpt lat="-27.9812317" lon="152.7067580">
<ele>110.168</ele>
<time>2015-12-05T02:06:24.215Z</time>
</trkpt>
<trkpt lat="-27.9806928" lon="152.7071871">
<ele>106.484</ele>
<time>2015-12-05T02:06:27.238Z</time>
</trkpt>
<trkpt lat="-27.9803463" lon="152.7074719">
<ele>103.147</ele>
<time>2015-12-05T02:06:29.186Z</time>
</trkpt>
<trkpt lat="-27.9799808" lon="152.7077725">
<ele>100.491</ele>
<time>2015-12-05T02:06:31.222Z</time>
</trkpt>
<trkpt lat="-27.9794188" lon="152.7082289">
<ele>98.522</ele>
<time>2015-12-05T02:06:34.278Z</time>
</trkpt>
<trkpt lat="-27.9790381" lon="152.7085336">
<ele>96.422</ele>
<time>2015-12-05T02:06:36.312Z</time>
</trkpt>
<trkpt lat="-27.9786616" lon="152.7088183">
<ele>93.785</ele>
<time>2015-12-05T02:06:38.306Z</time>
</trkpt>
<trkpt lat="-27.9781082" lon="152.7092450">
<ele>91.506</ele>
<time>2015-12-05T02:06:41.270Z</time>
</trkpt>
<trkpt lat="-27.9777377" lon="152.7095497">
<ele>89.768</ele>
<time>2015-12-05T02:06:43.276Z</time>
</trkpt>
<trkpt lat="-27.9771635" lon="152.7099988">
<ele>88.074</ele>
<time>2015-12-05T02:06:46.280Z</time>
</trkpt>
<trkpt lat="-27.9767556" lon="152.7102942">
<ele>86.730</ele>
<time>2015-12-05T02:06:48.325Z</time>
</trkpt>
<trkpt lat="-27.9760637" lon="152.7105647">
<ele>86.039</ele>
<time>2015-12-05T02:06:51.366Z</time>
</trkpt>
<trkpt lat="-27.9755895" lon="152.7106783">
<ele>85.429</ele>
<time>2015-12-05T02:06:53.340Z</time>
</trkpt>
<trkpt lat="-27.9750861" lon="152.7107665">
<ele>84.399</ele>
<time>2015-12-05T02:06:55.399Z</time>
</trkpt>
<trkpt lat="-27.9743548" lon="152.7108912">
<ele>82.711</ele>
<time>2015-12-05T02:06:58.399Z</time>
</trkpt>
<trkpt lat="-27.9736397" lon="152.7109951">
<ele>80.072</ele>
<time>2015-12-05T02:07:01.392Z</time>
</trkpt>
<trkpt lat="-27.9731836" lon="152.7110798">
<ele>77.030</ele>
<time>2015-12-05T02:07:03.406Z</time>
</trkpt>
<trkpt lat="-27.9725679" lon="152.7112417">
<ele>74.864</ele>
<time>2015-12-05T02:07:06.291Z</time>
</trkpt>
<trkpt lat="-27.9720192" lon="152.7115897">
<ele>73.406</ele>
<time>2015-12-05T02:07:09.280Z</time>
</trkpt>
<trkpt lat="-27.9717238" lon="152.7119539">
<ele>71.718</ele>
<time>2015-12-05T02:07:11.323Z</time>
</trkpt>
<trkpt lat="-27.9714855" lon="152.7123972">
<ele>70.149</ele>
<time>2015-12-05T02:07:13.352Z</time>
</trkpt>
<trkpt lat="-27.9712653" lon="152.7129066">
<ele>69.962</ele>
<time>2015-12-05T02:07:15.432Z</time>
</trkpt>
<trkpt lat="-27.9710616" lon="152.7134160">
<ele>71.966</ele>
<time>2015-12-05T02:07:17.400Z</time>
</trkpt>
<trkpt lat="-27.9706691" lon="152.7141546">
<ele>75.493</ele>
<time>2015-12-05T02:07:20.419Z</time>
</trkpt>
<trkpt lat="-27.9701711" lon="152.7148011">
<ele>78.675</ele>
<time>2015-12-05T02:07:23.436Z</time>
</trkpt>
<trkpt lat="-27.9698192" lon="152.7152078">
<ele>80.518</ele>
<time>2015-12-05T02:07:25.422Z</time>
</trkpt>
<trkpt lat="-27.9694593" lon="152.7156067">
<ele>81.300</ele>
<time>2015-12-05T02:07:27.408Z</time>
</trkpt>
<trkpt lat="-27.9689077" lon="152.7162096">
<ele>81.411</ele>
<time>2015-12-05T02:07:30.436Z</time>
</trkpt>
<trkpt lat="-27.9683676" lon="152.7167947">
<ele>81.041</ele>
<time>2015-12-05T02:07:33.431Z</time>
</trkpt>
<trkpt lat="-27.9680354" lon="152.7171879">
<ele>80.541</ele>
<time>2015-12-05T02:07:35.394Z</time>
</trkpt>
<trkpt lat="-27.9676871" lon="152.7175825">
<ele>79.978</ele>
<time>2015-12-05T02:07:37.411Z</time>
</trkpt>
<trkpt lat="-27.9673393" lon="152.7179757">
<ele>79.249</ele>
<time>2015-12-05T02:07:39.423Z</time>
</trkpt>
<trkpt lat="-27.9667692" lon="152.7184873">
<ele>78.618</ele>
<time>2015-12-05T02:07:42.427Z</time>
</trkpt>
<trkpt lat="-27.9661317" lon="152.7188447">
<ele>77.744</ele>
<time>2015-12-05T02:07:45.388Z</time>
</trkpt>
<trkpt lat="-27.9654257" lon="152.7190015">
<ele>75.864</ele>
<time>2015-12-05T02:07:48.371Z</time>
</trkpt>
<trkpt lat="-27.9649256" lon="152.7189898">
<ele>73.584</ele>
<time>2015-12-05T02:07:50.396Z</time>
</trkpt>
<trkpt lat="-27.9641462" lon="152.7189317">
<ele>72.323</ele>
<time>2015-12-05T02:07:53.474Z</time>
</trkpt>
<trkpt lat="-27.9634077" lon="152.7188804">
<ele>72.381</ele>
<time>2015-12-05T02:07:56.399Z</time>
</trkpt>
<trkpt lat="-27.9626403" lon="152.7189069">
<ele>72.754</ele>
<time>2015-12-05T02:07:59.480Z</time>
</trkpt>
<trkpt lat="-27.9621422" lon="152.7189800">
<ele>72.219</ele>
<time>2015-12-05T02:08:01.494Z</time>
</trkpt>
<trkpt lat="-27.9614130" lon="152.7192145">
<ele>70.771</ele>
<time>2015-12-05T02:08:04.513Z</time>
</trkpt>
<trkpt lat="-27.9606971" lon="152.7194771">
<ele>69.530</ele>
<time>2015-12-05T02:08:07.499Z</time>
</trkpt>
<trkpt lat="-27.9602101" lon="152.7196310">
<ele>69.227</ele>
<time>2015-12-05T02:08:09.511Z</time>
</trkpt>
<trkpt lat="-27.9594807" lon="152.7198282">
<ele>69.554</ele>
<time>2015-12-05T02:08:12.515Z</time>
</trkpt>
<trkpt lat="-27.9589981" lon="152.7199553">
<ele>69.724</ele>
<time>2015-12-05T02:08:14.530Z</time>
</trkpt>
<trkpt lat="-27.9583015" lon="152.7201344">
<ele>69.037</ele>
<time>2015-12-05T02:08:17.490Z</time>
</trkpt>
<trkpt lat="-27.9575914" lon="152.7202878">
<ele>67.433</ele>
<time>2015-12-05T02:08:20.507Z</time>
</trkpt>
<trkpt lat="-27.9568506" lon="152.7203989">
<ele>65.770</ele>
<time>2015-12-05T02:08:23.572Z</time>
</trkpt>
<trkpt lat="-27.9563602" lon="152.7204376">
<ele>64.871</ele>
<time>2015-12-05T02:08:25.574Z</time>
</trkpt>
<trkpt lat="-27.9558664" lon="152.7204756">
<ele>64.650</ele>
<time>2015-12-05T02:08:27.595Z</time>
</trkpt>
<trkpt lat="-27.9551651" lon="152.7206060">
<ele>64.441</ele>
<time>2015-12-05T02:08:30.537Z</time>
</trkpt>
<trkpt lat="-27.9547191" lon="152.7207884">
<ele>63.704</ele>
<time>2015-12-05T02:08:32.532Z</time>
</trkpt>
<trkpt lat="-27.9540969" lon="152.7212172">
<ele>62.560</ele>
<time>2015-12-05T02:08:35.622Z</time>
</trkpt>
<trkpt lat="-27.9535213" lon="152.7216333">
<ele>61.768</ele>
<time>2015-12-05T02:08:38.574Z</time>
</trkpt>
<trkpt lat="-27.9531489" lon="152.7219086">
<ele>61.655</ele>
<time>2015-12-05T02:08:40.553Z</time>
</trkpt>
<trkpt lat="-27.9527850" lon="152.7221683">
<ele>61.848</ele>
<time>2015-12-05T02:08:42.498Z</time>
</trkpt>
<trkpt lat="-27.9522032" lon="152.7225324">
<ele>61.926</ele>
<time>2015-12-05T02:08:45.490Z</time>
</trkpt>
<trkpt lat="-27.9515444" lon="152.7227627">
<ele>61.864</ele>
<time>2015-12-05T02:08:48.524Z</time>
</trkpt>
<trkpt lat="-27.9510827" lon="152.7228276">
<ele>62.092</ele>
<time>2015-12-05T02:08:50.535Z</time>
</trkpt>
<trkpt lat="-27.9506122" lon="152.7227887">
<ele>62.966</ele>
<time>2015-12-05T02:08:52.556Z</time>
</trkpt>
<trkpt lat="-27.9501587" lon="152.7226685">
<ele>64.196</ele>
<time>2015-12-05T02:08:54.534Z</time>
</trkpt>
<trkpt lat="-27.9497170" lon="152.7224527">
<ele>65.288</ele>
<time>2015-12-05T02:08:56.537Z</time>
</trkpt>
<trkpt lat="-27.9492944" lon="152.7221709">
<ele>66.034</ele>
<time>2015-12-05T02:08:58.525Z</time>
</trkpt>
<trkpt lat="-27.9487101" lon="152.7216564">
<ele>66.346</ele>
<time>2015-12-05T02:09:01.470Z</time>
</trkpt>
<trkpt lat="-27.9481079" lon="152.7211043">
<ele>66.154</ele>
<time>2015-12-05T02:09:04.533Z</time>
</trkpt>
<trkpt lat="-27.9475207" lon="152.7205920">
<ele>65.618</ele>
<time>2015-12-05T02:09:07.495Z</time>
</trkpt>
<trkpt lat="-27.9469395" lon="152.7200813">
<ele>65.604</ele>
<time>2015-12-05T02:09:10.478Z</time>
</trkpt>
<trkpt lat="-27.9465475" lon="152.7197347">
<ele>66.716</ele>
<time>2015-12-05T02:09:12.530Z</time>
</trkpt>
<trkpt lat="-27.9459922" lon="152.7192328">
<ele>68.201</ele>
<time>2015-12-05T02:09:15.484Z</time>
</trkpt>
<trkpt lat="-27.9454296" lon="152.7187188">
<ele>69.143</ele>
<time>2015-12-05T02:09:18.458Z</time>
</trkpt>
<trkpt lat="-27.9450827" lon="152.7183307">
<ele>70.040</ele>
<time>2015-12-05T02:09:20.452Z</time>
</trkpt>
<trkpt lat="-27.9446502" lon="152.7176644">
<ele>71.901</ele>
<time>2015-12-05T02:09:23.451Z</time>
</trkpt>
<trkpt lat="-27.9443619" lon="152.7169258">
<ele>75.002</ele>
<time>2015-12-05T02:09:26.395Z</time>
</trkpt>
<trkpt lat="-27.9441547" lon="152.7164349">
<ele>79.068</ele>
<time>2015-12-05T02:09:28.395Z</time>
</trkpt>
<trkpt lat="-27.9437949" lon="152.7157149">
<ele>83.658</ele>
<time>2015-12-05T02:09:31.466Z</time>
</trkpt>
<trkpt lat="-27.9435085" lon="152.7153038">
<ele>87.924</ele>
<time>2015-12-05T02:09:33.408Z</time>
</trkpt>
<trkpt lat="-27.9431775" lon="152.7148935">
<ele>91.316</ele>
<time>2015-12-05T02:09:35.437Z</time>
</trkpt>
<trkpt lat="-27.9428213" lon="152.7145127">
<ele>94.439</ele>
<time>2015-12-05T02:09:37.440Z</time>
</trkpt>
<trkpt lat="-27.9422127" lon="152.7139843">
<ele>97.716</ele>
<time>2015-12-05T02:09:40.564Z</time>
</trkpt>
<trkpt lat="-27.9416449" lon="152.7135528">
<ele>100.601</ele>
<time>2015-12-05T02:09:43.382Z</time>
</trkpt>
<trkpt lat="-27.9413094" lon="152.7132654">
<ele>103.264</ele>
<time>2015-12-05T02:09:45.176Z</time>
</trkpt>
<trkpt lat="-27.9407403" lon="152.7127856">
<ele>106.385</ele>
<time>2015-12-05T02:09:48.271Z</time>
</trkpt>
<trkpt lat="-27.9404352" lon="152.7124566">
<ele>109.576</ele>
<time>2015-12-05T02:09:50.102Z</time>
</trkpt>
<trkpt lat="-27.9399301" lon="152.7117990">
<ele>112.122</ele>
<time>2015-12-05T02:09:53.296Z</time>
</trkpt>
<trkpt lat="-27.9396571" lon="152.7112997">
<ele>114.272</ele>
<time>2015-12-05T02:09:55.363Z</time>
</trkpt>
<trkpt lat="-27.9394343" lon="152.7108256">
<ele>116.690</ele>
<time>2015-12-05T02:09:57.301Z</time>
</trkpt>
<trkpt lat="-27.9392074" lon="152.7103679">
<ele>119.193</ele>
<time>2015-12-05T02:09:59.275Z</time>
</trkpt>
<trkpt lat="-27.9388097" lon="152.7097454">
<ele>121.467</ele>
<time>2015-12-05T02:10:02.225Z</time>
</trkpt>
<trkpt lat="-27.9384820" lon="152.7094009">
<ele>123.844</ele>
<time>2015-12-05T02:10:04.194Z</time>
</trkpt>
<trkpt lat="-27.9378800" lon="152.7089778">
<ele>126.131</ele>
<time>2015-12-05T02:10:07.285Z</time>
</trkpt>
<trkpt lat="-27.9372054" lon="152.7087319">
<ele>127.866</ele>
<time>2015-12-05T02:10:10.267Z</time>
</trkpt>
<trkpt lat="-27.9364798" lon="152.7086670">
<ele>129.227</ele>
<time>2015-12-05T02:10:13.282Z</time>
</trkpt>
<trkpt lat="-27.9360051" lon="152.7087630">
<ele>130.624</ele>
<time>2015-12-05T02:10:15.303Z</time>
</trkpt>
<trkpt lat="-27.9353444" lon="152.7090461">
<ele>132.391</ele>
<time>2015-12-05T02:10:18.312Z</time>
</trkpt>
<trkpt lat="-27.9349622" lon="152.7093196">
<ele>134.298</ele>
<time>2015-12-05T02:10:20.291Z</time>
</trkpt>
<trkpt lat="-27.9346251" lon="152.7096563">
<ele>135.516</ele>
<time>2015-12-05T02:10:22.290Z</time>
</trkpt>
<trkpt lat="-27.9342004" lon="152.7102668">
<ele>135.736</ele>
<time>2015-12-05T02:10:25.325Z</time>
</trkpt>
<trkpt lat="-27.9340037" lon="152.7107317">
<ele>134.774</ele>
<time>2015-12-05T02:10:27.316Z</time>
</trkpt>
<trkpt lat="-27.9337663" lon="152.7114548">
<ele>132.760</ele>
<time>2015-12-05T02:10:30.298Z</time>
</trkpt>
<trkpt lat="-27.9335425" lon="152.7121591">
<ele>130.964</ele>
<time>2015-12-05T02:10:33.237Z</time>
</trkpt>
<trkpt lat="-27.9333372" lon="152.7125933">
<ele>130.779</ele>
<time>2015-12-05T02:10:35.180Z</time>
</trkpt>
<trkpt lat="-27.9329463" lon="152.7132522">
<ele>132.253</ele>
<time>2015-12-05T02:10:38.235Z</time>
</trkpt>
<trkpt lat="-27.9326031" lon="152.7136467">
<ele>134.027</ele>
<time>2015-12-05T02:10:40.293Z</time>
</trkpt>
<trkpt lat="-27.9322037" lon="152.7139858">
<ele>134.760</ele>
<time>2015-12-05T02:10:42.328Z</time>
</trkpt>
<trkpt lat="-27.9315272" lon="152.7144080">
<ele>134.457</ele>
<time>2015-12-05T02:10:45.377Z</time>
</trkpt>
<trkpt lat="-27.9308472" lon="152.7147758">
<ele>133.404</ele>
<time>2015-12-05T02:10:48.325Z</time>
</trkpt>
<trkpt lat="-27.9301416" lon="152.7151454">
<ele>130.942</ele>
<time>2015-12-05T02:10:51.402Z</time>
</trkpt>
<trkpt lat="-27.9296859" lon="152.7153871">
<ele>126.772</ele>
<time>2015-12-05T02:10:53.408Z</time>
</trkpt>
<trkpt lat="-27.9290118" lon="152.7157373">
<ele>122.469</ele>
<time>2015-12-05T02:10:56.390Z</time>
</trkpt>
<trkpt lat="-27.9285665" lon="152.7159770">
<ele>120.313</ele>
<time>2015-12-05T02:10:58.409Z</time>
</trkpt>
<trkpt lat="-27.9279255" lon="152.7163152">
<ele>120.881</ele>
<time>2015-12-05T02:11:01.372Z</time>
</trkpt>
<trkpt lat="-27.9275060" lon="152.7165313">
<ele>123.184</ele>
<time>2015-12-05T02:11:03.339Z</time>
</trkpt>
<trkpt lat="-27.9268571" lon="152.7167941">
<ele>126.159</ele>
<time>2015-12-05T02:11:06.306Z</time>
</trkpt>
<trkpt lat="-27.9264063" lon="152.7169219">
<ele>129.764</ele>
<time>2015-12-05T02:11:08.299Z</time>
</trkpt>
<trkpt lat="-27.9256894" lon="152.7170191">
<ele>134.067</ele>
<time>2015-12-05T02:11:11.323Z</time>
</trkpt>
<trkpt lat="-27.9251900" lon="152.7170276">
<ele>138.253</ele>
<time>2015-12-05T02:11:13.351Z</time>
</trkpt>
<trkpt lat="-27.9244364" lon="152.7169641">
<ele>141.484</ele>
<time>2015-12-05T02:11:16.371Z</time>
</trkpt>
<trkpt lat="-27.9239393" lon="152.7169053">
<ele>143.573</ele>
<time>2015-12-05T02:11:18.369Z</time>
</trkpt>
<trkpt lat="-27.9234571" lon="152.7168548">
<ele>144.141</ele>
<time>2015-12-05T02:11:20.332Z</time>
</trkpt>
<trkpt lat="-27.9227285" lon="152.7167754">
<ele>143.003</ele>
<time>2015-12-05T02:11:23.340Z</time>
</trkpt>
<trkpt lat="-27.9220114" lon="152.7166927">
<ele>140.337</ele>
<time>2015-12-05T02:11:26.330Z</time>
</trkpt>
<trkpt lat="-27.9215333" lon="152.7166391">
<ele>136.567</ele>
<time>2015-12-05T02:11:28.325Z</time>
</trkpt>
<trkpt lat="-27.9210437" lon="152.7165790">
<ele>132.946</ele>
<time>2015-12-05T02:11:30.338Z</time>
</trkpt>
<trkpt lat="-27.9202630" lon="152.7164971">
<ele>131.171</ele>
<time>2015-12-05T02:11:33.457Z</time>
</trkpt>
<trkpt lat="-27.9195249" lon="152.7164001">
<ele>131.456</ele>
<time>2015-12-05T02:11:36.377Z</time>
</trkpt>
<trkpt lat="-27.9190165" lon="152.7163465">
<ele>131.483</ele>
<time>2015-12-05T02:11:38.382Z</time>
</trkpt>
<trkpt lat="-27.9182417" lon="152.7162791">
<ele>129.380</ele>
<time>2015-12-05T02:11:41.408Z</time>
</trkpt>
<trkpt lat="-27.9177281" lon="152.7162844">
<ele>125.991</ele>
<time>2015-12-05T02:11:43.408Z</time>
</trkpt>
<trkpt lat="-27.9169752" lon="152.7163962">
<ele>123.003</ele>
<time>2015-12-05T02:11:46.406Z</time>
</trkpt>
<trkpt lat="-27.9162630" lon="152.7166121">
<ele>121.331</ele>
<time>2015-12-05T02:11:49.379Z</time>
</trkpt>
<trkpt lat="-27.9157973" lon="152.7167998">
<ele>121.064</ele>
<time>2015-12-05T02:11:51.402Z</time>
</trkpt>
<trkpt lat="-27.9153461" lon="152.7169874">
<ele>121.348</ele>
<time>2015-12-05T02:11:53.387Z</time>
</trkpt>
<trkpt lat="-27.9148948" lon="152.7171801">
<ele>121.220</ele>
<time>2015-12-05T02:11:55.395Z</time>
</trkpt>
<trkpt lat="-27.9142119" lon="152.7174324">
<ele>119.949</ele>
<time>2015-12-05T02:11:58.406Z</time>
</trkpt>
<trkpt lat="-27.9135186" lon="152.7175759">
<ele>117.405</ele>
<time>2015-12-05T02:12:01.359Z</time>
</trkpt>
<trkpt lat="-27.9130330" lon="152.7176166">
<ele>113.827</ele>
<time>2015-12-05T02:12:03.372Z</time>
</trkpt>
<trkpt lat="-27.9122871" lon="152.7176016">
<ele>109.659</ele>
<time>2015-12-05T02:12:06.399Z</time>
</trkpt>
<trkpt lat="-27.9115367" lon="152.7175867">
<ele>105.834</ele>
<time>2015-12-05T02:12:09.405Z</time>
</trkpt>
<trkpt lat="-27.9107744" lon="152.7175730">
<ele>102.440</ele>
<time>2015-12-05T02:12:12.446Z</time>
</trkpt>
<trkpt lat="-27.9100203" lon="152.7175408">
<ele>98.723</ele>
<time>2015-12-05T02:12:15.457Z</time>
</trkpt>
<trkpt lat="-27.9092856" lon="152.7175047">
<ele>95.222</ele>
<time>2015-12-05T02:12:18.430Z</time>
</trkpt>
<trkpt lat="-27.9085477" lon="152.7174280">
<ele>92.962</ele>
<time>2015-12-05T02:12:21.451Z</time>
</trkpt>
<trkpt lat="-27.9080708" lon="152.7172998">
<ele>91.647</ele>
<time>2015-12-05T02:12:23.447Z</time>
</trkpt>
<trkpt lat="-27.9073822" lon="152.7170115">
<ele>90.542</ele>
<time>2015-12-05T02:12:26.434Z</time>
</trkpt>
<trkpt lat="-27.9067153" lon="152.7166785">
<ele>89.528</ele>
<time>2015-12-05T02:12:29.440Z</time>
</trkpt>
<trkpt lat="-27.9060371" lon="152.7164609">
<ele>88.467</ele>
<time>2015-12-05T02:12:32.420Z</time>
</trkpt>
<trkpt lat="-27.9055712" lon="152.7164052">
<ele>87.105</ele>
<time>2015-12-05T02:12:34.409Z</time>
</trkpt>
<trkpt lat="-27.9050956" lon="152.7163987">
<ele>85.821</ele>
<time>2015-12-05T02:12:36.398Z</time>
</trkpt>
<trkpt lat="-27.9046033" lon="152.7164555">
<ele>85.156</ele>
<time>2015-12-05T02:12:38.416Z</time>
</trkpt>
<trkpt lat="-27.9038375" lon="152.7166172">
<ele>85.152</ele>
<time>2015-12-05T02:12:41.476Z</time>
</trkpt>
<trkpt lat="-27.9030594" lon="152.7168211">
<ele>85.939</ele>
<time>2015-12-05T02:12:44.517Z</time>
</trkpt>
<trkpt lat="-27.9025525" lon="152.7169503">
<ele>87.333</ele>
<time>2015-12-05T02:12:46.500Z</time>
</trkpt>
<trkpt lat="-27.9020496" lon="152.7170963">
<ele>88.339</ele>
<time>2015-12-05T02:12:48.522Z</time>
</trkpt>
<trkpt lat="-27.9013482" lon="152.7173926">
<ele>88.198</ele>
<time>2015-12-05T02:12:51.499Z</time>
</trkpt>
<trkpt lat="-27.9009156" lon="152.7176638">
<ele>86.587</ele>
<time>2015-12-05T02:12:53.489Z</time>
</trkpt>
<trkpt lat="-27.9003104" lon="152.7181404">
<ele>83.885</ele>
<time>2015-12-05T02:12:56.458Z</time>
</trkpt>
<trkpt lat="-27.8999478" lon="152.7185130">
<ele>81.571</ele>
<time>2015-12-05T02:12:58.433Z</time>
</trkpt>
<trkpt lat="-27.8994767" lon="152.7191571">
<ele>80.614</ele>
<time>2015-12-05T02:13:01.419Z</time>
</trkpt>
<trkpt lat="-27.8991728" lon="152.7196018">
<ele>80.756</ele>
<time>2015-12-05T02:13:03.430Z</time>
</trkpt>
<trkpt lat="-27.8987159" lon="152.7202601">
<ele>81.480</ele>
<time>2015-12-05T02:13:06.443Z</time>
</trkpt>
<trkpt lat="-27.8983976" lon="152.7206687">
<ele>81.997</ele>
<time>2015-12-05T02:13:08.434Z</time>
</trkpt>
<trkpt lat="-27.8978644" lon="152.7212244">
<ele>81.713</ele>
<time>2015-12-05T02:13:11.451Z</time>
</trkpt>
<trkpt lat="-27.8974686" lon="152.7215524">
<ele>80.906</ele>
<time>2015-12-05T02:13:13.474Z</time>
</trkpt>
<trkpt lat="-27.8970401" lon="152.7218241">
<ele>80.148</ele>
<time>2015-12-05T02:13:15.458Z</time>
</trkpt>
<trkpt lat="-27.8963702" lon="152.7222527">
<ele>79.600</ele>
<time>2015-12-05T02:13:18.502Z</time>
</trkpt>
<trkpt lat="-27.8959094" lon="152.7225151">
<ele>79.220</ele>
<time>2015-12-05T02:13:20.520Z</time>
</trkpt>
<trkpt lat="-27.8952101" lon="152.7229081">
<ele>79.023</ele>
<time>2015-12-05T02:13:23.554Z</time>
</trkpt>
<trkpt lat="-27.8947561" lon="152.7231848">
<ele>78.971</ele>
<time>2015-12-05T02:13:25.547Z</time>
</trkpt>
<trkpt lat="-27.8943035" lon="152.7234552">
<ele>79.062</ele>
<time>2015-12-05T02:13:27.534Z</time>
</trkpt>
<trkpt lat="-27.8938508" lon="152.7237317">
<ele>79.277</ele>
<time>2015-12-05T02:13:29.546Z</time>
</trkpt>
<trkpt lat="-27.8934019" lon="152.7239992">
<ele>79.484</ele>
<time>2015-12-05T02:13:31.559Z</time>
</trkpt>
<trkpt lat="-27.8927239" lon="152.7243533">
<ele>79.853</ele>
<time>2015-12-05T02:13:34.557Z</time>
</trkpt>
<trkpt lat="-27.8920324" lon="152.7246973">
<ele>80.966</ele>
<time>2015-12-05T02:13:37.565Z</time>
</trkpt>
<trkpt lat="-27.8915671" lon="152.7249208">
<ele>82.700</ele>
<time>2015-12-05T02:13:39.577Z</time>
</trkpt>
<trkpt lat="-27.8908871" lon="152.7252622">
<ele>84.077</ele>
<time>2015-12-05T02:13:42.586Z</time>
</trkpt>
<trkpt lat="-27.8904425" lon="152.7254799">
<ele>84.319</ele>
<time>2015-12-05T02:13:44.579Z</time>
</trkpt>
<trkpt lat="-27.8897757" lon="152.7257944">
<ele>83.476</ele>
<time>2015-12-05T02:13:47.565Z</time>
</trkpt>
<trkpt lat="-27.8893301" lon="152.7260117">
<ele>81.977</ele>
<time>2015-12-05T02:13:49.564Z</time>
</trkpt>
<trkpt lat="-27.8886671" lon="152.7263460">
<ele>80.373</ele>
<time>2015-12-05T02:13:52.539Z</time>
</trkpt>
<trkpt lat="-27.8879959" lon="152.7266815">
<ele>79.516</ele>
<time>2015-12-05T02:13:55.528Z</time>
</trkpt>
<trkpt lat="-27.8873232" lon="152.7270277">
<ele>79.881</ele>
<time>2015-12-05T02:13:58.544Z</time>
</trkpt>
<trkpt lat="-27.8868737" lon="152.7272398">
<ele>80.928</ele>
<time>2015-12-05T02:14:00.551Z</time>
</trkpt>
<trkpt lat="-27.8861951" lon="152.7275250">
<ele>81.931</ele>
<time>2015-12-05T02:14:03.563Z</time>
</trkpt>
<trkpt lat="-27.8855104" lon="152.7277854">
<ele>82.510</ele>
<time>2015-12-05T02:14:06.552Z</time>
</trkpt>
<trkpt lat="-27.8847927" lon="152.7280386">
<ele>82.380</ele>
<time>2015-12-05T02:14:09.565Z</time>
</trkpt>
<trkpt lat="-27.8843035" lon="152.7282104">
<ele>81.615</ele>
<time>2015-12-05T02:14:11.567Z</time>
</trkpt>
<trkpt lat="-27.8838020" lon="152.7283835">
<ele>80.805</ele>
<time>2015-12-05T02:14:13.596Z</time>
</trkpt>
<trkpt lat="-27.8830665" lon="152.7286757">
<ele>80.322</ele>
<time>2015-12-05T02:14:16.594Z</time>
</trkpt>
<trkpt lat="-27.8826033" lon="152.7289245">
<ele>79.976</ele>
<time>2015-12-05T02:14:18.577Z</time>
</trkpt>
<trkpt lat="-27.8821470" lon="152.7291790">
<ele>79.677</ele>
<time>2015-12-05T02:14:20.558Z</time>
</trkpt>
<trkpt lat="-27.8816966" lon="152.7294549">
<ele>79.286</ele>
<time>2015-12-05T02:14:22.556Z</time>
</trkpt>
<trkpt lat="-27.8812432" lon="152.7297348">
<ele>78.670</ele>
<time>2015-12-05T02:14:24.582Z</time>
</trkpt>
<trkpt lat="-27.8805827" lon="152.7301327">
<ele>78.490</ele>
<time>2015-12-05T02:14:27.559Z</time>
</trkpt>
<trkpt lat="-27.8801271" lon="152.7303441">
<ele>79.414</ele>
<time>2015-12-05T02:14:29.564Z</time>
</trkpt>
<trkpt lat="-27.8794200" lon="152.7305621">
<ele>80.889</ele>
<time>2015-12-05T02:14:32.579Z</time>
</trkpt>
<trkpt lat="-27.8789473" lon="152.7306533">
<ele>82.427</ele>
<time>2015-12-05T02:14:34.542Z</time>
</trkpt>
<trkpt lat="-27.8784536" lon="152.7307011">
<ele>84.049</ele>
<time>2015-12-05T02:14:36.535Z</time>
</trkpt>
<trkpt lat="-27.8776857" lon="152.7306673">
<ele>85.454</ele>
<time>2015-12-05T02:14:39.567Z</time>
</trkpt>
<trkpt lat="-27.8769206" lon="152.7305963">
<ele>86.359</ele>
<time>2015-12-05T02:14:42.569Z</time>
</trkpt>
<trkpt lat="-27.8761747" lon="152.7305191">
<ele>86.793</ele>
<time>2015-12-05T02:14:45.535Z</time>
</trkpt>
<trkpt lat="-27.8754367" lon="152.7304451">
<ele>86.820</ele>
<time>2015-12-05T02:14:48.516Z</time>
</trkpt>
<trkpt lat="-27.8749512" lon="152.7303933">
<ele>86.556</ele>
<time>2015-12-05T02:14:50.498Z</time>
</trkpt>
<trkpt lat="-27.8742308" lon="152.7302327">
<ele>86.095</ele>
<time>2015-12-05T02:14:53.475Z</time>
</trkpt>
<trkpt lat="-27.8735181" lon="152.7299522">
<ele>85.671</ele>
<time>2015-12-05T02:14:56.480Z</time>
</trkpt>
<trkpt lat="-27.8727940" lon="152.7296552">
<ele>85.619</ele>
<time>2015-12-05T02:14:59.538Z</time>
</trkpt>
<trkpt lat="-27.8723479" lon="152.7294585">
<ele>85.989</ele>
<time>2015-12-05T02:15:01.466Z</time>
</trkpt>
<trkpt lat="-27.8716419" lon="152.7291402">
<ele>86.440</ele>
<time>2015-12-05T02:15:04.525Z</time>
</trkpt>
<trkpt lat="-27.8711631" lon="152.7289444">
<ele>86.504</ele>
<time>2015-12-05T02:15:06.544Z</time>
</trkpt>
<trkpt lat="-27.8704252" lon="152.7286982">
<ele>86.104</ele>
<time>2015-12-05T02:15:09.573Z</time>
</trkpt>
<trkpt lat="-27.8696969" lon="152.7285060">
<ele>85.611</ele>
<time>2015-12-05T02:15:12.545Z</time>
</trkpt>
<trkpt lat="-27.8689910" lon="152.7282991">
<ele>85.561</ele>
<time>2015-12-05T02:15:15.512Z</time>
</trkpt>
<trkpt lat="-27.8685280" lon="152.7281839">
<ele>86.089</ele>
<time>2015-12-05T02:15:17.474Z</time>
</trkpt>
<trkpt lat="-27.8678192" lon="152.7280040">
<ele>86.931</ele>
<time>2015-12-05T02:15:20.492Z</time>
</trkpt>
<trkpt lat="-27.8673501" lon="152.7278696">
<ele>88.497</ele>
<time>2015-12-05T02:15:22.499Z</time>
</trkpt>
<trkpt lat="-27.8667108" lon="152.7277407">
<ele>91.329</ele>
<time>2015-12-05T02:15:25.231Z</time>
</trkpt>
<trkpt lat="-27.8662694" lon="152.7276526">
<ele>94.569</ele>
<time>2015-12-05T02:15:27.170Z</time>
</trkpt>
<trkpt lat="-27.8657635" lon="152.7275778">
<ele>97.087</ele>
<time>2015-12-05T02:15:29.355Z</time>
</trkpt>
<trkpt lat="-27.8650285" lon="152.7275820">
<ele>99.029</ele>
<time>2015-12-05T02:15:32.389Z</time>
</trkpt>
<trkpt lat="-27.8642902" lon="152.7276944">
<ele>100.915</ele>
<time>2015-12-05T02:15:35.375Z</time>
</trkpt>
<trkpt lat="-27.8635458" lon="152.7278326">
<ele>102.645</ele>
<time>2015-12-05T02:15:38.399Z</time>
</trkpt>
<trkpt lat="-27.8630701" lon="152.7279345">
<ele>103.768</ele>
<time>2015-12-05T02:15:40.384Z</time>
</trkpt>
<trkpt lat="-27.8623621" lon="152.7281273">
<ele>103.761</ele>
<time>2015-12-05T02:15:43.369Z</time>
</trkpt>
<trkpt lat="-27.8618957" lon="152.7283277">
<ele>102.005</ele>
<time>2015-12-05T02:15:45.380Z</time>
</trkpt>
<trkpt lat="-27.8612239" lon="152.7286872">
<ele>99.019</ele>
<time>2015-12-05T02:15:48.373Z</time>
</trkpt>
<trkpt lat="-27.8607839" lon="152.7289173">
<ele>96.480</ele>
<time>2015-12-05T02:15:50.345Z</time>
</trkpt>
<trkpt lat="-27.8603853" lon="152.7291945">
<ele>94.961</ele>
<time>2015-12-05T02:15:52.288Z</time>
</trkpt>
<trkpt lat="-27.8600078" lon="152.7295209">
<ele>93.907</ele>
<time>2015-12-05T02:15:54.303Z</time>
</trkpt>
<trkpt lat="-27.8594902" lon="152.7300491">
<ele>93.109</ele>
<time>2015-12-05T02:15:57.274Z</time>
</trkpt>
<trkpt lat="-27.8589794" lon="152.7306337">
<ele>92.264</ele>
<time>2015-12-05T02:16:00.332Z</time>
</trkpt>
<trkpt lat="-27.8586465" lon="152.7310268">
<ele>90.815</ele>
<time>2015-12-05T02:16:02.334Z</time>
</trkpt>
<trkpt lat="-27.8581407" lon="152.7316042">
<ele>88.835</ele>
<time>2015-12-05T02:16:05.311Z</time>
</trkpt>
<trkpt lat="-27.8576285" lon="152.7321939">
<ele>86.952</ele>
<time>2015-12-05T02:16:08.322Z</time>
</trkpt>
<trkpt lat="-27.8572773" lon="152.7325956">
<ele>85.391</ele>
<time>2015-12-05T02:16:10.362Z</time>
</trkpt>
<trkpt lat="-27.8567568" lon="152.7332022">
<ele>83.894</ele>
<time>2015-12-05T02:16:13.375Z</time>
</trkpt>
<trkpt lat="-27.8563980" lon="152.7336021">
<ele>82.529</ele>
<time>2015-12-05T02:16:15.394Z</time>
</trkpt>
<trkpt lat="-27.8558956" lon="152.7341868">
<ele>81.275</ele>
<time>2015-12-05T02:16:18.350Z</time>
</trkpt>
<trkpt lat="-27.8555641" lon="152.7345591">
<ele>79.378</ele>
<time>2015-12-05T02:16:20.308Z</time>
</trkpt>
<trkpt lat="-27.8550946" lon="152.7351977">
<ele>76.809</ele>
<time>2015-12-05T02:16:23.337Z</time>
</trkpt>
<trkpt lat="-27.8547893" lon="152.7356411">
<ele>74.632</ele>
<time>2015-12-05T02:16:25.342Z</time>
</trkpt>
<trkpt lat="-27.8543245" lon="152.7363147">
<ele>73.471</ele>
<time>2015-12-05T02:16:28.380Z</time>
</trkpt>
<trkpt lat="-27.8538346" lon="152.7369164">
<ele>72.998</ele>
<time>2015-12-05T02:16:31.326Z</time>
</trkpt>
<trkpt lat="-27.8532728" lon="152.7374377">
<ele>72.049</ele>
<time>2015-12-05T02:16:34.330Z</time>
</trkpt>
<trkpt lat="-27.8526509" lon="152.7378856">
<ele>69.871</ele>
<time>2015-12-05T02:16:37.356Z</time>
</trkpt>
<trkpt lat="-27.8521800" lon="152.7381355">
<ele>67.411</ele>
<time>2015-12-05T02:16:39.419Z</time>
</trkpt>
<trkpt lat="-27.8514430" lon="152.7383992">
<ele>65.665</ele>
<time>2015-12-05T02:16:42.413Z</time>
</trkpt>
<trkpt lat="-27.8509406" lon="152.7385211">
<ele>64.578</ele>
<time>2015-12-05T02:16:44.401Z</time>
</trkpt>
<trkpt lat="-27.8501885" lon="152.7386596">
<ele>63.703</ele>
<time>2015-12-05T02:16:47.341Z</time>
</trkpt>
<trkpt lat="-27.8493969" lon="152.7388042">
<ele>62.740</ele>
<time>2015-12-05T02:16:50.375Z</time>
</trkpt>
<trkpt lat="-27.8488709" lon="152.7389061">
<ele>62.390</ele>
<time>2015-12-05T02:16:52.379Z</time>
</trkpt>
<trkpt lat="-27.8483654" lon="152.7390037">
<ele>63.987</ele>
<time>2015-12-05T02:16:54.348Z</time>
</trkpt>
<trkpt lat="-27.8476493" lon="152.7391405">
<ele>67.138</ele>
<time>2015-12-05T02:16:57.257Z</time>
</trkpt>
<trkpt lat="-27.8469381" lon="152.7392779">
<ele>70.222</ele>
<time>2015-12-05T02:17:00.258Z</time>
</trkpt>
<trkpt lat="-27.8462252" lon="152.7394154">
<ele>72.555</ele>
<time>2015-12-05T02:17:03.274Z</time>
</trkpt>
<trkpt lat="-27.8454979" lon="152.7395492">
<ele>74.140</ele>
<time>2015-12-05T02:17:06.320Z</time>
</trkpt>
<trkpt lat="-27.8450216" lon="152.7396386">
<ele>74.505</ele>
<time>2015-12-05T02:17:08.314Z</time>
</trkpt>
<trkpt lat="-27.8443144" lon="152.7397694">
<ele>73.533</ele>
<time>2015-12-05T02:17:11.290Z</time>
</trkpt>
<trkpt lat="-27.8438328" lon="152.7398579">
<ele>71.828</ele>
<time>2015-12-05T02:17:13.296Z</time>
</trkpt>
<trkpt lat="-27.8433233" lon="152.7399531">
<ele>70.244</ele>
<time>2015-12-05T02:17:15.359Z</time>
</trkpt>
<trkpt lat="-27.8425809" lon="152.7400900">
<ele>69.553</ele>
<time>2015-12-05T02:17:18.336Z</time>
</trkpt>
<trkpt lat="-27.8420958" lon="152.7401785">
<ele>70.383</ele>
<time>2015-12-05T02:17:20.320Z</time>
</trkpt>
<trkpt lat="-27.8416221" lon="152.7402646">
<ele>72.897</ele>
<time>2015-12-05T02:17:22.302Z</time>
</trkpt>
<trkpt lat="-27.8408908" lon="152.7404059">
<ele>76.821</ele>
<time>2015-12-05T02:17:25.353Z</time>
</trkpt>
<trkpt lat="-27.8403949" lon="152.7405064">
<ele>81.446</ele>
<time>2015-12-05T02:17:27.371Z</time>
</trkpt>
<trkpt lat="-27.8399073" lon="152.7405984">
<ele>85.432</ele>
<time>2015-12-05T02:17:29.346Z</time>
</trkpt>
<trkpt lat="-27.8394074" lon="152.7406899">
<ele>87.610</ele>
<time>2015-12-05T02:17:31.370Z</time>
</trkpt>
<trkpt lat="-27.8389060" lon="152.7407851">
<ele>88.049</ele>
<time>2015-12-05T02:17:33.381Z</time>
</trkpt>
<trkpt lat="-27.8381483" lon="152.7409405">
<ele>87.020</ele>
<time>2015-12-05T02:17:36.403Z</time>
</trkpt>
<trkpt lat="-27.8374081" lon="152.7410807">
<ele>84.596</ele>
<time>2015-12-05T02:17:39.373Z</time>
</trkpt>
<trkpt lat="-27.8366768" lon="152.7412104">
<ele>80.601</ele>
<time>2015-12-05T02:17:42.369Z</time>
</trkpt>
<trkpt lat="-27.8359598" lon="152.7413476">
<ele>74.811</ele>
<time>2015-12-05T02:17:45.359Z</time>
</trkpt>
<trkpt lat="-27.8354828" lon="152.7414367">
<ele>68.650</ele>
<time>2015-12-05T02:17:47.353Z</time>
</trkpt>
<trkpt lat="-27.8349954" lon="152.7415269">
<ele>64.546</ele>
<time>2015-12-05T02:17:49.368Z</time>
</trkpt>
<trkpt lat="-27.8342214" lon="152.7416695">
<ele>62.909</ele>
<time>2015-12-05T02:17:52.488Z</time>
</trkpt>
<trkpt lat="-27.8337302" lon="152.7417585">
<ele>62.516</ele>
<time>2015-12-05T02:17:54.460Z</time>
</trkpt>
<trkpt lat="-27.8330029" lon="152.7418958">
<ele>62.236</ele>
<time>2015-12-05T02:17:57.441Z</time>
</trkpt>
<trkpt lat="-27.8325222" lon="152.7419835">
<ele>61.731</ele>
<time>2015-12-05T02:17:59.437Z</time>
</trkpt>
<trkpt lat="-27.8318055" lon="152.7421275">
<ele>61.406</ele>
<time>2015-12-05T02:18:02.432Z</time>
</trkpt>
<trkpt lat="-27.8313276" lon="152.7422133">
<ele>61.592</ele>
<time>2015-12-05T02:18:04.429Z</time>
</trkpt>
<trkpt lat="-27.8306119" lon="152.7423540">
<ele>61.980</ele>
<time>2015-12-05T02:18:07.420Z</time>
</trkpt>
<trkpt lat="-27.8298853" lon="152.7424784">
<ele>62.553</ele>
<time>2015-12-05T02:18:10.414Z</time>
</trkpt>
<trkpt lat="-27.8293963" lon="152.7425726">
<ele>64.682</ele>
<time>2015-12-05T02:18:12.404Z</time>
</trkpt>
<trkpt lat="-27.8289083" lon="152.7426722">
<ele>69.035</ele>
<time>2015-12-05T02:18:14.391Z</time>
</trkpt>
<trkpt lat="-27.8281893" lon="152.7428032">
<ele>73.593</ele>
<time>2015-12-05T02:18:17.345Z</time>
</trkpt>
<trkpt lat="-27.8277036" lon="152.7428961">
<ele>76.018</ele>
<time>2015-12-05T02:18:19.350Z</time>
</trkpt>
<trkpt lat="-27.8269637" lon="152.7430402">
<ele>76.101</ele>
<time>2015-12-05T02:18:22.368Z</time>
</trkpt>
<trkpt lat="-27.8262068" lon="152.7431909">
<ele>74.401</ele>
<time>2015-12-05T02:18:25.382Z</time>
</trkpt>
<trkpt lat="-27.8256874" lon="152.7432952">
<ele>71.399</ele>
<time>2015-12-05T02:18:27.413Z</time>
</trkpt>
<trkpt lat="-27.8251722" lon="152.7433989">
<ele>68.241</ele>
<time>2015-12-05T02:18:29.424Z</time>
</trkpt>
<trkpt lat="-27.8246515" lon="152.7435015">
<ele>66.269</ele>
<time>2015-12-05T02:18:31.459Z</time>
</trkpt>
<trkpt lat="-27.8241408" lon="152.7435924">
<ele>65.029</ele>
<time>2015-12-05T02:18:33.467Z</time>
</trkpt>
<trkpt lat="-27.8233968" lon="152.7437336">
<ele>63.472</ele>
<time>2015-12-05T02:18:36.470Z</time>
</trkpt>
<trkpt lat="-27.8227097" lon="152.7438058">
<ele>61.978</ele>
<time>2015-12-05T02:18:39.358Z</time>
</trkpt>
<trkpt lat="-27.8220167" lon="152.7437907">
<ele>61.246</ele>
<time>2015-12-05T02:18:42.320Z</time>
</trkpt>
<trkpt lat="-27.8215298" lon="152.7437309">
<ele>61.125</ele>
<time>2015-12-05T02:18:44.332Z</time>
</trkpt>
<trkpt lat="-27.8210235" lon="152.7436016">
<ele>61.298</ele>
<time>2015-12-05T02:18:46.386Z</time>
</trkpt>
<trkpt lat="-27.8202862" lon="152.7433960">
<ele>61.482</ele>
<time>2015-12-05T02:18:49.364Z</time>
</trkpt>
<trkpt lat="-27.8195580" lon="152.7431944">
<ele>61.170</ele>
<time>2015-12-05T02:18:52.349Z</time>
</trkpt>
<trkpt lat="-27.8188351" lon="152.7429875">
<ele>60.158</ele>
<time>2015-12-05T02:18:55.371Z</time>
</trkpt>
<trkpt lat="-27.8181153" lon="152.7427762">
<ele>59.328</ele>
<time>2015-12-05T02:18:58.384Z</time>
</trkpt>
<trkpt lat="-27.8176170" lon="152.7426355">
<ele>59.519</ele>
<time>2015-12-05T02:19:00.440Z</time>
</trkpt>
<trkpt lat="-27.8171416" lon="152.7424964">
<ele>60.325</ele>
<time>2015-12-05T02:19:02.424Z</time>
</trkpt>
<trkpt lat="-27.8166892" lon="152.7423654">
<ele>60.699</ele>
<time>2015-12-05T02:19:04.363Z</time>
</trkpt>
<trkpt lat="-27.8162492" lon="152.7422367">
<ele>60.176</ele>
<time>2015-12-05T02:19:06.284Z</time>
</trkpt>
<trkpt lat="-27.8157891" lon="152.7420718">
<ele>59.193</ele>
<time>2015-12-05T02:19:08.314Z</time>
</trkpt>
<trkpt lat="-27.8153312" lon="152.7418510">
<ele>58.347</ele>
<time>2015-12-05T02:19:10.360Z</time>
</trkpt>
<trkpt lat="-27.8145932" lon="152.7414893">
<ele>57.606</ele>
<time>2015-12-05T02:19:13.513Z</time>
</trkpt>
<trkpt lat="-27.8138707" lon="152.7411352">
<ele>56.056</ele>
<time>2015-12-05T02:19:16.500Z</time>
</trkpt>
<trkpt lat="-27.8131724" lon="152.7408127">
<ele>53.473</ele>
<time>2015-12-05T02:19:19.406Z</time>
</trkpt>
<trkpt lat="-27.8126915" lon="152.7405873">
<ele>51.491</ele>
<time>2015-12-05T02:19:21.439Z</time>
</trkpt>
<trkpt lat="-27.8122024" lon="152.7403595">
<ele>51.288</ele>
<time>2015-12-05T02:19:23.487Z</time>
</trkpt>
<trkpt lat="-27.8117226" lon="152.7401374">
<ele>52.020</ele>
<time>2015-12-05T02:19:25.492Z</time>
</trkpt>
<trkpt lat="-27.8110243" lon="152.7398019">
<ele>52.269</ele>
<time>2015-12-05T02:19:28.468Z</time>
</trkpt>
<trkpt lat="-27.8105612" lon="152.7395745">
<ele>51.623</ele>
<time>2015-12-05T02:19:30.499Z</time>
</trkpt>
<trkpt lat="-27.8099017" lon="152.7392564">
<ele>51.007</ele>
<time>2015-12-05T02:19:33.485Z</time>
</trkpt>
<trkpt lat="-27.8092970" lon="152.7389715">
<ele>51.653</ele>
<time>2015-12-05T02:19:36.312Z</time>
</trkpt>
<trkpt lat="-27.8088704" lon="152.7387544">
<ele>54.260</ele>
<time>2015-12-05T02:19:38.332Z</time>
</trkpt>
<trkpt lat="-27.8084321" lon="152.7385395">
<ele>58.457</ele>
<time>2015-12-05T02:19:40.370Z</time>
</trkpt>
<trkpt lat="-27.8077811" lon="152.7382333">
<ele>62.538</ele>
<time>2015-12-05T02:19:43.350Z</time>
</trkpt>
<trkpt lat="-27.8073312" lon="152.7380232">
<ele>65.042</ele>
<time>2015-12-05T02:19:45.364Z</time>
</trkpt>
<trkpt lat="-27.8068767" lon="152.7378132">
<ele>65.996</ele>
<time>2015-12-05T02:19:47.353Z</time>
</trkpt>
<trkpt lat="-27.8061867" lon="152.7374693">
<ele>65.484</ele>
<time>2015-12-05T02:19:50.366Z</time>
</trkpt>
<trkpt lat="-27.8054924" lon="152.7371459">
<ele>63.201</ele>
<time>2015-12-05T02:19:53.348Z</time>
</trkpt>
<trkpt lat="-27.8050238" lon="152.7369288">
<ele>59.820</ele>
<time>2015-12-05T02:19:55.347Z</time>
</trkpt>
<trkpt lat="-27.8043017" lon="152.7365865">
<ele>56.904</ele>
<time>2015-12-05T02:19:58.396Z</time>
</trkpt>
<trkpt lat="-27.8035828" lon="152.7362549">
<ele>55.386</ele>
<time>2015-12-05T02:20:01.395Z</time>
</trkpt>
<trkpt lat="-27.8028676" lon="152.7359161">
<ele>55.116</ele>
<time>2015-12-05T02:20:04.383Z</time>
</trkpt>
<trkpt lat="-27.8023860" lon="152.7356793">
<ele>55.546</ele>
<time>2015-12-05T02:20:06.406Z</time>
</trkpt>
<trkpt lat="-27.8019216" lon="152.7354482">
<ele>56.318</ele>
<time>2015-12-05T02:20:08.375Z</time>
</trkpt>
<trkpt lat="-27.8014475" lon="152.7352162">
<ele>57.267</ele>
<time>2015-12-05T02:20:10.411Z</time>
</trkpt>
<trkpt lat="-27.8009912" lon="152.7349982">
<ele>58.616</ele>
<time>2015-12-05T02:20:12.421Z</time>
</trkpt>
<trkpt lat="-27.8003069" lon="152.7348044">
<ele>60.420</ele>
<time>2015-12-05T02:20:15.384Z</time>
</trkpt>
<trkpt lat="-27.7998653" lon="152.7347432">
<ele>62.032</ele>
<time>2015-12-05T02:20:17.324Z</time>
</trkpt>
<trkpt lat="-27.7992132" lon="152.7347362">
<ele>62.897</ele>
<time>2015-12-05T02:20:20.246Z</time>
</trkpt>
<trkpt lat="-27.7985758" lon="152.7348036">
<ele>62.690</ele>
<time>2015-12-05T02:20:23.203Z</time>
</trkpt>
<trkpt lat="-27.7979603" lon="152.7349256">
<ele>61.278</ele>
<time>2015-12-05T02:20:26.140Z</time>
</trkpt>
<trkpt lat="-27.7972846" lon="152.7350647">
<ele>59.381</ele>
<time>2015-12-05T02:20:29.288Z</time>
</trkpt>
<trkpt lat="-27.7968482" lon="152.7351487">
<ele>57.998</ele>
<time>2015-12-05T02:20:31.273Z</time>
</trkpt>
<trkpt lat="-27.7961824" lon="152.7352913">
<ele>57.292</ele>
<time>2015-12-05T02:20:34.310Z</time>
</trkpt>
<trkpt lat="-27.7955234" lon="152.7354252">
<ele>56.931</ele>
<time>2015-12-05T02:20:37.302Z</time>
</trkpt>
<trkpt lat="-27.7950812" lon="152.7355227">
<ele>56.559</ele>
<time>2015-12-05T02:20:39.312Z</time>
</trkpt>
<trkpt lat="-27.7946371" lon="152.7356019">
<ele>56.186</ele>
<time>2015-12-05T02:20:41.339Z</time>
</trkpt>
<trkpt lat="-27.7940001" lon="152.7356635">
<ele>55.809</ele>
<time>2015-12-05T02:20:44.284Z</time>
</trkpt>
<trkpt lat="-27.7935697" lon="152.7356738">
<ele>55.408</ele>
<time>2015-12-05T02:20:46.279Z</time>
</trkpt>
<trkpt lat="-27.7931318" lon="152.7356394">
<ele>55.205</ele>
<time>2015-12-05T02:20:48.292Z</time>
</trkpt>
<trkpt lat="-27.7926931" lon="152.7355736">
<ele>55.299</ele>
<time>2015-12-05T02:20:50.324Z</time>
</trkpt>
<trkpt lat="-27.7920941" lon="152.7354089">
<ele>55.209</ele>
<time>2015-12-05T02:20:53.263Z</time>
</trkpt>
<trkpt lat="-27.7915657" lon="152.7351782">
<ele>54.718</ele>
<time>2015-12-05T02:20:56.153Z</time>
</trkpt>
<trkpt lat="-27.7912199" lon="152.7349973">
<ele>53.686</ele>
<time>2015-12-05T02:20:58.158Z</time>
</trkpt>
<trkpt lat="-27.7907113" lon="152.7346689">
<ele>52.189</ele>
<time>2015-12-05T02:21:01.195Z</time>
</trkpt>
<trkpt lat="-27.7903818" lon="152.7344549">
<ele>50.898</ele>
<time>2015-12-05T02:21:03.188Z</time>
</trkpt>
<trkpt lat="-27.7899231" lon="152.7341569">
<ele>49.996</ele>
<time>2015-12-05T02:21:06.127Z</time>
</trkpt>
<trkpt lat="-27.7894939" lon="152.7338805">
<ele>48.845</ele>
<time>2015-12-05T02:21:09.124Z</time>
</trkpt>
<trkpt lat="-27.7891001" lon="152.7336494">
<ele>46.739</ele>
<time>2015-12-05T02:21:12.022Z</time>
</trkpt>
<trkpt lat="-27.7888292" lon="152.7334902">
<ele>43.685</ele>
<time>2015-12-05T02:21:14.056Z</time>
</trkpt>
<trkpt lat="-27.7884471" lon="152.7332466">
<ele>40.811</ele>
<time>2015-12-05T02:21:17.000Z</time>
</trkpt>
<trkpt lat="-27.7880779" lon="152.7330082">
<ele>39.082</ele>
<time>2015-12-05T02:21:19.932Z</time>
</trkpt>
<trkpt lat="-27.7878391" lon="152.7328618">
<ele>38.273</ele>
<time>2015-12-05T02:21:21.875Z</time>
</trkpt>
<trkpt lat="-27.7874680" lon="152.7326274">
<ele>37.913</ele>
<time>2015-12-05T02:21:24.911Z</time>
</trkpt>
<trkpt lat="-27.7872030" lon="152.7324643">
<ele>37.710</ele>
<time>2015-12-05T02:21:26.958Z</time>
</trkpt>
<trkpt lat="-27.7867906" lon="152.7322063">
<ele>37.614</ele>
<time>2015-12-05T02:21:30.019Z</time>
</trkpt>
<trkpt lat="-27.7865137" lon="152.7320364">
<ele>37.744</ele>
<time>2015-12-05T02:21:32.048Z</time>
</trkpt>
<trkpt lat="-27.7861395" lon="152.7318053">
<ele>38.122</ele>
<time>2015-12-05T02:21:34.942Z</time>
</trkpt>
<trkpt lat="-27.7857982" lon="152.7315948">
<ele>38.368</ele>
<time>2015-12-05T02:21:37.863Z</time>
</trkpt>
<trkpt lat="-27.7855950" lon="152.7314640">
<ele>38.147</ele>
<time>2015-12-05T02:21:39.751Z</time>
</trkpt>
<trkpt lat="-27.7852539" lon="152.7312561">
<ele>37.661</ele>
<time>2015-12-05T02:21:42.837Z</time>
</trkpt>
<trkpt lat="-27.7850126" lon="152.7311195">
<ele>37.285</ele>
<time>2015-12-05T02:21:44.925Z</time>
</trkpt>
<trkpt lat="-27.7846862" lon="152.7309187">
<ele>37.198</ele>
<time>2015-12-05T02:21:47.811Z</time>
</trkpt>
<trkpt lat="-27.7844470" lon="152.7307768">
<ele>37.368</ele>
<time>2015-12-05T02:21:49.863Z</time>
</trkpt>
<trkpt lat="-27.7841039" lon="152.7305549">
<ele>37.668</ele>
<time>2015-12-05T02:21:52.840Z</time>
</trkpt>
<trkpt lat="-27.7837538" lon="152.7303312">
<ele>37.984</ele>
<time>2015-12-05T02:21:55.866Z</time>
</trkpt>
<trkpt lat="-27.7835186" lon="152.7301724">
<ele>38.329</ele>
<time>2015-12-05T02:21:57.901Z</time>
</trkpt>
<trkpt lat="-27.7833028" lon="152.7300256">
<ele>38.812</ele>
<time>2015-12-05T02:21:59.795Z</time>
</trkpt>
<trkpt lat="-27.7830687" lon="152.7298960">
<ele>39.375</ele>
<time>2015-12-05T02:22:01.793Z</time>
</trkpt>
<trkpt lat="-27.7826762" lon="152.7297841">
<ele>39.706</ele>
<time>2015-12-05T02:22:04.856Z</time>
</trkpt>
<trkpt lat="-27.7824001" lon="152.7297670">
<ele>39.684</ele>
<time>2015-12-05T02:22:06.883Z</time>
</trkpt>
<trkpt lat="-27.7819912" lon="152.7298405">
<ele>39.514</ele>
<time>2015-12-05T02:22:09.883Z</time>
</trkpt>
<trkpt lat="-27.7815980" lon="152.7300608">
<ele>39.444</ele>
<time>2015-12-05T02:22:12.996Z</time>
</trkpt>
<trkpt lat="-27.7812341" lon="152.7303543">
<ele>39.538</ele>
<time>2015-12-05T02:22:16.038Z</time>
</trkpt>
<trkpt lat="-27.7808615" lon="152.7306497">
<ele>39.684</ele>
<time>2015-12-05T02:22:19.097Z</time>
</trkpt>
<trkpt lat="-27.7805132" lon="152.7309327">
<ele>39.647</ele>
<time>2015-12-05T02:22:22.052Z</time>
</trkpt>
<trkpt lat="-27.7801596" lon="152.7312188">
<ele>39.349</ele>
<time>2015-12-05T02:22:25.086Z</time>
</trkpt>
<trkpt lat="-27.7799192" lon="152.7314057">
<ele>39.091</ele>
<time>2015-12-05T02:22:27.123Z</time>
</trkpt>
<trkpt lat="-27.7795739" lon="152.7316842">
<ele>39.243</ele>
<time>2015-12-05T02:22:30.090Z</time>
</trkpt>
<trkpt lat="-27.7792347" lon="152.7319988">
<ele>39.725</ele>
<time>2015-12-05T02:22:33.111Z</time>
</trkpt>
<trkpt lat="-27.7788999" lon="152.7323318">
<ele>40.195</ele>
<time>2015-12-05T02:22:36.147Z</time>
</trkpt>
<trkpt lat="-27.7786742" lon="152.7325554">
<ele>40.399</ele>
<time>2015-12-05T02:22:38.173Z</time>
</trkpt>
<trkpt lat="-27.7783068" lon="152.7328728">
<ele>40.329</ele>
<time>2015-12-05T02:22:41.224Z</time>
</trkpt>
<trkpt lat="-27.7780414" lon="152.7330474">
<ele>40.112</ele>
<time>2015-12-05T02:22:43.210Z</time>
</trkpt>
<trkpt lat="-27.7775898" lon="152.7332478">
<ele>39.925</ele>
<time>2015-12-05T02:22:46.259Z</time>
</trkpt>
<trkpt lat="-27.7771011" lon="152.7334258">
<ele>39.880</ele>
<time>2015-12-05T02:22:49.348Z</time>
</trkpt>
<trkpt lat="-27.7766044" lon="152.7335967">
<ele>39.978</ele>
<time>2015-12-05T02:22:52.393Z</time>
</trkpt>
<trkpt lat="-27.7761164" lon="152.7337463">
<ele>40.122</ele>
<time>2015-12-05T02:22:55.357Z</time>
</trkpt>
<trkpt lat="-27.7758028" lon="152.7338488">
<ele>40.245</ele>
<time>2015-12-05T02:22:57.288Z</time>
</trkpt>
<trkpt lat="-27.7754816" lon="152.7339613">
<ele>40.315</ele>
<time>2015-12-05T02:22:59.287Z</time>
</trkpt>
<trkpt lat="-27.7751607" lon="152.7340756">
<ele>40.288</ele>
<time>2015-12-05T02:23:01.293Z</time>
</trkpt>
<trkpt lat="-27.7748412" lon="152.7341801">
<ele>40.065</ele>
<time>2015-12-05T02:23:03.293Z</time>
</trkpt>
<trkpt lat="-27.7745345" lon="152.7342903">
<ele>39.626</ele>
<time>2015-12-05T02:23:05.286Z</time>
</trkpt>
<trkpt lat="-27.7740921" lon="152.7344357">
<ele>39.124</ele>
<time>2015-12-05T02:23:08.232Z</time>
</trkpt>
<trkpt lat="-27.7737911" lon="152.7345456">
<ele>38.780</ele>
<time>2015-12-05T02:23:10.268Z</time>
</trkpt>
<trkpt lat="-27.7733386" lon="152.7347041">
<ele>38.808</ele>
<time>2015-12-05T02:23:13.266Z</time>
</trkpt>
<trkpt lat="-27.7730285" lon="152.7348194">
<ele>39.249</ele>
<time>2015-12-05T02:23:15.298Z</time>
</trkpt>
<trkpt lat="-27.7725649" lon="152.7349755">
<ele>39.827</ele>
<time>2015-12-05T02:23:18.292Z</time>
</trkpt>
<trkpt lat="-27.7721035" lon="152.7351403">
<ele>40.142</ele>
<time>2015-12-05T02:23:21.279Z</time>
</trkpt>
<trkpt lat="-27.7716351" lon="152.7352895">
<ele>40.082</ele>
<time>2015-12-05T02:23:24.308Z</time>
</trkpt>
<trkpt lat="-27.7711918" lon="152.7354414">
<ele>39.848</ele>
<time>2015-12-05T02:23:27.277Z</time>
</trkpt>
<trkpt lat="-27.7708844" lon="152.7355469">
<ele>39.525</ele>
<time>2015-12-05T02:23:29.335Z</time>
</trkpt>
<trkpt lat="-27.7704091" lon="152.7357188">
<ele>39.079</ele>
<time>2015-12-05T02:23:32.393Z</time>
</trkpt>
<trkpt lat="-27.7700838" lon="152.7358237">
<ele>38.663</ele>
<time>2015-12-05T02:23:34.384Z</time>
</trkpt>
<trkpt lat="-27.7697380" lon="152.7359432">
<ele>38.490</ele>
<time>2015-12-05T02:23:36.411Z</time>
</trkpt>
<trkpt lat="-27.7691662" lon="152.7361451">
<ele>38.879</ele>
<time>2015-12-05T02:23:39.500Z</time>
</trkpt>
<trkpt lat="-27.7687347" lon="152.7362944">
<ele>40.057</ele>
<time>2015-12-05T02:23:41.572Z</time>
</trkpt>
<trkpt lat="-27.7680334" lon="152.7365419">
<ele>41.858</ele>
<time>2015-12-05T02:23:44.702Z</time>
</trkpt>
<trkpt lat="-27.7675677" lon="152.7367023">
<ele>44.126</ele>
<time>2015-12-05T02:23:46.707Z</time>
</trkpt>
<trkpt lat="-27.7668514" lon="152.7369413">
<ele>46.447</ele>
<time>2015-12-05T02:23:49.755Z</time>
</trkpt>
<trkpt lat="-27.7663770" lon="152.7371062">
<ele>48.050</ele>
<time>2015-12-05T02:23:51.767Z</time>
</trkpt>
<trkpt lat="-27.7656709" lon="152.7373538">
<ele>48.738</ele>
<time>2015-12-05T02:23:54.771Z</time>
</trkpt>
<trkpt lat="-27.7652028" lon="152.7375129">
<ele>48.891</ele>
<time>2015-12-05T02:23:56.773Z</time>
</trkpt>
<trkpt lat="-27.7645021" lon="152.7376630">
<ele>48.768</ele>
<time>2015-12-05T02:23:59.734Z</time>
</trkpt>
<trkpt lat="-27.7637879" lon="152.7376201">
<ele>48.413</ele>
<time>2015-12-05T02:24:02.726Z</time>
</trkpt>
<trkpt lat="-27.7633094" lon="152.7374889">
<ele>47.800</ele>
<time>2015-12-05T02:24:04.736Z</time>
</trkpt>
<trkpt lat="-27.7628212" lon="152.7373343">
<ele>47.027</ele>
<time>2015-12-05T02:24:06.766Z</time>
</trkpt>
<trkpt lat="-27.7623421" lon="152.7371772">
<ele>46.230</ele>
<time>2015-12-05T02:24:08.763Z</time>
</trkpt>
<trkpt lat="-27.7616308" lon="152.7369396">
<ele>45.544</ele>
<time>2015-12-05T02:24:11.742Z</time>
</trkpt>
<trkpt lat="-27.7611421" lon="152.7367853">
<ele>45.135</ele>
<time>2015-12-05T02:24:13.775Z</time>
</trkpt>
<trkpt lat="-27.7604222" lon="152.7365471">
<ele>44.893</ele>
<time>2015-12-05T02:24:16.787Z</time>
</trkpt>
<trkpt lat="-27.7597152" lon="152.7363198">
<ele>44.579</ele>
<time>2015-12-05T02:24:19.786Z</time>
</trkpt>
<trkpt lat="-27.7592502" lon="152.7361607">
<ele>44.059</ele>
<time>2015-12-05T02:24:21.806Z</time>
</trkpt>
<trkpt lat="-27.7587975" lon="152.7360100">
<ele>43.163</ele>
<time>2015-12-05T02:24:23.809Z</time>
</trkpt>
<trkpt lat="-27.7581344" lon="152.7358141">
<ele>42.037</ele>
<time>2015-12-05T02:24:26.796Z</time>
</trkpt>
<trkpt lat="-27.7574770" lon="152.7357638">
<ele>41.230</ele>
<time>2015-12-05T02:24:29.727Z</time>
</trkpt>
<trkpt lat="-27.7567964" lon="152.7357993">
<ele>40.908</ele>
<time>2015-12-05T02:24:32.738Z</time>
</trkpt>
<trkpt lat="-27.7563249" lon="152.7358282">
<ele>40.918</ele>
<time>2015-12-05T02:24:34.764Z</time>
</trkpt>
<trkpt lat="-27.7556009" lon="152.7358885">
<ele>41.150</ele>
<time>2015-12-05T02:24:37.791Z</time>
</trkpt>
<trkpt lat="-27.7551014" lon="152.7359180">
<ele>41.507</ele>
<time>2015-12-05T02:24:39.830Z</time>
</trkpt>
<trkpt lat="-27.7543583" lon="152.7359816">
<ele>42.195</ele>
<time>2015-12-05T02:24:42.861Z</time>
</trkpt>
<trkpt lat="-27.7536216" lon="152.7360405">
<ele>43.303</ele>
<time>2015-12-05T02:24:45.885Z</time>
</trkpt>
<trkpt lat="-27.7529023" lon="152.7360867">
<ele>44.269</ele>
<time>2015-12-05T02:24:48.882Z</time>
</trkpt>
<trkpt lat="-27.7522002" lon="152.7361402">
<ele>44.318</ele>
<time>2015-12-05T02:24:51.856Z</time>
</trkpt>
<trkpt lat="-27.7517386" lon="152.7361843">
<ele>43.340</ele>
<time>2015-12-05T02:24:53.843Z</time>
</trkpt>
<trkpt lat="-27.7510515" lon="152.7362415">
<ele>42.066</ele>
<time>2015-12-05T02:24:56.830Z</time>
</trkpt>
<trkpt lat="-27.7505779" lon="152.7362493">
<ele>41.237</ele>
<time>2015-12-05T02:24:58.908Z</time>
</trkpt>
<trkpt lat="-27.7501337" lon="152.7362822">
<ele>40.916</ele>
<time>2015-12-05T02:25:00.907Z</time>
</trkpt>
<trkpt lat="-27.7495026" lon="152.7363263">
<ele>40.554</ele>
<time>2015-12-05T02:25:03.832Z</time>
</trkpt>
<trkpt lat="-27.7488826" lon="152.7363771">
<ele>39.542</ele>
<time>2015-12-05T02:25:06.802Z</time>
</trkpt>
<trkpt lat="-27.7482777" lon="152.7365093">
<ele>37.991</ele>
<time>2015-12-05T02:25:09.761Z</time>
</trkpt>
<trkpt lat="-27.7476850" lon="152.7367908">
<ele>36.463</ele>
<time>2015-12-05T02:25:12.767Z</time>
</trkpt>
<trkpt lat="-27.7473140" lon="152.7370607">
<ele>35.475</ele>
<time>2015-12-05T02:25:14.754Z</time>
</trkpt>
<trkpt lat="-27.7467800" lon="152.7375544">
<ele>35.438</ele>
<time>2015-12-05T02:25:17.784Z</time>
</trkpt>
<trkpt lat="-27.7464308" lon="152.7378997">
<ele>36.313</ele>
<time>2015-12-05T02:25:19.778Z</time>
</trkpt>
<trkpt lat="-27.7458965" lon="152.7384229">
<ele>37.553</ele>
<time>2015-12-05T02:25:22.782Z</time>
</trkpt>
<trkpt lat="-27.7455327" lon="152.7387745">
<ele>38.532</ele>
<time>2015-12-05T02:25:24.786Z</time>
</trkpt>
<trkpt lat="-27.7449774" lon="152.7392725">
<ele>39.120</ele>
<time>2015-12-05T02:25:27.754Z</time>
</trkpt>
<trkpt lat="-27.7445844" lon="152.7395724">
<ele>39.528</ele>
<time>2015-12-05T02:25:29.772Z</time>
</trkpt>
<trkpt lat="-27.7441726" lon="152.7397894">
<ele>39.607</ele>
<time>2015-12-05T02:25:31.714Z</time>
</trkpt>
<trkpt lat="-27.7435056" lon="152.7400745">
<ele>39.209</ele>
<time>2015-12-05T02:25:34.727Z</time>
</trkpt>
<trkpt lat="-27.7430561" lon="152.7402691">
<ele>38.795</ele>
<time>2015-12-05T02:25:36.736Z</time>
</trkpt>
<trkpt lat="-27.7423851" lon="152.7405596">
<ele>38.770</ele>
<time>2015-12-05T02:25:39.753Z</time>
</trkpt>
<trkpt lat="-27.7419443" lon="152.7407390">
<ele>38.771</ele>
<time>2015-12-05T02:25:41.753Z</time>
</trkpt>
<trkpt lat="-27.7413147" lon="152.7410063">
<ele>38.289</ele>
<time>2015-12-05T02:25:44.652Z</time>
</trkpt>
<trkpt lat="-27.7408702" lon="152.7411920">
<ele>37.418</ele>
<time>2015-12-05T02:25:46.678Z</time>
</trkpt>
<trkpt lat="-27.7401918" lon="152.7414766">
<ele>36.575</ele>
<time>2015-12-05T02:25:49.723Z</time>
</trkpt>
<trkpt lat="-27.7394982" lon="152.7417335">
<ele>35.981</ele>
<time>2015-12-05T02:25:52.789Z</time>
</trkpt>
<trkpt lat="-27.7388186" lon="152.7418677">
<ele>35.671</ele>
<time>2015-12-05T02:25:55.710Z</time>
</trkpt>
<trkpt lat="-27.7380757" lon="152.7417185">
<ele>35.588</ele>
<time>2015-12-05T02:25:58.844Z</time>
</trkpt>
<trkpt lat="-27.7373275" lon="152.7416315">
<ele>35.612</ele>
<time>2015-12-05T02:26:01.916Z</time>
</trkpt>
<trkpt lat="-27.7366173" lon="152.7415367">
<ele>35.399</ele>
<time>2015-12-05T02:26:04.891Z</time>
</trkpt>
<trkpt lat="-27.7361503" lon="152.7414764">
<ele>34.617</ele>
<time>2015-12-05T02:26:06.880Z</time>
</trkpt>
<trkpt lat="-27.7354491" lon="152.7413869">
<ele>33.438</ele>
<time>2015-12-05T02:26:09.880Z</time>
</trkpt>
<trkpt lat="-27.7347540" lon="152.7413043">
<ele>32.267</ele>
<time>2015-12-05T02:26:12.859Z</time>
</trkpt>
<trkpt lat="-27.7340494" lon="152.7411901">
<ele>31.319</ele>
<time>2015-12-05T02:26:15.873Z</time>
</trkpt>
<trkpt lat="-27.7333481" lon="152.7410777">
<ele>30.667</ele>
<time>2015-12-05T02:26:18.841Z</time>
</trkpt>
<trkpt lat="-27.7328843" lon="152.7410044">
<ele>30.259</ele>
<time>2015-12-05T02:26:20.787Z</time>
</trkpt>
<trkpt lat="-27.7324048" lon="152.7409737">
<ele>29.685</ele>
<time>2015-12-05T02:26:22.765Z</time>
</trkpt>
<trkpt lat="-27.7316473" lon="152.7410095">
<ele>28.307</ele>
<time>2015-12-05T02:26:25.844Z</time>
</trkpt>
<trkpt lat="-27.7311445" lon="152.7410827">
<ele>26.348</ele>
<time>2015-12-05T02:26:27.893Z</time>
</trkpt>
<trkpt lat="-27.7304254" lon="152.7411960">
<ele>24.949</ele>
<time>2015-12-05T02:26:30.896Z</time>
</trkpt>
<trkpt lat="-27.7299730" lon="152.7412647">
<ele>24.610</ele>
<time>2015-12-05T02:26:32.866Z</time>
</trkpt>
<trkpt lat="-27.7292970" lon="152.7413701">
<ele>24.661</ele>
<time>2015-12-05T02:26:35.857Z</time>
</trkpt>
<trkpt lat="-27.7288362" lon="152.7414350">
<ele>24.468</ele>
<time>2015-12-05T02:26:37.891Z</time>
</trkpt>
<trkpt lat="-27.7281516" lon="152.7415325">
<ele>24.437</ele>
<time>2015-12-05T02:26:40.890Z</time>
</trkpt>
<trkpt lat="-27.7276916" lon="152.7416128">
<ele>25.031</ele>
<time>2015-12-05T02:26:42.889Z</time>
</trkpt>
<trkpt lat="-27.7272258" lon="152.7416806">
<ele>25.791</ele>
<time>2015-12-05T02:26:44.901Z</time>
</trkpt>
<trkpt lat="-27.7267728" lon="152.7417483">
<ele>26.349</ele>
<time>2015-12-05T02:26:46.865Z</time>
</trkpt>
<trkpt lat="-27.7260847" lon="152.7418621">
<ele>26.963</ele>
<time>2015-12-05T02:26:49.849Z</time>
</trkpt>
<trkpt lat="-27.7253816" lon="152.7419670">
<ele>27.672</ele>
<time>2015-12-05T02:26:52.867Z</time>
</trkpt>
<trkpt lat="-27.7249273" lon="152.7420406">
<ele>28.315</ele>
<time>2015-12-05T02:26:54.827Z</time>
</trkpt>
<trkpt lat="-27.7244691" lon="152.7420971">
<ele>29.072</ele>
<time>2015-12-05T02:26:56.829Z</time>
</trkpt>
<trkpt lat="-27.7237946" lon="152.7421815">
<ele>29.775</ele>
<time>2015-12-05T02:26:59.825Z</time>
</trkpt>
<trkpt lat="-27.7231251" lon="152.7421755">
<ele>29.885</ele>
<time>2015-12-05T02:27:02.803Z</time>
</trkpt>
<trkpt lat="-27.7224437" lon="152.7420756">
<ele>29.519</ele>
<time>2015-12-05T02:27:05.816Z</time>
</trkpt>
<trkpt lat="-27.7219754" lon="152.7419613">
<ele>29.346</ele>
<time>2015-12-05T02:27:07.859Z</time>
</trkpt>
<trkpt lat="-27.7212762" lon="152.7417822">
<ele>29.589</ele>
<time>2015-12-05T02:27:10.876Z</time>
</trkpt>
<trkpt lat="-27.7208142" lon="152.7416646">
<ele>29.827</ele>
<time>2015-12-05T02:27:12.865Z</time>
</trkpt>
<trkpt lat="-27.7203495" lon="152.7415518">
<ele>29.677</ele>
<time>2015-12-05T02:27:14.868Z</time>
</trkpt>
<trkpt lat="-27.7198907" lon="152.7414408">
<ele>29.353</ele>
<time>2015-12-05T02:27:16.847Z</time>
</trkpt>
<trkpt lat="-27.7194171" lon="152.7413219">
<ele>29.102</ele>
<time>2015-12-05T02:27:18.862Z</time>
</trkpt>
<trkpt lat="-27.7186953" lon="152.7411174">
<ele>28.918</ele>
<time>2015-12-05T02:27:21.904Z</time>
</trkpt>
<trkpt lat="-27.7182176" lon="152.7409869">
<ele>28.818</ele>
<time>2015-12-05T02:27:23.913Z</time>
</trkpt>
<trkpt lat="-27.7177510" lon="152.7408455">
<ele>28.884</ele>
<time>2015-12-05T02:27:25.918Z</time>
</trkpt>
<trkpt lat="-27.7170785" lon="152.7406359">
<ele>29.033</ele>
<time>2015-12-05T02:27:28.865Z</time>
</trkpt>
<trkpt lat="-27.7164042" lon="152.7404147">
<ele>29.099</ele>
<time>2015-12-05T02:27:31.864Z</time>
</trkpt>
<trkpt lat="-27.7159368" lon="152.7402687">
<ele>29.095</ele>
<time>2015-12-05T02:27:33.911Z</time>
</trkpt>
<trkpt lat="-27.7154739" lon="152.7401307">
<ele>29.348</ele>
<time>2015-12-05T02:27:35.957Z</time>
</trkpt>
<trkpt lat="-27.7148386" lon="152.7399267">
<ele>30.055</ele>
<time>2015-12-05T02:27:38.884Z</time>
</trkpt>
<trkpt lat="-27.7142106" lon="152.7397186">
<ele>31.001</ele>
<time>2015-12-05T02:27:41.885Z</time>
</trkpt>
<trkpt lat="-27.7137879" lon="152.7395938">
<ele>32.200</ele>
<time>2015-12-05T02:27:43.865Z</time>
</trkpt>
<trkpt lat="-27.7131177" lon="152.7393716">
<ele>33.945</ele>
<time>2015-12-05T02:27:46.936Z</time>
</trkpt>
<trkpt lat="-27.7124372" lon="152.7391766">
<ele>35.951</ele>
<time>2015-12-05T02:27:49.937Z</time>
</trkpt>
<trkpt lat="-27.7119786" lon="152.7390532">
<ele>37.522</ele>
<time>2015-12-05T02:27:51.949Z</time>
</trkpt>
<trkpt lat="-27.7112902" lon="152.7389184">
<ele>38.294</ele>
<time>2015-12-05T02:27:54.945Z</time>
</trkpt>
<trkpt lat="-27.7108338" lon="152.7388100">
<ele>38.777</ele>
<time>2015-12-05T02:27:56.991Z</time>
</trkpt>
<trkpt lat="-27.7101969" lon="152.7386636">
<ele>39.610</ele>
<time>2015-12-05T02:27:59.929Z</time>
</trkpt>
<trkpt lat="-27.7095712" lon="152.7385130">
<ele>40.527</ele>
<time>2015-12-05T02:28:02.880Z</time>
</trkpt>
<trkpt lat="-27.7089272" lon="152.7383579">
<ele>40.796</ele>
<time>2015-12-05T02:28:05.858Z</time>
</trkpt>
<trkpt lat="-27.7084879" lon="152.7382531">
<ele>40.319</ele>
<time>2015-12-05T02:28:07.811Z</time>
</trkpt>
<trkpt lat="-27.7077705" lon="152.7380935">
<ele>39.559</ele>
<time>2015-12-05T02:28:10.909Z</time>
</trkpt>
<trkpt lat="-27.7073052" lon="152.7379919">
<ele>38.802</ele>
<time>2015-12-05T02:28:12.897Z</time>
</trkpt>
<trkpt lat="-27.7068409" lon="152.7378844">
<ele>37.878</ele>
<time>2015-12-05T02:28:14.888Z</time>
</trkpt>
<trkpt lat="-27.7061203" lon="152.7377533">
<ele>36.779</ele>
<time>2015-12-05T02:28:17.947Z</time>
</trkpt>
<trkpt lat="-27.7056487" lon="152.7377200">
<ele>35.817</ele>
<time>2015-12-05T02:28:19.934Z</time>
</trkpt>
<trkpt lat="-27.7049344" lon="152.7377437">
<ele>34.607</ele>
<time>2015-12-05T02:28:22.950Z</time>
</trkpt>
<trkpt lat="-27.7044644" lon="152.7377759">
<ele>32.614</ele>
<time>2015-12-05T02:28:24.945Z</time>
</trkpt>
<trkpt lat="-27.7037683" lon="152.7378288">
<ele>30.615</ele>
<time>2015-12-05T02:28:27.908Z</time>
</trkpt>
<trkpt lat="-27.7032965" lon="152.7378487">
<ele>29.514</ele>
<time>2015-12-05T02:28:29.900Z</time>
</trkpt>
<trkpt lat="-27.7025576" lon="152.7378940">
<ele>29.123</ele>
<time>2015-12-05T02:28:32.997Z</time>
</trkpt>
<trkpt lat="-27.7020739" lon="152.7379270">
<ele>28.606</ele>
<time>2015-12-05T02:28:35.020Z</time>
</trkpt>
<trkpt lat="-27.7015952" lon="152.7379501">
<ele>27.452</ele>
<time>2015-12-05T02:28:37.041Z</time>
</trkpt>
<trkpt lat="-27.7008927" lon="152.7379971">
<ele>26.191</ele>
<time>2015-12-05T02:28:40.050Z</time>
</trkpt>
<trkpt lat="-27.7002093" lon="152.7380334">
<ele>25.298</ele>
<time>2015-12-05T02:28:43.011Z</time>
</trkpt>
<trkpt lat="-27.6995250" lon="152.7380704">
<ele>24.626</ele>
<time>2015-12-05T02:28:45.982Z</time>
</trkpt>
<trkpt lat="-27.6990601" lon="152.7380913">
<ele>24.207</ele>
<time>2015-12-05T02:28:48.002Z</time>
</trkpt>
<trkpt lat="-27.6986040" lon="152.7381196">
<ele>24.128</ele>
<time>2015-12-05T02:28:49.999Z</time>
</trkpt>
<trkpt lat="-27.6979207" lon="152.7381693">
<ele>24.292</ele>
<time>2015-12-05T02:28:53.012Z</time>
</trkpt>
<trkpt lat="-27.6972472" lon="152.7382151">
<ele>24.656</ele>
<time>2015-12-05T02:28:56.011Z</time>
</trkpt>
<trkpt lat="-27.6965664" lon="152.7382632">
<ele>25.232</ele>
<time>2015-12-05T02:28:59.065Z</time>
</trkpt>
<trkpt lat="-27.6961253" lon="152.7382820">
<ele>25.853</ele>
<time>2015-12-05T02:29:01.040Z</time>
</trkpt>
<trkpt lat="-27.6956832" lon="152.7383074">
<ele>26.617</ele>
<time>2015-12-05T02:29:03.017Z</time>
</trkpt>
<trkpt lat="-27.6950108" lon="152.7383414">
<ele>27.696</ele>
<time>2015-12-05T02:29:06.001Z</time>
</trkpt>
<trkpt lat="-27.6945572" lon="152.7383682">
<ele>28.475</ele>
<time>2015-12-05T02:29:07.948Z</time>
</trkpt>
<trkpt lat="-27.6938166" lon="152.7384136">
<ele>28.421</ele>
<time>2015-12-05T02:29:11.005Z</time>
</trkpt>
<trkpt lat="-27.6930679" lon="152.7384628">
<ele>28.402</ele>
<time>2015-12-05T02:29:14.013Z</time>
</trkpt>
<trkpt lat="-27.6925717" lon="152.7384912">
<ele>29.224</ele>
<time>2015-12-05T02:29:16.042Z</time>
</trkpt>
<trkpt lat="-27.6918707" lon="152.7385271">
<ele>30.448</ele>
<time>2015-12-05T02:29:18.988Z</time>
</trkpt>
<trkpt lat="-27.6914066" lon="152.7385439">
<ele>31.369</ele>
<time>2015-12-05T02:29:20.974Z</time>
</trkpt>
<trkpt lat="-27.6907066" lon="152.7385576">
<ele>31.684</ele>
<time>2015-12-05T02:29:23.961Z</time>
</trkpt>
<trkpt lat="-27.6902331" lon="152.7385466">
<ele>31.360</ele>
<time>2015-12-05T02:29:25.979Z</time>
</trkpt>
<trkpt lat="-27.6895320" lon="152.7384998">
<ele>30.359</ele>
<time>2015-12-05T02:29:28.998Z</time>
</trkpt>
<trkpt lat="-27.6888456" lon="152.7383996">
<ele>28.654</ele>
<time>2015-12-05T02:29:31.989Z</time>
</trkpt>
<trkpt lat="-27.6883854" lon="152.7383110">
<ele>26.434</ele>
<time>2015-12-05T02:29:34.007Z</time>
</trkpt>
<trkpt lat="-27.6877143" lon="152.7381395">
<ele>24.122</ele>
<time>2015-12-05T02:29:36.984Z</time>
</trkpt>
<trkpt lat="-27.6872678" lon="152.7380030">
<ele>22.243</ele>
<time>2015-12-05T02:29:38.996Z</time>
</trkpt>
<trkpt lat="-27.6865903" lon="152.7378200">
<ele>20.678</ele>
<time>2015-12-05T02:29:42.007Z</time>
</trkpt>
<trkpt lat="-27.6861196" lon="152.7376809">
<ele>18.919</ele>
<time>2015-12-05T02:29:44.063Z</time>
</trkpt>
<trkpt lat="-27.6856600" lon="152.7375744">
<ele>17.367</ele>
<time>2015-12-05T02:29:46.037Z</time>
</trkpt>
<trkpt lat="-27.6849528" lon="152.7374449">
<ele>16.816</ele>
<time>2015-12-05T02:29:49.054Z</time>
</trkpt>
<trkpt lat="-27.6844886" lon="152.7373654">
<ele>17.363</ele>
<time>2015-12-05T02:29:51.015Z</time>
</trkpt>
<trkpt lat="-27.6837594" lon="152.7372767">
<ele>18.377</ele>
<time>2015-12-05T02:29:54.061Z</time>
</trkpt>
<trkpt lat="-27.6832791" lon="152.7372181">
<ele>19.557</ele>
<time>2015-12-05T02:29:56.096Z</time>
</trkpt>
<trkpt lat="-27.6828137" lon="152.7371483">
<ele>21.067</ele>
<time>2015-12-05T02:29:58.134Z</time>
</trkpt>
<trkpt lat="-27.6821463" lon="152.7370599">
<ele>22.480</ele>
<time>2015-12-05T02:30:01.118Z</time>
</trkpt>
<trkpt lat="-27.6817091" lon="152.7370039">
<ele>23.078</ele>
<time>2015-12-05T02:30:03.103Z</time>
</trkpt>
<trkpt lat="-27.6812676" lon="152.7369615">
<ele>22.876</ele>
<time>2015-12-05T02:30:05.108Z</time>
</trkpt>
<trkpt lat="-27.6806096" lon="152.7368785">
<ele>22.324</ele>
<time>2015-12-05T02:30:08.105Z</time>
</trkpt>
<trkpt lat="-27.6801748" lon="152.7368389">
<ele>21.828</ele>
<time>2015-12-05T02:30:10.047Z</time>
</trkpt>
<trkpt lat="-27.6794963" lon="152.7367500">
<ele>21.589</ele>
<time>2015-12-05T02:30:13.009Z</time>
</trkpt>
<trkpt lat="-27.6790100" lon="152.7366994">
<ele>21.726</ele>
<time>2015-12-05T02:30:15.040Z</time>
</trkpt>
<trkpt lat="-27.6785146" lon="152.7366428">
<ele>22.372</ele>
<time>2015-12-05T02:30:17.073Z</time>
</trkpt>
<trkpt lat="-27.6780467" lon="152.7365560">
<ele>23.461</ele>
<time>2015-12-05T02:30:19.016Z</time>
</trkpt>
<trkpt lat="-27.6773242" lon="152.7364680">
<ele>24.500</ele>
<time>2015-12-05T02:30:22.031Z</time>
</trkpt>
<trkpt lat="-27.6766105" lon="152.7363870">
<ele>25.085</ele>
<time>2015-12-05T02:30:25.052Z</time>
</trkpt>
<trkpt lat="-27.6761292" lon="152.7363302">
<ele>25.322</ele>
<time>2015-12-05T02:30:27.098Z</time>
</trkpt>
<trkpt lat="-27.6756486" lon="152.7362665">
<ele>25.476</ele>
<time>2015-12-05T02:30:29.146Z</time>
</trkpt>
<trkpt lat="-27.6749761" lon="152.7361790">
<ele>25.615</ele>
<time>2015-12-05T02:30:32.038Z</time>
</trkpt>
<trkpt lat="-27.6743005" lon="152.7361065">
<ele>25.815</ele>
<time>2015-12-05T02:30:35.001Z</time>
</trkpt>
<trkpt lat="-27.6736215" lon="152.7361386">
<ele>26.208</ele>
<time>2015-12-05T02:30:38.059Z</time>
</trkpt>
<trkpt lat="-27.6731952" lon="152.7361757">
<ele>26.675</ele>
<time>2015-12-05T02:30:40.110Z</time>
</trkpt>
<trkpt lat="-27.6727979" lon="152.7362074">
<ele>26.960</ele>
<time>2015-12-05T02:30:42.118Z</time>
</trkpt>
<trkpt lat="-27.6722209" lon="152.7362420">
<ele>27.013</ele>
<time>2015-12-05T02:30:45.159Z</time>
</trkpt>
<trkpt lat="-27.6718361" lon="152.7362719">
<ele>27.088</ele>
<time>2015-12-05T02:30:47.236Z</time>
</trkpt>
<trkpt lat="-27.6713162" lon="152.7363271">
<ele>27.523</ele>
<time>2015-12-05T02:30:50.181Z</time>
</trkpt>
<trkpt lat="-27.6708252" lon="152.7363539">
<ele>28.237</ele>
<time>2015-12-05T02:30:53.202Z</time>
</trkpt>
<trkpt lat="-27.6705359" lon="152.7363651">
<ele>28.798</ele>
<time>2015-12-05T02:30:55.112Z</time>
</trkpt>
<trkpt lat="-27.6700836" lon="152.7363992">
<ele>29.049</ele>
<time>2015-12-05T02:30:58.117Z</time>
</trkpt>
<trkpt lat="-27.6696171" lon="152.7364382">
<ele>29.139</ele>
<time>2015-12-05T02:31:01.172Z</time>
</trkpt>
<trkpt lat="-27.6693161" lon="152.7364853">
<ele>29.038</ele>
<time>2015-12-05T02:31:03.156Z</time>
</trkpt>
<trkpt lat="-27.6690197" lon="152.7365694">
<ele>28.698</ele>
<time>2015-12-05T02:31:05.121Z</time>
</trkpt>
<trkpt lat="-27.6685607" lon="152.7367373">
<ele>28.341</ele>
<time>2015-12-05T02:31:08.162Z</time>
</trkpt>
<trkpt lat="-27.6682649" lon="152.7368772">
<ele>28.269</ele>
<time>2015-12-05T02:31:10.163Z</time>
</trkpt>
<trkpt lat="-27.6679735" lon="152.7370186">
<ele>28.495</ele>
<time>2015-12-05T02:31:12.150Z</time>
</trkpt>
<trkpt lat="-27.6676732" lon="152.7371709">
<ele>28.642</ele>
<time>2015-12-05T02:31:14.187Z</time>
</trkpt>
<trkpt lat="-27.6672178" lon="152.7373886">
<ele>28.426</ele>
<time>2015-12-05T02:31:17.198Z</time>
</trkpt>
<trkpt lat="-27.6667350" lon="152.7375756">
<ele>28.050</ele>
<time>2015-12-05T02:31:20.270Z</time>
</trkpt>
<trkpt lat="-27.6664181" lon="152.7376733">
<ele>27.780</ele>
<time>2015-12-05T02:31:22.324Z</time>
</trkpt>
<trkpt lat="-27.6661221" lon="152.7377703">
<ele>27.637</ele>
<time>2015-12-05T02:31:24.406Z</time>
</trkpt>
<trkpt lat="-27.6657673" lon="152.7378631">
<ele>27.562</ele>
<time>2015-12-05T02:31:27.419Z</time>
</trkpt>
<trkpt lat="-27.6654782" lon="152.7379573">
<ele>27.111</ele>
<time>2015-12-05T02:31:30.344Z</time>
</trkpt>
<trkpt lat="-27.6651994" lon="152.7380302">
<ele>25.969</ele>
<time>2015-12-05T02:31:33.175Z</time>
</trkpt>
<trkpt lat="-27.6649876" lon="152.7380822">
<ele>24.710</ele>
<time>2015-12-05T02:31:35.111Z</time>
</trkpt>
<trkpt lat="-27.6647440" lon="152.7381525">
<ele>24.172</ele>
<time>2015-12-05T02:31:37.194Z</time>
</trkpt>
<trkpt lat="-27.6643943" lon="152.7382722">
<ele>24.712</ele>
<time>2015-12-05T02:31:40.243Z</time>
</trkpt>
<trkpt lat="-27.6640924" lon="152.7383783">
<ele>25.988</ele>
<time>2015-12-05T02:31:43.194Z</time>
</trkpt>
<trkpt lat="-27.6638345" lon="152.7384633">
<ele>27.080</ele>
<time>2015-12-05T02:31:46.255Z</time>
</trkpt>
<trkpt lat="-27.6637174" lon="152.7384955">
<ele>27.406</ele>
<time>2015-12-05T02:31:48.587Z</time>
</trkpt>
<trkpt lat="-27.6636214" lon="152.7385125">
<ele>26.955</ele>
<time>2015-12-05T02:31:51.000Z</time>
</trkpt>
<trkpt lat="-27.6636214" lon="152.7385125">
<ele>26.086</ele>
<time>2015-12-05T02:31:53.000Z</time>
</trkpt>
<trkpt lat="-27.6636214" lon="152.7385125">
<ele>25.494</ele>
<time>2015-12-05T02:32:20.331Z</time>
</trkpt>
<trkpt lat="-27.6634596" lon="152.7385817">
<ele>25.630</ele>
<time>2015-12-05T02:32:25.209Z</time>
</trkpt>
<trkpt lat="-27.6634018" lon="152.7389027">
<ele>26.791</ele>
<time>2015-12-05T02:32:28.474Z</time>
</trkpt>
<trkpt lat="-27.6635068" lon="152.7393603">
<ele>29.361</ele>
<time>2015-12-05T02:32:31.950Z</time>
</trkpt>
<trkpt lat="-27.6635884" lon="152.7396851">
<ele>33.075</ele>
<time>2015-12-05T02:32:34.093Z</time>
</trkpt>
<trkpt lat="-27.6636689" lon="152.7400524">
<ele>36.877</ele>
<time>2015-12-05T02:32:36.275Z</time>
</trkpt>
<trkpt lat="-27.6637437" lon="152.7404090">
<ele>40.185</ele>
<time>2015-12-05T02:32:38.359Z</time>
</trkpt>
<trkpt lat="-27.6638122" lon="152.7407344">
<ele>43.048</ele>
<time>2015-12-05T02:32:40.315Z</time>
</trkpt>
<trkpt lat="-27.6639456" lon="152.7412318">
<ele>45.309</ele>
<time>2015-12-05T02:32:43.361Z</time>
</trkpt>
<trkpt lat="-27.6640291" lon="152.7415599">
<ele>47.105</ele>
<time>2015-12-05T02:32:45.278Z</time>
</trkpt>
<trkpt lat="-27.6640869" lon="152.7419178">
<ele>48.813</ele>
<time>2015-12-05T02:32:47.182Z</time>
</trkpt>
<trkpt lat="-27.6642048" lon="152.7422978">
<ele>50.563</ele>
<time>2015-12-05T02:32:49.177Z</time>
</trkpt>
<trkpt lat="-27.6644250" lon="152.7428717">
<ele>52.833</ele>
<time>2015-12-05T02:32:52.229Z</time>
</trkpt>
<trkpt lat="-27.6647655" lon="152.7433799">
<ele>55.762</ele>
<time>2015-12-05T02:32:55.366Z</time>
</trkpt>
<trkpt lat="-27.6651404" lon="152.7437896">
<ele>58.722</ele>
<time>2015-12-05T02:32:58.244Z</time>
</trkpt>
<trkpt lat="-27.6656062" lon="152.7441580">
<ele>61.212</ele>
<time>2015-12-05T02:33:01.281Z</time>
</trkpt>
<trkpt lat="-27.6661351" lon="152.7444071">
<ele>62.893</ele>
<time>2015-12-05T02:33:04.267Z</time>
</trkpt>
<trkpt lat="-27.6665143" lon="152.7445207">
<ele>63.678</ele>
<time>2015-12-05T02:33:06.249Z</time>
</trkpt>
<trkpt lat="-27.6668993" lon="152.7446163">
<ele>63.976</ele>
<time>2015-12-05T02:33:08.168Z</time>
</trkpt>
<trkpt lat="-27.6675205" lon="152.7447491">
<ele>64.443</ele>
<time>2015-12-05T02:33:11.188Z</time>
</trkpt>
<trkpt lat="-27.6679354" lon="152.7448365">
<ele>65.360</ele>
<time>2015-12-05T02:33:13.181Z</time>
</trkpt>
<trkpt lat="-27.6685623" lon="152.7449604">
<ele>66.367</ele>
<time>2015-12-05T02:33:16.181Z</time>
</trkpt>
<trkpt lat="-27.6689852" lon="152.7450301">
<ele>67.101</ele>
<time>2015-12-05T02:33:18.184Z</time>
</trkpt>
<trkpt lat="-27.6696195" lon="152.7450495">
<ele>67.522</ele>
<time>2015-12-05T02:33:21.090Z</time>
</trkpt>
<trkpt lat="-27.6702782" lon="152.7449795">
<ele>67.859</ele>
<time>2015-12-05T02:33:24.003Z</time>
</trkpt>
<trkpt lat="-27.6709736" lon="152.7448742">
<ele>68.582</ele>
<time>2015-12-05T02:33:26.974Z</time>
</trkpt>
<trkpt lat="-27.6714512" lon="152.7448338">
<ele>69.928</ele>
<time>2015-12-05T02:33:28.942Z</time>
</trkpt>
<trkpt lat="-27.6719454" lon="152.7448302">
<ele>71.770</ele>
<time>2015-12-05T02:33:30.975Z</time>
</trkpt>
<trkpt lat="-27.6726845" lon="152.7448965">
<ele>73.760</ele>
<time>2015-12-05T02:33:34.002Z</time>
</trkpt>
<trkpt lat="-27.6734120" lon="152.7450345">
<ele>75.380</ele>
<time>2015-12-05T02:33:36.963Z</time>
</trkpt>
<trkpt lat="-27.6739075" lon="152.7451834">
<ele>76.423</ele>
<time>2015-12-05T02:33:39.016Z</time>
</trkpt>
<trkpt lat="-27.6743812" lon="152.7453664">
<ele>77.114</ele>
<time>2015-12-05T02:33:41.057Z</time>
</trkpt>
<trkpt lat="-27.6750449" lon="152.7456911">
<ele>77.543</ele>
<time>2015-12-05T02:33:44.019Z</time>
</trkpt>
<trkpt lat="-27.6754926" lon="152.7459384">
<ele>77.511</ele>
<time>2015-12-05T02:33:46.060Z</time>
</trkpt>
<trkpt lat="-27.6761164" lon="152.7463911">
<ele>76.897</ele>
<time>2015-12-05T02:33:49.085Z</time>
</trkpt>
<trkpt lat="-27.6765134" lon="152.7467158">
<ele>76.009</ele>
<time>2015-12-05T02:33:51.063Z</time>
</trkpt>
<trkpt lat="-27.6769027" lon="152.7470761">
<ele>75.302</ele>
<time>2015-12-05T02:33:53.066Z</time>
</trkpt>
<trkpt lat="-27.6774370" lon="152.7476826">
<ele>74.876</ele>
<time>2015-12-05T02:33:56.070Z</time>
</trkpt>
<trkpt lat="-27.6777672" lon="152.7481184">
<ele>74.656</ele>
<time>2015-12-05T02:33:58.095Z</time>
</trkpt>
<trkpt lat="-27.6782198" lon="152.7487940">
<ele>74.571</ele>
<time>2015-12-05T02:34:01.106Z</time>
</trkpt>
<trkpt lat="-27.6786002" lon="152.7495131">
<ele>74.001</ele>
<time>2015-12-05T02:34:04.113Z</time>
</trkpt>
<trkpt lat="-27.6789240" lon="152.7502595">
<ele>72.207</ele>
<time>2015-12-05T02:34:07.097Z</time>
</trkpt>
<trkpt lat="-27.6791094" lon="152.7507729">
<ele>69.674</ele>
<time>2015-12-05T02:34:09.083Z</time>
</trkpt>
<trkpt lat="-27.6792622" lon="152.7513049">
<ele>67.719</ele>
<time>2015-12-05T02:34:11.125Z</time>
</trkpt>
<trkpt lat="-27.6794199" lon="152.7520971">
<ele>66.878</ele>
<time>2015-12-05T02:34:14.154Z</time>
</trkpt>
<trkpt lat="-27.6794865" lon="152.7526018">
<ele>66.485</ele>
<time>2015-12-05T02:34:16.108Z</time>
</trkpt>
<trkpt lat="-27.6795728" lon="152.7533884">
<ele>65.188</ele>
<time>2015-12-05T02:34:19.217Z</time>
</trkpt>
<trkpt lat="-27.6796303" lon="152.7538630">
<ele>62.505</ele>
<time>2015-12-05T02:34:21.172Z</time>
</trkpt>
<trkpt lat="-27.6796946" lon="152.7543462">
<ele>59.503</ele>
<time>2015-12-05T02:34:23.207Z</time>
</trkpt>
<trkpt lat="-27.6797698" lon="152.7550666">
<ele>57.281</ele>
<time>2015-12-05T02:34:26.391Z</time>
</trkpt>
<trkpt lat="-27.6798137" lon="152.7554998">
<ele>55.816</ele>
<time>2015-12-05T02:34:28.486Z</time>
</trkpt>
<trkpt lat="-27.6798753" lon="152.7560917">
<ele>54.417</ele>
<time>2015-12-05T02:34:31.538Z</time>
</trkpt>
<trkpt lat="-27.6799213" lon="152.7564637">
<ele>52.517</ele>
<time>2015-12-05T02:34:33.538Z</time>
</trkpt>
<trkpt lat="-27.6799703" lon="152.7570188">
<ele>50.180</ele>
<time>2015-12-05T02:34:36.630Z</time>
</trkpt>
<trkpt lat="-27.6799508" lon="152.7573695">
<ele>47.963</ele>
<time>2015-12-05T02:34:38.674Z</time>
</trkpt>
<trkpt lat="-27.6800090" lon="152.7578732">
<ele>46.264</ele>
<time>2015-12-05T02:34:41.973Z</time>
</trkpt>
<trkpt lat="-27.6800884" lon="152.7581741">
<ele>45.001</ele>
<time>2015-12-05T02:34:44.338Z</time>
</trkpt>
<trkpt lat="-27.6800229" lon="152.7585323">
<ele>43.726</ele>
<time>2015-12-05T02:34:47.408Z</time>
</trkpt>
<trkpt lat="-27.6799408" lon="152.7587272">
<ele>42.274</ele>
<time>2015-12-05T02:34:49.148Z</time>
</trkpt>
<trkpt lat="-27.6800163" lon="152.7590959">
<ele>41.081</ele>
<time>2015-12-05T02:34:51.702Z</time>
</trkpt>
<trkpt lat="-27.6801545" lon="152.7593644">
<ele>40.541</ele>
<time>2015-12-05T02:34:53.508Z</time>
</trkpt>
<trkpt lat="-27.6802684" lon="152.7596924">
<ele>40.726</ele>
<time>2015-12-05T02:34:55.337Z</time>
</trkpt>
<trkpt lat="-27.6803369" lon="152.7600885">
<ele>41.767</ele>
<time>2015-12-05T02:34:57.214Z</time>
</trkpt>
<trkpt lat="-27.6803974" lon="152.7605554">
<ele>43.609</ele>
<time>2015-12-05T02:34:59.251Z</time>
</trkpt>
<trkpt lat="-27.6804556" lon="152.7612592">
<ele>45.775</ele>
<time>2015-12-05T02:35:02.264Z</time>
</trkpt>
<trkpt lat="-27.6805277" lon="152.7619603">
<ele>47.588</ele>
<time>2015-12-05T02:35:05.209Z</time>
</trkpt>
<trkpt lat="-27.6806145" lon="152.7626806">
<ele>48.713</ele>
<time>2015-12-05T02:35:08.137Z</time>
</trkpt>
<trkpt lat="-27.6806748" lon="152.7631860">
<ele>49.353</ele>
<time>2015-12-05T02:35:10.131Z</time>
</trkpt>
<trkpt lat="-27.6807344" lon="152.7637015">
<ele>49.840</ele>
<time>2015-12-05T02:35:12.154Z</time>
</trkpt>
<trkpt lat="-27.6807937" lon="152.7642322">
<ele>50.324</ele>
<time>2015-12-05T02:35:14.221Z</time>
</trkpt>
<trkpt lat="-27.6808707" lon="152.7649688">
<ele>50.836</ele>
<time>2015-12-05T02:35:17.029Z</time>
</trkpt>
<trkpt lat="-27.6809353" lon="152.7655190">
<ele>51.320</ele>
<time>2015-12-05T02:35:19.038Z</time>
</trkpt>
<trkpt lat="-27.6809947" lon="152.7660766">
<ele>51.729</ele>
<time>2015-12-05T02:35:21.021Z</time>
</trkpt>
<trkpt lat="-27.6810960" lon="152.7669327">
<ele>52.126</ele>
<time>2015-12-05T02:35:24.053Z</time>
</trkpt>
<trkpt lat="-27.6811630" lon="152.7675066">
<ele>52.743</ele>
<time>2015-12-05T02:35:26.095Z</time>
</trkpt>
<trkpt lat="-27.6812573" lon="152.7683265">
<ele>53.600</ele>
<time>2015-12-05T02:35:29.019Z</time>
</trkpt>
<trkpt lat="-27.6813362" lon="152.7688911">
<ele>54.431</ele>
<time>2015-12-05T02:35:31.055Z</time>
</trkpt>
<trkpt lat="-27.6814975" lon="152.7697090">
<ele>55.305</ele>
<time>2015-12-05T02:35:34.064Z</time>
</trkpt>
<trkpt lat="-27.6816241" lon="152.7702448">
<ele>56.694</ele>
<time>2015-12-05T02:35:36.062Z</time>
</trkpt>
<trkpt lat="-27.6818208" lon="152.7710509">
<ele>58.468</ele>
<time>2015-12-05T02:35:39.043Z</time>
</trkpt>
<trkpt lat="-27.6820256" lon="152.7718579">
<ele>59.864</ele>
<time>2015-12-05T02:35:42.005Z</time>
</trkpt>
<trkpt lat="-27.6822698" lon="152.7726598">
<ele>60.794</ele>
<time>2015-12-05T02:35:45.003Z</time>
</trkpt>
<trkpt lat="-27.6824552" lon="152.7731980">
<ele>61.711</ele>
<time>2015-12-05T02:35:47.064Z</time>
</trkpt>
<trkpt lat="-27.6827305" lon="152.7739672">
<ele>62.843</ele>
<time>2015-12-05T02:35:50.057Z</time>
</trkpt>
<trkpt lat="-27.6829214" lon="152.7744695">
<ele>64.510</ele>
<time>2015-12-05T02:35:52.081Z</time>
</trkpt>
<trkpt lat="-27.6832303" lon="152.7751847">
<ele>66.599</ele>
<time>2015-12-05T02:35:55.053Z</time>
</trkpt>
<trkpt lat="-27.6834368" lon="152.7756644">
<ele>68.304</ele>
<time>2015-12-05T02:35:57.061Z</time>
</trkpt>
<trkpt lat="-27.6836549" lon="152.7761382">
<ele>69.457</ele>
<time>2015-12-05T02:35:59.083Z</time>
</trkpt>
<trkpt lat="-27.6838762" lon="152.7765923">
<ele>70.421</ele>
<time>2015-12-05T02:36:01.028Z</time>
</trkpt>
<trkpt lat="-27.6841137" lon="152.7770673">
<ele>71.145</ele>
<time>2015-12-05T02:36:03.008Z</time>
</trkpt>
<trkpt lat="-27.6843566" lon="152.7775578">
<ele>71.867</ele>
<time>2015-12-05T02:36:05.030Z</time>
</trkpt>
<trkpt lat="-27.6847122" lon="152.7782764">
<ele>73.197</ele>
<time>2015-12-05T02:36:08.029Z</time>
</trkpt>
<trkpt lat="-27.6849477" lon="152.7787412">
<ele>74.870</ele>
<time>2015-12-05T02:36:10.029Z</time>
</trkpt>
<trkpt lat="-27.6852844" lon="152.7794263">
<ele>76.218</ele>
<time>2015-12-05T02:36:12.966Z</time>
</trkpt>
<trkpt lat="-27.6855175" lon="152.7798921">
<ele>76.974</ele>
<time>2015-12-05T02:36:14.925Z</time>
</trkpt>
<trkpt lat="-27.6858806" lon="152.7806200">
<ele>77.119</ele>
<time>2015-12-05T02:36:17.893Z</time>
</trkpt>
<trkpt lat="-27.6862580" lon="152.7813884">
<ele>76.898</ele>
<time>2015-12-05T02:36:20.905Z</time>
</trkpt>
<trkpt lat="-27.6865145" lon="152.7819061">
<ele>76.580</ele>
<time>2015-12-05T02:36:22.908Z</time>
</trkpt>
<trkpt lat="-27.6868988" lon="152.7826766">
<ele>75.851</ele>
<time>2015-12-05T02:36:25.897Z</time>
</trkpt>
<trkpt lat="-27.6872825" lon="152.7834472">
<ele>74.393</ele>
<time>2015-12-05T02:36:28.895Z</time>
</trkpt>
<trkpt lat="-27.6876588" lon="152.7842111">
<ele>72.549</ele>
<time>2015-12-05T02:36:31.886Z</time>
</trkpt>
<trkpt lat="-27.6880381" lon="152.7849629">
<ele>70.881</ele>
<time>2015-12-05T02:36:34.880Z</time>
</trkpt>
<trkpt lat="-27.6884170" lon="152.7857110">
<ele>69.645</ele>
<time>2015-12-05T02:36:37.891Z</time>
</trkpt>
<trkpt lat="-27.6886726" lon="152.7861977">
<ele>68.634</ele>
<time>2015-12-05T02:36:39.866Z</time>
</trkpt>
<trkpt lat="-27.6890454" lon="152.7869471">
<ele>67.791</ele>
<time>2015-12-05T02:36:42.850Z</time>
</trkpt>
<trkpt lat="-27.6894296" lon="152.7877065">
<ele>67.515</ele>
<time>2015-12-05T02:36:45.871Z</time>
</trkpt>
<trkpt lat="-27.6896865" lon="152.7882148">
<ele>67.930</ele>
<time>2015-12-05T02:36:47.870Z</time>
</trkpt>
<trkpt lat="-27.6900594" lon="152.7889986">
<ele>68.754</ele>
<time>2015-12-05T02:36:50.874Z</time>
</trkpt>
<trkpt lat="-27.6902894" lon="152.7895410">
<ele>70.039</ele>
<time>2015-12-05T02:36:52.868Z</time>
</trkpt>
<trkpt lat="-27.6905984" lon="152.7903921">
<ele>71.633</ele>
<time>2015-12-05T02:36:55.901Z</time>
</trkpt>
<trkpt lat="-27.6907624" lon="152.7909633">
<ele>72.871</ele>
<time>2015-12-05T02:36:57.887Z</time>
</trkpt>
<trkpt lat="-27.6908836" lon="152.7915429">
<ele>73.043</ele>
<time>2015-12-05T02:36:59.889Z</time>
</trkpt>
<trkpt lat="-27.6909766" lon="152.7921121">
<ele>72.238</ele>
<time>2015-12-05T02:37:01.851Z</time>
</trkpt>
<trkpt lat="-27.6910827" lon="152.7929879">
<ele>70.885</ele>
<time>2015-12-05T02:37:04.846Z</time>
</trkpt>
<trkpt lat="-27.6911134" lon="152.7935817">
<ele>69.031</ele>
<time>2015-12-05T02:37:06.851Z</time>
</trkpt>
<trkpt lat="-27.6911097" lon="152.7941713">
<ele>66.779</ele>
<time>2015-12-05T02:37:08.845Z</time>
</trkpt>
<trkpt lat="-27.6910375" lon="152.7950534">
<ele>64.692</ele>
<time>2015-12-05T02:37:11.865Z</time>
</trkpt>
<trkpt lat="-27.6908997" lon="152.7959198">
<ele>62.860</ele>
<time>2015-12-05T02:37:14.910Z</time>
</trkpt>
<trkpt lat="-27.6907980" lon="152.7964508">
<ele>60.895</ele>
<time>2015-12-05T02:37:16.835Z</time>
</trkpt>
<trkpt lat="-27.6905853" lon="152.7972577">
<ele>58.653</ele>
<time>2015-12-05T02:37:19.876Z</time>
</trkpt>
<trkpt lat="-27.6903193" lon="152.7980077">
<ele>56.514</ele>
<time>2015-12-05T02:37:22.904Z</time>
</trkpt>
<trkpt lat="-27.6901061" lon="152.7984601">
<ele>54.232</ele>
<time>2015-12-05T02:37:24.885Z</time>
</trkpt>
<trkpt lat="-27.6898801" lon="152.7989105">
<ele>50.901</ele>
<time>2015-12-05T02:37:26.956Z</time>
</trkpt>
<trkpt lat="-27.6895450" lon="152.7995465">
<ele>47.064</ele>
<time>2015-12-05T02:37:30.146Z</time>
</trkpt>
<trkpt lat="-27.6892259" lon="152.8000794">
<ele>44.080</ele>
<time>2015-12-05T02:37:33.298Z</time>
</trkpt>
<trkpt lat="-27.6889593" lon="152.8005506">
<ele>41.609</ele>
<time>2015-12-05T02:37:36.284Z</time>
</trkpt>
<trkpt lat="-27.6886456" lon="152.8009784">
<ele>39.165</ele>
<time>2015-12-05T02:37:39.438Z</time>
</trkpt>
<trkpt lat="-27.6883625" lon="152.8013521">
<ele>37.288</ele>
<time>2015-12-05T02:37:42.476Z</time>
</trkpt>
<trkpt lat="-27.6882371" lon="152.8016383">
<ele>36.091</ele>
<time>2015-12-05T02:37:44.714Z</time>
</trkpt>
<trkpt lat="-27.6881433" lon="152.8019066">
<ele>35.164</ele>
<time>2015-12-05T02:37:47.072Z</time>
</trkpt>
<trkpt lat="-27.6880128" lon="152.8020763">
<ele>34.415</ele>
<time>2015-12-05T02:37:48.991Z</time>
</trkpt>
<trkpt lat="-27.6877358" lon="152.8022293">
<ele>33.505</ele>
<time>2015-12-05T02:37:51.708Z</time>
</trkpt>
<trkpt lat="-27.6875573" lon="152.8023666">
<ele>32.075</ele>
<time>2015-12-05T02:37:53.443Z</time>
</trkpt>
<trkpt lat="-27.6875042" lon="152.8028292">
<ele>30.721</ele>
<time>2015-12-05T02:37:56.186Z</time>
</trkpt>
<trkpt lat="-27.6873946" lon="152.8031980">
<ele>30.558</ele>
<time>2015-12-05T02:37:58.045Z</time>
</trkpt>
<trkpt lat="-27.6872230" lon="152.8036022">
<ele>32.100</ele>
<time>2015-12-05T02:38:00.020Z</time>
</trkpt>
<trkpt lat="-27.6870523" lon="152.8040227">
<ele>34.914</ele>
<time>2015-12-05T02:38:02.026Z</time>
</trkpt>
<trkpt lat="-27.6868831" lon="152.8044322">
<ele>37.696</ele>
<time>2015-12-05T02:38:03.919Z</time>
</trkpt>
<trkpt lat="-27.6866462" lon="152.8050921">
<ele>39.340</ele>
<time>2015-12-05T02:38:06.841Z</time>
</trkpt>
<trkpt lat="-27.6864110" lon="152.8057836">
<ele>39.812</ele>
<time>2015-12-05T02:38:09.896Z</time>
</trkpt>
<trkpt lat="-27.6862957" lon="152.8062330">
<ele>39.666</ele>
<time>2015-12-05T02:38:11.945Z</time>
</trkpt>
<trkpt lat="-27.6861572" lon="152.8068887">
<ele>39.241</ele>
<time>2015-12-05T02:38:14.932Z</time>
</trkpt>
<trkpt lat="-27.6860098" lon="152.8075501">
<ele>38.714</ele>
<time>2015-12-05T02:38:17.905Z</time>
</trkpt>
<trkpt lat="-27.6859164" lon="152.8080283">
<ele>38.462</ele>
<time>2015-12-05T02:38:19.944Z</time>
</trkpt>
<trkpt lat="-27.6858946" lon="152.8085045">
<ele>39.018</ele>
<time>2015-12-05T02:38:21.856Z</time>
</trkpt>
<trkpt lat="-27.6858309" lon="152.8092610">
<ele>40.503</ele>
<time>2015-12-05T02:38:24.819Z</time>
</trkpt>
<trkpt lat="-27.6858052" lon="152.8097995">
<ele>42.548</ele>
<time>2015-12-05T02:38:26.798Z</time>
</trkpt>
<trkpt lat="-27.6858353" lon="152.8106640">
<ele>44.989</ele>
<time>2015-12-05T02:38:29.930Z</time>
</trkpt>
<trkpt lat="-27.6858628" lon="152.8112184">
<ele>48.169</ele>
<time>2015-12-05T02:38:31.935Z</time>
</trkpt>
<trkpt lat="-27.6859574" lon="152.8120571">
<ele>51.638</ele>
<time>2015-12-05T02:38:34.986Z</time>
</trkpt>
<trkpt lat="-27.6860803" lon="152.8128701">
<ele>54.094</ele>
<time>2015-12-05T02:38:37.953Z</time>
</trkpt>
<trkpt lat="-27.6861882" lon="152.8134012">
<ele>55.453</ele>
<time>2015-12-05T02:38:39.858Z</time>
</trkpt>
<trkpt lat="-27.6863793" lon="152.8142266">
<ele>57.052</ele>
<time>2015-12-05T02:38:42.812Z</time>
</trkpt>
<trkpt lat="-27.6865359" lon="152.8147693">
<ele>59.184</ele>
<time>2015-12-05T02:38:44.827Z</time>
</trkpt>
<trkpt lat="-27.6867835" lon="152.8155548">
<ele>60.744</ele>
<time>2015-12-05T02:38:47.868Z</time>
</trkpt>
<trkpt lat="-27.6870076" lon="152.8162854">
<ele>60.802</ele>
<time>2015-12-05T02:38:50.804Z</time>
</trkpt>
<trkpt lat="-27.6871540" lon="152.8167678">
<ele>59.560</ele>
<time>2015-12-05T02:38:52.760Z</time>
</trkpt>
<trkpt lat="-27.6872957" lon="152.8172643">
<ele>58.017</ele>
<time>2015-12-05T02:38:54.723Z</time>
</trkpt>
<trkpt lat="-27.6874733" lon="152.8180454">
<ele>56.836</ele>
<time>2015-12-05T02:38:57.761Z</time>
</trkpt>
<trkpt lat="-27.6876074" lon="152.8188191">
<ele>55.855</ele>
<time>2015-12-05T02:39:00.762Z</time>
</trkpt>
<trkpt lat="-27.6876870" lon="152.8193176">
<ele>54.672</ele>
<time>2015-12-05T02:39:02.682Z</time>
</trkpt>
<trkpt lat="-27.6877228" lon="152.8201173">
<ele>53.191</ele>
<time>2015-12-05T02:39:05.689Z</time>
</trkpt>
<trkpt lat="-27.6877363" lon="152.8206567">
<ele>51.869</ele>
<time>2015-12-05T02:39:07.631Z</time>
</trkpt>
<trkpt lat="-27.6877057" lon="152.8215292">
<ele>51.178</ele>
<time>2015-12-05T02:39:10.677Z</time>
</trkpt>
<trkpt lat="-27.6876509" lon="152.8224024">
<ele>51.106</ele>
<time>2015-12-05T02:39:13.670Z</time>
</trkpt>
<trkpt lat="-27.6875883" lon="152.8229687">
<ele>51.503</ele>
<time>2015-12-05T02:39:15.692Z</time>
</trkpt>
<trkpt lat="-27.6874444" lon="152.8237719">
<ele>52.265</ele>
<time>2015-12-05T02:39:18.707Z</time>
</trkpt>
<trkpt lat="-27.6872417" lon="152.8245093">
<ele>53.209</ele>
<time>2015-12-05T02:39:21.675Z</time>
</trkpt>
<trkpt lat="-27.6870215" lon="152.8252400">
<ele>54.232</ele>
<time>2015-12-05T02:39:24.717Z</time>
</trkpt>
<trkpt lat="-27.6867798" lon="152.8259310">
<ele>55.593</ele>
<time>2015-12-05T02:39:27.659Z</time>
</trkpt>
<trkpt lat="-27.6865939" lon="152.8263807">
<ele>57.471</ele>
<time>2015-12-05T02:39:29.610Z</time>
</trkpt>
<trkpt lat="-27.6863885" lon="152.8268412">
<ele>59.613</ele>
<time>2015-12-05T02:39:31.571Z</time>
</trkpt>
<trkpt lat="-27.6860477" lon="152.8275386">
<ele>61.898</ele>
<time>2015-12-05T02:39:34.436Z</time>
</trkpt>
<trkpt lat="-27.6856104" lon="152.8282939">
<ele>64.744</ele>
<time>2015-12-05T02:39:37.469Z</time>
</trkpt>
<trkpt lat="-27.6851277" lon="152.8290337">
<ele>68.942</ele>
<time>2015-12-05T02:39:40.530Z</time>
</trkpt>
<trkpt lat="-27.6846318" lon="152.8296805">
<ele>73.913</ele>
<time>2015-12-05T02:39:43.442Z</time>
</trkpt>
<trkpt lat="-27.6842755" lon="152.8301048">
<ele>77.519</ele>
<time>2015-12-05T02:39:45.455Z</time>
</trkpt>
<trkpt lat="-27.6839150" lon="152.8305123">
<ele>79.480</ele>
<time>2015-12-05T02:39:47.465Z</time>
</trkpt>
<trkpt lat="-27.6835672" lon="152.8309147">
<ele>81.162</ele>
<time>2015-12-05T02:39:49.456Z</time>
</trkpt>
<trkpt lat="-27.6832179" lon="152.8313149">
<ele>82.533</ele>
<time>2015-12-05T02:39:51.446Z</time>
</trkpt>
<trkpt lat="-27.6826908" lon="152.8319423">
<ele>83.080</ele>
<time>2015-12-05T02:39:54.446Z</time>
</trkpt>
<trkpt lat="-27.6823258" lon="152.8323558">
<ele>83.265</ele>
<time>2015-12-05T02:39:56.432Z</time>
</trkpt>
<trkpt lat="-27.6817713" lon="152.8329951">
<ele>83.663</ele>
<time>2015-12-05T02:39:59.461Z</time>
</trkpt>
<trkpt lat="-27.6812206" lon="152.8336279">
<ele>84.168</ele>
<time>2015-12-05T02:40:02.462Z</time>
</trkpt>
<trkpt lat="-27.6806661" lon="152.8342606">
<ele>84.237</ele>
<time>2015-12-05T02:40:05.508Z</time>
</trkpt>
<trkpt lat="-27.6803198" lon="152.8346671">
<ele>83.743</ele>
<time>2015-12-05T02:40:07.485Z</time>
</trkpt>
<trkpt lat="-27.6799654" lon="152.8350736">
<ele>83.045</ele>
<time>2015-12-05T02:40:09.484Z</time>
</trkpt>
<trkpt lat="-27.6796023" lon="152.8354828">
<ele>82.499</ele>
<time>2015-12-05T02:40:11.496Z</time>
</trkpt>
<trkpt lat="-27.6792317" lon="152.8358935">
<ele>82.216</ele>
<time>2015-12-05T02:40:13.548Z</time>
</trkpt>
<trkpt lat="-27.6786963" lon="152.8364797">
<ele>82.129</ele>
<time>2015-12-05T02:40:16.591Z</time>
</trkpt>
<trkpt lat="-27.6783767" lon="152.8368580">
<ele>82.095</ele>
<time>2015-12-05T02:40:18.577Z</time>
</trkpt>
<trkpt lat="-27.6778992" lon="152.8374096">
<ele>82.001</ele>
<time>2015-12-05T02:40:21.639Z</time>
</trkpt>
<trkpt lat="-27.6774552" lon="152.8379106">
<ele>81.890</ele>
<time>2015-12-05T02:40:24.680Z</time>
</trkpt>
<trkpt lat="-27.6770071" lon="152.8383121">
<ele>81.816</ele>
<time>2015-12-05T02:40:27.680Z</time>
</trkpt>
<trkpt lat="-27.6767480" lon="152.8385807">
<ele>81.330</ele>
<time>2015-12-05T02:40:29.754Z</time>
</trkpt>
<trkpt lat="-27.6765516" lon="152.8388636">
<ele>79.970</ele>
<time>2015-12-05T02:40:31.968Z</time>
</trkpt>
<trkpt lat="-27.6763819" lon="152.8390598">
<ele>78.244</ele>
<time>2015-12-05T02:40:34.007Z</time>
</trkpt>
<trkpt lat="-27.6760620" lon="152.8391117">
<ele>77.100</ele>
<time>2015-12-05T02:40:36.841Z</time>
</trkpt>
<trkpt lat="-27.6758962" lon="152.8392755">
<ele>76.063</ele>
<time>2015-12-05T02:40:38.529Z</time>
</trkpt>
<trkpt lat="-27.6757776" lon="152.8397481">
<ele>74.826</ele>
<time>2015-12-05T02:40:41.355Z</time>
</trkpt>
<trkpt lat="-27.6756111" lon="152.8403747">
<ele>74.373</ele>
<time>2015-12-05T02:40:44.339Z</time>
</trkpt>
<trkpt lat="-27.6754020" lon="152.8408577">
<ele>75.545</ele>
<time>2015-12-05T02:40:46.437Z</time>
</trkpt>
<trkpt lat="-27.6751741" lon="152.8413779">
<ele>78.955</ele>
<time>2015-12-05T02:40:48.599Z</time>
</trkpt>
<trkpt lat="-27.6748965" lon="152.8421187">
<ele>83.966</ele>
<time>2015-12-05T02:40:51.610Z</time>
</trkpt>
<trkpt lat="-27.6746529" lon="152.8428419">
<ele>87.365</ele>
<time>2015-12-05T02:40:54.676Z</time>
</trkpt>
<trkpt lat="-27.6745236" lon="152.8432635">
<ele>87.300</ele>
<time>2015-12-05T02:40:56.605Z</time>
</trkpt>
<trkpt lat="-27.6743666" lon="152.8439246">
<ele>84.682</ele>
<time>2015-12-05T02:40:59.571Z</time>
</trkpt>
<trkpt lat="-27.6742437" lon="152.8446230">
<ele>80.970</ele>
<time>2015-12-05T02:41:02.579Z</time>
</trkpt>
<trkpt lat="-27.6741339" lon="152.8453516">
<ele>77.663</ele>
<time>2015-12-05T02:41:05.625Z</time>
</trkpt>
<trkpt lat="-27.6740925" lon="152.8458339">
<ele>75.829</ele>
<time>2015-12-05T02:41:07.607Z</time>
</trkpt>
<trkpt lat="-27.6740779" lon="152.8465740">
<ele>74.975</ele>
<time>2015-12-05T02:41:10.632Z</time>
</trkpt>
<trkpt lat="-27.6740730" lon="152.8470588">
<ele>74.240</ele>
<time>2015-12-05T02:41:12.604Z</time>
</trkpt>
<trkpt lat="-27.6741135" lon="152.8478015">
<ele>73.416</ele>
<time>2015-12-05T02:41:15.605Z</time>
</trkpt>
<trkpt lat="-27.6741590" lon="152.8483044">
<ele>72.657</ele>
<time>2015-12-05T02:41:17.609Z</time>
</trkpt>
<trkpt lat="-27.6742326" lon="152.8487994">
<ele>72.380</ele>
<time>2015-12-05T02:41:19.553Z</time>
</trkpt>
<trkpt lat="-27.6743946" lon="152.8495824">
<ele>73.071</ele>
<time>2015-12-05T02:41:22.629Z</time>
</trkpt>
<trkpt lat="-27.6744973" lon="152.8500968">
<ele>74.907</ele>
<time>2015-12-05T02:41:24.687Z</time>
</trkpt>
<trkpt lat="-27.6745815" lon="152.8505922">
<ele>77.356</ele>
<time>2015-12-05T02:41:26.737Z</time>
</trkpt>
<trkpt lat="-27.6747014" lon="152.8512776">
<ele>78.792</ele>
<time>2015-12-05T02:41:29.625Z</time>
</trkpt>
<trkpt lat="-27.6748369" lon="152.8519742">
<ele>78.366</ele>
<time>2015-12-05T02:41:32.633Z</time>
</trkpt>
<trkpt lat="-27.6750081" lon="152.8526482">
<ele>77.118</ele>
<time>2015-12-05T02:41:35.643Z</time>
</trkpt>
<trkpt lat="-27.6750722" lon="152.8530927">
<ele>76.407</ele>
<time>2015-12-05T02:41:37.570Z</time>
</trkpt>
<trkpt lat="-27.6751584" lon="152.8535454">
<ele>77.026</ele>
<time>2015-12-05T02:41:39.560Z</time>
</trkpt>
<trkpt lat="-27.6752816" lon="152.8542246">
<ele>78.698</ele>
<time>2015-12-05T02:41:42.595Z</time>
</trkpt>
<trkpt lat="-27.6754077" lon="152.8548573">
<ele>80.384</ele>
<time>2015-12-05T02:41:45.506Z</time>
</trkpt>
<trkpt lat="-27.6754991" lon="152.8552784">
<ele>81.553</ele>
<time>2015-12-05T02:41:47.474Z</time>
</trkpt>
<trkpt lat="-27.6755741" lon="152.8557143">
<ele>82.593</ele>
<time>2015-12-05T02:41:49.523Z</time>
</trkpt>
<trkpt lat="-27.6756757" lon="152.8563236">
<ele>83.978</ele>
<time>2015-12-05T02:41:52.493Z</time>
</trkpt>
<trkpt lat="-27.6757821" lon="152.8569177">
<ele>85.767</ele>
<time>2015-12-05T02:41:55.447Z</time>
</trkpt>
<trkpt lat="-27.6758579" lon="152.8573187">
<ele>87.720</ele>
<time>2015-12-05T02:41:57.417Z</time>
</trkpt>
<trkpt lat="-27.6759776" lon="152.8579487">
<ele>89.690</ele>
<time>2015-12-05T02:42:00.454Z</time>
</trkpt>
<trkpt lat="-27.6761048" lon="152.8585951">
<ele>91.434</ele>
<time>2015-12-05T02:42:03.514Z</time>
</trkpt>
<trkpt lat="-27.6761791" lon="152.8590232">
<ele>92.664</ele>
<time>2015-12-05T02:42:05.507Z</time>
</trkpt>
<trkpt lat="-27.6762697" lon="152.8594468">
<ele>93.197</ele>
<time>2015-12-05T02:42:07.486Z</time>
</trkpt>
<trkpt lat="-27.6763273" lon="152.8598695">
<ele>93.251</ele>
<time>2015-12-05T02:42:09.422Z</time>
</trkpt>
<trkpt lat="-27.6763994" lon="152.8603138">
<ele>93.624</ele>
<time>2015-12-05T02:42:11.457Z</time>
</trkpt>
<trkpt lat="-27.6764604" lon="152.8607596">
<ele>94.773</ele>
<time>2015-12-05T02:42:13.463Z</time>
</trkpt>
<trkpt lat="-27.6765080" lon="152.8612305">
<ele>95.816</ele>
<time>2015-12-05T02:42:15.512Z</time>
</trkpt>
<trkpt lat="-27.6765561" lon="152.8619121">
<ele>95.913</ele>
<time>2015-12-05T02:42:18.402Z</time>
</trkpt>
<trkpt lat="-27.6766249" lon="152.8626428">
<ele>95.164</ele>
<time>2015-12-05T02:42:21.454Z</time>
</trkpt>
<trkpt lat="-27.6766417" lon="152.8631229">
<ele>93.582</ele>
<time>2015-12-05T02:42:23.438Z</time>
</trkpt>
<trkpt lat="-27.6766492" lon="152.8638523">
<ele>91.193</ele>
<time>2015-12-05T02:42:26.429Z</time>
</trkpt>
<trkpt lat="-27.6766414" lon="152.8646097">
<ele>88.603</ele>
<time>2015-12-05T02:42:29.475Z</time>
</trkpt>
<trkpt lat="-27.6766294" lon="152.8653849">
<ele>86.528</ele>
<time>2015-12-05T02:42:32.516Z</time>
</trkpt>
<trkpt lat="-27.6766042" lon="152.8658923">
<ele>84.725</ele>
<time>2015-12-05T02:42:34.475Z</time>
</trkpt>
<trkpt lat="-27.6765845" lon="152.8664084">
<ele>82.374</ele>
<time>2015-12-05T02:42:36.446Z</time>
</trkpt>
<trkpt lat="-27.6765200" lon="152.8671940">
<ele>79.527</ele>
<time>2015-12-05T02:42:39.422Z</time>
</trkpt>
<trkpt lat="-27.6764668" lon="152.8677135">
<ele>76.549</ele>
<time>2015-12-05T02:42:41.358Z</time>
</trkpt>
<trkpt lat="-27.6763451" lon="152.8685247">
<ele>73.476</ele>
<time>2015-12-05T02:42:44.378Z</time>
</trkpt>
<trkpt lat="-27.6762136" lon="152.8693217">
<ele>70.127</ele>
<time>2015-12-05T02:42:47.332Z</time>
</trkpt>
<trkpt lat="-27.6760920" lon="152.8698562">
<ele>66.730</ele>
<time>2015-12-05T02:42:49.361Z</time>
</trkpt>
<trkpt lat="-27.6758935" lon="152.8706188">
<ele>64.107</ele>
<time>2015-12-05T02:42:52.328Z</time>
</trkpt>
<trkpt lat="-27.6757584" lon="152.8711257">
<ele>62.492</ele>
<time>2015-12-05T02:42:54.342Z</time>
</trkpt>
<trkpt lat="-27.6755322" lon="152.8718495">
<ele>61.414</ele>
<time>2015-12-05T02:42:57.312Z</time>
</trkpt>
<trkpt lat="-27.6753168" lon="152.8725616">
<ele>61.043</ele>
<time>2015-12-05T02:43:00.308Z</time>
</trkpt>
<trkpt lat="-27.6751679" lon="152.8730221">
<ele>61.426</ele>
<time>2015-12-05T02:43:02.330Z</time>
</trkpt>
<trkpt lat="-27.6749251" lon="152.8736907">
<ele>62.013</ele>
<time>2015-12-05T02:43:05.399Z</time>
</trkpt>
<trkpt lat="-27.6746655" lon="152.8743080">
<ele>62.762</ele>
<time>2015-12-05T02:43:08.413Z</time>
</trkpt>
<trkpt lat="-27.6744874" lon="152.8746954">
<ele>64.432</ele>
<time>2015-12-05T02:43:10.404Z</time>
</trkpt>
<trkpt lat="-27.6742453" lon="152.8752747">
<ele>66.970</ele>
<time>2015-12-05T02:43:13.373Z</time>
</trkpt>
<trkpt lat="-27.6740839" lon="152.8756731">
<ele>69.299</ele>
<time>2015-12-05T02:43:15.439Z</time>
</trkpt>
<trkpt lat="-27.6738336" lon="152.8762164">
<ele>71.031</ele>
<time>2015-12-05T02:43:18.348Z</time>
</trkpt>
<trkpt lat="-27.6735927" lon="152.8767808">
<ele>72.467</ele>
<time>2015-12-05T02:43:21.334Z</time>
</trkpt>
<trkpt lat="-27.6734213" lon="152.8771509">
<ele>73.725</ele>
<time>2015-12-05T02:43:23.332Z</time>
</trkpt>
<trkpt lat="-27.6732701" lon="152.8775266">
<ele>74.918</ele>
<time>2015-12-05T02:43:25.297Z</time>
</trkpt>
<trkpt lat="-27.6730088" lon="152.8781012">
<ele>76.016</ele>
<time>2015-12-05T02:43:28.322Z</time>
</trkpt>
<trkpt lat="-27.6727237" lon="152.8786909">
<ele>76.693</ele>
<time>2015-12-05T02:43:31.385Z</time>
</trkpt>
<trkpt lat="-27.6725400" lon="152.8790942">
<ele>77.135</ele>
<time>2015-12-05T02:43:33.424Z</time>
</trkpt>
<trkpt lat="-27.6722802" lon="152.8796827">
<ele>77.719</ele>
<time>2015-12-05T02:43:36.389Z</time>
</trkpt>
<trkpt lat="-27.6720473" lon="152.8802930">
<ele>78.097</ele>
<time>2015-12-05T02:43:39.381Z</time>
</trkpt>
<trkpt lat="-27.6718371" lon="152.8809459">
<ele>77.765</ele>
<time>2015-12-05T02:43:42.445Z</time>
</trkpt>
<trkpt lat="-27.6716533" lon="152.8815988">
<ele>76.721</ele>
<time>2015-12-05T02:43:45.413Z</time>
</trkpt>
<trkpt lat="-27.6715525" lon="152.8820418">
<ele>75.254</ele>
<time>2015-12-05T02:43:47.391Z</time>
</trkpt>
<trkpt lat="-27.6714484" lon="152.8824862">
<ele>74.057</ele>
<time>2015-12-05T02:43:49.353Z</time>
</trkpt>
<trkpt lat="-27.6713175" lon="152.8831959">
<ele>73.479</ele>
<time>2015-12-05T02:43:52.381Z</time>
</trkpt>
<trkpt lat="-27.6712329" lon="152.8839241">
<ele>72.839</ele>
<time>2015-12-05T02:43:55.357Z</time>
</trkpt>
<trkpt lat="-27.6711893" lon="152.8844301">
<ele>71.418</ele>
<time>2015-12-05T02:43:57.390Z</time>
</trkpt>
<trkpt lat="-27.6711746" lon="152.8851710">
<ele>69.580</ele>
<time>2015-12-05T02:44:00.386Z</time>
</trkpt>
<trkpt lat="-27.6711926" lon="152.8856528">
<ele>68.166</ele>
<time>2015-12-05T02:44:02.414Z</time>
</trkpt>
<trkpt lat="-27.6712141" lon="152.8861204">
<ele>67.407</ele>
<time>2015-12-05T02:44:04.438Z</time>
</trkpt>
<trkpt lat="-27.6712380" lon="152.8865759">
<ele>66.907</ele>
<time>2015-12-05T02:44:06.429Z</time>
</trkpt>
<trkpt lat="-27.6713248" lon="152.8872505">
<ele>66.446</ele>
<time>2015-12-05T02:44:09.369Z</time>
</trkpt>
<trkpt lat="-27.6714284" lon="152.8879473">
<ele>66.307</ele>
<time>2015-12-05T02:44:12.329Z</time>
</trkpt>
<trkpt lat="-27.6715803" lon="152.8886582">
<ele>66.747</ele>
<time>2015-12-05T02:44:15.346Z</time>
</trkpt>
<trkpt lat="-27.6717835" lon="152.8893418">
<ele>67.843</ele>
<time>2015-12-05T02:44:18.340Z</time>
</trkpt>
<trkpt lat="-27.6719821" lon="152.8900180">
<ele>69.398</ele>
<time>2015-12-05T02:44:21.321Z</time>
</trkpt>
<trkpt lat="-27.6721269" lon="152.8904731">
<ele>70.536</ele>
<time>2015-12-05T02:44:23.345Z</time>
</trkpt>
<trkpt lat="-27.6723291" lon="152.8911442">
<ele>70.657</ele>
<time>2015-12-05T02:44:26.346Z</time>
</trkpt>
<trkpt lat="-27.6725320" lon="152.8918011">
<ele>70.251</ele>
<time>2015-12-05T02:44:29.372Z</time>
</trkpt>
<trkpt lat="-27.6726688" lon="152.8922298">
<ele>69.892</ele>
<time>2015-12-05T02:44:31.398Z</time>
</trkpt>
<trkpt lat="-27.6727938" lon="152.8926559">
<ele>69.498</ele>
<time>2015-12-05T02:44:33.410Z</time>
</trkpt>
<trkpt lat="-27.6729087" lon="152.8930679">
<ele>68.821</ele>
<time>2015-12-05T02:44:35.357Z</time>
</trkpt>
<trkpt lat="-27.6731087" lon="152.8936891">
<ele>68.002</ele>
<time>2015-12-05T02:44:38.327Z</time>
</trkpt>
<trkpt lat="-27.6732909" lon="152.8943408">
<ele>67.165</ele>
<time>2015-12-05T02:44:41.341Z</time>
</trkpt>
<trkpt lat="-27.6734861" lon="152.8950002">
<ele>66.150</ele>
<time>2015-12-05T02:44:44.332Z</time>
</trkpt>
<trkpt lat="-27.6736299" lon="152.8954505">
<ele>64.817</ele>
<time>2015-12-05T02:44:46.355Z</time>
</trkpt>
<trkpt lat="-27.6738032" lon="152.8958765">
<ele>63.303</ele>
<time>2015-12-05T02:44:48.327Z</time>
</trkpt>
<trkpt lat="-27.6739353" lon="152.8963259">
<ele>61.809</ele>
<time>2015-12-05T02:44:50.322Z</time>
</trkpt>
<trkpt lat="-27.6741168" lon="152.8970016">
<ele>60.096</ele>
<time>2015-12-05T02:44:53.309Z</time>
</trkpt>
<trkpt lat="-27.6742857" lon="152.8976868">
<ele>58.022</ele>
<time>2015-12-05T02:44:56.350Z</time>
</trkpt>
<trkpt lat="-27.6743768" lon="152.8981317">
<ele>55.480</ele>
<time>2015-12-05T02:44:58.362Z</time>
</trkpt>
<trkpt lat="-27.6745250" lon="152.8987682">
<ele>52.426</ele>
<time>2015-12-05T02:45:01.331Z</time>
</trkpt>
<trkpt lat="-27.6746917" lon="152.8993728">
<ele>49.491</ele>
<time>2015-12-05T02:45:04.257Z</time>
</trkpt>
<trkpt lat="-27.6747890" lon="152.8997797">
<ele>47.360</ele>
<time>2015-12-05T02:45:06.233Z</time>
</trkpt>
<trkpt lat="-27.6749032" lon="152.9003994">
<ele>46.139</ele>
<time>2015-12-05T02:45:09.135Z</time>
</trkpt>
<trkpt lat="-27.6749761" lon="152.9011173">
<ele>45.722</ele>
<time>2015-12-05T02:45:12.272Z</time>
</trkpt>
<trkpt lat="-27.6749001" lon="152.9018139">
<ele>45.839</ele>
<time>2015-12-05T02:45:15.237Z</time>
</trkpt>
<trkpt lat="-27.6748800" lon="152.9024771">
<ele>46.117</ele>
<time>2015-12-05T02:45:18.007Z</time>
</trkpt>
<trkpt lat="-27.6748522" lon="152.9029843">
<ele>46.161</ele>
<time>2015-12-05T02:45:20.074Z</time>
</trkpt>
<trkpt lat="-27.6748495" lon="152.9034839">
<ele>45.896</ele>
<time>2015-12-05T02:45:22.088Z</time>
</trkpt>
<trkpt lat="-27.6747605" lon="152.9042096">
<ele>45.545</ele>
<time>2015-12-05T02:45:25.052Z</time>
</trkpt>
<trkpt lat="-27.6746832" lon="152.9046945">
<ele>45.244</ele>
<time>2015-12-05T02:45:27.043Z</time>
</trkpt>
<trkpt lat="-27.6745336" lon="152.9054250">
<ele>45.044</ele>
<time>2015-12-05T02:45:30.053Z</time>
</trkpt>
<trkpt lat="-27.6743474" lon="152.9061599">
<ele>45.072</ele>
<time>2015-12-05T02:45:33.115Z</time>
</trkpt>
<trkpt lat="-27.6742203" lon="152.9066358">
<ele>45.614</ele>
<time>2015-12-05T02:45:35.156Z</time>
</trkpt>
<trkpt lat="-27.6739860" lon="152.9072766">
<ele>46.604</ele>
<time>2015-12-05T02:45:38.091Z</time>
</trkpt>
<trkpt lat="-27.6737829" lon="152.9078989">
<ele>47.454</ele>
<time>2015-12-05T02:45:40.973Z</time>
</trkpt>
<trkpt lat="-27.6735006" lon="152.9085265">
<ele>47.929</ele>
<time>2015-12-05T02:45:44.022Z</time>
</trkpt>
<trkpt lat="-27.6732801" lon="152.9089364">
<ele>48.356</ele>
<time>2015-12-05T02:45:46.042Z</time>
</trkpt>
<trkpt lat="-27.6729618" lon="152.9095784">
<ele>48.829</ele>
<time>2015-12-05T02:45:49.064Z</time>
</trkpt>
<trkpt lat="-27.6726031" lon="152.9102074">
<ele>49.519</ele>
<time>2015-12-05T02:45:52.074Z</time>
</trkpt>
<trkpt lat="-27.6723478" lon="152.9106206">
<ele>50.720</ele>
<time>2015-12-05T02:45:54.097Z</time>
</trkpt>
<trkpt lat="-27.6719651" lon="152.9112037">
<ele>52.098</ele>
<time>2015-12-05T02:45:57.030Z</time>
</trkpt>
<trkpt lat="-27.6716672" lon="152.9115871">
<ele>52.993</ele>
<time>2015-12-05T02:45:59.094Z</time>
</trkpt>
<trkpt lat="-27.6712163" lon="152.9121304">
<ele>53.296</ele>
<time>2015-12-05T02:46:02.107Z</time>
</trkpt>
<trkpt lat="-27.6709175" lon="152.9124882">
<ele>53.262</ele>
<time>2015-12-05T02:46:04.116Z</time>
</trkpt>
<trkpt lat="-27.6705869" lon="152.9128067">
<ele>53.154</ele>
<time>2015-12-05T02:46:06.154Z</time>
</trkpt>
<trkpt lat="-27.6701372" lon="152.9132900">
<ele>53.340</ele>
<time>2015-12-05T02:46:09.122Z</time>
</trkpt>
<trkpt lat="-27.6698267" lon="152.9135868">
<ele>53.980</ele>
<time>2015-12-05T02:46:11.106Z</time>
</trkpt>
<trkpt lat="-27.6695053" lon="152.9138683">
<ele>54.643</ele>
<time>2015-12-05T02:46:13.089Z</time>
</trkpt>
<trkpt lat="-27.6690340" lon="152.9142992">
<ele>54.943</ele>
<time>2015-12-05T02:46:16.034Z</time>
</trkpt>
<trkpt lat="-27.6685445" lon="152.9147507">
<ele>54.971</ele>
<time>2015-12-05T02:46:19.073Z</time>
</trkpt>
<trkpt lat="-27.6680332" lon="152.9151993">
<ele>55.034</ele>
<time>2015-12-05T02:46:22.134Z</time>
</trkpt>
<trkpt lat="-27.6677054" lon="152.9155005">
<ele>55.499</ele>
<time>2015-12-05T02:46:24.106Z</time>
</trkpt>
<trkpt lat="-27.6672013" lon="152.9159582">
<ele>56.312</ele>
<time>2015-12-05T02:46:27.113Z</time>
</trkpt>
<trkpt lat="-27.6668629" lon="152.9162697">
<ele>56.988</ele>
<time>2015-12-05T02:46:29.129Z</time>
</trkpt>
<trkpt lat="-27.6663420" lon="152.9167145">
<ele>57.607</ele>
<time>2015-12-05T02:46:32.113Z</time>
</trkpt>
<trkpt lat="-27.6658112" lon="152.9172026">
<ele>58.557</ele>
<time>2015-12-05T02:46:35.152Z</time>
</trkpt>
<trkpt lat="-27.6652823" lon="152.9177223">
<ele>59.523</ele>
<time>2015-12-05T02:46:38.089Z</time>
</trkpt>
<trkpt lat="-27.6646820" lon="152.9182688">
<ele>60.198</ele>
<time>2015-12-05T02:46:41.050Z</time>
</trkpt>
<trkpt lat="-27.6642523" lon="152.9187009">
<ele>61.308</ele>
<time>2015-12-05T02:46:43.121Z</time>
</trkpt>
<trkpt lat="-27.6638142" lon="152.9190976">
<ele>63.567</ele>
<time>2015-12-05T02:46:45.152Z</time>
</trkpt>
<trkpt lat="-27.6631713" lon="152.9196625">
<ele>66.284</ele>
<time>2015-12-05T02:46:48.168Z</time>
</trkpt>
<trkpt lat="-27.6625481" lon="152.9201978">
<ele>68.576</ele>
<time>2015-12-05T02:46:51.217Z</time>
</trkpt>
<trkpt lat="-27.6621459" lon="152.9205206">
<ele>70.370</ele>
<time>2015-12-05T02:46:53.246Z</time>
</trkpt>
<trkpt lat="-27.6615994" lon="152.9209960">
<ele>71.273</ele>
<time>2015-12-05T02:46:56.171Z</time>
</trkpt>
<trkpt lat="-27.6610482" lon="152.9214844">
<ele>71.004</ele>
<time>2015-12-05T02:46:59.149Z</time>
</trkpt>
<trkpt lat="-27.6605057" lon="152.9219735">
<ele>70.533</ele>
<time>2015-12-05T02:47:02.064Z</time>
</trkpt>
<trkpt lat="-27.6601184" lon="152.9223281">
<ele>71.212</ele>
<time>2015-12-05T02:47:04.112Z</time>
</trkpt>
<trkpt lat="-27.6595446" lon="152.9228671">
<ele>73.091</ele>
<time>2015-12-05T02:47:07.140Z</time>
</trkpt>
<trkpt lat="-27.6591557" lon="152.9232252">
<ele>74.916</ele>
<time>2015-12-05T02:47:09.152Z</time>
</trkpt>
<trkpt lat="-27.6587780" lon="152.9235785">
<ele>75.854</ele>
<time>2015-12-05T02:47:11.107Z</time>
</trkpt>
<trkpt lat="-27.6583887" lon="152.9239451">
<ele>76.090</ele>
<time>2015-12-05T02:47:13.119Z</time>
</trkpt>
<trkpt lat="-27.6577865" lon="152.9244667">
<ele>75.960</ele>
<time>2015-12-05T02:47:16.135Z</time>
</trkpt>
<trkpt lat="-27.6573930" lon="152.9248339">
<ele>75.364</ele>
<time>2015-12-05T02:47:18.178Z</time>
</trkpt>
<trkpt lat="-27.6568172" lon="152.9253566">
<ele>73.953</ele>
<time>2015-12-05T02:47:21.149Z</time>
</trkpt>
<trkpt lat="-27.6562331" lon="152.9258742">
<ele>72.089</ele>
<time>2015-12-05T02:47:24.123Z</time>
</trkpt>
<trkpt lat="-27.6558365" lon="152.9262328">
<ele>70.157</ele>
<time>2015-12-05T02:47:26.122Z</time>
</trkpt>
<trkpt lat="-27.6554319" lon="152.9266020">
<ele>68.094</ele>
<time>2015-12-05T02:47:28.180Z</time>
</trkpt>
<trkpt lat="-27.6548460" lon="152.9271241">
<ele>66.256</ele>
<time>2015-12-05T02:47:31.188Z</time>
</trkpt>
<trkpt lat="-27.6544629" lon="152.9274641">
<ele>64.734</ele>
<time>2015-12-05T02:47:33.212Z</time>
</trkpt>
<trkpt lat="-27.6539030" lon="152.9279679">
<ele>63.008</ele>
<time>2015-12-05T02:47:36.227Z</time>
</trkpt>
<trkpt lat="-27.6533457" lon="152.9284637">
<ele>61.253</ele>
<time>2015-12-05T02:47:39.241Z</time>
</trkpt>
<trkpt lat="-27.6527922" lon="152.9289666">
<ele>59.501</ele>
<time>2015-12-05T02:47:42.280Z</time>
</trkpt>
<trkpt lat="-27.6524443" lon="152.9292853">
<ele>57.343</ele>
<time>2015-12-05T02:47:44.283Z</time>
</trkpt>
<trkpt lat="-27.6519475" lon="152.9297280">
<ele>55.050</ele>
<time>2015-12-05T02:47:47.221Z</time>
</trkpt>
<trkpt lat="-27.6516179" lon="152.9300216">
<ele>52.439</ele>
<time>2015-12-05T02:47:49.225Z</time>
</trkpt>
<trkpt lat="-27.6511015" lon="152.9304706">
<ele>49.143</ele>
<time>2015-12-05T02:47:52.343Z</time>
</trkpt>
<trkpt lat="-27.6507725" lon="152.9307616">
<ele>46.297</ele>
<time>2015-12-05T02:47:54.358Z</time>
</trkpt>
<trkpt lat="-27.6504579" lon="152.9310501">
<ele>44.969</ele>
<time>2015-12-05T02:47:56.335Z</time>
</trkpt>
<trkpt lat="-27.6499747" lon="152.9314923">
<ele>45.013</ele>
<time>2015-12-05T02:47:59.389Z</time>
</trkpt>
<trkpt lat="-27.6495062" lon="152.9319191">
<ele>45.643</ele>
<time>2015-12-05T02:48:02.339Z</time>
</trkpt>
<trkpt lat="-27.6490134" lon="152.9323505">
<ele>45.944</ele>
<time>2015-12-05T02:48:05.385Z</time>
</trkpt>
<trkpt lat="-27.6487027" lon="152.9326301">
<ele>45.755</ele>
<time>2015-12-05T02:48:07.348Z</time>
</trkpt>
<trkpt lat="-27.6483864" lon="152.9329097">
<ele>45.484</ele>
<time>2015-12-05T02:48:09.260Z</time>
</trkpt>
<trkpt lat="-27.6478829" lon="152.9333932">
<ele>45.440</ele>
<time>2015-12-05T02:48:12.272Z</time>
</trkpt>
<trkpt lat="-27.6475352" lon="152.9337255">
<ele>46.497</ele>
<time>2015-12-05T02:48:14.291Z</time>
</trkpt>
<trkpt lat="-27.6471863" lon="152.9340524">
<ele>49.113</ele>
<time>2015-12-05T02:48:16.271Z</time>
</trkpt>
<trkpt lat="-27.6466494" lon="152.9345408">
<ele>52.268</ele>
<time>2015-12-05T02:48:19.212Z</time>
</trkpt>
<trkpt lat="-27.6462786" lon="152.9348870">
<ele>54.965</ele>
<time>2015-12-05T02:48:21.234Z</time>
</trkpt>
<trkpt lat="-27.6459211" lon="152.9352137">
<ele>56.994</ele>
<time>2015-12-05T02:48:23.219Z</time>
</trkpt>
<trkpt lat="-27.6455695" lon="152.9355227">
<ele>58.204</ele>
<time>2015-12-05T02:48:25.188Z</time>
</trkpt>
<trkpt lat="-27.6450226" lon="152.9359925">
<ele>58.726</ele>
<time>2015-12-05T02:48:28.215Z</time>
</trkpt>
<trkpt lat="-27.6444490" lon="152.9364359">
<ele>58.963</ele>
<time>2015-12-05T02:48:31.204Z</time>
</trkpt>
<trkpt lat="-27.6438252" lon="152.9368453">
<ele>59.259</ele>
<time>2015-12-05T02:48:34.187Z</time>
</trkpt>
<trkpt lat="-27.6431427" lon="152.9372472">
<ele>59.772</ele>
<time>2015-12-05T02:48:37.198Z</time>
</trkpt>
<trkpt lat="-27.6426491" lon="152.9375029">
<ele>60.651</ele>
<time>2015-12-05T02:48:39.204Z</time>
</trkpt>
<trkpt lat="-27.6418636" lon="152.9378526">
<ele>61.954</ele>
<time>2015-12-05T02:48:42.277Z</time>
</trkpt>
<trkpt lat="-27.6410881" lon="152.9381383">
<ele>63.218</ele>
<time>2015-12-05T02:48:45.281Z</time>
</trkpt>
<trkpt lat="-27.6403240" lon="152.9383685">
<ele>63.919</ele>
<time>2015-12-05T02:48:48.271Z</time>
</trkpt>
<trkpt lat="-27.6398246" lon="152.9384895">
<ele>63.944</ele>
<time>2015-12-05T02:48:50.271Z</time>
</trkpt>
<trkpt lat="-27.6393461" lon="152.9385887">
<ele>63.498</ele>
<time>2015-12-05T02:48:52.245Z</time>
</trkpt>
<trkpt lat="-27.6388738" lon="152.9386836">
<ele>62.395</ele>
<time>2015-12-05T02:48:54.240Z</time>
</trkpt>
<trkpt lat="-27.6381604" lon="152.9388236">
<ele>60.546</ele>
<time>2015-12-05T02:48:57.246Z</time>
</trkpt>
<trkpt lat="-27.6374273" lon="152.9389604">
<ele>59.011</ele>
<time>2015-12-05T02:49:00.276Z</time>
</trkpt>
<trkpt lat="-27.6366950" lon="152.9391028">
<ele>58.679</ele>
<time>2015-12-05T02:49:03.303Z</time>
</trkpt>
<trkpt lat="-27.6362281" lon="152.9391947">
<ele>59.031</ele>
<time>2015-12-05T02:49:05.299Z</time>
</trkpt>
<trkpt lat="-27.6355280" lon="152.9393037">
<ele>59.143</ele>
<time>2015-12-05T02:49:08.363Z</time>
</trkpt>
<trkpt lat="-27.6350904" lon="152.9393853">
<ele>58.411</ele>
<time>2015-12-05T02:49:10.368Z</time>
</trkpt>
<trkpt lat="-27.6344365" lon="152.9395264">
<ele>57.116</ele>
<time>2015-12-05T02:49:13.428Z</time>
</trkpt>
<trkpt lat="-27.6337992" lon="152.9396615">
<ele>56.106</ele>
<time>2015-12-05T02:49:16.446Z</time>
</trkpt>
<trkpt lat="-27.6331780" lon="152.9397850">
<ele>55.525</ele>
<time>2015-12-05T02:49:19.443Z</time>
</trkpt>
<trkpt lat="-27.6325738" lon="152.9399074">
<ele>54.827</ele>
<time>2015-12-05T02:49:22.498Z</time>
</trkpt>
<trkpt lat="-27.6322053" lon="152.9399752">
<ele>53.764</ele>
<time>2015-12-05T02:49:24.498Z</time>
</trkpt>
<trkpt lat="-27.6318433" lon="152.9400479">
<ele>52.075</ele>
<time>2015-12-05T02:49:26.536Z</time>
</trkpt>
<trkpt lat="-27.6314957" lon="152.9401199">
<ele>49.740</ele>
<time>2015-12-05T02:49:28.515Z</time>
</trkpt>
<trkpt lat="-27.6311477" lon="152.9401931">
<ele>47.688</ele>
<time>2015-12-05T02:49:30.487Z</time>
</trkpt>
<trkpt lat="-27.6307946" lon="152.9402688">
<ele>46.630</ele>
<time>2015-12-05T02:49:32.491Z</time>
</trkpt>
<trkpt lat="-27.6302676" lon="152.9403809">
<ele>45.987</ele>
<time>2015-12-05T02:49:35.547Z</time>
</trkpt>
<trkpt lat="-27.6297612" lon="152.9405036">
<ele>44.878</ele>
<time>2015-12-05T02:49:38.623Z</time>
</trkpt>
<trkpt lat="-27.6294507" lon="152.9405613">
<ele>43.322</ele>
<time>2015-12-05T02:49:40.587Z</time>
</trkpt>
<trkpt lat="-27.6291382" lon="152.9406235">
<ele>42.083</ele>
<time>2015-12-05T02:49:42.704Z</time>
</trkpt>
<trkpt lat="-27.6287108" lon="152.9407176">
<ele>41.385</ele>
<time>2015-12-05T02:49:45.774Z</time>
</trkpt>
<trkpt lat="-27.6284530" lon="152.9407870">
<ele>40.785</ele>
<time>2015-12-05T02:49:47.758Z</time>
</trkpt>
<trkpt lat="-27.6281958" lon="152.9408597">
<ele>40.127</ele>
<time>2015-12-05T02:49:49.723Z</time>
</trkpt>
<trkpt lat="-27.6278009" lon="152.9409540">
<ele>39.818</ele>
<time>2015-12-05T02:49:52.539Z</time>
</trkpt>
<trkpt lat="-27.6273237" lon="152.9409740">
<ele>40.190</ele>
<time>2015-12-05T02:49:55.569Z</time>
</trkpt>
<trkpt lat="-27.6269815" lon="152.9409486">
<ele>41.246</ele>
<time>2015-12-05T02:49:57.591Z</time>
</trkpt>
<trkpt lat="-27.6266313" lon="152.9409123">
<ele>42.626</ele>
<time>2015-12-05T02:49:59.610Z</time>
</trkpt>
<trkpt lat="-27.6260994" lon="152.9408731">
<ele>43.632</ele>
<time>2015-12-05T02:50:02.670Z</time>
</trkpt>
<trkpt lat="-27.6256123" lon="152.9407954">
<ele>43.762</ele>
<time>2015-12-05T02:50:05.564Z</time>
</trkpt>
<trkpt lat="-27.6252882" lon="152.9407497">
<ele>43.123</ele>
<time>2015-12-05T02:50:07.557Z</time>
</trkpt>
<trkpt lat="-27.6249655" lon="152.9406890">
<ele>42.180</ele>
<time>2015-12-05T02:50:09.566Z</time>
</trkpt>
<trkpt lat="-27.6246320" lon="152.9406779">
<ele>41.446</ele>
<time>2015-12-05T02:50:11.631Z</time>
</trkpt>
<trkpt lat="-27.6243248" lon="152.9407530">
<ele>41.259</ele>
<time>2015-12-05T02:50:13.544Z</time>
</trkpt>
<trkpt lat="-27.6239794" lon="152.9408578">
<ele>41.818</ele>
<time>2015-12-05T02:50:15.611Z</time>
</trkpt>
<trkpt lat="-27.6236491" lon="152.9410361">
<ele>43.262</ele>
<time>2015-12-05T02:50:17.643Z</time>
</trkpt>
<trkpt lat="-27.6231590" lon="152.9413234">
<ele>45.310</ele>
<time>2015-12-05T02:50:20.649Z</time>
</trkpt>
<trkpt lat="-27.6228149" lon="152.9414979">
<ele>47.132</ele>
<time>2015-12-05T02:50:22.614Z</time>
</trkpt>
<trkpt lat="-27.6224456" lon="152.9416331">
<ele>48.079</ele>
<time>2015-12-05T02:50:24.490Z</time>
</trkpt>
<trkpt lat="-27.6217997" lon="152.9417463">
<ele>48.302</ele>
<time>2015-12-05T02:50:27.474Z</time>
</trkpt>
<trkpt lat="-27.6211084" lon="152.9417873">
<ele>48.150</ele>
<time>2015-12-05T02:50:30.530Z</time>
</trkpt>
<trkpt lat="-27.6204443" lon="152.9418289">
<ele>47.804</ele>
<time>2015-12-05T02:50:33.631Z</time>
</trkpt>
<trkpt lat="-27.6200610" lon="152.9418692">
<ele>47.156</ele>
<time>2015-12-05T02:50:35.598Z</time>
</trkpt>
<trkpt lat="-27.6195470" lon="152.9419119">
<ele>45.914</ele>
<time>2015-12-05T02:50:38.734Z</time>
</trkpt>
<trkpt lat="-27.6193823" lon="152.9419543">
<ele>43.516</ele>
<time>2015-12-05T02:50:40.343Z</time>
</trkpt>
<trkpt lat="-27.6192524" lon="152.9419948">
<ele>39.942</ele>
<time>2015-12-05T02:50:42.244Z</time>
</trkpt>
<trkpt lat="-27.6191565" lon="152.9420291">
<ele>36.298</ele>
<time>2015-12-05T02:50:44.000Z</time>
</trkpt>
<trkpt lat="-27.6191565" lon="152.9420291">
<ele>33.857</ele>
<time>2015-12-05T02:50:50.000Z</time>
</trkpt>
<trkpt lat="-27.6191565" lon="152.9420291">
<ele>32.923</ele>
<time>2015-12-05T02:51:04.347Z</time>
</trkpt>
<trkpt lat="-27.6189792" lon="152.9420844">
<ele>33.057</ele>
<time>2015-12-05T02:51:08.960Z</time>
</trkpt>
<trkpt lat="-27.6186278" lon="152.9421562">
<ele>33.501</ele>
<time>2015-12-05T02:51:12.166Z</time>
</trkpt>
<trkpt lat="-27.6182142" lon="152.9422417">
<ele>34.538</ele>
<time>2015-12-05T02:51:15.074Z</time>
</trkpt>
<trkpt lat="-27.6177021" lon="152.9423644">
<ele>37.263</ele>
<time>2015-12-05T02:51:18.275Z</time>
</trkpt>
<trkpt lat="-27.6169491" lon="152.9425080">
<ele>41.699</ele>
<time>2015-12-05T02:51:21.999Z</time>
</trkpt>
<trkpt lat="-27.6164713" lon="152.9425950">
<ele>46.154</ele>
<time>2015-12-05T02:51:24.065Z</time>
</trkpt>
<trkpt lat="-27.6157252" lon="152.9427313">
<ele>48.828</ele>
<time>2015-12-05T02:51:27.076Z</time>
</trkpt>
<trkpt lat="-27.6149836" lon="152.9428273">
<ele>49.461</ele>
<time>2015-12-05T02:51:29.963Z</time>
</trkpt>
<trkpt lat="-27.6142097" lon="152.9428788">
<ele>48.926</ele>
<time>2015-12-05T02:51:32.964Z</time>
</trkpt>
<trkpt lat="-27.6137653" lon="152.9430233">
<ele>48.268</ele>
<time>2015-12-05T02:51:34.780Z</time>
</trkpt>
<trkpt lat="-27.6132435" lon="152.9430826">
<ele>48.246</ele>
<time>2015-12-05T02:51:36.864Z</time>
</trkpt>
<trkpt lat="-27.6127296" lon="152.9431356">
<ele>48.690</ele>
<time>2015-12-05T02:51:38.921Z</time>
</trkpt>
<trkpt lat="-27.6122302" lon="152.9431716">
<ele>48.924</ele>
<time>2015-12-05T02:51:40.903Z</time>
</trkpt>
<trkpt lat="-27.6114851" lon="152.9432249">
<ele>48.651</ele>
<time>2015-12-05T02:51:43.828Z</time>
</trkpt>
<trkpt lat="-27.6106823" lon="152.9433005">
<ele>47.805</ele>
<time>2015-12-05T02:51:46.969Z</time>
</trkpt>
<trkpt lat="-27.6101909" lon="152.9433584">
<ele>46.692</ele>
<time>2015-12-05T02:51:48.907Z</time>
</trkpt>
<trkpt lat="-27.6094227" lon="152.9434430">
<ele>45.804</ele>
<time>2015-12-05T02:51:51.959Z</time>
</trkpt>
<trkpt lat="-27.6086712" lon="152.9434874">
<ele>45.214</ele>
<time>2015-12-05T02:51:54.954Z</time>
</trkpt>
<trkpt lat="-27.6081814" lon="152.9435337">
<ele>44.603</ele>
<time>2015-12-05T02:51:56.900Z</time>
</trkpt>
<trkpt lat="-27.6074299" lon="152.9435977">
<ele>43.792</ele>
<time>2015-12-05T02:51:59.863Z</time>
</trkpt>
<trkpt lat="-27.6066416" lon="152.9436452">
<ele>42.709</ele>
<time>2015-12-05T02:52:02.961Z</time>
</trkpt>
<trkpt lat="-27.6061434" lon="152.9436980">
<ele>41.211</ele>
<time>2015-12-05T02:52:04.921Z</time>
</trkpt>
<trkpt lat="-27.6056528" lon="152.9437525">
<ele>39.513</ele>
<time>2015-12-05T02:52:06.850Z</time>
</trkpt>
<trkpt lat="-27.6049110" lon="152.9438868">
<ele>37.998</ele>
<time>2015-12-05T02:52:09.795Z</time>
</trkpt>
<trkpt lat="-27.6041542" lon="152.9440214">
<ele>36.664</ele>
<time>2015-12-05T02:52:12.822Z</time>
</trkpt>
<trkpt lat="-27.6036581" lon="152.9441135">
<ele>35.423</ele>
<time>2015-12-05T02:52:14.812Z</time>
</trkpt>
<trkpt lat="-27.6029182" lon="152.9442715">
<ele>34.480</ele>
<time>2015-12-05T02:52:17.772Z</time>
</trkpt>
<trkpt lat="-27.6021754" lon="152.9444307">
<ele>34.124</ele>
<time>2015-12-05T02:52:20.725Z</time>
</trkpt>
<trkpt lat="-27.6016763" lon="152.9445643">
<ele>34.511</ele>
<time>2015-12-05T02:52:22.753Z</time>
</trkpt>
<trkpt lat="-27.6011934" lon="152.9446821">
<ele>35.977</ele>
<time>2015-12-05T02:52:24.697Z</time>
</trkpt>
<trkpt lat="-27.6007005" lon="152.9448081">
<ele>38.367</ele>
<time>2015-12-05T02:52:26.673Z</time>
</trkpt>
<trkpt lat="-27.5999549" lon="152.9450142">
<ele>40.560</ele>
<time>2015-12-05T02:52:29.646Z</time>
</trkpt>
<trkpt lat="-27.5992161" lon="152.9452304">
<ele>42.004</ele>
<time>2015-12-05T02:52:32.608Z</time>
</trkpt>
<trkpt lat="-27.5987372" lon="152.9453783">
<ele>43.009</ele>
<time>2015-12-05T02:52:34.540Z</time>
</trkpt>
<trkpt lat="-27.5980009" lon="152.9456287">
<ele>43.310</ele>
<time>2015-12-05T02:52:37.541Z</time>
</trkpt>
<trkpt lat="-27.5972897" lon="152.9458998">
<ele>42.408</ele>
<time>2015-12-05T02:52:40.473Z</time>
</trkpt>
<trkpt lat="-27.5965568" lon="152.9461555">
<ele>40.700</ele>
<time>2015-12-05T02:52:43.473Z</time>
</trkpt>
<trkpt lat="-27.5960632" lon="152.9463343">
<ele>39.272</ele>
<time>2015-12-05T02:52:45.502Z</time>
</trkpt>
<trkpt lat="-27.5955815" lon="152.9465228">
<ele>38.659</ele>
<time>2015-12-05T02:52:47.497Z</time>
</trkpt>
<trkpt lat="-27.5948591" lon="152.9467622">
<ele>38.396</ele>
<time>2015-12-05T02:52:50.430Z</time>
</trkpt>
<trkpt lat="-27.5941145" lon="152.9470557">
<ele>37.987</ele>
<time>2015-12-05T02:52:53.492Z</time>
</trkpt>
<trkpt lat="-27.5933812" lon="152.9473233">
<ele>37.793</ele>
<time>2015-12-05T02:52:56.497Z</time>
</trkpt>
<trkpt lat="-27.5929018" lon="152.9475054">
<ele>38.221</ele>
<time>2015-12-05T02:52:58.470Z</time>
</trkpt>
<trkpt lat="-27.5921538" lon="152.9477730">
<ele>38.623</ele>
<time>2015-12-05T02:53:01.538Z</time>
</trkpt>
<trkpt lat="-27.5916694" lon="152.9479568">
<ele>38.354</ele>
<time>2015-12-05T02:53:03.544Z</time>
</trkpt>
<trkpt lat="-27.5909508" lon="152.9481499">
<ele>37.552</ele>
<time>2015-12-05T02:53:06.463Z</time>
</trkpt>
<trkpt lat="-27.5904425" lon="152.9482382">
<ele>36.628</ele>
<time>2015-12-05T02:53:08.500Z</time>
</trkpt>
<trkpt lat="-27.5897020" lon="152.9482936">
<ele>35.939</ele>
<time>2015-12-05T02:53:11.420Z</time>
</trkpt>
<trkpt lat="-27.5891800" lon="152.9482527">
<ele>35.389</ele>
<time>2015-12-05T02:53:13.460Z</time>
</trkpt>
<trkpt lat="-27.5884130" lon="152.9481580">
<ele>34.452</ele>
<time>2015-12-05T02:53:16.424Z</time>
</trkpt>
<trkpt lat="-27.5876550" lon="152.9480050">
<ele>33.209</ele>
<time>2015-12-05T02:53:19.410Z</time>
</trkpt>
<trkpt lat="-27.5871385" lon="152.9478955">
<ele>32.088</ele>
<time>2015-12-05T02:53:21.499Z</time>
</trkpt>
<trkpt lat="-27.5866469" lon="152.9478249">
<ele>30.444</ele>
<time>2015-12-05T02:53:23.478Z</time>
</trkpt>
<trkpt lat="-27.5859054" lon="152.9477401">
<ele>27.858</ele>
<time>2015-12-05T02:53:26.570Z</time>
</trkpt>
<trkpt lat="-27.5854125" lon="152.9477235">
<ele>25.218</ele>
<time>2015-12-05T02:53:28.736Z</time>
</trkpt>
<trkpt lat="-27.5847534" lon="152.9476864">
<ele>23.076</ele>
<time>2015-12-05T02:53:31.759Z</time>
</trkpt>
<trkpt lat="-27.5843197" lon="152.9476738">
<ele>20.698</ele>
<time>2015-12-05T02:53:33.738Z</time>
</trkpt>
<trkpt lat="-27.5836576" lon="152.9476405">
<ele>17.781</ele>
<time>2015-12-05T02:53:36.751Z</time>
</trkpt>
<trkpt lat="-27.5830098" lon="152.9475736">
<ele>15.269</ele>
<time>2015-12-05T02:53:39.705Z</time>
</trkpt>
<trkpt lat="-27.5823735" lon="152.9474245">
<ele>13.921</ele>
<time>2015-12-05T02:53:42.612Z</time>
</trkpt>
<trkpt lat="-27.5819381" lon="152.9472884">
<ele>13.349</ele>
<time>2015-12-05T02:53:44.605Z</time>
</trkpt>
<trkpt lat="-27.5812858" lon="152.9470030">
<ele>13.155</ele>
<time>2015-12-05T02:53:47.604Z</time>
</trkpt>
<trkpt lat="-27.5808771" lon="152.9467712">
<ele>13.215</ele>
<time>2015-12-05T02:53:49.576Z</time>
</trkpt>
<trkpt lat="-27.5804709" lon="152.9465277">
<ele>13.546</ele>
<time>2015-12-05T02:53:51.589Z</time>
</trkpt>
<trkpt lat="-27.5798981" lon="152.9461160">
<ele>14.142</ele>
<time>2015-12-05T02:53:54.733Z</time>
</trkpt>
<trkpt lat="-27.5795649" lon="152.9458268">
<ele>15.194</ele>
<time>2015-12-05T02:53:56.816Z</time>
</trkpt>
<trkpt lat="-27.5792415" lon="152.9455291">
<ele>16.740</ele>
<time>2015-12-05T02:53:59.010Z</time>
</trkpt>
<trkpt lat="-27.5789515" lon="152.9452386">
<ele>18.093</ele>
<time>2015-12-05T02:54:01.117Z</time>
</trkpt>
<trkpt lat="-27.5785770" lon="152.9448022">
<ele>18.990</ele>
<time>2015-12-05T02:54:04.167Z</time>
</trkpt>
<trkpt lat="-27.5783240" lon="152.9445224">
<ele>19.852</ele>
<time>2015-12-05T02:54:06.207Z</time>
</trkpt>
<trkpt lat="-27.5780579" lon="152.9442671">
<ele>20.555</ele>
<time>2015-12-05T02:54:08.211Z</time>
</trkpt>
<trkpt lat="-27.5775995" lon="152.9439818">
<ele>20.918</ele>
<time>2015-12-05T02:54:11.238Z</time>
</trkpt>
<trkpt lat="-27.5772570" lon="152.9438775">
<ele>21.161</ele>
<time>2015-12-05T02:54:13.377Z</time>
</trkpt>
<trkpt lat="-27.5769164" lon="152.9438488">
<ele>21.360</ele>
<time>2015-12-05T02:54:15.494Z</time>
</trkpt>
<trkpt lat="-27.5764468" lon="152.9439391">
<ele>21.300</ele>
<time>2015-12-05T02:54:18.499Z</time>
</trkpt>
<trkpt lat="-27.5761534" lon="152.9440724">
<ele>20.459</ele>
<time>2015-12-05T02:54:20.452Z</time>
</trkpt>
<trkpt lat="-27.5758835" lon="152.9442514">
<ele>18.685</ele>
<time>2015-12-05T02:54:22.392Z</time>
</trkpt>
<trkpt lat="-27.5756153" lon="152.9445205">
<ele>16.815</ele>
<time>2015-12-05T02:54:24.616Z</time>
</trkpt>
<trkpt lat="-27.5753175" lon="152.9449658">
<ele>15.631</ele>
<time>2015-12-05T02:54:27.591Z</time>
</trkpt>
<trkpt lat="-27.5751567" lon="152.9455378">
<ele>14.860</ele>
<time>2015-12-05T02:54:30.653Z</time>
</trkpt>
<trkpt lat="-27.5751594" lon="152.9461714">
<ele>14.108</ele>
<time>2015-12-05T02:54:33.729Z</time>
</trkpt>
<trkpt lat="-27.5751854" lon="152.9465437">
<ele>13.635</ele>
<time>2015-12-05T02:54:35.470Z</time>
</trkpt>
<trkpt lat="-27.5752366" lon="152.9469470">
<ele>13.874</ele>
<time>2015-12-05T02:54:37.303Z</time>
</trkpt>
<trkpt lat="-27.5753304" lon="152.9476006">
<ele>15.101</ele>
<time>2015-12-05T02:54:40.150Z</time>
</trkpt>
<trkpt lat="-27.5753705" lon="152.9480643">
<ele>17.881</ele>
<time>2015-12-05T02:54:42.096Z</time>
</trkpt>
<trkpt lat="-27.5753518" lon="152.9487815">
<ele>21.809</ele>
<time>2015-12-05T02:54:45.016Z</time>
</trkpt>
<trkpt lat="-27.5752260" lon="152.9494865">
<ele>25.672</ele>
<time>2015-12-05T02:54:47.854Z</time>
</trkpt>
<trkpt lat="-27.5750476" lon="152.9502177">
<ele>28.931</ele>
<time>2015-12-05T02:54:50.834Z</time>
</trkpt>
<trkpt lat="-27.5749576" lon="152.9507405">
<ele>31.896</ele>
<time>2015-12-05T02:54:52.986Z</time>
</trkpt>
<trkpt lat="-27.5747910" lon="152.9514394">
<ele>34.783</ele>
<time>2015-12-05T02:54:55.994Z</time>
</trkpt>
<trkpt lat="-27.5746836" lon="152.9519112">
<ele>37.232</ele>
<time>2015-12-05T02:54:58.000Z</time>
</trkpt>
<trkpt lat="-27.5745008" lon="152.9525849">
<ele>38.684</ele>
<time>2015-12-05T02:55:00.813Z</time>
</trkpt>
<trkpt lat="-27.5743604" lon="152.9530518">
<ele>39.618</ele>
<time>2015-12-05T02:55:02.723Z</time>
</trkpt>
<trkpt lat="-27.5740752" lon="152.9537732">
<ele>40.592</ele>
<time>2015-12-05T02:55:05.767Z</time>
</trkpt>
<trkpt lat="-27.5738994" lon="152.9542324">
<ele>41.442</ele>
<time>2015-12-05T02:55:07.703Z</time>
</trkpt>
<trkpt lat="-27.5736624" lon="152.9549607">
<ele>41.592</ele>
<time>2015-12-05T02:55:10.729Z</time>
</trkpt>
<trkpt lat="-27.5734026" lon="152.9556657">
<ele>40.617</ele>
<time>2015-12-05T02:55:13.779Z</time>
</trkpt>
<trkpt lat="-27.5732250" lon="152.9561263">
<ele>38.844</ele>
<time>2015-12-05T02:55:15.811Z</time>
</trkpt>
<trkpt lat="-27.5729593" lon="152.9567929">
<ele>37.248</ele>
<time>2015-12-05T02:55:18.776Z</time>
</trkpt>
<trkpt lat="-27.5727031" lon="152.9574648">
<ele>36.416</ele>
<time>2015-12-05T02:55:21.716Z</time>
</trkpt>
<trkpt lat="-27.5725279" lon="152.9579194">
<ele>36.298</ele>
<time>2015-12-05T02:55:23.699Z</time>
</trkpt>
<trkpt lat="-27.5722507" lon="152.9585992">
<ele>36.759</ele>
<time>2015-12-05T02:55:26.658Z</time>
</trkpt>
<trkpt lat="-27.5720325" lon="152.9590437">
<ele>37.539</ele>
<time>2015-12-05T02:55:28.653Z</time>
</trkpt>
<trkpt lat="-27.5718876" lon="152.9595277">
<ele>37.943</ele>
<time>2015-12-05T02:55:30.654Z</time>
</trkpt>
<trkpt lat="-27.5716064" lon="152.9602190">
<ele>37.600</ele>
<time>2015-12-05T02:55:33.612Z</time>
</trkpt>
<trkpt lat="-27.5713635" lon="152.9609297">
<ele>36.991</ele>
<time>2015-12-05T02:55:36.554Z</time>
</trkpt>
<trkpt lat="-27.5712143" lon="152.9614135">
<ele>36.626</ele>
<time>2015-12-05T02:55:38.531Z</time>
</trkpt>
<trkpt lat="-27.5710004" lon="152.9621566">
<ele>36.486</ele>
<time>2015-12-05T02:55:41.544Z</time>
</trkpt>
<trkpt lat="-27.5708668" lon="152.9626464">
<ele>36.307</ele>
<time>2015-12-05T02:55:43.509Z</time>
</trkpt>
<trkpt lat="-27.5707321" lon="152.9631564">
<ele>35.895</ele>
<time>2015-12-05T02:55:45.538Z</time>
</trkpt>
<trkpt lat="-27.5705194" lon="152.9638992">
<ele>35.376</ele>
<time>2015-12-05T02:55:48.523Z</time>
</trkpt>
<trkpt lat="-27.5702643" lon="152.9646272">
<ele>34.783</ele>
<time>2015-12-05T02:55:51.535Z</time>
</trkpt>
<trkpt lat="-27.5701328" lon="152.9651044">
<ele>33.436</ele>
<time>2015-12-05T02:55:53.455Z</time>
</trkpt>
<trkpt lat="-27.5699653" lon="152.9658481">
<ele>31.157</ele>
<time>2015-12-05T02:55:56.369Z</time>
</trkpt>
<trkpt lat="-27.5697428" lon="152.9666162">
<ele>28.631</ele>
<time>2015-12-05T02:55:59.403Z</time>
</trkpt>
<trkpt lat="-27.5695918" lon="152.9671191">
<ele>26.469</ele>
<time>2015-12-05T02:56:01.421Z</time>
</trkpt>
<trkpt lat="-27.5693236" lon="152.9678204">
<ele>25.415</ele>
<time>2015-12-05T02:56:04.409Z</time>
</trkpt>
<trkpt lat="-27.5691073" lon="152.9685429">
<ele>26.251</ele>
<time>2015-12-05T02:56:07.517Z</time>
</trkpt>
<trkpt lat="-27.5689621" lon="152.9690031">
<ele>28.326</ele>
<time>2015-12-05T02:56:09.563Z</time>
</trkpt>
<trkpt lat="-27.5687538" lon="152.9696403">
<ele>30.194</ele>
<time>2015-12-05T02:56:12.468Z</time>
</trkpt>
<trkpt lat="-27.5685254" lon="152.9702858">
<ele>31.168</ele>
<time>2015-12-05T02:56:15.407Z</time>
</trkpt>
<trkpt lat="-27.5683373" lon="152.9709515">
<ele>31.121</ele>
<time>2015-12-05T02:56:18.286Z</time>
</trkpt>
<trkpt lat="-27.5681133" lon="152.9716520">
<ele>30.173</ele>
<time>2015-12-05T02:56:21.242Z</time>
</trkpt>
<trkpt lat="-27.5678745" lon="152.9723794">
<ele>29.084</ele>
<time>2015-12-05T02:56:24.252Z</time>
</trkpt>
<trkpt lat="-27.5677245" lon="152.9728639">
<ele>28.476</ele>
<time>2015-12-05T02:56:26.266Z</time>
</trkpt>
<trkpt lat="-27.5675830" lon="152.9733549">
<ele>28.308</ele>
<time>2015-12-05T02:56:28.305Z</time>
</trkpt>
<trkpt lat="-27.5674293" lon="152.9738235">
<ele>28.369</ele>
<time>2015-12-05T02:56:30.283Z</time>
</trkpt>
<trkpt lat="-27.5672177" lon="152.9745408">
<ele>28.486</ele>
<time>2015-12-05T02:56:33.352Z</time>
</trkpt>
<trkpt lat="-27.5671668" lon="152.9750011">
<ele>28.475</ele>
<time>2015-12-05T02:56:35.276Z</time>
</trkpt>
<trkpt lat="-27.5670240" lon="152.9756982">
<ele>28.157</ele>
<time>2015-12-05T02:56:38.242Z</time>
</trkpt>
<trkpt lat="-27.5669441" lon="152.9761602">
<ele>27.019</ele>
<time>2015-12-05T02:56:40.147Z</time>
</trkpt>
<trkpt lat="-27.5668099" lon="152.9768872">
<ele>24.908</ele>
<time>2015-12-05T02:56:43.042Z</time>
</trkpt>
<trkpt lat="-27.5667213" lon="152.9773915">
<ele>22.780</ele>
<time>2015-12-05T02:56:45.045Z</time>
</trkpt>
<trkpt lat="-27.5666214" lon="152.9778937">
<ele>21.340</ele>
<time>2015-12-05T02:56:47.059Z</time>
</trkpt>
<trkpt lat="-27.5664813" lon="152.9786202">
<ele>19.849</ele>
<time>2015-12-05T02:56:50.003Z</time>
</trkpt>
<trkpt lat="-27.5663724" lon="152.9791055">
<ele>17.560</ele>
<time>2015-12-05T02:56:51.999Z</time>
</trkpt>
<trkpt lat="-27.5662259" lon="152.9798291">
<ele>14.454</ele>
<time>2015-12-05T02:56:54.936Z</time>
</trkpt>
<trkpt lat="-27.5661049" lon="152.9803349">
<ele>11.054</ele>
<time>2015-12-05T02:56:56.976Z</time>
</trkpt>
<trkpt lat="-27.5660113" lon="152.9808379">
<ele>8.160</ele>
<time>2015-12-05T02:56:58.966Z</time>
</trkpt>
<trkpt lat="-27.5658722" lon="152.9815903">
<ele>6.221</ele>
<time>2015-12-05T02:57:01.952Z</time>
</trkpt>
<trkpt lat="-27.5657019" lon="152.9823357">
<ele>4.969</ele>
<time>2015-12-05T02:57:04.983Z</time>
</trkpt>
<trkpt lat="-27.5655849" lon="152.9828251">
<ele>4.112</ele>
<time>2015-12-05T02:57:07.048Z</time>
</trkpt>
<trkpt lat="-27.5654982" lon="152.9833074">
<ele>3.605</ele>
<time>2015-12-05T02:57:09.111Z</time>
</trkpt>
<trkpt lat="-27.5653594" lon="152.9839739">
<ele>3.437</ele>
<time>2015-12-05T02:57:12.139Z</time>
</trkpt>
<trkpt lat="-27.5652217" lon="152.9846204">
<ele>3.474</ele>
<time>2015-12-05T02:57:14.975Z</time>
</trkpt>
<trkpt lat="-27.5651396" lon="152.9850739">
<ele>3.087</ele>
<time>2015-12-05T02:57:16.848Z</time>
</trkpt>
<trkpt lat="-27.5650693" lon="152.9855775">
<ele>1.912</ele>
<time>2015-12-05T02:57:18.879Z</time>
</trkpt>
<trkpt lat="-27.5649661" lon="152.9860686">
<ele>0.749</ele>
<time>2015-12-05T02:57:20.884Z</time>
</trkpt>
<trkpt lat="-27.5648698" lon="152.9865580">
<ele>0.359</ele>
<time>2015-12-05T02:57:22.857Z</time>
</trkpt>
<trkpt lat="-27.5647776" lon="152.9870498">
<ele>0.337</ele>
<time>2015-12-05T02:57:24.821Z</time>
</trkpt>
<trkpt lat="-27.5646149" lon="152.9878084">
<ele>0.000</ele>
<time>2015-12-05T02:57:27.833Z</time>
</trkpt>
<trkpt lat="-27.5644826" lon="152.9882876">
<ele>0.000</ele>
<time>2015-12-05T02:57:29.745Z</time>
</trkpt>
<trkpt lat="-27.5643426" lon="152.9887936">
<ele>0.000</ele>
<time>2015-12-05T02:57:31.750Z</time>
</trkpt>
<trkpt lat="-27.5641751" lon="152.9892837">
<ele>0.000</ele>
<time>2015-12-05T02:57:33.737Z</time>
</trkpt>
<trkpt lat="-27.5639033" lon="152.9900209">
<ele>0.000</ele>
<time>2015-12-05T02:57:36.760Z</time>
</trkpt>
<trkpt lat="-27.5636929" lon="152.9905022">
<ele>0.000</ele>
<time>2015-12-05T02:57:38.855Z</time>
</trkpt>
<trkpt lat="-27.5635011" lon="152.9909740">
<ele>0.000</ele>
<time>2015-12-05T02:57:40.955Z</time>
</trkpt>
<trkpt lat="-27.5632402" lon="152.9915955">
<ele>0.000</ele>
<time>2015-12-05T02:57:43.866Z</time>
</trkpt>
<trkpt lat="-27.5629582" lon="152.9921872">
<ele>0.715</ele>
<time>2015-12-05T02:57:46.675Z</time>
</trkpt>
<trkpt lat="-27.5626640" lon="152.9928337">
<ele>2.920</ele>
<time>2015-12-05T02:57:49.706Z</time>
</trkpt>
<trkpt lat="-27.5623544" lon="152.9934586">
<ele>4.666</ele>
<time>2015-12-05T02:57:52.677Z</time>
</trkpt>
<trkpt lat="-27.5621597" lon="152.9938796">
<ele>6.323</ele>
<time>2015-12-05T02:57:54.619Z</time>
</trkpt>
<trkpt lat="-27.5618350" lon="152.9945130">
<ele>7.028</ele>
<time>2015-12-05T02:57:57.678Z</time>
</trkpt>
<trkpt lat="-27.5615085" lon="152.9951247">
<ele>6.043</ele>
<time>2015-12-05T02:58:00.787Z</time>
</trkpt>
<trkpt lat="-27.5612230" lon="152.9956927">
<ele>4.092</ele>
<time>2015-12-05T02:58:03.619Z</time>
</trkpt>
<trkpt lat="-27.5609015" lon="152.9962910">
<ele>1.834</ele>
<time>2015-12-05T02:58:06.636Z</time>
</trkpt>
<trkpt lat="-27.5605963" lon="152.9968795">
<ele>0.000</ele>
<time>2015-12-05T02:58:09.622Z</time>
</trkpt>
<trkpt lat="-27.5604057" lon="152.9972738">
<ele>0.000</ele>
<time>2015-12-05T02:58:11.611Z</time>
</trkpt>
<trkpt lat="-27.5601616" lon="152.9979153">
<ele>0.000</ele>
<time>2015-12-05T02:58:14.731Z</time>
</trkpt>
<trkpt lat="-27.5600252" lon="152.9983200">
<ele>0.000</ele>
<time>2015-12-05T02:58:16.668Z</time>
</trkpt>
<trkpt lat="-27.5598396" lon="152.9989571">
<ele>0.000</ele>
<time>2015-12-05T02:58:19.642Z</time>
</trkpt>
<trkpt lat="-27.5597250" lon="152.9993870">
<ele>0.000</ele>
<time>2015-12-05T02:58:21.640Z</time>
</trkpt>
<trkpt lat="-27.5595737" lon="153.0000236">
<ele>0.000</ele>
<time>2015-12-05T02:58:24.579Z</time>
</trkpt>
<trkpt lat="-27.5594699" lon="153.0004532">
<ele>0.000</ele>
<time>2015-12-05T02:58:26.541Z</time>
</trkpt>
<trkpt lat="-27.5593684" lon="153.0008858">
<ele>0.000</ele>
<time>2015-12-05T02:58:28.498Z</time>
</trkpt>
<trkpt lat="-27.5591997" lon="153.0015469">
<ele>0.000</ele>
<time>2015-12-05T02:58:31.515Z</time>
</trkpt>
<trkpt lat="-27.5590308" lon="153.0022009">
<ele>0.000</ele>
<time>2015-12-05T02:58:34.499Z</time>
</trkpt>
<trkpt lat="-27.5589121" lon="153.0026282">
<ele>0.000</ele>
<time>2015-12-05T02:58:36.443Z</time>
</trkpt>
<trkpt lat="-27.5587674" lon="153.0030604">
<ele>0.591</ele>
<time>2015-12-05T02:58:38.444Z</time>
</trkpt>
<trkpt lat="-27.5586113" lon="153.0034965">
<ele>0.430</ele>
<time>2015-12-05T02:58:40.475Z</time>
</trkpt>
<trkpt lat="-27.5584540" lon="153.0039168">
<ele>0.000</ele>
<time>2015-12-05T02:58:42.427Z</time>
</trkpt>
<trkpt lat="-27.5581985" lon="153.0045661">
<ele>0.000</ele>
<time>2015-12-05T02:58:45.432Z</time>
</trkpt>
<trkpt lat="-27.5579297" lon="153.0052099">
<ele>0.000</ele>
<time>2015-12-05T02:58:48.422Z</time>
</trkpt>
<trkpt lat="-27.5576314" lon="153.0058341">
<ele>0.000</ele>
<time>2015-12-05T02:58:51.384Z</time>
</trkpt>
<trkpt lat="-27.5573205" lon="153.0064707">
<ele>0.000</ele>
<time>2015-12-05T02:58:54.385Z</time>
</trkpt>
<trkpt lat="-27.5571368" lon="153.0069096">
<ele>0.000</ele>
<time>2015-12-05T02:58:56.420Z</time>
</trkpt>
<trkpt lat="-27.5569210" lon="153.0072873">
<ele>0.000</ele>
<time>2015-12-05T02:58:58.383Z</time>
</trkpt>
<trkpt lat="-27.5566846" lon="153.0076309">
<ele>0.000</ele>
<time>2015-12-05T02:59:00.390Z</time>
</trkpt>
<trkpt lat="-27.5563125" lon="153.0080679">
<ele>1.123</ele>
<time>2015-12-05T02:59:03.201Z</time>
</trkpt>
<trkpt lat="-27.5557844" lon="153.0084583">
<ele>2.530</ele>
<time>2015-12-05T02:59:06.389Z</time>
</trkpt>
<trkpt lat="-27.5554205" lon="153.0086393">
<ele>3.400</ele>
<time>2015-12-05T02:59:08.362Z</time>
</trkpt>
<trkpt lat="-27.5548104" lon="153.0088806">
<ele>3.559</ele>
<time>2015-12-05T02:59:11.598Z</time>
</trkpt>
<trkpt lat="-27.5544503" lon="153.0089732">
<ele>3.216</ele>
<time>2015-12-05T02:59:13.463Z</time>
</trkpt>
<trkpt lat="-27.5540582" lon="153.0090540">
<ele>2.359</ele>
<time>2015-12-05T02:59:15.464Z</time>
</trkpt>
<trkpt lat="-27.5534053" lon="153.0091573">
<ele>0.818</ele>
<time>2015-12-05T02:59:18.757Z</time>
</trkpt>
<trkpt lat="-27.5530089" lon="153.0091838">
<ele>0.000</ele>
<time>2015-12-05T02:59:20.770Z</time>
</trkpt>
<trkpt lat="-27.5526274" lon="153.0092113">
<ele>0.000</ele>
<time>2015-12-05T02:59:22.729Z</time>
</trkpt>
<trkpt lat="-27.5522422" lon="153.0092312">
<ele>0.000</ele>
<time>2015-12-05T02:59:24.707Z</time>
</trkpt>
<trkpt lat="-27.5516491" lon="153.0092444">
<ele>0.000</ele>
<time>2015-12-05T02:59:27.728Z</time>
</trkpt>
<trkpt lat="-27.5512626" lon="153.0092813">
<ele>0.000</ele>
<time>2015-12-05T02:59:29.700Z</time>
</trkpt>
<trkpt lat="-27.5506337" lon="153.0093218">
<ele>0.000</ele>
<time>2015-12-05T02:59:32.908Z</time>
</trkpt>
<trkpt lat="-27.5502481" lon="153.0093396">
<ele>0.000</ele>
<time>2015-12-05T02:59:34.850Z</time>
</trkpt>
<trkpt lat="-27.5498377" lon="153.0093669">
<ele>0.000</ele>
<time>2015-12-05T02:59:36.896Z</time>
</trkpt>
<trkpt lat="-27.5492120" lon="153.0094439">
<ele>0.000</ele>
<time>2015-12-05T02:59:40.044Z</time>
</trkpt>
<trkpt lat="-27.5486777" lon="153.0095595">
<ele>0.000</ele>
<time>2015-12-05T02:59:42.791Z</time>
</trkpt>
<trkpt lat="-27.5480812" lon="153.0096544">
<ele>0.000</ele>
<time>2015-12-05T02:59:45.817Z</time>
</trkpt>
<trkpt lat="-27.5476872" lon="153.0097496">
<ele>0.000</ele>
<time>2015-12-05T02:59:47.843Z</time>
</trkpt>
<trkpt lat="-27.5471461" lon="153.0098788">
<ele>0.000</ele>
<time>2015-12-05T02:59:50.616Z</time>
</trkpt>
<trkpt lat="-27.5465442" lon="153.0099741">
<ele>0.000</ele>
<time>2015-12-05T02:59:53.679Z</time>
</trkpt>
<trkpt lat="-27.5460127" lon="153.0101461">
<ele>0.000</ele>
<time>2015-12-05T02:59:56.488Z</time>
</trkpt>
<trkpt lat="-27.5456313" lon="153.0102739">
<ele>0.000</ele>
<time>2015-12-05T02:59:58.503Z</time>
</trkpt>
<trkpt lat="-27.5452551" lon="153.0104288">
<ele>0.407</ele>
<time>2015-12-05T03:00:00.516Z</time>
</trkpt>
<trkpt lat="-27.5448912" lon="153.0106139">
<ele>0.686</ele>
<time>2015-12-05T03:00:02.500Z</time>
</trkpt>
<trkpt lat="-27.5445284" lon="153.0108252">
<ele>0.895</ele>
<time>2015-12-05T03:00:04.526Z</time>
</trkpt>
<trkpt lat="-27.5440409" lon="153.0111966">
<ele>1.679</ele>
<time>2015-12-05T03:00:07.486Z</time>
</trkpt>
<trkpt lat="-27.5437242" lon="153.0114827">
<ele>2.915</ele>
<time>2015-12-05T03:00:09.547Z</time>
</trkpt>
<trkpt lat="-27.5432431" lon="153.0118898">
<ele>4.006</ele>
<time>2015-12-05T03:00:12.617Z</time>
</trkpt>
<trkpt lat="-27.5427554" lon="153.0122699">
<ele>4.674</ele>
<time>2015-12-05T03:00:15.704Z</time>
</trkpt>
<trkpt lat="-27.5422850" lon="153.0125787">
<ele>4.970</ele>
<time>2015-12-05T03:00:18.640Z</time>
</trkpt>
<trkpt lat="-27.5419505" lon="153.0127606">
<ele>4.548</ele>
<time>2015-12-05T03:00:20.717Z</time>
</trkpt>
<trkpt lat="-27.5416320" lon="153.0128939">
<ele>3.179</ele>
<time>2015-12-05T03:00:22.642Z</time>
</trkpt>
<trkpt lat="-27.5413051" lon="153.0130188">
<ele>1.357</ele>
<time>2015-12-05T03:00:24.625Z</time>
</trkpt>
<trkpt lat="-27.5409515" lon="153.0131412">
<ele>0.000</ele>
<time>2015-12-05T03:00:26.891Z</time>
</trkpt>
<trkpt lat="-27.5406568" lon="153.0132177">
<ele>0.000</ele>
<time>2015-12-05T03:00:28.857Z</time>
</trkpt>
<trkpt lat="-27.5402337" lon="153.0133188">
<ele>0.000</ele>
<time>2015-12-05T03:00:31.802Z</time>
</trkpt>
<trkpt lat="-27.5397954" lon="153.0134371">
<ele>0.000</ele>
<time>2015-12-05T03:00:34.913Z</time>
</trkpt>
<trkpt lat="-27.5395267" lon="153.0135024">
<ele>0.000</ele>
<time>2015-12-05T03:00:36.847Z</time>
</trkpt>
<trkpt lat="-27.5392526" lon="153.0135697">
<ele>0.000</ele>
<time>2015-12-05T03:00:38.815Z</time>
</trkpt>
<trkpt lat="-27.5388291" lon="153.0136500">
<ele>0.000</ele>
<time>2015-12-05T03:00:41.744Z</time>
</trkpt>
<trkpt lat="-27.5385078" lon="153.0136957">
<ele>0.000</ele>
<time>2015-12-05T03:00:43.984Z</time>
</trkpt>
<trkpt lat="-27.5382261" lon="153.0137336">
<ele>0.000</ele>
<time>2015-12-05T03:00:45.974Z</time>
</trkpt>
<trkpt lat="-27.5379626" lon="153.0137675">
<ele>0.000</ele>
<time>2015-12-05T03:00:47.823Z</time>
</trkpt>
<trkpt lat="-27.5375466" lon="153.0138384">
<ele>0.000</ele>
<time>2015-12-05T03:00:50.613Z</time>
</trkpt>
<trkpt lat="-27.5370858" lon="153.0139551">
<ele>0.000</ele>
<time>2015-12-05T03:00:53.715Z</time>
</trkpt>
<trkpt lat="-27.5367846" lon="153.0140192">
<ele>0.000</ele>
<time>2015-12-05T03:00:55.804Z</time>
</trkpt>
<trkpt lat="-27.5363660" lon="153.0141248">
<ele>0.000</ele>
<time>2015-12-05T03:00:58.983Z</time>
</trkpt>
<trkpt lat="-27.5361097" lon="153.0141815">
<ele>0.000</ele>
<time>2015-12-05T03:01:00.954Z</time>
</trkpt>
<trkpt lat="-27.5358591" lon="153.0142508">
<ele>0.000</ele>
<time>2015-12-05T03:01:02.875Z</time>
</trkpt>
<trkpt lat="-27.5355025" lon="153.0144692">
<ele>0.000</ele>
<time>2015-12-05T03:01:05.833Z</time>
</trkpt>
<trkpt lat="-27.5351503" lon="153.0146968">
<ele>0.000</ele>
<time>2015-12-05T03:01:08.769Z</time>
</trkpt>
<trkpt lat="-27.5347905" lon="153.0149373">
<ele>0.000</ele>
<time>2015-12-05T03:01:11.718Z</time>
</trkpt>
<trkpt lat="-27.5344218" lon="153.0151689">
<ele>0.000</ele>
<time>2015-12-05T03:01:14.570Z</time>
</trkpt>
<trkpt lat="-27.5341575" lon="153.0153495">
<ele>0.000</ele>
<time>2015-12-05T03:01:16.602Z</time>
</trkpt>
<trkpt lat="-27.5337739" lon="153.0156213">
<ele>0.000</ele>
<time>2015-12-05T03:01:19.578Z</time>
</trkpt>
<trkpt lat="-27.5335198" lon="153.0158054">
<ele>0.000</ele>
<time>2015-12-05T03:01:21.575Z</time>
</trkpt>
<trkpt lat="-27.5331303" lon="153.0160759">
<ele>0.000</ele>
<time>2015-12-05T03:01:24.627Z</time>
</trkpt>
<trkpt lat="-27.5329138" lon="153.0162358">
<ele>0.000</ele>
<time>2015-12-05T03:01:26.347Z</time>
</trkpt>
<trkpt lat="-27.5326273" lon="153.0164362">
<ele>0.000</ele>
<time>2015-12-05T03:01:28.551Z</time>
</trkpt>
<trkpt lat="-27.5322360" lon="153.0167070">
<ele>0.000</ele>
<time>2015-12-05T03:01:31.556Z</time>
</trkpt>
<trkpt lat="-27.5319053" lon="153.0169727">
<ele>0.000</ele>
<time>2015-12-05T03:01:34.267Z</time>
</trkpt>
<trkpt lat="-27.5316583" lon="153.0171520">
<ele>0.000</ele>
<time>2015-12-05T03:01:36.245Z</time>
</trkpt>
<trkpt lat="-27.5314047" lon="153.0173556">
<ele>0.000</ele>
<time>2015-12-05T03:01:38.373Z</time>
</trkpt>
<trkpt lat="-27.5310534" lon="153.0176367">
<ele>0.000</ele>
<time>2015-12-05T03:01:41.268Z</time>
</trkpt>
<trkpt lat="-27.5306816" lon="153.0179296">
<ele>0.971</ele>
<time>2015-12-05T03:01:44.208Z</time>
</trkpt>
<trkpt lat="-27.5304210" lon="153.0181330">
<ele>2.305</ele>
<time>2015-12-05T03:01:46.246Z</time>
</trkpt>
<trkpt lat="-27.5301694" lon="153.0183307">
<ele>3.783</ele>
<time>2015-12-05T03:01:48.247Z</time>
</trkpt>
<trkpt lat="-27.5298090" lon="153.0186384">
<ele>5.280</ele>
<time>2015-12-05T03:01:51.194Z</time>
</trkpt>
<trkpt lat="-27.5294303" lon="153.0189703">
<ele>6.353</ele>
<time>2015-12-05T03:01:54.308Z</time>
</trkpt>
<trkpt lat="-27.5290754" lon="153.0193021">
<ele>6.918</ele>
<time>2015-12-05T03:01:57.284Z</time>
</trkpt>
<trkpt lat="-27.5288403" lon="153.0195230">
<ele>7.276</ele>
<time>2015-12-05T03:01:59.231Z</time>
</trkpt>
<trkpt lat="-27.5285943" lon="153.0197342">
<ele>7.313</ele>
<time>2015-12-05T03:02:01.197Z</time>
</trkpt>
<trkpt lat="-27.5283460" lon="153.0199544">
<ele>6.853</ele>
<time>2015-12-05T03:02:03.251Z</time>
</trkpt>
<trkpt lat="-27.5280031" lon="153.0202619">
<ele>6.118</ele>
<time>2015-12-05T03:02:06.126Z</time>
</trkpt>
<trkpt lat="-27.5276364" lon="153.0205801">
<ele>5.435</ele>
<time>2015-12-05T03:02:09.131Z</time>
</trkpt>
<trkpt lat="-27.5273553" lon="153.0207853">
<ele>5.083</ele>
<time>2015-12-05T03:02:11.256Z</time>
</trkpt>
<trkpt lat="-27.5271204" lon="153.0209761">
<ele>5.316</ele>
<time>2015-12-05T03:02:13.059Z</time>
</trkpt>
<trkpt lat="-27.5268601" lon="153.0212064">
<ele>6.091</ele>
<time>2015-12-05T03:02:15.080Z</time>
</trkpt>
<trkpt lat="-27.5266037" lon="153.0214480">
<ele>7.026</ele>
<time>2015-12-05T03:02:17.129Z</time>
</trkpt>
<trkpt lat="-27.5262419" lon="153.0217769">
<ele>7.686</ele>
<time>2015-12-05T03:02:20.002Z</time>
</trkpt>
<trkpt lat="-27.5258625" lon="153.0221048">
<ele>7.956</ele>
<time>2015-12-05T03:02:22.998Z</time>
</trkpt>
<trkpt lat="-27.5254924" lon="153.0224247">
<ele>7.967</ele>
<time>2015-12-05T03:02:25.977Z</time>
</trkpt>
<trkpt lat="-27.5252543" lon="153.0226453">
<ele>7.871</ele>
<time>2015-12-05T03:02:27.967Z</time>
</trkpt>
<trkpt lat="-27.5250125" lon="153.0228480">
<ele>7.778</ele>
<time>2015-12-05T03:02:29.880Z</time>
</trkpt>
<trkpt lat="-27.5246334" lon="153.0231798">
<ele>7.788</ele>
<time>2015-12-05T03:02:32.886Z</time>
</trkpt>
<trkpt lat="-27.5242546" lon="153.0235158">
<ele>7.982</ele>
<time>2015-12-05T03:02:35.815Z</time>
</trkpt>
<trkpt lat="-27.5238649" lon="153.0238786">
<ele>8.318</ele>
<time>2015-12-05T03:02:38.818Z</time>
</trkpt>
<trkpt lat="-27.5236105" lon="153.0241040">
<ele>9.088</ele>
<time>2015-12-05T03:02:40.771Z</time>
</trkpt>
<trkpt lat="-27.5232419" lon="153.0244690">
<ele>10.537</ele>
<time>2015-12-05T03:02:43.781Z</time>
</trkpt>
<trkpt lat="-27.5229946" lon="153.0247006">
<ele>12.052</ele>
<time>2015-12-05T03:02:45.830Z</time>
</trkpt>
<trkpt lat="-27.5226632" lon="153.0250432">
<ele>13.302</ele>
<time>2015-12-05T03:02:48.704Z</time>
</trkpt>
<trkpt lat="-27.5222601" lon="153.0253985">
<ele>15.036</ele>
<time>2015-12-05T03:02:51.932Z</time>
</trkpt>
<trkpt lat="-27.5218464" lon="153.0257398">
<ele>17.305</ele>
<time>2015-12-05T03:02:55.148Z</time>
</trkpt>
<trkpt lat="-27.5216237" lon="153.0259529">
<ele>19.650</ele>
<time>2015-12-05T03:02:56.971Z</time>
</trkpt>
<trkpt lat="-27.5212388" lon="153.0262999">
<ele>21.982</ele>
<time>2015-12-05T03:03:00.021Z</time>
</trkpt>
<trkpt lat="-27.5209754" lon="153.0265319">
<ele>23.856</ele>
<time>2015-12-05T03:03:02.126Z</time>
</trkpt>
<trkpt lat="-27.5206017" lon="153.0268560">
<ele>24.799</ele>
<time>2015-12-05T03:03:05.258Z</time>
</trkpt>
<trkpt lat="-27.5202581" lon="153.0271495">
<ele>25.203</ele>
<time>2015-12-05T03:03:08.313Z</time>
</trkpt>
<trkpt lat="-27.5199356" lon="153.0274286">
<ele>25.460</ele>
<time>2015-12-05T03:03:11.348Z</time>
</trkpt>
<trkpt lat="-27.5196431" lon="153.0276841">
<ele>25.572</ele>
<time>2015-12-05T03:03:14.358Z</time>
</trkpt>
<trkpt lat="-27.5193876" lon="153.0279328">
<ele>25.502</ele>
<time>2015-12-05T03:03:17.599Z</time>
</trkpt>
<trkpt lat="-27.5192510" lon="153.0280788">
<ele>25.375</ele>
<time>2015-12-05T03:03:20.462Z</time>
</trkpt>
<trkpt lat="-27.5191689" lon="153.0281497">
<ele>25.110</ele>
<time>2015-12-05T03:03:23.542Z</time>
</trkpt>
<trkpt lat="-27.5190991" lon="153.0282251">
<ele>24.513</ele>
<time>2015-12-05T03:03:26.036Z</time>
</trkpt>
<trkpt lat="-27.5190245" lon="153.0283003">
<ele>23.795</ele>
<time>2015-12-05T03:03:27.620Z</time>
</trkpt>
<trkpt lat="-27.5189154" lon="153.0284217">
<ele>23.486</ele>
<time>2015-12-05T03:03:29.552Z</time>
</trkpt>
<trkpt lat="-27.5187765" lon="153.0285730">
<ele>23.851</ele>
<time>2015-12-05T03:03:31.594Z</time>
</trkpt>
<trkpt lat="-27.5185531" lon="153.0288209">
<ele>25.018</ele>
<time>2015-12-05T03:03:34.735Z</time>
</trkpt>
<trkpt lat="-27.5184319" lon="153.0289856">
<ele>27.014</ele>
<time>2015-12-05T03:03:36.576Z</time>
</trkpt>
<trkpt lat="-27.5182930" lon="153.0291723">
<ele>29.218</ele>
<time>2015-12-05T03:03:38.523Z</time>
</trkpt>
<trkpt lat="-27.5180203" lon="153.0294374">
<ele>31.014</ele>
<time>2015-12-05T03:03:41.548Z</time>
</trkpt>
<trkpt lat="-27.5177773" lon="153.0295633">
<ele>32.488</ele>
<time>2015-12-05T03:03:43.601Z</time>
</trkpt>
<trkpt lat="-27.5175333" lon="153.0296769">
<ele>33.801</ele>
<time>2015-12-05T03:03:45.597Z</time>
</trkpt>
<trkpt lat="-27.5172885" lon="153.0297544">
<ele>35.088</ele>
<time>2015-12-05T03:03:47.542Z</time>
</trkpt>
<trkpt lat="-27.5169025" lon="153.0298666">
<ele>36.451</ele>
<time>2015-12-05T03:03:50.592Z</time>
</trkpt>
<trkpt lat="-27.5166483" lon="153.0299282">
<ele>37.701</ele>
<time>2015-12-05T03:03:52.530Z</time>
</trkpt>
<trkpt lat="-27.5163818" lon="153.0299925">
<ele>38.627</ele>
<time>2015-12-05T03:03:54.457Z</time>
</trkpt>
<trkpt lat="-27.5159368" lon="153.0301349">
<ele>39.359</ele>
<time>2015-12-05T03:03:57.577Z</time>
</trkpt>
<trkpt lat="-27.5156405" lon="153.0302484">
<ele>40.093</ele>
<time>2015-12-05T03:03:59.602Z</time>
</trkpt>
<trkpt lat="-27.5152368" lon="153.0303859">
<ele>40.798</ele>
<time>2015-12-05T03:04:02.379Z</time>
</trkpt>
<trkpt lat="-27.5149446" lon="153.0305043">
<ele>41.214</ele>
<time>2015-12-05T03:04:04.588Z</time>
</trkpt>
<trkpt lat="-27.5146951" lon="153.0305962">
<ele>40.983</ele>
<time>2015-12-05T03:04:06.513Z</time>
</trkpt>
<trkpt lat="-27.5143118" lon="153.0307266">
<ele>40.023</ele>
<time>2015-12-05T03:04:09.412Z</time>
</trkpt>
<trkpt lat="-27.5138953" lon="153.0308764">
<ele>38.873</ele>
<time>2015-12-05T03:04:12.446Z</time>
</trkpt>
<trkpt lat="-27.5136101" lon="153.0309910">
<ele>38.003</ele>
<time>2015-12-05T03:04:14.500Z</time>
</trkpt>
<trkpt lat="-27.5131895" lon="153.0311465">
<ele>37.484</ele>
<time>2015-12-05T03:04:17.487Z</time>
</trkpt>
<trkpt lat="-27.5129068" lon="153.0312537">
<ele>37.117</ele>
<time>2015-12-05T03:04:19.475Z</time>
</trkpt>
<trkpt lat="-27.5124832" lon="153.0314278">
<ele>36.675</ele>
<time>2015-12-05T03:04:22.474Z</time>
</trkpt>
<trkpt lat="-27.5122045" lon="153.0315400">
<ele>36.099</ele>
<time>2015-12-05T03:04:24.422Z</time>
</trkpt>
<trkpt lat="-27.5117719" lon="153.0317387">
<ele>35.467</ele>
<time>2015-12-05T03:04:27.455Z</time>
</trkpt>
<trkpt lat="-27.5113335" lon="153.0319332">
<ele>34.771</ele>
<time>2015-12-05T03:04:30.513Z</time>
</trkpt>
<trkpt lat="-27.5110495" lon="153.0320531">
<ele>33.846</ele>
<time>2015-12-05T03:04:32.496Z</time>
</trkpt>
<trkpt lat="-27.5107691" lon="153.0321814">
<ele>32.694</ele>
<time>2015-12-05T03:04:34.489Z</time>
</trkpt>
<trkpt lat="-27.5103764" lon="153.0324165">
<ele>31.679</ele>
<time>2015-12-05T03:04:37.449Z</time>
</trkpt>
<trkpt lat="-27.5100053" lon="153.0325884">
<ele>31.088</ele>
<time>2015-12-05T03:04:40.142Z</time>
</trkpt>
<trkpt lat="-27.5097477" lon="153.0328000">
<ele>31.061</ele>
<time>2015-12-05T03:04:42.250Z</time>
</trkpt>
<trkpt lat="-27.5094655" lon="153.0329607">
<ele>31.823</ele>
<time>2015-12-05T03:04:44.310Z</time>
</trkpt>
<trkpt lat="-27.5091864" lon="153.0331211">
<ele>33.110</ele>
<time>2015-12-05T03:04:46.358Z</time>
</trkpt>
<trkpt lat="-27.5087874" lon="153.0333506">
<ele>34.159</ele>
<time>2015-12-05T03:04:49.372Z</time>
</trkpt>
<trkpt lat="-27.5085305" lon="153.0335030">
<ele>34.605</ele>
<time>2015-12-05T03:04:51.429Z</time>
</trkpt>
<trkpt lat="-27.5081607" lon="153.0337266">
<ele>34.680</ele>
<time>2015-12-05T03:04:54.472Z</time>
</trkpt>
<trkpt lat="-27.5078049" lon="153.0339396">
<ele>34.658</ele>
<time>2015-12-05T03:04:57.447Z</time>
</trkpt>
<trkpt lat="-27.5074652" lon="153.0341237">
<ele>34.383</ele>
<time>2015-12-05T03:05:00.288Z</time>
</trkpt>
<trkpt lat="-27.5072226" lon="153.0342245">
<ele>33.067</ele>
<time>2015-12-05T03:05:02.237Z</time>
</trkpt>
<trkpt lat="-27.5068430" lon="153.0343702">
<ele>30.687</ele>
<time>2015-12-05T03:05:05.206Z</time>
</trkpt>
<trkpt lat="-27.5065924" lon="153.0344707">
<ele>28.193</ele>
<time>2015-12-05T03:05:07.151Z</time>
</trkpt>
<trkpt lat="-27.5061954" lon="153.0345844">
<ele>25.958</ele>
<time>2015-12-05T03:05:10.170Z</time>
</trkpt>
<trkpt lat="-27.5059425" lon="153.0345752">
<ele>23.591</ele>
<time>2015-12-05T03:05:12.001Z</time>
</trkpt>
<trkpt lat="-27.5054919" lon="153.0344983">
<ele>21.170</ele>
<time>2015-12-05T03:05:15.172Z</time>
</trkpt>
<trkpt lat="-27.5050619" lon="153.0344263">
<ele>19.282</ele>
<time>2015-12-05T03:05:18.149Z</time>
</trkpt>
<trkpt lat="-27.5047884" lon="153.0343747">
<ele>18.271</ele>
<time>2015-12-05T03:05:20.120Z</time>
</trkpt>
<trkpt lat="-27.5044127" lon="153.0343090">
<ele>17.835</ele>
<time>2015-12-05T03:05:22.853Z</time>
</trkpt>
<trkpt lat="-27.5041045" lon="153.0342765">
<ele>17.106</ele>
<time>2015-12-05T03:05:24.996Z</time>
</trkpt>
<trkpt lat="-27.5038048" lon="153.0342614">
<ele>15.436</ele>
<time>2015-12-05T03:05:27.008Z</time>
</trkpt>
<trkpt lat="-27.5035061" lon="153.0342317">
<ele>13.324</ele>
<time>2015-12-05T03:05:29.055Z</time>
</trkpt>
<trkpt lat="-27.5030889" lon="153.0342749">
<ele>11.636</ele>
<time>2015-12-05T03:05:32.008Z</time>
</trkpt>
<trkpt lat="-27.5026818" lon="153.0343484">
<ele>10.647</ele>
<time>2015-12-05T03:05:35.057Z</time>
</trkpt>
<trkpt lat="-27.5024442" lon="153.0343834">
<ele>10.281</ele>
<time>2015-12-05T03:05:36.992Z</time>
</trkpt>
<trkpt lat="-27.5021338" lon="153.0344997">
<ele>9.930</ele>
<time>2015-12-05T03:05:39.873Z</time>
</trkpt>
<trkpt lat="-27.5018737" lon="153.0346437">
<ele>9.084</ele>
<time>2015-12-05T03:05:42.827Z</time>
</trkpt>
<trkpt lat="-27.5017169" lon="153.0347274">
<ele>7.981</ele>
<time>2015-12-05T03:05:44.893Z</time>
</trkpt>
<trkpt lat="-27.5015688" lon="153.0347993">
<ele>7.064</ele>
<time>2015-12-05T03:05:48.000Z</time>
</trkpt>
<trkpt lat="-27.5015688" lon="153.0347993">
<ele>6.531</ele>
<time>2015-12-05T03:05:52.000Z</time>
</trkpt>
<trkpt lat="-27.5015688" lon="153.0347993">
<ele>6.399</ele>
<time>2015-12-05T03:06:23.499Z</time>
</trkpt>
<trkpt lat="-27.5013948" lon="153.0348562">
<ele>6.521</ele>
<time>2015-12-05T03:06:28.123Z</time>
</trkpt>
<trkpt lat="-27.5011147" lon="153.0349772">
<ele>7.487</ele>
<time>2015-12-05T03:06:31.414Z</time>
</trkpt>
<trkpt lat="-27.5008133" lon="153.0350655">
<ele>9.794</ele>
<time>2015-12-05T03:06:34.310Z</time>
</trkpt>
<trkpt lat="-27.5005087" lon="153.0351689">
<ele>12.353</ele>
<time>2015-12-05T03:06:37.300Z</time>
</trkpt>
<trkpt lat="-27.5002128" lon="153.0352446">
<ele>13.758</ele>
<time>2015-12-05T03:06:40.020Z</time>
</trkpt>
<trkpt lat="-27.4998957" lon="153.0353187">
<ele>13.961</ele>
<time>2015-12-05T03:06:42.607Z</time>
</trkpt>
<trkpt lat="-27.4996002" lon="153.0353552">
<ele>13.812</ele>
<time>2015-12-05T03:06:44.700Z</time>
</trkpt>
<trkpt lat="-27.4992177" lon="153.0354210">
<ele>14.042</ele>
<time>2015-12-05T03:06:47.313Z</time>
</trkpt>
<trkpt lat="-27.4989671" lon="153.0354897">
<ele>14.538</ele>
<time>2015-12-05T03:06:49.089Z</time>
</trkpt>
<trkpt lat="-27.4985635" lon="153.0353886">
<ele>14.905</ele>
<time>2015-12-05T03:06:52.048Z</time>
</trkpt>
<trkpt lat="-27.4980823" lon="153.0352973">
<ele>15.128</ele>
<time>2015-12-05T03:06:55.312Z</time>
</trkpt>
<trkpt lat="-27.4977653" lon="153.0352437">
<ele>15.489</ele>
<time>2015-12-05T03:06:57.271Z</time>
</trkpt>
<trkpt lat="-27.4972410" lon="153.0350951">
<ele>16.074</ele>
<time>2015-12-05T03:07:00.410Z</time>
</trkpt>
<trkpt lat="-27.4969586" lon="153.0350065">
<ele>16.019</ele>
<time>2015-12-05T03:07:02.071Z</time>
</trkpt>
<trkpt lat="-27.4966079" lon="153.0349205">
<ele>14.698</ele>
<time>2015-12-05T03:07:04.077Z</time>
</trkpt>
<trkpt lat="-27.4960766" lon="153.0348212">
<ele>13.079</ele>
<time>2015-12-05T03:07:06.979Z</time>
</trkpt>
<trkpt lat="-27.4957229" lon="153.0347165">
<ele>12.182</ele>
<time>2015-12-05T03:07:08.900Z</time>
</trkpt>
<trkpt lat="-27.4954284" lon="153.0346393">
<ele>11.847</ele>
<time>2015-12-05T03:07:10.515Z</time>
</trkpt>
<trkpt lat="-27.4949603" lon="153.0345395">
<ele>11.642</ele>
<time>2015-12-05T03:07:13.210Z</time>
</trkpt>
<trkpt lat="-27.4946256" lon="153.0344703">
<ele>11.422</ele>
<time>2015-12-05T03:07:15.209Z</time>
</trkpt>
<trkpt lat="-27.4940970" lon="153.0344030">
<ele>11.378</ele>
<time>2015-12-05T03:07:18.375Z</time>
</trkpt>
<trkpt lat="-27.4935775" lon="153.0344086">
<ele>11.608</ele>
<time>2015-12-05T03:07:21.388Z</time>
</trkpt>
<trkpt lat="-27.4930126" lon="153.0343667">
<ele>11.874</ele>
<time>2015-12-05T03:07:24.482Z</time>
</trkpt>
<trkpt lat="-27.4919787" lon="153.0338570">
<ele>11.930</ele>
<time>2015-12-05T03:07:30.646Z</time>
</trkpt>
<trkpt lat="-27.4915965" lon="153.0336740">
<ele>11.610</ele>
<time>2015-12-05T03:07:32.957Z</time>
</trkpt>
<trkpt lat="-27.4912846" lon="153.0335104">
<ele>10.947</ele>
<time>2015-12-05T03:07:34.901Z</time>
</trkpt>
<trkpt lat="-27.4907838" lon="153.0333466">
<ele>10.336</ele>
<time>2015-12-05T03:07:37.772Z</time>
</trkpt>
<trkpt lat="-27.4904222" lon="153.0332899">
<ele>10.052</ele>
<time>2015-12-05T03:07:39.754Z</time>
</trkpt>
<trkpt lat="-27.4898844" lon="153.0332896">
<ele>9.922</ele>
<time>2015-12-05T03:07:42.645Z</time>
</trkpt>
<trkpt lat="-27.4898844" lon="153.0332896">
<ele>9.922</ele>
<time>2015-12-05T03:07:42.645Z</time>
</trkpt>
<trkpt lat="-27.4445700" lon="153.0320730">
<ele>13.003</ele>
<time>2015-12-05T03:11:36.952Z</time>
</trkpt>
<trkpt lat="-27.4442052" lon="153.0319290">
<ele>12.997</ele>
<time>2015-12-05T03:11:38.858Z</time>
</trkpt>
<trkpt lat="-27.4436188" lon="153.0317584">
<ele>12.780</ele>
<time>2015-12-05T03:11:41.841Z</time>
</trkpt>
<trkpt lat="-27.4430297" lon="153.0316536">
<ele>12.219</ele>
<time>2015-12-05T03:11:44.776Z</time>
</trkpt>
<trkpt lat="-27.4424301" lon="153.0316518">
<ele>11.643</ele>
<time>2015-12-05T03:11:47.791Z</time>
</trkpt>
<trkpt lat="-27.4418733" lon="153.0316631">
<ele>11.310</ele>
<time>2015-12-05T03:11:50.685Z</time>
</trkpt>
<trkpt lat="-27.4414939" lon="153.0316452">
<ele>11.052</ele>
<time>2015-12-05T03:11:52.760Z</time>
</trkpt>
<trkpt lat="-27.4414939" lon="153.0316452">
<ele>11.052</ele>
<time>2015-12-05T03:11:52.760Z</time>
</trkpt>
<trkpt lat="-27.4149623" lon="153.0358884">
<ele>16.457</ele>
<time>2015-12-05T03:14:20.436Z</time>
</trkpt>
<trkpt lat="-27.4145512" lon="153.0355901">
<ele>16.449</ele>
<time>2015-12-05T03:14:23.322Z</time>
</trkpt>
<trkpt lat="-27.4142884" lon="153.0353705">
<ele>15.765</ele>
<time>2015-12-05T03:14:25.229Z</time>
</trkpt>
<trkpt lat="-27.4139003" lon="153.0349990">
<ele>13.990</ele>
<time>2015-12-05T03:14:28.146Z</time>
</trkpt>
<trkpt lat="-27.4136524" lon="153.0347272">
<ele>12.673</ele>
<time>2015-12-05T03:14:30.101Z</time>
</trkpt>
<trkpt lat="-27.4132753" lon="153.0342999">
<ele>13.361</ele>
<time>2015-12-05T03:14:33.120Z</time>
</trkpt>
<trkpt lat="-27.4129175" lon="153.0338772">
<ele>15.282</ele>
<time>2015-12-05T03:14:36.089Z</time>
</trkpt>
<trkpt lat="-27.4127093" lon="153.0335793">
<ele>17.171</ele>
<time>2015-12-05T03:14:38.005Z</time>
</trkpt>
<trkpt lat="-27.4124965" lon="153.0330374">
<ele>18.587</ele>
<time>2015-12-05T03:14:40.961Z</time>
</trkpt>
<trkpt lat="-27.4124177" lon="153.0324578">
<ele>19.321</ele>
<time>2015-12-05T03:14:43.918Z</time>
</trkpt>
<trkpt lat="-27.4123652" lon="153.0318871">
<ele>19.267</ele>
<time>2015-12-05T03:14:46.890Z</time>
</trkpt>
<trkpt lat="-27.4123168" lon="153.0313336">
<ele>18.245</ele>
<time>2015-12-05T03:14:49.880Z</time>
</trkpt>
<trkpt lat="-27.4123095" lon="153.0309860">
<ele>16.133</ele>
<time>2015-12-05T03:14:51.779Z</time>
</trkpt>
<trkpt lat="-27.4122871" lon="153.0306144">
<ele>13.722</ele>
<time>2015-12-05T03:14:53.798Z</time>
</trkpt>
<trkpt lat="-27.4122499" lon="153.0302723">
<ele>12.115</ele>
<time>2015-12-05T03:14:55.654Z</time>
</trkpt>
<trkpt lat="-27.4121876" lon="153.0297201">
<ele>12.028</ele>
<time>2015-12-05T03:14:58.665Z</time>
</trkpt>
<trkpt lat="-27.4121740" lon="153.0294101">
<ele>13.782</ele>
<time>2015-12-05T03:15:00.371Z</time>
</trkpt>
<trkpt lat="-27.4120775" lon="153.0288726">
<ele>16.615</ele>
<time>2015-12-05T03:15:03.495Z</time>
</trkpt>
<trkpt lat="-27.4120423" lon="153.0284140">
<ele>19.382</ele>
<time>2015-12-05T03:15:06.343Z</time>
</trkpt>
<trkpt lat="-27.4119930" lon="153.0280736">
<ele>21.564</ele>
<time>2015-12-05T03:15:08.873Z</time>
</trkpt>
<trkpt lat="-27.4119606" lon="153.0278003">
<ele>22.878</ele>
<time>2015-12-05T03:15:11.191Z</time>
</trkpt>
<trkpt lat="-27.4119272" lon="153.0275848">
<ele>23.317</ele>
<time>2015-12-05T03:15:12.949Z</time>
</trkpt>
<trkpt lat="-27.4119024" lon="153.0273962">
<ele>23.331</ele>
<time>2015-12-05T03:15:14.387Z</time>
</trkpt>
<trkpt lat="-27.4118382" lon="153.0269651">
<ele>23.384</ele>
<time>2015-12-05T03:15:17.331Z</time>
</trkpt>
<trkpt lat="-27.4117994" lon="153.0266705">
<ele>23.970</ele>
<time>2015-12-05T03:15:19.223Z</time>
</trkpt>
<trkpt lat="-27.4117612" lon="153.0264170">
<ele>25.282</ele>
<time>2015-12-05T03:15:20.833Z</time>
</trkpt>
<trkpt lat="-27.4116789" lon="153.0258534">
<ele>26.969</ele>
<time>2015-12-05T03:15:24.406Z</time>
</trkpt>
<trkpt lat="-27.4116257" lon="153.0255366">
<ele>28.397</ele>
<time>2015-12-05T03:15:26.421Z</time>
</trkpt>
<trkpt lat="-27.4115632" lon="153.0250708">
<ele>28.886</ele>
<time>2015-12-05T03:15:29.497Z</time>
</trkpt>
<trkpt lat="-27.4115263" lon="153.0248336">
<ele>28.090</ele>
<time>2015-12-05T03:15:31.221Z</time>
</trkpt>
<trkpt lat="-27.4114801" lon="153.0244475">
<ele>26.370</ele>
<time>2015-12-05T03:15:34.120Z</time>
</trkpt>
<trkpt lat="-27.4114173" lon="153.0240652">
<ele>24.376</ele>
<time>2015-12-05T03:15:36.930Z</time>
</trkpt>
<trkpt lat="-27.4113703" lon="153.0236752">
<ele>22.587</ele>
<time>2015-12-05T03:15:39.534Z</time>
</trkpt>
<trkpt lat="-27.4113066" lon="153.0231765">
<ele>21.353</ele>
<time>2015-12-05T03:15:42.595Z</time>
</trkpt>
<trkpt lat="-27.4112534" lon="153.0228467">
<ele>20.766</ele>
<time>2015-12-05T03:15:44.556Z</time>
</trkpt>
<trkpt lat="-27.4112196" lon="153.0225224">
<ele>20.603</ele>
<time>2015-12-05T03:15:46.523Z</time>
</trkpt>
<trkpt lat="-27.4111777" lon="153.0222153">
<ele>20.296</ele>
<time>2015-12-05T03:15:48.493Z</time>
</trkpt>
<trkpt lat="-27.4111173" lon="153.0217917">
<ele>19.462</ele>
<time>2015-12-05T03:15:51.308Z</time>
</trkpt>
<trkpt lat="-27.4110836" lon="153.0214801">
<ele>18.467</ele>
<time>2015-12-05T03:15:53.618Z</time>
</trkpt>
<trkpt lat="-27.4110557" lon="153.0212053">
<ele>17.531</ele>
<time>2015-12-05T03:15:55.970Z</time>
</trkpt>
<trkpt lat="-27.4110320" lon="153.0210691">
<ele>16.321</ele>
<time>2015-12-05T03:15:57.566Z</time>
</trkpt>
<trkpt lat="-27.4110108" lon="153.0208479">
<ele>14.909</ele>
<time>2015-12-05T03:16:00.998Z</time>
</trkpt>
<trkpt lat="-27.4110108" lon="153.0208479">
<ele>13.782</ele>
<time>2015-12-05T03:16:06.998Z</time>
</trkpt>
<trkpt lat="-27.4110108" lon="153.0208479">
<ele>13.271</ele>
<time>2015-12-05T03:16:07.098Z</time>
</trkpt>
<trkpt lat="-27.4109686" lon="153.0206496">
<ele>13.481</ele>
<time>2015-12-05T03:16:13.558Z</time>
</trkpt>
<trkpt lat="-27.4109531" lon="153.0204829">
<ele>14.141</ele>
<time>2015-12-05T03:16:15.247Z</time>
</trkpt>
<trkpt lat="-27.4108740" lon="153.0199795">
<ele>14.868</ele>
<time>2015-12-05T03:16:19.130Z</time>
</trkpt>
<trkpt lat="-27.4108351" lon="153.0196760">
<ele>15.838</ele>
<time>2015-12-05T03:16:21.052Z</time>
</trkpt>
<trkpt lat="-27.4107688" lon="153.0192020">
<ele>17.269</ele>
<time>2015-12-05T03:16:24.029Z</time>
</trkpt>
<trkpt lat="-27.4107354" lon="153.0189340">
<ele>18.685</ele>
<time>2015-12-05T03:16:25.835Z</time>
</trkpt>
<trkpt lat="-27.4106866" lon="153.0185442">
<ele>19.580</ele>
<time>2015-12-05T03:16:28.744Z</time>
</trkpt>
<trkpt lat="-27.4106630" lon="153.0183714">
<ele>19.799</ele>
<time>2015-12-05T03:16:30.494Z</time>
</trkpt>
<trkpt lat="-27.4106407" lon="153.0181426">
<ele>19.384</ele>
<time>2015-12-05T03:16:33.314Z</time>
</trkpt>
<trkpt lat="-27.4106210" lon="153.0179725">
<ele>18.565</ele>
<time>2015-12-05T03:16:36.328Z</time>
</trkpt>
<trkpt lat="-27.4106240" lon="153.0178592">
<ele>17.620</ele>
<time>2015-12-05T03:16:39.052Z</time>
</trkpt>
<trkpt lat="-27.4106144" lon="153.0177567">
<ele>16.814</ele>
<time>2015-12-05T03:16:41.998Z</time>
</trkpt>
<trkpt lat="-27.4106144" lon="153.0177567">
<ele>16.337</ele>
<time>2015-12-05T03:16:46.000Z</time>
</trkpt>
<trkpt lat="-27.4106144" lon="153.0177567">
<ele>16.177</ele>
<time>2015-12-05T03:16:57.369Z</time>
</trkpt>
<trkpt lat="-27.4105714" lon="153.0175370">
<ele>16.202</ele>
<time>2015-12-05T03:17:02.576Z</time>
</trkpt>
<trkpt lat="-27.4105485" lon="153.0173491">
<ele>16.271</ele>
<time>2015-12-05T03:17:04.681Z</time>
</trkpt>
<trkpt lat="-27.4105092" lon="153.0170226">
<ele>16.346</ele>
<time>2015-12-05T03:17:07.980Z</time>
</trkpt>
<trkpt lat="-27.4104948" lon="153.0168278">
<ele>16.544</ele>
<time>2015-12-05T03:17:09.738Z</time>
</trkpt>
<trkpt lat="-27.4104598" lon="153.0165710">
<ele>17.009</ele>
<time>2015-12-05T03:17:11.952Z</time>
</trkpt>
<trkpt lat="-27.4104086" lon="153.0162101">
<ele>17.658</ele>
<time>2015-12-05T03:17:14.925Z</time>
</trkpt>
<trkpt lat="-27.4103509" lon="153.0158097">
<ele>18.219</ele>
<time>2015-12-05T03:17:18.110Z</time>
</trkpt>
<trkpt lat="-27.4102933" lon="153.0154200">
<ele>18.516</ele>
<time>2015-12-05T03:17:21.345Z</time>
</trkpt>
<trkpt lat="-27.4102470" lon="153.0150655">
<ele>18.475</ele>
<time>2015-12-05T03:17:24.314Z</time>
</trkpt>
<trkpt lat="-27.4101912" lon="153.0146894">
<ele>18.154</ele>
<time>2015-12-05T03:17:27.454Z</time>
</trkpt>
<trkpt lat="-27.4101528" lon="153.0144443">
<ele>17.875</ele>
<time>2015-12-05T03:17:29.885Z</time>
</trkpt>
<trkpt lat="-27.4101308" lon="153.0141385">
<ele>17.868</ele>
<time>2015-12-05T03:17:35.657Z</time>
</trkpt>
<trkpt lat="-27.4101849" lon="153.0139176">
<ele>17.834</ele>
<time>2015-12-05T03:17:40.138Z</time>
</trkpt>
<trkpt lat="-27.4100927" lon="153.0138713">
<ele>17.469</ele>
<time>2015-12-05T03:17:46.000Z</time>
</trkpt>
<trkpt lat="-27.4100927" lon="153.0138713">
<ele>17.012</ele>
<time>2015-12-05T03:17:48.000Z</time>
</trkpt>
<trkpt lat="-27.4100927" lon="153.0138713">
<ele>16.807</ele>
<time>2015-12-05T03:18:41.865Z</time>
</trkpt>
<trkpt lat="-27.4099455" lon="153.0138036">
<ele>16.898</ele>
<time>2015-12-05T03:18:45.947Z</time>
</trkpt>
<trkpt lat="-27.4099847" lon="153.0131768">
<ele>17.247</ele>
<time>2015-12-05T03:18:52.165Z</time>
</trkpt>
<trkpt lat="-27.4099327" lon="153.0128094">
<ele>17.490</ele>
<time>2015-12-05T03:18:55.547Z</time>
</trkpt>
<trkpt lat="-27.4099044" lon="153.0126284">
<ele>17.861</ele>
<time>2015-12-05T03:18:57.574Z</time>
</trkpt>
<trkpt lat="-27.4098684" lon="153.0124065">
<ele>17.982</ele>
<time>2015-12-05T03:19:00.580Z</time>
</trkpt>
<trkpt lat="-27.4098459" lon="153.0122113">
<ele>17.587</ele>
<time>2015-12-05T03:19:03.296Z</time>
</trkpt>
<trkpt lat="-27.4098183" lon="153.0120082">
<ele>16.919</ele>
<time>2015-12-05T03:19:05.979Z</time>
</trkpt>
<trkpt lat="-27.4097805" lon="153.0117692">
<ele>16.343</ele>
<time>2015-12-05T03:19:08.991Z</time>
</trkpt>
<trkpt lat="-27.4097669" lon="153.0115906">
<ele>15.999</ele>
<time>2015-12-05T03:19:10.856Z</time>
</trkpt>
<trkpt lat="-27.4097474" lon="153.0113218">
<ele>15.901</ele>
<time>2015-12-05T03:19:13.432Z</time>
</trkpt>
<trkpt lat="-27.4097043" lon="153.0110292">
<ele>16.024</ele>
<time>2015-12-05T03:19:15.974Z</time>
</trkpt>
<trkpt lat="-27.4096691" lon="153.0106990">
<ele>16.278</ele>
<time>2015-12-05T03:19:18.764Z</time>
</trkpt>
<trkpt lat="-27.4096361" lon="153.0104809">
<ele>16.437</ele>
<time>2015-12-05T03:19:20.655Z</time>
</trkpt>
<trkpt lat="-27.4095988" lon="153.0102830">
<ele>16.321</ele>
<time>2015-12-05T03:19:22.413Z</time>
</trkpt>
<trkpt lat="-27.4095442" lon="153.0099106">
<ele>16.090</ele>
<time>2015-12-05T03:19:25.902Z</time>
</trkpt>
<trkpt lat="-27.4095229" lon="153.0097435">
<ele>15.944</ele>
<time>2015-12-05T03:19:27.834Z</time>
</trkpt>
<trkpt lat="-27.4095113" lon="153.0095905">
<ele>15.818</ele>
<time>2015-12-05T03:19:30.040Z</time>
</trkpt>
<trkpt lat="-27.4094859" lon="153.0094133">
<ele>15.572</ele>
<time>2015-12-05T03:19:33.309Z</time>
</trkpt>
<trkpt lat="-27.4094707" lon="153.0092997">
<ele>15.223</ele>
<time>2015-12-05T03:19:37.096Z</time>
</trkpt>
<trkpt lat="-27.4094649" lon="153.0091980">
<ele>14.873</ele>
<time>2015-12-05T03:19:41.000Z</time>
</trkpt>
<trkpt lat="-27.4094649" lon="153.0091980">
<ele>14.620</ele>
<time>2015-12-05T03:19:47.000Z</time>
</trkpt>
<trkpt lat="-27.4094649" lon="153.0091980">
<ele>14.511</ele>
<time>2015-12-05T03:19:56.939Z</time>
</trkpt>
<trkpt lat="-27.4094265" lon="153.0089193">
<ele>14.519</ele>
<time>2015-12-05T03:20:03.084Z</time>
</trkpt>
<trkpt lat="-27.4094183" lon="153.0087804">
<ele>14.510</ele>
<time>2015-12-05T03:20:04.992Z</time>
</trkpt>
<trkpt lat="-27.4093810" lon="153.0085341">
<ele>14.374</ele>
<time>2015-12-05T03:20:08.478Z</time>
</trkpt>
<trkpt lat="-27.4093515" lon="153.0083324">
<ele>14.175</ele>
<time>2015-12-05T03:20:11.242Z</time>
</trkpt>
<trkpt lat="-27.4093250" lon="153.0081731">
<ele>14.039</ele>
<time>2015-12-05T03:20:13.021Z</time>
</trkpt>
<trkpt lat="-27.4093290" lon="153.0079573">
<ele>14.016</ele>
<time>2015-12-05T03:20:14.954Z</time>
</trkpt>
<trkpt lat="-27.4092454" lon="153.0075889">
<ele>14.300</ele>
<time>2015-12-05T03:20:18.154Z</time>
</trkpt>
<trkpt lat="-27.4092105" lon="153.0073481">
<ele>15.042</ele>
<time>2015-12-05T03:20:20.086Z</time>
</trkpt>
<trkpt lat="-27.4091547" lon="153.0069525">
<ele>15.970</ele>
<time>2015-12-05T03:20:23.148Z</time>
</trkpt>
<trkpt lat="-27.4090998" lon="153.0066619">
<ele>16.842</ele>
<time>2015-12-05T03:20:25.283Z</time>
</trkpt>
<trkpt lat="-27.4090294" lon="153.0062333">
<ele>17.643</ele>
<time>2015-12-05T03:20:28.395Z</time>
</trkpt>
<trkpt lat="-27.4089551" lon="153.0058090">
<ele>18.294</ele>
<time>2015-12-05T03:20:32.034Z</time>
</trkpt>
<trkpt lat="-27.4089130" lon="153.0052778">
<ele>19.038</ele>
<time>2015-12-05T03:20:36.689Z</time>
</trkpt>
<trkpt lat="-27.4088839" lon="153.0051174">
<ele>19.638</ele>
<time>2015-12-05T03:20:38.429Z</time>
</trkpt>
<trkpt lat="-27.4088599" lon="153.0048735">
<ele>20.934</ele>
<time>2015-12-05T03:20:41.229Z</time>
</trkpt>
<trkpt lat="-27.4088355" lon="153.0046704">
<ele>22.465</ele>
<time>2015-12-05T03:20:43.441Z</time>
</trkpt>
<trkpt lat="-27.4087754" lon="153.0043024">
<ele>23.627</ele>
<time>2015-12-05T03:20:46.827Z</time>
</trkpt>
<trkpt lat="-27.4087472" lon="153.0040839">
<ele>24.653</ele>
<time>2015-12-05T03:20:48.697Z</time>
</trkpt>
<trkpt lat="-27.4086821" lon="153.0037508">
<ele>25.841</ele>
<time>2015-12-05T03:20:51.558Z</time>
</trkpt>
<trkpt lat="-27.4086306" lon="153.0033200">
<ele>26.936</ele>
<time>2015-12-05T03:20:54.869Z</time>
</trkpt>
<trkpt lat="-27.4085845" lon="153.0030558">
<ele>27.683</ele>
<time>2015-12-05T03:20:56.770Z</time>
</trkpt>
<trkpt lat="-27.4085515" lon="153.0027852">
<ele>28.265</ele>
<time>2015-12-05T03:20:58.701Z</time>
</trkpt>
<trkpt lat="-27.4084836" lon="153.0024045">
<ele>28.826</ele>
<time>2015-12-05T03:21:01.457Z</time>
</trkpt>
<trkpt lat="-27.4084690" lon="153.0021815">
<ele>29.549</ele>
<time>2015-12-05T03:21:03.066Z</time>
</trkpt>
<trkpt lat="-27.4084052" lon="153.0017864">
<ele>30.678</ele>
<time>2015-12-05T03:21:06.107Z</time>
</trkpt>
<trkpt lat="-27.4083399" lon="153.0014248">
<ele>32.277</ele>
<time>2015-12-05T03:21:09.078Z</time>
</trkpt>
<trkpt lat="-27.4083058" lon="153.0012218">
<ele>34.272</ele>
<time>2015-12-05T03:21:10.827Z</time>
</trkpt>
<trkpt lat="-27.4082525" lon="153.0009164">
<ele>36.310</ele>
<time>2015-12-05T03:21:13.704Z</time>
</trkpt>
<trkpt lat="-27.4082152" lon="153.0007206">
<ele>37.789</ele>
<time>2015-12-05T03:21:15.672Z</time>
</trkpt>
<trkpt lat="-27.4081875" lon="153.0005322">
<ele>38.622</ele>
<time>2015-12-05T03:21:17.644Z</time>
</trkpt>
<trkpt lat="-27.4081487" lon="153.0003246">
<ele>39.189</ele>
<time>2015-12-05T03:21:19.787Z</time>
</trkpt>
<trkpt lat="-27.4079757" lon="152.9999392">
<ele>39.950</ele>
<time>2015-12-05T03:21:23.505Z</time>
</trkpt>
<trkpt lat="-27.4078500" lon="152.9996979">
<ele>41.186</ele>
<time>2015-12-05T03:21:25.593Z</time>
</trkpt>
<trkpt lat="-27.4077223" lon="152.9994538">
<ele>42.685</ele>
<time>2015-12-05T03:21:27.664Z</time>
</trkpt>
<trkpt lat="-27.4076032" lon="152.9992078">
<ele>43.922</ele>
<time>2015-12-05T03:21:29.713Z</time>
</trkpt>
<trkpt lat="-27.4074869" lon="152.9989705">
<ele>44.346</ele>
<time>2015-12-05T03:21:31.711Z</time>
</trkpt>
<trkpt lat="-27.4073001" lon="152.9985672">
<ele>43.847</ele>
<time>2015-12-05T03:21:34.916Z</time>
</trkpt>
<trkpt lat="-27.4072459" lon="152.9980563">
<ele>42.935</ele>
<time>2015-12-05T03:21:38.061Z</time>
</trkpt>
<trkpt lat="-27.4073218" lon="152.9974882">
<ele>42.116</ele>
<time>2015-12-05T03:21:41.212Z</time>
</trkpt>
<trkpt lat="-27.4073792" lon="152.9971034">
<ele>41.351</ele>
<time>2015-12-05T03:21:43.304Z</time>
</trkpt>
<trkpt lat="-27.4074328" lon="152.9967494">
<ele>39.980</ele>
<time>2015-12-05T03:21:45.321Z</time>
</trkpt>
<trkpt lat="-27.4074704" lon="152.9964428">
<ele>37.812</ele>
<time>2015-12-05T03:21:47.208Z</time>
</trkpt>
<trkpt lat="-27.4074759" lon="152.9960970">
<ele>35.753</ele>
<time>2015-12-05T03:21:49.481Z</time>
</trkpt>
<trkpt lat="-27.4074157" lon="152.9956809">
<ele>33.866</ele>
<time>2015-12-05T03:21:52.454Z</time>
</trkpt>
<trkpt lat="-27.4073692" lon="152.9953517">
<ele>31.224</ele>
<time>2015-12-05T03:21:55.307Z</time>
</trkpt>
<trkpt lat="-27.4073491" lon="152.9952139">
<ele>27.740</ele>
<time>2015-12-05T03:21:56.877Z</time>
</trkpt>
<trkpt lat="-27.4073347" lon="152.9950843">
<ele>24.247</ele>
<time>2015-12-05T03:21:58.686Z</time>
</trkpt>
<trkpt lat="-27.4073028" lon="152.9949101">
<ele>21.711</ele>
<time>2015-12-05T03:22:01.284Z</time>
</trkpt>
<trkpt lat="-27.4072541" lon="152.9946196">
<ele>20.647</ele>
<time>2015-12-05T03:22:04.927Z</time>
</trkpt>
<trkpt lat="-27.4072115" lon="152.9942703">
<ele>20.728</ele>
<time>2015-12-05T03:22:08.265Z</time>
</trkpt>
<trkpt lat="-27.4071614" lon="152.9938149">
<ele>21.388</ele>
<time>2015-12-05T03:22:11.893Z</time>
</trkpt>
<trkpt lat="-27.4071218" lon="152.9935228">
<ele>22.156</ele>
<time>2015-12-05T03:22:13.971Z</time>
</trkpt>
<trkpt lat="-27.4071074" lon="152.9933498">
<ele>22.742</ele>
<time>2015-12-05T03:22:15.154Z</time>
</trkpt>
<trkpt lat="-27.4070153" lon="152.9928159">
<ele>23.088</ele>
<time>2015-12-05T03:22:18.907Z</time>
</trkpt>
<trkpt lat="-27.4069659" lon="152.9924256">
<ele>23.250</ele>
<time>2015-12-05T03:22:21.933Z</time>
</trkpt>
<trkpt lat="-27.4069625" lon="152.9921263">
<ele>23.193</ele>
<time>2015-12-05T03:22:24.870Z</time>
</trkpt>
<trkpt lat="-27.4070292" lon="152.9919971">
<ele>22.824</ele>
<time>2015-12-05T03:22:27.000Z</time>
</trkpt>
<trkpt lat="-27.4070292" lon="152.9919971">
<ele>22.252</ele>
<time>2015-12-05T03:22:32.000Z</time>
</trkpt>
<trkpt lat="-27.4070292" lon="152.9919971">
<ele>21.875</ele>
<time>2015-12-05T03:23:38.553Z</time>
</trkpt>
<trkpt lat="-27.4070732" lon="152.9917308">
<ele>21.885</ele>
<time>2015-12-05T03:23:45.131Z</time>
</trkpt>
<trkpt lat="-27.4071070" lon="152.9915962">
<ele>21.870</ele>
<time>2015-12-05T03:23:46.519Z</time>
</trkpt>
<trkpt lat="-27.4072006" lon="152.9912346">
<ele>21.487</ele>
<time>2015-12-05T03:23:49.632Z</time>
</trkpt>
<trkpt lat="-27.4072432" lon="152.9910818">
<ele>21.077</ele>
<time>2015-12-05T03:23:51.000Z</time>
</trkpt>
<trkpt lat="-27.4072432" lon="152.9910818">
<ele>21.015</ele>
<time>2015-12-05T03:23:56.000Z</time>
</trkpt>
<trkpt lat="-27.4072432" lon="152.9910818">
<ele>21.122</ele>
<time>2015-12-05T03:25:44.394Z</time>
</trkpt>
<trkpt lat="-27.4071875" lon="152.9908153">
<ele>21.152</ele>
<time>2015-12-05T03:25:52.215Z</time>
</trkpt>
<trkpt lat="-27.4070775" lon="152.9907739">
<ele>21.369</ele>
<time>2015-12-05T03:25:53.878Z</time>
</trkpt>
<trkpt lat="-27.4068648" lon="152.9907689">
<ele>22.210</ele>
<time>2015-12-05T03:25:55.870Z</time>
</trkpt>
<trkpt lat="-27.4064146" lon="152.9907197">
<ele>23.676</ele>
<time>2015-12-05T03:25:59.317Z</time>
</trkpt>
<trkpt lat="-27.4059028" lon="152.9905489">
<ele>26.543</ele>
<time>2015-12-05T03:26:02.807Z</time>
</trkpt>
<trkpt lat="-27.4057025" lon="152.9902960">
<ele>27.742</ele>
<time>2015-12-05T03:26:04.577Z</time>
</trkpt>
<trkpt lat="-27.4053408" lon="152.9898255">
<ele>28.761</ele>
<time>2015-12-05T03:26:07.867Z</time>
</trkpt>
<trkpt lat="-27.4050024" lon="152.9890661">
<ele>29.488</ele>
<time>2015-12-05T03:26:12.468Z</time>
</trkpt>
<trkpt lat="-27.4048344" lon="152.9888097">
<ele>29.985</ele>
<time>2015-12-05T03:26:14.310Z</time>
</trkpt>
<trkpt lat="-27.4045780" lon="152.9886108">
<ele>30.118</ele>
<time>2015-12-05T03:26:16.408Z</time>
</trkpt>
<trkpt lat="-27.4043581" lon="152.9884408">
<ele>29.848</ele>
<time>2015-12-05T03:26:18.248Z</time>
</trkpt>
<trkpt lat="-27.4041414" lon="152.9882765">
<ele>29.343</ele>
<time>2015-12-05T03:26:20.174Z</time>
</trkpt>
<trkpt lat="-27.4038350" lon="152.9880707">
<ele>28.823</ele>
<time>2015-12-05T03:26:23.098Z</time>
</trkpt>
<trkpt lat="-27.4037019" lon="152.9879756">
<ele>28.477</ele>
<time>2015-12-05T03:26:24.743Z</time>
</trkpt>
<trkpt lat="-27.4036223" lon="152.9879046">
<ele>28.096</ele>
<time>2015-12-05T03:26:26.000Z</time>
</trkpt>
<trkpt lat="-27.4036223" lon="152.9879046">
<ele>27.409</ele>
<time>2015-12-05T03:26:33.000Z</time>
</trkpt>
<trkpt lat="-27.4036223" lon="152.9879046">
<ele>26.854</ele>
<time>2015-12-05T03:26:37.938Z</time>
</trkpt>
<trkpt lat="-27.4034194" lon="152.9876919">
<ele>26.854</ele>
<time>2015-12-05T03:26:43.553Z</time>
</trkpt>
<trkpt lat="-27.4031867" lon="152.9874600">
<ele>27.134</ele>
<time>2015-12-05T03:26:46.606Z</time>
</trkpt>
<trkpt lat="-27.4029444" lon="152.9871706">
<ele>27.587</ele>
<time>2015-12-05T03:26:49.726Z</time>
</trkpt>
<trkpt lat="-27.4027887" lon="152.9870538">
<ele>28.458</ele>
<time>2015-12-05T03:26:51.399Z</time>
</trkpt>
<trkpt lat="-27.4023973" lon="152.9869017">
<ele>29.659</ele>
<time>2015-12-05T03:26:54.935Z</time>
</trkpt>
<trkpt lat="-27.4019675" lon="152.9868454">
<ele>31.014</ele>
<time>2015-12-05T03:26:58.151Z</time>
</trkpt>
<trkpt lat="-27.4016730" lon="152.9867645">
<ele>32.367</ele>
<time>2015-12-05T03:27:00.215Z</time>
</trkpt>
<trkpt lat="-27.4013837" lon="152.9866750">
<ele>33.505</ele>
<time>2015-12-05T03:27:02.272Z</time>
</trkpt>
<trkpt lat="-27.4009973" lon="152.9865148">
<ele>34.450</ele>
<time>2015-12-05T03:27:05.195Z</time>
</trkpt>
<trkpt lat="-27.4006130" lon="152.9863599">
<ele>35.283</ele>
<time>2015-12-05T03:27:08.098Z</time>
</trkpt>
<trkpt lat="-27.4003219" lon="152.9863232">
<ele>36.301</ele>
<time>2015-12-05T03:27:10.046Z</time>
</trkpt>
<trkpt lat="-27.4000022" lon="152.9862782">
<ele>37.753</ele>
<time>2015-12-05T03:27:12.072Z</time>
</trkpt>
<trkpt lat="-27.3995404" lon="152.9861862">
<ele>39.266</ele>
<time>2015-12-05T03:27:15.226Z</time>
</trkpt>
<trkpt lat="-27.3991991" lon="152.9861214">
<ele>40.619</ele>
<time>2015-12-05T03:27:17.896Z</time>
</trkpt>
<trkpt lat="-27.3989452" lon="152.9861397">
<ele>42.241</ele>
<time>2015-12-05T03:27:20.003Z</time>
</trkpt>
<trkpt lat="-27.3986616" lon="152.9862435">
<ele>44.423</ele>
<time>2015-12-05T03:27:22.357Z</time>
</trkpt>
<trkpt lat="-27.3980788" lon="152.9866458">
<ele>48.382</ele>
<time>2015-12-05T03:27:27.716Z</time>
</trkpt>
<trkpt lat="-27.3976082" lon="152.9869949">
<ele>51.035</ele>
<time>2015-12-05T03:27:32.186Z</time>
</trkpt>
<trkpt lat="-27.3973927" lon="152.9869971">
<ele>55.499</ele>
<time>2015-12-05T03:27:34.030Z</time>
</trkpt>
<trkpt lat="-27.3970970" lon="152.9868765">
<ele>59.760</ele>
<time>2015-12-05T03:27:36.822Z</time>
</trkpt>
<trkpt lat="-27.3968775" lon="152.9867720">
<ele>61.778</ele>
<time>2015-12-05T03:27:38.776Z</time>
</trkpt>
<trkpt lat="-27.3964996" lon="152.9865967">
<ele>61.747</ele>
<time>2015-12-05T03:27:41.912Z</time>
</trkpt>
<trkpt lat="-27.3961077" lon="152.9864178">
<ele>60.437</ele>
<time>2015-12-05T03:27:44.988Z</time>
</trkpt>
<trkpt lat="-27.3957582" lon="152.9862615">
<ele>57.995</ele>
<time>2015-12-05T03:27:47.720Z</time>
</trkpt>
<trkpt lat="-27.3953841" lon="152.9860989">
<ele>54.793</ele>
<time>2015-12-05T03:27:50.854Z</time>
</trkpt>
<trkpt lat="-27.3950694" lon="152.9859624">
<ele>52.144</ele>
<time>2015-12-05T03:27:53.742Z</time>
</trkpt>
<trkpt lat="-27.3947564" lon="152.9858114">
<ele>51.423</ele>
<time>2015-12-05T03:27:56.743Z</time>
</trkpt>
<trkpt lat="-27.3944284" lon="152.9856946">
<ele>53.173</ele>
<time>2015-12-05T03:27:59.690Z</time>
</trkpt>
<trkpt lat="-27.3942684" lon="152.9855399">
<ele>56.781</ele>
<time>2015-12-05T03:28:01.386Z</time>
</trkpt>
<trkpt lat="-27.3938540" lon="152.9854136">
<ele>60.469</ele>
<time>2015-12-05T03:28:04.555Z</time>
</trkpt>
<trkpt lat="-27.3934182" lon="152.9851881">
<ele>62.618</ele>
<time>2015-12-05T03:28:07.663Z</time>
</trkpt>
<trkpt lat="-27.3931180" lon="152.9850650">
<ele>62.470</ele>
<time>2015-12-05T03:28:09.648Z</time>
</trkpt>
<trkpt lat="-27.3926646" lon="152.9849084">
<ele>60.588</ele>
<time>2015-12-05T03:28:12.670Z</time>
</trkpt>
<trkpt lat="-27.3922077" lon="152.9848398">
<ele>58.713</ele>
<time>2015-12-05T03:28:15.684Z</time>
</trkpt>
<trkpt lat="-27.3917469" lon="152.9849119">
<ele>58.675</ele>
<time>2015-12-05T03:28:18.762Z</time>
</trkpt>
<trkpt lat="-27.3914431" lon="152.9849633">
<ele>61.388</ele>
<time>2015-12-05T03:28:20.818Z</time>
</trkpt>
<trkpt lat="-27.3911546" lon="152.9850226">
<ele>65.874</ele>
<time>2015-12-05T03:28:22.780Z</time>
</trkpt>
<trkpt lat="-27.3908620" lon="152.9850802">
<ele>69.941</ele>
<time>2015-12-05T03:28:24.717Z</time>
</trkpt>
<trkpt lat="-27.3904167" lon="152.9850973">
<ele>72.471</ele>
<time>2015-12-05T03:28:27.523Z</time>
</trkpt>
<trkpt lat="-27.3900739" lon="152.9850716">
<ele>73.249</ele>
<time>2015-12-05T03:28:29.597Z</time>
</trkpt>
<trkpt lat="-27.3895847" lon="152.9850101">
<ele>72.549</ele>
<time>2015-12-05T03:28:32.504Z</time>
</trkpt>
<trkpt lat="-27.3892673" lon="152.9850061">
<ele>71.397</ele>
<time>2015-12-05T03:28:34.390Z</time>
</trkpt>
<trkpt lat="-27.3888646" lon="152.9849364">
<ele>70.353</ele>
<time>2015-12-05T03:28:36.823Z</time>
</trkpt>
<trkpt lat="-27.3885285" lon="152.9848856">
<ele>69.231</ele>
<time>2015-12-05T03:28:38.842Z</time>
</trkpt>
<trkpt lat="-27.3881929" lon="152.9848863">
<ele>67.730</ele>
<time>2015-12-05T03:28:40.872Z</time>
</trkpt>
<trkpt lat="-27.3878789" lon="152.9848732">
<ele>65.983</ele>
<time>2015-12-05T03:28:42.866Z</time>
</trkpt>
<trkpt lat="-27.3874416" lon="152.9848093">
<ele>64.638</ele>
<time>2015-12-05T03:28:45.745Z</time>
</trkpt>
<trkpt lat="-27.3869492" lon="152.9847845">
<ele>63.705</ele>
<time>2015-12-05T03:28:48.917Z</time>
</trkpt>
<trkpt lat="-27.3860070" lon="152.9846509">
<ele>62.543</ele>
<time>2015-12-05T03:28:54.662Z</time>
</trkpt>
<trkpt lat="-27.3855257" lon="152.9842650">
<ele>61.228</ele>
<time>2015-12-05T03:28:58.206Z</time>
</trkpt>
<trkpt lat="-27.3851875" lon="152.9840452">
<ele>60.314</ele>
<time>2015-12-05T03:29:00.632Z</time>
</trkpt>
<trkpt lat="-27.3847788" lon="152.9837576">
<ele>60.111</ele>
<time>2015-12-05T03:29:03.602Z</time>
</trkpt>
<trkpt lat="-27.3843076" lon="152.9835506">
<ele>60.522</ele>
<time>2015-12-05T03:29:06.590Z</time>
</trkpt>
<trkpt lat="-27.3839448" lon="152.9834445">
<ele>60.720</ele>
<time>2015-12-05T03:29:08.686Z</time>
</trkpt>
<trkpt lat="-27.3834235" lon="152.9832622">
<ele>59.938</ele>
<time>2015-12-05T03:29:11.595Z</time>
</trkpt>
<trkpt lat="-27.3828627" lon="152.9831081">
<ele>58.218</ele>
<time>2015-12-05T03:29:14.708Z</time>
</trkpt>
<trkpt lat="-27.3823556" lon="152.9829355">
<ele>56.003</ele>
<time>2015-12-05T03:29:17.736Z</time>
</trkpt>
<trkpt lat="-27.3820910" lon="152.9827591">
<ele>53.306</ele>
<time>2015-12-05T03:29:19.636Z</time>
</trkpt>
<trkpt lat="-27.3817070" lon="152.9824601">
<ele>49.618</ele>
<time>2015-12-05T03:29:22.582Z</time>
</trkpt>
<trkpt lat="-27.3814700" lon="152.9822213">
<ele>45.453</ele>
<time>2015-12-05T03:29:24.625Z</time>
</trkpt>
<trkpt lat="-27.3812937" lon="152.9820399">
<ele>42.403</ele>
<time>2015-12-05T03:29:26.141Z</time>
</trkpt>
<trkpt lat="-27.3808787" lon="152.9816148">
<ele>41.029</ele>
<time>2015-12-05T03:29:29.638Z</time>
</trkpt>
<trkpt lat="-27.3806078" lon="152.9814019">
<ele>40.857</ele>
<time>2015-12-05T03:29:31.558Z</time>
</trkpt>
<trkpt lat="-27.3801567" lon="152.9810696">
<ele>41.551</ele>
<time>2015-12-05T03:29:34.534Z</time>
</trkpt>
<trkpt lat="-27.3797900" lon="152.9809254">
<ele>43.279</ele>
<time>2015-12-05T03:29:36.586Z</time>
</trkpt>
<trkpt lat="-27.3792679" lon="152.9807413">
<ele>46.248</ele>
<time>2015-12-05T03:29:39.440Z</time>
</trkpt>
<trkpt lat="-27.3788795" lon="152.9806414">
<ele>49.622</ele>
<time>2015-12-05T03:29:41.491Z</time>
</trkpt>
<trkpt lat="-27.3784960" lon="152.9805749">
<ele>52.698</ele>
<time>2015-12-05T03:29:43.445Z</time>
</trkpt>
<trkpt lat="-27.3778958" lon="152.9804936">
<ele>56.043</ele>
<time>2015-12-05T03:29:46.449Z</time>
</trkpt>
<trkpt lat="-27.3774863" lon="152.9804477">
<ele>59.587</ele>
<time>2015-12-05T03:29:48.469Z</time>
</trkpt>
<trkpt lat="-27.3770758" lon="152.9804021">
<ele>62.517</ele>
<time>2015-12-05T03:29:50.469Z</time>
</trkpt>
<trkpt lat="-27.3764703" lon="152.9803679">
<ele>64.760</ele>
<time>2015-12-05T03:29:53.387Z</time>
</trkpt>
<trkpt lat="-27.3760550" lon="152.9803294">
<ele>66.182</ele>
<time>2015-12-05T03:29:55.431Z</time>
</trkpt>
<trkpt lat="-27.3754989" lon="152.9803273">
<ele>66.263</ele>
<time>2015-12-05T03:29:58.200Z</time>
</trkpt>
<trkpt lat="-27.3748755" lon="152.9802908">
<ele>64.858</ele>
<time>2015-12-05T03:30:01.325Z</time>
</trkpt>
<trkpt lat="-27.3742811" lon="152.9802738">
<ele>62.176</ele>
<time>2015-12-05T03:30:04.340Z</time>
</trkpt>
<trkpt lat="-27.3738880" lon="152.9802807">
<ele>58.916</ele>
<time>2015-12-05T03:30:06.477Z</time>
</trkpt>
<trkpt lat="-27.3734242" lon="152.9802519">
<ele>56.175</ele>
<time>2015-12-05T03:30:09.179Z</time>
</trkpt>
<trkpt lat="-27.3730930" lon="152.9802832">
<ele>54.648</ele>
<time>2015-12-05T03:30:11.255Z</time>
</trkpt>
<trkpt lat="-27.3726073" lon="152.9802996">
<ele>54.221</ele>
<time>2015-12-05T03:30:14.317Z</time>
</trkpt>
<trkpt lat="-27.3722926" lon="152.9802836">
<ele>54.259</ele>
<time>2015-12-05T03:30:16.312Z</time>
</trkpt>
<trkpt lat="-27.3718204" lon="152.9802359">
<ele>54.278</ele>
<time>2015-12-05T03:30:19.328Z</time>
</trkpt>
<trkpt lat="-27.3715068" lon="152.9801606">
<ele>53.941</ele>
<time>2015-12-05T03:30:21.363Z</time>
</trkpt>
<trkpt lat="-27.3710426" lon="152.9800440">
<ele>52.961</ele>
<time>2015-12-05T03:30:24.387Z</time>
</trkpt>
<trkpt lat="-27.3706018" lon="152.9798934">
<ele>51.555</ele>
<time>2015-12-05T03:30:27.327Z</time>
</trkpt>
<trkpt lat="-27.3703050" lon="152.9797598">
<ele>50.190</ele>
<time>2015-12-05T03:30:29.364Z</time>
</trkpt>
<trkpt lat="-27.3700203" lon="152.9796189">
<ele>48.680</ele>
<time>2015-12-05T03:30:31.327Z</time>
</trkpt>
<trkpt lat="-27.3697338" lon="152.9794794">
<ele>46.771</ele>
<time>2015-12-05T03:30:33.291Z</time>
</trkpt>
<trkpt lat="-27.3693325" lon="152.9792124">
<ele>44.944</ele>
<time>2015-12-05T03:30:36.209Z</time>
</trkpt>
<trkpt lat="-27.3688520" lon="152.9790458">
<ele>43.256</ele>
<time>2015-12-05T03:30:39.312Z</time>
</trkpt>
<trkpt lat="-27.3685623" lon="152.9788989">
<ele>41.418</ele>
<time>2015-12-05T03:30:41.233Z</time>
</trkpt>
<trkpt lat="-27.3682573" lon="152.9787093">
<ele>39.995</ele>
<time>2015-12-05T03:30:43.312Z</time>
</trkpt>
<trkpt lat="-27.3678480" lon="152.9783908">
<ele>39.805</ele>
<time>2015-12-05T03:30:46.285Z</time>
</trkpt>
<trkpt lat="-27.3674732" lon="152.9780355">
<ele>40.960</ele>
<time>2015-12-05T03:30:49.257Z</time>
</trkpt>
<trkpt lat="-27.3672542" lon="152.9777529">
<ele>42.872</ele>
<time>2015-12-05T03:30:51.317Z</time>
</trkpt>
<trkpt lat="-27.3670640" lon="152.9774868">
<ele>44.508</ele>
<time>2015-12-05T03:30:53.195Z</time>
</trkpt>
<trkpt lat="-27.3667780" lon="152.9770390">
<ele>45.241</ele>
<time>2015-12-05T03:30:56.218Z</time>
</trkpt>
<trkpt lat="-27.3665830" lon="152.9767475">
<ele>45.170</ele>
<time>2015-12-05T03:30:58.224Z</time>
</trkpt>
<trkpt lat="-27.3663008" lon="152.9763166">
<ele>44.679</ele>
<time>2015-12-05T03:31:01.171Z</time>
</trkpt>
<trkpt lat="-27.3660271" lon="152.9758811">
<ele>44.103</ele>
<time>2015-12-05T03:31:04.095Z</time>
</trkpt>
<trkpt lat="-27.3657442" lon="152.9754512">
<ele>43.708</ele>
<time>2015-12-05T03:31:07.001Z</time>
</trkpt>
<trkpt lat="-27.3654327" lon="152.9750279">
<ele>43.832</ele>
<time>2015-12-05T03:31:09.899Z</time>
</trkpt>
<trkpt lat="-27.3651947" lon="152.9747337">
<ele>44.660</ele>
<time>2015-12-05T03:31:11.914Z</time>
</trkpt>
<trkpt lat="-27.3649304" lon="152.9744874">
<ele>46.077</ele>
<time>2015-12-05T03:31:14.080Z</time>
</trkpt>
<trkpt lat="-27.3646380" lon="152.9742241">
<ele>47.595</ele>
<time>2015-12-05T03:31:17.454Z</time>
</trkpt>
<trkpt lat="-27.3645449" lon="152.9741574">
<ele>48.358</ele>
<time>2015-12-05T03:31:19.000Z</time>
</trkpt>
<trkpt lat="-27.3645449" lon="152.9741574">
<ele>48.023</ele>
<time>2015-12-05T03:31:22.000Z</time>
</trkpt>
<trkpt lat="-27.3645449" lon="152.9741574">
<ele>47.452</ele>
<time>2015-12-05T03:31:47.839Z</time>
</trkpt>
<trkpt lat="-27.3644342" lon="152.9740808">
<ele>47.408</ele>
<time>2015-12-05T03:31:50.745Z</time>
</trkpt>
<trkpt lat="-27.3642152" lon="152.9739521">
<ele>47.694</ele>
<time>2015-12-05T03:31:53.074Z</time>
</trkpt>
<trkpt lat="-27.3637705" lon="152.9737085">
<ele>48.068</ele>
<time>2015-12-05T03:31:56.603Z</time>
</trkpt>
<trkpt lat="-27.3634283" lon="152.9735042">
<ele>48.945</ele>
<time>2015-12-05T03:31:59.075Z</time>
</trkpt>
<trkpt lat="-27.3629876" lon="152.9731520">
<ele>50.497</ele>
<time>2015-12-05T03:32:02.322Z</time>
</trkpt>
<trkpt lat="-27.3625815" lon="152.9727648">
<ele>51.904</ele>
<time>2015-12-05T03:32:05.449Z</time>
</trkpt>
<trkpt lat="-27.3622199" lon="152.9724431">
<ele>52.139</ele>
<time>2015-12-05T03:32:08.348Z</time>
</trkpt>
<trkpt lat="-27.3619619" lon="152.9722477">
<ele>50.999</ele>
<time>2015-12-05T03:32:10.638Z</time>
</trkpt>
<trkpt lat="-27.3617582" lon="152.9721041">
<ele>49.188</ele>
<time>2015-12-05T03:32:13.190Z</time>
</trkpt>
<trkpt lat="-27.3616303" lon="152.9720280">
<ele>47.294</ele>
<time>2015-12-05T03:32:15.653Z</time>
</trkpt>
<trkpt lat="-27.3615126" lon="152.9719549">
<ele>45.078</ele>
<time>2015-12-05T03:32:21.531Z</time>
</trkpt>
<trkpt lat="-27.3614142" lon="152.9718926">
<ele>42.368</ele>
<time>2015-12-05T03:32:27.645Z</time>
</trkpt>
<trkpt lat="-27.3613280" lon="152.9718380">
<ele>39.791</ele>
<time>2015-12-05T03:32:33.000Z</time>
</trkpt>
<trkpt lat="-27.3613280" lon="152.9718380">
<ele>38.114</ele>
<time>2015-12-05T03:32:40.000Z</time>
</trkpt>
<trkpt lat="-27.3613280" lon="152.9718380">
<ele>37.524</ele>
<time>2015-12-05T03:32:40.100Z</time>
</trkpt>
<trkpt lat="-27.3610022" lon="152.9714852">
<ele>37.616</ele>
<time>2015-12-05T03:32:51.688Z</time>
</trkpt>
<trkpt lat="-27.3612627" lon="152.9717964">
<ele>37.884</ele>
<time>2015-12-05T03:32:55.760Z</time>
</trkpt>
<trkpt lat="-27.3611210" lon="152.9717192">
<ele>38.056</ele>
<time>2015-12-05T03:32:57.123Z</time>
</trkpt>
<trkpt lat="-27.3606491" lon="152.9714136">
<ele>38.082</ele>
<time>2015-12-05T03:33:01.375Z</time>
</trkpt>
<trkpt lat="-27.3600416" lon="152.9710584">
<ele>37.824</ele>
<time>2015-12-05T03:33:05.877Z</time>
</trkpt>
<trkpt lat="-27.3596792" lon="152.9708404">
<ele>36.817</ele>
<time>2015-12-05T03:33:08.499Z</time>
</trkpt>
<trkpt lat="-27.3592766" lon="152.9705897">
<ele>34.804</ele>
<time>2015-12-05T03:33:11.530Z</time>
</trkpt>
<trkpt lat="-27.3589014" lon="152.9703403">
<ele>32.314</ele>
<time>2015-12-05T03:33:14.624Z</time>
</trkpt>
<trkpt lat="-27.3586572" lon="152.9701789">
<ele>29.951</ele>
<time>2015-12-05T03:33:16.883Z</time>
</trkpt>
<trkpt lat="-27.3584173" lon="152.9700178">
<ele>27.849</ele>
<time>2015-12-05T03:33:19.516Z</time>
</trkpt>
<trkpt lat="-27.3581149" lon="152.9698164">
<ele>26.113</ele>
<time>2015-12-05T03:33:23.485Z</time>
</trkpt>
<trkpt lat="-27.3579688" lon="152.9697311">
<ele>24.973</ele>
<time>2015-12-05T03:33:25.359Z</time>
</trkpt>
<trkpt lat="-27.3577698" lon="152.9695426">
<ele>24.452</ele>
<time>2015-12-05T03:33:27.900Z</time>
</trkpt>
<trkpt lat="-27.3576775" lon="152.9693122">
<ele>24.310</ele>
<time>2015-12-05T03:33:29.902Z</time>
</trkpt>
<trkpt lat="-27.3577854" lon="152.9690439">
<ele>24.309</ele>
<time>2015-12-05T03:33:32.203Z</time>
</trkpt>
<trkpt lat="-27.3578715" lon="152.9688525">
<ele>24.592</ele>
<time>2015-12-05T03:33:33.675Z</time>
</trkpt>
<trkpt lat="-27.3581814" lon="152.9681747">
<ele>25.997</ele>
<time>2015-12-05T03:33:38.305Z</time>
</trkpt>
<trkpt lat="-27.3584219" lon="152.9677016">
<ele>27.130</ele>
<time>2015-12-05T03:33:41.272Z</time>
</trkpt>
<trkpt lat="-27.3587398" lon="152.9669703">
<ele>28.770</ele>
<time>2015-12-05T03:33:45.353Z</time>
</trkpt>
<trkpt lat="-27.3588052" lon="152.9665772">
<ele>30.731</ele>
<time>2015-12-05T03:33:47.392Z</time>
</trkpt>
<trkpt lat="-27.3587797" lon="152.9660589">
<ele>32.959</ele>
<time>2015-12-05T03:33:50.076Z</time>
</trkpt>
<trkpt lat="-27.3586844" lon="152.9656859">
<ele>35.165</ele>
<time>2015-12-05T03:33:52.154Z</time>
</trkpt>
<trkpt lat="-27.3584748" lon="152.9652296">
<ele>37.157</ele>
<time>2015-12-05T03:33:54.899Z</time>
</trkpt>
<trkpt lat="-27.3582893" lon="152.9649633">
<ele>39.430</ele>
<time>2015-12-05T03:33:56.709Z</time>
</trkpt>
<trkpt lat="-27.3579559" lon="152.9645505">
<ele>42.096</ele>
<time>2015-12-05T03:33:59.710Z</time>
</trkpt>
<trkpt lat="-27.3577232" lon="152.9643105">
<ele>44.424</ele>
<time>2015-12-05T03:34:01.627Z</time>
</trkpt>
<trkpt lat="-27.3574029" lon="152.9639695">
<ele>45.479</ele>
<time>2015-12-05T03:34:04.337Z</time>
</trkpt>
<trkpt lat="-27.3571813" lon="152.9637258">
<ele>44.988</ele>
<time>2015-12-05T03:34:06.268Z</time>
</trkpt>
<trkpt lat="-27.3569700" lon="152.9634881">
<ele>43.503</ele>
<time>2015-12-05T03:34:08.125Z</time>
</trkpt>
<trkpt lat="-27.3567687" lon="152.9632500">
<ele>41.618</ele>
<time>2015-12-05T03:34:09.963Z</time>
</trkpt>
<trkpt lat="-27.3564798" lon="152.9628276">
<ele>39.550</ele>
<time>2015-12-05T03:34:13.038Z</time>
</trkpt>
<trkpt lat="-27.3562817" lon="152.9623799">
<ele>37.441</ele>
<time>2015-12-05T03:34:16.182Z</time>
</trkpt>
<trkpt lat="-27.3561543" lon="152.9621185">
<ele>35.494</ele>
<time>2015-12-05T03:34:18.227Z</time>
</trkpt>
<trkpt lat="-27.3559516" lon="152.9617559">
<ele>33.771</ele>
<time>2015-12-05T03:34:21.476Z</time>
</trkpt>
<trkpt lat="-27.3558079" lon="152.9614348">
<ele>32.259</ele>
<time>2015-12-05T03:34:24.289Z</time>
</trkpt>
<trkpt lat="-27.3557174" lon="152.9611247">
<ele>30.926</ele>
<time>2015-12-05T03:34:26.628Z</time>
</trkpt>
<trkpt lat="-27.3555032" lon="152.9607900">
<ele>29.882</ele>
<time>2015-12-05T03:34:29.271Z</time>
</trkpt>
<trkpt lat="-27.3553690" lon="152.9603449">
<ele>29.689</ele>
<time>2015-12-05T03:34:32.266Z</time>
</trkpt>
<trkpt lat="-27.3552649" lon="152.9600829">
<ele>30.576</ele>
<time>2015-12-05T03:34:34.107Z</time>
</trkpt>
<trkpt lat="-27.3551077" lon="152.9596880">
<ele>31.717</ele>
<time>2015-12-05T03:34:36.920Z</time>
</trkpt>
<trkpt lat="-27.3550013" lon="152.9593266">
<ele>32.169</ele>
<time>2015-12-05T03:34:39.403Z</time>
</trkpt>
<trkpt lat="-27.3549644" lon="152.9589725">
<ele>31.801</ele>
<time>2015-12-05T03:34:41.644Z</time>
</trkpt>
<trkpt lat="-27.3549446" lon="152.9585222">
<ele>31.101</ele>
<time>2015-12-05T03:34:44.408Z</time>
</trkpt>
<trkpt lat="-27.3549276" lon="152.9580644">
<ele>30.612</ele>
<time>2015-12-05T03:34:47.364Z</time>
</trkpt>
<trkpt lat="-27.3549140" lon="152.9577008">
<ele>30.421</ele>
<time>2015-12-05T03:34:50.190Z</time>
</trkpt>
<trkpt lat="-27.3549062" lon="152.9574907">
<ele>29.836</ele>
<time>2015-12-05T03:34:52.574Z</time>
</trkpt>
<trkpt lat="-27.3549815" lon="152.9573774">
<ele>28.119</ele>
<time>2015-12-05T03:34:54.235Z</time>
</trkpt>
<trkpt lat="-27.3552642" lon="152.9573176">
<ele>25.882</ele>
<time>2015-12-05T03:34:57.530Z</time>
</trkpt>
<trkpt lat="-27.3555007" lon="152.9572762">
<ele>24.541</ele>
<time>2015-12-05T03:34:59.605Z</time>
</trkpt>
<trkpt lat="-27.3558347" lon="152.9571697">
<ele>24.538</ele>
<time>2015-12-05T03:35:02.513Z</time>
</trkpt>
<trkpt lat="-27.3560388" lon="152.9570192">
<ele>25.209</ele>
<time>2015-12-05T03:35:04.632Z</time>
</trkpt>
<trkpt lat="-27.3562835" lon="152.9568707">
<ele>25.757</ele>
<time>2015-12-05T03:35:07.095Z</time>
</trkpt>
<trkpt lat="-27.3564521" lon="152.9567393">
<ele>25.888</ele>
<time>2015-12-05T03:35:09.015Z</time>
</trkpt>
<trkpt lat="-27.3565838" lon="152.9566366">
<ele>25.727</ele>
<time>2015-12-05T03:35:10.756Z</time>
</trkpt>
<trkpt lat="-27.3566640" lon="152.9565741">
<ele>25.392</ele>
<time>2015-12-05T03:35:12.000Z</time>
</trkpt>
<trkpt lat="-27.3566640" lon="152.9565741">
<ele>24.937</ele>
<time>2015-12-05T03:35:17.000Z</time>
</trkpt>
<trkpt lat="-27.3566640" lon="152.9565741">
<ele>24.618</ele>
<time>2015-12-05T03:35:35.958Z</time>
</trkpt>
<trkpt lat="-27.3568058" lon="152.9565968">
<ele>24.683</ele>
<time>2015-12-05T03:35:40.000Z</time>
</trkpt>
<trkpt lat="-27.3567478" lon="152.9565189">
<ele>25.134</ele>
<time>2015-12-05T03:35:45.000Z</time>
</trkpt>
<trkpt lat="-27.3567076" lon="152.9566143">
<ele>25.866</ele>
<time>2015-12-05T03:35:51.000Z</time>
</trkpt>
</trkseg>
</trk>
<extensions>
<fpdata xmlns="http://www.motionx.com/GPX-Extensions/1/1" sfv="10" origin="MotionXGPSFull 24.1 Build 5049R64">
<bin enc="base64">
RgIAAAACAAAAQ+ThbnqY1UEBAAAAUIyiNZeY1UEAAJN461zSQLYaAABdLBUCnMLjM3cv
OUDeoKXylZs6QAAAAAAKAAAAR0ggKyBQVEIgABQAAAA1IERlYyAyMDE1ICA1OjMwIGFt
AAAAAAByjKI1l5jVQXeGbkGXmNVBCEccAXslhOIFCZ1ALAAAAAAAAAAAiwownx5jQFe3
HzswWzvAnMLjM3cvOUAAAAAAAAAUQAAAAAAAABBAAAAAAABkrUAAAAAAAAAAAAAAAABR
uB6F62lqQLYtAGjJ4TlAAQAAANVVdWPQXoi/AQAAAAEAAADAZLijdX7FP2ckDfD83MG/
AQAAAAEAAAAAAAAAAAAAAAAAAAAAAAAAAAAAAAEAAAAOAAAAR0hfK19QVEJfLmdweAAB
AAAA8FJGP5eY1UEKAAAAAQAAAAoAAABHSCArIFBUQiAAAAAAAAwAAAAAAAAAAAAAAEMA
AADEAIDmlpjVQQAAAAAAAAAAAAAAAAAAAAD/JUS8AgAAAAAAAAAAAAAAAQAAACcAAAAy
NC4xIEJ1aWxkIDUwNDlSNjQsIE1YQUUgOC4xIGIuIDYyNlI2NAAAAAAA2GEAAAEAAAAB
NwAAALvpYVbVXGJWBDzZAHF6mNVBPNkAcXqY1UEAAAAip/cgQAAAAAACbeThbnqY1UFC
Bsf4epjVQQAAoDqkPIFAAAAAAALHgQlse5jVQWR6yWx7mNVBAABATqNUgUAAAAAAAtOD
ycd7mNVBjIBJyXuY1UEAAGDlooSBQAAAAAACROGJynuY1UGhS0rle5jVQQAAADGw3IRA
AAAAAAK2Ewr6e5jVQfBLh/97mNVBAABAOFeMhUAAAAAAAum2iT58mNVBbarJQXyY1UEA
AMCoVfSFQAAAAAACQ5BLX3yY1UEZ54hlfJjVQQAAgIMAvIZAAAAAAALcuww3fZjVQa4r
C199mNVBAADAfc67i0AAAAAAAvSjS2N9mNVBPIQHi32Y1UEAAGBDpVmQQAAAAAACOUVN
jn2Y1UE0R4rCfZjVQQAAEGN1nZNAAAAAAAIEqInIfZjVQbXhydR9mNVBAAAg/nhhlEAA
AAAAAjrnith9mNVBMJoK932Y1UEAAIAtdEmWQAAAAAADeLfBFX6Y1UF4t8EVfpjVQQAA
6Bmw6JdAAAAAAAT6KEhCfpjVQfooSEJ+mNVBAACEMRexmkAAAAAAA+8Bw0x+mNVB7wHD
TH6Y1UEAAJDAxFibQAAAAAAEsB7HUn6Y1UGwHsdSfpjVQQAAYIwGuZtAAAAAAAMA5v9k
fpjVQQDm/2R+mNVBAAAQBpPcnEAAAAAABIo/R5l+mNVBij9HmX6Y1UEAAKRNhBCgQAAA
AAAC1/jN+32Y1UHMtskRf5jVQQAAaAaY1KNAAAAAAAIl6U0ef5jVQYS5fD9/mNVBAABg
iQ7epEAAAAAAAsPXSrB/mNVB/TGKu3+Y1UEAADBbCTilQAAAAAACoG1Kx3+Y1UHpYkaI
gpjVQQAAvIL0n7VAAAAAAALedoqNgpjVQYwuBrOEmNVBAAB0YeM1vkAAAAAAAv60CbmE
mNVBIJ2HnoWY1UEAAP6A7eXAQAAAAAACWJCKyouY1UFYjUeLjJjVQQAA/npnZ8JAAAAA
AAIwvcm/jJjVQeBOyMCMmNVBAABenmRpwkAAAAAAAra7iuKMmNVBWRQH5oyY1UEAAKRP
XXDCQAAAAAACVrfK+oyY1UHxuQfujZjVQQAA2lTXVsRAAAAAAAJwfAr7jZjVQZMaiBaP
mNVBAAAgkdKNxkAAAAAAAsSxRxiPmNVBqvAFb4+Y1UEAAOwOTzvHQAAAAAACX+6IdI+Y
1UE3qUeXkJjVQQAAnITMgMlAAAAAAAJF9cqekJjVQeuLh6yQmNVBAADosUWcyUAAAAAA
Atp0Ca6QmNVB+MdIs5CY1UEAACRYxKbJQAAAAAACqS8KtZCY1UECmkf8kJjVQQAA1iw/
NcpAAAAAAAIFo4pvkZjVQd5Zx3CRmNVBAACImrg3ykAAAAAAAsQhyXaRmNVBPu1IJpOY
1UEAAHwxuJbNQAAAAAACebEJLpOY1UGnJIdClJjVQQAA2Bezv89AAAAAAAJQbAlHlJjV
QZHuCCSVmNVBAAAtDtm80EAAAAAAA+C4MUKVmNVB4LgxQpWY1UEAgDdVPtLQQAAAAAAE
q3fHeZWY1UGrd8d5lZjVQQAA+hPUCdFAAAAAAAPRkvB/lZjVQdGS8H+VmNVBAEAoL/0P
0UAAAAAABOuNRqKVmNVB641GopWY1UEAAD4qUzLRQAAAAAACCHLMLJWY1UGmEMi9lZjV
QQAAy6zUTdFAAAAAAAJDOwm/lZjVQVTDhseVmNVBAADcNFJW0UAAAAAAAkxVSsuVmNVB
R3YG15WY1UEAANdVDmLRQAAAAAAC3/tK5ZWY1UHUucv0lZjVQQAAzBOPcdFAAAAAAALO
jk74lZjVQYxHDB6WmNVBAACKzEyX0UAAAAAAAhu5ETCWmNVBf74LM5aY1UEAAO7RRprR
QAAAAAACAIyOT5aY1UH4xkdalpjVQQAA5gwApdFAAAAAAAK6FY5clpjVQbYUiqKWmNVB
AADiC/zq0UAAAAAAAhUai6mWmNVBRukKtpaY1UEAABPbe/fRQAAAAAACI6AJt5aY1UFc
sEvdlpjVQQAATOu9HdJAAAAAAAE0EwzjlpjVQWg99CGXmNVBAACAFaZc0kAAAAAAAS2z
JTWXmNVBQBZrNZeY1UEAAJN461zSQAAAAAAAAAAA
</bin>
</fpdata>
</extensions>
</gpx>